<?xml version="1.0" encoding="UTF-8" standalone="no" ?>
<gpx xmlns="http://www.topografix.com/GPX/1/1" xmlns:xsi="http://www.w3.org/2001/XMLSchema-instance" xsi:schemaLocation="http://www.topografix.com/GPX/1/1 http://www.topografix.com/GPX/1/1/gpx.xsd" version="1.1" creator="VisuGPX - https://www.visugpx.com">
  <metadata>
    <name>Mont Vaudois au plus court</name>
    <desc><![CDATA[Mont Vaudois au plus court]]></desc>
  </metadata>
  <wpt lat="47.50121" lon="6.76053">
    <ele>379</ele>
    <name><![CDATA[Point de cheminement 1]]></name>
    <desc><![CDATA[]]></desc>
  </wpt>
  <wpt lat="47.49944" lon="6.75799">
    <ele>373</ele>
    <name><![CDATA[Point de cheminement 2]]></name>
    <desc><![CDATA[]]></desc>
  </wpt>
  <wpt lat="47.51197" lon="6.76065">
    <ele>367</ele>
    <name><![CDATA[Point de cheminement 3]]></name>
    <desc><![CDATA[]]></desc>
  </wpt>
  <wpt lat="47.53392" lon="6.76952">
    <ele>378</ele>
    <name><![CDATA[Point de cheminement 4]]></name>
    <desc><![CDATA[]]></desc>
  </wpt>
  <wpt lat="47.54811" lon="6.79431">
    <ele>357</ele>
    <name><![CDATA[Point de cheminement 5]]></name>
    <desc><![CDATA[]]></desc>
  </wpt>
  <wpt lat="47.57016" lon="6.80321">
    <ele>412</ele>
    <name><![CDATA[Point de cheminement 6]]></name>
    <desc><![CDATA[]]></desc>
  </wpt>
  <wpt lat="47.59108" lon="6.78947">
    <ele>376</ele>
    <name><![CDATA[Point de cheminement 7]]></name>
    <desc><![CDATA[]]></desc>
  </wpt>
  <wpt lat="47.59639" lon="6.77378">
    <ele>455</ele>
    <name><![CDATA[Point de cheminement 8]]></name>
    <desc><![CDATA[]]></desc>
  </wpt>
  <wpt lat="47.59616" lon="6.75609">
    <ele>522</ele>
    <name><![CDATA[Point de cheminement 9]]></name>
    <desc><![CDATA[]]></desc>
  </wpt>
  <wpt lat="47.577" lon="6.73692">
    <ele>348</ele>
    <name><![CDATA[Point de cheminement 10]]></name>
    <desc><![CDATA[]]></desc>
  </wpt>
  <wpt lat="47.55658" lon="6.74084">
    <ele>418</ele>
    <name><![CDATA[Point de cheminement 11]]></name>
    <desc><![CDATA[]]></desc>
  </wpt>
  <wpt lat="47.55153" lon="6.74693">
    <ele>451</ele>
    <name><![CDATA[Point de cheminement 12]]></name>
    <desc><![CDATA[]]></desc>
  </wpt>
  <wpt lat="47.54195" lon="6.75626">
    <ele>453</ele>
    <name><![CDATA[Point de cheminement 13]]></name>
    <desc><![CDATA[]]></desc>
  </wpt>
  <trk>
    <name><![CDATA[Rue Antoine Coysevox]]></name>
    <desc><![CDATA[]]></desc>
    <trkseg>
      <trkpt lat="47.51788" lon="6.77498">
        <ele>388</ele>
        <time>2016-07-17T06:47:03.100Z</time>
      </trkpt>
      <trkpt lat="47.51791" lon="6.77496">
        <ele>388</ele>
        <time>2016-07-17T06:47:11.000Z</time>
      </trkpt>
      <trkpt lat="47.51792" lon="6.77493">
        <ele>388</ele>
        <time>2016-07-17T06:47:12.000Z</time>
      </trkpt>
      <trkpt lat="47.51795" lon="6.77489">
        <ele>388</ele>
        <time>2016-07-17T06:47:28.000Z</time>
      </trkpt>
      <trkpt lat="47.51796" lon="6.77488">
        <ele>388</ele>
        <time>2016-07-17T06:47:29.000Z</time>
      </trkpt>
      <trkpt lat="47.51796" lon="6.77487">
        <ele>388</ele>
        <time>2016-07-17T06:48:30.000Z</time>
      </trkpt>
      <trkpt lat="47.51797" lon="6.77469">
        <ele>388</ele>
        <time>2016-07-17T06:48:31.000Z</time>
      </trkpt>
      <trkpt lat="47.51799" lon="6.77474">
        <ele>388</ele>
        <time>2016-07-17T06:49:58.000Z</time>
      </trkpt>
      <trkpt lat="47.51799" lon="6.77476">
        <ele>388</ele>
        <time>2016-07-17T06:49:59.000Z</time>
      </trkpt>
      <trkpt lat="47.518" lon="6.77482">
        <ele>388</ele>
        <time>2016-07-17T06:50:12.000Z</time>
      </trkpt>
      <trkpt lat="47.518" lon="6.77482">
        <ele>388</ele>
        <time>2016-07-17T06:50:13.000Z</time>
      </trkpt>
      <trkpt lat="47.51803" lon="6.77478">
        <ele>388</ele>
        <time>2016-07-17T06:51:00.000Z</time>
      </trkpt>
      <trkpt lat="47.51804" lon="6.77478">
        <ele>388</ele>
        <time>2016-07-17T06:51:01.000Z</time>
      </trkpt>
      <trkpt lat="47.51807" lon="6.77481">
        <ele>388</ele>
        <time>2016-07-17T06:51:46.000Z</time>
      </trkpt>
      <trkpt lat="47.51808" lon="6.77482">
        <ele>388</ele>
        <time>2016-07-17T06:51:47.000Z</time>
      </trkpt>
      <trkpt lat="47.51809" lon="6.77488">
        <ele>388</ele>
        <time>2016-07-17T06:51:50.000Z</time>
      </trkpt>
      <trkpt lat="47.51807" lon="6.7749">
        <ele>388</ele>
        <time>2016-07-17T06:51:51.000Z</time>
      </trkpt>
      <trkpt lat="47.51805" lon="6.77491">
        <ele>388</ele>
        <time>2016-07-17T06:51:52.000Z</time>
      </trkpt>
      <trkpt lat="47.51802" lon="6.77492">
        <ele>388</ele>
        <time>2016-07-17T06:51:53.000Z</time>
      </trkpt>
      <trkpt lat="47.518" lon="6.77491">
        <ele>388</ele>
        <time>2016-07-17T06:51:54.000Z</time>
      </trkpt>
      <trkpt lat="47.51797" lon="6.7749">
        <ele>388</ele>
        <time>2016-07-17T06:51:55.000Z</time>
      </trkpt>
      <trkpt lat="47.51795" lon="6.77488">
        <ele>388</ele>
        <time>2016-07-17T06:51:56.000Z</time>
      </trkpt>
      <trkpt lat="47.51792" lon="6.77487">
        <ele>388</ele>
        <time>2016-07-17T06:51:57.000Z</time>
      </trkpt>
      <trkpt lat="47.5179" lon="6.77485">
        <ele>388</ele>
        <time>2016-07-17T06:51:58.000Z</time>
      </trkpt>
      <trkpt lat="47.51787" lon="6.77484">
        <ele>388</ele>
        <time>2016-07-17T06:51:59.000Z</time>
      </trkpt>
      <trkpt lat="47.51785" lon="6.77483">
        <ele>388</ele>
        <time>2016-07-17T06:52:00.000Z</time>
      </trkpt>
      <trkpt lat="47.51782" lon="6.77481">
        <ele>388</ele>
        <time>2016-07-17T06:52:01.000Z</time>
      </trkpt>
      <trkpt lat="47.51778" lon="6.77481">
        <ele>388</ele>
        <time>2016-07-17T06:52:02.000Z</time>
      </trkpt>
      <trkpt lat="47.51775" lon="6.7748">
        <ele>388</ele>
        <time>2016-07-17T06:52:03.000Z</time>
      </trkpt>
      <trkpt lat="47.51771" lon="6.77479">
        <ele>388</ele>
        <time>2016-07-17T06:52:04.000Z</time>
      </trkpt>
      <trkpt lat="47.51768" lon="6.77478">
        <ele>388</ele>
        <time>2016-07-17T06:52:05.000Z</time>
      </trkpt>
      <trkpt lat="47.51764" lon="6.77478">
        <ele>389</ele>
        <time>2016-07-17T06:52:06.000Z</time>
      </trkpt>
      <trkpt lat="47.5176" lon="6.77477">
        <ele>389</ele>
        <time>2016-07-17T06:52:07.000Z</time>
      </trkpt>
      <trkpt lat="47.51757" lon="6.77476">
        <ele>389</ele>
        <time>2016-07-17T06:52:08.000Z</time>
      </trkpt>
      <trkpt lat="47.51753" lon="6.77475">
        <ele>389</ele>
        <time>2016-07-17T06:52:09.000Z</time>
      </trkpt>
      <trkpt lat="47.51749" lon="6.77474">
        <ele>389</ele>
        <time>2016-07-17T06:52:10.000Z</time>
      </trkpt>
      <trkpt lat="47.51744" lon="6.77473">
        <ele>389</ele>
        <time>2016-07-17T06:52:11.000Z</time>
      </trkpt>
      <trkpt lat="47.5174" lon="6.77472">
        <ele>389</ele>
        <time>2016-07-17T06:52:12.000Z</time>
      </trkpt>
      <trkpt lat="47.51736" lon="6.77472">
        <ele>389</ele>
        <time>2016-07-17T06:52:13.000Z</time>
      </trkpt>
      <trkpt lat="47.51731" lon="6.77472">
        <ele>389</ele>
        <time>2016-07-17T06:52:14.000Z</time>
      </trkpt>
      <trkpt lat="47.51727" lon="6.77475">
        <ele>389</ele>
        <time>2016-07-17T06:52:15.000Z</time>
      </trkpt>
      <trkpt lat="47.51724" lon="6.77478">
        <ele>389</ele>
        <time>2016-07-17T06:52:16.000Z</time>
      </trkpt>
      <trkpt lat="47.51721" lon="6.77483">
        <ele>389</ele>
        <time>2016-07-17T06:52:17.000Z</time>
      </trkpt>
      <trkpt lat="47.51718" lon="6.77489">
        <ele>389</ele>
        <time>2016-07-17T06:52:18.000Z</time>
      </trkpt>
      <trkpt lat="47.51716" lon="6.77496">
        <ele>389</ele>
        <time>2016-07-17T06:52:19.000Z</time>
      </trkpt>
      <trkpt lat="47.51715" lon="6.77503">
        <ele>390</ele>
        <time>2016-07-17T06:52:20.000Z</time>
      </trkpt>
      <trkpt lat="47.51714" lon="6.7751">
        <ele>390</ele>
        <time>2016-07-17T06:52:21.000Z</time>
      </trkpt>
      <trkpt lat="47.51713" lon="6.77517">
        <ele>390</ele>
        <time>2016-07-17T06:52:22.000Z</time>
      </trkpt>
      <trkpt lat="47.51715" lon="6.77529">
        <ele>390</ele>
        <time>2016-07-17T06:52:23.000Z</time>
      </trkpt>
      <trkpt lat="47.51714" lon="6.77535">
        <ele>390</ele>
        <time>2016-07-17T06:52:24.000Z</time>
      </trkpt>
      <trkpt lat="47.51712" lon="6.77541">
        <ele>390</ele>
        <time>2016-07-17T06:52:25.000Z</time>
      </trkpt>
      <trkpt lat="47.51707" lon="6.77545">
        <ele>390</ele>
        <time>2016-07-17T06:52:26.000Z</time>
      </trkpt>
      <trkpt lat="47.51703" lon="6.77545">
        <ele>390</ele>
        <time>2016-07-17T06:52:27.000Z</time>
      </trkpt>
      <trkpt lat="47.51699" lon="6.77541">
        <ele>390</ele>
        <time>2016-07-17T06:52:28.000Z</time>
      </trkpt>
      <trkpt lat="47.51695" lon="6.77536">
        <ele>390</ele>
        <time>2016-07-17T06:52:29.000Z</time>
      </trkpt>
      <trkpt lat="47.51692" lon="6.77531">
        <ele>390</ele>
        <time>2016-07-17T06:52:30.000Z</time>
      </trkpt>
      <trkpt lat="47.51687" lon="6.77526">
        <ele>390</ele>
        <time>2016-07-17T06:52:31.000Z</time>
      </trkpt>
      <trkpt lat="47.51683" lon="6.77522">
        <ele>390</ele>
        <time>2016-07-17T06:52:32.000Z</time>
      </trkpt>
      <trkpt lat="47.51678" lon="6.77517">
        <ele>390</ele>
        <time>2016-07-17T06:52:33.000Z</time>
      </trkpt>
      <trkpt lat="47.51674" lon="6.77512">
        <ele>389</ele>
        <time>2016-07-17T06:52:34.000Z</time>
      </trkpt>
      <trkpt lat="47.51668" lon="6.77506">
        <ele>389</ele>
        <time>2016-07-17T06:52:35.000Z</time>
      </trkpt>
      <trkpt lat="47.51664" lon="6.775">
        <ele>389</ele>
        <time>2016-07-17T06:52:36.000Z</time>
      </trkpt>
      <trkpt lat="47.51659" lon="6.77494">
        <ele>388</ele>
        <time>2016-07-17T06:52:37.000Z</time>
      </trkpt>
      <trkpt lat="47.51654" lon="6.77487">
        <ele>387</ele>
        <time>2016-07-17T06:52:38.000Z</time>
      </trkpt>
      <trkpt lat="47.51649" lon="6.77481">
        <ele>387</ele>
        <time>2016-07-17T06:52:39.000Z</time>
      </trkpt>
      <trkpt lat="47.51643" lon="6.77476">
        <ele>387</ele>
        <time>2016-07-17T06:52:40.000Z</time>
      </trkpt>
      <trkpt lat="47.51638" lon="6.7747">
        <ele>386</ele>
        <time>2016-07-17T06:52:41.000Z</time>
      </trkpt>
      <trkpt lat="47.51632" lon="6.77463">
        <ele>386</ele>
        <time>2016-07-17T06:52:42.000Z</time>
      </trkpt>
      <trkpt lat="47.51627" lon="6.77457">
        <ele>386</ele>
        <time>2016-07-17T06:52:43.000Z</time>
      </trkpt>
      <trkpt lat="47.5162" lon="6.7745">
        <ele>386</ele>
        <time>2016-07-17T06:52:44.000Z</time>
      </trkpt>
      <trkpt lat="47.51615" lon="6.77442">
        <ele>385</ele>
        <time>2016-07-17T06:52:45.000Z</time>
      </trkpt>
      <trkpt lat="47.51609" lon="6.77435">
        <ele>385</ele>
        <time>2016-07-17T06:52:46.000Z</time>
      </trkpt>
      <trkpt lat="47.51602" lon="6.77428">
        <ele>385</ele>
        <time>2016-07-17T06:52:47.000Z</time>
      </trkpt>
      <trkpt lat="47.51597" lon="6.7742">
        <ele>384</ele>
        <time>2016-07-17T06:52:48.000Z</time>
      </trkpt>
      <trkpt lat="47.51591" lon="6.77413">
        <ele>383</ele>
        <time>2016-07-17T06:52:49.000Z</time>
      </trkpt>
      <trkpt lat="47.51584" lon="6.77406">
        <ele>383</ele>
        <time>2016-07-17T06:52:50.000Z</time>
      </trkpt>
      <trkpt lat="47.51577" lon="6.77398">
        <ele>382</ele>
        <time>2016-07-17T06:52:51.000Z</time>
      </trkpt>
      <trkpt lat="47.51571" lon="6.7739">
        <ele>381</ele>
        <time>2016-07-17T06:52:52.000Z</time>
      </trkpt>
      <trkpt lat="47.51565" lon="6.77383">
        <ele>381</ele>
        <time>2016-07-17T06:52:53.000Z</time>
      </trkpt>
      <trkpt lat="47.51558" lon="6.77375">
        <ele>381</ele>
        <time>2016-07-17T06:52:54.000Z</time>
      </trkpt>
      <trkpt lat="47.51551" lon="6.77367">
        <ele>381</ele>
        <time>2016-07-17T06:52:55.000Z</time>
      </trkpt>
      <trkpt lat="47.51544" lon="6.77359">
        <ele>380</ele>
        <time>2016-07-17T06:52:56.000Z</time>
      </trkpt>
      <trkpt lat="47.51537" lon="6.7735">
        <ele>380</ele>
        <time>2016-07-17T06:52:57.000Z</time>
      </trkpt>
      <trkpt lat="47.5153" lon="6.77342">
        <ele>380</ele>
        <time>2016-07-17T06:52:58.000Z</time>
      </trkpt>
      <trkpt lat="47.51522" lon="6.77333">
        <ele>378</ele>
        <time>2016-07-17T06:52:59.000Z</time>
      </trkpt>
      <trkpt lat="47.51514" lon="6.77324">
        <ele>378</ele>
        <time>2016-07-17T06:53:00.000Z</time>
      </trkpt>
      <trkpt lat="47.51507" lon="6.77315">
        <ele>378</ele>
        <time>2016-07-17T06:53:01.000Z</time>
      </trkpt>
      <trkpt lat="47.515" lon="6.77305">
        <ele>377</ele>
        <time>2016-07-17T06:53:02.000Z</time>
      </trkpt>
      <trkpt lat="47.51493" lon="6.77294">
        <ele>377</ele>
        <time>2016-07-17T06:53:03.000Z</time>
      </trkpt>
      <trkpt lat="47.51491" lon="6.7728">
        <ele>377</ele>
        <time>2016-07-17T06:53:04.000Z</time>
      </trkpt>
      <trkpt lat="47.51488" lon="6.77268">
        <ele>376</ele>
        <time>2016-07-17T06:53:05.000Z</time>
      </trkpt>
      <trkpt lat="47.51487" lon="6.77255">
        <ele>376</ele>
        <time>2016-07-17T06:53:06.000Z</time>
      </trkpt>
      <trkpt lat="47.51486" lon="6.77242">
        <ele>376</ele>
        <time>2016-07-17T06:53:07.000Z</time>
      </trkpt>
      <trkpt lat="47.51486" lon="6.77229">
        <ele>375</ele>
        <time>2016-07-17T06:53:08.000Z</time>
      </trkpt>
      <trkpt lat="47.51486" lon="6.77217">
        <ele>375</ele>
        <time>2016-07-17T06:53:09.000Z</time>
      </trkpt>
      <trkpt lat="47.51483" lon="6.77206">
        <ele>375</ele>
        <time>2016-07-17T06:53:10.000Z</time>
      </trkpt>
      <trkpt lat="47.51478" lon="6.77199">
        <ele>375</ele>
        <time>2016-07-17T06:53:11.000Z</time>
      </trkpt>
      <trkpt lat="47.51468" lon="6.772">
        <ele>375</ele>
        <time>2016-07-17T06:53:12.000Z</time>
      </trkpt>
      <trkpt lat="47.51459" lon="6.77201">
        <ele>375</ele>
        <time>2016-07-17T06:53:13.000Z</time>
      </trkpt>
      <trkpt lat="47.51451" lon="6.77205">
        <ele>375</ele>
        <time>2016-07-17T06:53:14.000Z</time>
      </trkpt>
      <trkpt lat="47.51443" lon="6.77209">
        <ele>375</ele>
        <time>2016-07-17T06:53:15.000Z</time>
      </trkpt>
      <trkpt lat="47.51434" lon="6.77213">
        <ele>375</ele>
        <time>2016-07-17T06:53:16.000Z</time>
      </trkpt>
      <trkpt lat="47.51427" lon="6.77216">
        <ele>375</ele>
        <time>2016-07-17T06:53:17.000Z</time>
      </trkpt>
      <trkpt lat="47.5142" lon="6.7722">
        <ele>375</ele>
        <time>2016-07-17T06:53:18.000Z</time>
      </trkpt>
      <trkpt lat="47.51413" lon="6.77223">
        <ele>376</ele>
        <time>2016-07-17T06:53:19.000Z</time>
      </trkpt>
      <trkpt lat="47.51406" lon="6.77226">
        <ele>376</ele>
        <time>2016-07-17T06:53:20.000Z</time>
      </trkpt>
      <trkpt lat="47.514" lon="6.77229">
        <ele>376</ele>
        <time>2016-07-17T06:53:21.000Z</time>
      </trkpt>
      <trkpt lat="47.51395" lon="6.77232">
        <ele>376</ele>
        <time>2016-07-17T06:53:22.000Z</time>
      </trkpt>
      <trkpt lat="47.51389" lon="6.77235">
        <ele>376</ele>
        <time>2016-07-17T06:53:23.000Z</time>
      </trkpt>
      <trkpt lat="47.51383" lon="6.77239">
        <ele>376</ele>
        <time>2016-07-17T06:53:24.000Z</time>
      </trkpt>
      <trkpt lat="47.51379" lon="6.77241">
        <ele>376</ele>
        <time>2016-07-17T06:53:25.000Z</time>
      </trkpt>
      <trkpt lat="47.51375" lon="6.77244">
        <ele>376</ele>
        <time>2016-07-17T06:53:26.000Z</time>
      </trkpt>
      <trkpt lat="47.5137" lon="6.77247">
        <ele>376</ele>
        <time>2016-07-17T06:53:27.000Z</time>
      </trkpt>
      <trkpt lat="47.51367" lon="6.77251">
        <ele>378</ele>
        <time>2016-07-17T06:53:28.000Z</time>
      </trkpt>
      <trkpt lat="47.51363" lon="6.77254">
        <ele>378</ele>
        <time>2016-07-17T06:53:29.000Z</time>
      </trkpt>
      <trkpt lat="47.51359" lon="6.77256">
        <ele>378</ele>
        <time>2016-07-17T06:53:30.000Z</time>
      </trkpt>
      <trkpt lat="47.51356" lon="6.77259">
        <ele>378</ele>
        <time>2016-07-17T06:53:31.000Z</time>
      </trkpt>
      <trkpt lat="47.51353" lon="6.77263">
        <ele>378</ele>
        <time>2016-07-17T06:53:32.000Z</time>
      </trkpt>
      <trkpt lat="47.51349" lon="6.77266">
        <ele>378</ele>
        <time>2016-07-17T06:53:33.000Z</time>
      </trkpt>
      <trkpt lat="47.51347" lon="6.77269">
        <ele>378</ele>
        <time>2016-07-17T06:53:34.000Z</time>
      </trkpt>
      <trkpt lat="47.51344" lon="6.77271">
        <ele>378</ele>
        <time>2016-07-17T06:53:35.000Z</time>
      </trkpt>
      <trkpt lat="47.51342" lon="6.77272">
        <ele>378</ele>
        <time>2016-07-17T06:53:36.000Z</time>
      </trkpt>
      <trkpt lat="47.51339" lon="6.77274">
        <ele>378</ele>
        <time>2016-07-17T06:53:37.000Z</time>
      </trkpt>
      <trkpt lat="47.51336" lon="6.77276">
        <ele>378</ele>
        <time>2016-07-17T06:53:38.000Z</time>
      </trkpt>
      <trkpt lat="47.51333" lon="6.77278">
        <ele>378</ele>
        <time>2016-07-17T06:53:39.000Z</time>
      </trkpt>
      <trkpt lat="47.51331" lon="6.77279">
        <ele>377</ele>
        <time>2016-07-17T06:53:40.000Z</time>
      </trkpt>
      <trkpt lat="47.51328" lon="6.77279">
        <ele>377</ele>
        <time>2016-07-17T06:53:41.000Z</time>
      </trkpt>
      <trkpt lat="47.51325" lon="6.7728">
        <ele>377</ele>
        <time>2016-07-17T06:53:42.000Z</time>
      </trkpt>
      <trkpt lat="47.51322" lon="6.7728">
        <ele>377</ele>
        <time>2016-07-17T06:53:43.000Z</time>
      </trkpt>
      <trkpt lat="47.51319" lon="6.77279">
        <ele>377</ele>
        <time>2016-07-17T06:53:44.000Z</time>
      </trkpt>
      <trkpt lat="47.51316" lon="6.77279">
        <ele>377</ele>
        <time>2016-07-17T06:53:45.000Z</time>
      </trkpt>
      <trkpt lat="47.51313" lon="6.77279">
        <ele>377</ele>
        <time>2016-07-17T06:53:46.000Z</time>
      </trkpt>
      <trkpt lat="47.5131" lon="6.77277">
        <ele>377</ele>
        <time>2016-07-17T06:53:47.000Z</time>
      </trkpt>
      <trkpt lat="47.51307" lon="6.77276">
        <ele>377</ele>
        <time>2016-07-17T06:53:48.000Z</time>
      </trkpt>
      <trkpt lat="47.51304" lon="6.77274">
        <ele>377</ele>
        <time>2016-07-17T06:53:49.000Z</time>
      </trkpt>
      <trkpt lat="47.51301" lon="6.77271">
        <ele>377</ele>
        <time>2016-07-17T06:53:50.000Z</time>
      </trkpt>
      <trkpt lat="47.51297" lon="6.7727">
        <ele>377</ele>
        <time>2016-07-17T06:53:51.000Z</time>
      </trkpt>
      <trkpt lat="47.51294" lon="6.77268">
        <ele>377</ele>
        <time>2016-07-17T06:53:52.000Z</time>
      </trkpt>
      <trkpt lat="47.51291" lon="6.77267">
        <ele>377</ele>
        <time>2016-07-17T06:53:53.000Z</time>
      </trkpt>
      <trkpt lat="47.51287" lon="6.77265">
        <ele>377</ele>
        <time>2016-07-17T06:53:54.000Z</time>
      </trkpt>
      <trkpt lat="47.51284" lon="6.77263">
        <ele>377</ele>
        <time>2016-07-17T06:53:55.000Z</time>
      </trkpt>
      <trkpt lat="47.51281" lon="6.77261">
        <ele>377</ele>
        <time>2016-07-17T06:53:56.000Z</time>
      </trkpt>
      <trkpt lat="47.51277" lon="6.77259">
        <ele>377</ele>
        <time>2016-07-17T06:53:57.000Z</time>
      </trkpt>
      <trkpt lat="47.51274" lon="6.77257">
        <ele>377</ele>
        <time>2016-07-17T06:53:58.000Z</time>
      </trkpt>
      <trkpt lat="47.51271" lon="6.77254">
        <ele>378</ele>
        <time>2016-07-17T06:53:59.000Z</time>
      </trkpt>
      <trkpt lat="47.51268" lon="6.77251">
        <ele>378</ele>
        <time>2016-07-17T06:54:00.000Z</time>
      </trkpt>
      <trkpt lat="47.51265" lon="6.77248">
        <ele>378</ele>
        <time>2016-07-17T06:54:01.000Z</time>
      </trkpt>
      <trkpt lat="47.51261" lon="6.77244">
        <ele>378</ele>
        <time>2016-07-17T06:54:02.000Z</time>
      </trkpt>
      <trkpt lat="47.51258" lon="6.7724">
        <ele>378</ele>
        <time>2016-07-17T06:54:03.000Z</time>
      </trkpt>
      <trkpt lat="47.51256" lon="6.77233">
        <ele>378</ele>
        <time>2016-07-17T06:54:04.000Z</time>
      </trkpt>
      <trkpt lat="47.51253" lon="6.77228">
        <ele>378</ele>
        <time>2016-07-17T06:54:05.000Z</time>
      </trkpt>
      <trkpt lat="47.5125" lon="6.77221">
        <ele>376</ele>
        <time>2016-07-17T06:54:06.000Z</time>
      </trkpt>
      <trkpt lat="47.51247" lon="6.77216">
        <ele>376</ele>
        <time>2016-07-17T06:54:07.000Z</time>
      </trkpt>
      <trkpt lat="47.51244" lon="6.7721">
        <ele>376</ele>
        <time>2016-07-17T06:54:08.000Z</time>
      </trkpt>
      <trkpt lat="47.51241" lon="6.77203">
        <ele>376</ele>
        <time>2016-07-17T06:54:09.000Z</time>
      </trkpt>
      <trkpt lat="47.51238" lon="6.77197">
        <ele>376</ele>
        <time>2016-07-17T06:54:10.000Z</time>
      </trkpt>
      <trkpt lat="47.51235" lon="6.7719">
        <ele>377</ele>
        <time>2016-07-17T06:54:11.000Z</time>
      </trkpt>
      <trkpt lat="47.51232" lon="6.77183">
        <ele>377</ele>
        <time>2016-07-17T06:54:12.000Z</time>
      </trkpt>
      <trkpt lat="47.51227" lon="6.77177">
        <ele>377</ele>
        <time>2016-07-17T06:54:13.000Z</time>
      </trkpt>
      <trkpt lat="47.51223" lon="6.7717">
        <ele>377</ele>
        <time>2016-07-17T06:54:14.000Z</time>
      </trkpt>
      <trkpt lat="47.51219" lon="6.77163">
        <ele>378</ele>
        <time>2016-07-17T06:54:15.000Z</time>
      </trkpt>
      <trkpt lat="47.51215" lon="6.77156">
        <ele>378</ele>
        <time>2016-07-17T06:54:16.000Z</time>
      </trkpt>
      <trkpt lat="47.51212" lon="6.77149">
        <ele>378</ele>
        <time>2016-07-17T06:54:17.000Z</time>
      </trkpt>
      <trkpt lat="47.51208" lon="6.77141">
        <ele>378</ele>
        <time>2016-07-17T06:54:18.000Z</time>
      </trkpt>
      <trkpt lat="47.51204" lon="6.77133">
        <ele>378</ele>
        <time>2016-07-17T06:54:19.000Z</time>
      </trkpt>
      <trkpt lat="47.51199" lon="6.77125">
        <ele>378</ele>
        <time>2016-07-17T06:54:20.000Z</time>
      </trkpt>
      <trkpt lat="47.51195" lon="6.77116">
        <ele>378</ele>
        <time>2016-07-17T06:54:21.000Z</time>
      </trkpt>
      <trkpt lat="47.5119" lon="6.77108">
        <ele>378</ele>
        <time>2016-07-17T06:54:22.000Z</time>
      </trkpt>
      <trkpt lat="47.51185" lon="6.77099">
        <ele>378</ele>
        <time>2016-07-17T06:54:23.000Z</time>
      </trkpt>
      <trkpt lat="47.5118" lon="6.77091">
        <ele>378</ele>
        <time>2016-07-17T06:54:24.000Z</time>
      </trkpt>
      <trkpt lat="47.51176" lon="6.77083">
        <ele>377</ele>
        <time>2016-07-17T06:54:25.000Z</time>
      </trkpt>
      <trkpt lat="47.51171" lon="6.77074">
        <ele>377</ele>
        <time>2016-07-17T06:54:26.000Z</time>
      </trkpt>
      <trkpt lat="47.51165" lon="6.77067">
        <ele>377</ele>
        <time>2016-07-17T06:54:27.000Z</time>
      </trkpt>
      <trkpt lat="47.5116" lon="6.77059">
        <ele>376</ele>
        <time>2016-07-17T06:54:28.000Z</time>
      </trkpt>
      <trkpt lat="47.51154" lon="6.77053">
        <ele>376</ele>
        <time>2016-07-17T06:54:29.000Z</time>
      </trkpt>
      <trkpt lat="47.51148" lon="6.77046">
        <ele>376</ele>
        <time>2016-07-17T06:54:30.000Z</time>
      </trkpt>
      <trkpt lat="47.51141" lon="6.77042">
        <ele>375</ele>
        <time>2016-07-17T06:54:31.000Z</time>
      </trkpt>
      <trkpt lat="47.51136" lon="6.77036">
        <ele>375</ele>
        <time>2016-07-17T06:54:32.000Z</time>
      </trkpt>
      <trkpt lat="47.5113" lon="6.77031">
        <ele>375</ele>
        <time>2016-07-17T06:54:33.000Z</time>
      </trkpt>
      <trkpt lat="47.51124" lon="6.77025">
        <ele>375</ele>
        <time>2016-07-17T06:54:34.000Z</time>
      </trkpt>
      <trkpt lat="47.51117" lon="6.7702">
        <ele>375</ele>
        <time>2016-07-17T06:54:35.000Z</time>
      </trkpt>
      <trkpt lat="47.51112" lon="6.77015">
        <ele>375</ele>
        <time>2016-07-17T06:54:36.000Z</time>
      </trkpt>
      <trkpt lat="47.51106" lon="6.77011">
        <ele>375</ele>
        <time>2016-07-17T06:54:37.000Z</time>
      </trkpt>
      <trkpt lat="47.51099" lon="6.77007">
        <ele>375</ele>
        <time>2016-07-17T06:54:38.000Z</time>
      </trkpt>
      <trkpt lat="47.51093" lon="6.77002">
        <ele>375</ele>
        <time>2016-07-17T06:54:39.000Z</time>
      </trkpt>
      <trkpt lat="47.51087" lon="6.76997">
        <ele>375</ele>
        <time>2016-07-17T06:54:40.000Z</time>
      </trkpt>
      <trkpt lat="47.51082" lon="6.76992">
        <ele>375</ele>
        <time>2016-07-17T06:54:41.000Z</time>
      </trkpt>
      <trkpt lat="47.51076" lon="6.76986">
        <ele>375</ele>
        <time>2016-07-17T06:54:42.000Z</time>
      </trkpt>
      <trkpt lat="47.51071" lon="6.76982">
        <ele>375</ele>
        <time>2016-07-17T06:54:43.000Z</time>
      </trkpt>
      <trkpt lat="47.51065" lon="6.76977">
        <ele>375</ele>
        <time>2016-07-17T06:54:44.000Z</time>
      </trkpt>
      <trkpt lat="47.5106" lon="6.76973">
        <ele>375</ele>
        <time>2016-07-17T06:54:45.000Z</time>
      </trkpt>
      <trkpt lat="47.51055" lon="6.76967">
        <ele>375</ele>
        <time>2016-07-17T06:54:46.000Z</time>
      </trkpt>
      <trkpt lat="47.51049" lon="6.76963">
        <ele>375</ele>
        <time>2016-07-17T06:54:47.000Z</time>
      </trkpt>
      <trkpt lat="47.51044" lon="6.76958">
        <ele>375</ele>
        <time>2016-07-17T06:54:48.000Z</time>
      </trkpt>
      <trkpt lat="47.51039" lon="6.76953">
        <ele>375</ele>
        <time>2016-07-17T06:54:49.000Z</time>
      </trkpt>
      <trkpt lat="47.51034" lon="6.7695">
        <ele>375</ele>
        <time>2016-07-17T06:54:50.000Z</time>
      </trkpt>
      <trkpt lat="47.5103" lon="6.76945">
        <ele>375</ele>
        <time>2016-07-17T06:54:51.000Z</time>
      </trkpt>
      <trkpt lat="47.51028" lon="6.76939">
        <ele>375</ele>
        <time>2016-07-17T06:54:52.000Z</time>
      </trkpt>
      <trkpt lat="47.51024" lon="6.76934">
        <ele>375</ele>
        <time>2016-07-17T06:54:53.000Z</time>
      </trkpt>
      <trkpt lat="47.5102" lon="6.76929">
        <ele>375</ele>
        <time>2016-07-17T06:54:54.000Z</time>
      </trkpt>
      <trkpt lat="47.51015" lon="6.76926">
        <ele>375</ele>
        <time>2016-07-17T06:54:55.000Z</time>
      </trkpt>
      <trkpt lat="47.51011" lon="6.76922">
        <ele>375</ele>
        <time>2016-07-17T06:54:56.000Z</time>
      </trkpt>
      <trkpt lat="47.51007" lon="6.76919">
        <ele>376</ele>
        <time>2016-07-17T06:54:57.000Z</time>
      </trkpt>
      <trkpt lat="47.51003" lon="6.76916">
        <ele>376</ele>
        <time>2016-07-17T06:54:58.000Z</time>
      </trkpt>
      <trkpt lat="47.51" lon="6.76912">
        <ele>376</ele>
        <time>2016-07-17T06:54:59.000Z</time>
      </trkpt>
      <trkpt lat="47.51" lon="6.76906">
        <ele>376</ele>
        <time>2016-07-17T06:55:00.000Z</time>
      </trkpt>
      <trkpt lat="47.50998" lon="6.76901">
        <ele>377</ele>
        <time>2016-07-17T06:55:01.000Z</time>
      </trkpt>
      <trkpt lat="47.50994" lon="6.76899">
        <ele>377</ele>
        <time>2016-07-17T06:55:02.000Z</time>
      </trkpt>
      <trkpt lat="47.50989" lon="6.76897">
        <ele>377</ele>
        <time>2016-07-17T06:55:03.000Z</time>
      </trkpt>
      <trkpt lat="47.50983" lon="6.76896">
        <ele>377</ele>
        <time>2016-07-17T06:55:04.000Z</time>
      </trkpt>
      <trkpt lat="47.50978" lon="6.76896">
        <ele>377</ele>
        <time>2016-07-17T06:55:05.000Z</time>
      </trkpt>
      <trkpt lat="47.50974" lon="6.76893">
        <ele>377</ele>
        <time>2016-07-17T06:55:06.000Z</time>
      </trkpt>
      <trkpt lat="47.50971" lon="6.76891">
        <ele>377</ele>
        <time>2016-07-17T06:55:07.000Z</time>
      </trkpt>
      <trkpt lat="47.50967" lon="6.76889">
        <ele>377</ele>
        <time>2016-07-17T06:55:08.000Z</time>
      </trkpt>
      <trkpt lat="47.50962" lon="6.76888">
        <ele>377</ele>
        <time>2016-07-17T06:55:09.000Z</time>
      </trkpt>
      <trkpt lat="47.50958" lon="6.76884">
        <ele>377</ele>
        <time>2016-07-17T06:55:10.000Z</time>
      </trkpt>
      <trkpt lat="47.50955" lon="6.7688">
        <ele>378</ele>
        <time>2016-07-17T06:55:11.000Z</time>
      </trkpt>
      <trkpt lat="47.50951" lon="6.76878">
        <ele>378</ele>
        <time>2016-07-17T06:55:12.000Z</time>
      </trkpt>
      <trkpt lat="47.50948" lon="6.76875">
        <ele>378</ele>
        <time>2016-07-17T06:55:13.000Z</time>
      </trkpt>
      <trkpt lat="47.50945" lon="6.76872">
        <ele>378</ele>
        <time>2016-07-17T06:55:14.000Z</time>
      </trkpt>
      <trkpt lat="47.50941" lon="6.76869">
        <ele>378</ele>
        <time>2016-07-17T06:55:15.000Z</time>
      </trkpt>
      <trkpt lat="47.50938" lon="6.76865">
        <ele>378</ele>
        <time>2016-07-17T06:55:16.000Z</time>
      </trkpt>
      <trkpt lat="47.50935" lon="6.76862">
        <ele>378</ele>
        <time>2016-07-17T06:55:17.000Z</time>
      </trkpt>
      <trkpt lat="47.50932" lon="6.76858">
        <ele>378</ele>
        <time>2016-07-17T06:55:18.000Z</time>
      </trkpt>
      <trkpt lat="47.5093" lon="6.76854">
        <ele>378</ele>
        <time>2016-07-17T06:55:19.000Z</time>
      </trkpt>
      <trkpt lat="47.50927" lon="6.7685">
        <ele>379</ele>
        <time>2016-07-17T06:55:20.000Z</time>
      </trkpt>
      <trkpt lat="47.50924" lon="6.76846">
        <ele>379</ele>
        <time>2016-07-17T06:55:21.000Z</time>
      </trkpt>
      <trkpt lat="47.50922" lon="6.76841">
        <ele>379</ele>
        <time>2016-07-17T06:55:22.000Z</time>
      </trkpt>
      <trkpt lat="47.5092" lon="6.76836">
        <ele>380</ele>
        <time>2016-07-17T06:55:23.000Z</time>
      </trkpt>
      <trkpt lat="47.50918" lon="6.76832">
        <ele>380</ele>
        <time>2016-07-17T06:55:24.000Z</time>
      </trkpt>
      <trkpt lat="47.50916" lon="6.76826">
        <ele>380</ele>
        <time>2016-07-17T06:55:25.000Z</time>
      </trkpt>
      <trkpt lat="47.50913" lon="6.76821">
        <ele>381</ele>
        <time>2016-07-17T06:55:26.000Z</time>
      </trkpt>
      <trkpt lat="47.50912" lon="6.76816">
        <ele>381</ele>
        <time>2016-07-17T06:55:27.000Z</time>
      </trkpt>
      <trkpt lat="47.5091" lon="6.76811">
        <ele>381</ele>
        <time>2016-07-17T06:55:28.000Z</time>
      </trkpt>
      <trkpt lat="47.50908" lon="6.76805">
        <ele>381</ele>
        <time>2016-07-17T06:55:29.000Z</time>
      </trkpt>
      <trkpt lat="47.50907" lon="6.768">
        <ele>381</ele>
        <time>2016-07-17T06:55:30.000Z</time>
      </trkpt>
      <trkpt lat="47.50905" lon="6.76794">
        <ele>381</ele>
        <time>2016-07-17T06:55:31.000Z</time>
      </trkpt>
      <trkpt lat="47.50902" lon="6.76789">
        <ele>381</ele>
        <time>2016-07-17T06:55:32.000Z</time>
      </trkpt>
      <trkpt lat="47.509" lon="6.76784">
        <ele>381</ele>
        <time>2016-07-17T06:55:33.000Z</time>
      </trkpt>
      <trkpt lat="47.50898" lon="6.7678">
        <ele>381</ele>
        <time>2016-07-17T06:55:34.000Z</time>
      </trkpt>
      <trkpt lat="47.50896" lon="6.76775">
        <ele>381</ele>
        <time>2016-07-17T06:55:35.000Z</time>
      </trkpt>
      <trkpt lat="47.50894" lon="6.7677">
        <ele>381</ele>
        <time>2016-07-17T06:55:36.000Z</time>
      </trkpt>
      <trkpt lat="47.50892" lon="6.76765">
        <ele>381</ele>
        <time>2016-07-17T06:55:37.000Z</time>
      </trkpt>
      <trkpt lat="47.5089" lon="6.7676">
        <ele>381</ele>
        <time>2016-07-17T06:55:38.000Z</time>
      </trkpt>
      <trkpt lat="47.50888" lon="6.76755">
        <ele>381</ele>
        <time>2016-07-17T06:55:39.000Z</time>
      </trkpt>
      <trkpt lat="47.50886" lon="6.76751">
        <ele>381</ele>
        <time>2016-07-17T06:55:40.000Z</time>
      </trkpt>
      <trkpt lat="47.50885" lon="6.76746">
        <ele>382</ele>
        <time>2016-07-17T06:55:41.000Z</time>
      </trkpt>
      <trkpt lat="47.50883" lon="6.76741">
        <ele>382</ele>
        <time>2016-07-17T06:55:42.000Z</time>
      </trkpt>
      <trkpt lat="47.50881" lon="6.76736">
        <ele>382</ele>
        <time>2016-07-17T06:55:43.000Z</time>
      </trkpt>
      <trkpt lat="47.50879" lon="6.76731">
        <ele>383</ele>
        <time>2016-07-17T06:55:44.000Z</time>
      </trkpt>
      <trkpt lat="47.50877" lon="6.76726">
        <ele>383</ele>
        <time>2016-07-17T06:55:45.000Z</time>
      </trkpt>
      <trkpt lat="47.50876" lon="6.76721">
        <ele>383</ele>
        <time>2016-07-17T06:55:46.000Z</time>
      </trkpt>
      <trkpt lat="47.50874" lon="6.76716">
        <ele>383</ele>
        <time>2016-07-17T06:55:47.000Z</time>
      </trkpt>
      <trkpt lat="47.50873" lon="6.76711">
        <ele>383</ele>
        <time>2016-07-17T06:55:48.000Z</time>
      </trkpt>
      <trkpt lat="47.50871" lon="6.76706">
        <ele>384</ele>
        <time>2016-07-17T06:55:49.000Z</time>
      </trkpt>
      <trkpt lat="47.50869" lon="6.76701">
        <ele>384</ele>
        <time>2016-07-17T06:55:50.000Z</time>
      </trkpt>
      <trkpt lat="47.50867" lon="6.76696">
        <ele>384</ele>
        <time>2016-07-17T06:55:51.000Z</time>
      </trkpt>
      <trkpt lat="47.50865" lon="6.76692">
        <ele>384</ele>
        <time>2016-07-17T06:55:52.000Z</time>
      </trkpt>
      <trkpt lat="47.50863" lon="6.76688">
        <ele>384</ele>
        <time>2016-07-17T06:55:53.000Z</time>
      </trkpt>
      <trkpt lat="47.50862" lon="6.76683">
        <ele>385</ele>
        <time>2016-07-17T06:55:54.000Z</time>
      </trkpt>
      <trkpt lat="47.5086" lon="6.76679">
        <ele>385</ele>
        <time>2016-07-17T06:55:55.000Z</time>
      </trkpt>
      <trkpt lat="47.50858" lon="6.76675">
        <ele>385</ele>
        <time>2016-07-17T06:55:56.000Z</time>
      </trkpt>
      <trkpt lat="47.50857" lon="6.7667">
        <ele>385</ele>
        <time>2016-07-17T06:55:57.000Z</time>
      </trkpt>
      <trkpt lat="47.50855" lon="6.76666">
        <ele>387</ele>
        <time>2016-07-17T06:55:58.000Z</time>
      </trkpt>
      <trkpt lat="47.50853" lon="6.76662">
        <ele>387</ele>
        <time>2016-07-17T06:55:59.000Z</time>
      </trkpt>
      <trkpt lat="47.50851" lon="6.76658">
        <ele>387</ele>
        <time>2016-07-17T06:56:00.000Z</time>
      </trkpt>
      <trkpt lat="47.50849" lon="6.76654">
        <ele>387</ele>
        <time>2016-07-17T06:56:01.000Z</time>
      </trkpt>
      <trkpt lat="47.50847" lon="6.7665">
        <ele>387</ele>
        <time>2016-07-17T06:56:02.000Z</time>
      </trkpt>
      <trkpt lat="47.50846" lon="6.76646">
        <ele>387</ele>
        <time>2016-07-17T06:56:03.000Z</time>
      </trkpt>
      <trkpt lat="47.50844" lon="6.76642">
        <ele>387</ele>
        <time>2016-07-17T06:56:04.000Z</time>
      </trkpt>
      <trkpt lat="47.50843" lon="6.76639">
        <ele>387</ele>
        <time>2016-07-17T06:56:05.000Z</time>
      </trkpt>
      <trkpt lat="47.50841" lon="6.76635">
        <ele>387</ele>
        <time>2016-07-17T06:56:06.000Z</time>
      </trkpt>
      <trkpt lat="47.50839" lon="6.76632">
        <ele>387</ele>
        <time>2016-07-17T06:56:07.000Z</time>
      </trkpt>
      <trkpt lat="47.50837" lon="6.76628">
        <ele>387</ele>
        <time>2016-07-17T06:56:08.000Z</time>
      </trkpt>
      <trkpt lat="47.50835" lon="6.76624">
        <ele>387</ele>
        <time>2016-07-17T06:56:09.000Z</time>
      </trkpt>
      <trkpt lat="47.50833" lon="6.7662">
        <ele>390</ele>
        <time>2016-07-17T06:56:10.000Z</time>
      </trkpt>
      <trkpt lat="47.50831" lon="6.76616">
        <ele>390</ele>
        <time>2016-07-17T06:56:11.000Z</time>
      </trkpt>
      <trkpt lat="47.50829" lon="6.76612">
        <ele>390</ele>
        <time>2016-07-17T06:56:12.000Z</time>
      </trkpt>
      <trkpt lat="47.50828" lon="6.76608">
        <ele>390</ele>
        <time>2016-07-17T06:56:13.000Z</time>
      </trkpt>
      <trkpt lat="47.50827" lon="6.76603">
        <ele>390</ele>
        <time>2016-07-17T06:56:14.000Z</time>
      </trkpt>
      <trkpt lat="47.50825" lon="6.76599">
        <ele>390</ele>
        <time>2016-07-17T06:56:15.000Z</time>
      </trkpt>
      <trkpt lat="47.50824" lon="6.76595">
        <ele>390</ele>
        <time>2016-07-17T06:56:16.000Z</time>
      </trkpt>
      <trkpt lat="47.50822" lon="6.76593">
        <ele>390</ele>
        <time>2016-07-17T06:56:17.000Z</time>
      </trkpt>
      <trkpt lat="47.50819" lon="6.76593">
        <ele>390</ele>
        <time>2016-07-17T06:56:18.000Z</time>
      </trkpt>
      <trkpt lat="47.50817" lon="6.76594">
        <ele>390</ele>
        <time>2016-07-17T06:56:19.000Z</time>
      </trkpt>
      <trkpt lat="47.50813" lon="6.76596">
        <ele>390</ele>
        <time>2016-07-17T06:56:20.000Z</time>
      </trkpt>
      <trkpt lat="47.50811" lon="6.76595">
        <ele>390</ele>
        <time>2016-07-17T06:56:21.000Z</time>
      </trkpt>
      <trkpt lat="47.50809" lon="6.76592">
        <ele>390</ele>
        <time>2016-07-17T06:56:22.000Z</time>
      </trkpt>
      <trkpt lat="47.50808" lon="6.76588">
        <ele>390</ele>
        <time>2016-07-17T06:56:23.000Z</time>
      </trkpt>
      <trkpt lat="47.50806" lon="6.76584">
        <ele>390</ele>
        <time>2016-07-17T06:56:24.000Z</time>
      </trkpt>
      <trkpt lat="47.50803" lon="6.76583">
        <ele>391</ele>
        <time>2016-07-17T06:56:25.000Z</time>
      </trkpt>
      <trkpt lat="47.50801" lon="6.76583">
        <ele>391</ele>
        <time>2016-07-17T06:56:26.000Z</time>
      </trkpt>
      <trkpt lat="47.50797" lon="6.76584">
        <ele>391</ele>
        <time>2016-07-17T06:56:27.000Z</time>
      </trkpt>
      <trkpt lat="47.50794" lon="6.76586">
        <ele>391</ele>
        <time>2016-07-17T06:56:28.000Z</time>
      </trkpt>
      <trkpt lat="47.5079" lon="6.76587">
        <ele>391</ele>
        <time>2016-07-17T06:56:37.000Z</time>
      </trkpt>
      <trkpt lat="47.5079" lon="6.76587">
        <ele>391</ele>
        <time>2016-07-17T06:56:38.000Z</time>
      </trkpt>
      <trkpt lat="47.50786" lon="6.76587">
        <ele>391</ele>
        <time>2016-07-17T06:56:44.000Z</time>
      </trkpt>
      <trkpt lat="47.50784" lon="6.76587">
        <ele>391</ele>
        <time>2016-07-17T06:56:45.000Z</time>
      </trkpt>
      <trkpt lat="47.50782" lon="6.76588">
        <ele>391</ele>
        <time>2016-07-17T06:56:46.000Z</time>
      </trkpt>
      <trkpt lat="47.5078" lon="6.76588">
        <ele>392</ele>
        <time>2016-07-17T06:56:47.000Z</time>
      </trkpt>
      <trkpt lat="47.50777" lon="6.76589">
        <ele>392</ele>
        <time>2016-07-17T06:56:48.000Z</time>
      </trkpt>
      <trkpt lat="47.50774" lon="6.76588">
        <ele>392</ele>
        <time>2016-07-17T06:56:49.000Z</time>
      </trkpt>
      <trkpt lat="47.50772" lon="6.76588">
        <ele>392</ele>
        <time>2016-07-17T06:56:50.000Z</time>
      </trkpt>
      <trkpt lat="47.50769" lon="6.76588">
        <ele>392</ele>
        <time>2016-07-17T06:56:51.000Z</time>
      </trkpt>
      <trkpt lat="47.50766" lon="6.76588">
        <ele>392</ele>
        <time>2016-07-17T06:56:52.000Z</time>
      </trkpt>
      <trkpt lat="47.50763" lon="6.76588">
        <ele>393</ele>
        <time>2016-07-17T06:56:53.000Z</time>
      </trkpt>
      <trkpt lat="47.5076" lon="6.76589">
        <ele>393</ele>
        <time>2016-07-17T06:56:54.000Z</time>
      </trkpt>
      <trkpt lat="47.50757" lon="6.76589">
        <ele>393</ele>
        <time>2016-07-17T06:56:55.000Z</time>
      </trkpt>
      <trkpt lat="47.50753" lon="6.7659">
        <ele>393</ele>
        <time>2016-07-17T06:56:56.000Z</time>
      </trkpt>
      <trkpt lat="47.5075" lon="6.7659">
        <ele>393</ele>
        <time>2016-07-17T06:56:57.000Z</time>
      </trkpt>
      <trkpt lat="47.50747" lon="6.7659">
        <ele>394</ele>
        <time>2016-07-17T06:56:58.000Z</time>
      </trkpt>
      <trkpt lat="47.50744" lon="6.7659">
        <ele>394</ele>
        <time>2016-07-17T06:56:59.000Z</time>
      </trkpt>
      <trkpt lat="47.5074" lon="6.76591">
        <ele>394</ele>
        <time>2016-07-17T06:57:00.000Z</time>
      </trkpt>
      <trkpt lat="47.50737" lon="6.7659">
        <ele>394</ele>
        <time>2016-07-17T06:57:01.000Z</time>
      </trkpt>
      <trkpt lat="47.50733" lon="6.7659">
        <ele>394</ele>
        <time>2016-07-17T06:57:02.000Z</time>
      </trkpt>
      <trkpt lat="47.5073" lon="6.76589">
        <ele>394</ele>
        <time>2016-07-17T06:57:03.000Z</time>
      </trkpt>
      <trkpt lat="47.50727" lon="6.76588">
        <ele>394</ele>
        <time>2016-07-17T06:57:04.000Z</time>
      </trkpt>
      <trkpt lat="47.50724" lon="6.76587">
        <ele>394</ele>
        <time>2016-07-17T06:57:05.000Z</time>
      </trkpt>
      <trkpt lat="47.5072" lon="6.76586">
        <ele>394</ele>
        <time>2016-07-17T06:57:06.000Z</time>
      </trkpt>
      <trkpt lat="47.50717" lon="6.76586">
        <ele>395</ele>
        <time>2016-07-17T06:57:07.000Z</time>
      </trkpt>
      <trkpt lat="47.50713" lon="6.76585">
        <ele>395</ele>
        <time>2016-07-17T06:57:08.000Z</time>
      </trkpt>
      <trkpt lat="47.50709" lon="6.76585">
        <ele>395</ele>
        <time>2016-07-17T06:57:09.000Z</time>
      </trkpt>
      <trkpt lat="47.50706" lon="6.76585">
        <ele>395</ele>
        <time>2016-07-17T06:57:10.000Z</time>
      </trkpt>
      <trkpt lat="47.50702" lon="6.76584">
        <ele>395</ele>
        <time>2016-07-17T06:57:11.000Z</time>
      </trkpt>
      <trkpt lat="47.50699" lon="6.76585">
        <ele>395</ele>
        <time>2016-07-17T06:57:12.000Z</time>
      </trkpt>
      <trkpt lat="47.50695" lon="6.76585">
        <ele>395</ele>
        <time>2016-07-17T06:57:13.000Z</time>
      </trkpt>
      <trkpt lat="47.50692" lon="6.76585">
        <ele>395</ele>
        <time>2016-07-17T06:57:14.000Z</time>
      </trkpt>
      <trkpt lat="47.50688" lon="6.76586">
        <ele>395</ele>
        <time>2016-07-17T06:57:15.000Z</time>
      </trkpt>
      <trkpt lat="47.50685" lon="6.76586">
        <ele>396</ele>
        <time>2016-07-17T06:57:16.000Z</time>
      </trkpt>
      <trkpt lat="47.50682" lon="6.76587">
        <ele>396</ele>
        <time>2016-07-17T06:57:17.000Z</time>
      </trkpt>
      <trkpt lat="47.50678" lon="6.76587">
        <ele>396</ele>
        <time>2016-07-17T06:57:18.000Z</time>
      </trkpt>
      <trkpt lat="47.50675" lon="6.76588">
        <ele>396</ele>
        <time>2016-07-17T06:57:19.000Z</time>
      </trkpt>
      <trkpt lat="47.50672" lon="6.76589">
        <ele>396</ele>
        <time>2016-07-17T06:57:20.000Z</time>
      </trkpt>
      <trkpt lat="47.50668" lon="6.76589">
        <ele>396</ele>
        <time>2016-07-17T06:57:21.000Z</time>
      </trkpt>
      <trkpt lat="47.50665" lon="6.7659">
        <ele>397</ele>
        <time>2016-07-17T06:57:22.000Z</time>
      </trkpt>
      <trkpt lat="47.50662" lon="6.76591">
        <ele>397</ele>
        <time>2016-07-17T06:57:23.000Z</time>
      </trkpt>
      <trkpt lat="47.50659" lon="6.76592">
        <ele>397</ele>
        <time>2016-07-17T06:57:24.000Z</time>
      </trkpt>
      <trkpt lat="47.50656" lon="6.76593">
        <ele>397</ele>
        <time>2016-07-17T06:57:25.000Z</time>
      </trkpt>
      <trkpt lat="47.50653" lon="6.76594">
        <ele>397</ele>
        <time>2016-07-17T06:57:26.000Z</time>
      </trkpt>
      <trkpt lat="47.5065" lon="6.76595">
        <ele>397</ele>
        <time>2016-07-17T06:57:27.000Z</time>
      </trkpt>
      <trkpt lat="47.50647" lon="6.76596">
        <ele>397</ele>
        <time>2016-07-17T06:57:28.000Z</time>
      </trkpt>
      <trkpt lat="47.50643" lon="6.76597">
        <ele>397</ele>
        <time>2016-07-17T06:57:29.000Z</time>
      </trkpt>
      <trkpt lat="47.5064" lon="6.76598">
        <ele>397</ele>
        <time>2016-07-17T06:57:30.000Z</time>
      </trkpt>
      <trkpt lat="47.50637" lon="6.76599">
        <ele>397</ele>
        <time>2016-07-17T06:57:31.000Z</time>
      </trkpt>
      <trkpt lat="47.50634" lon="6.76601">
        <ele>397</ele>
        <time>2016-07-17T06:57:32.000Z</time>
      </trkpt>
      <trkpt lat="47.50631" lon="6.76602">
        <ele>397</ele>
        <time>2016-07-17T06:57:33.000Z</time>
      </trkpt>
      <trkpt lat="47.50627" lon="6.76604">
        <ele>397</ele>
        <time>2016-07-17T06:57:34.000Z</time>
      </trkpt>
      <trkpt lat="47.50624" lon="6.76606">
        <ele>397</ele>
        <time>2016-07-17T06:57:35.000Z</time>
      </trkpt>
      <trkpt lat="47.50621" lon="6.76608">
        <ele>397</ele>
        <time>2016-07-17T06:57:36.000Z</time>
      </trkpt>
      <trkpt lat="47.50618" lon="6.76611">
        <ele>397</ele>
        <time>2016-07-17T06:57:37.000Z</time>
      </trkpt>
      <trkpt lat="47.50615" lon="6.76613">
        <ele>398</ele>
        <time>2016-07-17T06:57:38.000Z</time>
      </trkpt>
      <trkpt lat="47.50612" lon="6.76615">
        <ele>398</ele>
        <time>2016-07-17T06:57:39.000Z</time>
      </trkpt>
      <trkpt lat="47.50609" lon="6.76616">
        <ele>398</ele>
        <time>2016-07-17T06:57:40.000Z</time>
      </trkpt>
      <trkpt lat="47.50605" lon="6.76618">
        <ele>398</ele>
        <time>2016-07-17T06:57:41.000Z</time>
      </trkpt>
      <trkpt lat="47.50602" lon="6.7662">
        <ele>398</ele>
        <time>2016-07-17T06:57:42.000Z</time>
      </trkpt>
      <trkpt lat="47.50599" lon="6.76621">
        <ele>398</ele>
        <time>2016-07-17T06:57:43.000Z</time>
      </trkpt>
      <trkpt lat="47.50595" lon="6.76622">
        <ele>398</ele>
        <time>2016-07-17T06:57:44.000Z</time>
      </trkpt>
      <trkpt lat="47.50592" lon="6.76624">
        <ele>398</ele>
        <time>2016-07-17T06:57:45.000Z</time>
      </trkpt>
      <trkpt lat="47.50589" lon="6.76625">
        <ele>398</ele>
        <time>2016-07-17T06:57:46.000Z</time>
      </trkpt>
      <trkpt lat="47.50585" lon="6.76626">
        <ele>398</ele>
        <time>2016-07-17T06:57:47.000Z</time>
      </trkpt>
      <trkpt lat="47.50582" lon="6.76627">
        <ele>399</ele>
        <time>2016-07-17T06:57:48.000Z</time>
      </trkpt>
      <trkpt lat="47.50579" lon="6.76629">
        <ele>399</ele>
        <time>2016-07-17T06:57:49.000Z</time>
      </trkpt>
      <trkpt lat="47.50576" lon="6.7663">
        <ele>399</ele>
        <time>2016-07-17T06:57:50.000Z</time>
      </trkpt>
      <trkpt lat="47.50573" lon="6.76631">
        <ele>399</ele>
        <time>2016-07-17T06:57:51.000Z</time>
      </trkpt>
      <trkpt lat="47.5057" lon="6.76631">
        <ele>399</ele>
        <time>2016-07-17T06:57:52.000Z</time>
      </trkpt>
      <trkpt lat="47.50567" lon="6.76632">
        <ele>399</ele>
        <time>2016-07-17T06:57:53.000Z</time>
      </trkpt>
      <trkpt lat="47.50564" lon="6.76632">
        <ele>399</ele>
        <time>2016-07-17T06:57:54.000Z</time>
      </trkpt>
      <trkpt lat="47.50561" lon="6.76633">
        <ele>399</ele>
        <time>2016-07-17T06:57:55.000Z</time>
      </trkpt>
      <trkpt lat="47.50558" lon="6.76634">
        <ele>399</ele>
        <time>2016-07-17T06:57:56.000Z</time>
      </trkpt>
      <trkpt lat="47.50555" lon="6.76635">
        <ele>399</ele>
        <time>2016-07-17T06:57:57.000Z</time>
      </trkpt>
      <trkpt lat="47.50552" lon="6.76636">
        <ele>399</ele>
        <time>2016-07-17T06:57:58.000Z</time>
      </trkpt>
      <trkpt lat="47.50549" lon="6.76638">
        <ele>399</ele>
        <time>2016-07-17T06:57:59.000Z</time>
      </trkpt>
      <trkpt lat="47.50545" lon="6.76639">
        <ele>399</ele>
        <time>2016-07-17T06:58:00.000Z</time>
      </trkpt>
      <trkpt lat="47.50542" lon="6.7664">
        <ele>399</ele>
        <time>2016-07-17T06:58:01.000Z</time>
      </trkpt>
      <trkpt lat="47.50538" lon="6.76641">
        <ele>399</ele>
        <time>2016-07-17T06:58:02.000Z</time>
      </trkpt>
      <trkpt lat="47.50534" lon="6.76642">
        <ele>399</ele>
        <time>2016-07-17T06:58:03.000Z</time>
      </trkpt>
      <trkpt lat="47.5053" lon="6.76644">
        <ele>399</ele>
        <time>2016-07-17T06:58:04.000Z</time>
      </trkpt>
      <trkpt lat="47.50526" lon="6.76645">
        <ele>399</ele>
        <time>2016-07-17T06:58:05.000Z</time>
      </trkpt>
      <trkpt lat="47.5052" lon="6.76647">
        <ele>399</ele>
        <time>2016-07-17T06:58:06.000Z</time>
      </trkpt>
      <trkpt lat="47.50515" lon="6.76648">
        <ele>399</ele>
        <time>2016-07-17T06:58:07.000Z</time>
      </trkpt>
      <trkpt lat="47.5051" lon="6.7665">
        <ele>399</ele>
        <time>2016-07-17T06:58:08.000Z</time>
      </trkpt>
      <trkpt lat="47.50505" lon="6.76651">
        <ele>399</ele>
        <time>2016-07-17T06:58:09.000Z</time>
      </trkpt>
      <trkpt lat="47.50501" lon="6.76652">
        <ele>399</ele>
        <time>2016-07-17T06:58:10.000Z</time>
      </trkpt>
      <trkpt lat="47.50496" lon="6.76654">
        <ele>399</ele>
        <time>2016-07-17T06:58:11.000Z</time>
      </trkpt>
      <trkpt lat="47.50491" lon="6.76656">
        <ele>399</ele>
        <time>2016-07-17T06:58:12.000Z</time>
      </trkpt>
      <trkpt lat="47.50486" lon="6.76658">
        <ele>399</ele>
        <time>2016-07-17T06:58:13.000Z</time>
      </trkpt>
      <trkpt lat="47.50481" lon="6.76659">
        <ele>399</ele>
        <time>2016-07-17T06:58:14.000Z</time>
      </trkpt>
      <trkpt lat="47.50476" lon="6.76661">
        <ele>398</ele>
        <time>2016-07-17T06:58:15.000Z</time>
      </trkpt>
      <trkpt lat="47.50472" lon="6.76662">
        <ele>398</ele>
        <time>2016-07-17T06:58:16.000Z</time>
      </trkpt>
      <trkpt lat="47.50467" lon="6.76664">
        <ele>398</ele>
        <time>2016-07-17T06:58:17.000Z</time>
      </trkpt>
      <trkpt lat="47.50462" lon="6.76665">
        <ele>398</ele>
        <time>2016-07-17T06:58:18.000Z</time>
      </trkpt>
      <trkpt lat="47.50457" lon="6.76667">
        <ele>397</ele>
        <time>2016-07-17T06:58:19.000Z</time>
      </trkpt>
      <trkpt lat="47.50453" lon="6.7667">
        <ele>397</ele>
        <time>2016-07-17T06:58:20.000Z</time>
      </trkpt>
      <trkpt lat="47.50448" lon="6.76671">
        <ele>397</ele>
        <time>2016-07-17T06:58:21.000Z</time>
      </trkpt>
      <trkpt lat="47.50443" lon="6.76672">
        <ele>397</ele>
        <time>2016-07-17T06:58:22.000Z</time>
      </trkpt>
      <trkpt lat="47.50439" lon="6.76675">
        <ele>397</ele>
        <time>2016-07-17T06:58:23.000Z</time>
      </trkpt>
      <trkpt lat="47.50435" lon="6.76678">
        <ele>397</ele>
        <time>2016-07-17T06:58:24.000Z</time>
      </trkpt>
      <trkpt lat="47.50431" lon="6.7668">
        <ele>397</ele>
        <time>2016-07-17T06:58:25.000Z</time>
      </trkpt>
      <trkpt lat="47.50427" lon="6.76682">
        <ele>397</ele>
        <time>2016-07-17T06:58:26.000Z</time>
      </trkpt>
      <trkpt lat="47.50423" lon="6.76683">
        <ele>397</ele>
        <time>2016-07-17T06:58:27.000Z</time>
      </trkpt>
      <trkpt lat="47.50419" lon="6.76684">
        <ele>397</ele>
        <time>2016-07-17T06:58:28.000Z</time>
      </trkpt>
      <trkpt lat="47.50414" lon="6.76686">
        <ele>397</ele>
        <time>2016-07-17T06:58:29.000Z</time>
      </trkpt>
      <trkpt lat="47.5041" lon="6.76688">
        <ele>397</ele>
        <time>2016-07-17T06:58:30.000Z</time>
      </trkpt>
      <trkpt lat="47.50405" lon="6.7669">
        <ele>397</ele>
        <time>2016-07-17T06:58:31.000Z</time>
      </trkpt>
      <trkpt lat="47.50401" lon="6.76692">
        <ele>397</ele>
        <time>2016-07-17T06:58:32.000Z</time>
      </trkpt>
      <trkpt lat="47.50397" lon="6.76694">
        <ele>397</ele>
        <time>2016-07-17T06:58:33.000Z</time>
      </trkpt>
      <trkpt lat="47.50393" lon="6.76696">
        <ele>397</ele>
        <time>2016-07-17T06:58:34.000Z</time>
      </trkpt>
      <trkpt lat="47.50388" lon="6.76698">
        <ele>397</ele>
        <time>2016-07-17T06:58:35.000Z</time>
      </trkpt>
      <trkpt lat="47.50384" lon="6.76699">
        <ele>397</ele>
        <time>2016-07-17T06:58:36.000Z</time>
      </trkpt>
      <trkpt lat="47.50379" lon="6.76699">
        <ele>397</ele>
        <time>2016-07-17T06:58:37.000Z</time>
      </trkpt>
      <trkpt lat="47.50375" lon="6.767">
        <ele>397</ele>
        <time>2016-07-17T06:58:38.000Z</time>
      </trkpt>
      <trkpt lat="47.50371" lon="6.76702">
        <ele>397</ele>
        <time>2016-07-17T06:58:39.000Z</time>
      </trkpt>
      <trkpt lat="47.50367" lon="6.76704">
        <ele>397</ele>
        <time>2016-07-17T06:58:40.000Z</time>
      </trkpt>
      <trkpt lat="47.50363" lon="6.76706">
        <ele>397</ele>
        <time>2016-07-17T06:58:41.000Z</time>
      </trkpt>
      <trkpt lat="47.50359" lon="6.76708">
        <ele>397</ele>
        <time>2016-07-17T06:58:42.000Z</time>
      </trkpt>
      <trkpt lat="47.50355" lon="6.7671">
        <ele>398</ele>
        <time>2016-07-17T06:58:43.000Z</time>
      </trkpt>
      <trkpt lat="47.50351" lon="6.76712">
        <ele>398</ele>
        <time>2016-07-17T06:58:44.000Z</time>
      </trkpt>
      <trkpt lat="47.50347" lon="6.76713">
        <ele>398</ele>
        <time>2016-07-17T06:58:45.000Z</time>
      </trkpt>
      <trkpt lat="47.50343" lon="6.76715">
        <ele>398</ele>
        <time>2016-07-17T06:58:46.000Z</time>
      </trkpt>
      <trkpt lat="47.50339" lon="6.76716">
        <ele>398</ele>
        <time>2016-07-17T06:58:47.000Z</time>
      </trkpt>
      <trkpt lat="47.50335" lon="6.76718">
        <ele>398</ele>
        <time>2016-07-17T06:58:48.000Z</time>
      </trkpt>
      <trkpt lat="47.50331" lon="6.76719">
        <ele>398</ele>
        <time>2016-07-17T06:58:49.000Z</time>
      </trkpt>
      <trkpt lat="47.50323" lon="6.76723">
        <ele>398</ele>
        <time>2016-07-17T06:58:51.000Z</time>
      </trkpt>
      <trkpt lat="47.50319" lon="6.76725">
        <ele>398</ele>
        <time>2016-07-17T06:58:52.000Z</time>
      </trkpt>
      <trkpt lat="47.50315" lon="6.76726">
        <ele>398</ele>
        <time>2016-07-17T06:58:53.000Z</time>
      </trkpt>
      <trkpt lat="47.50311" lon="6.76728">
        <ele>398</ele>
        <time>2016-07-17T06:58:54.000Z</time>
      </trkpt>
      <trkpt lat="47.50307" lon="6.7673">
        <ele>398</ele>
        <time>2016-07-17T06:58:55.000Z</time>
      </trkpt>
      <trkpt lat="47.50303" lon="6.76731">
        <ele>398</ele>
        <time>2016-07-17T06:58:56.000Z</time>
      </trkpt>
      <trkpt lat="47.50299" lon="6.76733">
        <ele>399</ele>
        <time>2016-07-17T06:58:57.000Z</time>
      </trkpt>
      <trkpt lat="47.50295" lon="6.76734">
        <ele>399</ele>
        <time>2016-07-17T06:58:58.000Z</time>
      </trkpt>
      <trkpt lat="47.50291" lon="6.76734">
        <ele>399</ele>
        <time>2016-07-17T06:58:59.000Z</time>
      </trkpt>
      <trkpt lat="47.50287" lon="6.76735">
        <ele>399</ele>
        <time>2016-07-17T06:59:00.000Z</time>
      </trkpt>
      <trkpt lat="47.50283" lon="6.76736">
        <ele>399</ele>
        <time>2016-07-17T06:59:01.000Z</time>
      </trkpt>
      <trkpt lat="47.50279" lon="6.76736">
        <ele>399</ele>
        <time>2016-07-17T06:59:02.000Z</time>
      </trkpt>
      <trkpt lat="47.50275" lon="6.76737">
        <ele>399</ele>
        <time>2016-07-17T06:59:03.000Z</time>
      </trkpt>
      <trkpt lat="47.50271" lon="6.76738">
        <ele>399</ele>
        <time>2016-07-17T06:59:04.000Z</time>
      </trkpt>
      <trkpt lat="47.50268" lon="6.76738">
        <ele>399</ele>
        <time>2016-07-17T06:59:05.000Z</time>
      </trkpt>
      <trkpt lat="47.50264" lon="6.76739">
        <ele>399</ele>
        <time>2016-07-17T06:59:06.000Z</time>
      </trkpt>
      <trkpt lat="47.50261" lon="6.76741">
        <ele>399</ele>
        <time>2016-07-17T06:59:07.000Z</time>
      </trkpt>
      <trkpt lat="47.50257" lon="6.76742">
        <ele>399</ele>
        <time>2016-07-17T06:59:08.000Z</time>
      </trkpt>
      <trkpt lat="47.50254" lon="6.76743">
        <ele>400</ele>
        <time>2016-07-17T06:59:09.000Z</time>
      </trkpt>
      <trkpt lat="47.5025" lon="6.76744">
        <ele>400</ele>
        <time>2016-07-17T06:59:10.000Z</time>
      </trkpt>
      <trkpt lat="47.50247" lon="6.76744">
        <ele>401</ele>
        <time>2016-07-17T06:59:11.000Z</time>
      </trkpt>
      <trkpt lat="47.50244" lon="6.76744">
        <ele>401</ele>
        <time>2016-07-17T06:59:12.000Z</time>
      </trkpt>
      <trkpt lat="47.50241" lon="6.76742">
        <ele>401</ele>
        <time>2016-07-17T06:59:13.000Z</time>
      </trkpt>
      <trkpt lat="47.50239" lon="6.76739">
        <ele>401</ele>
        <time>2016-07-17T06:59:14.000Z</time>
      </trkpt>
      <trkpt lat="47.50237" lon="6.76735">
        <ele>401</ele>
        <time>2016-07-17T06:59:15.000Z</time>
      </trkpt>
      <trkpt lat="47.50236" lon="6.76731">
        <ele>401</ele>
        <time>2016-07-17T06:59:16.000Z</time>
      </trkpt>
      <trkpt lat="47.50234" lon="6.76726">
        <ele>401</ele>
        <time>2016-07-17T06:59:17.000Z</time>
      </trkpt>
      <trkpt lat="47.50232" lon="6.76722">
        <ele>402</ele>
        <time>2016-07-17T06:59:18.000Z</time>
      </trkpt>
      <trkpt lat="47.50231" lon="6.76717">
        <ele>402</ele>
        <time>2016-07-17T06:59:19.000Z</time>
      </trkpt>
      <trkpt lat="47.50229" lon="6.76712">
        <ele>402</ele>
        <time>2016-07-17T06:59:20.000Z</time>
      </trkpt>
      <trkpt lat="47.50227" lon="6.76708">
        <ele>402</ele>
        <time>2016-07-17T06:59:21.000Z</time>
      </trkpt>
      <trkpt lat="47.50225" lon="6.76703">
        <ele>402</ele>
        <time>2016-07-17T06:59:22.000Z</time>
      </trkpt>
      <trkpt lat="47.50224" lon="6.76699">
        <ele>402</ele>
        <time>2016-07-17T06:59:23.000Z</time>
      </trkpt>
      <trkpt lat="47.50222" lon="6.76694">
        <ele>402</ele>
        <time>2016-07-17T06:59:24.000Z</time>
      </trkpt>
      <trkpt lat="47.5022" lon="6.7669">
        <ele>402</ele>
        <time>2016-07-17T06:59:25.000Z</time>
      </trkpt>
      <trkpt lat="47.50219" lon="6.76686">
        <ele>402</ele>
        <time>2016-07-17T06:59:26.000Z</time>
      </trkpt>
      <trkpt lat="47.50218" lon="6.76682">
        <ele>402</ele>
        <time>2016-07-17T06:59:27.000Z</time>
      </trkpt>
      <trkpt lat="47.50217" lon="6.76677">
        <ele>402</ele>
        <time>2016-07-17T06:59:28.000Z</time>
      </trkpt>
      <trkpt lat="47.50216" lon="6.76672">
        <ele>402</ele>
        <time>2016-07-17T06:59:29.000Z</time>
      </trkpt>
      <trkpt lat="47.50214" lon="6.76667">
        <ele>402</ele>
        <time>2016-07-17T06:59:30.000Z</time>
      </trkpt>
      <trkpt lat="47.50213" lon="6.76662">
        <ele>402</ele>
        <time>2016-07-17T06:59:31.000Z</time>
      </trkpt>
      <trkpt lat="47.50212" lon="6.76657">
        <ele>402</ele>
        <time>2016-07-17T06:59:32.000Z</time>
      </trkpt>
      <trkpt lat="47.50212" lon="6.76652">
        <ele>402</ele>
        <time>2016-07-17T06:59:33.000Z</time>
      </trkpt>
      <trkpt lat="47.5021" lon="6.76647">
        <ele>402</ele>
        <time>2016-07-17T06:59:34.000Z</time>
      </trkpt>
      <trkpt lat="47.50209" lon="6.76642">
        <ele>402</ele>
        <time>2016-07-17T06:59:35.000Z</time>
      </trkpt>
      <trkpt lat="47.50208" lon="6.76637">
        <ele>402</ele>
        <time>2016-07-17T06:59:36.000Z</time>
      </trkpt>
      <trkpt lat="47.50206" lon="6.76633">
        <ele>402</ele>
        <time>2016-07-17T06:59:37.000Z</time>
      </trkpt>
      <trkpt lat="47.50205" lon="6.76628">
        <ele>402</ele>
        <time>2016-07-17T06:59:38.000Z</time>
      </trkpt>
      <trkpt lat="47.50203" lon="6.76624">
        <ele>402</ele>
        <time>2016-07-17T06:59:39.000Z</time>
      </trkpt>
      <trkpt lat="47.50201" lon="6.7662">
        <ele>402</ele>
        <time>2016-07-17T06:59:40.000Z</time>
      </trkpt>
      <trkpt lat="47.50199" lon="6.76616">
        <ele>402</ele>
        <time>2016-07-17T06:59:41.000Z</time>
      </trkpt>
      <trkpt lat="47.50198" lon="6.76611">
        <ele>403</ele>
        <time>2016-07-17T06:59:42.000Z</time>
      </trkpt>
      <trkpt lat="47.50197" lon="6.76608">
        <ele>403</ele>
        <time>2016-07-17T06:59:43.000Z</time>
      </trkpt>
      <trkpt lat="47.50196" lon="6.76601">
        <ele>403</ele>
        <time>2016-07-17T06:59:46.000Z</time>
      </trkpt>
      <trkpt lat="47.50197" lon="6.766">
        <ele>403</ele>
        <time>2016-07-17T06:59:47.000Z</time>
      </trkpt>
      <trkpt lat="47.50197" lon="6.76595">
        <ele>403</ele>
        <time>2016-07-17T06:59:50.000Z</time>
      </trkpt>
      <trkpt lat="47.50197" lon="6.76593">
        <ele>403</ele>
        <time>2016-07-17T06:59:51.000Z</time>
      </trkpt>
      <trkpt lat="47.50198" lon="6.76588">
        <ele>403</ele>
        <time>2016-07-17T06:59:53.000Z</time>
      </trkpt>
      <trkpt lat="47.50198" lon="6.76585">
        <ele>403</ele>
        <time>2016-07-17T06:59:54.000Z</time>
      </trkpt>
      <trkpt lat="47.50198" lon="6.76581">
        <ele>402</ele>
        <time>2016-07-17T06:59:55.000Z</time>
      </trkpt>
      <trkpt lat="47.50199" lon="6.76577">
        <ele>402</ele>
        <time>2016-07-17T06:59:56.000Z</time>
      </trkpt>
      <trkpt lat="47.50201" lon="6.76574">
        <ele>402</ele>
        <time>2016-07-17T06:59:57.000Z</time>
      </trkpt>
      <trkpt lat="47.50212" lon="6.76573">
        <ele>401</ele>
        <time>2016-07-17T06:59:58.000Z</time>
      </trkpt>
      <trkpt lat="47.50216" lon="6.76572">
        <ele>401</ele>
        <time>2016-07-17T06:59:59.000Z</time>
      </trkpt>
      <trkpt lat="47.50219" lon="6.76572">
        <ele>400</ele>
        <time>2016-07-17T07:00:00.000Z</time>
      </trkpt>
      <trkpt lat="47.50225" lon="6.76568">
        <ele>400</ele>
        <time>2016-07-17T07:00:01.000Z</time>
      </trkpt>
      <trkpt lat="47.50229" lon="6.76564">
        <ele>400</ele>
        <time>2016-07-17T07:00:02.000Z</time>
      </trkpt>
      <trkpt lat="47.50228" lon="6.76556">
        <ele>400</ele>
        <time>2016-07-17T07:00:03.000Z</time>
      </trkpt>
      <trkpt lat="47.50227" lon="6.7655">
        <ele>400</ele>
        <time>2016-07-17T07:00:04.000Z</time>
      </trkpt>
      <trkpt lat="47.50227" lon="6.76542">
        <ele>400</ele>
        <time>2016-07-17T07:00:05.000Z</time>
      </trkpt>
      <trkpt lat="47.50224" lon="6.76535">
        <ele>399</ele>
        <time>2016-07-17T07:00:06.000Z</time>
      </trkpt>
      <trkpt lat="47.50222" lon="6.76528">
        <ele>399</ele>
        <time>2016-07-17T07:00:07.000Z</time>
      </trkpt>
      <trkpt lat="47.5022" lon="6.7652">
        <ele>399</ele>
        <time>2016-07-17T07:00:08.000Z</time>
      </trkpt>
      <trkpt lat="47.50219" lon="6.76511">
        <ele>399</ele>
        <time>2016-07-17T07:00:09.000Z</time>
      </trkpt>
      <trkpt lat="47.50218" lon="6.76501">
        <ele>399</ele>
        <time>2016-07-17T07:00:10.000Z</time>
      </trkpt>
      <trkpt lat="47.50215" lon="6.7649">
        <ele>396</ele>
        <time>2016-07-17T07:00:11.000Z</time>
      </trkpt>
      <trkpt lat="47.50213" lon="6.76479">
        <ele>396</ele>
        <time>2016-07-17T07:00:12.000Z</time>
      </trkpt>
      <trkpt lat="47.50211" lon="6.76467">
        <ele>395</ele>
        <time>2016-07-17T07:00:13.000Z</time>
      </trkpt>
      <trkpt lat="47.50207" lon="6.76457">
        <ele>395</ele>
        <time>2016-07-17T07:00:14.000Z</time>
      </trkpt>
      <trkpt lat="47.50205" lon="6.76446">
        <ele>395</ele>
        <time>2016-07-17T07:00:15.000Z</time>
      </trkpt>
      <trkpt lat="47.50203" lon="6.76435">
        <ele>395</ele>
        <time>2016-07-17T07:00:16.000Z</time>
      </trkpt>
      <trkpt lat="47.50199" lon="6.76424">
        <ele>395</ele>
        <time>2016-07-17T07:00:17.000Z</time>
      </trkpt>
      <trkpt lat="47.50195" lon="6.76411">
        <ele>392</ele>
        <time>2016-07-17T07:00:18.000Z</time>
      </trkpt>
      <trkpt lat="47.50192" lon="6.76398">
        <ele>392</ele>
        <time>2016-07-17T07:00:19.000Z</time>
      </trkpt>
      <trkpt lat="47.50188" lon="6.76385">
        <ele>391</ele>
        <time>2016-07-17T07:00:20.000Z</time>
      </trkpt>
      <trkpt lat="47.50185" lon="6.76376">
        <ele>391</ele>
        <time>2016-07-17T07:00:21.000Z</time>
      </trkpt>
      <trkpt lat="47.50182" lon="6.76367">
        <ele>390</ele>
        <time>2016-07-17T07:00:22.000Z</time>
      </trkpt>
      <trkpt lat="47.50179" lon="6.76358">
        <ele>390</ele>
        <time>2016-07-17T07:00:23.000Z</time>
      </trkpt>
      <trkpt lat="47.50175" lon="6.76347">
        <ele>390</ele>
        <time>2016-07-17T07:00:24.000Z</time>
      </trkpt>
      <trkpt lat="47.50171" lon="6.76336">
        <ele>391</ele>
        <time>2016-07-17T07:00:25.000Z</time>
      </trkpt>
      <trkpt lat="47.50167" lon="6.76325">
        <ele>389</ele>
        <time>2016-07-17T07:00:26.000Z</time>
      </trkpt>
      <trkpt lat="47.50165" lon="6.76318">
        <ele>394</ele>
        <time>2016-07-17T07:00:27.000Z</time>
      </trkpt>
      <trkpt lat="47.50163" lon="6.76309">
        <ele>394</ele>
        <time>2016-07-17T07:00:28.000Z</time>
      </trkpt>
      <trkpt lat="47.50161" lon="6.76301">
        <ele>394</ele>
        <time>2016-07-17T07:00:29.000Z</time>
      </trkpt>
      <trkpt lat="47.5016" lon="6.76291">
        <ele>394</ele>
        <time>2016-07-17T07:00:30.000Z</time>
      </trkpt>
      <trkpt lat="47.50159" lon="6.76283">
        <ele>394</ele>
        <time>2016-07-17T07:00:31.000Z</time>
      </trkpt>
      <trkpt lat="47.50157" lon="6.76272">
        <ele>393</ele>
        <time>2016-07-17T07:00:32.000Z</time>
      </trkpt>
      <trkpt lat="47.50155" lon="6.76262">
        <ele>391</ele>
        <time>2016-07-17T07:00:33.000Z</time>
      </trkpt>
      <trkpt lat="47.50152" lon="6.76252">
        <ele>391</ele>
        <time>2016-07-17T07:00:34.000Z</time>
      </trkpt>
      <trkpt lat="47.5015" lon="6.76242">
        <ele>389</ele>
        <time>2016-07-17T07:00:35.000Z</time>
      </trkpt>
      <trkpt lat="47.5015" lon="6.76232">
        <ele>389</ele>
        <time>2016-07-17T07:00:36.000Z</time>
      </trkpt>
      <trkpt lat="47.50148" lon="6.76218">
        <ele>389</ele>
        <time>2016-07-17T07:00:37.000Z</time>
      </trkpt>
      <trkpt lat="47.50148" lon="6.76205">
        <ele>388</ele>
        <time>2016-07-17T07:00:38.000Z</time>
      </trkpt>
      <trkpt lat="47.50146" lon="6.76196">
        <ele>387</ele>
        <time>2016-07-17T07:00:39.000Z</time>
      </trkpt>
      <trkpt lat="47.50144" lon="6.76185">
        <ele>386</ele>
        <time>2016-07-17T07:00:40.000Z</time>
      </trkpt>
      <trkpt lat="47.50143" lon="6.76176">
        <ele>386</ele>
        <time>2016-07-17T07:00:41.000Z</time>
      </trkpt>
      <trkpt lat="47.50141" lon="6.76164">
        <ele>382</ele>
        <time>2016-07-17T07:00:42.000Z</time>
      </trkpt>
      <trkpt lat="47.50141" lon="6.76152">
        <ele>383</ele>
        <time>2016-07-17T07:00:43.000Z</time>
      </trkpt>
      <trkpt lat="47.50139" lon="6.76141">
        <ele>383</ele>
        <time>2016-07-17T07:00:44.000Z</time>
      </trkpt>
      <trkpt lat="47.50137" lon="6.76131">
        <ele>383</ele>
        <time>2016-07-17T07:00:45.000Z</time>
      </trkpt>
      <trkpt lat="47.50135" lon="6.7612">
        <ele>383</ele>
        <time>2016-07-17T07:00:46.000Z</time>
      </trkpt>
      <trkpt lat="47.50134" lon="6.76108">
        <ele>383</ele>
        <time>2016-07-17T07:00:47.000Z</time>
      </trkpt>
      <trkpt lat="47.50132" lon="6.76096">
        <ele>382</ele>
        <time>2016-07-17T07:00:48.000Z</time>
      </trkpt>
      <trkpt lat="47.50128" lon="6.76082">
        <ele>379</ele>
        <time>2016-07-17T07:00:49.000Z</time>
      </trkpt>
      <trkpt lat="47.50124" lon="6.76068">
        <ele>379</ele>
        <time>2016-07-17T07:00:50.000Z</time>
      </trkpt>
      <trkpt lat="47.50121" lon="6.76053">
        <ele>379</ele>
        <time>2016-07-17T07:00:51.000Z</time>
      </trkpt>
      <trkpt lat="47.50119" lon="6.76038">
        <ele>379</ele>
        <time>2016-07-17T07:00:52.000Z</time>
      </trkpt>
      <trkpt lat="47.50116" lon="6.76025">
        <ele>379</ele>
        <time>2016-07-17T07:00:53.000Z</time>
      </trkpt>
      <trkpt lat="47.50114" lon="6.76011">
        <ele>378</ele>
        <time>2016-07-17T07:00:54.000Z</time>
      </trkpt>
      <trkpt lat="47.50113" lon="6.75999">
        <ele>375</ele>
        <time>2016-07-17T07:00:55.000Z</time>
      </trkpt>
      <trkpt lat="47.50105" lon="6.7599">
        <ele>375</ele>
        <time>2016-07-17T07:00:56.000Z</time>
      </trkpt>
      <trkpt lat="47.50099" lon="6.75979">
        <ele>375</ele>
        <time>2016-07-17T07:00:57.000Z</time>
      </trkpt>
      <trkpt lat="47.50093" lon="6.7597">
        <ele>374</ele>
        <time>2016-07-17T07:00:58.000Z</time>
      </trkpt>
      <trkpt lat="47.50088" lon="6.75959">
        <ele>374</ele>
        <time>2016-07-17T07:00:59.000Z</time>
      </trkpt>
      <trkpt lat="47.50082" lon="6.75949">
        <ele>378</ele>
        <time>2016-07-17T07:01:00.000Z</time>
      </trkpt>
      <trkpt lat="47.50078" lon="6.7594">
        <ele>377</ele>
        <time>2016-07-17T07:01:01.000Z</time>
      </trkpt>
      <trkpt lat="47.50076" lon="6.75932">
        <ele>376</ele>
        <time>2016-07-17T07:01:02.000Z</time>
      </trkpt>
      <trkpt lat="47.50072" lon="6.75922">
        <ele>376</ele>
        <time>2016-07-17T07:01:03.000Z</time>
      </trkpt>
      <trkpt lat="47.50066" lon="6.75911">
        <ele>375</ele>
        <time>2016-07-17T07:01:04.000Z</time>
      </trkpt>
      <trkpt lat="47.50061" lon="6.75903">
        <ele>375</ele>
        <time>2016-07-17T07:01:05.000Z</time>
      </trkpt>
      <trkpt lat="47.50055" lon="6.75893">
        <ele>376</ele>
        <time>2016-07-17T07:01:06.000Z</time>
      </trkpt>
      <trkpt lat="47.50046" lon="6.75883">
        <ele>376</ele>
        <time>2016-07-17T07:01:07.000Z</time>
      </trkpt>
      <trkpt lat="47.50039" lon="6.75873">
        <ele>376</ele>
        <time>2016-07-17T07:01:08.000Z</time>
      </trkpt>
      <trkpt lat="47.50033" lon="6.75864">
        <ele>376</ele>
        <time>2016-07-17T07:01:09.000Z</time>
      </trkpt>
      <trkpt lat="47.50029" lon="6.75855">
        <ele>377</ele>
        <time>2016-07-17T07:01:10.000Z</time>
      </trkpt>
      <trkpt lat="47.50024" lon="6.75846">
        <ele>377</ele>
        <time>2016-07-17T07:01:11.000Z</time>
      </trkpt>
      <trkpt lat="47.50021" lon="6.75834">
        <ele>377</ele>
        <time>2016-07-17T07:01:12.000Z</time>
      </trkpt>
      <trkpt lat="47.5001" lon="6.75822">
        <ele>377</ele>
        <time>2016-07-17T07:01:13.000Z</time>
      </trkpt>
      <trkpt lat="47.50006" lon="6.7581">
        <ele>376</ele>
        <time>2016-07-17T07:01:14.000Z</time>
      </trkpt>
      <trkpt lat="47.50002" lon="6.75802">
        <ele>376</ele>
        <time>2016-07-17T07:01:15.000Z</time>
      </trkpt>
      <trkpt lat="47.49998" lon="6.75792">
        <ele>375</ele>
        <time>2016-07-17T07:01:16.000Z</time>
      </trkpt>
      <trkpt lat="47.49991" lon="6.7578">
        <ele>375</ele>
        <time>2016-07-17T07:01:17.000Z</time>
      </trkpt>
      <trkpt lat="47.49984" lon="6.7577">
        <ele>375</ele>
        <time>2016-07-17T07:01:18.000Z</time>
      </trkpt>
      <trkpt lat="47.49979" lon="6.75761">
        <ele>375</ele>
        <time>2016-07-17T07:01:19.000Z</time>
      </trkpt>
      <trkpt lat="47.49971" lon="6.75753">
        <ele>374</ele>
        <time>2016-07-17T07:01:20.000Z</time>
      </trkpt>
      <trkpt lat="47.49963" lon="6.75742">
        <ele>371</ele>
        <time>2016-07-17T07:01:21.000Z</time>
      </trkpt>
      <trkpt lat="47.49954" lon="6.75734">
        <ele>371</ele>
        <time>2016-07-17T07:01:22.000Z</time>
      </trkpt>
      <trkpt lat="47.49948" lon="6.75724">
        <ele>370</ele>
        <time>2016-07-17T07:01:23.000Z</time>
      </trkpt>
      <trkpt lat="47.49938" lon="6.75716">
        <ele>370</ele>
        <time>2016-07-17T07:01:24.000Z</time>
      </trkpt>
      <trkpt lat="47.49932" lon="6.75711">
        <ele>370</ele>
        <time>2016-07-17T07:01:25.000Z</time>
      </trkpt>
      <trkpt lat="47.49923" lon="6.75706">
        <ele>370</ele>
        <time>2016-07-17T07:01:26.000Z</time>
      </trkpt>
      <trkpt lat="47.49914" lon="6.75703">
        <ele>365</ele>
        <time>2016-07-17T07:01:27.000Z</time>
      </trkpt>
      <trkpt lat="47.49906" lon="6.75701">
        <ele>364</ele>
        <time>2016-07-17T07:01:28.000Z</time>
      </trkpt>
      <trkpt lat="47.49896" lon="6.75703">
        <ele>364</ele>
        <time>2016-07-17T07:01:29.000Z</time>
      </trkpt>
      <trkpt lat="47.49887" lon="6.75704">
        <ele>363</ele>
        <time>2016-07-17T07:01:30.000Z</time>
      </trkpt>
      <trkpt lat="47.49877" lon="6.75704">
        <ele>363</ele>
        <time>2016-07-17T07:01:31.000Z</time>
      </trkpt>
      <trkpt lat="47.49864" lon="6.7571">
        <ele>362</ele>
        <time>2016-07-17T07:01:32.000Z</time>
      </trkpt>
      <trkpt lat="47.49852" lon="6.7571">
        <ele>361</ele>
        <time>2016-07-17T07:01:33.000Z</time>
      </trkpt>
      <trkpt lat="47.49842" lon="6.75714">
        <ele>361</ele>
        <time>2016-07-17T07:01:34.000Z</time>
      </trkpt>
      <trkpt lat="47.4983" lon="6.75715">
        <ele>353</ele>
        <time>2016-07-17T07:01:35.000Z</time>
      </trkpt>
      <trkpt lat="47.49819" lon="6.75716">
        <ele>353</ele>
        <time>2016-07-17T07:01:36.000Z</time>
      </trkpt>
      <trkpt lat="47.4981" lon="6.75719">
        <ele>352</ele>
        <time>2016-07-17T07:01:37.000Z</time>
      </trkpt>
      <trkpt lat="47.49799" lon="6.75722">
        <ele>352</ele>
        <time>2016-07-17T07:01:38.000Z</time>
      </trkpt>
      <trkpt lat="47.49786" lon="6.75729">
        <ele>351</ele>
        <time>2016-07-17T07:01:39.000Z</time>
      </trkpt>
      <trkpt lat="47.49776" lon="6.75734">
        <ele>351</ele>
        <time>2016-07-17T07:01:40.000Z</time>
      </trkpt>
      <trkpt lat="47.49767" lon="6.75739">
        <ele>351</ele>
        <time>2016-07-17T07:01:41.000Z</time>
      </trkpt>
      <trkpt lat="47.49759" lon="6.75743">
        <ele>351</ele>
        <time>2016-07-17T07:01:42.000Z</time>
      </trkpt>
      <trkpt lat="47.49749" lon="6.75745">
        <ele>349</ele>
        <time>2016-07-17T07:01:43.000Z</time>
      </trkpt>
      <trkpt lat="47.49741" lon="6.75749">
        <ele>348</ele>
        <time>2016-07-17T07:01:44.000Z</time>
      </trkpt>
      <trkpt lat="47.49733" lon="6.75753">
        <ele>353</ele>
        <time>2016-07-17T07:01:45.000Z</time>
      </trkpt>
      <trkpt lat="47.49724" lon="6.75755">
        <ele>353</ele>
        <time>2016-07-17T07:01:46.000Z</time>
      </trkpt>
      <trkpt lat="47.49715" lon="6.75758">
        <ele>353</ele>
        <time>2016-07-17T07:01:47.000Z</time>
      </trkpt>
      <trkpt lat="47.49708" lon="6.7576">
        <ele>352</ele>
        <time>2016-07-17T07:01:48.000Z</time>
      </trkpt>
      <trkpt lat="47.49701" lon="6.75764">
        <ele>352</ele>
        <time>2016-07-17T07:01:49.000Z</time>
      </trkpt>
      <trkpt lat="47.49693" lon="6.75767">
        <ele>352</ele>
        <time>2016-07-17T07:01:50.000Z</time>
      </trkpt>
      <trkpt lat="47.49685" lon="6.7577">
        <ele>351</ele>
        <time>2016-07-17T07:01:51.000Z</time>
      </trkpt>
      <trkpt lat="47.49677" lon="6.75773">
        <ele>351</ele>
        <time>2016-07-17T07:01:52.000Z</time>
      </trkpt>
      <trkpt lat="47.49671" lon="6.75771">
        <ele>350</ele>
        <time>2016-07-17T07:01:53.000Z</time>
      </trkpt>
      <trkpt lat="47.49663" lon="6.75769">
        <ele>346</ele>
        <time>2016-07-17T07:01:54.000Z</time>
      </trkpt>
      <trkpt lat="47.49655" lon="6.75771">
        <ele>346</ele>
        <time>2016-07-17T07:01:55.000Z</time>
      </trkpt>
      <trkpt lat="47.49649" lon="6.75771">
        <ele>346</ele>
        <time>2016-07-17T07:01:56.000Z</time>
      </trkpt>
      <trkpt lat="47.49643" lon="6.75769">
        <ele>345</ele>
        <time>2016-07-17T07:01:57.000Z</time>
      </trkpt>
      <trkpt lat="47.49636" lon="6.75768">
        <ele>345</ele>
        <time>2016-07-17T07:01:58.000Z</time>
      </trkpt>
      <trkpt lat="47.49628" lon="6.75767">
        <ele>345</ele>
        <time>2016-07-17T07:01:59.000Z</time>
      </trkpt>
      <trkpt lat="47.49619" lon="6.75766">
        <ele>344</ele>
        <time>2016-07-17T07:02:00.000Z</time>
      </trkpt>
      <trkpt lat="47.4961" lon="6.75767">
        <ele>343</ele>
        <time>2016-07-17T07:02:01.000Z</time>
      </trkpt>
      <trkpt lat="47.49601" lon="6.75767">
        <ele>342</ele>
        <time>2016-07-17T07:02:02.000Z</time>
      </trkpt>
      <trkpt lat="47.49596" lon="6.75764">
        <ele>340</ele>
        <time>2016-07-17T07:02:03.000Z</time>
      </trkpt>
      <trkpt lat="47.4959" lon="6.75763">
        <ele>339</ele>
        <time>2016-07-17T07:02:04.000Z</time>
      </trkpt>
      <trkpt lat="47.49586" lon="6.75761">
        <ele>338</ele>
        <time>2016-07-17T07:02:05.000Z</time>
      </trkpt>
      <trkpt lat="47.49581" lon="6.75759">
        <ele>335</ele>
        <time>2016-07-17T07:02:06.000Z</time>
      </trkpt>
      <trkpt lat="47.49578" lon="6.75757">
        <ele>335</ele>
        <time>2016-07-17T07:02:07.000Z</time>
      </trkpt>
      <trkpt lat="47.49575" lon="6.75753">
        <ele>335</ele>
        <time>2016-07-17T07:02:08.000Z</time>
      </trkpt>
      <trkpt lat="47.49571" lon="6.75748">
        <ele>330</ele>
        <time>2016-07-17T07:02:09.000Z</time>
      </trkpt>
      <trkpt lat="47.49567" lon="6.75743">
        <ele>329</ele>
        <time>2016-07-17T07:02:10.000Z</time>
      </trkpt>
      <trkpt lat="47.49563" lon="6.7574">
        <ele>328</ele>
        <time>2016-07-17T07:02:11.000Z</time>
      </trkpt>
      <trkpt lat="47.4956" lon="6.75739">
        <ele>328</ele>
        <time>2016-07-17T07:02:13.000Z</time>
      </trkpt>
      <trkpt lat="47.49558" lon="6.75745">
        <ele>328</ele>
        <time>2016-07-17T07:02:14.000Z</time>
      </trkpt>
      <trkpt lat="47.4956" lon="6.75744">
        <ele>328</ele>
        <time>2016-07-17T07:02:16.000Z</time>
      </trkpt>
      <trkpt lat="47.49562" lon="6.75742">
        <ele>329</ele>
        <time>2016-07-17T07:02:17.000Z</time>
      </trkpt>
      <trkpt lat="47.49565" lon="6.75741">
        <ele>329</ele>
        <time>2016-07-17T07:02:18.000Z</time>
      </trkpt>
      <trkpt lat="47.49567" lon="6.75739">
        <ele>329</ele>
        <time>2016-07-17T07:02:19.000Z</time>
      </trkpt>
      <trkpt lat="47.4957" lon="6.75737">
        <ele>329</ele>
        <time>2016-07-17T07:02:20.000Z</time>
      </trkpt>
      <trkpt lat="47.49573" lon="6.75735">
        <ele>329</ele>
        <time>2016-07-17T07:02:21.000Z</time>
      </trkpt>
      <trkpt lat="47.49576" lon="6.75732">
        <ele>329</ele>
        <time>2016-07-17T07:02:22.000Z</time>
      </trkpt>
      <trkpt lat="47.49579" lon="6.75728">
        <ele>328</ele>
        <time>2016-07-17T07:02:23.000Z</time>
      </trkpt>
      <trkpt lat="47.49583" lon="6.75723">
        <ele>328</ele>
        <time>2016-07-17T07:02:24.000Z</time>
      </trkpt>
      <trkpt lat="47.49587" lon="6.75718">
        <ele>331</ele>
        <time>2016-07-17T07:02:25.000Z</time>
      </trkpt>
      <trkpt lat="47.49591" lon="6.75712">
        <ele>331</ele>
        <time>2016-07-17T07:02:26.000Z</time>
      </trkpt>
      <trkpt lat="47.49594" lon="6.75704">
        <ele>330</ele>
        <time>2016-07-17T07:02:27.000Z</time>
      </trkpt>
      <trkpt lat="47.49595" lon="6.75695">
        <ele>329</ele>
        <time>2016-07-17T07:02:28.000Z</time>
      </trkpt>
      <trkpt lat="47.49593" lon="6.75687">
        <ele>327</ele>
        <time>2016-07-17T07:02:29.000Z</time>
      </trkpt>
      <trkpt lat="47.49589" lon="6.75678">
        <ele>325</ele>
        <time>2016-07-17T07:02:30.000Z</time>
      </trkpt>
      <trkpt lat="47.49586" lon="6.75671">
        <ele>323</ele>
        <time>2016-07-17T07:02:31.000Z</time>
      </trkpt>
      <trkpt lat="47.49584" lon="6.75663">
        <ele>321</ele>
        <time>2016-07-17T07:02:32.000Z</time>
      </trkpt>
      <trkpt lat="47.49578" lon="6.7566">
        <ele>321</ele>
        <time>2016-07-17T07:02:33.000Z</time>
      </trkpt>
      <trkpt lat="47.49573" lon="6.75659">
        <ele>321</ele>
        <time>2016-07-17T07:02:34.000Z</time>
      </trkpt>
      <trkpt lat="47.49568" lon="6.75663">
        <ele>321</ele>
        <time>2016-07-17T07:02:35.000Z</time>
      </trkpt>
      <trkpt lat="47.49564" lon="6.75671">
        <ele>323</ele>
        <time>2016-07-17T07:02:36.000Z</time>
      </trkpt>
      <trkpt lat="47.4956" lon="6.75678">
        <ele>324</ele>
        <time>2016-07-17T07:02:37.000Z</time>
      </trkpt>
      <trkpt lat="47.49556" lon="6.75686">
        <ele>324</ele>
        <time>2016-07-17T07:02:38.000Z</time>
      </trkpt>
      <trkpt lat="47.49552" lon="6.75692">
        <ele>324</ele>
        <time>2016-07-17T07:02:39.000Z</time>
      </trkpt>
      <trkpt lat="47.49547" lon="6.75699">
        <ele>325</ele>
        <time>2016-07-17T07:02:40.000Z</time>
      </trkpt>
      <trkpt lat="47.49542" lon="6.75705">
        <ele>325</ele>
        <time>2016-07-17T07:02:41.000Z</time>
      </trkpt>
      <trkpt lat="47.49537" lon="6.75711">
        <ele>325</ele>
        <time>2016-07-17T07:02:42.000Z</time>
      </trkpt>
      <trkpt lat="47.49531" lon="6.75716">
        <ele>325</ele>
        <time>2016-07-17T07:02:43.000Z</time>
      </trkpt>
      <trkpt lat="47.49526" lon="6.75722">
        <ele>325</ele>
        <time>2016-07-17T07:02:44.000Z</time>
      </trkpt>
      <trkpt lat="47.49522" lon="6.75726">
        <ele>325</ele>
        <time>2016-07-17T07:02:45.000Z</time>
      </trkpt>
      <trkpt lat="47.49516" lon="6.7573">
        <ele>325</ele>
        <time>2016-07-17T07:02:46.000Z</time>
      </trkpt>
      <trkpt lat="47.4951" lon="6.75733">
        <ele>325</ele>
        <time>2016-07-17T07:02:47.000Z</time>
      </trkpt>
      <trkpt lat="47.49504" lon="6.75734">
        <ele>325</ele>
        <time>2016-07-17T07:02:48.000Z</time>
      </trkpt>
      <trkpt lat="47.49498" lon="6.75737">
        <ele>323</ele>
        <time>2016-07-17T07:02:49.000Z</time>
      </trkpt>
      <trkpt lat="47.49492" lon="6.75739">
        <ele>323</ele>
        <time>2016-07-17T07:02:50.000Z</time>
      </trkpt>
      <trkpt lat="47.49485" lon="6.7574">
        <ele>322</ele>
        <time>2016-07-17T07:02:51.000Z</time>
      </trkpt>
      <trkpt lat="47.4948" lon="6.75735">
        <ele>322</ele>
        <time>2016-07-17T07:02:52.000Z</time>
      </trkpt>
      <trkpt lat="47.49476" lon="6.75727">
        <ele>322</ele>
        <time>2016-07-17T07:02:53.000Z</time>
      </trkpt>
      <trkpt lat="47.49475" lon="6.75719">
        <ele>321</ele>
        <time>2016-07-17T07:02:54.000Z</time>
      </trkpt>
      <trkpt lat="47.49472" lon="6.75711">
        <ele>321</ele>
        <time>2016-07-17T07:02:55.000Z</time>
      </trkpt>
      <trkpt lat="47.49469" lon="6.75702">
        <ele>321</ele>
        <time>2016-07-17T07:02:56.000Z</time>
      </trkpt>
      <trkpt lat="47.49466" lon="6.75695">
        <ele>321</ele>
        <time>2016-07-17T07:02:57.000Z</time>
      </trkpt>
      <trkpt lat="47.4946" lon="6.75692">
        <ele>321</ele>
        <time>2016-07-17T07:02:58.000Z</time>
      </trkpt>
      <trkpt lat="47.49454" lon="6.75693">
        <ele>321</ele>
        <time>2016-07-17T07:02:59.000Z</time>
      </trkpt>
      <trkpt lat="47.49449" lon="6.75698">
        <ele>321</ele>
        <time>2016-07-17T07:03:00.000Z</time>
      </trkpt>
      <trkpt lat="47.49444" lon="6.75697">
        <ele>321</ele>
        <time>2016-07-17T07:03:01.000Z</time>
      </trkpt>
      <trkpt lat="47.4944" lon="6.75694">
        <ele>321</ele>
        <time>2016-07-17T07:03:02.000Z</time>
      </trkpt>
      <trkpt lat="47.4944" lon="6.75686">
        <ele>320</ele>
        <time>2016-07-17T07:03:03.000Z</time>
      </trkpt>
      <trkpt lat="47.49438" lon="6.75678">
        <ele>320</ele>
        <time>2016-07-17T07:03:04.000Z</time>
      </trkpt>
      <trkpt lat="47.49436" lon="6.7567">
        <ele>320</ele>
        <time>2016-07-17T07:03:05.000Z</time>
      </trkpt>
      <trkpt lat="47.49432" lon="6.75667">
        <ele>320</ele>
        <time>2016-07-17T07:03:06.000Z</time>
      </trkpt>
      <trkpt lat="47.49426" lon="6.75672">
        <ele>320</ele>
        <time>2016-07-17T07:03:07.000Z</time>
      </trkpt>
      <trkpt lat="47.49421" lon="6.75675">
        <ele>320</ele>
        <time>2016-07-17T07:03:08.000Z</time>
      </trkpt>
      <trkpt lat="47.49416" lon="6.75677">
        <ele>319</ele>
        <time>2016-07-17T07:03:09.000Z</time>
      </trkpt>
      <trkpt lat="47.49411" lon="6.75679">
        <ele>319</ele>
        <time>2016-07-17T07:03:10.000Z</time>
      </trkpt>
      <trkpt lat="47.49406" lon="6.75683">
        <ele>319</ele>
        <time>2016-07-17T07:03:11.000Z</time>
      </trkpt>
      <trkpt lat="47.49401" lon="6.75686">
        <ele>319</ele>
        <time>2016-07-17T07:03:12.000Z</time>
      </trkpt>
      <trkpt lat="47.49395" lon="6.75691">
        <ele>319</ele>
        <time>2016-07-17T07:03:13.000Z</time>
      </trkpt>
      <trkpt lat="47.49389" lon="6.75698">
        <ele>319</ele>
        <time>2016-07-17T07:03:14.000Z</time>
      </trkpt>
      <trkpt lat="47.49383" lon="6.75705">
        <ele>319</ele>
        <time>2016-07-17T07:03:15.000Z</time>
      </trkpt>
      <trkpt lat="47.49378" lon="6.75709">
        <ele>319</ele>
        <time>2016-07-17T07:03:16.000Z</time>
      </trkpt>
      <trkpt lat="47.49373" lon="6.75714">
        <ele>319</ele>
        <time>2016-07-17T07:03:17.000Z</time>
      </trkpt>
      <trkpt lat="47.49369" lon="6.75715">
        <ele>319</ele>
        <time>2016-07-17T07:03:18.000Z</time>
      </trkpt>
      <trkpt lat="47.49363" lon="6.75715">
        <ele>319</ele>
        <time>2016-07-17T07:03:19.000Z</time>
      </trkpt>
      <trkpt lat="47.49359" lon="6.75716">
        <ele>319</ele>
        <time>2016-07-17T07:03:20.000Z</time>
      </trkpt>
      <trkpt lat="47.49357" lon="6.75715">
        <ele>319</ele>
        <time>2016-07-17T07:03:21.000Z</time>
      </trkpt>
      <trkpt lat="47.49355" lon="6.75716">
        <ele>319</ele>
        <time>2016-07-17T07:03:22.000Z</time>
      </trkpt>
      <trkpt lat="47.49353" lon="6.75719">
        <ele>319</ele>
        <time>2016-07-17T07:03:23.000Z</time>
      </trkpt>
      <trkpt lat="47.49349" lon="6.7572">
        <ele>319</ele>
        <time>2016-07-17T07:03:24.000Z</time>
      </trkpt>
      <trkpt lat="47.49344" lon="6.75724">
        <ele>318</ele>
        <time>2016-07-17T07:03:25.000Z</time>
      </trkpt>
      <trkpt lat="47.49339" lon="6.75726">
        <ele>318</ele>
        <time>2016-07-17T07:03:26.000Z</time>
      </trkpt>
      <trkpt lat="47.49333" lon="6.75728">
        <ele>319</ele>
        <time>2016-07-17T07:03:27.000Z</time>
      </trkpt>
      <trkpt lat="47.49326" lon="6.75733">
        <ele>319</ele>
        <time>2016-07-17T07:03:28.000Z</time>
      </trkpt>
      <trkpt lat="47.49322" lon="6.75739">
        <ele>319</ele>
        <time>2016-07-17T07:03:29.000Z</time>
      </trkpt>
      <trkpt lat="47.49316" lon="6.75741">
        <ele>319</ele>
        <time>2016-07-17T07:03:30.000Z</time>
      </trkpt>
      <trkpt lat="47.49309" lon="6.75748">
        <ele>319</ele>
        <time>2016-07-17T07:03:31.000Z</time>
      </trkpt>
      <trkpt lat="47.49304" lon="6.75756">
        <ele>318</ele>
        <time>2016-07-17T07:03:32.000Z</time>
      </trkpt>
      <trkpt lat="47.493" lon="6.75759">
        <ele>318</ele>
        <time>2016-07-17T07:03:33.000Z</time>
      </trkpt>
      <trkpt lat="47.49297" lon="6.75763">
        <ele>318</ele>
        <time>2016-07-17T07:03:34.000Z</time>
      </trkpt>
      <trkpt lat="47.49293" lon="6.75768">
        <ele>318</ele>
        <time>2016-07-17T07:03:35.000Z</time>
      </trkpt>
      <trkpt lat="47.49289" lon="6.75775">
        <ele>318</ele>
        <time>2016-07-17T07:03:36.000Z</time>
      </trkpt>
      <trkpt lat="47.49284" lon="6.75779">
        <ele>318</ele>
        <time>2016-07-17T07:03:37.000Z</time>
      </trkpt>
      <trkpt lat="47.49279" lon="6.75785">
        <ele>318</ele>
        <time>2016-07-17T07:03:38.000Z</time>
      </trkpt>
      <trkpt lat="47.49275" lon="6.75791">
        <ele>318</ele>
        <time>2016-07-17T07:03:39.000Z</time>
      </trkpt>
      <trkpt lat="47.49271" lon="6.75797">
        <ele>317</ele>
        <time>2016-07-17T07:03:40.000Z</time>
      </trkpt>
      <trkpt lat="47.49266" lon="6.75804">
        <ele>317</ele>
        <time>2016-07-17T07:03:41.000Z</time>
      </trkpt>
      <trkpt lat="47.49261" lon="6.75813">
        <ele>316</ele>
        <time>2016-07-17T07:03:42.000Z</time>
      </trkpt>
      <trkpt lat="47.49257" lon="6.7582">
        <ele>315</ele>
        <time>2016-07-17T07:03:43.000Z</time>
      </trkpt>
      <trkpt lat="47.49251" lon="6.75828">
        <ele>314</ele>
        <time>2016-07-17T07:03:44.000Z</time>
      </trkpt>
      <trkpt lat="47.49248" lon="6.75836">
        <ele>314</ele>
        <time>2016-07-17T07:03:45.000Z</time>
      </trkpt>
      <trkpt lat="47.49243" lon="6.75844">
        <ele>316</ele>
        <time>2016-07-17T07:03:46.000Z</time>
      </trkpt>
      <trkpt lat="47.4924" lon="6.75852">
        <ele>317</ele>
        <time>2016-07-17T07:03:47.000Z</time>
      </trkpt>
      <trkpt lat="47.49236" lon="6.7586">
        <ele>318</ele>
        <time>2016-07-17T07:03:48.000Z</time>
      </trkpt>
      <trkpt lat="47.49232" lon="6.75869">
        <ele>318</ele>
        <time>2016-07-17T07:03:49.000Z</time>
      </trkpt>
      <trkpt lat="47.49228" lon="6.75877">
        <ele>318</ele>
        <time>2016-07-17T07:03:50.000Z</time>
      </trkpt>
      <trkpt lat="47.49225" lon="6.75884">
        <ele>319</ele>
        <time>2016-07-17T07:03:51.000Z</time>
      </trkpt>
      <trkpt lat="47.4922" lon="6.75893">
        <ele>319</ele>
        <time>2016-07-17T07:03:52.000Z</time>
      </trkpt>
      <trkpt lat="47.49218" lon="6.759">
        <ele>319</ele>
        <time>2016-07-17T07:03:53.000Z</time>
      </trkpt>
      <trkpt lat="47.49215" lon="6.75907">
        <ele>319</ele>
        <time>2016-07-17T07:03:54.000Z</time>
      </trkpt>
      <trkpt lat="47.49211" lon="6.75915">
        <ele>319</ele>
        <time>2016-07-17T07:03:55.000Z</time>
      </trkpt>
      <trkpt lat="47.49208" lon="6.75926">
        <ele>320</ele>
        <time>2016-07-17T07:03:56.000Z</time>
      </trkpt>
      <trkpt lat="47.49204" lon="6.75936">
        <ele>320</ele>
        <time>2016-07-17T07:03:57.000Z</time>
      </trkpt>
      <trkpt lat="47.492" lon="6.75942">
        <ele>320</ele>
        <time>2016-07-17T07:03:58.000Z</time>
      </trkpt>
      <trkpt lat="47.49195" lon="6.75951">
        <ele>320</ele>
        <time>2016-07-17T07:03:59.000Z</time>
      </trkpt>
      <trkpt lat="47.49192" lon="6.75959">
        <ele>320</ele>
        <time>2016-07-17T07:04:00.000Z</time>
      </trkpt>
      <trkpt lat="47.49187" lon="6.75964">
        <ele>320</ele>
        <time>2016-07-17T07:04:01.000Z</time>
      </trkpt>
      <trkpt lat="47.49184" lon="6.75971">
        <ele>320</ele>
        <time>2016-07-17T07:04:02.000Z</time>
      </trkpt>
      <trkpt lat="47.49182" lon="6.75978">
        <ele>320</ele>
        <time>2016-07-17T07:04:03.000Z</time>
      </trkpt>
      <trkpt lat="47.49179" lon="6.75984">
        <ele>320</ele>
        <time>2016-07-17T07:04:04.000Z</time>
      </trkpt>
      <trkpt lat="47.49176" lon="6.7599">
        <ele>320</ele>
        <time>2016-07-17T07:04:05.000Z</time>
      </trkpt>
      <trkpt lat="47.49171" lon="6.76">
        <ele>319</ele>
        <time>2016-07-17T07:04:06.000Z</time>
      </trkpt>
      <trkpt lat="47.49167" lon="6.76007">
        <ele>320</ele>
        <time>2016-07-17T07:04:07.000Z</time>
      </trkpt>
      <trkpt lat="47.49164" lon="6.76016">
        <ele>321</ele>
        <time>2016-07-17T07:04:08.000Z</time>
      </trkpt>
      <trkpt lat="47.4916" lon="6.76024">
        <ele>322</ele>
        <time>2016-07-17T07:04:09.000Z</time>
      </trkpt>
      <trkpt lat="47.49158" lon="6.76032">
        <ele>322</ele>
        <time>2016-07-17T07:04:10.000Z</time>
      </trkpt>
      <trkpt lat="47.49155" lon="6.7604">
        <ele>323</ele>
        <time>2016-07-17T07:04:11.000Z</time>
      </trkpt>
      <trkpt lat="47.49153" lon="6.76049">
        <ele>323</ele>
        <time>2016-07-17T07:04:12.000Z</time>
      </trkpt>
      <trkpt lat="47.4915" lon="6.76057">
        <ele>322</ele>
        <time>2016-07-17T07:04:13.000Z</time>
      </trkpt>
      <trkpt lat="47.49146" lon="6.76064">
        <ele>322</ele>
        <time>2016-07-17T07:04:14.000Z</time>
      </trkpt>
      <trkpt lat="47.49144" lon="6.76073">
        <ele>322</ele>
        <time>2016-07-17T07:04:15.000Z</time>
      </trkpt>
      <trkpt lat="47.4914" lon="6.7608">
        <ele>322</ele>
        <time>2016-07-17T07:04:16.000Z</time>
      </trkpt>
      <trkpt lat="47.49138" lon="6.7609">
        <ele>321</ele>
        <time>2016-07-17T07:04:17.000Z</time>
      </trkpt>
      <trkpt lat="47.49135" lon="6.76098">
        <ele>322</ele>
        <time>2016-07-17T07:04:18.000Z</time>
      </trkpt>
      <trkpt lat="47.49134" lon="6.7611">
        <ele>322</ele>
        <time>2016-07-17T07:04:19.000Z</time>
      </trkpt>
      <trkpt lat="47.49133" lon="6.76119">
        <ele>322</ele>
        <time>2016-07-17T07:04:20.000Z</time>
      </trkpt>
      <trkpt lat="47.49131" lon="6.76129">
        <ele>322</ele>
        <time>2016-07-17T07:04:21.000Z</time>
      </trkpt>
      <trkpt lat="47.49129" lon="6.76138">
        <ele>322</ele>
        <time>2016-07-17T07:04:22.000Z</time>
      </trkpt>
      <trkpt lat="47.49126" lon="6.76147">
        <ele>322</ele>
        <time>2016-07-17T07:04:23.000Z</time>
      </trkpt>
      <trkpt lat="47.49126" lon="6.76155">
        <ele>322</ele>
        <time>2016-07-17T07:04:24.000Z</time>
      </trkpt>
      <trkpt lat="47.49125" lon="6.76165">
        <ele>322</ele>
        <time>2016-07-17T07:04:25.000Z</time>
      </trkpt>
      <trkpt lat="47.49124" lon="6.76174">
        <ele>321</ele>
        <time>2016-07-17T07:04:26.000Z</time>
      </trkpt>
      <trkpt lat="47.49124" lon="6.76183">
        <ele>321</ele>
        <time>2016-07-17T07:04:27.000Z</time>
      </trkpt>
      <trkpt lat="47.49123" lon="6.76193">
        <ele>321</ele>
        <time>2016-07-17T07:04:28.000Z</time>
      </trkpt>
      <trkpt lat="47.49123" lon="6.76203">
        <ele>321</ele>
        <time>2016-07-17T07:04:29.000Z</time>
      </trkpt>
      <trkpt lat="47.49123" lon="6.7621">
        <ele>321</ele>
        <time>2016-07-17T07:04:30.000Z</time>
      </trkpt>
      <trkpt lat="47.49123" lon="6.76218">
        <ele>321</ele>
        <time>2016-07-17T07:04:31.000Z</time>
      </trkpt>
      <trkpt lat="47.49122" lon="6.76226">
        <ele>321</ele>
        <time>2016-07-17T07:04:32.000Z</time>
      </trkpt>
      <trkpt lat="47.49121" lon="6.76234">
        <ele>321</ele>
        <time>2016-07-17T07:04:33.000Z</time>
      </trkpt>
      <trkpt lat="47.49121" lon="6.76244">
        <ele>321</ele>
        <time>2016-07-17T07:04:34.000Z</time>
      </trkpt>
      <trkpt lat="47.49122" lon="6.76253">
        <ele>320</ele>
        <time>2016-07-17T07:04:35.000Z</time>
      </trkpt>
      <trkpt lat="47.49123" lon="6.76261">
        <ele>320</ele>
        <time>2016-07-17T07:04:36.000Z</time>
      </trkpt>
      <trkpt lat="47.49122" lon="6.76269">
        <ele>320</ele>
        <time>2016-07-17T07:04:37.000Z</time>
      </trkpt>
      <trkpt lat="47.49122" lon="6.76276">
        <ele>320</ele>
        <time>2016-07-17T07:04:38.000Z</time>
      </trkpt>
      <trkpt lat="47.49121" lon="6.76283">
        <ele>320</ele>
        <time>2016-07-17T07:04:39.000Z</time>
      </trkpt>
      <trkpt lat="47.49121" lon="6.76293">
        <ele>320</ele>
        <time>2016-07-17T07:04:40.000Z</time>
      </trkpt>
      <trkpt lat="47.49119" lon="6.76303">
        <ele>320</ele>
        <time>2016-07-17T07:04:41.000Z</time>
      </trkpt>
      <trkpt lat="47.4912" lon="6.76314">
        <ele>320</ele>
        <time>2016-07-17T07:04:42.000Z</time>
      </trkpt>
      <trkpt lat="47.49119" lon="6.76323">
        <ele>320</ele>
        <time>2016-07-17T07:04:43.000Z</time>
      </trkpt>
      <trkpt lat="47.49117" lon="6.76329">
        <ele>320</ele>
        <time>2016-07-17T07:04:44.000Z</time>
      </trkpt>
      <trkpt lat="47.49118" lon="6.76334">
        <ele>319</ele>
        <time>2016-07-17T07:04:45.000Z</time>
      </trkpt>
      <trkpt lat="47.49119" lon="6.76341">
        <ele>318</ele>
        <time>2016-07-17T07:04:46.000Z</time>
      </trkpt>
      <trkpt lat="47.4912" lon="6.76346">
        <ele>318</ele>
        <time>2016-07-17T07:04:47.000Z</time>
      </trkpt>
      <trkpt lat="47.4912" lon="6.76353">
        <ele>318</ele>
        <time>2016-07-17T07:04:48.000Z</time>
      </trkpt>
      <trkpt lat="47.49119" lon="6.76358">
        <ele>318</ele>
        <time>2016-07-17T07:04:49.000Z</time>
      </trkpt>
      <trkpt lat="47.4912" lon="6.76367">
        <ele>318</ele>
        <time>2016-07-17T07:04:50.000Z</time>
      </trkpt>
      <trkpt lat="47.49119" lon="6.76373">
        <ele>318</ele>
        <time>2016-07-17T07:04:51.000Z</time>
      </trkpt>
      <trkpt lat="47.49119" lon="6.76382">
        <ele>318</ele>
        <time>2016-07-17T07:04:52.000Z</time>
      </trkpt>
      <trkpt lat="47.49119" lon="6.76388">
        <ele>318</ele>
        <time>2016-07-17T07:04:53.000Z</time>
      </trkpt>
      <trkpt lat="47.49119" lon="6.76394">
        <ele>318</ele>
        <time>2016-07-17T07:04:54.000Z</time>
      </trkpt>
      <trkpt lat="47.49119" lon="6.764">
        <ele>318</ele>
        <time>2016-07-17T07:04:55.000Z</time>
      </trkpt>
      <trkpt lat="47.49119" lon="6.76405">
        <ele>318</ele>
        <time>2016-07-17T07:04:56.000Z</time>
      </trkpt>
      <trkpt lat="47.49119" lon="6.7641">
        <ele>318</ele>
        <time>2016-07-17T07:04:57.000Z</time>
      </trkpt>
      <trkpt lat="47.4912" lon="6.76414">
        <ele>318</ele>
        <time>2016-07-17T07:04:58.000Z</time>
      </trkpt>
      <trkpt lat="47.49121" lon="6.7642">
        <ele>317</ele>
        <time>2016-07-17T07:05:01.000Z</time>
      </trkpt>
      <trkpt lat="47.49122" lon="6.76421">
        <ele>317</ele>
        <time>2016-07-17T07:05:02.000Z</time>
      </trkpt>
      <trkpt lat="47.49124" lon="6.76426">
        <ele>317</ele>
        <time>2016-07-17T07:05:11.000Z</time>
      </trkpt>
      <trkpt lat="47.49124" lon="6.76427">
        <ele>317</ele>
        <time>2016-07-17T07:05:12.000Z</time>
      </trkpt>
      <trkpt lat="47.49126" lon="6.76422">
        <ele>317</ele>
        <time>2016-07-17T07:06:08.000Z</time>
      </trkpt>
      <trkpt lat="47.49126" lon="6.76419">
        <ele>317</ele>
        <time>2016-07-17T07:06:09.000Z</time>
      </trkpt>
      <trkpt lat="47.49126" lon="6.76416">
        <ele>317</ele>
        <time>2016-07-17T07:06:10.000Z</time>
      </trkpt>
      <trkpt lat="47.49126" lon="6.76412">
        <ele>317</ele>
        <time>2016-07-17T07:06:11.000Z</time>
      </trkpt>
      <trkpt lat="47.49127" lon="6.76408">
        <ele>317</ele>
        <time>2016-07-17T07:06:12.000Z</time>
      </trkpt>
      <trkpt lat="47.49127" lon="6.76404">
        <ele>317</ele>
        <time>2016-07-17T07:06:13.000Z</time>
      </trkpt>
      <trkpt lat="47.49128" lon="6.76399">
        <ele>317</ele>
        <time>2016-07-17T07:06:14.000Z</time>
      </trkpt>
      <trkpt lat="47.49129" lon="6.76395">
        <ele>317</ele>
        <time>2016-07-17T07:06:15.000Z</time>
      </trkpt>
      <trkpt lat="47.4913" lon="6.7639">
        <ele>317</ele>
        <time>2016-07-17T07:06:16.000Z</time>
      </trkpt>
      <trkpt lat="47.49131" lon="6.76386">
        <ele>317</ele>
        <time>2016-07-17T07:06:16.999Z</time>
      </trkpt>
      <trkpt lat="47.49134" lon="6.76381">
        <ele>317</ele>
        <time>2016-07-17T07:06:18.000Z</time>
      </trkpt>
      <trkpt lat="47.49135" lon="6.76377">
        <ele>317</ele>
        <time>2016-07-17T07:06:19.000Z</time>
      </trkpt>
      <trkpt lat="47.49136" lon="6.76372">
        <ele>317</ele>
        <time>2016-07-17T07:06:20.000Z</time>
      </trkpt>
      <trkpt lat="47.49136" lon="6.76367">
        <ele>317</ele>
        <time>2016-07-17T07:06:21.000Z</time>
      </trkpt>
      <trkpt lat="47.49136" lon="6.76362">
        <ele>317</ele>
        <time>2016-07-17T07:06:22.000Z</time>
      </trkpt>
      <trkpt lat="47.49135" lon="6.76356">
        <ele>317</ele>
        <time>2016-07-17T07:06:23.000Z</time>
      </trkpt>
      <trkpt lat="47.49136" lon="6.76351">
        <ele>317</ele>
        <time>2016-07-17T07:06:24.000Z</time>
      </trkpt>
      <trkpt lat="47.49136" lon="6.76346">
        <ele>317</ele>
        <time>2016-07-17T07:06:25.000Z</time>
      </trkpt>
      <trkpt lat="47.49136" lon="6.76341">
        <ele>317</ele>
        <time>2016-07-17T07:06:26.000Z</time>
      </trkpt>
      <trkpt lat="47.49136" lon="6.76336">
        <ele>317</ele>
        <time>2016-07-17T07:06:27.000Z</time>
      </trkpt>
      <trkpt lat="47.49136" lon="6.76332">
        <ele>318</ele>
        <time>2016-07-17T07:06:28.000Z</time>
      </trkpt>
      <trkpt lat="47.49136" lon="6.76328">
        <ele>318</ele>
        <time>2016-07-17T07:06:29.000Z</time>
      </trkpt>
      <trkpt lat="47.49135" lon="6.76323">
        <ele>318</ele>
        <time>2016-07-17T07:06:30.000Z</time>
      </trkpt>
      <trkpt lat="47.49135" lon="6.76319">
        <ele>318</ele>
        <time>2016-07-17T07:06:31.000Z</time>
      </trkpt>
      <trkpt lat="47.49135" lon="6.76314">
        <ele>319</ele>
        <time>2016-07-17T07:06:32.000Z</time>
      </trkpt>
      <trkpt lat="47.49137" lon="6.76309">
        <ele>319</ele>
        <time>2016-07-17T07:06:33.000Z</time>
      </trkpt>
      <trkpt lat="47.49138" lon="6.76304">
        <ele>319</ele>
        <time>2016-07-17T07:06:34.000Z</time>
      </trkpt>
      <trkpt lat="47.4914" lon="6.76299">
        <ele>319</ele>
        <time>2016-07-17T07:06:35.000Z</time>
      </trkpt>
      <trkpt lat="47.49141" lon="6.76295">
        <ele>319</ele>
        <time>2016-07-17T07:06:36.000Z</time>
      </trkpt>
      <trkpt lat="47.49142" lon="6.76291">
        <ele>319</ele>
        <time>2016-07-17T07:06:37.000Z</time>
      </trkpt>
      <trkpt lat="47.49143" lon="6.76288">
        <ele>319</ele>
        <time>2016-07-17T07:06:38.000Z</time>
      </trkpt>
      <trkpt lat="47.49143" lon="6.76284">
        <ele>319</ele>
        <time>2016-07-17T07:06:39.000Z</time>
      </trkpt>
      <trkpt lat="47.49143" lon="6.7628">
        <ele>319</ele>
        <time>2016-07-17T07:06:40.000Z</time>
      </trkpt>
      <trkpt lat="47.49141" lon="6.76277">
        <ele>319</ele>
        <time>2016-07-17T07:06:41.000Z</time>
      </trkpt>
      <trkpt lat="47.4914" lon="6.76273">
        <ele>319</ele>
        <time>2016-07-17T07:06:42.000Z</time>
      </trkpt>
      <trkpt lat="47.49138" lon="6.76269">
        <ele>319</ele>
        <time>2016-07-17T07:06:43.000Z</time>
      </trkpt>
      <trkpt lat="47.49137" lon="6.76265">
        <ele>319</ele>
        <time>2016-07-17T07:06:44.000Z</time>
      </trkpt>
      <trkpt lat="47.49135" lon="6.7626">
        <ele>319</ele>
        <time>2016-07-17T07:06:45.000Z</time>
      </trkpt>
      <trkpt lat="47.49134" lon="6.76255">
        <ele>319</ele>
        <time>2016-07-17T07:06:46.000Z</time>
      </trkpt>
      <trkpt lat="47.49133" lon="6.76249">
        <ele>320</ele>
        <time>2016-07-17T07:06:47.000Z</time>
      </trkpt>
      <trkpt lat="47.49133" lon="6.76244">
        <ele>320</ele>
        <time>2016-07-17T07:06:48.000Z</time>
      </trkpt>
      <trkpt lat="47.49133" lon="6.76238">
        <ele>320</ele>
        <time>2016-07-17T07:06:49.000Z</time>
      </trkpt>
      <trkpt lat="47.49133" lon="6.76232">
        <ele>320</ele>
        <time>2016-07-17T07:06:50.000Z</time>
      </trkpt>
      <trkpt lat="47.49133" lon="6.76226">
        <ele>320</ele>
        <time>2016-07-17T07:06:51.000Z</time>
      </trkpt>
      <trkpt lat="47.49132" lon="6.76221">
        <ele>321</ele>
        <time>2016-07-17T07:06:52.000Z</time>
      </trkpt>
      <trkpt lat="47.49131" lon="6.76216">
        <ele>321</ele>
        <time>2016-07-17T07:06:53.000Z</time>
      </trkpt>
      <trkpt lat="47.49131" lon="6.76212">
        <ele>321</ele>
        <time>2016-07-17T07:06:54.000Z</time>
      </trkpt>
      <trkpt lat="47.49132" lon="6.76208">
        <ele>321</ele>
        <time>2016-07-17T07:06:56.000Z</time>
      </trkpt>
      <trkpt lat="47.49133" lon="6.76207">
        <ele>321</ele>
        <time>2016-07-17T07:06:57.000Z</time>
      </trkpt>
      <trkpt lat="47.49137" lon="6.76209">
        <ele>320</ele>
        <time>2016-07-17T07:07:01.000Z</time>
      </trkpt>
      <trkpt lat="47.49137" lon="6.76211">
        <ele>320</ele>
        <time>2016-07-17T07:07:02.000Z</time>
      </trkpt>
      <trkpt lat="47.49139" lon="6.76216">
        <ele>320</ele>
        <time>2016-07-17T07:07:05.000Z</time>
      </trkpt>
      <trkpt lat="47.4914" lon="6.76217">
        <ele>320</ele>
        <time>2016-07-17T07:07:05.999Z</time>
      </trkpt>
      <trkpt lat="47.49141" lon="6.76212">
        <ele>320</ele>
        <time>2016-07-17T07:07:43.000Z</time>
      </trkpt>
      <trkpt lat="47.49141" lon="6.7621">
        <ele>320</ele>
        <time>2016-07-17T07:07:44.000Z</time>
      </trkpt>
      <trkpt lat="47.49138" lon="6.76205">
        <ele>321</ele>
        <time>2016-07-17T07:07:49.000Z</time>
      </trkpt>
      <trkpt lat="47.49138" lon="6.76204">
        <ele>321</ele>
        <time>2016-07-17T07:07:50.000Z</time>
      </trkpt>
      <trkpt lat="47.49141" lon="6.76202">
        <ele>320</ele>
        <time>2016-07-17T07:07:54.000Z</time>
      </trkpt>
      <trkpt lat="47.49143" lon="6.76202">
        <ele>320</ele>
        <time>2016-07-17T07:07:55.000Z</time>
      </trkpt>
      <trkpt lat="47.4914" lon="6.76205">
        <ele>320</ele>
        <time>2016-07-17T07:08:03.000Z</time>
      </trkpt>
      <trkpt lat="47.4914" lon="6.76207">
        <ele>320</ele>
        <time>2016-07-17T07:08:04.000Z</time>
      </trkpt>
      <trkpt lat="47.4914" lon="6.76213">
        <ele>320</ele>
        <time>2016-07-17T07:08:09.000Z</time>
      </trkpt>
      <trkpt lat="47.4914" lon="6.76214">
        <ele>320</ele>
        <time>2016-07-17T07:08:10.000Z</time>
      </trkpt>
      <trkpt lat="47.49145" lon="6.76212">
        <ele>320</ele>
        <time>2016-07-17T07:08:16.000Z</time>
      </trkpt>
      <trkpt lat="47.49145" lon="6.76212">
        <ele>320</ele>
        <time>2016-07-17T07:08:17.000Z</time>
      </trkpt>
      <trkpt lat="47.49143" lon="6.76208">
        <ele>320</ele>
        <time>2016-07-17T07:08:19.000Z</time>
      </trkpt>
      <trkpt lat="47.49142" lon="6.76206">
        <ele>320</ele>
        <time>2016-07-17T07:08:20.000Z</time>
      </trkpt>
      <trkpt lat="47.49139" lon="6.76202">
        <ele>320</ele>
        <time>2016-07-17T07:08:23.000Z</time>
      </trkpt>
      <trkpt lat="47.49138" lon="6.76201">
        <ele>321</ele>
        <time>2016-07-17T07:08:24.000Z</time>
      </trkpt>
      <trkpt lat="47.49141" lon="6.76196">
        <ele>320</ele>
        <time>2016-07-17T07:08:28.000Z</time>
      </trkpt>
      <trkpt lat="47.49141" lon="6.76195">
        <ele>320</ele>
        <time>2016-07-17T07:08:29.000Z</time>
      </trkpt>
      <trkpt lat="47.49139" lon="6.762">
        <ele>321</ele>
        <time>2016-07-17T07:08:35.000Z</time>
      </trkpt>
      <trkpt lat="47.4914" lon="6.76202">
        <ele>320</ele>
        <time>2016-07-17T07:08:36.000Z</time>
      </trkpt>
      <trkpt lat="47.49143" lon="6.76198">
        <ele>320</ele>
        <time>2016-07-17T07:08:40.000Z</time>
      </trkpt>
      <trkpt lat="47.49142" lon="6.76195">
        <ele>320</ele>
        <time>2016-07-17T07:08:41.000Z</time>
      </trkpt>
      <trkpt lat="47.4914" lon="6.76192">
        <ele>321</ele>
        <time>2016-07-17T07:08:42.000Z</time>
      </trkpt>
      <trkpt lat="47.49137" lon="6.76189">
        <ele>321</ele>
        <time>2016-07-17T07:08:43.000Z</time>
      </trkpt>
      <trkpt lat="47.49134" lon="6.76185">
        <ele>321</ele>
        <time>2016-07-17T07:08:44.000Z</time>
      </trkpt>
      <trkpt lat="47.49131" lon="6.76181">
        <ele>321</ele>
        <time>2016-07-17T07:08:45.000Z</time>
      </trkpt>
      <trkpt lat="47.4913" lon="6.76177">
        <ele>321</ele>
        <time>2016-07-17T07:08:46.000Z</time>
      </trkpt>
      <trkpt lat="47.49129" lon="6.76172">
        <ele>321</ele>
        <time>2016-07-17T07:08:47.000Z</time>
      </trkpt>
      <trkpt lat="47.4913" lon="6.76167">
        <ele>321</ele>
        <time>2016-07-17T07:08:48.000Z</time>
      </trkpt>
      <trkpt lat="47.49132" lon="6.76162">
        <ele>322</ele>
        <time>2016-07-17T07:08:49.000Z</time>
      </trkpt>
      <trkpt lat="47.49134" lon="6.76157">
        <ele>322</ele>
        <time>2016-07-17T07:08:50.000Z</time>
      </trkpt>
      <trkpt lat="47.49136" lon="6.76151">
        <ele>322</ele>
        <time>2016-07-17T07:08:51.000Z</time>
      </trkpt>
      <trkpt lat="47.49138" lon="6.76146">
        <ele>322</ele>
        <time>2016-07-17T07:08:52.000Z</time>
      </trkpt>
      <trkpt lat="47.4914" lon="6.76141">
        <ele>321</ele>
        <time>2016-07-17T07:08:53.000Z</time>
      </trkpt>
      <trkpt lat="47.49142" lon="6.76135">
        <ele>321</ele>
        <time>2016-07-17T07:08:54.000Z</time>
      </trkpt>
      <trkpt lat="47.49144" lon="6.76129">
        <ele>321</ele>
        <time>2016-07-17T07:08:55.000Z</time>
      </trkpt>
      <trkpt lat="47.49147" lon="6.7612">
        <ele>321</ele>
        <time>2016-07-17T07:08:56.000Z</time>
      </trkpt>
      <trkpt lat="47.49147" lon="6.76114">
        <ele>321</ele>
        <time>2016-07-17T07:08:57.000Z</time>
      </trkpt>
      <trkpt lat="47.49149" lon="6.76108">
        <ele>321</ele>
        <time>2016-07-17T07:08:58.000Z</time>
      </trkpt>
      <trkpt lat="47.49151" lon="6.76101">
        <ele>321</ele>
        <time>2016-07-17T07:08:59.000Z</time>
      </trkpt>
      <trkpt lat="47.49153" lon="6.76095">
        <ele>320</ele>
        <time>2016-07-17T07:09:00.000Z</time>
      </trkpt>
      <trkpt lat="47.49154" lon="6.76089">
        <ele>320</ele>
        <time>2016-07-17T07:09:01.000Z</time>
      </trkpt>
      <trkpt lat="47.49156" lon="6.76084">
        <ele>320</ele>
        <time>2016-07-17T07:09:02.000Z</time>
      </trkpt>
      <trkpt lat="47.49158" lon="6.76078">
        <ele>320</ele>
        <time>2016-07-17T07:09:03.000Z</time>
      </trkpt>
      <trkpt lat="47.4916" lon="6.76072">
        <ele>321</ele>
        <time>2016-07-17T07:09:03.999Z</time>
      </trkpt>
      <trkpt lat="47.49161" lon="6.76066">
        <ele>321</ele>
        <time>2016-07-17T07:09:05.000Z</time>
      </trkpt>
      <trkpt lat="47.49163" lon="6.76061">
        <ele>322</ele>
        <time>2016-07-17T07:09:06.000Z</time>
      </trkpt>
      <trkpt lat="47.49164" lon="6.76055">
        <ele>322</ele>
        <time>2016-07-17T07:09:07.000Z</time>
      </trkpt>
      <trkpt lat="47.49165" lon="6.76049">
        <ele>322</ele>
        <time>2016-07-17T07:09:08.000Z</time>
      </trkpt>
      <trkpt lat="47.49167" lon="6.76043">
        <ele>320</ele>
        <time>2016-07-17T07:09:08.999Z</time>
      </trkpt>
      <trkpt lat="47.49168" lon="6.76036">
        <ele>320</ele>
        <time>2016-07-17T07:09:10.001Z</time>
      </trkpt>
      <trkpt lat="47.49169" lon="6.7603">
        <ele>320</ele>
        <time>2016-07-17T07:09:11.000Z</time>
      </trkpt>
      <trkpt lat="47.4917" lon="6.76024">
        <ele>320</ele>
        <time>2016-07-17T07:09:12.000Z</time>
      </trkpt>
      <trkpt lat="47.49172" lon="6.76018">
        <ele>320</ele>
        <time>2016-07-17T07:09:12.999Z</time>
      </trkpt>
      <trkpt lat="47.49178" lon="6.76007">
        <ele>320</ele>
        <time>2016-07-17T07:09:14.000Z</time>
      </trkpt>
      <trkpt lat="47.49181" lon="6.76001">
        <ele>320</ele>
        <time>2016-07-17T07:09:15.000Z</time>
      </trkpt>
      <trkpt lat="47.49184" lon="6.75995">
        <ele>320</ele>
        <time>2016-07-17T07:09:16.000Z</time>
      </trkpt>
      <trkpt lat="47.49186" lon="6.75989">
        <ele>320</ele>
        <time>2016-07-17T07:09:16.999Z</time>
      </trkpt>
      <trkpt lat="47.49189" lon="6.75985">
        <ele>320</ele>
        <time>2016-07-17T07:09:18.000Z</time>
      </trkpt>
      <trkpt lat="47.49191" lon="6.7598">
        <ele>320</ele>
        <time>2016-07-17T07:09:19.000Z</time>
      </trkpt>
      <trkpt lat="47.49194" lon="6.75975">
        <ele>320</ele>
        <time>2016-07-17T07:09:20.000Z</time>
      </trkpt>
      <trkpt lat="47.49196" lon="6.75971">
        <ele>320</ele>
        <time>2016-07-17T07:09:21.000Z</time>
      </trkpt>
      <trkpt lat="47.49199" lon="6.75965">
        <ele>320</ele>
        <time>2016-07-17T07:09:22.000Z</time>
      </trkpt>
      <trkpt lat="47.49202" lon="6.7596">
        <ele>320</ele>
        <time>2016-07-17T07:09:23.000Z</time>
      </trkpt>
      <trkpt lat="47.49204" lon="6.75955">
        <ele>320</ele>
        <time>2016-07-17T07:09:24.000Z</time>
      </trkpt>
      <trkpt lat="47.49206" lon="6.75951">
        <ele>320</ele>
        <time>2016-07-17T07:09:25.000Z</time>
      </trkpt>
      <trkpt lat="47.4921" lon="6.75946">
        <ele>320</ele>
        <time>2016-07-17T07:09:26.000Z</time>
      </trkpt>
      <trkpt lat="47.49213" lon="6.75941">
        <ele>320</ele>
        <time>2016-07-17T07:09:27.000Z</time>
      </trkpt>
      <trkpt lat="47.49215" lon="6.75935">
        <ele>320</ele>
        <time>2016-07-17T07:09:28.000Z</time>
      </trkpt>
      <trkpt lat="47.49217" lon="6.75929">
        <ele>320</ele>
        <time>2016-07-17T07:09:29.000Z</time>
      </trkpt>
      <trkpt lat="47.4922" lon="6.75923">
        <ele>319</ele>
        <time>2016-07-17T07:09:30.000Z</time>
      </trkpt>
      <trkpt lat="47.49222" lon="6.75917">
        <ele>319</ele>
        <time>2016-07-17T07:09:31.000Z</time>
      </trkpt>
      <trkpt lat="47.49223" lon="6.75911">
        <ele>318</ele>
        <time>2016-07-17T07:09:32.000Z</time>
      </trkpt>
      <trkpt lat="47.49225" lon="6.75903">
        <ele>318</ele>
        <time>2016-07-17T07:09:33.000Z</time>
      </trkpt>
      <trkpt lat="47.49228" lon="6.75898">
        <ele>318</ele>
        <time>2016-07-17T07:09:34.000Z</time>
      </trkpt>
      <trkpt lat="47.49231" lon="6.75893">
        <ele>318</ele>
        <time>2016-07-17T07:09:35.000Z</time>
      </trkpt>
      <trkpt lat="47.49234" lon="6.75888">
        <ele>318</ele>
        <time>2016-07-17T07:09:36.000Z</time>
      </trkpt>
      <trkpt lat="47.49236" lon="6.75881">
        <ele>318</ele>
        <time>2016-07-17T07:09:37.000Z</time>
      </trkpt>
      <trkpt lat="47.49239" lon="6.75876">
        <ele>318</ele>
        <time>2016-07-17T07:09:38.000Z</time>
      </trkpt>
      <trkpt lat="47.49241" lon="6.7587">
        <ele>318</ele>
        <time>2016-07-17T07:09:39.000Z</time>
      </trkpt>
      <trkpt lat="47.49244" lon="6.75864">
        <ele>317</ele>
        <time>2016-07-17T07:09:40.000Z</time>
      </trkpt>
      <trkpt lat="47.49246" lon="6.75858">
        <ele>317</ele>
        <time>2016-07-17T07:09:41.000Z</time>
      </trkpt>
      <trkpt lat="47.49249" lon="6.75853">
        <ele>316</ele>
        <time>2016-07-17T07:09:42.000Z</time>
      </trkpt>
      <trkpt lat="47.49252" lon="6.75847">
        <ele>316</ele>
        <time>2016-07-17T07:09:43.000Z</time>
      </trkpt>
      <trkpt lat="47.49255" lon="6.75842">
        <ele>315</ele>
        <time>2016-07-17T07:09:44.000Z</time>
      </trkpt>
      <trkpt lat="47.49258" lon="6.75837">
        <ele>315</ele>
        <time>2016-07-17T07:09:45.000Z</time>
      </trkpt>
      <trkpt lat="47.49261" lon="6.75832">
        <ele>315</ele>
        <time>2016-07-17T07:09:46.000Z</time>
      </trkpt>
      <trkpt lat="47.49263" lon="6.75825">
        <ele>315</ele>
        <time>2016-07-17T07:09:47.000Z</time>
      </trkpt>
      <trkpt lat="47.49265" lon="6.7582">
        <ele>316</ele>
        <time>2016-07-17T07:09:48.000Z</time>
      </trkpt>
      <trkpt lat="47.49268" lon="6.75814">
        <ele>316</ele>
        <time>2016-07-17T07:09:49.000Z</time>
      </trkpt>
      <trkpt lat="47.49271" lon="6.7581">
        <ele>317</ele>
        <time>2016-07-17T07:09:50.000Z</time>
      </trkpt>
      <trkpt lat="47.49274" lon="6.75805">
        <ele>317</ele>
        <time>2016-07-17T07:09:51.000Z</time>
      </trkpt>
      <trkpt lat="47.49278" lon="6.758">
        <ele>317</ele>
        <time>2016-07-17T07:09:52.000Z</time>
      </trkpt>
      <trkpt lat="47.49281" lon="6.75795">
        <ele>318</ele>
        <time>2016-07-17T07:09:53.000Z</time>
      </trkpt>
      <trkpt lat="47.49284" lon="6.7579">
        <ele>318</ele>
        <time>2016-07-17T07:09:54.000Z</time>
      </trkpt>
      <trkpt lat="47.49287" lon="6.75784">
        <ele>318</ele>
        <time>2016-07-17T07:09:55.000Z</time>
      </trkpt>
      <trkpt lat="47.4929" lon="6.75781">
        <ele>318</ele>
        <time>2016-07-17T07:09:56.000Z</time>
      </trkpt>
      <trkpt lat="47.49294" lon="6.75773">
        <ele>318</ele>
        <time>2016-07-17T07:09:57.000Z</time>
      </trkpt>
      <trkpt lat="47.49297" lon="6.75768">
        <ele>318</ele>
        <time>2016-07-17T07:09:58.000Z</time>
      </trkpt>
      <trkpt lat="47.49301" lon="6.75764">
        <ele>318</ele>
        <time>2016-07-17T07:09:59.000Z</time>
      </trkpt>
      <trkpt lat="47.49305" lon="6.75758">
        <ele>318</ele>
        <time>2016-07-17T07:10:00.000Z</time>
      </trkpt>
      <trkpt lat="47.4931" lon="6.75754">
        <ele>318</ele>
        <time>2016-07-17T07:10:01.000Z</time>
      </trkpt>
      <trkpt lat="47.49317" lon="6.7575">
        <ele>319</ele>
        <time>2016-07-17T07:10:02.000Z</time>
      </trkpt>
      <trkpt lat="47.49321" lon="6.75751">
        <ele>318</ele>
        <time>2016-07-17T07:10:03.000Z</time>
      </trkpt>
      <trkpt lat="47.49324" lon="6.75748">
        <ele>318</ele>
        <time>2016-07-17T07:10:04.000Z</time>
      </trkpt>
      <trkpt lat="47.49327" lon="6.75744">
        <ele>318</ele>
        <time>2016-07-17T07:10:05.000Z</time>
      </trkpt>
      <trkpt lat="47.49331" lon="6.75741">
        <ele>318</ele>
        <time>2016-07-17T07:10:06.000Z</time>
      </trkpt>
      <trkpt lat="47.49334" lon="6.75739">
        <ele>318</ele>
        <time>2016-07-17T07:10:07.000Z</time>
      </trkpt>
      <trkpt lat="47.49338" lon="6.75738">
        <ele>318</ele>
        <time>2016-07-17T07:10:08.000Z</time>
      </trkpt>
      <trkpt lat="47.49342" lon="6.75735">
        <ele>318</ele>
        <time>2016-07-17T07:10:09.000Z</time>
      </trkpt>
      <trkpt lat="47.49345" lon="6.75735">
        <ele>318</ele>
        <time>2016-07-17T07:10:10.000Z</time>
      </trkpt>
      <trkpt lat="47.49349" lon="6.75732">
        <ele>318</ele>
        <time>2016-07-17T07:10:11.000Z</time>
      </trkpt>
      <trkpt lat="47.49353" lon="6.75731">
        <ele>319</ele>
        <time>2016-07-17T07:10:13.000Z</time>
      </trkpt>
      <trkpt lat="47.49354" lon="6.75731">
        <ele>319</ele>
        <time>2016-07-17T07:10:14.000Z</time>
      </trkpt>
      <trkpt lat="47.49357" lon="6.75729">
        <ele>319</ele>
        <time>2016-07-17T07:10:15.000Z</time>
      </trkpt>
      <trkpt lat="47.49359" lon="6.75728">
        <ele>319</ele>
        <time>2016-07-17T07:10:16.000Z</time>
      </trkpt>
      <trkpt lat="47.4936" lon="6.75728">
        <ele>319</ele>
        <time>2016-07-17T07:10:17.000Z</time>
      </trkpt>
      <trkpt lat="47.49363" lon="6.75725">
        <ele>319</ele>
        <time>2016-07-17T07:10:18.000Z</time>
      </trkpt>
      <trkpt lat="47.49365" lon="6.75723">
        <ele>319</ele>
        <time>2016-07-17T07:10:19.000Z</time>
      </trkpt>
      <trkpt lat="47.49371" lon="6.75719">
        <ele>319</ele>
        <time>2016-07-17T07:10:20.000Z</time>
      </trkpt>
      <trkpt lat="47.49374" lon="6.75715">
        <ele>319</ele>
        <time>2016-07-17T07:10:21.000Z</time>
      </trkpt>
      <trkpt lat="47.49379" lon="6.75712">
        <ele>319</ele>
        <time>2016-07-17T07:10:22.000Z</time>
      </trkpt>
      <trkpt lat="47.49383" lon="6.75709">
        <ele>319</ele>
        <time>2016-07-17T07:10:23.000Z</time>
      </trkpt>
      <trkpt lat="47.49387" lon="6.75705">
        <ele>319</ele>
        <time>2016-07-17T07:10:24.000Z</time>
      </trkpt>
      <trkpt lat="47.4939" lon="6.75702">
        <ele>319</ele>
        <time>2016-07-17T07:10:25.000Z</time>
      </trkpt>
      <trkpt lat="47.49394" lon="6.757">
        <ele>319</ele>
        <time>2016-07-17T07:10:26.000Z</time>
      </trkpt>
      <trkpt lat="47.49398" lon="6.75696">
        <ele>319</ele>
        <time>2016-07-17T07:10:27.000Z</time>
      </trkpt>
      <trkpt lat="47.49403" lon="6.75693">
        <ele>319</ele>
        <time>2016-07-17T07:10:28.000Z</time>
      </trkpt>
      <trkpt lat="47.49407" lon="6.7569">
        <ele>319</ele>
        <time>2016-07-17T07:10:29.000Z</time>
      </trkpt>
      <trkpt lat="47.49411" lon="6.75687">
        <ele>319</ele>
        <time>2016-07-17T07:10:30.000Z</time>
      </trkpt>
      <trkpt lat="47.49414" lon="6.75684">
        <ele>319</ele>
        <time>2016-07-17T07:10:31.000Z</time>
      </trkpt>
      <trkpt lat="47.49417" lon="6.75682">
        <ele>320</ele>
        <time>2016-07-17T07:10:32.000Z</time>
      </trkpt>
      <trkpt lat="47.4942" lon="6.75679">
        <ele>320</ele>
        <time>2016-07-17T07:10:33.000Z</time>
      </trkpt>
      <trkpt lat="47.49423" lon="6.75677">
        <ele>320</ele>
        <time>2016-07-17T07:10:34.000Z</time>
      </trkpt>
      <trkpt lat="47.49426" lon="6.75676">
        <ele>320</ele>
        <time>2016-07-17T07:10:35.000Z</time>
      </trkpt>
      <trkpt lat="47.49428" lon="6.75676">
        <ele>320</ele>
        <time>2016-07-17T07:10:36.000Z</time>
      </trkpt>
      <trkpt lat="47.49431" lon="6.75678">
        <ele>320</ele>
        <time>2016-07-17T07:10:37.000Z</time>
      </trkpt>
      <trkpt lat="47.49433" lon="6.75681">
        <ele>320</ele>
        <time>2016-07-17T07:10:38.000Z</time>
      </trkpt>
      <trkpt lat="47.49435" lon="6.75686">
        <ele>320</ele>
        <time>2016-07-17T07:10:39.000Z</time>
      </trkpt>
      <trkpt lat="47.49436" lon="6.7569">
        <ele>320</ele>
        <time>2016-07-17T07:10:40.000Z</time>
      </trkpt>
      <trkpt lat="47.49437" lon="6.75695">
        <ele>320</ele>
        <time>2016-07-17T07:10:41.000Z</time>
      </trkpt>
      <trkpt lat="47.49438" lon="6.757">
        <ele>321</ele>
        <time>2016-07-17T07:10:42.000Z</time>
      </trkpt>
      <trkpt lat="47.4944" lon="6.75704">
        <ele>321</ele>
        <time>2016-07-17T07:10:43.000Z</time>
      </trkpt>
      <trkpt lat="47.49443" lon="6.75706">
        <ele>321</ele>
        <time>2016-07-17T07:10:44.000Z</time>
      </trkpt>
      <trkpt lat="47.49447" lon="6.75705">
        <ele>321</ele>
        <time>2016-07-17T07:10:45.000Z</time>
      </trkpt>
      <trkpt lat="47.49451" lon="6.75703">
        <ele>321</ele>
        <time>2016-07-17T07:10:46.000Z</time>
      </trkpt>
      <trkpt lat="47.49455" lon="6.757">
        <ele>321</ele>
        <time>2016-07-17T07:10:47.000Z</time>
      </trkpt>
      <trkpt lat="47.49459" lon="6.75699">
        <ele>321</ele>
        <time>2016-07-17T07:10:48.000Z</time>
      </trkpt>
      <trkpt lat="47.49463" lon="6.75699">
        <ele>321</ele>
        <time>2016-07-17T07:10:49.000Z</time>
      </trkpt>
      <trkpt lat="47.49467" lon="6.75701">
        <ele>321</ele>
        <time>2016-07-17T07:10:50.000Z</time>
      </trkpt>
      <trkpt lat="47.49469" lon="6.75705">
        <ele>321</ele>
        <time>2016-07-17T07:10:51.000Z</time>
      </trkpt>
      <trkpt lat="47.49471" lon="6.7571">
        <ele>321</ele>
        <time>2016-07-17T07:10:52.000Z</time>
      </trkpt>
      <trkpt lat="47.49473" lon="6.75716">
        <ele>321</ele>
        <time>2016-07-17T07:10:53.000Z</time>
      </trkpt>
      <trkpt lat="47.49475" lon="6.75721">
        <ele>322</ele>
        <time>2016-07-17T07:10:54.000Z</time>
      </trkpt>
      <trkpt lat="47.49477" lon="6.75727">
        <ele>322</ele>
        <time>2016-07-17T07:10:55.000Z</time>
      </trkpt>
      <trkpt lat="47.49479" lon="6.75732">
        <ele>322</ele>
        <time>2016-07-17T07:10:56.000Z</time>
      </trkpt>
      <trkpt lat="47.4948" lon="6.75738">
        <ele>322</ele>
        <time>2016-07-17T07:10:57.000Z</time>
      </trkpt>
      <trkpt lat="47.49482" lon="6.75742">
        <ele>322</ele>
        <time>2016-07-17T07:10:58.002Z</time>
      </trkpt>
      <trkpt lat="47.49485" lon="6.75746">
        <ele>323</ele>
        <time>2016-07-17T07:10:59.000Z</time>
      </trkpt>
      <trkpt lat="47.4949" lon="6.75747">
        <ele>323</ele>
        <time>2016-07-17T07:11:00.000Z</time>
      </trkpt>
      <trkpt lat="47.49494" lon="6.75746">
        <ele>323</ele>
        <time>2016-07-17T07:11:01.000Z</time>
      </trkpt>
      <trkpt lat="47.49497" lon="6.75746">
        <ele>323</ele>
        <time>2016-07-17T07:11:02.000Z</time>
      </trkpt>
      <trkpt lat="47.49503" lon="6.7574">
        <ele>324</ele>
        <time>2016-07-17T07:11:03.000Z</time>
      </trkpt>
      <trkpt lat="47.49507" lon="6.75737">
        <ele>325</ele>
        <time>2016-07-17T07:11:04.000Z</time>
      </trkpt>
      <trkpt lat="47.49511" lon="6.75736">
        <ele>325</ele>
        <time>2016-07-17T07:11:05.000Z</time>
      </trkpt>
      <trkpt lat="47.49516" lon="6.75735">
        <ele>325</ele>
        <time>2016-07-17T07:11:06.000Z</time>
      </trkpt>
      <trkpt lat="47.49519" lon="6.75734">
        <ele>325</ele>
        <time>2016-07-17T07:11:07.000Z</time>
      </trkpt>
      <trkpt lat="47.49522" lon="6.75733">
        <ele>325</ele>
        <time>2016-07-17T07:11:08.000Z</time>
      </trkpt>
      <trkpt lat="47.49526" lon="6.7573">
        <ele>325</ele>
        <time>2016-07-17T07:11:09.000Z</time>
      </trkpt>
      <trkpt lat="47.4953" lon="6.75727">
        <ele>325</ele>
        <time>2016-07-17T07:11:10.000Z</time>
      </trkpt>
      <trkpt lat="47.49534" lon="6.75723">
        <ele>325</ele>
        <time>2016-07-17T07:11:11.000Z</time>
      </trkpt>
      <trkpt lat="47.49537" lon="6.75718">
        <ele>325</ele>
        <time>2016-07-17T07:11:12.000Z</time>
      </trkpt>
      <trkpt lat="47.49541" lon="6.75714">
        <ele>325</ele>
        <time>2016-07-17T07:11:13.000Z</time>
      </trkpt>
      <trkpt lat="47.49542" lon="6.7571">
        <ele>325</ele>
        <time>2016-07-17T07:11:14.000Z</time>
      </trkpt>
      <trkpt lat="47.49544" lon="6.75705">
        <ele>325</ele>
        <time>2016-07-17T07:11:15.000Z</time>
      </trkpt>
      <trkpt lat="47.49551" lon="6.75699">
        <ele>325</ele>
        <time>2016-07-17T07:11:16.000Z</time>
      </trkpt>
      <trkpt lat="47.49555" lon="6.75694">
        <ele>324</ele>
        <time>2016-07-17T07:11:17.000Z</time>
      </trkpt>
      <trkpt lat="47.49559" lon="6.75689">
        <ele>324</ele>
        <time>2016-07-17T07:11:18.000Z</time>
      </trkpt>
      <trkpt lat="47.49563" lon="6.75684">
        <ele>324</ele>
        <time>2016-07-17T07:11:19.000Z</time>
      </trkpt>
      <trkpt lat="47.49565" lon="6.75678">
        <ele>323</ele>
        <time>2016-07-17T07:11:20.000Z</time>
      </trkpt>
      <trkpt lat="47.49569" lon="6.75673">
        <ele>323</ele>
        <time>2016-07-17T07:11:21.000Z</time>
      </trkpt>
      <trkpt lat="47.49572" lon="6.75672">
        <ele>323</ele>
        <time>2016-07-17T07:11:22.000Z</time>
      </trkpt>
      <trkpt lat="47.49575" lon="6.75671">
        <ele>322</ele>
        <time>2016-07-17T07:11:23.000Z</time>
      </trkpt>
      <trkpt lat="47.49579" lon="6.75673">
        <ele>322</ele>
        <time>2016-07-17T07:11:24.000Z</time>
      </trkpt>
      <trkpt lat="47.49581" lon="6.75675">
        <ele>322</ele>
        <time>2016-07-17T07:11:25.000Z</time>
      </trkpt>
      <trkpt lat="47.49583" lon="6.75678">
        <ele>323</ele>
        <time>2016-07-17T07:11:26.000Z</time>
      </trkpt>
      <trkpt lat="47.49586" lon="6.75682">
        <ele>326</ele>
        <time>2016-07-17T07:11:27.000Z</time>
      </trkpt>
      <trkpt lat="47.49588" lon="6.75687">
        <ele>327</ele>
        <time>2016-07-17T07:11:28.000Z</time>
      </trkpt>
      <trkpt lat="47.4959" lon="6.7569">
        <ele>328</ele>
        <time>2016-07-17T07:11:29.000Z</time>
      </trkpt>
      <trkpt lat="47.49592" lon="6.75694">
        <ele>328</ele>
        <time>2016-07-17T07:11:30.000Z</time>
      </trkpt>
      <trkpt lat="47.49594" lon="6.75698">
        <ele>329</ele>
        <time>2016-07-17T07:11:31.000Z</time>
      </trkpt>
      <trkpt lat="47.49593" lon="6.75703">
        <ele>329</ele>
        <time>2016-07-17T07:11:32.000Z</time>
      </trkpt>
      <trkpt lat="47.49592" lon="6.75707">
        <ele>330</ele>
        <time>2016-07-17T07:11:33.000Z</time>
      </trkpt>
      <trkpt lat="47.4959" lon="6.75712">
        <ele>331</ele>
        <time>2016-07-17T07:11:34.000Z</time>
      </trkpt>
      <trkpt lat="47.49587" lon="6.75717">
        <ele>331</ele>
        <time>2016-07-17T07:11:35.000Z</time>
      </trkpt>
      <trkpt lat="47.49584" lon="6.75721">
        <ele>331</ele>
        <time>2016-07-17T07:11:36.000Z</time>
      </trkpt>
      <trkpt lat="47.49581" lon="6.75724">
        <ele>328</ele>
        <time>2016-07-17T07:11:37.000Z</time>
      </trkpt>
      <trkpt lat="47.49577" lon="6.75728">
        <ele>328</ele>
        <time>2016-07-17T07:11:38.000Z</time>
      </trkpt>
      <trkpt lat="47.49574" lon="6.75731">
        <ele>329</ele>
        <time>2016-07-17T07:11:39.000Z</time>
      </trkpt>
      <trkpt lat="47.49571" lon="6.75735">
        <ele>329</ele>
        <time>2016-07-17T07:11:40.000Z</time>
      </trkpt>
      <trkpt lat="47.49568" lon="6.75738">
        <ele>329</ele>
        <time>2016-07-17T07:11:41.000Z</time>
      </trkpt>
      <trkpt lat="47.49565" lon="6.75741">
        <ele>329</ele>
        <time>2016-07-17T07:11:42.000Z</time>
      </trkpt>
      <trkpt lat="47.49562" lon="6.75744">
        <ele>329</ele>
        <time>2016-07-17T07:11:43.000Z</time>
      </trkpt>
      <trkpt lat="47.49559" lon="6.75746">
        <ele>328</ele>
        <time>2016-07-17T07:11:44.000Z</time>
      </trkpt>
      <trkpt lat="47.49557" lon="6.75749">
        <ele>328</ele>
        <time>2016-07-17T07:11:45.000Z</time>
      </trkpt>
      <trkpt lat="47.49554" lon="6.75751">
        <ele>334</ele>
        <time>2016-07-17T07:11:46.000Z</time>
      </trkpt>
      <trkpt lat="47.49552" lon="6.75754">
        <ele>334</ele>
        <time>2016-07-17T07:11:47.000Z</time>
      </trkpt>
      <trkpt lat="47.4955" lon="6.75757">
        <ele>334</ele>
        <time>2016-07-17T07:11:48.000Z</time>
      </trkpt>
      <trkpt lat="47.4955" lon="6.7576">
        <ele>335</ele>
        <time>2016-07-17T07:11:49.000Z</time>
      </trkpt>
      <trkpt lat="47.49552" lon="6.75766">
        <ele>335</ele>
        <time>2016-07-17T07:11:51.000Z</time>
      </trkpt>
      <trkpt lat="47.49553" lon="6.75767">
        <ele>335</ele>
        <time>2016-07-17T07:11:52.000Z</time>
      </trkpt>
      <trkpt lat="47.49556" lon="6.75771">
        <ele>335</ele>
        <time>2016-07-17T07:11:55.000Z</time>
      </trkpt>
      <trkpt lat="47.49558" lon="6.75772">
        <ele>336</ele>
        <time>2016-07-17T07:11:56.000Z</time>
      </trkpt>
      <trkpt lat="47.49561" lon="6.75774">
        <ele>336</ele>
        <time>2016-07-17T07:11:59.000Z</time>
      </trkpt>
      <trkpt lat="47.49562" lon="6.75775">
        <ele>336</ele>
        <time>2016-07-17T07:12:00.000Z</time>
      </trkpt>
      <trkpt lat="47.49566" lon="6.75774">
        <ele>336</ele>
        <time>2016-07-17T07:12:07.000Z</time>
      </trkpt>
      <trkpt lat="47.49568" lon="6.75775">
        <ele>336</ele>
        <time>2016-07-17T07:12:08.000Z</time>
      </trkpt>
      <trkpt lat="47.49571" lon="6.75776">
        <ele>336</ele>
        <time>2016-07-17T07:12:10.000Z</time>
      </trkpt>
      <trkpt lat="47.49573" lon="6.75777">
        <ele>336</ele>
        <time>2016-07-17T07:12:11.000Z</time>
      </trkpt>
      <trkpt lat="47.49577" lon="6.75778">
        <ele>337</ele>
        <time>2016-07-17T07:12:13.000Z</time>
      </trkpt>
      <trkpt lat="47.49578" lon="6.75779">
        <ele>337</ele>
        <time>2016-07-17T07:12:14.000Z</time>
      </trkpt>
      <trkpt lat="47.49582" lon="6.75781">
        <ele>337</ele>
        <time>2016-07-17T07:12:18.000Z</time>
      </trkpt>
      <trkpt lat="47.49583" lon="6.75781">
        <ele>337</ele>
        <time>2016-07-17T07:12:19.000Z</time>
      </trkpt>
      <trkpt lat="47.49586" lon="6.75784">
        <ele>343</ele>
        <time>2016-07-17T07:12:23.000Z</time>
      </trkpt>
      <trkpt lat="47.49588" lon="6.75784">
        <ele>343</ele>
        <time>2016-07-17T07:12:24.000Z</time>
      </trkpt>
      <trkpt lat="47.4959" lon="6.75786">
        <ele>344</ele>
        <time>2016-07-17T07:12:26.000Z</time>
      </trkpt>
      <trkpt lat="47.49592" lon="6.75787">
        <ele>344</ele>
        <time>2016-07-17T07:12:27.000Z</time>
      </trkpt>
      <trkpt lat="47.49595" lon="6.75788">
        <ele>344</ele>
        <time>2016-07-17T07:12:29.000Z</time>
      </trkpt>
      <trkpt lat="47.49597" lon="6.75789">
        <ele>344</ele>
        <time>2016-07-17T07:12:30.000Z</time>
      </trkpt>
      <trkpt lat="47.49599" lon="6.75793">
        <ele>345</ele>
        <time>2016-07-17T07:12:33.000Z</time>
      </trkpt>
      <trkpt lat="47.496" lon="6.75795">
        <ele>345</ele>
        <time>2016-07-17T07:12:34.000Z</time>
      </trkpt>
      <trkpt lat="47.49604" lon="6.75794">
        <ele>345</ele>
        <time>2016-07-17T07:12:38.000Z</time>
      </trkpt>
      <trkpt lat="47.49605" lon="6.75794">
        <ele>345</ele>
        <time>2016-07-17T07:12:39.000Z</time>
      </trkpt>
      <trkpt lat="47.49608" lon="6.75795">
        <ele>346</ele>
        <time>2016-07-17T07:12:42.000Z</time>
      </trkpt>
      <trkpt lat="47.49609" lon="6.75795">
        <ele>346</ele>
        <time>2016-07-17T07:12:43.000Z</time>
      </trkpt>
      <trkpt lat="47.49613" lon="6.75796">
        <ele>346</ele>
        <time>2016-07-17T07:12:45.000Z</time>
      </trkpt>
      <trkpt lat="47.49615" lon="6.75797">
        <ele>346</ele>
        <time>2016-07-17T07:12:46.000Z</time>
      </trkpt>
      <trkpt lat="47.49617" lon="6.75797">
        <ele>346</ele>
        <time>2016-07-17T07:12:47.000Z</time>
      </trkpt>
      <trkpt lat="47.49619" lon="6.75797">
        <ele>346</ele>
        <time>2016-07-17T07:12:48.000Z</time>
      </trkpt>
      <trkpt lat="47.49622" lon="6.75797">
        <ele>347</ele>
        <time>2016-07-17T07:12:49.000Z</time>
      </trkpt>
      <trkpt lat="47.49625" lon="6.75797">
        <ele>347</ele>
        <time>2016-07-17T07:12:50.000Z</time>
      </trkpt>
      <trkpt lat="47.49628" lon="6.75797">
        <ele>347</ele>
        <time>2016-07-17T07:12:51.000Z</time>
      </trkpt>
      <trkpt lat="47.49631" lon="6.75798">
        <ele>347</ele>
        <time>2016-07-17T07:12:52.000Z</time>
      </trkpt>
      <trkpt lat="47.49635" lon="6.75799">
        <ele>347</ele>
        <time>2016-07-17T07:12:54.000Z</time>
      </trkpt>
      <trkpt lat="47.49636" lon="6.75799">
        <ele>348</ele>
        <time>2016-07-17T07:12:55.000Z</time>
      </trkpt>
      <trkpt lat="47.4964" lon="6.75799">
        <ele>348</ele>
        <time>2016-07-17T07:12:57.000Z</time>
      </trkpt>
      <trkpt lat="47.49643" lon="6.75797">
        <ele>348</ele>
        <time>2016-07-17T07:12:58.000Z</time>
      </trkpt>
      <trkpt lat="47.49645" lon="6.75796">
        <ele>348</ele>
        <time>2016-07-17T07:12:59.000Z</time>
      </trkpt>
      <trkpt lat="47.49648" lon="6.75796">
        <ele>348</ele>
        <time>2016-07-17T07:13:00.000Z</time>
      </trkpt>
      <trkpt lat="47.49652" lon="6.75797">
        <ele>348</ele>
        <time>2016-07-17T07:13:02.000Z</time>
      </trkpt>
      <trkpt lat="47.49654" lon="6.75797">
        <ele>348</ele>
        <time>2016-07-17T07:13:03.000Z</time>
      </trkpt>
      <trkpt lat="47.49658" lon="6.75798">
        <ele>349</ele>
        <time>2016-07-17T07:13:05.000Z</time>
      </trkpt>
      <trkpt lat="47.4966" lon="6.75799">
        <ele>349</ele>
        <time>2016-07-17T07:13:06.000Z</time>
      </trkpt>
      <trkpt lat="47.49665" lon="6.75799">
        <ele>349</ele>
        <time>2016-07-17T07:13:08.000Z</time>
      </trkpt>
      <trkpt lat="47.49666" lon="6.75799">
        <ele>349</ele>
        <time>2016-07-17T07:13:09.000Z</time>
      </trkpt>
      <trkpt lat="47.4967" lon="6.75797">
        <ele>354</ele>
        <time>2016-07-17T07:13:12.000Z</time>
      </trkpt>
      <trkpt lat="47.49671" lon="6.75797">
        <ele>354</ele>
        <time>2016-07-17T07:13:13.000Z</time>
      </trkpt>
      <trkpt lat="47.49674" lon="6.75797">
        <ele>354</ele>
        <time>2016-07-17T07:13:15.000Z</time>
      </trkpt>
      <trkpt lat="47.49676" lon="6.75797">
        <ele>354</ele>
        <time>2016-07-17T07:13:16.000Z</time>
      </trkpt>
      <trkpt lat="47.4968" lon="6.75797">
        <ele>354</ele>
        <time>2016-07-17T07:13:18.000Z</time>
      </trkpt>
      <trkpt lat="47.49682" lon="6.75796">
        <ele>354</ele>
        <time>2016-07-17T07:13:19.000Z</time>
      </trkpt>
      <trkpt lat="47.49685" lon="6.75795">
        <ele>354</ele>
        <time>2016-07-17T07:13:20.000Z</time>
      </trkpt>
      <trkpt lat="47.49687" lon="6.75794">
        <ele>354</ele>
        <time>2016-07-17T07:13:21.000Z</time>
      </trkpt>
      <trkpt lat="47.4969" lon="6.75792">
        <ele>354</ele>
        <time>2016-07-17T07:13:22.000Z</time>
      </trkpt>
      <trkpt lat="47.49693" lon="6.7579">
        <ele>354</ele>
        <time>2016-07-17T07:13:23.000Z</time>
      </trkpt>
      <trkpt lat="47.49696" lon="6.75788">
        <ele>354</ele>
        <time>2016-07-17T07:13:24.000Z</time>
      </trkpt>
      <trkpt lat="47.49698" lon="6.75787">
        <ele>354</ele>
        <time>2016-07-17T07:13:25.000Z</time>
      </trkpt>
      <trkpt lat="47.49701" lon="6.75786">
        <ele>354</ele>
        <time>2016-07-17T07:13:26.000Z</time>
      </trkpt>
      <trkpt lat="47.49703" lon="6.75785">
        <ele>354</ele>
        <time>2016-07-17T07:13:27.000Z</time>
      </trkpt>
      <trkpt lat="47.49705" lon="6.75784">
        <ele>354</ele>
        <time>2016-07-17T07:13:28.000Z</time>
      </trkpt>
      <trkpt lat="47.49708" lon="6.75784">
        <ele>354</ele>
        <time>2016-07-17T07:13:29.000Z</time>
      </trkpt>
      <trkpt lat="47.49711" lon="6.75782">
        <ele>354</ele>
        <time>2016-07-17T07:13:30.000Z</time>
      </trkpt>
      <trkpt lat="47.49713" lon="6.75781">
        <ele>354</ele>
        <time>2016-07-17T07:13:31.000Z</time>
      </trkpt>
      <trkpt lat="47.49717" lon="6.75779">
        <ele>354</ele>
        <time>2016-07-17T07:13:32.000Z</time>
      </trkpt>
      <trkpt lat="47.4972" lon="6.75778">
        <ele>354</ele>
        <time>2016-07-17T07:13:33.000Z</time>
      </trkpt>
      <trkpt lat="47.49722" lon="6.75777">
        <ele>354</ele>
        <time>2016-07-17T07:13:34.000Z</time>
      </trkpt>
      <trkpt lat="47.49725" lon="6.75776">
        <ele>354</ele>
        <time>2016-07-17T07:13:35.000Z</time>
      </trkpt>
      <trkpt lat="47.49728" lon="6.75775">
        <ele>354</ele>
        <time>2016-07-17T07:13:36.000Z</time>
      </trkpt>
      <trkpt lat="47.49731" lon="6.75774">
        <ele>354</ele>
        <time>2016-07-17T07:13:37.000Z</time>
      </trkpt>
      <trkpt lat="47.49734" lon="6.75772">
        <ele>354</ele>
        <time>2016-07-17T07:13:38.000Z</time>
      </trkpt>
      <trkpt lat="47.49737" lon="6.75771">
        <ele>354</ele>
        <time>2016-07-17T07:13:39.000Z</time>
      </trkpt>
      <trkpt lat="47.49739" lon="6.75769">
        <ele>354</ele>
        <time>2016-07-17T07:13:40.000Z</time>
      </trkpt>
      <trkpt lat="47.49742" lon="6.75768">
        <ele>353</ele>
        <time>2016-07-17T07:13:41.000Z</time>
      </trkpt>
      <trkpt lat="47.49744" lon="6.75767">
        <ele>353</ele>
        <time>2016-07-17T07:13:42.000Z</time>
      </trkpt>
      <trkpt lat="47.49746" lon="6.75767">
        <ele>353</ele>
        <time>2016-07-17T07:13:43.000Z</time>
      </trkpt>
      <trkpt lat="47.49749" lon="6.75766">
        <ele>353</ele>
        <time>2016-07-17T07:13:45.000Z</time>
      </trkpt>
      <trkpt lat="47.49751" lon="6.75766">
        <ele>356</ele>
        <time>2016-07-17T07:13:46.000Z</time>
      </trkpt>
      <trkpt lat="47.49754" lon="6.75766">
        <ele>356</ele>
        <time>2016-07-17T07:13:48.000Z</time>
      </trkpt>
      <trkpt lat="47.49756" lon="6.75766">
        <ele>356</ele>
        <time>2016-07-17T07:13:49.000Z</time>
      </trkpt>
      <trkpt lat="47.49758" lon="6.75765">
        <ele>356</ele>
        <time>2016-07-17T07:13:50.000Z</time>
      </trkpt>
      <trkpt lat="47.4976" lon="6.75764">
        <ele>356</ele>
        <time>2016-07-17T07:13:51.000Z</time>
      </trkpt>
      <trkpt lat="47.49763" lon="6.75764">
        <ele>356</ele>
        <time>2016-07-17T07:13:52.000Z</time>
      </trkpt>
      <trkpt lat="47.49765" lon="6.75763">
        <ele>357</ele>
        <time>2016-07-17T07:13:53.000Z</time>
      </trkpt>
      <trkpt lat="47.4977" lon="6.75762">
        <ele>357</ele>
        <time>2016-07-17T07:13:55.000Z</time>
      </trkpt>
      <trkpt lat="47.49772" lon="6.75762">
        <ele>357</ele>
        <time>2016-07-17T07:13:56.000Z</time>
      </trkpt>
      <trkpt lat="47.49776" lon="6.75762">
        <ele>358</ele>
        <time>2016-07-17T07:13:59.000Z</time>
      </trkpt>
      <trkpt lat="47.49777" lon="6.75762">
        <ele>358</ele>
        <time>2016-07-17T07:14:00.000Z</time>
      </trkpt>
      <trkpt lat="47.4978" lon="6.75762">
        <ele>358</ele>
        <time>2016-07-17T07:14:02.000Z</time>
      </trkpt>
      <trkpt lat="47.49782" lon="6.75762">
        <ele>358</ele>
        <time>2016-07-17T07:14:03.000Z</time>
      </trkpt>
      <trkpt lat="47.49785" lon="6.75762">
        <ele>359</ele>
        <time>2016-07-17T07:14:05.000Z</time>
      </trkpt>
      <trkpt lat="47.49787" lon="6.75762">
        <ele>359</ele>
        <time>2016-07-17T07:14:06.000Z</time>
      </trkpt>
      <trkpt lat="47.4979" lon="6.7576">
        <ele>359</ele>
        <time>2016-07-17T07:14:09.000Z</time>
      </trkpt>
      <trkpt lat="47.49792" lon="6.7576">
        <ele>359</ele>
        <time>2016-07-17T07:14:10.000Z</time>
      </trkpt>
      <trkpt lat="47.49795" lon="6.75759">
        <ele>359</ele>
        <time>2016-07-17T07:14:12.000Z</time>
      </trkpt>
      <trkpt lat="47.49796" lon="6.75759">
        <ele>359</ele>
        <time>2016-07-17T07:14:13.000Z</time>
      </trkpt>
      <trkpt lat="47.49801" lon="6.75758">
        <ele>359</ele>
        <time>2016-07-17T07:14:16.000Z</time>
      </trkpt>
      <trkpt lat="47.49802" lon="6.75758">
        <ele>359</ele>
        <time>2016-07-17T07:14:17.000Z</time>
      </trkpt>
      <trkpt lat="47.49805" lon="6.75757">
        <ele>360</ele>
        <time>2016-07-17T07:14:19.000Z</time>
      </trkpt>
      <trkpt lat="47.49806" lon="6.75756">
        <ele>360</ele>
        <time>2016-07-17T07:14:20.000Z</time>
      </trkpt>
      <trkpt lat="47.4981" lon="6.75753">
        <ele>360</ele>
        <time>2016-07-17T07:14:22.000Z</time>
      </trkpt>
      <trkpt lat="47.49811" lon="6.75752">
        <ele>360</ele>
        <time>2016-07-17T07:14:23.000Z</time>
      </trkpt>
      <trkpt lat="47.49814" lon="6.7575">
        <ele>355</ele>
        <time>2016-07-17T07:14:25.000Z</time>
      </trkpt>
      <trkpt lat="47.49816" lon="6.75749">
        <ele>355</ele>
        <time>2016-07-17T07:14:26.000Z</time>
      </trkpt>
      <trkpt lat="47.49819" lon="6.75748">
        <ele>355</ele>
        <time>2016-07-17T07:14:28.000Z</time>
      </trkpt>
      <trkpt lat="47.49821" lon="6.75748">
        <ele>356</ele>
        <time>2016-07-17T07:14:29.000Z</time>
      </trkpt>
      <trkpt lat="47.49823" lon="6.75747">
        <ele>356</ele>
        <time>2016-07-17T07:14:30.000Z</time>
      </trkpt>
      <trkpt lat="47.49826" lon="6.75747">
        <ele>357</ele>
        <time>2016-07-17T07:14:31.000Z</time>
      </trkpt>
      <trkpt lat="47.49828" lon="6.75746">
        <ele>357</ele>
        <time>2016-07-17T07:14:32.000Z</time>
      </trkpt>
      <trkpt lat="47.49831" lon="6.75746">
        <ele>358</ele>
        <time>2016-07-17T07:14:33.000Z</time>
      </trkpt>
      <trkpt lat="47.49833" lon="6.75745">
        <ele>358</ele>
        <time>2016-07-17T07:14:34.000Z</time>
      </trkpt>
      <trkpt lat="47.49836" lon="6.75744">
        <ele>360</ele>
        <time>2016-07-17T07:14:35.000Z</time>
      </trkpt>
      <trkpt lat="47.4984" lon="6.75743">
        <ele>360</ele>
        <time>2016-07-17T07:14:37.000Z</time>
      </trkpt>
      <trkpt lat="47.49841" lon="6.75743">
        <ele>360</ele>
        <time>2016-07-17T07:14:38.000Z</time>
      </trkpt>
      <trkpt lat="47.49844" lon="6.75744">
        <ele>360</ele>
        <time>2016-07-17T07:14:40.000Z</time>
      </trkpt>
      <trkpt lat="47.49846" lon="6.75744">
        <ele>361</ele>
        <time>2016-07-17T07:14:41.000Z</time>
      </trkpt>
      <trkpt lat="47.4985" lon="6.75742">
        <ele>361</ele>
        <time>2016-07-17T07:14:43.000Z</time>
      </trkpt>
      <trkpt lat="47.49852" lon="6.75741">
        <ele>361</ele>
        <time>2016-07-17T07:14:44.000Z</time>
      </trkpt>
      <trkpt lat="47.49856" lon="6.75741">
        <ele>361</ele>
        <time>2016-07-17T07:14:46.000Z</time>
      </trkpt>
      <trkpt lat="47.49857" lon="6.7574">
        <ele>361</ele>
        <time>2016-07-17T07:14:47.000Z</time>
      </trkpt>
      <trkpt lat="47.4986" lon="6.7574">
        <ele>362</ele>
        <time>2016-07-17T07:14:49.000Z</time>
      </trkpt>
      <trkpt lat="47.49862" lon="6.7574">
        <ele>362</ele>
        <time>2016-07-17T07:14:50.000Z</time>
      </trkpt>
      <trkpt lat="47.49866" lon="6.7574">
        <ele>362</ele>
        <time>2016-07-17T07:14:52.000Z</time>
      </trkpt>
      <trkpt lat="47.49868" lon="6.75739">
        <ele>362</ele>
        <time>2016-07-17T07:14:53.000Z</time>
      </trkpt>
      <trkpt lat="47.49871" lon="6.75738">
        <ele>363</ele>
        <time>2016-07-17T07:14:55.000Z</time>
      </trkpt>
      <trkpt lat="47.49873" lon="6.75739">
        <ele>363</ele>
        <time>2016-07-17T07:14:56.000Z</time>
      </trkpt>
      <trkpt lat="47.49876" lon="6.75739">
        <ele>363</ele>
        <time>2016-07-17T07:14:58.000Z</time>
      </trkpt>
      <trkpt lat="47.49878" lon="6.75739">
        <ele>363</ele>
        <time>2016-07-17T07:14:59.000Z</time>
      </trkpt>
      <trkpt lat="47.49881" lon="6.75738">
        <ele>363</ele>
        <time>2016-07-17T07:15:00.000Z</time>
      </trkpt>
      <trkpt lat="47.49883" lon="6.75738">
        <ele>364</ele>
        <time>2016-07-17T07:15:01.000Z</time>
      </trkpt>
      <trkpt lat="47.49887" lon="6.75738">
        <ele>364</ele>
        <time>2016-07-17T07:15:03.000Z</time>
      </trkpt>
      <trkpt lat="47.49889" lon="6.75738">
        <ele>364</ele>
        <time>2016-07-17T07:15:04.000Z</time>
      </trkpt>
      <trkpt lat="47.49893" lon="6.75739">
        <ele>365</ele>
        <time>2016-07-17T07:15:06.000Z</time>
      </trkpt>
      <trkpt lat="47.49894" lon="6.7574">
        <ele>365</ele>
        <time>2016-07-17T07:15:07.000Z</time>
      </trkpt>
      <trkpt lat="47.49897" lon="6.75743">
        <ele>365</ele>
        <time>2016-07-17T07:15:09.000Z</time>
      </trkpt>
      <trkpt lat="47.49897" lon="6.75745">
        <ele>365</ele>
        <time>2016-07-17T07:15:10.000Z</time>
      </trkpt>
      <trkpt lat="47.49899" lon="6.75749">
        <ele>366</ele>
        <time>2016-07-17T07:15:12.000Z</time>
      </trkpt>
      <trkpt lat="47.499" lon="6.7575">
        <ele>366</ele>
        <time>2016-07-17T07:15:13.000Z</time>
      </trkpt>
      <trkpt lat="47.49904" lon="6.75752">
        <ele>368</ele>
        <time>2016-07-17T07:15:16.000Z</time>
      </trkpt>
      <trkpt lat="47.49906" lon="6.75752">
        <ele>368</ele>
        <time>2016-07-17T07:15:17.000Z</time>
      </trkpt>
      <trkpt lat="47.49909" lon="6.75753">
        <ele>368</ele>
        <time>2016-07-17T07:15:19.000Z</time>
      </trkpt>
      <trkpt lat="47.4991" lon="6.75754">
        <ele>368</ele>
        <time>2016-07-17T07:15:20.000Z</time>
      </trkpt>
      <trkpt lat="47.49913" lon="6.75758">
        <ele>368</ele>
        <time>2016-07-17T07:15:25.000Z</time>
      </trkpt>
      <trkpt lat="47.49914" lon="6.7576">
        <ele>368</ele>
        <time>2016-07-17T07:15:26.000Z</time>
      </trkpt>
      <trkpt lat="47.49916" lon="6.75763">
        <ele>368</ele>
        <time>2016-07-17T07:15:28.000Z</time>
      </trkpt>
      <trkpt lat="47.49917" lon="6.75764">
        <ele>371</ele>
        <time>2016-07-17T07:15:29.000Z</time>
      </trkpt>
      <trkpt lat="47.4992" lon="6.75766">
        <ele>371</ele>
        <time>2016-07-17T07:15:31.000Z</time>
      </trkpt>
      <trkpt lat="47.49922" lon="6.75767">
        <ele>371</ele>
        <time>2016-07-17T07:15:32.000Z</time>
      </trkpt>
      <trkpt lat="47.49925" lon="6.75769">
        <ele>372</ele>
        <time>2016-07-17T07:15:34.000Z</time>
      </trkpt>
      <trkpt lat="47.49926" lon="6.7577">
        <ele>372</ele>
        <time>2016-07-17T07:15:35.000Z</time>
      </trkpt>
      <trkpt lat="47.49929" lon="6.75774">
        <ele>372</ele>
        <time>2016-07-17T07:15:37.000Z</time>
      </trkpt>
      <trkpt lat="47.49931" lon="6.75777">
        <ele>372</ele>
        <time>2016-07-17T07:15:38.000Z</time>
      </trkpt>
      <trkpt lat="47.49933" lon="6.75781">
        <ele>372</ele>
        <time>2016-07-17T07:15:40.000Z</time>
      </trkpt>
      <trkpt lat="47.49934" lon="6.75783">
        <ele>372</ele>
        <time>2016-07-17T07:15:41.000Z</time>
      </trkpt>
      <trkpt lat="47.49936" lon="6.75786">
        <ele>373</ele>
        <time>2016-07-17T07:15:43.000Z</time>
      </trkpt>
      <trkpt lat="47.49937" lon="6.75788">
        <ele>373</ele>
        <time>2016-07-17T07:15:44.000Z</time>
      </trkpt>
      <trkpt lat="47.4994" lon="6.75792">
        <ele>373</ele>
        <time>2016-07-17T07:15:46.000Z</time>
      </trkpt>
      <trkpt lat="47.49941" lon="6.75794">
        <ele>373</ele>
        <time>2016-07-17T07:15:47.000Z</time>
      </trkpt>
      <trkpt lat="47.49943" lon="6.75798">
        <ele>373</ele>
        <time>2016-07-17T07:15:49.000Z</time>
      </trkpt>
      <trkpt lat="47.49944" lon="6.75799">
        <ele>373</ele>
        <time>2016-07-17T07:15:50.000Z</time>
      </trkpt>
      <trkpt lat="47.49946" lon="6.75803">
        <ele>373</ele>
        <time>2016-07-17T07:15:52.000Z</time>
      </trkpt>
      <trkpt lat="47.49947" lon="6.75805">
        <ele>373</ele>
        <time>2016-07-17T07:15:53.000Z</time>
      </trkpt>
      <trkpt lat="47.49949" lon="6.75808">
        <ele>373</ele>
        <time>2016-07-17T07:15:54.000Z</time>
      </trkpt>
      <trkpt lat="47.4995" lon="6.7581">
        <ele>373</ele>
        <time>2016-07-17T07:15:55.000Z</time>
      </trkpt>
      <trkpt lat="47.49953" lon="6.75813">
        <ele>374</ele>
        <time>2016-07-17T07:15:57.000Z</time>
      </trkpt>
      <trkpt lat="47.49954" lon="6.75815">
        <ele>374</ele>
        <time>2016-07-17T07:15:58.000Z</time>
      </trkpt>
      <trkpt lat="47.49957" lon="6.7582">
        <ele>374</ele>
        <time>2016-07-17T07:16:00.000Z</time>
      </trkpt>
      <trkpt lat="47.49958" lon="6.75822">
        <ele>374</ele>
        <time>2016-07-17T07:16:01.000Z</time>
      </trkpt>
      <trkpt lat="47.49961" lon="6.75826">
        <ele>374</ele>
        <time>2016-07-17T07:16:03.000Z</time>
      </trkpt>
      <trkpt lat="47.49962" lon="6.75828">
        <ele>374</ele>
        <time>2016-07-17T07:16:04.000Z</time>
      </trkpt>
      <trkpt lat="47.49965" lon="6.75832">
        <ele>375</ele>
        <time>2016-07-17T07:16:06.000Z</time>
      </trkpt>
      <trkpt lat="47.49966" lon="6.75834">
        <ele>376</ele>
        <time>2016-07-17T07:16:07.000Z</time>
      </trkpt>
      <trkpt lat="47.49969" lon="6.7584">
        <ele>376</ele>
        <time>2016-07-17T07:16:09.000Z</time>
      </trkpt>
      <trkpt lat="47.4997" lon="6.75843">
        <ele>376</ele>
        <time>2016-07-17T07:16:10.000Z</time>
      </trkpt>
      <trkpt lat="47.49972" lon="6.75846">
        <ele>377</ele>
        <time>2016-07-17T07:16:11.000Z</time>
      </trkpt>
      <trkpt lat="47.49973" lon="6.75849">
        <ele>377</ele>
        <time>2016-07-17T07:16:12.000Z</time>
      </trkpt>
      <trkpt lat="47.49974" lon="6.75852">
        <ele>377</ele>
        <time>2016-07-17T07:16:13.000Z</time>
      </trkpt>
      <trkpt lat="47.49975" lon="6.75856">
        <ele>377</ele>
        <time>2016-07-17T07:16:14.000Z</time>
      </trkpt>
      <trkpt lat="47.49977" lon="6.75859">
        <ele>377</ele>
        <time>2016-07-17T07:16:15.000Z</time>
      </trkpt>
      <trkpt lat="47.49979" lon="6.75862">
        <ele>377</ele>
        <time>2016-07-17T07:16:16.000Z</time>
      </trkpt>
      <trkpt lat="47.4998" lon="6.75864">
        <ele>377</ele>
        <time>2016-07-17T07:16:17.000Z</time>
      </trkpt>
      <trkpt lat="47.49982" lon="6.75867">
        <ele>377</ele>
        <time>2016-07-17T07:16:18.000Z</time>
      </trkpt>
      <trkpt lat="47.49984" lon="6.75871">
        <ele>377</ele>
        <time>2016-07-17T07:16:20.000Z</time>
      </trkpt>
      <trkpt lat="47.49985" lon="6.75872">
        <ele>377</ele>
        <time>2016-07-17T07:16:21.000Z</time>
      </trkpt>
      <trkpt lat="47.49988" lon="6.75877">
        <ele>377</ele>
        <time>2016-07-17T07:16:23.000Z</time>
      </trkpt>
      <trkpt lat="47.4999" lon="6.7588">
        <ele>377</ele>
        <time>2016-07-17T07:16:24.000Z</time>
      </trkpt>
      <trkpt lat="47.49992" lon="6.75883">
        <ele>377</ele>
        <time>2016-07-17T07:16:25.000Z</time>
      </trkpt>
      <trkpt lat="47.49994" lon="6.75887">
        <ele>377</ele>
        <time>2016-07-17T07:16:26.000Z</time>
      </trkpt>
      <trkpt lat="47.49995" lon="6.75889">
        <ele>377</ele>
        <time>2016-07-17T07:16:27.000Z</time>
      </trkpt>
      <trkpt lat="47.49997" lon="6.75892">
        <ele>377</ele>
        <time>2016-07-17T07:16:28.000Z</time>
      </trkpt>
      <trkpt lat="47.49999" lon="6.75894">
        <ele>377</ele>
        <time>2016-07-17T07:16:29.000Z</time>
      </trkpt>
      <trkpt lat="47.50001" lon="6.75897">
        <ele>377</ele>
        <time>2016-07-17T07:16:30.000Z</time>
      </trkpt>
      <trkpt lat="47.50003" lon="6.759">
        <ele>377</ele>
        <time>2016-07-17T07:16:31.000Z</time>
      </trkpt>
      <trkpt lat="47.50006" lon="6.75903">
        <ele>377</ele>
        <time>2016-07-17T07:16:32.000Z</time>
      </trkpt>
      <trkpt lat="47.50008" lon="6.75906">
        <ele>377</ele>
        <time>2016-07-17T07:16:33.000Z</time>
      </trkpt>
      <trkpt lat="47.5001" lon="6.75908">
        <ele>377</ele>
        <time>2016-07-17T07:16:34.000Z</time>
      </trkpt>
      <trkpt lat="47.50012" lon="6.7591">
        <ele>377</ele>
        <time>2016-07-17T07:16:35.000Z</time>
      </trkpt>
      <trkpt lat="47.50014" lon="6.75912">
        <ele>377</ele>
        <time>2016-07-17T07:16:36.000Z</time>
      </trkpt>
      <trkpt lat="47.50016" lon="6.75914">
        <ele>377</ele>
        <time>2016-07-17T07:16:37.000Z</time>
      </trkpt>
      <trkpt lat="47.50018" lon="6.75916">
        <ele>377</ele>
        <time>2016-07-17T07:16:38.000Z</time>
      </trkpt>
      <trkpt lat="47.50021" lon="6.75918">
        <ele>378</ele>
        <time>2016-07-17T07:16:39.000Z</time>
      </trkpt>
      <trkpt lat="47.50023" lon="6.7592">
        <ele>378</ele>
        <time>2016-07-17T07:16:40.000Z</time>
      </trkpt>
      <trkpt lat="47.50025" lon="6.75922">
        <ele>378</ele>
        <time>2016-07-17T07:16:41.000Z</time>
      </trkpt>
      <trkpt lat="47.50027" lon="6.75925">
        <ele>378</ele>
        <time>2016-07-17T07:16:42.000Z</time>
      </trkpt>
      <trkpt lat="47.50028" lon="6.7593">
        <ele>378</ele>
        <time>2016-07-17T07:16:44.000Z</time>
      </trkpt>
      <trkpt lat="47.50029" lon="6.75932">
        <ele>378</ele>
        <time>2016-07-17T07:16:45.000Z</time>
      </trkpt>
      <trkpt lat="47.50031" lon="6.75936">
        <ele>378</ele>
        <time>2016-07-17T07:16:46.000Z</time>
      </trkpt>
      <trkpt lat="47.50033" lon="6.75939">
        <ele>378</ele>
        <time>2016-07-17T07:16:47.000Z</time>
      </trkpt>
      <trkpt lat="47.50035" lon="6.75942">
        <ele>378</ele>
        <time>2016-07-17T07:16:48.000Z</time>
      </trkpt>
      <trkpt lat="47.50037" lon="6.75944">
        <ele>378</ele>
        <time>2016-07-17T07:16:49.000Z</time>
      </trkpt>
      <trkpt lat="47.50039" lon="6.75946">
        <ele>378</ele>
        <time>2016-07-17T07:16:50.000Z</time>
      </trkpt>
      <trkpt lat="47.50041" lon="6.75949">
        <ele>378</ele>
        <time>2016-07-17T07:16:51.000Z</time>
      </trkpt>
      <trkpt lat="47.50044" lon="6.75951">
        <ele>378</ele>
        <time>2016-07-17T07:16:52.000Z</time>
      </trkpt>
      <trkpt lat="47.50046" lon="6.75955">
        <ele>379</ele>
        <time>2016-07-17T07:16:53.000Z</time>
      </trkpt>
      <trkpt lat="47.50049" lon="6.75959">
        <ele>379</ele>
        <time>2016-07-17T07:16:54.000Z</time>
      </trkpt>
      <trkpt lat="47.50052" lon="6.75963">
        <ele>379</ele>
        <time>2016-07-17T07:16:55.000Z</time>
      </trkpt>
      <trkpt lat="47.50054" lon="6.75967">
        <ele>379</ele>
        <time>2016-07-17T07:16:56.000Z</time>
      </trkpt>
      <trkpt lat="47.50057" lon="6.75971">
        <ele>379</ele>
        <time>2016-07-17T07:16:57.000Z</time>
      </trkpt>
      <trkpt lat="47.50059" lon="6.75974">
        <ele>379</ele>
        <time>2016-07-17T07:16:58.000Z</time>
      </trkpt>
      <trkpt lat="47.50061" lon="6.75977">
        <ele>379</ele>
        <time>2016-07-17T07:16:59.000Z</time>
      </trkpt>
      <trkpt lat="47.50063" lon="6.75979">
        <ele>379</ele>
        <time>2016-07-17T07:17:00.000Z</time>
      </trkpt>
      <trkpt lat="47.50065" lon="6.75982">
        <ele>379</ele>
        <time>2016-07-17T07:17:01.000Z</time>
      </trkpt>
      <trkpt lat="47.50067" lon="6.75984">
        <ele>379</ele>
        <time>2016-07-17T07:17:02.000Z</time>
      </trkpt>
      <trkpt lat="47.5007" lon="6.75987">
        <ele>379</ele>
        <time>2016-07-17T07:17:03.000Z</time>
      </trkpt>
      <trkpt lat="47.50072" lon="6.75991">
        <ele>379</ele>
        <time>2016-07-17T07:17:04.000Z</time>
      </trkpt>
      <trkpt lat="47.50074" lon="6.75994">
        <ele>380</ele>
        <time>2016-07-17T07:17:05.000Z</time>
      </trkpt>
      <trkpt lat="47.50075" lon="6.75998">
        <ele>380</ele>
        <time>2016-07-17T07:17:06.000Z</time>
      </trkpt>
      <trkpt lat="47.50077" lon="6.76001">
        <ele>382</ele>
        <time>2016-07-17T07:17:07.000Z</time>
      </trkpt>
      <trkpt lat="47.50078" lon="6.76007">
        <ele>382</ele>
        <time>2016-07-17T07:17:09.000Z</time>
      </trkpt>
      <trkpt lat="47.50079" lon="6.76009">
        <ele>382</ele>
        <time>2016-07-17T07:17:10.000Z</time>
      </trkpt>
      <trkpt lat="47.50081" lon="6.76014">
        <ele>383</ele>
        <time>2016-07-17T07:17:12.000Z</time>
      </trkpt>
      <trkpt lat="47.50082" lon="6.76017">
        <ele>383</ele>
        <time>2016-07-17T07:17:13.000Z</time>
      </trkpt>
      <trkpt lat="47.50083" lon="6.76021">
        <ele>384</ele>
        <time>2016-07-17T07:17:14.000Z</time>
      </trkpt>
      <trkpt lat="47.50084" lon="6.76024">
        <ele>380</ele>
        <time>2016-07-17T07:17:15.000Z</time>
      </trkpt>
      <trkpt lat="47.50085" lon="6.76028">
        <ele>380</ele>
        <time>2016-07-17T07:17:16.000Z</time>
      </trkpt>
      <trkpt lat="47.50086" lon="6.76032">
        <ele>380</ele>
        <time>2016-07-17T07:17:17.000Z</time>
      </trkpt>
      <trkpt lat="47.50087" lon="6.76036">
        <ele>380</ele>
        <time>2016-07-17T07:17:18.000Z</time>
      </trkpt>
      <trkpt lat="47.50087" lon="6.76041">
        <ele>381</ele>
        <time>2016-07-17T07:17:19.000Z</time>
      </trkpt>
      <trkpt lat="47.50088" lon="6.76045">
        <ele>381</ele>
        <time>2016-07-17T07:17:20.000Z</time>
      </trkpt>
      <trkpt lat="47.50088" lon="6.76049">
        <ele>381</ele>
        <time>2016-07-17T07:17:21.000Z</time>
      </trkpt>
      <trkpt lat="47.50088" lon="6.76053">
        <ele>382</ele>
        <time>2016-07-17T07:17:23.000Z</time>
      </trkpt>
      <trkpt lat="47.50088" lon="6.76056">
        <ele>382</ele>
        <time>2016-07-17T07:17:24.000Z</time>
      </trkpt>
      <trkpt lat="47.5009" lon="6.76061">
        <ele>383</ele>
        <time>2016-07-17T07:17:26.000Z</time>
      </trkpt>
      <trkpt lat="47.50091" lon="6.76064">
        <ele>383</ele>
        <time>2016-07-17T07:17:27.000Z</time>
      </trkpt>
      <trkpt lat="47.50091" lon="6.76068">
        <ele>384</ele>
        <time>2016-07-17T07:17:28.000Z</time>
      </trkpt>
      <trkpt lat="47.50092" lon="6.76072">
        <ele>384</ele>
        <time>2016-07-17T07:17:29.000Z</time>
      </trkpt>
      <trkpt lat="47.50093" lon="6.76075">
        <ele>385</ele>
        <time>2016-07-17T07:17:30.000Z</time>
      </trkpt>
      <trkpt lat="47.50093" lon="6.76078">
        <ele>385</ele>
        <time>2016-07-17T07:17:31.000Z</time>
      </trkpt>
      <trkpt lat="47.50094" lon="6.76084">
        <ele>387</ele>
        <time>2016-07-17T07:17:33.000Z</time>
      </trkpt>
      <trkpt lat="47.50094" lon="6.76087">
        <ele>387</ele>
        <time>2016-07-17T07:17:34.000Z</time>
      </trkpt>
      <trkpt lat="47.50095" lon="6.76093">
        <ele>387</ele>
        <time>2016-07-17T07:17:36.000Z</time>
      </trkpt>
      <trkpt lat="47.50095" lon="6.76096">
        <ele>387</ele>
        <time>2016-07-17T07:17:37.000Z</time>
      </trkpt>
      <trkpt lat="47.50095" lon="6.76103">
        <ele>386</ele>
        <time>2016-07-17T07:17:39.000Z</time>
      </trkpt>
      <trkpt lat="47.50095" lon="6.76106">
        <ele>386</ele>
        <time>2016-07-17T07:17:40.000Z</time>
      </trkpt>
      <trkpt lat="47.50095" lon="6.7611">
        <ele>386</ele>
        <time>2016-07-17T07:17:41.000Z</time>
      </trkpt>
      <trkpt lat="47.50095" lon="6.76114">
        <ele>386</ele>
        <time>2016-07-17T07:17:42.000Z</time>
      </trkpt>
      <trkpt lat="47.50095" lon="6.76118">
        <ele>386</ele>
        <time>2016-07-17T07:17:43.000Z</time>
      </trkpt>
      <trkpt lat="47.50096" lon="6.76122">
        <ele>386</ele>
        <time>2016-07-17T07:17:44.000Z</time>
      </trkpt>
      <trkpt lat="47.50096" lon="6.76127">
        <ele>387</ele>
        <time>2016-07-17T07:17:45.000Z</time>
      </trkpt>
      <trkpt lat="47.50097" lon="6.76131">
        <ele>387</ele>
        <time>2016-07-17T07:17:46.000Z</time>
      </trkpt>
      <trkpt lat="47.50098" lon="6.76134">
        <ele>387</ele>
        <time>2016-07-17T07:17:47.000Z</time>
      </trkpt>
      <trkpt lat="47.50099" lon="6.76138">
        <ele>387</ele>
        <time>2016-07-17T07:17:48.000Z</time>
      </trkpt>
      <trkpt lat="47.50101" lon="6.76141">
        <ele>387</ele>
        <time>2016-07-17T07:17:49.000Z</time>
      </trkpt>
      <trkpt lat="47.50103" lon="6.76146">
        <ele>388</ele>
        <time>2016-07-17T07:17:50.000Z</time>
      </trkpt>
      <trkpt lat="47.50104" lon="6.76151">
        <ele>388</ele>
        <time>2016-07-17T07:17:51.000Z</time>
      </trkpt>
      <trkpt lat="47.50106" lon="6.76156">
        <ele>388</ele>
        <time>2016-07-17T07:17:52.000Z</time>
      </trkpt>
      <trkpt lat="47.50107" lon="6.76161">
        <ele>388</ele>
        <time>2016-07-17T07:17:53.000Z</time>
      </trkpt>
      <trkpt lat="47.50109" lon="6.76166">
        <ele>388</ele>
        <time>2016-07-17T07:17:54.000Z</time>
      </trkpt>
      <trkpt lat="47.5011" lon="6.76171">
        <ele>391</ele>
        <time>2016-07-17T07:17:55.000Z</time>
      </trkpt>
      <trkpt lat="47.50111" lon="6.76175">
        <ele>391</ele>
        <time>2016-07-17T07:17:56.000Z</time>
      </trkpt>
      <trkpt lat="47.50112" lon="6.76179">
        <ele>391</ele>
        <time>2016-07-17T07:17:57.000Z</time>
      </trkpt>
      <trkpt lat="47.50113" lon="6.76183">
        <ele>391</ele>
        <time>2016-07-17T07:17:58.000Z</time>
      </trkpt>
      <trkpt lat="47.50113" lon="6.76187">
        <ele>391</ele>
        <time>2016-07-17T07:17:59.000Z</time>
      </trkpt>
      <trkpt lat="47.50113" lon="6.76191">
        <ele>391</ele>
        <time>2016-07-17T07:18:00.000Z</time>
      </trkpt>
      <trkpt lat="47.50114" lon="6.76195">
        <ele>391</ele>
        <time>2016-07-17T07:18:01.000Z</time>
      </trkpt>
      <trkpt lat="47.50114" lon="6.76199">
        <ele>391</ele>
        <time>2016-07-17T07:18:02.000Z</time>
      </trkpt>
      <trkpt lat="47.50114" lon="6.76203">
        <ele>391</ele>
        <time>2016-07-17T07:18:03.000Z</time>
      </trkpt>
      <trkpt lat="47.50115" lon="6.76206">
        <ele>391</ele>
        <time>2016-07-17T07:18:04.000Z</time>
      </trkpt>
      <trkpt lat="47.50114" lon="6.76211">
        <ele>392</ele>
        <time>2016-07-17T07:18:05.000Z</time>
      </trkpt>
      <trkpt lat="47.50113" lon="6.76217">
        <ele>392</ele>
        <time>2016-07-17T07:18:06.000Z</time>
      </trkpt>
      <trkpt lat="47.50113" lon="6.76222">
        <ele>393</ele>
        <time>2016-07-17T07:18:07.000Z</time>
      </trkpt>
      <trkpt lat="47.50112" lon="6.76227">
        <ele>393</ele>
        <time>2016-07-17T07:18:08.000Z</time>
      </trkpt>
      <trkpt lat="47.50113" lon="6.76232">
        <ele>393</ele>
        <time>2016-07-17T07:18:09.000Z</time>
      </trkpt>
      <trkpt lat="47.50114" lon="6.76237">
        <ele>393</ele>
        <time>2016-07-17T07:18:10.000Z</time>
      </trkpt>
      <trkpt lat="47.50116" lon="6.76241">
        <ele>393</ele>
        <time>2016-07-17T07:18:11.000Z</time>
      </trkpt>
      <trkpt lat="47.50117" lon="6.76245">
        <ele>393</ele>
        <time>2016-07-17T07:18:12.000Z</time>
      </trkpt>
      <trkpt lat="47.50119" lon="6.76249">
        <ele>393</ele>
        <time>2016-07-17T07:18:13.000Z</time>
      </trkpt>
      <trkpt lat="47.50121" lon="6.76253">
        <ele>397</ele>
        <time>2016-07-17T07:18:14.000Z</time>
      </trkpt>
      <trkpt lat="47.50122" lon="6.76257">
        <ele>397</ele>
        <time>2016-07-17T07:18:15.000Z</time>
      </trkpt>
      <trkpt lat="47.50124" lon="6.76261">
        <ele>397</ele>
        <time>2016-07-17T07:18:16.000Z</time>
      </trkpt>
      <trkpt lat="47.50125" lon="6.76266">
        <ele>397</ele>
        <time>2016-07-17T07:18:17.000Z</time>
      </trkpt>
      <trkpt lat="47.50126" lon="6.76271">
        <ele>397</ele>
        <time>2016-07-17T07:18:18.000Z</time>
      </trkpt>
      <trkpt lat="47.50126" lon="6.76275">
        <ele>397</ele>
        <time>2016-07-17T07:18:19.000Z</time>
      </trkpt>
      <trkpt lat="47.50127" lon="6.76279">
        <ele>397</ele>
        <time>2016-07-17T07:18:20.000Z</time>
      </trkpt>
      <trkpt lat="47.50129" lon="6.76283">
        <ele>397</ele>
        <time>2016-07-17T07:18:21.000Z</time>
      </trkpt>
      <trkpt lat="47.5013" lon="6.76286">
        <ele>397</ele>
        <time>2016-07-17T07:18:22.000Z</time>
      </trkpt>
      <trkpt lat="47.50132" lon="6.7629">
        <ele>396</ele>
        <time>2016-07-17T07:18:23.000Z</time>
      </trkpt>
      <trkpt lat="47.50133" lon="6.76294">
        <ele>396</ele>
        <time>2016-07-17T07:18:24.000Z</time>
      </trkpt>
      <trkpt lat="47.50134" lon="6.76298">
        <ele>396</ele>
        <time>2016-07-17T07:18:25.000Z</time>
      </trkpt>
      <trkpt lat="47.50135" lon="6.76302">
        <ele>396</ele>
        <time>2016-07-17T07:18:26.000Z</time>
      </trkpt>
      <trkpt lat="47.50136" lon="6.76306">
        <ele>396</ele>
        <time>2016-07-17T07:18:27.000Z</time>
      </trkpt>
      <trkpt lat="47.50137" lon="6.76309">
        <ele>396</ele>
        <time>2016-07-17T07:18:28.000Z</time>
      </trkpt>
      <trkpt lat="47.50138" lon="6.76313">
        <ele>396</ele>
        <time>2016-07-17T07:18:29.000Z</time>
      </trkpt>
      <trkpt lat="47.50138" lon="6.76316">
        <ele>396</ele>
        <time>2016-07-17T07:18:30.000Z</time>
      </trkpt>
      <trkpt lat="47.50139" lon="6.76319">
        <ele>396</ele>
        <time>2016-07-17T07:18:31.000Z</time>
      </trkpt>
      <trkpt lat="47.5014" lon="6.76322">
        <ele>396</ele>
        <time>2016-07-17T07:18:32.000Z</time>
      </trkpt>
      <trkpt lat="47.50141" lon="6.76325">
        <ele>396</ele>
        <time>2016-07-17T07:18:33.000Z</time>
      </trkpt>
      <trkpt lat="47.50143" lon="6.76329">
        <ele>396</ele>
        <time>2016-07-17T07:18:34.000Z</time>
      </trkpt>
      <trkpt lat="47.50145" lon="6.76332">
        <ele>395</ele>
        <time>2016-07-17T07:18:35.000Z</time>
      </trkpt>
      <trkpt lat="47.50146" lon="6.76335">
        <ele>398</ele>
        <time>2016-07-17T07:18:36.000Z</time>
      </trkpt>
      <trkpt lat="47.50147" lon="6.76339">
        <ele>398</ele>
        <time>2016-07-17T07:18:37.000Z</time>
      </trkpt>
      <trkpt lat="47.50148" lon="6.76343">
        <ele>398</ele>
        <time>2016-07-17T07:18:38.000Z</time>
      </trkpt>
      <trkpt lat="47.50149" lon="6.76348">
        <ele>398</ele>
        <time>2016-07-17T07:18:39.000Z</time>
      </trkpt>
      <trkpt lat="47.5015" lon="6.76352">
        <ele>399</ele>
        <time>2016-07-17T07:18:40.000Z</time>
      </trkpt>
      <trkpt lat="47.5015" lon="6.76357">
        <ele>399</ele>
        <time>2016-07-17T07:18:41.000Z</time>
      </trkpt>
      <trkpt lat="47.5015" lon="6.7636">
        <ele>399</ele>
        <time>2016-07-17T07:18:42.000Z</time>
      </trkpt>
      <trkpt lat="47.50151" lon="6.76364">
        <ele>400</ele>
        <time>2016-07-17T07:18:43.000Z</time>
      </trkpt>
      <trkpt lat="47.50152" lon="6.76367">
        <ele>400</ele>
        <time>2016-07-17T07:18:44.000Z</time>
      </trkpt>
      <trkpt lat="47.50152" lon="6.7637">
        <ele>400</ele>
        <time>2016-07-17T07:18:45.000Z</time>
      </trkpt>
      <trkpt lat="47.50154" lon="6.76374">
        <ele>400</ele>
        <time>2016-07-17T07:18:46.000Z</time>
      </trkpt>
      <trkpt lat="47.50155" lon="6.76377">
        <ele>400</ele>
        <time>2016-07-17T07:18:47.000Z</time>
      </trkpt>
      <trkpt lat="47.50156" lon="6.76381">
        <ele>401</ele>
        <time>2016-07-17T07:18:48.000Z</time>
      </trkpt>
      <trkpt lat="47.50157" lon="6.76385">
        <ele>401</ele>
        <time>2016-07-17T07:18:49.000Z</time>
      </trkpt>
      <trkpt lat="47.50158" lon="6.76388">
        <ele>401</ele>
        <time>2016-07-17T07:18:50.000Z</time>
      </trkpt>
      <trkpt lat="47.50159" lon="6.76391">
        <ele>401</ele>
        <time>2016-07-17T07:18:51.000Z</time>
      </trkpt>
      <trkpt lat="47.50161" lon="6.76395">
        <ele>401</ele>
        <time>2016-07-17T07:18:52.000Z</time>
      </trkpt>
      <trkpt lat="47.50162" lon="6.76397">
        <ele>401</ele>
        <time>2016-07-17T07:18:53.000Z</time>
      </trkpt>
      <trkpt lat="47.50164" lon="6.76401">
        <ele>400</ele>
        <time>2016-07-17T07:18:54.000Z</time>
      </trkpt>
      <trkpt lat="47.50165" lon="6.76404">
        <ele>400</ele>
        <time>2016-07-17T07:18:55.000Z</time>
      </trkpt>
      <trkpt lat="47.50166" lon="6.76407">
        <ele>400</ele>
        <time>2016-07-17T07:18:56.000Z</time>
      </trkpt>
      <trkpt lat="47.50168" lon="6.76411">
        <ele>397</ele>
        <time>2016-07-17T07:18:57.000Z</time>
      </trkpt>
      <trkpt lat="47.50169" lon="6.76415">
        <ele>398</ele>
        <time>2016-07-17T07:18:58.000Z</time>
      </trkpt>
      <trkpt lat="47.5017" lon="6.76419">
        <ele>398</ele>
        <time>2016-07-17T07:18:59.000Z</time>
      </trkpt>
      <trkpt lat="47.50172" lon="6.76423">
        <ele>398</ele>
        <time>2016-07-17T07:19:00.000Z</time>
      </trkpt>
      <trkpt lat="47.50173" lon="6.76428">
        <ele>398</ele>
        <time>2016-07-17T07:19:01.000Z</time>
      </trkpt>
      <trkpt lat="47.50175" lon="6.76432">
        <ele>397</ele>
        <time>2016-07-17T07:19:02.000Z</time>
      </trkpt>
      <trkpt lat="47.50177" lon="6.76436">
        <ele>397</ele>
        <time>2016-07-17T07:19:03.000Z</time>
      </trkpt>
      <trkpt lat="47.50179" lon="6.76442">
        <ele>397</ele>
        <time>2016-07-17T07:19:04.000Z</time>
      </trkpt>
      <trkpt lat="47.5018" lon="6.76447">
        <ele>397</ele>
        <time>2016-07-17T07:19:05.000Z</time>
      </trkpt>
      <trkpt lat="47.50182" lon="6.76452">
        <ele>397</ele>
        <time>2016-07-17T07:19:06.000Z</time>
      </trkpt>
      <trkpt lat="47.50184" lon="6.76458">
        <ele>397</ele>
        <time>2016-07-17T07:19:07.000Z</time>
      </trkpt>
      <trkpt lat="47.50186" lon="6.76462">
        <ele>397</ele>
        <time>2016-07-17T07:19:08.000Z</time>
      </trkpt>
      <trkpt lat="47.50187" lon="6.76466">
        <ele>397</ele>
        <time>2016-07-17T07:19:09.000Z</time>
      </trkpt>
      <trkpt lat="47.50189" lon="6.7647">
        <ele>398</ele>
        <time>2016-07-17T07:19:10.000Z</time>
      </trkpt>
      <trkpt lat="47.5019" lon="6.76473">
        <ele>398</ele>
        <time>2016-07-17T07:19:11.000Z</time>
      </trkpt>
      <trkpt lat="47.50192" lon="6.76476">
        <ele>398</ele>
        <time>2016-07-17T07:19:12.000Z</time>
      </trkpt>
      <trkpt lat="47.50193" lon="6.76479">
        <ele>398</ele>
        <time>2016-07-17T07:19:13.000Z</time>
      </trkpt>
      <trkpt lat="47.50195" lon="6.76482">
        <ele>398</ele>
        <time>2016-07-17T07:19:14.000Z</time>
      </trkpt>
      <trkpt lat="47.50196" lon="6.76486">
        <ele>398</ele>
        <time>2016-07-17T07:19:15.000Z</time>
      </trkpt>
      <trkpt lat="47.50197" lon="6.7649">
        <ele>398</ele>
        <time>2016-07-17T07:19:16.000Z</time>
      </trkpt>
      <trkpt lat="47.50198" lon="6.76493">
        <ele>398</ele>
        <time>2016-07-17T07:19:17.000Z</time>
      </trkpt>
      <trkpt lat="47.50199" lon="6.76496">
        <ele>398</ele>
        <time>2016-07-17T07:19:18.000Z</time>
      </trkpt>
      <trkpt lat="47.502" lon="6.76502">
        <ele>401</ele>
        <time>2016-07-17T07:19:20.000Z</time>
      </trkpt>
      <trkpt lat="47.50201" lon="6.76505">
        <ele>401</ele>
        <time>2016-07-17T07:19:21.000Z</time>
      </trkpt>
      <trkpt lat="47.50201" lon="6.76511">
        <ele>401</ele>
        <time>2016-07-17T07:19:23.000Z</time>
      </trkpt>
      <trkpt lat="47.50202" lon="6.76514">
        <ele>401</ele>
        <time>2016-07-17T07:19:24.000Z</time>
      </trkpt>
      <trkpt lat="47.50203" lon="6.76519">
        <ele>401</ele>
        <time>2016-07-17T07:19:26.000Z</time>
      </trkpt>
      <trkpt lat="47.50204" lon="6.76522">
        <ele>401</ele>
        <time>2016-07-17T07:19:27.000Z</time>
      </trkpt>
      <trkpt lat="47.50207" lon="6.76526">
        <ele>401</ele>
        <time>2016-07-17T07:19:29.000Z</time>
      </trkpt>
      <trkpt lat="47.50207" lon="6.76527">
        <ele>401</ele>
        <time>2016-07-17T07:19:30.000Z</time>
      </trkpt>
      <trkpt lat="47.50209" lon="6.76531">
        <ele>401</ele>
        <time>2016-07-17T07:19:32.000Z</time>
      </trkpt>
      <trkpt lat="47.50209" lon="6.76534">
        <ele>401</ele>
        <time>2016-07-17T07:19:33.000Z</time>
      </trkpt>
      <trkpt lat="47.5021" lon="6.76539">
        <ele>401</ele>
        <time>2016-07-17T07:19:35.000Z</time>
      </trkpt>
      <trkpt lat="47.50212" lon="6.76541">
        <ele>401</ele>
        <time>2016-07-17T07:19:36.000Z</time>
      </trkpt>
      <trkpt lat="47.50215" lon="6.76542">
        <ele>400</ele>
        <time>2016-07-17T07:19:38.000Z</time>
      </trkpt>
      <trkpt lat="47.50218" lon="6.76542">
        <ele>400</ele>
        <time>2016-07-17T07:19:39.000Z</time>
      </trkpt>
      <trkpt lat="47.5022" lon="6.76543">
        <ele>400</ele>
        <time>2016-07-17T07:19:40.000Z</time>
      </trkpt>
      <trkpt lat="47.50223" lon="6.76544">
        <ele>400</ele>
        <time>2016-07-17T07:19:41.000Z</time>
      </trkpt>
      <trkpt lat="47.50225" lon="6.76545">
        <ele>400</ele>
        <time>2016-07-17T07:19:42.000Z</time>
      </trkpt>
      <trkpt lat="47.50228" lon="6.76547">
        <ele>400</ele>
        <time>2016-07-17T07:19:43.000Z</time>
      </trkpt>
      <trkpt lat="47.50232" lon="6.76548">
        <ele>399</ele>
        <time>2016-07-17T07:19:45.000Z</time>
      </trkpt>
      <trkpt lat="47.50234" lon="6.76547">
        <ele>399</ele>
        <time>2016-07-17T07:19:46.000Z</time>
      </trkpt>
      <trkpt lat="47.50237" lon="6.76547">
        <ele>399</ele>
        <time>2016-07-17T07:19:47.000Z</time>
      </trkpt>
      <trkpt lat="47.5024" lon="6.76547">
        <ele>399</ele>
        <time>2016-07-17T07:19:48.000Z</time>
      </trkpt>
      <trkpt lat="47.50244" lon="6.76547">
        <ele>399</ele>
        <time>2016-07-17T07:19:49.000Z</time>
      </trkpt>
      <trkpt lat="47.50249" lon="6.76548">
        <ele>399</ele>
        <time>2016-07-17T07:19:50.000Z</time>
      </trkpt>
      <trkpt lat="47.50253" lon="6.76548">
        <ele>396</ele>
        <time>2016-07-17T07:19:51.000Z</time>
      </trkpt>
      <trkpt lat="47.50258" lon="6.76548">
        <ele>396</ele>
        <time>2016-07-17T07:19:52.000Z</time>
      </trkpt>
      <trkpt lat="47.50262" lon="6.76549">
        <ele>396</ele>
        <time>2016-07-17T07:19:53.000Z</time>
      </trkpt>
      <trkpt lat="47.50268" lon="6.76549">
        <ele>396</ele>
        <time>2016-07-17T07:19:54.000Z</time>
      </trkpt>
      <trkpt lat="47.50273" lon="6.76549">
        <ele>396</ele>
        <time>2016-07-17T07:19:55.000Z</time>
      </trkpt>
      <trkpt lat="47.50279" lon="6.76549">
        <ele>396</ele>
        <time>2016-07-17T07:19:56.000Z</time>
      </trkpt>
      <trkpt lat="47.50285" lon="6.76549">
        <ele>396</ele>
        <time>2016-07-17T07:19:57.000Z</time>
      </trkpt>
      <trkpt lat="47.5029" lon="6.76549">
        <ele>396</ele>
        <time>2016-07-17T07:19:58.000Z</time>
      </trkpt>
      <trkpt lat="47.50306" lon="6.76545">
        <ele>396</ele>
        <time>2016-07-17T07:19:59.000Z</time>
      </trkpt>
      <trkpt lat="47.50312" lon="6.76544">
        <ele>396</ele>
        <time>2016-07-17T07:20:00.000Z</time>
      </trkpt>
      <trkpt lat="47.50317" lon="6.76542">
        <ele>396</ele>
        <time>2016-07-17T07:20:01.000Z</time>
      </trkpt>
      <trkpt lat="47.50323" lon="6.76541">
        <ele>396</ele>
        <time>2016-07-17T07:20:02.000Z</time>
      </trkpt>
      <trkpt lat="47.50328" lon="6.76536">
        <ele>396</ele>
        <time>2016-07-17T07:20:03.000Z</time>
      </trkpt>
      <trkpt lat="47.50333" lon="6.76528">
        <ele>396</ele>
        <time>2016-07-17T07:20:04.000Z</time>
      </trkpt>
      <trkpt lat="47.50336" lon="6.76523">
        <ele>397</ele>
        <time>2016-07-17T07:20:05.000Z</time>
      </trkpt>
      <trkpt lat="47.50339" lon="6.76517">
        <ele>397</ele>
        <time>2016-07-17T07:20:06.000Z</time>
      </trkpt>
      <trkpt lat="47.50341" lon="6.76513">
        <ele>397</ele>
        <time>2016-07-17T07:20:07.000Z</time>
      </trkpt>
      <trkpt lat="47.50345" lon="6.76506">
        <ele>397</ele>
        <time>2016-07-17T07:20:08.000Z</time>
      </trkpt>
      <trkpt lat="47.50346" lon="6.765">
        <ele>397</ele>
        <time>2016-07-17T07:20:09.000Z</time>
      </trkpt>
      <trkpt lat="47.50348" lon="6.76496">
        <ele>397</ele>
        <time>2016-07-17T07:20:10.000Z</time>
      </trkpt>
      <trkpt lat="47.50349" lon="6.76491">
        <ele>397</ele>
        <time>2016-07-17T07:20:11.000Z</time>
      </trkpt>
      <trkpt lat="47.5035" lon="6.76487">
        <ele>397</ele>
        <time>2016-07-17T07:20:12.000Z</time>
      </trkpt>
      <trkpt lat="47.50352" lon="6.76477">
        <ele>396</ele>
        <time>2016-07-17T07:20:13.000Z</time>
      </trkpt>
      <trkpt lat="47.50353" lon="6.76471">
        <ele>396</ele>
        <time>2016-07-17T07:20:14.000Z</time>
      </trkpt>
      <trkpt lat="47.50354" lon="6.76465">
        <ele>396</ele>
        <time>2016-07-17T07:20:15.000Z</time>
      </trkpt>
      <trkpt lat="47.50353" lon="6.76457">
        <ele>396</ele>
        <time>2016-07-17T07:20:16.000Z</time>
      </trkpt>
      <trkpt lat="47.50353" lon="6.76449">
        <ele>396</ele>
        <time>2016-07-17T07:20:17.000Z</time>
      </trkpt>
      <trkpt lat="47.50353" lon="6.76443">
        <ele>396</ele>
        <time>2016-07-17T07:20:18.000Z</time>
      </trkpt>
      <trkpt lat="47.50355" lon="6.76439">
        <ele>395</ele>
        <time>2016-07-17T07:20:19.000Z</time>
      </trkpt>
      <trkpt lat="47.50356" lon="6.76434">
        <ele>395</ele>
        <time>2016-07-17T07:20:20.000Z</time>
      </trkpt>
      <trkpt lat="47.50358" lon="6.76431">
        <ele>395</ele>
        <time>2016-07-17T07:20:21.000Z</time>
      </trkpt>
      <trkpt lat="47.50361" lon="6.76426">
        <ele>395</ele>
        <time>2016-07-17T07:20:22.000Z</time>
      </trkpt>
      <trkpt lat="47.50363" lon="6.76421">
        <ele>395</ele>
        <time>2016-07-17T07:20:23.000Z</time>
      </trkpt>
      <trkpt lat="47.50365" lon="6.76417">
        <ele>395</ele>
        <time>2016-07-17T07:20:24.000Z</time>
      </trkpt>
      <trkpt lat="47.50367" lon="6.76414">
        <ele>394</ele>
        <time>2016-07-17T07:20:25.000Z</time>
      </trkpt>
      <trkpt lat="47.5037" lon="6.7641">
        <ele>394</ele>
        <time>2016-07-17T07:20:26.000Z</time>
      </trkpt>
      <trkpt lat="47.50371" lon="6.76407">
        <ele>395</ele>
        <time>2016-07-17T07:20:27.000Z</time>
      </trkpt>
      <trkpt lat="47.50372" lon="6.76404">
        <ele>395</ele>
        <time>2016-07-17T07:20:28.000Z</time>
      </trkpt>
      <trkpt lat="47.50374" lon="6.76398">
        <ele>395</ele>
        <time>2016-07-17T07:20:30.000Z</time>
      </trkpt>
      <trkpt lat="47.50374" lon="6.76395">
        <ele>395</ele>
        <time>2016-07-17T07:20:31.000Z</time>
      </trkpt>
      <trkpt lat="47.50376" lon="6.76389">
        <ele>395</ele>
        <time>2016-07-17T07:20:33.000Z</time>
      </trkpt>
      <trkpt lat="47.50376" lon="6.76386">
        <ele>395</ele>
        <time>2016-07-17T07:20:34.000Z</time>
      </trkpt>
      <trkpt lat="47.50377" lon="6.76382">
        <ele>395</ele>
        <time>2016-07-17T07:20:36.000Z</time>
      </trkpt>
      <trkpt lat="47.50378" lon="6.76379">
        <ele>395</ele>
        <time>2016-07-17T07:20:37.000Z</time>
      </trkpt>
      <trkpt lat="47.50379" lon="6.76376">
        <ele>395</ele>
        <time>2016-07-17T07:20:38.000Z</time>
      </trkpt>
      <trkpt lat="47.5038" lon="6.76373">
        <ele>395</ele>
        <time>2016-07-17T07:20:39.000Z</time>
      </trkpt>
      <trkpt lat="47.50382" lon="6.76368">
        <ele>395</ele>
        <time>2016-07-17T07:20:40.000Z</time>
      </trkpt>
      <trkpt lat="47.50384" lon="6.76363">
        <ele>395</ele>
        <time>2016-07-17T07:20:41.000Z</time>
      </trkpt>
      <trkpt lat="47.50385" lon="6.76358">
        <ele>395</ele>
        <time>2016-07-17T07:20:42.000Z</time>
      </trkpt>
      <trkpt lat="47.50386" lon="6.76353">
        <ele>395</ele>
        <time>2016-07-17T07:20:43.000Z</time>
      </trkpt>
      <trkpt lat="47.50388" lon="6.76348">
        <ele>395</ele>
        <time>2016-07-17T07:20:44.000Z</time>
      </trkpt>
      <trkpt lat="47.50389" lon="6.76343">
        <ele>395</ele>
        <time>2016-07-17T07:20:45.000Z</time>
      </trkpt>
      <trkpt lat="47.50391" lon="6.76338">
        <ele>395</ele>
        <time>2016-07-17T07:20:46.000Z</time>
      </trkpt>
      <trkpt lat="47.50393" lon="6.76333">
        <ele>396</ele>
        <time>2016-07-17T07:20:47.000Z</time>
      </trkpt>
      <trkpt lat="47.50395" lon="6.76329">
        <ele>396</ele>
        <time>2016-07-17T07:20:48.000Z</time>
      </trkpt>
      <trkpt lat="47.50397" lon="6.76326">
        <ele>396</ele>
        <time>2016-07-17T07:20:49.000Z</time>
      </trkpt>
      <trkpt lat="47.50399" lon="6.76323">
        <ele>396</ele>
        <time>2016-07-17T07:20:50.000Z</time>
      </trkpt>
      <trkpt lat="47.50402" lon="6.76321">
        <ele>396</ele>
        <time>2016-07-17T07:20:51.000Z</time>
      </trkpt>
      <trkpt lat="47.50404" lon="6.76318">
        <ele>396</ele>
        <time>2016-07-17T07:20:52.000Z</time>
      </trkpt>
      <trkpt lat="47.50407" lon="6.76316">
        <ele>396</ele>
        <time>2016-07-17T07:20:53.000Z</time>
      </trkpt>
      <trkpt lat="47.50409" lon="6.76313">
        <ele>396</ele>
        <time>2016-07-17T07:20:54.000Z</time>
      </trkpt>
      <trkpt lat="47.50411" lon="6.7631">
        <ele>396</ele>
        <time>2016-07-17T07:20:55.000Z</time>
      </trkpt>
      <trkpt lat="47.50413" lon="6.76307">
        <ele>396</ele>
        <time>2016-07-17T07:20:56.000Z</time>
      </trkpt>
      <trkpt lat="47.50415" lon="6.76305">
        <ele>396</ele>
        <time>2016-07-17T07:20:57.000Z</time>
      </trkpt>
      <trkpt lat="47.50416" lon="6.76302">
        <ele>396</ele>
        <time>2016-07-17T07:20:58.000Z</time>
      </trkpt>
      <trkpt lat="47.50418" lon="6.76299">
        <ele>401</ele>
        <time>2016-07-17T07:20:59.000Z</time>
      </trkpt>
      <trkpt lat="47.5042" lon="6.76293">
        <ele>401</ele>
        <time>2016-07-17T07:21:01.000Z</time>
      </trkpt>
      <trkpt lat="47.50421" lon="6.76291">
        <ele>401</ele>
        <time>2016-07-17T07:21:02.000Z</time>
      </trkpt>
      <trkpt lat="47.50422" lon="6.76285">
        <ele>401</ele>
        <time>2016-07-17T07:21:05.000Z</time>
      </trkpt>
      <trkpt lat="47.50422" lon="6.76284">
        <ele>401</ele>
        <time>2016-07-17T07:21:06.000Z</time>
      </trkpt>
      <trkpt lat="47.50424" lon="6.76279">
        <ele>401</ele>
        <time>2016-07-17T07:21:14.000Z</time>
      </trkpt>
      <trkpt lat="47.50425" lon="6.76278">
        <ele>401</ele>
        <time>2016-07-17T07:21:15.000Z</time>
      </trkpt>
      <trkpt lat="47.50427" lon="6.76274">
        <ele>401</ele>
        <time>2016-07-17T07:21:17.000Z</time>
      </trkpt>
      <trkpt lat="47.50428" lon="6.76273">
        <ele>401</ele>
        <time>2016-07-17T07:21:18.000Z</time>
      </trkpt>
      <trkpt lat="47.50431" lon="6.76269">
        <ele>401</ele>
        <time>2016-07-17T07:21:20.000Z</time>
      </trkpt>
      <trkpt lat="47.50432" lon="6.76268">
        <ele>401</ele>
        <time>2016-07-17T07:21:21.000Z</time>
      </trkpt>
      <trkpt lat="47.50435" lon="6.76262">
        <ele>402</ele>
        <time>2016-07-17T07:21:25.000Z</time>
      </trkpt>
      <trkpt lat="47.50435" lon="6.76261">
        <ele>402</ele>
        <time>2016-07-17T07:21:26.000Z</time>
      </trkpt>
      <trkpt lat="47.50437" lon="6.76256">
        <ele>402</ele>
        <time>2016-07-17T07:21:29.000Z</time>
      </trkpt>
      <trkpt lat="47.50438" lon="6.76254">
        <ele>402</ele>
        <time>2016-07-17T07:21:30.000Z</time>
      </trkpt>
      <trkpt lat="47.5044" lon="6.76251">
        <ele>402</ele>
        <time>2016-07-17T07:21:34.000Z</time>
      </trkpt>
      <trkpt lat="47.50441" lon="6.7625">
        <ele>402</ele>
        <time>2016-07-17T07:21:35.000Z</time>
      </trkpt>
      <trkpt lat="47.50444" lon="6.76247">
        <ele>404</ele>
        <time>2016-07-17T07:21:38.000Z</time>
      </trkpt>
      <trkpt lat="47.50445" lon="6.76246">
        <ele>404</ele>
        <time>2016-07-17T07:21:39.000Z</time>
      </trkpt>
      <trkpt lat="47.50447" lon="6.76241">
        <ele>404</ele>
        <time>2016-07-17T07:21:43.115Z</time>
      </trkpt>
      <trkpt lat="47.50447" lon="6.76239">
        <ele>404</ele>
        <time>2016-07-17T07:21:45.000Z</time>
      </trkpt>
      <trkpt lat="47.5045" lon="6.76235">
        <ele>404</ele>
        <time>2016-07-17T07:21:49.000Z</time>
      </trkpt>
      <trkpt lat="47.5045" lon="6.76234">
        <ele>404</ele>
        <time>2016-07-17T07:21:50.000Z</time>
      </trkpt>
      <trkpt lat="47.50454" lon="6.76231">
        <ele>405</ele>
        <time>2016-07-17T07:21:57.000Z</time>
      </trkpt>
      <trkpt lat="47.50455" lon="6.7623">
        <ele>405</ele>
        <time>2016-07-17T07:21:58.000Z</time>
      </trkpt>
      <trkpt lat="47.50458" lon="6.76229">
        <ele>405</ele>
        <time>2016-07-17T07:22:02.000Z</time>
      </trkpt>
      <trkpt lat="47.50459" lon="6.7623">
        <ele>405</ele>
        <time>2016-07-17T07:22:03.000Z</time>
      </trkpt>
      <trkpt lat="47.50463" lon="6.76231">
        <ele>405</ele>
        <time>2016-07-17T07:22:07.000Z</time>
      </trkpt>
      <trkpt lat="47.50464" lon="6.7623">
        <ele>405</ele>
        <time>2016-07-17T07:22:08.000Z</time>
      </trkpt>
      <trkpt lat="47.50468" lon="6.76229">
        <ele>405</ele>
        <time>2016-07-17T07:22:12.000Z</time>
      </trkpt>
      <trkpt lat="47.50469" lon="6.76229">
        <ele>405</ele>
        <time>2016-07-17T07:22:13.000Z</time>
      </trkpt>
      <trkpt lat="47.50472" lon="6.7623">
        <ele>405</ele>
        <time>2016-07-17T07:22:20.000Z</time>
      </trkpt>
      <trkpt lat="47.50473" lon="6.7623">
        <ele>405</ele>
        <time>2016-07-17T07:22:21.000Z</time>
      </trkpt>
      <trkpt lat="47.50477" lon="6.76228">
        <ele>406</ele>
        <time>2016-07-17T07:22:23.000Z</time>
      </trkpt>
      <trkpt lat="47.50479" lon="6.76228">
        <ele>406</ele>
        <time>2016-07-17T07:22:24.000Z</time>
      </trkpt>
      <trkpt lat="47.50482" lon="6.76227">
        <ele>406</ele>
        <time>2016-07-17T07:22:25.000Z</time>
      </trkpt>
      <trkpt lat="47.50484" lon="6.76225">
        <ele>406</ele>
        <time>2016-07-17T07:22:26.000Z</time>
      </trkpt>
      <trkpt lat="47.50486" lon="6.76223">
        <ele>406</ele>
        <time>2016-07-17T07:22:27.000Z</time>
      </trkpt>
      <trkpt lat="47.50488" lon="6.76221">
        <ele>406</ele>
        <time>2016-07-17T07:22:28.000Z</time>
      </trkpt>
      <trkpt lat="47.50491" lon="6.76218">
        <ele>406</ele>
        <time>2016-07-17T07:22:30.000Z</time>
      </trkpt>
      <trkpt lat="47.50494" lon="6.76217">
        <ele>406</ele>
        <time>2016-07-17T07:22:31.000Z</time>
      </trkpt>
      <trkpt lat="47.50496" lon="6.76217">
        <ele>406</ele>
        <time>2016-07-17T07:22:32.000Z</time>
      </trkpt>
      <trkpt lat="47.50498" lon="6.76216">
        <ele>406</ele>
        <time>2016-07-17T07:22:33.000Z</time>
      </trkpt>
      <trkpt lat="47.50502" lon="6.76215">
        <ele>406</ele>
        <time>2016-07-17T07:22:35.000Z</time>
      </trkpt>
      <trkpt lat="47.50503" lon="6.76215">
        <ele>406</ele>
        <time>2016-07-17T07:22:36.000Z</time>
      </trkpt>
      <trkpt lat="47.50507" lon="6.76217">
        <ele>406</ele>
        <time>2016-07-17T07:22:41.000Z</time>
      </trkpt>
      <trkpt lat="47.50509" lon="6.76217">
        <ele>406</ele>
        <time>2016-07-17T07:22:42.000Z</time>
      </trkpt>
      <trkpt lat="47.50512" lon="6.76218">
        <ele>406</ele>
        <time>2016-07-17T07:22:44.000Z</time>
      </trkpt>
      <trkpt lat="47.50514" lon="6.76219">
        <ele>406</ele>
        <time>2016-07-17T07:22:45.000Z</time>
      </trkpt>
      <trkpt lat="47.50516" lon="6.76219">
        <ele>406</ele>
        <time>2016-07-17T07:22:46.000Z</time>
      </trkpt>
      <trkpt lat="47.50519" lon="6.76219">
        <ele>406</ele>
        <time>2016-07-17T07:22:47.000Z</time>
      </trkpt>
      <trkpt lat="47.50523" lon="6.76218">
        <ele>406</ele>
        <time>2016-07-17T07:22:49.000Z</time>
      </trkpt>
      <trkpt lat="47.50525" lon="6.76217">
        <ele>406</ele>
        <time>2016-07-17T07:22:50.000Z</time>
      </trkpt>
      <trkpt lat="47.50529" lon="6.76214">
        <ele>406</ele>
        <time>2016-07-17T07:22:52.000Z</time>
      </trkpt>
      <trkpt lat="47.50531" lon="6.76214">
        <ele>406</ele>
        <time>2016-07-17T07:22:53.000Z</time>
      </trkpt>
      <trkpt lat="47.50535" lon="6.76215">
        <ele>406</ele>
        <time>2016-07-17T07:22:55.000Z</time>
      </trkpt>
      <trkpt lat="47.50537" lon="6.76215">
        <ele>406</ele>
        <time>2016-07-17T07:22:56.000Z</time>
      </trkpt>
      <trkpt lat="47.50541" lon="6.76216">
        <ele>405</ele>
        <time>2016-07-17T07:22:58.000Z</time>
      </trkpt>
      <trkpt lat="47.50544" lon="6.76216">
        <ele>405</ele>
        <time>2016-07-17T07:22:59.000Z</time>
      </trkpt>
      <trkpt lat="47.50548" lon="6.76216">
        <ele>405</ele>
        <time>2016-07-17T07:23:01.000Z</time>
      </trkpt>
      <trkpt lat="47.5055" lon="6.76216">
        <ele>405</ele>
        <time>2016-07-17T07:23:02.000Z</time>
      </trkpt>
      <trkpt lat="47.50553" lon="6.76215">
        <ele>405</ele>
        <time>2016-07-17T07:23:03.000Z</time>
      </trkpt>
      <trkpt lat="47.50555" lon="6.76215">
        <ele>405</ele>
        <time>2016-07-17T07:23:04.000Z</time>
      </trkpt>
      <trkpt lat="47.50558" lon="6.76214">
        <ele>405</ele>
        <time>2016-07-17T07:23:05.000Z</time>
      </trkpt>
      <trkpt lat="47.50561" lon="6.76212">
        <ele>405</ele>
        <time>2016-07-17T07:23:06.000Z</time>
      </trkpt>
      <trkpt lat="47.50563" lon="6.7621">
        <ele>405</ele>
        <time>2016-07-17T07:23:07.000Z</time>
      </trkpt>
      <trkpt lat="47.50564" lon="6.76208">
        <ele>405</ele>
        <time>2016-07-17T07:23:08.000Z</time>
      </trkpt>
      <trkpt lat="47.50566" lon="6.76204">
        <ele>405</ele>
        <time>2016-07-17T07:23:10.000Z</time>
      </trkpt>
      <trkpt lat="47.50567" lon="6.76202">
        <ele>405</ele>
        <time>2016-07-17T07:23:11.000Z</time>
      </trkpt>
      <trkpt lat="47.50568" lon="6.76195">
        <ele>405</ele>
        <time>2016-07-17T07:23:15.000Z</time>
      </trkpt>
      <trkpt lat="47.50568" lon="6.76195">
        <ele>405</ele>
        <time>2016-07-17T07:23:16.000Z</time>
      </trkpt>
      <trkpt lat="47.50571" lon="6.76191">
        <ele>405</ele>
        <time>2016-07-17T07:23:23.000Z</time>
      </trkpt>
      <trkpt lat="47.50572" lon="6.76191">
        <ele>405</ele>
        <time>2016-07-17T07:23:24.000Z</time>
      </trkpt>
      <trkpt lat="47.50575" lon="6.76188">
        <ele>405</ele>
        <time>2016-07-17T07:23:27.000Z</time>
      </trkpt>
      <trkpt lat="47.50576" lon="6.76185">
        <ele>405</ele>
        <time>2016-07-17T07:23:28.000Z</time>
      </trkpt>
      <trkpt lat="47.50579" lon="6.76181">
        <ele>405</ele>
        <time>2016-07-17T07:23:31.000Z</time>
      </trkpt>
      <trkpt lat="47.5058" lon="6.7618">
        <ele>405</ele>
        <time>2016-07-17T07:23:32.000Z</time>
      </trkpt>
      <trkpt lat="47.50583" lon="6.76181">
        <ele>405</ele>
        <time>2016-07-17T07:23:35.000Z</time>
      </trkpt>
      <trkpt lat="47.50584" lon="6.76181">
        <ele>402</ele>
        <time>2016-07-17T07:23:36.000Z</time>
      </trkpt>
      <trkpt lat="47.50589" lon="6.76181">
        <ele>402</ele>
        <time>2016-07-17T07:23:38.000Z</time>
      </trkpt>
      <trkpt lat="47.50592" lon="6.7618">
        <ele>402</ele>
        <time>2016-07-17T07:23:39.000Z</time>
      </trkpt>
      <trkpt lat="47.50596" lon="6.7618">
        <ele>401</ele>
        <time>2016-07-17T07:23:40.000Z</time>
      </trkpt>
      <trkpt lat="47.506" lon="6.7618">
        <ele>401</ele>
        <time>2016-07-17T07:23:41.000Z</time>
      </trkpt>
      <trkpt lat="47.50603" lon="6.7618">
        <ele>401</ele>
        <time>2016-07-17T07:23:42.000Z</time>
      </trkpt>
      <trkpt lat="47.50607" lon="6.7618">
        <ele>400</ele>
        <time>2016-07-17T07:23:43.000Z</time>
      </trkpt>
      <trkpt lat="47.5061" lon="6.76179">
        <ele>400</ele>
        <time>2016-07-17T07:23:44.000Z</time>
      </trkpt>
      <trkpt lat="47.50614" lon="6.76179">
        <ele>399</ele>
        <time>2016-07-17T07:23:45.000Z</time>
      </trkpt>
      <trkpt lat="47.50618" lon="6.76177">
        <ele>399</ele>
        <time>2016-07-17T07:23:46.000Z</time>
      </trkpt>
      <trkpt lat="47.50628" lon="6.76173">
        <ele>398</ele>
        <time>2016-07-17T07:23:47.000Z</time>
      </trkpt>
      <trkpt lat="47.50633" lon="6.76173">
        <ele>398</ele>
        <time>2016-07-17T07:23:48.000Z</time>
      </trkpt>
      <trkpt lat="47.50639" lon="6.76176">
        <ele>397</ele>
        <time>2016-07-17T07:23:49.000Z</time>
      </trkpt>
      <trkpt lat="47.50643" lon="6.7618">
        <ele>397</ele>
        <time>2016-07-17T07:23:50.000Z</time>
      </trkpt>
      <trkpt lat="47.50646" lon="6.76183">
        <ele>397</ele>
        <time>2016-07-17T07:23:51.000Z</time>
      </trkpt>
      <trkpt lat="47.50649" lon="6.76188">
        <ele>397</ele>
        <time>2016-07-17T07:23:52.000Z</time>
      </trkpt>
      <trkpt lat="47.50653" lon="6.7619">
        <ele>397</ele>
        <time>2016-07-17T07:23:53.000Z</time>
      </trkpt>
      <trkpt lat="47.50657" lon="6.76191">
        <ele>396</ele>
        <time>2016-07-17T07:23:54.000Z</time>
      </trkpt>
      <trkpt lat="47.50661" lon="6.76193">
        <ele>396</ele>
        <time>2016-07-17T07:23:56.000Z</time>
      </trkpt>
      <trkpt lat="47.50665" lon="6.76196">
        <ele>396</ele>
        <time>2016-07-17T07:23:57.000Z</time>
      </trkpt>
      <trkpt lat="47.50666" lon="6.76197">
        <ele>396</ele>
        <time>2016-07-17T07:23:58.000Z</time>
      </trkpt>
      <trkpt lat="47.50668" lon="6.76201">
        <ele>391</ele>
        <time>2016-07-17T07:23:59.000Z</time>
      </trkpt>
      <trkpt lat="47.50671" lon="6.76204">
        <ele>390</ele>
        <time>2016-07-17T07:24:00.000Z</time>
      </trkpt>
      <trkpt lat="47.50673" lon="6.76207">
        <ele>390</ele>
        <time>2016-07-17T07:24:01.000Z</time>
      </trkpt>
      <trkpt lat="47.50675" lon="6.7621">
        <ele>390</ele>
        <time>2016-07-17T07:24:02.000Z</time>
      </trkpt>
      <trkpt lat="47.50677" lon="6.76212">
        <ele>390</ele>
        <time>2016-07-17T07:24:03.000Z</time>
      </trkpt>
      <trkpt lat="47.50679" lon="6.76214">
        <ele>390</ele>
        <time>2016-07-17T07:24:04.000Z</time>
      </trkpt>
      <trkpt lat="47.50682" lon="6.76215">
        <ele>390</ele>
        <time>2016-07-17T07:24:05.000Z</time>
      </trkpt>
      <trkpt lat="47.50686" lon="6.76215">
        <ele>389</ele>
        <time>2016-07-17T07:24:07.000Z</time>
      </trkpt>
      <trkpt lat="47.50688" lon="6.76216">
        <ele>389</ele>
        <time>2016-07-17T07:24:08.000Z</time>
      </trkpt>
      <trkpt lat="47.5069" lon="6.76217">
        <ele>389</ele>
        <time>2016-07-17T07:24:09.000Z</time>
      </trkpt>
      <trkpt lat="47.50693" lon="6.76219">
        <ele>389</ele>
        <time>2016-07-17T07:24:10.000Z</time>
      </trkpt>
      <trkpt lat="47.50697" lon="6.76219">
        <ele>389</ele>
        <time>2016-07-17T07:24:12.000Z</time>
      </trkpt>
      <trkpt lat="47.50698" lon="6.76218">
        <ele>389</ele>
        <time>2016-07-17T07:24:13.000Z</time>
      </trkpt>
      <trkpt lat="47.50703" lon="6.76219">
        <ele>389</ele>
        <time>2016-07-17T07:24:24.000Z</time>
      </trkpt>
      <trkpt lat="47.50703" lon="6.76219">
        <ele>389</ele>
        <time>2016-07-17T07:24:25.000Z</time>
      </trkpt>
      <trkpt lat="47.50704" lon="6.76214">
        <ele>389</ele>
        <time>2016-07-17T07:24:40.000Z</time>
      </trkpt>
      <trkpt lat="47.50704" lon="6.7621">
        <ele>389</ele>
        <time>2016-07-17T07:24:41.000Z</time>
      </trkpt>
      <trkpt lat="47.50704" lon="6.76205">
        <ele>389</ele>
        <time>2016-07-17T07:24:42.000Z</time>
      </trkpt>
      <trkpt lat="47.50704" lon="6.762">
        <ele>389</ele>
        <time>2016-07-17T07:24:43.000Z</time>
      </trkpt>
      <trkpt lat="47.50704" lon="6.76196">
        <ele>389</ele>
        <time>2016-07-17T07:24:43.999Z</time>
      </trkpt>
      <trkpt lat="47.50704" lon="6.76191">
        <ele>389</ele>
        <time>2016-07-17T07:24:45.000Z</time>
      </trkpt>
      <trkpt lat="47.50704" lon="6.76186">
        <ele>389</ele>
        <time>2016-07-17T07:24:46.000Z</time>
      </trkpt>
      <trkpt lat="47.50705" lon="6.7618">
        <ele>390</ele>
        <time>2016-07-17T07:24:47.000Z</time>
      </trkpt>
      <trkpt lat="47.50706" lon="6.76174">
        <ele>390</ele>
        <time>2016-07-17T07:24:48.000Z</time>
      </trkpt>
      <trkpt lat="47.50707" lon="6.76167">
        <ele>390</ele>
        <time>2016-07-17T07:24:49.000Z</time>
      </trkpt>
      <trkpt lat="47.50709" lon="6.7616">
        <ele>390</ele>
        <time>2016-07-17T07:24:50.000Z</time>
      </trkpt>
      <trkpt lat="47.50714" lon="6.76149">
        <ele>389</ele>
        <time>2016-07-17T07:24:52.000Z</time>
      </trkpt>
      <trkpt lat="47.50717" lon="6.76144">
        <ele>389</ele>
        <time>2016-07-17T07:24:53.000Z</time>
      </trkpt>
      <trkpt lat="47.5072" lon="6.76141">
        <ele>389</ele>
        <time>2016-07-17T07:24:54.000Z</time>
      </trkpt>
      <trkpt lat="47.50723" lon="6.76137">
        <ele>389</ele>
        <time>2016-07-17T07:24:55.000Z</time>
      </trkpt>
      <trkpt lat="47.50725" lon="6.76133">
        <ele>389</ele>
        <time>2016-07-17T07:24:56.001Z</time>
      </trkpt>
      <trkpt lat="47.50728" lon="6.76128">
        <ele>388</ele>
        <time>2016-07-17T07:24:58.000Z</time>
      </trkpt>
      <trkpt lat="47.50729" lon="6.76126">
        <ele>388</ele>
        <time>2016-07-17T07:24:59.000Z</time>
      </trkpt>
      <trkpt lat="47.50731" lon="6.76124">
        <ele>388</ele>
        <time>2016-07-17T07:25:01.000Z</time>
      </trkpt>
      <trkpt lat="47.50734" lon="6.76123">
        <ele>388</ele>
        <time>2016-07-17T07:25:02.000Z</time>
      </trkpt>
      <trkpt lat="47.50738" lon="6.76121">
        <ele>388</ele>
        <time>2016-07-17T07:25:04.000Z</time>
      </trkpt>
      <trkpt lat="47.50739" lon="6.7612">
        <ele>388</ele>
        <time>2016-07-17T07:25:05.000Z</time>
      </trkpt>
      <trkpt lat="47.50742" lon="6.76119">
        <ele>388</ele>
        <time>2016-07-17T07:25:06.000Z</time>
      </trkpt>
      <trkpt lat="47.50744" lon="6.76118">
        <ele>388</ele>
        <time>2016-07-17T07:25:07.000Z</time>
      </trkpt>
      <trkpt lat="47.50746" lon="6.76116">
        <ele>387</ele>
        <time>2016-07-17T07:25:08.000Z</time>
      </trkpt>
      <trkpt lat="47.50749" lon="6.76113">
        <ele>387</ele>
        <time>2016-07-17T07:25:09.000Z</time>
      </trkpt>
      <trkpt lat="47.5075" lon="6.76109">
        <ele>387</ele>
        <time>2016-07-17T07:25:10.000Z</time>
      </trkpt>
      <trkpt lat="47.50751" lon="6.76105">
        <ele>388</ele>
        <time>2016-07-17T07:25:11.000Z</time>
      </trkpt>
      <trkpt lat="47.50753" lon="6.76102">
        <ele>387</ele>
        <time>2016-07-17T07:25:12.000Z</time>
      </trkpt>
      <trkpt lat="47.50754" lon="6.76099">
        <ele>387</ele>
        <time>2016-07-17T07:25:13.000Z</time>
      </trkpt>
      <trkpt lat="47.50756" lon="6.76095">
        <ele>387</ele>
        <time>2016-07-17T07:25:14.000Z</time>
      </trkpt>
      <trkpt lat="47.50758" lon="6.7609">
        <ele>386</ele>
        <time>2016-07-17T07:25:15.000Z</time>
      </trkpt>
      <trkpt lat="47.50759" lon="6.76085">
        <ele>386</ele>
        <time>2016-07-17T07:25:16.000Z</time>
      </trkpt>
      <trkpt lat="47.5076" lon="6.76081">
        <ele>385</ele>
        <time>2016-07-17T07:25:17.000Z</time>
      </trkpt>
      <trkpt lat="47.50761" lon="6.76076">
        <ele>386</ele>
        <time>2016-07-17T07:25:18.000Z</time>
      </trkpt>
      <trkpt lat="47.50762" lon="6.76072">
        <ele>386</ele>
        <time>2016-07-17T07:25:19.000Z</time>
      </trkpt>
      <trkpt lat="47.50763" lon="6.76068">
        <ele>386</ele>
        <time>2016-07-17T07:25:20.000Z</time>
      </trkpt>
      <trkpt lat="47.50764" lon="6.76064">
        <ele>386</ele>
        <time>2016-07-17T07:25:21.000Z</time>
      </trkpt>
      <trkpt lat="47.50765" lon="6.76061">
        <ele>387</ele>
        <time>2016-07-17T07:25:22.000Z</time>
      </trkpt>
      <trkpt lat="47.50767" lon="6.76057">
        <ele>387</ele>
        <time>2016-07-17T07:25:23.000Z</time>
      </trkpt>
      <trkpt lat="47.50768" lon="6.76053">
        <ele>387</ele>
        <time>2016-07-17T07:25:24.000Z</time>
      </trkpt>
      <trkpt lat="47.5077" lon="6.7605">
        <ele>387</ele>
        <time>2016-07-17T07:25:25.000Z</time>
      </trkpt>
      <trkpt lat="47.50772" lon="6.76044">
        <ele>387</ele>
        <time>2016-07-17T07:25:27.000Z</time>
      </trkpt>
      <trkpt lat="47.50773" lon="6.76042">
        <ele>387</ele>
        <time>2016-07-17T07:25:28.000Z</time>
      </trkpt>
      <trkpt lat="47.50776" lon="6.76039">
        <ele>387</ele>
        <time>2016-07-17T07:25:30.000Z</time>
      </trkpt>
      <trkpt lat="47.50778" lon="6.76037">
        <ele>387</ele>
        <time>2016-07-17T07:25:31.000Z</time>
      </trkpt>
      <trkpt lat="47.50781" lon="6.76035">
        <ele>387</ele>
        <time>2016-07-17T07:25:33.000Z</time>
      </trkpt>
      <trkpt lat="47.50783" lon="6.76035">
        <ele>387</ele>
        <time>2016-07-17T07:25:34.000Z</time>
      </trkpt>
      <trkpt lat="47.50786" lon="6.76034">
        <ele>387</ele>
        <time>2016-07-17T07:25:36.000Z</time>
      </trkpt>
      <trkpt lat="47.50788" lon="6.76033">
        <ele>388</ele>
        <time>2016-07-17T07:25:37.000Z</time>
      </trkpt>
      <trkpt lat="47.50792" lon="6.76032">
        <ele>388</ele>
        <time>2016-07-17T07:25:40.000Z</time>
      </trkpt>
      <trkpt lat="47.50793" lon="6.76032">
        <ele>388</ele>
        <time>2016-07-17T07:25:41.000Z</time>
      </trkpt>
      <trkpt lat="47.50797" lon="6.7603">
        <ele>388</ele>
        <time>2016-07-17T07:25:44.000Z</time>
      </trkpt>
      <trkpt lat="47.50798" lon="6.76029">
        <ele>388</ele>
        <time>2016-07-17T07:25:45.000Z</time>
      </trkpt>
      <trkpt lat="47.50801" lon="6.76025">
        <ele>388</ele>
        <time>2016-07-17T07:25:48.000Z</time>
      </trkpt>
      <trkpt lat="47.50801" lon="6.76025">
        <ele>388</ele>
        <time>2016-07-17T07:25:49.000Z</time>
      </trkpt>
      <trkpt lat="47.50803" lon="6.76022">
        <ele>388</ele>
        <time>2016-07-17T07:25:50.000Z</time>
      </trkpt>
      <trkpt lat="47.50805" lon="6.76016">
        <ele>388</ele>
        <time>2016-07-17T07:25:52.000Z</time>
      </trkpt>
      <trkpt lat="47.50806" lon="6.76011">
        <ele>388</ele>
        <time>2016-07-17T07:25:53.000Z</time>
      </trkpt>
      <trkpt lat="47.50806" lon="6.76006">
        <ele>389</ele>
        <time>2016-07-17T07:25:54.000Z</time>
      </trkpt>
      <trkpt lat="47.50806" lon="6.76001">
        <ele>388</ele>
        <time>2016-07-17T07:25:55.000Z</time>
      </trkpt>
      <trkpt lat="47.50805" lon="6.75997">
        <ele>387</ele>
        <time>2016-07-17T07:25:56.000Z</time>
      </trkpt>
      <trkpt lat="47.50803" lon="6.75993">
        <ele>387</ele>
        <time>2016-07-17T07:25:57.000Z</time>
      </trkpt>
      <trkpt lat="47.50802" lon="6.75989">
        <ele>387</ele>
        <time>2016-07-17T07:25:58.000Z</time>
      </trkpt>
      <trkpt lat="47.50802" lon="6.75984">
        <ele>387</ele>
        <time>2016-07-17T07:25:59.000Z</time>
      </trkpt>
      <trkpt lat="47.50803" lon="6.7598">
        <ele>386</ele>
        <time>2016-07-17T07:26:00.000Z</time>
      </trkpt>
      <trkpt lat="47.50804" lon="6.75975">
        <ele>386</ele>
        <time>2016-07-17T07:26:01.000Z</time>
      </trkpt>
      <trkpt lat="47.50805" lon="6.7597">
        <ele>387</ele>
        <time>2016-07-17T07:26:02.000Z</time>
      </trkpt>
      <trkpt lat="47.50807" lon="6.75964">
        <ele>387</ele>
        <time>2016-07-17T07:26:03.000Z</time>
      </trkpt>
      <trkpt lat="47.50809" lon="6.75959">
        <ele>387</ele>
        <time>2016-07-17T07:26:04.000Z</time>
      </trkpt>
      <trkpt lat="47.50811" lon="6.75953">
        <ele>387</ele>
        <time>2016-07-17T07:26:05.000Z</time>
      </trkpt>
      <trkpt lat="47.50813" lon="6.75948">
        <ele>387</ele>
        <time>2016-07-17T07:26:06.000Z</time>
      </trkpt>
      <trkpt lat="47.50814" lon="6.75942">
        <ele>387</ele>
        <time>2016-07-17T07:26:07.000Z</time>
      </trkpt>
      <trkpt lat="47.50815" lon="6.75936">
        <ele>388</ele>
        <time>2016-07-17T07:26:08.000Z</time>
      </trkpt>
      <trkpt lat="47.50817" lon="6.75931">
        <ele>388</ele>
        <time>2016-07-17T07:26:09.000Z</time>
      </trkpt>
      <trkpt lat="47.50818" lon="6.75925">
        <ele>389</ele>
        <time>2016-07-17T07:26:10.000Z</time>
      </trkpt>
      <trkpt lat="47.5082" lon="6.75919">
        <ele>389</ele>
        <time>2016-07-17T07:26:11.000Z</time>
      </trkpt>
      <trkpt lat="47.50821" lon="6.75914">
        <ele>389</ele>
        <time>2016-07-17T07:26:12.000Z</time>
      </trkpt>
      <trkpt lat="47.50821" lon="6.75908">
        <ele>388</ele>
        <time>2016-07-17T07:26:13.000Z</time>
      </trkpt>
      <trkpt lat="47.50821" lon="6.75902">
        <ele>388</ele>
        <time>2016-07-17T07:26:14.000Z</time>
      </trkpt>
      <trkpt lat="47.5082" lon="6.75896">
        <ele>387</ele>
        <time>2016-07-17T07:26:15.000Z</time>
      </trkpt>
      <trkpt lat="47.5082" lon="6.75889">
        <ele>386</ele>
        <time>2016-07-17T07:26:16.000Z</time>
      </trkpt>
      <trkpt lat="47.5082" lon="6.75882">
        <ele>386</ele>
        <time>2016-07-17T07:26:17.000Z</time>
      </trkpt>
      <trkpt lat="47.50819" lon="6.75874">
        <ele>386</ele>
        <time>2016-07-17T07:26:18.000Z</time>
      </trkpt>
      <trkpt lat="47.50819" lon="6.75867">
        <ele>386</ele>
        <time>2016-07-17T07:26:19.000Z</time>
      </trkpt>
      <trkpt lat="47.50821" lon="6.7586">
        <ele>386</ele>
        <time>2016-07-17T07:26:20.000Z</time>
      </trkpt>
      <trkpt lat="47.50821" lon="6.75851">
        <ele>387</ele>
        <time>2016-07-17T07:26:21.000Z</time>
      </trkpt>
      <trkpt lat="47.50821" lon="6.75834">
        <ele>389</ele>
        <time>2016-07-17T07:26:22.000Z</time>
      </trkpt>
      <trkpt lat="47.50821" lon="6.75828">
        <ele>386</ele>
        <time>2016-07-17T07:26:23.000Z</time>
      </trkpt>
      <trkpt lat="47.5082" lon="6.75821">
        <ele>385</ele>
        <time>2016-07-17T07:26:24.000Z</time>
      </trkpt>
      <trkpt lat="47.5082" lon="6.75816">
        <ele>384</ele>
        <time>2016-07-17T07:26:25.000Z</time>
      </trkpt>
      <trkpt lat="47.50821" lon="6.75811">
        <ele>384</ele>
        <time>2016-07-17T07:26:26.000Z</time>
      </trkpt>
      <trkpt lat="47.5082" lon="6.75805">
        <ele>383</ele>
        <time>2016-07-17T07:26:27.000Z</time>
      </trkpt>
      <trkpt lat="47.50822" lon="6.75799">
        <ele>382</ele>
        <time>2016-07-17T07:26:28.000Z</time>
      </trkpt>
      <trkpt lat="47.50825" lon="6.75794">
        <ele>382</ele>
        <time>2016-07-17T07:26:29.000Z</time>
      </trkpt>
      <trkpt lat="47.50824" lon="6.75791">
        <ele>382</ele>
        <time>2016-07-17T07:26:30.000Z</time>
      </trkpt>
      <trkpt lat="47.50828" lon="6.75792">
        <ele>382</ele>
        <time>2016-07-17T07:26:39.000Z</time>
      </trkpt>
      <trkpt lat="47.50829" lon="6.75792">
        <ele>382</ele>
        <time>2016-07-17T07:26:40.000Z</time>
      </trkpt>
      <trkpt lat="47.50833" lon="6.75795">
        <ele>383</ele>
        <time>2016-07-17T07:26:42.000Z</time>
      </trkpt>
      <trkpt lat="47.50834" lon="6.75797">
        <ele>392</ele>
        <time>2016-07-17T07:26:43.000Z</time>
      </trkpt>
      <trkpt lat="47.50837" lon="6.758">
        <ele>392</ele>
        <time>2016-07-17T07:26:45.000Z</time>
      </trkpt>
      <trkpt lat="47.50838" lon="6.75802">
        <ele>392</ele>
        <time>2016-07-17T07:26:46.000Z</time>
      </trkpt>
      <trkpt lat="47.50842" lon="6.75802">
        <ele>392</ele>
        <time>2016-07-17T07:26:48.000Z</time>
      </trkpt>
      <trkpt lat="47.50845" lon="6.75803">
        <ele>392</ele>
        <time>2016-07-17T07:26:49.000Z</time>
      </trkpt>
      <trkpt lat="47.50847" lon="6.75803">
        <ele>392</ele>
        <time>2016-07-17T07:26:50.000Z</time>
      </trkpt>
      <trkpt lat="47.5085" lon="6.75803">
        <ele>392</ele>
        <time>2016-07-17T07:26:51.000Z</time>
      </trkpt>
      <trkpt lat="47.50854" lon="6.75803">
        <ele>393</ele>
        <time>2016-07-17T07:26:53.000Z</time>
      </trkpt>
      <trkpt lat="47.50856" lon="6.75804">
        <ele>393</ele>
        <time>2016-07-17T07:26:54.000Z</time>
      </trkpt>
      <trkpt lat="47.50859" lon="6.75804">
        <ele>393</ele>
        <time>2016-07-17T07:26:56.000Z</time>
      </trkpt>
      <trkpt lat="47.50861" lon="6.75805">
        <ele>393</ele>
        <time>2016-07-17T07:26:57.000Z</time>
      </trkpt>
      <trkpt lat="47.50862" lon="6.75806">
        <ele>393</ele>
        <time>2016-07-17T07:26:58.000Z</time>
      </trkpt>
      <trkpt lat="47.50865" lon="6.75807">
        <ele>393</ele>
        <time>2016-07-17T07:26:59.000Z</time>
      </trkpt>
      <trkpt lat="47.50867" lon="6.75809">
        <ele>393</ele>
        <time>2016-07-17T07:27:00.000Z</time>
      </trkpt>
      <trkpt lat="47.5087" lon="6.7581">
        <ele>394</ele>
        <time>2016-07-17T07:27:01.000Z</time>
      </trkpt>
      <trkpt lat="47.50872" lon="6.75812">
        <ele>394</ele>
        <time>2016-07-17T07:27:02.000Z</time>
      </trkpt>
      <trkpt lat="47.50874" lon="6.75814">
        <ele>394</ele>
        <time>2016-07-17T07:27:03.000Z</time>
      </trkpt>
      <trkpt lat="47.50878" lon="6.75816">
        <ele>394</ele>
        <time>2016-07-17T07:27:05.000Z</time>
      </trkpt>
      <trkpt lat="47.5088" lon="6.75816">
        <ele>394</ele>
        <time>2016-07-17T07:27:06.000Z</time>
      </trkpt>
      <trkpt lat="47.50882" lon="6.75818">
        <ele>395</ele>
        <time>2016-07-17T07:27:07.000Z</time>
      </trkpt>
      <trkpt lat="47.50884" lon="6.75819">
        <ele>395</ele>
        <time>2016-07-17T07:27:08.000Z</time>
      </trkpt>
      <trkpt lat="47.50887" lon="6.75821">
        <ele>395</ele>
        <time>2016-07-17T07:27:10.000Z</time>
      </trkpt>
      <trkpt lat="47.50889" lon="6.75823">
        <ele>395</ele>
        <time>2016-07-17T07:27:11.000Z</time>
      </trkpt>
      <trkpt lat="47.50891" lon="6.75823">
        <ele>395</ele>
        <time>2016-07-17T07:27:12.000Z</time>
      </trkpt>
      <trkpt lat="47.50893" lon="6.75825">
        <ele>396</ele>
        <time>2016-07-17T07:27:13.000Z</time>
      </trkpt>
      <trkpt lat="47.50896" lon="6.75826">
        <ele>396</ele>
        <time>2016-07-17T07:27:14.000Z</time>
      </trkpt>
      <trkpt lat="47.50899" lon="6.75828">
        <ele>396</ele>
        <time>2016-07-17T07:27:15.000Z</time>
      </trkpt>
      <trkpt lat="47.50902" lon="6.7583">
        <ele>397</ele>
        <time>2016-07-17T07:27:16.000Z</time>
      </trkpt>
      <trkpt lat="47.50905" lon="6.75831">
        <ele>397</ele>
        <time>2016-07-17T07:27:17.000Z</time>
      </trkpt>
      <trkpt lat="47.50908" lon="6.75832">
        <ele>398</ele>
        <time>2016-07-17T07:27:18.000Z</time>
      </trkpt>
      <trkpt lat="47.5091" lon="6.75834">
        <ele>399</ele>
        <time>2016-07-17T07:27:19.000Z</time>
      </trkpt>
      <trkpt lat="47.50914" lon="6.75837">
        <ele>399</ele>
        <time>2016-07-17T07:27:20.000Z</time>
      </trkpt>
      <trkpt lat="47.50917" lon="6.75839">
        <ele>400</ele>
        <time>2016-07-17T07:27:21.000Z</time>
      </trkpt>
      <trkpt lat="47.50921" lon="6.7584">
        <ele>400</ele>
        <time>2016-07-17T07:27:22.000Z</time>
      </trkpt>
      <trkpt lat="47.50925" lon="6.7584">
        <ele>399</ele>
        <time>2016-07-17T07:27:23.000Z</time>
      </trkpt>
      <trkpt lat="47.50929" lon="6.7584">
        <ele>399</ele>
        <time>2016-07-17T07:27:24.000Z</time>
      </trkpt>
      <trkpt lat="47.50932" lon="6.75841">
        <ele>399</ele>
        <time>2016-07-17T07:27:25.000Z</time>
      </trkpt>
      <trkpt lat="47.50936" lon="6.75843">
        <ele>399</ele>
        <time>2016-07-17T07:27:26.000Z</time>
      </trkpt>
      <trkpt lat="47.50939" lon="6.75844">
        <ele>399</ele>
        <time>2016-07-17T07:27:27.000Z</time>
      </trkpt>
      <trkpt lat="47.50943" lon="6.75846">
        <ele>399</ele>
        <time>2016-07-17T07:27:28.000Z</time>
      </trkpt>
      <trkpt lat="47.50946" lon="6.75847">
        <ele>398</ele>
        <time>2016-07-17T07:27:29.000Z</time>
      </trkpt>
      <trkpt lat="47.5095" lon="6.75848">
        <ele>398</ele>
        <time>2016-07-17T07:27:30.000Z</time>
      </trkpt>
      <trkpt lat="47.50953" lon="6.75849">
        <ele>398</ele>
        <time>2016-07-17T07:27:31.000Z</time>
      </trkpt>
      <trkpt lat="47.50957" lon="6.7585">
        <ele>398</ele>
        <time>2016-07-17T07:27:32.000Z</time>
      </trkpt>
      <trkpt lat="47.50961" lon="6.75852">
        <ele>398</ele>
        <time>2016-07-17T07:27:33.000Z</time>
      </trkpt>
      <trkpt lat="47.50965" lon="6.75853">
        <ele>398</ele>
        <time>2016-07-17T07:27:34.000Z</time>
      </trkpt>
      <trkpt lat="47.50969" lon="6.75854">
        <ele>398</ele>
        <time>2016-07-17T07:27:35.000Z</time>
      </trkpt>
      <trkpt lat="47.50972" lon="6.75855">
        <ele>398</ele>
        <time>2016-07-17T07:27:36.000Z</time>
      </trkpt>
      <trkpt lat="47.50975" lon="6.75855">
        <ele>398</ele>
        <time>2016-07-17T07:27:37.000Z</time>
      </trkpt>
      <trkpt lat="47.50978" lon="6.75854">
        <ele>397</ele>
        <time>2016-07-17T07:27:38.000Z</time>
      </trkpt>
      <trkpt lat="47.50981" lon="6.75855">
        <ele>397</ele>
        <time>2016-07-17T07:27:39.000Z</time>
      </trkpt>
      <trkpt lat="47.50986" lon="6.75855">
        <ele>397</ele>
        <time>2016-07-17T07:27:40.000Z</time>
      </trkpt>
      <trkpt lat="47.50998" lon="6.7585">
        <ele>397</ele>
        <time>2016-07-17T07:27:41.000Z</time>
      </trkpt>
      <trkpt lat="47.51003" lon="6.75849">
        <ele>392</ele>
        <time>2016-07-17T07:27:42.000Z</time>
      </trkpt>
      <trkpt lat="47.51008" lon="6.75849">
        <ele>392</ele>
        <time>2016-07-17T07:27:43.000Z</time>
      </trkpt>
      <trkpt lat="47.51012" lon="6.7585">
        <ele>391</ele>
        <time>2016-07-17T07:27:46.000Z</time>
      </trkpt>
      <trkpt lat="47.51014" lon="6.75849">
        <ele>391</ele>
        <time>2016-07-17T07:27:47.000Z</time>
      </trkpt>
      <trkpt lat="47.51018" lon="6.75848">
        <ele>391</ele>
        <time>2016-07-17T07:27:48.000Z</time>
      </trkpt>
      <trkpt lat="47.51022" lon="6.75843">
        <ele>390</ele>
        <time>2016-07-17T07:27:49.000Z</time>
      </trkpt>
      <trkpt lat="47.51025" lon="6.7584">
        <ele>390</ele>
        <time>2016-07-17T07:27:50.000Z</time>
      </trkpt>
      <trkpt lat="47.51027" lon="6.75838">
        <ele>389</ele>
        <time>2016-07-17T07:27:51.000Z</time>
      </trkpt>
      <trkpt lat="47.5103" lon="6.75832">
        <ele>386</ele>
        <time>2016-07-17T07:27:53.000Z</time>
      </trkpt>
      <trkpt lat="47.5103" lon="6.75829">
        <ele>385</ele>
        <time>2016-07-17T07:27:54.000Z</time>
      </trkpt>
      <trkpt lat="47.51031" lon="6.75825">
        <ele>385</ele>
        <time>2016-07-17T07:27:55.000Z</time>
      </trkpt>
      <trkpt lat="47.51033" lon="6.75823">
        <ele>385</ele>
        <time>2016-07-17T07:27:56.000Z</time>
      </trkpt>
      <trkpt lat="47.51035" lon="6.75822">
        <ele>384</ele>
        <time>2016-07-17T07:27:57.000Z</time>
      </trkpt>
      <trkpt lat="47.51037" lon="6.75821">
        <ele>384</ele>
        <time>2016-07-17T07:27:58.000Z</time>
      </trkpt>
      <trkpt lat="47.51042" lon="6.7582">
        <ele>383</ele>
        <time>2016-07-17T07:28:00.000Z</time>
      </trkpt>
      <trkpt lat="47.51044" lon="6.7582">
        <ele>383</ele>
        <time>2016-07-17T07:28:01.000Z</time>
      </trkpt>
      <trkpt lat="47.51047" lon="6.7582">
        <ele>382</ele>
        <time>2016-07-17T07:28:03.000Z</time>
      </trkpt>
      <trkpt lat="47.51049" lon="6.75821">
        <ele>382</ele>
        <time>2016-07-17T07:28:04.000Z</time>
      </trkpt>
      <trkpt lat="47.51053" lon="6.75823">
        <ele>381</ele>
        <time>2016-07-17T07:28:06.000Z</time>
      </trkpt>
      <trkpt lat="47.51054" lon="6.75824">
        <ele>381</ele>
        <time>2016-07-17T07:28:07.000Z</time>
      </trkpt>
      <trkpt lat="47.51056" lon="6.75828">
        <ele>381</ele>
        <time>2016-07-17T07:28:10.000Z</time>
      </trkpt>
      <trkpt lat="47.51057" lon="6.75829">
        <ele>381</ele>
        <time>2016-07-17T07:28:11.000Z</time>
      </trkpt>
      <trkpt lat="47.51061" lon="6.75831">
        <ele>380</ele>
        <time>2016-07-17T07:28:13.000Z</time>
      </trkpt>
      <trkpt lat="47.51062" lon="6.75831">
        <ele>380</ele>
        <time>2016-07-17T07:28:14.000Z</time>
      </trkpt>
      <trkpt lat="47.51064" lon="6.75832">
        <ele>380</ele>
        <time>2016-07-17T07:28:34.000Z</time>
      </trkpt>
      <trkpt lat="47.51067" lon="6.75833">
        <ele>379</ele>
        <time>2016-07-17T07:28:35.000Z</time>
      </trkpt>
      <trkpt lat="47.51068" lon="6.75832">
        <ele>379</ele>
        <time>2016-07-17T07:28:36.000Z</time>
      </trkpt>
      <trkpt lat="47.51072" lon="6.75832">
        <ele>378</ele>
        <time>2016-07-17T07:28:37.000Z</time>
      </trkpt>
      <trkpt lat="47.51075" lon="6.75832">
        <ele>378</ele>
        <time>2016-07-17T07:28:38.000Z</time>
      </trkpt>
      <trkpt lat="47.51078" lon="6.75832">
        <ele>377</ele>
        <time>2016-07-17T07:28:39.000Z</time>
      </trkpt>
      <trkpt lat="47.51081" lon="6.75831">
        <ele>377</ele>
        <time>2016-07-17T07:28:40.000Z</time>
      </trkpt>
      <trkpt lat="47.51083" lon="6.75831">
        <ele>375</ele>
        <time>2016-07-17T07:28:41.000Z</time>
      </trkpt>
      <trkpt lat="47.51086" lon="6.7583">
        <ele>374</ele>
        <time>2016-07-17T07:28:42.000Z</time>
      </trkpt>
      <trkpt lat="47.5109" lon="6.7583">
        <ele>373</ele>
        <time>2016-07-17T07:28:43.000Z</time>
      </trkpt>
      <trkpt lat="47.51093" lon="6.7583">
        <ele>372</ele>
        <time>2016-07-17T07:28:44.000Z</time>
      </trkpt>
      <trkpt lat="47.51098" lon="6.75829">
        <ele>371</ele>
        <time>2016-07-17T07:28:45.000Z</time>
      </trkpt>
      <trkpt lat="47.51102" lon="6.75829">
        <ele>370</ele>
        <time>2016-07-17T07:28:46.000Z</time>
      </trkpt>
      <trkpt lat="47.51105" lon="6.75828">
        <ele>369</ele>
        <time>2016-07-17T07:28:47.000Z</time>
      </trkpt>
      <trkpt lat="47.51108" lon="6.75826">
        <ele>369</ele>
        <time>2016-07-17T07:28:48.000Z</time>
      </trkpt>
      <trkpt lat="47.51109" lon="6.75824">
        <ele>368</ele>
        <time>2016-07-17T07:28:49.000Z</time>
      </trkpt>
      <trkpt lat="47.51112" lon="6.75821">
        <ele>368</ele>
        <time>2016-07-17T07:28:51.000Z</time>
      </trkpt>
      <trkpt lat="47.51114" lon="6.75819">
        <ele>367</ele>
        <time>2016-07-17T07:28:52.000Z</time>
      </trkpt>
      <trkpt lat="47.51117" lon="6.75817">
        <ele>367</ele>
        <time>2016-07-17T07:28:54.000Z</time>
      </trkpt>
      <trkpt lat="47.51119" lon="6.75816">
        <ele>367</ele>
        <time>2016-07-17T07:28:55.000Z</time>
      </trkpt>
      <trkpt lat="47.51123" lon="6.75816">
        <ele>366</ele>
        <time>2016-07-17T07:28:57.000Z</time>
      </trkpt>
      <trkpt lat="47.51125" lon="6.75817">
        <ele>366</ele>
        <time>2016-07-17T07:28:58.000Z</time>
      </trkpt>
      <trkpt lat="47.51128" lon="6.75817">
        <ele>365</ele>
        <time>2016-07-17T07:29:00.000Z</time>
      </trkpt>
      <trkpt lat="47.5113" lon="6.75816">
        <ele>365</ele>
        <time>2016-07-17T07:29:01.000Z</time>
      </trkpt>
      <trkpt lat="47.51132" lon="6.75813">
        <ele>365</ele>
        <time>2016-07-17T07:29:02.000Z</time>
      </trkpt>
      <trkpt lat="47.51134" lon="6.75811">
        <ele>365</ele>
        <time>2016-07-17T07:29:03.000Z</time>
      </trkpt>
      <trkpt lat="47.51137" lon="6.75807">
        <ele>364</ele>
        <time>2016-07-17T07:29:05.000Z</time>
      </trkpt>
      <trkpt lat="47.51138" lon="6.75805">
        <ele>364</ele>
        <time>2016-07-17T07:29:06.000Z</time>
      </trkpt>
      <trkpt lat="47.51141" lon="6.75803">
        <ele>364</ele>
        <time>2016-07-17T07:29:08.000Z</time>
      </trkpt>
      <trkpt lat="47.51142" lon="6.75803">
        <ele>364</ele>
        <time>2016-07-17T07:29:09.000Z</time>
      </trkpt>
      <trkpt lat="47.51147" lon="6.75802">
        <ele>363</ele>
        <time>2016-07-17T07:29:12.000Z</time>
      </trkpt>
      <trkpt lat="47.51148" lon="6.75802">
        <ele>363</ele>
        <time>2016-07-17T07:29:13.000Z</time>
      </trkpt>
      <trkpt lat="47.51152" lon="6.75799">
        <ele>363</ele>
        <time>2016-07-17T07:29:18.000Z</time>
      </trkpt>
      <trkpt lat="47.51152" lon="6.75797">
        <ele>363</ele>
        <time>2016-07-17T07:29:19.000Z</time>
      </trkpt>
      <trkpt lat="47.51154" lon="6.75791">
        <ele>363</ele>
        <time>2016-07-17T07:29:22.000Z</time>
      </trkpt>
      <trkpt lat="47.51155" lon="6.7579">
        <ele>363</ele>
        <time>2016-07-17T07:29:23.000Z</time>
      </trkpt>
      <trkpt lat="47.51158" lon="6.75787">
        <ele>363</ele>
        <time>2016-07-17T07:29:26.000Z</time>
      </trkpt>
      <trkpt lat="47.51159" lon="6.75787">
        <ele>363</ele>
        <time>2016-07-17T07:29:27.000Z</time>
      </trkpt>
      <trkpt lat="47.51161" lon="6.75792">
        <ele>363</ele>
        <time>2016-07-17T07:29:30.000Z</time>
      </trkpt>
      <trkpt lat="47.51161" lon="6.75794">
        <ele>363</ele>
        <time>2016-07-17T07:29:31.000Z</time>
      </trkpt>
      <trkpt lat="47.51162" lon="6.758">
        <ele>363</ele>
        <time>2016-07-17T07:29:33.000Z</time>
      </trkpt>
      <trkpt lat="47.51162" lon="6.75804">
        <ele>362</ele>
        <time>2016-07-17T07:29:34.000Z</time>
      </trkpt>
      <trkpt lat="47.51162" lon="6.75808">
        <ele>362</ele>
        <time>2016-07-17T07:29:35.000Z</time>
      </trkpt>
      <trkpt lat="47.51163" lon="6.75812">
        <ele>362</ele>
        <time>2016-07-17T07:29:36.000Z</time>
      </trkpt>
      <trkpt lat="47.51163" lon="6.75816">
        <ele>362</ele>
        <time>2016-07-17T07:29:37.000Z</time>
      </trkpt>
      <trkpt lat="47.51163" lon="6.7582">
        <ele>361</ele>
        <time>2016-07-17T07:29:38.000Z</time>
      </trkpt>
      <trkpt lat="47.51163" lon="6.75824">
        <ele>360</ele>
        <time>2016-07-17T07:29:39.000Z</time>
      </trkpt>
      <trkpt lat="47.51163" lon="6.75827">
        <ele>360</ele>
        <time>2016-07-17T07:29:40.000Z</time>
      </trkpt>
      <trkpt lat="47.51163" lon="6.75831">
        <ele>359</ele>
        <time>2016-07-17T07:29:41.000Z</time>
      </trkpt>
      <trkpt lat="47.51162" lon="6.75834">
        <ele>360</ele>
        <time>2016-07-17T07:29:42.000Z</time>
      </trkpt>
      <trkpt lat="47.51162" lon="6.7584">
        <ele>361</ele>
        <time>2016-07-17T07:29:44.000Z</time>
      </trkpt>
      <trkpt lat="47.51162" lon="6.75842">
        <ele>362</ele>
        <time>2016-07-17T07:29:45.000Z</time>
      </trkpt>
      <trkpt lat="47.51163" lon="6.75848">
        <ele>363</ele>
        <time>2016-07-17T07:29:47.000Z</time>
      </trkpt>
      <trkpt lat="47.51163" lon="6.75851">
        <ele>364</ele>
        <time>2016-07-17T07:29:48.000Z</time>
      </trkpt>
      <trkpt lat="47.51163" lon="6.75858">
        <ele>365</ele>
        <time>2016-07-17T07:29:50.000Z</time>
      </trkpt>
      <trkpt lat="47.51163" lon="6.75861">
        <ele>365</ele>
        <time>2016-07-17T07:29:51.000Z</time>
      </trkpt>
      <trkpt lat="47.51163" lon="6.75864">
        <ele>365</ele>
        <time>2016-07-17T07:29:52.000Z</time>
      </trkpt>
      <trkpt lat="47.51164" lon="6.75867">
        <ele>366</ele>
        <time>2016-07-17T07:29:53.000Z</time>
      </trkpt>
      <trkpt lat="47.51165" lon="6.75873">
        <ele>366</ele>
        <time>2016-07-17T07:29:55.000Z</time>
      </trkpt>
      <trkpt lat="47.51164" lon="6.75877">
        <ele>366</ele>
        <time>2016-07-17T07:29:56.000Z</time>
      </trkpt>
      <trkpt lat="47.51164" lon="6.75881">
        <ele>366</ele>
        <time>2016-07-17T07:29:57.000Z</time>
      </trkpt>
      <trkpt lat="47.51165" lon="6.75885">
        <ele>366</ele>
        <time>2016-07-17T07:29:58.000Z</time>
      </trkpt>
      <trkpt lat="47.51165" lon="6.75889">
        <ele>366</ele>
        <time>2016-07-17T07:29:59.000Z</time>
      </trkpt>
      <trkpt lat="47.51166" lon="6.75892">
        <ele>366</ele>
        <time>2016-07-17T07:30:00.000Z</time>
      </trkpt>
      <trkpt lat="47.51167" lon="6.75897">
        <ele>363</ele>
        <time>2016-07-17T07:30:02.000Z</time>
      </trkpt>
      <trkpt lat="47.51167" lon="6.759">
        <ele>363</ele>
        <time>2016-07-17T07:30:03.000Z</time>
      </trkpt>
      <trkpt lat="47.51166" lon="6.75906">
        <ele>365</ele>
        <time>2016-07-17T07:30:05.000Z</time>
      </trkpt>
      <trkpt lat="47.51166" lon="6.75908">
        <ele>364</ele>
        <time>2016-07-17T07:30:06.000Z</time>
      </trkpt>
      <trkpt lat="47.51166" lon="6.75911">
        <ele>364</ele>
        <time>2016-07-17T07:30:07.000Z</time>
      </trkpt>
      <trkpt lat="47.51167" lon="6.75915">
        <ele>362</ele>
        <time>2016-07-17T07:30:08.000Z</time>
      </trkpt>
      <trkpt lat="47.51169" lon="6.75919">
        <ele>363</ele>
        <time>2016-07-17T07:30:09.000Z</time>
      </trkpt>
      <trkpt lat="47.51171" lon="6.75923">
        <ele>363</ele>
        <time>2016-07-17T07:30:10.000Z</time>
      </trkpt>
      <trkpt lat="47.51173" lon="6.75927">
        <ele>364</ele>
        <time>2016-07-17T07:30:11.000Z</time>
      </trkpt>
      <trkpt lat="47.51174" lon="6.7593">
        <ele>364</ele>
        <time>2016-07-17T07:30:12.000Z</time>
      </trkpt>
      <trkpt lat="47.51175" lon="6.75934">
        <ele>364</ele>
        <time>2016-07-17T07:30:13.000Z</time>
      </trkpt>
      <trkpt lat="47.51176" lon="6.75937">
        <ele>365</ele>
        <time>2016-07-17T07:30:14.000Z</time>
      </trkpt>
      <trkpt lat="47.51177" lon="6.75941">
        <ele>365</ele>
        <time>2016-07-17T07:30:15.000Z</time>
      </trkpt>
      <trkpt lat="47.51178" lon="6.75944">
        <ele>365</ele>
        <time>2016-07-17T07:30:16.000Z</time>
      </trkpt>
      <trkpt lat="47.51179" lon="6.7595">
        <ele>365</ele>
        <time>2016-07-17T07:30:18.000Z</time>
      </trkpt>
      <trkpt lat="47.5118" lon="6.75953">
        <ele>366</ele>
        <time>2016-07-17T07:30:19.000Z</time>
      </trkpt>
      <trkpt lat="47.5118" lon="6.75959">
        <ele>366</ele>
        <time>2016-07-17T07:30:21.000Z</time>
      </trkpt>
      <trkpt lat="47.51181" lon="6.75962">
        <ele>366</ele>
        <time>2016-07-17T07:30:22.000Z</time>
      </trkpt>
      <trkpt lat="47.51181" lon="6.75965">
        <ele>366</ele>
        <time>2016-07-17T07:30:23.000Z</time>
      </trkpt>
      <trkpt lat="47.51181" lon="6.7597">
        <ele>366</ele>
        <time>2016-07-17T07:30:24.000Z</time>
      </trkpt>
      <trkpt lat="47.51181" lon="6.75974">
        <ele>367</ele>
        <time>2016-07-17T07:30:25.000Z</time>
      </trkpt>
      <trkpt lat="47.51181" lon="6.75979">
        <ele>367</ele>
        <time>2016-07-17T07:30:26.000Z</time>
      </trkpt>
      <trkpt lat="47.51181" lon="6.75983">
        <ele>367</ele>
        <time>2016-07-17T07:30:27.000Z</time>
      </trkpt>
      <trkpt lat="47.51181" lon="6.75987">
        <ele>367</ele>
        <time>2016-07-17T07:30:28.000Z</time>
      </trkpt>
      <trkpt lat="47.51183" lon="6.75992">
        <ele>368</ele>
        <time>2016-07-17T07:30:29.000Z</time>
      </trkpt>
      <trkpt lat="47.51184" lon="6.75995">
        <ele>368</ele>
        <time>2016-07-17T07:30:30.000Z</time>
      </trkpt>
      <trkpt lat="47.51186" lon="6.76">
        <ele>368</ele>
        <time>2016-07-17T07:30:32.000Z</time>
      </trkpt>
      <trkpt lat="47.51186" lon="6.76002">
        <ele>368</ele>
        <time>2016-07-17T07:30:33.000Z</time>
      </trkpt>
      <trkpt lat="47.51187" lon="6.76008">
        <ele>368</ele>
        <time>2016-07-17T07:30:35.000Z</time>
      </trkpt>
      <trkpt lat="47.51188" lon="6.76012">
        <ele>368</ele>
        <time>2016-07-17T07:30:36.000Z</time>
      </trkpt>
      <trkpt lat="47.51188" lon="6.76016">
        <ele>368</ele>
        <time>2016-07-17T07:30:37.000Z</time>
      </trkpt>
      <trkpt lat="47.51189" lon="6.7602">
        <ele>368</ele>
        <time>2016-07-17T07:30:38.000Z</time>
      </trkpt>
      <trkpt lat="47.51189" lon="6.76025">
        <ele>367</ele>
        <time>2016-07-17T07:30:39.000Z</time>
      </trkpt>
      <trkpt lat="47.51189" lon="6.76029">
        <ele>367</ele>
        <time>2016-07-17T07:30:40.000Z</time>
      </trkpt>
      <trkpt lat="47.51189" lon="6.76032">
        <ele>367</ele>
        <time>2016-07-17T07:30:41.000Z</time>
      </trkpt>
      <trkpt lat="47.51189" lon="6.76036">
        <ele>367</ele>
        <time>2016-07-17T07:30:42.000Z</time>
      </trkpt>
      <trkpt lat="47.51189" lon="6.76039">
        <ele>367</ele>
        <time>2016-07-17T07:30:43.000Z</time>
      </trkpt>
      <trkpt lat="47.5119" lon="6.76043">
        <ele>367</ele>
        <time>2016-07-17T07:30:44.000Z</time>
      </trkpt>
      <trkpt lat="47.5119" lon="6.76046">
        <ele>367</ele>
        <time>2016-07-17T07:30:45.000Z</time>
      </trkpt>
      <trkpt lat="47.51191" lon="6.7605">
        <ele>367</ele>
        <time>2016-07-17T07:30:46.000Z</time>
      </trkpt>
      <trkpt lat="47.51192" lon="6.76054">
        <ele>367</ele>
        <time>2016-07-17T07:30:47.000Z</time>
      </trkpt>
      <trkpt lat="47.51194" lon="6.76058">
        <ele>367</ele>
        <time>2016-07-17T07:30:48.000Z</time>
      </trkpt>
      <trkpt lat="47.51196" lon="6.76061">
        <ele>367</ele>
        <time>2016-07-17T07:30:49.000Z</time>
      </trkpt>
      <trkpt lat="47.51197" lon="6.76065">
        <ele>367</ele>
        <time>2016-07-17T07:30:50.000Z</time>
      </trkpt>
      <trkpt lat="47.51199" lon="6.76068">
        <ele>367</ele>
        <time>2016-07-17T07:30:51.000Z</time>
      </trkpt>
      <trkpt lat="47.51201" lon="6.76072">
        <ele>367</ele>
        <time>2016-07-17T07:30:52.000Z</time>
      </trkpt>
      <trkpt lat="47.51202" lon="6.76076">
        <ele>367</ele>
        <time>2016-07-17T07:30:53.000Z</time>
      </trkpt>
      <trkpt lat="47.51203" lon="6.76081">
        <ele>367</ele>
        <time>2016-07-17T07:30:54.000Z</time>
      </trkpt>
      <trkpt lat="47.51204" lon="6.76085">
        <ele>365</ele>
        <time>2016-07-17T07:30:55.000Z</time>
      </trkpt>
      <trkpt lat="47.51204" lon="6.76089">
        <ele>365</ele>
        <time>2016-07-17T07:30:56.000Z</time>
      </trkpt>
      <trkpt lat="47.51205" lon="6.76093">
        <ele>365</ele>
        <time>2016-07-17T07:30:57.000Z</time>
      </trkpt>
      <trkpt lat="47.51205" lon="6.76097">
        <ele>365</ele>
        <time>2016-07-17T07:30:58.000Z</time>
      </trkpt>
      <trkpt lat="47.51205" lon="6.76101">
        <ele>365</ele>
        <time>2016-07-17T07:30:59.000Z</time>
      </trkpt>
      <trkpt lat="47.51204" lon="6.76105">
        <ele>365</ele>
        <time>2016-07-17T07:31:00.000Z</time>
      </trkpt>
      <trkpt lat="47.51204" lon="6.76108">
        <ele>365</ele>
        <time>2016-07-17T07:31:01.000Z</time>
      </trkpt>
      <trkpt lat="47.51204" lon="6.76112">
        <ele>365</ele>
        <time>2016-07-17T07:31:02.000Z</time>
      </trkpt>
      <trkpt lat="47.51203" lon="6.76115">
        <ele>365</ele>
        <time>2016-07-17T07:31:03.000Z</time>
      </trkpt>
      <trkpt lat="47.51203" lon="6.76119">
        <ele>365</ele>
        <time>2016-07-17T07:31:04.000Z</time>
      </trkpt>
      <trkpt lat="47.51203" lon="6.76122">
        <ele>365</ele>
        <time>2016-07-17T07:31:05.000Z</time>
      </trkpt>
      <trkpt lat="47.51203" lon="6.76126">
        <ele>365</ele>
        <time>2016-07-17T07:31:06.000Z</time>
      </trkpt>
      <trkpt lat="47.51203" lon="6.76129">
        <ele>365</ele>
        <time>2016-07-17T07:31:07.000Z</time>
      </trkpt>
      <trkpt lat="47.51203" lon="6.76133">
        <ele>365</ele>
        <time>2016-07-17T07:31:08.000Z</time>
      </trkpt>
      <trkpt lat="47.51203" lon="6.76137">
        <ele>365</ele>
        <time>2016-07-17T07:31:09.000Z</time>
      </trkpt>
      <trkpt lat="47.51204" lon="6.7614">
        <ele>364</ele>
        <time>2016-07-17T07:31:10.000Z</time>
      </trkpt>
      <trkpt lat="47.51205" lon="6.76144">
        <ele>364</ele>
        <time>2016-07-17T07:31:11.000Z</time>
      </trkpt>
      <trkpt lat="47.51205" lon="6.76147">
        <ele>364</ele>
        <time>2016-07-17T07:31:12.000Z</time>
      </trkpt>
      <trkpt lat="47.51206" lon="6.76151">
        <ele>364</ele>
        <time>2016-07-17T07:31:13.000Z</time>
      </trkpt>
      <trkpt lat="47.51207" lon="6.76154">
        <ele>364</ele>
        <time>2016-07-17T07:31:14.000Z</time>
      </trkpt>
      <trkpt lat="47.51207" lon="6.76157">
        <ele>364</ele>
        <time>2016-07-17T07:31:15.000Z</time>
      </trkpt>
      <trkpt lat="47.51209" lon="6.76161">
        <ele>364</ele>
        <time>2016-07-17T07:31:16.000Z</time>
      </trkpt>
      <trkpt lat="47.5121" lon="6.76165">
        <ele>364</ele>
        <time>2016-07-17T07:31:17.000Z</time>
      </trkpt>
      <trkpt lat="47.51211" lon="6.76168">
        <ele>363</ele>
        <time>2016-07-17T07:31:18.000Z</time>
      </trkpt>
      <trkpt lat="47.51211" lon="6.76175">
        <ele>363</ele>
        <time>2016-07-17T07:31:20.000Z</time>
      </trkpt>
      <trkpt lat="47.51212" lon="6.76179">
        <ele>363</ele>
        <time>2016-07-17T07:31:21.000Z</time>
      </trkpt>
      <trkpt lat="47.51213" lon="6.76182">
        <ele>363</ele>
        <time>2016-07-17T07:31:22.000Z</time>
      </trkpt>
      <trkpt lat="47.51214" lon="6.76185">
        <ele>363</ele>
        <time>2016-07-17T07:31:23.000Z</time>
      </trkpt>
      <trkpt lat="47.51216" lon="6.76188">
        <ele>363</ele>
        <time>2016-07-17T07:31:24.000Z</time>
      </trkpt>
      <trkpt lat="47.51217" lon="6.76191">
        <ele>363</ele>
        <time>2016-07-17T07:31:25.000Z</time>
      </trkpt>
      <trkpt lat="47.51218" lon="6.76194">
        <ele>363</ele>
        <time>2016-07-17T07:31:26.000Z</time>
      </trkpt>
      <trkpt lat="47.51221" lon="6.76197">
        <ele>363</ele>
        <time>2016-07-17T07:31:27.000Z</time>
      </trkpt>
      <trkpt lat="47.51225" lon="6.76201">
        <ele>362</ele>
        <time>2016-07-17T07:31:28.000Z</time>
      </trkpt>
      <trkpt lat="47.51229" lon="6.76204">
        <ele>362</ele>
        <time>2016-07-17T07:31:29.000Z</time>
      </trkpt>
      <trkpt lat="47.51233" lon="6.76208">
        <ele>362</ele>
        <time>2016-07-17T07:31:30.000Z</time>
      </trkpt>
      <trkpt lat="47.51237" lon="6.76212">
        <ele>362</ele>
        <time>2016-07-17T07:31:31.000Z</time>
      </trkpt>
      <trkpt lat="47.5124" lon="6.76216">
        <ele>362</ele>
        <time>2016-07-17T07:31:32.000Z</time>
      </trkpt>
      <trkpt lat="47.51243" lon="6.7622">
        <ele>361</ele>
        <time>2016-07-17T07:31:33.000Z</time>
      </trkpt>
      <trkpt lat="47.51245" lon="6.76223">
        <ele>361</ele>
        <time>2016-07-17T07:31:34.000Z</time>
      </trkpt>
      <trkpt lat="47.51247" lon="6.76227">
        <ele>361</ele>
        <time>2016-07-17T07:31:35.000Z</time>
      </trkpt>
      <trkpt lat="47.51248" lon="6.76232">
        <ele>361</ele>
        <time>2016-07-17T07:31:36.000Z</time>
      </trkpt>
      <trkpt lat="47.5125" lon="6.76236">
        <ele>360</ele>
        <time>2016-07-17T07:31:37.000Z</time>
      </trkpt>
      <trkpt lat="47.51251" lon="6.7624">
        <ele>361</ele>
        <time>2016-07-17T07:31:38.000Z</time>
      </trkpt>
      <trkpt lat="47.51252" lon="6.76242">
        <ele>360</ele>
        <time>2016-07-17T07:31:39.000Z</time>
      </trkpt>
      <trkpt lat="47.51254" lon="6.76247">
        <ele>360</ele>
        <time>2016-07-17T07:31:41.000Z</time>
      </trkpt>
      <trkpt lat="47.51256" lon="6.76249">
        <ele>360</ele>
        <time>2016-07-17T07:31:42.000Z</time>
      </trkpt>
      <trkpt lat="47.51258" lon="6.76254">
        <ele>360</ele>
        <time>2016-07-17T07:31:44.000Z</time>
      </trkpt>
      <trkpt lat="47.51259" lon="6.76257">
        <ele>361</ele>
        <time>2016-07-17T07:31:45.000Z</time>
      </trkpt>
      <trkpt lat="47.5126" lon="6.7626">
        <ele>362</ele>
        <time>2016-07-17T07:31:46.000Z</time>
      </trkpt>
      <trkpt lat="47.51262" lon="6.76263">
        <ele>362</ele>
        <time>2016-07-17T07:31:47.000Z</time>
      </trkpt>
      <trkpt lat="47.51264" lon="6.76266">
        <ele>363</ele>
        <time>2016-07-17T07:31:48.000Z</time>
      </trkpt>
      <trkpt lat="47.51267" lon="6.7627">
        <ele>363</ele>
        <time>2016-07-17T07:31:49.000Z</time>
      </trkpt>
      <trkpt lat="47.51269" lon="6.76274">
        <ele>364</ele>
        <time>2016-07-17T07:31:50.000Z</time>
      </trkpt>
      <trkpt lat="47.5127" lon="6.76278">
        <ele>364</ele>
        <time>2016-07-17T07:31:51.000Z</time>
      </trkpt>
      <trkpt lat="47.51271" lon="6.76283">
        <ele>364</ele>
        <time>2016-07-17T07:31:52.000Z</time>
      </trkpt>
      <trkpt lat="47.51272" lon="6.76287">
        <ele>364</ele>
        <time>2016-07-17T07:31:53.000Z</time>
      </trkpt>
      <trkpt lat="47.51273" lon="6.76291">
        <ele>365</ele>
        <time>2016-07-17T07:31:54.000Z</time>
      </trkpt>
      <trkpt lat="47.51274" lon="6.76294">
        <ele>365</ele>
        <time>2016-07-17T07:31:55.000Z</time>
      </trkpt>
      <trkpt lat="47.51275" lon="6.76297">
        <ele>365</ele>
        <time>2016-07-17T07:31:56.000Z</time>
      </trkpt>
      <trkpt lat="47.51276" lon="6.763">
        <ele>365</ele>
        <time>2016-07-17T07:31:57.000Z</time>
      </trkpt>
      <trkpt lat="47.51277" lon="6.76304">
        <ele>365</ele>
        <time>2016-07-17T07:31:58.000Z</time>
      </trkpt>
      <trkpt lat="47.51279" lon="6.76306">
        <ele>365</ele>
        <time>2016-07-17T07:31:59.000Z</time>
      </trkpt>
      <trkpt lat="47.51281" lon="6.76308">
        <ele>365</ele>
        <time>2016-07-17T07:32:00.000Z</time>
      </trkpt>
      <trkpt lat="47.51282" lon="6.7631">
        <ele>365</ele>
        <time>2016-07-17T07:32:01.000Z</time>
      </trkpt>
      <trkpt lat="47.51286" lon="6.76314">
        <ele>365</ele>
        <time>2016-07-17T07:32:03.000Z</time>
      </trkpt>
      <trkpt lat="47.51287" lon="6.76317">
        <ele>365</ele>
        <time>2016-07-17T07:32:04.000Z</time>
      </trkpt>
      <trkpt lat="47.51289" lon="6.76321">
        <ele>365</ele>
        <time>2016-07-17T07:32:06.000Z</time>
      </trkpt>
      <trkpt lat="47.51291" lon="6.76324">
        <ele>365</ele>
        <time>2016-07-17T07:32:07.000Z</time>
      </trkpt>
      <trkpt lat="47.51293" lon="6.76326">
        <ele>366</ele>
        <time>2016-07-17T07:32:08.000Z</time>
      </trkpt>
      <trkpt lat="47.51295" lon="6.7633">
        <ele>366</ele>
        <time>2016-07-17T07:32:09.000Z</time>
      </trkpt>
      <trkpt lat="47.51297" lon="6.76333">
        <ele>366</ele>
        <time>2016-07-17T07:32:10.000Z</time>
      </trkpt>
      <trkpt lat="47.51298" lon="6.76337">
        <ele>365</ele>
        <time>2016-07-17T07:32:11.000Z</time>
      </trkpt>
      <trkpt lat="47.51299" lon="6.76342">
        <ele>365</ele>
        <time>2016-07-17T07:32:13.000Z</time>
      </trkpt>
      <trkpt lat="47.513" lon="6.76343">
        <ele>365</ele>
        <time>2016-07-17T07:32:14.000Z</time>
      </trkpt>
      <trkpt lat="47.51304" lon="6.76345">
        <ele>365</ele>
        <time>2016-07-17T07:32:26.000Z</time>
      </trkpt>
      <trkpt lat="47.51305" lon="6.76346">
        <ele>365</ele>
        <time>2016-07-17T07:32:27.000Z</time>
      </trkpt>
      <trkpt lat="47.51308" lon="6.76351">
        <ele>365</ele>
        <time>2016-07-17T07:32:32.000Z</time>
      </trkpt>
      <trkpt lat="47.51308" lon="6.76352">
        <ele>365</ele>
        <time>2016-07-17T07:32:33.000Z</time>
      </trkpt>
      <trkpt lat="47.51309" lon="6.76357">
        <ele>365</ele>
        <time>2016-07-17T07:32:37.000Z</time>
      </trkpt>
      <trkpt lat="47.5131" lon="6.7636">
        <ele>365</ele>
        <time>2016-07-17T07:32:38.000Z</time>
      </trkpt>
      <trkpt lat="47.51311" lon="6.76363">
        <ele>365</ele>
        <time>2016-07-17T07:32:39.000Z</time>
      </trkpt>
      <trkpt lat="47.51312" lon="6.76367">
        <ele>365</ele>
        <time>2016-07-17T07:32:40.000Z</time>
      </trkpt>
      <trkpt lat="47.51313" lon="6.76371">
        <ele>365</ele>
        <time>2016-07-17T07:32:41.000Z</time>
      </trkpt>
      <trkpt lat="47.51314" lon="6.76377">
        <ele>364</ele>
        <time>2016-07-17T07:32:42.000Z</time>
      </trkpt>
      <trkpt lat="47.51315" lon="6.76383">
        <ele>364</ele>
        <time>2016-07-17T07:32:43.000Z</time>
      </trkpt>
      <trkpt lat="47.51315" lon="6.76389">
        <ele>364</ele>
        <time>2016-07-17T07:32:44.000Z</time>
      </trkpt>
      <trkpt lat="47.51315" lon="6.76394">
        <ele>364</ele>
        <time>2016-07-17T07:32:45.000Z</time>
      </trkpt>
      <trkpt lat="47.51316" lon="6.76399">
        <ele>364</ele>
        <time>2016-07-17T07:32:46.000Z</time>
      </trkpt>
      <trkpt lat="47.51317" lon="6.76403">
        <ele>363</ele>
        <time>2016-07-17T07:32:47.000Z</time>
      </trkpt>
      <trkpt lat="47.51318" lon="6.76407">
        <ele>363</ele>
        <time>2016-07-17T07:32:48.000Z</time>
      </trkpt>
      <trkpt lat="47.51321" lon="6.76411">
        <ele>363</ele>
        <time>2016-07-17T07:32:51.000Z</time>
      </trkpt>
      <trkpt lat="47.51322" lon="6.76412">
        <ele>363</ele>
        <time>2016-07-17T07:32:52.000Z</time>
      </trkpt>
      <trkpt lat="47.51325" lon="6.76416">
        <ele>363</ele>
        <time>2016-07-17T07:32:54.000Z</time>
      </trkpt>
      <trkpt lat="47.51327" lon="6.76419">
        <ele>363</ele>
        <time>2016-07-17T07:32:55.000Z</time>
      </trkpt>
      <trkpt lat="47.51329" lon="6.76421">
        <ele>362</ele>
        <time>2016-07-17T07:32:56.000Z</time>
      </trkpt>
      <trkpt lat="47.51331" lon="6.76424">
        <ele>363</ele>
        <time>2016-07-17T07:32:57.000Z</time>
      </trkpt>
      <trkpt lat="47.51333" lon="6.76427">
        <ele>363</ele>
        <time>2016-07-17T07:32:58.000Z</time>
      </trkpt>
      <trkpt lat="47.51336" lon="6.76429">
        <ele>364</ele>
        <time>2016-07-17T07:32:59.000Z</time>
      </trkpt>
      <trkpt lat="47.51338" lon="6.76431">
        <ele>364</ele>
        <time>2016-07-17T07:33:00.000Z</time>
      </trkpt>
      <trkpt lat="47.5134" lon="6.76433">
        <ele>364</ele>
        <time>2016-07-17T07:33:01.000Z</time>
      </trkpt>
      <trkpt lat="47.51343" lon="6.76432">
        <ele>364</ele>
        <time>2016-07-17T07:33:02.000Z</time>
      </trkpt>
      <trkpt lat="47.51345" lon="6.76431">
        <ele>364</ele>
        <time>2016-07-17T07:33:03.000Z</time>
      </trkpt>
      <trkpt lat="47.51348" lon="6.76429">
        <ele>364</ele>
        <time>2016-07-17T07:33:04.000Z</time>
      </trkpt>
      <trkpt lat="47.5135" lon="6.76428">
        <ele>364</ele>
        <time>2016-07-17T07:33:05.000Z</time>
      </trkpt>
      <trkpt lat="47.51352" lon="6.76429">
        <ele>365</ele>
        <time>2016-07-17T07:33:06.000Z</time>
      </trkpt>
      <trkpt lat="47.51354" lon="6.7643">
        <ele>365</ele>
        <time>2016-07-17T07:33:07.000Z</time>
      </trkpt>
      <trkpt lat="47.51356" lon="6.76432">
        <ele>365</ele>
        <time>2016-07-17T07:33:08.000Z</time>
      </trkpt>
      <trkpt lat="47.51358" lon="6.76433">
        <ele>365</ele>
        <time>2016-07-17T07:33:09.000Z</time>
      </trkpt>
      <trkpt lat="47.5136" lon="6.76435">
        <ele>365</ele>
        <time>2016-07-17T07:33:10.000Z</time>
      </trkpt>
      <trkpt lat="47.51363" lon="6.76437">
        <ele>366</ele>
        <time>2016-07-17T07:33:11.000Z</time>
      </trkpt>
      <trkpt lat="47.51365" lon="6.76439">
        <ele>366</ele>
        <time>2016-07-17T07:33:12.000Z</time>
      </trkpt>
      <trkpt lat="47.51368" lon="6.76441">
        <ele>366</ele>
        <time>2016-07-17T07:33:13.000Z</time>
      </trkpt>
      <trkpt lat="47.5137" lon="6.76443">
        <ele>366</ele>
        <time>2016-07-17T07:33:14.000Z</time>
      </trkpt>
      <trkpt lat="47.51373" lon="6.76444">
        <ele>366</ele>
        <time>2016-07-17T07:33:15.000Z</time>
      </trkpt>
      <trkpt lat="47.51376" lon="6.76444">
        <ele>366</ele>
        <time>2016-07-17T07:33:16.000Z</time>
      </trkpt>
      <trkpt lat="47.51378" lon="6.76444">
        <ele>366</ele>
        <time>2016-07-17T07:33:17.000Z</time>
      </trkpt>
      <trkpt lat="47.51381" lon="6.76443">
        <ele>367</ele>
        <time>2016-07-17T07:33:18.000Z</time>
      </trkpt>
      <trkpt lat="47.51383" lon="6.76442">
        <ele>367</ele>
        <time>2016-07-17T07:33:19.000Z</time>
      </trkpt>
      <trkpt lat="47.51385" lon="6.7644">
        <ele>367</ele>
        <time>2016-07-17T07:33:20.000Z</time>
      </trkpt>
      <trkpt lat="47.51386" lon="6.76438">
        <ele>367</ele>
        <time>2016-07-17T07:33:21.000Z</time>
      </trkpt>
      <trkpt lat="47.5139" lon="6.76435">
        <ele>367</ele>
        <time>2016-07-17T07:33:23.000Z</time>
      </trkpt>
      <trkpt lat="47.51392" lon="6.76433">
        <ele>368</ele>
        <time>2016-07-17T07:33:24.000Z</time>
      </trkpt>
      <trkpt lat="47.51394" lon="6.76431">
        <ele>368</ele>
        <time>2016-07-17T07:33:25.000Z</time>
      </trkpt>
      <trkpt lat="47.51396" lon="6.7643">
        <ele>368</ele>
        <time>2016-07-17T07:33:26.000Z</time>
      </trkpt>
      <trkpt lat="47.51399" lon="6.76428">
        <ele>368</ele>
        <time>2016-07-17T07:33:27.000Z</time>
      </trkpt>
      <trkpt lat="47.51401" lon="6.76427">
        <ele>368</ele>
        <time>2016-07-17T07:33:28.000Z</time>
      </trkpt>
      <trkpt lat="47.51404" lon="6.76426">
        <ele>369</ele>
        <time>2016-07-17T07:33:29.000Z</time>
      </trkpt>
      <trkpt lat="47.51406" lon="6.76425">
        <ele>369</ele>
        <time>2016-07-17T07:33:30.000Z</time>
      </trkpt>
      <trkpt lat="47.51409" lon="6.76423">
        <ele>369</ele>
        <time>2016-07-17T07:33:32.000Z</time>
      </trkpt>
      <trkpt lat="47.5141" lon="6.76422">
        <ele>370</ele>
        <time>2016-07-17T07:33:33.000Z</time>
      </trkpt>
      <trkpt lat="47.51414" lon="6.7642">
        <ele>370</ele>
        <time>2016-07-17T07:33:38.000Z</time>
      </trkpt>
      <trkpt lat="47.51415" lon="6.7642">
        <ele>370</ele>
        <time>2016-07-17T07:33:39.000Z</time>
      </trkpt>
      <trkpt lat="47.51419" lon="6.76419">
        <ele>371</ele>
        <time>2016-07-17T07:33:41.000Z</time>
      </trkpt>
      <trkpt lat="47.5142" lon="6.76419">
        <ele>372</ele>
        <time>2016-07-17T07:33:42.000Z</time>
      </trkpt>
      <trkpt lat="47.51423" lon="6.76418">
        <ele>372</ele>
        <time>2016-07-17T07:33:44.000Z</time>
      </trkpt>
      <trkpt lat="47.51425" lon="6.76417">
        <ele>372</ele>
        <time>2016-07-17T07:33:45.000Z</time>
      </trkpt>
      <trkpt lat="47.51427" lon="6.76414">
        <ele>374</ele>
        <time>2016-07-17T07:33:47.000Z</time>
      </trkpt>
      <trkpt lat="47.51429" lon="6.76413">
        <ele>374</ele>
        <time>2016-07-17T07:33:48.000Z</time>
      </trkpt>
      <trkpt lat="47.51432" lon="6.76411">
        <ele>375</ele>
        <time>2016-07-17T07:33:50.000Z</time>
      </trkpt>
      <trkpt lat="47.51434" lon="6.7641">
        <ele>375</ele>
        <time>2016-07-17T07:33:51.000Z</time>
      </trkpt>
      <trkpt lat="47.51437" lon="6.76409">
        <ele>376</ele>
        <time>2016-07-17T07:33:54.000Z</time>
      </trkpt>
      <trkpt lat="47.51438" lon="6.7641">
        <ele>376</ele>
        <time>2016-07-17T07:33:55.000Z</time>
      </trkpt>
      <trkpt lat="47.51441" lon="6.76412">
        <ele>376</ele>
        <time>2016-07-17T07:33:57.000Z</time>
      </trkpt>
      <trkpt lat="47.51443" lon="6.76413">
        <ele>376</ele>
        <time>2016-07-17T07:33:58.000Z</time>
      </trkpt>
      <trkpt lat="47.51447" lon="6.76414">
        <ele>377</ele>
        <time>2016-07-17T07:34:00.000Z</time>
      </trkpt>
      <trkpt lat="47.51449" lon="6.76414">
        <ele>377</ele>
        <time>2016-07-17T07:34:01.000Z</time>
      </trkpt>
      <trkpt lat="47.51452" lon="6.76414">
        <ele>377</ele>
        <time>2016-07-17T07:34:03.000Z</time>
      </trkpt>
      <trkpt lat="47.51454" lon="6.76414">
        <ele>377</ele>
        <time>2016-07-17T07:34:04.000Z</time>
      </trkpt>
      <trkpt lat="47.51458" lon="6.76415">
        <ele>378</ele>
        <time>2016-07-17T07:34:06.000Z</time>
      </trkpt>
      <trkpt lat="47.51461" lon="6.76415">
        <ele>378</ele>
        <time>2016-07-17T07:34:07.000Z</time>
      </trkpt>
      <trkpt lat="47.51463" lon="6.76415">
        <ele>378</ele>
        <time>2016-07-17T07:34:08.000Z</time>
      </trkpt>
      <trkpt lat="47.51465" lon="6.76416">
        <ele>378</ele>
        <time>2016-07-17T07:34:09.000Z</time>
      </trkpt>
      <trkpt lat="47.51469" lon="6.76417">
        <ele>376</ele>
        <time>2016-07-17T07:34:11.000Z</time>
      </trkpt>
      <trkpt lat="47.51471" lon="6.76418">
        <ele>376</ele>
        <time>2016-07-17T07:34:12.000Z</time>
      </trkpt>
      <trkpt lat="47.51475" lon="6.76418">
        <ele>376</ele>
        <time>2016-07-17T07:34:15.000Z</time>
      </trkpt>
      <trkpt lat="47.51476" lon="6.76418">
        <ele>376</ele>
        <time>2016-07-17T07:34:16.000Z</time>
      </trkpt>
      <trkpt lat="47.5148" lon="6.76419">
        <ele>377</ele>
        <time>2016-07-17T07:34:19.000Z</time>
      </trkpt>
      <trkpt lat="47.51482" lon="6.76419">
        <ele>377</ele>
        <time>2016-07-17T07:34:20.000Z</time>
      </trkpt>
      <trkpt lat="47.51485" lon="6.76418">
        <ele>377</ele>
        <time>2016-07-17T07:34:22.000Z</time>
      </trkpt>
      <trkpt lat="47.51487" lon="6.76418">
        <ele>378</ele>
        <time>2016-07-17T07:34:23.000Z</time>
      </trkpt>
      <trkpt lat="47.5149" lon="6.76416">
        <ele>380</ele>
        <time>2016-07-17T07:34:24.000Z</time>
      </trkpt>
      <trkpt lat="47.51492" lon="6.76415">
        <ele>380</ele>
        <time>2016-07-17T07:34:25.000Z</time>
      </trkpt>
      <trkpt lat="47.51495" lon="6.76414">
        <ele>380</ele>
        <time>2016-07-17T07:34:26.000Z</time>
      </trkpt>
      <trkpt lat="47.51497" lon="6.76414">
        <ele>380</ele>
        <time>2016-07-17T07:34:27.000Z</time>
      </trkpt>
      <trkpt lat="47.51501" lon="6.76412">
        <ele>381</ele>
        <time>2016-07-17T07:34:29.000Z</time>
      </trkpt>
      <trkpt lat="47.51503" lon="6.7641">
        <ele>382</ele>
        <time>2016-07-17T07:34:30.000Z</time>
      </trkpt>
      <trkpt lat="47.51505" lon="6.76407">
        <ele>382</ele>
        <time>2016-07-17T07:34:31.000Z</time>
      </trkpt>
      <trkpt lat="47.51507" lon="6.76405">
        <ele>383</ele>
        <time>2016-07-17T07:34:32.000Z</time>
      </trkpt>
      <trkpt lat="47.5151" lon="6.76401">
        <ele>383</ele>
        <time>2016-07-17T07:34:34.000Z</time>
      </trkpt>
      <trkpt lat="47.51512" lon="6.764">
        <ele>384</ele>
        <time>2016-07-17T07:34:35.000Z</time>
      </trkpt>
      <trkpt lat="47.51516" lon="6.76397">
        <ele>384</ele>
        <time>2016-07-17T07:34:37.000Z</time>
      </trkpt>
      <trkpt lat="47.51518" lon="6.76395">
        <ele>384</ele>
        <time>2016-07-17T07:34:38.000Z</time>
      </trkpt>
      <trkpt lat="47.51521" lon="6.76393">
        <ele>385</ele>
        <time>2016-07-17T07:34:40.000Z</time>
      </trkpt>
      <trkpt lat="47.51523" lon="6.76392">
        <ele>385</ele>
        <time>2016-07-17T07:34:41.000Z</time>
      </trkpt>
      <trkpt lat="47.51526" lon="6.76391">
        <ele>385</ele>
        <time>2016-07-17T07:34:42.000Z</time>
      </trkpt>
      <trkpt lat="47.51528" lon="6.7639">
        <ele>385</ele>
        <time>2016-07-17T07:34:43.000Z</time>
      </trkpt>
      <trkpt lat="47.51531" lon="6.76389">
        <ele>386</ele>
        <time>2016-07-17T07:34:45.000Z</time>
      </trkpt>
      <trkpt lat="47.51533" lon="6.76388">
        <ele>386</ele>
        <time>2016-07-17T07:34:46.000Z</time>
      </trkpt>
      <trkpt lat="47.51537" lon="6.76388">
        <ele>386</ele>
        <time>2016-07-17T07:34:48.000Z</time>
      </trkpt>
      <trkpt lat="47.51539" lon="6.76387">
        <ele>386</ele>
        <time>2016-07-17T07:34:49.000Z</time>
      </trkpt>
      <trkpt lat="47.51542" lon="6.76385">
        <ele>386</ele>
        <time>2016-07-17T07:34:51.000Z</time>
      </trkpt>
      <trkpt lat="47.51543" lon="6.76384">
        <ele>386</ele>
        <time>2016-07-17T07:34:52.000Z</time>
      </trkpt>
      <trkpt lat="47.51545" lon="6.76382">
        <ele>387</ele>
        <time>2016-07-17T07:34:53.000Z</time>
      </trkpt>
      <trkpt lat="47.51548" lon="6.76379">
        <ele>387</ele>
        <time>2016-07-17T07:34:54.000Z</time>
      </trkpt>
      <trkpt lat="47.51551" lon="6.76375">
        <ele>387</ele>
        <time>2016-07-17T07:34:55.000Z</time>
      </trkpt>
      <trkpt lat="47.51555" lon="6.76373">
        <ele>387</ele>
        <time>2016-07-17T07:34:56.000Z</time>
      </trkpt>
      <trkpt lat="47.51558" lon="6.7637">
        <ele>387</ele>
        <time>2016-07-17T07:34:57.000Z</time>
      </trkpt>
      <trkpt lat="47.51562" lon="6.76368">
        <ele>388</ele>
        <time>2016-07-17T07:34:58.000Z</time>
      </trkpt>
      <trkpt lat="47.51564" lon="6.76367">
        <ele>388</ele>
        <time>2016-07-17T07:34:59.000Z</time>
      </trkpt>
      <trkpt lat="47.51566" lon="6.76366">
        <ele>388</ele>
        <time>2016-07-17T07:35:00.000Z</time>
      </trkpt>
      <trkpt lat="47.5157" lon="6.76364">
        <ele>388</ele>
        <time>2016-07-17T07:35:02.000Z</time>
      </trkpt>
      <trkpt lat="47.51571" lon="6.76363">
        <ele>388</ele>
        <time>2016-07-17T07:35:03.000Z</time>
      </trkpt>
      <trkpt lat="47.51575" lon="6.76361">
        <ele>388</ele>
        <time>2016-07-17T07:35:05.000Z</time>
      </trkpt>
      <trkpt lat="47.51576" lon="6.7636">
        <ele>389</ele>
        <time>2016-07-17T07:35:06.000Z</time>
      </trkpt>
      <trkpt lat="47.5158" lon="6.76361">
        <ele>389</ele>
        <time>2016-07-17T07:35:08.000Z</time>
      </trkpt>
      <trkpt lat="47.51581" lon="6.76362">
        <ele>389</ele>
        <time>2016-07-17T07:35:09.000Z</time>
      </trkpt>
      <trkpt lat="47.51585" lon="6.76363">
        <ele>392</ele>
        <time>2016-07-17T07:35:11.000Z</time>
      </trkpt>
      <trkpt lat="47.51586" lon="6.76364">
        <ele>392</ele>
        <time>2016-07-17T07:35:12.000Z</time>
      </trkpt>
      <trkpt lat="47.5159" lon="6.76364">
        <ele>393</ele>
        <time>2016-07-17T07:35:14.000Z</time>
      </trkpt>
      <trkpt lat="47.51591" lon="6.76364">
        <ele>393</ele>
        <time>2016-07-17T07:35:15.000Z</time>
      </trkpt>
      <trkpt lat="47.51594" lon="6.76364">
        <ele>393</ele>
        <time>2016-07-17T07:35:17.000Z</time>
      </trkpt>
      <trkpt lat="47.51596" lon="6.76365">
        <ele>393</ele>
        <time>2016-07-17T07:35:18.000Z</time>
      </trkpt>
      <trkpt lat="47.51599" lon="6.76366">
        <ele>393</ele>
        <time>2016-07-17T07:35:20.000Z</time>
      </trkpt>
      <trkpt lat="47.51601" lon="6.76366">
        <ele>393</ele>
        <time>2016-07-17T07:35:21.000Z</time>
      </trkpt>
      <trkpt lat="47.51605" lon="6.76363">
        <ele>393</ele>
        <time>2016-07-17T07:35:23.000Z</time>
      </trkpt>
      <trkpt lat="47.51607" lon="6.76361">
        <ele>393</ele>
        <time>2016-07-17T07:35:24.000Z</time>
      </trkpt>
      <trkpt lat="47.51609" lon="6.7636">
        <ele>393</ele>
        <time>2016-07-17T07:35:25.000Z</time>
      </trkpt>
      <trkpt lat="47.51611" lon="6.76358">
        <ele>393</ele>
        <time>2016-07-17T07:35:26.000Z</time>
      </trkpt>
      <trkpt lat="47.51614" lon="6.76358">
        <ele>393</ele>
        <time>2016-07-17T07:35:27.000Z</time>
      </trkpt>
      <trkpt lat="47.51616" lon="6.76357">
        <ele>393</ele>
        <time>2016-07-17T07:35:28.000Z</time>
      </trkpt>
      <trkpt lat="47.5162" lon="6.76358">
        <ele>393</ele>
        <time>2016-07-17T07:35:30.000Z</time>
      </trkpt>
      <trkpt lat="47.51622" lon="6.76358">
        <ele>393</ele>
        <time>2016-07-17T07:35:31.000Z</time>
      </trkpt>
      <trkpt lat="47.51625" lon="6.76358">
        <ele>394</ele>
        <time>2016-07-17T07:35:33.000Z</time>
      </trkpt>
      <trkpt lat="47.51627" lon="6.76358">
        <ele>394</ele>
        <time>2016-07-17T07:35:34.000Z</time>
      </trkpt>
      <trkpt lat="47.51631" lon="6.76356">
        <ele>394</ele>
        <time>2016-07-17T07:35:36.000Z</time>
      </trkpt>
      <trkpt lat="47.51632" lon="6.76355">
        <ele>394</ele>
        <time>2016-07-17T07:35:37.000Z</time>
      </trkpt>
      <trkpt lat="47.51635" lon="6.76354">
        <ele>394</ele>
        <time>2016-07-17T07:35:39.000Z</time>
      </trkpt>
      <trkpt lat="47.51637" lon="6.76353">
        <ele>394</ele>
        <time>2016-07-17T07:35:40.000Z</time>
      </trkpt>
      <trkpt lat="47.5164" lon="6.76352">
        <ele>394</ele>
        <time>2016-07-17T07:35:42.000Z</time>
      </trkpt>
      <trkpt lat="47.51641" lon="6.76351">
        <ele>395</ele>
        <time>2016-07-17T07:35:43.000Z</time>
      </trkpt>
      <trkpt lat="47.51645" lon="6.76349">
        <ele>395</ele>
        <time>2016-07-17T07:35:45.000Z</time>
      </trkpt>
      <trkpt lat="47.51647" lon="6.76349">
        <ele>395</ele>
        <time>2016-07-17T07:35:46.000Z</time>
      </trkpt>
      <trkpt lat="47.51651" lon="6.76351">
        <ele>395</ele>
        <time>2016-07-17T07:35:49.000Z</time>
      </trkpt>
      <trkpt lat="47.51652" lon="6.76351">
        <ele>395</ele>
        <time>2016-07-17T07:35:50.000Z</time>
      </trkpt>
      <trkpt lat="47.51656" lon="6.76351">
        <ele>395</ele>
        <time>2016-07-17T07:35:52.000Z</time>
      </trkpt>
      <trkpt lat="47.51658" lon="6.76351">
        <ele>395</ele>
        <time>2016-07-17T07:35:53.000Z</time>
      </trkpt>
      <trkpt lat="47.51661" lon="6.76353">
        <ele>395</ele>
        <time>2016-07-17T07:35:55.000Z</time>
      </trkpt>
      <trkpt lat="47.51663" lon="6.76354">
        <ele>395</ele>
        <time>2016-07-17T07:35:56.000Z</time>
      </trkpt>
      <trkpt lat="47.51667" lon="6.76356">
        <ele>396</ele>
        <time>2016-07-17T07:35:58.000Z</time>
      </trkpt>
      <trkpt lat="47.51669" lon="6.76356">
        <ele>396</ele>
        <time>2016-07-17T07:35:59.000Z</time>
      </trkpt>
      <trkpt lat="47.51672" lon="6.76357">
        <ele>396</ele>
        <time>2016-07-17T07:36:00.000Z</time>
      </trkpt>
      <trkpt lat="47.51674" lon="6.76357">
        <ele>395</ele>
        <time>2016-07-17T07:36:01.000Z</time>
      </trkpt>
      <trkpt lat="47.51678" lon="6.76356">
        <ele>395</ele>
        <time>2016-07-17T07:36:03.000Z</time>
      </trkpt>
      <trkpt lat="47.51679" lon="6.76355">
        <ele>395</ele>
        <time>2016-07-17T07:36:04.000Z</time>
      </trkpt>
      <trkpt lat="47.51683" lon="6.76354">
        <ele>395</ele>
        <time>2016-07-17T07:36:06.000Z</time>
      </trkpt>
      <trkpt lat="47.51685" lon="6.76354">
        <ele>395</ele>
        <time>2016-07-17T07:36:07.000Z</time>
      </trkpt>
      <trkpt lat="47.51689" lon="6.76353">
        <ele>395</ele>
        <time>2016-07-17T07:36:09.000Z</time>
      </trkpt>
      <trkpt lat="47.51691" lon="6.76351">
        <ele>395</ele>
        <time>2016-07-17T07:36:10.000Z</time>
      </trkpt>
      <trkpt lat="47.51694" lon="6.76349">
        <ele>395</ele>
        <time>2016-07-17T07:36:12.000Z</time>
      </trkpt>
      <trkpt lat="47.51695" lon="6.76348">
        <ele>395</ele>
        <time>2016-07-17T07:36:13.000Z</time>
      </trkpt>
      <trkpt lat="47.51698" lon="6.76348">
        <ele>395</ele>
        <time>2016-07-17T07:36:15.000Z</time>
      </trkpt>
      <trkpt lat="47.517" lon="6.76349">
        <ele>395</ele>
        <time>2016-07-17T07:36:16.000Z</time>
      </trkpt>
      <trkpt lat="47.51704" lon="6.76349">
        <ele>395</ele>
        <time>2016-07-17T07:36:18.000Z</time>
      </trkpt>
      <trkpt lat="47.51706" lon="6.76349">
        <ele>395</ele>
        <time>2016-07-17T07:36:19.000Z</time>
      </trkpt>
      <trkpt lat="47.5171" lon="6.7635">
        <ele>395</ele>
        <time>2016-07-17T07:36:21.000Z</time>
      </trkpt>
      <trkpt lat="47.51712" lon="6.7635">
        <ele>394</ele>
        <time>2016-07-17T07:36:22.000Z</time>
      </trkpt>
      <trkpt lat="47.51716" lon="6.7635">
        <ele>394</ele>
        <time>2016-07-17T07:36:24.000Z</time>
      </trkpt>
      <trkpt lat="47.51718" lon="6.7635">
        <ele>394</ele>
        <time>2016-07-17T07:36:25.000Z</time>
      </trkpt>
      <trkpt lat="47.51721" lon="6.76349">
        <ele>394</ele>
        <time>2016-07-17T07:36:27.000Z</time>
      </trkpt>
      <trkpt lat="47.51723" lon="6.76348">
        <ele>394</ele>
        <time>2016-07-17T07:36:28.000Z</time>
      </trkpt>
      <trkpt lat="47.51727" lon="6.76346">
        <ele>394</ele>
        <time>2016-07-17T07:36:31.000Z</time>
      </trkpt>
      <trkpt lat="47.51728" lon="6.76345">
        <ele>394</ele>
        <time>2016-07-17T07:36:32.000Z</time>
      </trkpt>
      <trkpt lat="47.51731" lon="6.76341">
        <ele>394</ele>
        <time>2016-07-17T07:36:34.000Z</time>
      </trkpt>
      <trkpt lat="47.51733" lon="6.76338">
        <ele>394</ele>
        <time>2016-07-17T07:36:35.000Z</time>
      </trkpt>
      <trkpt lat="47.51735" lon="6.76334">
        <ele>394</ele>
        <time>2016-07-17T07:36:36.000Z</time>
      </trkpt>
      <trkpt lat="47.51737" lon="6.76329">
        <ele>396</ele>
        <time>2016-07-17T07:36:37.000Z</time>
      </trkpt>
      <trkpt lat="47.51739" lon="6.76325">
        <ele>396</ele>
        <time>2016-07-17T07:36:38.000Z</time>
      </trkpt>
      <trkpt lat="47.5174" lon="6.7632">
        <ele>397</ele>
        <time>2016-07-17T07:36:39.000Z</time>
      </trkpt>
      <trkpt lat="47.51741" lon="6.76316">
        <ele>397</ele>
        <time>2016-07-17T07:36:40.000Z</time>
      </trkpt>
      <trkpt lat="47.51743" lon="6.76313">
        <ele>397</ele>
        <time>2016-07-17T07:36:41.000Z</time>
      </trkpt>
      <trkpt lat="47.51746" lon="6.76311">
        <ele>397</ele>
        <time>2016-07-17T07:36:42.000Z</time>
      </trkpt>
      <trkpt lat="47.51749" lon="6.76309">
        <ele>398</ele>
        <time>2016-07-17T07:36:43.000Z</time>
      </trkpt>
      <trkpt lat="47.51752" lon="6.76308">
        <ele>396</ele>
        <time>2016-07-17T07:36:44.000Z</time>
      </trkpt>
      <trkpt lat="47.51756" lon="6.76308">
        <ele>396</ele>
        <time>2016-07-17T07:36:45.000Z</time>
      </trkpt>
      <trkpt lat="47.51759" lon="6.76307">
        <ele>396</ele>
        <time>2016-07-17T07:36:46.000Z</time>
      </trkpt>
      <trkpt lat="47.51763" lon="6.76307">
        <ele>396</ele>
        <time>2016-07-17T07:36:47.000Z</time>
      </trkpt>
      <trkpt lat="47.51766" lon="6.76307">
        <ele>396</ele>
        <time>2016-07-17T07:36:48.000Z</time>
      </trkpt>
      <trkpt lat="47.51769" lon="6.76308">
        <ele>396</ele>
        <time>2016-07-17T07:36:49.000Z</time>
      </trkpt>
      <trkpt lat="47.51772" lon="6.76308">
        <ele>396</ele>
        <time>2016-07-17T07:36:50.000Z</time>
      </trkpt>
      <trkpt lat="47.51775" lon="6.76308">
        <ele>396</ele>
        <time>2016-07-17T07:36:51.000Z</time>
      </trkpt>
      <trkpt lat="47.51779" lon="6.76307">
        <ele>396</ele>
        <time>2016-07-17T07:36:54.000Z</time>
      </trkpt>
      <trkpt lat="47.5178" lon="6.76307">
        <ele>395</ele>
        <time>2016-07-17T07:36:55.000Z</time>
      </trkpt>
      <trkpt lat="47.51784" lon="6.76309">
        <ele>395</ele>
        <time>2016-07-17T07:36:58.000Z</time>
      </trkpt>
      <trkpt lat="47.51786" lon="6.76308">
        <ele>395</ele>
        <time>2016-07-17T07:36:59.000Z</time>
      </trkpt>
      <trkpt lat="47.51788" lon="6.76305">
        <ele>395</ele>
        <time>2016-07-17T07:37:00.000Z</time>
      </trkpt>
      <trkpt lat="47.51789" lon="6.76302">
        <ele>396</ele>
        <time>2016-07-17T07:37:01.000Z</time>
      </trkpt>
      <trkpt lat="47.51792" lon="6.76297">
        <ele>396</ele>
        <time>2016-07-17T07:37:02.000Z</time>
      </trkpt>
      <trkpt lat="47.51794" lon="6.76294">
        <ele>396</ele>
        <time>2016-07-17T07:37:03.000Z</time>
      </trkpt>
      <trkpt lat="47.51796" lon="6.7629">
        <ele>396</ele>
        <time>2016-07-17T07:37:04.000Z</time>
      </trkpt>
      <trkpt lat="47.51799" lon="6.76286">
        <ele>396</ele>
        <time>2016-07-17T07:37:05.000Z</time>
      </trkpt>
      <trkpt lat="47.51801" lon="6.76282">
        <ele>396</ele>
        <time>2016-07-17T07:37:06.000Z</time>
      </trkpt>
      <trkpt lat="47.51803" lon="6.76277">
        <ele>396</ele>
        <time>2016-07-17T07:37:07.000Z</time>
      </trkpt>
      <trkpt lat="47.51805" lon="6.76272">
        <ele>396</ele>
        <time>2016-07-17T07:37:08.000Z</time>
      </trkpt>
      <trkpt lat="47.51807" lon="6.76267">
        <ele>396</ele>
        <time>2016-07-17T07:37:09.000Z</time>
      </trkpt>
      <trkpt lat="47.51809" lon="6.76262">
        <ele>396</ele>
        <time>2016-07-17T07:37:10.000Z</time>
      </trkpt>
      <trkpt lat="47.51811" lon="6.76258">
        <ele>396</ele>
        <time>2016-07-17T07:37:11.000Z</time>
      </trkpt>
      <trkpt lat="47.51813" lon="6.76254">
        <ele>396</ele>
        <time>2016-07-17T07:37:12.000Z</time>
      </trkpt>
      <trkpt lat="47.51815" lon="6.7625">
        <ele>396</ele>
        <time>2016-07-17T07:37:13.000Z</time>
      </trkpt>
      <trkpt lat="47.51817" lon="6.76247">
        <ele>397</ele>
        <time>2016-07-17T07:37:14.000Z</time>
      </trkpt>
      <trkpt lat="47.5182" lon="6.76243">
        <ele>397</ele>
        <time>2016-07-17T07:37:15.000Z</time>
      </trkpt>
      <trkpt lat="47.51823" lon="6.7624">
        <ele>397</ele>
        <time>2016-07-17T07:37:16.000Z</time>
      </trkpt>
      <trkpt lat="47.51825" lon="6.76236">
        <ele>397</ele>
        <time>2016-07-17T07:37:17.000Z</time>
      </trkpt>
      <trkpt lat="47.51828" lon="6.76232">
        <ele>398</ele>
        <time>2016-07-17T07:37:18.000Z</time>
      </trkpt>
      <trkpt lat="47.51831" lon="6.76229">
        <ele>398</ele>
        <time>2016-07-17T07:37:19.000Z</time>
      </trkpt>
      <trkpt lat="47.51834" lon="6.76225">
        <ele>396</ele>
        <time>2016-07-17T07:37:20.000Z</time>
      </trkpt>
      <trkpt lat="47.51837" lon="6.76221">
        <ele>396</ele>
        <time>2016-07-17T07:37:21.000Z</time>
      </trkpt>
      <trkpt lat="47.5184" lon="6.76217">
        <ele>396</ele>
        <time>2016-07-17T07:37:22.000Z</time>
      </trkpt>
      <trkpt lat="47.51843" lon="6.76213">
        <ele>396</ele>
        <time>2016-07-17T07:37:23.000Z</time>
      </trkpt>
      <trkpt lat="47.51846" lon="6.76209">
        <ele>396</ele>
        <time>2016-07-17T07:37:24.000Z</time>
      </trkpt>
      <trkpt lat="47.51849" lon="6.76205">
        <ele>396</ele>
        <time>2016-07-17T07:37:25.000Z</time>
      </trkpt>
      <trkpt lat="47.51853" lon="6.76203">
        <ele>396</ele>
        <time>2016-07-17T07:37:26.000Z</time>
      </trkpt>
      <trkpt lat="47.51857" lon="6.76201">
        <ele>396</ele>
        <time>2016-07-17T07:37:27.000Z</time>
      </trkpt>
      <trkpt lat="47.5186" lon="6.76199">
        <ele>396</ele>
        <time>2016-07-17T07:37:28.000Z</time>
      </trkpt>
      <trkpt lat="47.51863" lon="6.76198">
        <ele>396</ele>
        <time>2016-07-17T07:37:29.000Z</time>
      </trkpt>
      <trkpt lat="47.51867" lon="6.76197">
        <ele>396</ele>
        <time>2016-07-17T07:37:30.000Z</time>
      </trkpt>
      <trkpt lat="47.5187" lon="6.76195">
        <ele>396</ele>
        <time>2016-07-17T07:37:31.000Z</time>
      </trkpt>
      <trkpt lat="47.51873" lon="6.76193">
        <ele>396</ele>
        <time>2016-07-17T07:37:32.000Z</time>
      </trkpt>
      <trkpt lat="47.51877" lon="6.7619">
        <ele>396</ele>
        <time>2016-07-17T07:37:33.000Z</time>
      </trkpt>
      <trkpt lat="47.5188" lon="6.76188">
        <ele>395</ele>
        <time>2016-07-17T07:37:34.000Z</time>
      </trkpt>
      <trkpt lat="47.51884" lon="6.76187">
        <ele>395</ele>
        <time>2016-07-17T07:37:35.000Z</time>
      </trkpt>
      <trkpt lat="47.51887" lon="6.76187">
        <ele>395</ele>
        <time>2016-07-17T07:37:36.000Z</time>
      </trkpt>
      <trkpt lat="47.5189" lon="6.76187">
        <ele>395</ele>
        <time>2016-07-17T07:37:37.000Z</time>
      </trkpt>
      <trkpt lat="47.51895" lon="6.76187">
        <ele>395</ele>
        <time>2016-07-17T07:37:38.000Z</time>
      </trkpt>
      <trkpt lat="47.51899" lon="6.76186">
        <ele>395</ele>
        <time>2016-07-17T07:37:39.000Z</time>
      </trkpt>
      <trkpt lat="47.51904" lon="6.76185">
        <ele>395</ele>
        <time>2016-07-17T07:37:40.000Z</time>
      </trkpt>
      <trkpt lat="47.51909" lon="6.76184">
        <ele>395</ele>
        <time>2016-07-17T07:37:41.000Z</time>
      </trkpt>
      <trkpt lat="47.51913" lon="6.76182">
        <ele>395</ele>
        <time>2016-07-17T07:37:42.000Z</time>
      </trkpt>
      <trkpt lat="47.51918" lon="6.7618">
        <ele>394</ele>
        <time>2016-07-17T07:37:43.000Z</time>
      </trkpt>
      <trkpt lat="47.51922" lon="6.76178">
        <ele>393</ele>
        <time>2016-07-17T07:37:44.000Z</time>
      </trkpt>
      <trkpt lat="47.5193" lon="6.7617">
        <ele>393</ele>
        <time>2016-07-17T07:37:45.000Z</time>
      </trkpt>
      <trkpt lat="47.51934" lon="6.76168">
        <ele>393</ele>
        <time>2016-07-17T07:37:46.000Z</time>
      </trkpt>
      <trkpt lat="47.51938" lon="6.76164">
        <ele>393</ele>
        <time>2016-07-17T07:37:47.000Z</time>
      </trkpt>
      <trkpt lat="47.51944" lon="6.7616">
        <ele>393</ele>
        <time>2016-07-17T07:37:48.000Z</time>
      </trkpt>
      <trkpt lat="47.5195" lon="6.76156">
        <ele>393</ele>
        <time>2016-07-17T07:37:49.000Z</time>
      </trkpt>
      <trkpt lat="47.51956" lon="6.76151">
        <ele>393</ele>
        <time>2016-07-17T07:37:50.000Z</time>
      </trkpt>
      <trkpt lat="47.51962" lon="6.76151">
        <ele>392</ele>
        <time>2016-07-17T07:37:51.000Z</time>
      </trkpt>
      <trkpt lat="47.51966" lon="6.76151">
        <ele>392</ele>
        <time>2016-07-17T07:37:52.000Z</time>
      </trkpt>
      <trkpt lat="47.5197" lon="6.76152">
        <ele>392</ele>
        <time>2016-07-17T07:37:53.000Z</time>
      </trkpt>
      <trkpt lat="47.51975" lon="6.76151">
        <ele>392</ele>
        <time>2016-07-17T07:37:54.000Z</time>
      </trkpt>
      <trkpt lat="47.51979" lon="6.76149">
        <ele>392</ele>
        <time>2016-07-17T07:37:55.000Z</time>
      </trkpt>
      <trkpt lat="47.51985" lon="6.76146">
        <ele>391</ele>
        <time>2016-07-17T07:37:56.000Z</time>
      </trkpt>
      <trkpt lat="47.51993" lon="6.7614">
        <ele>392</ele>
        <time>2016-07-17T07:37:57.000Z</time>
      </trkpt>
      <trkpt lat="47.52001" lon="6.76133">
        <ele>388</ele>
        <time>2016-07-17T07:37:58.000Z</time>
      </trkpt>
      <trkpt lat="47.52007" lon="6.76128">
        <ele>388</ele>
        <time>2016-07-17T07:37:59.000Z</time>
      </trkpt>
      <trkpt lat="47.52011" lon="6.76125">
        <ele>388</ele>
        <time>2016-07-17T07:38:00.000Z</time>
      </trkpt>
      <trkpt lat="47.52014" lon="6.76121">
        <ele>388</ele>
        <time>2016-07-17T07:38:01.000Z</time>
      </trkpt>
      <trkpt lat="47.52018" lon="6.76118">
        <ele>388</ele>
        <time>2016-07-17T07:38:02.000Z</time>
      </trkpt>
      <trkpt lat="47.52022" lon="6.76116">
        <ele>387</ele>
        <time>2016-07-17T07:38:03.000Z</time>
      </trkpt>
      <trkpt lat="47.52027" lon="6.76112">
        <ele>387</ele>
        <time>2016-07-17T07:38:04.000Z</time>
      </trkpt>
      <trkpt lat="47.52031" lon="6.7611">
        <ele>387</ele>
        <time>2016-07-17T07:38:05.000Z</time>
      </trkpt>
      <trkpt lat="47.52035" lon="6.76107">
        <ele>387</ele>
        <time>2016-07-17T07:38:06.000Z</time>
      </trkpt>
      <trkpt lat="47.52039" lon="6.76106">
        <ele>387</ele>
        <time>2016-07-17T07:38:07.000Z</time>
      </trkpt>
      <trkpt lat="47.52043" lon="6.761">
        <ele>387</ele>
        <time>2016-07-17T07:38:08.000Z</time>
      </trkpt>
      <trkpt lat="47.52047" lon="6.76097">
        <ele>386</ele>
        <time>2016-07-17T07:38:09.000Z</time>
      </trkpt>
      <trkpt lat="47.52052" lon="6.76094">
        <ele>386</ele>
        <time>2016-07-17T07:38:10.000Z</time>
      </trkpt>
      <trkpt lat="47.52056" lon="6.76091">
        <ele>386</ele>
        <time>2016-07-17T07:38:11.000Z</time>
      </trkpt>
      <trkpt lat="47.52063" lon="6.76086">
        <ele>386</ele>
        <time>2016-07-17T07:38:12.000Z</time>
      </trkpt>
      <trkpt lat="47.52067" lon="6.76082">
        <ele>387</ele>
        <time>2016-07-17T07:38:13.000Z</time>
      </trkpt>
      <trkpt lat="47.52073" lon="6.76079">
        <ele>386</ele>
        <time>2016-07-17T07:38:14.000Z</time>
      </trkpt>
      <trkpt lat="47.52079" lon="6.76073">
        <ele>386</ele>
        <time>2016-07-17T07:38:15.000Z</time>
      </trkpt>
      <trkpt lat="47.52086" lon="6.76066">
        <ele>384</ele>
        <time>2016-07-17T07:38:16.000Z</time>
      </trkpt>
      <trkpt lat="47.52091" lon="6.7606">
        <ele>384</ele>
        <time>2016-07-17T07:38:17.000Z</time>
      </trkpt>
      <trkpt lat="47.52097" lon="6.76056">
        <ele>384</ele>
        <time>2016-07-17T07:38:18.000Z</time>
      </trkpt>
      <trkpt lat="47.52101" lon="6.76051">
        <ele>384</ele>
        <time>2016-07-17T07:38:19.000Z</time>
      </trkpt>
      <trkpt lat="47.52107" lon="6.76047">
        <ele>384</ele>
        <time>2016-07-17T07:38:20.000Z</time>
      </trkpt>
      <trkpt lat="47.52116" lon="6.76038">
        <ele>384</ele>
        <time>2016-07-17T07:38:21.000Z</time>
      </trkpt>
      <trkpt lat="47.52125" lon="6.7603">
        <ele>384</ele>
        <time>2016-07-17T07:38:22.000Z</time>
      </trkpt>
      <trkpt lat="47.52131" lon="6.76025">
        <ele>384</ele>
        <time>2016-07-17T07:38:23.000Z</time>
      </trkpt>
      <trkpt lat="47.52137" lon="6.76023">
        <ele>383</ele>
        <time>2016-07-17T07:38:24.000Z</time>
      </trkpt>
      <trkpt lat="47.52144" lon="6.76017">
        <ele>383</ele>
        <time>2016-07-17T07:38:25.000Z</time>
      </trkpt>
      <trkpt lat="47.52153" lon="6.76008">
        <ele>382</ele>
        <time>2016-07-17T07:38:26.000Z</time>
      </trkpt>
      <trkpt lat="47.5216" lon="6.76001">
        <ele>382</ele>
        <time>2016-07-17T07:38:27.000Z</time>
      </trkpt>
      <trkpt lat="47.5217" lon="6.75993">
        <ele>381</ele>
        <time>2016-07-17T07:38:28.000Z</time>
      </trkpt>
      <trkpt lat="47.52176" lon="6.75985">
        <ele>380</ele>
        <time>2016-07-17T07:38:29.000Z</time>
      </trkpt>
      <trkpt lat="47.52181" lon="6.75978">
        <ele>380</ele>
        <time>2016-07-17T07:38:30.000Z</time>
      </trkpt>
      <trkpt lat="47.52187" lon="6.75969">
        <ele>380</ele>
        <time>2016-07-17T07:38:31.000Z</time>
      </trkpt>
      <trkpt lat="47.52194" lon="6.75964">
        <ele>380</ele>
        <time>2016-07-17T07:38:32.000Z</time>
      </trkpt>
      <trkpt lat="47.52199" lon="6.75956">
        <ele>380</ele>
        <time>2016-07-17T07:38:33.000Z</time>
      </trkpt>
      <trkpt lat="47.52204" lon="6.7595">
        <ele>379</ele>
        <time>2016-07-17T07:38:34.000Z</time>
      </trkpt>
      <trkpt lat="47.5221" lon="6.75946">
        <ele>379</ele>
        <time>2016-07-17T07:38:35.000Z</time>
      </trkpt>
      <trkpt lat="47.52215" lon="6.75943">
        <ele>378</ele>
        <time>2016-07-17T07:38:36.000Z</time>
      </trkpt>
      <trkpt lat="47.5222" lon="6.75944">
        <ele>378</ele>
        <time>2016-07-17T07:38:37.000Z</time>
      </trkpt>
      <trkpt lat="47.52222" lon="6.75947">
        <ele>378</ele>
        <time>2016-07-17T07:38:38.000Z</time>
      </trkpt>
      <trkpt lat="47.52226" lon="6.75949">
        <ele>378</ele>
        <time>2016-07-17T07:38:39.000Z</time>
      </trkpt>
      <trkpt lat="47.52229" lon="6.75952">
        <ele>378</ele>
        <time>2016-07-17T07:38:40.000Z</time>
      </trkpt>
      <trkpt lat="47.52232" lon="6.75955">
        <ele>378</ele>
        <time>2016-07-17T07:38:41.000Z</time>
      </trkpt>
      <trkpt lat="47.52236" lon="6.75958">
        <ele>378</ele>
        <time>2016-07-17T07:38:42.000Z</time>
      </trkpt>
      <trkpt lat="47.52239" lon="6.75957">
        <ele>377</ele>
        <time>2016-07-17T07:38:43.000Z</time>
      </trkpt>
      <trkpt lat="47.52243" lon="6.7596">
        <ele>377</ele>
        <time>2016-07-17T07:38:44.000Z</time>
      </trkpt>
      <trkpt lat="47.52246" lon="6.75962">
        <ele>377</ele>
        <time>2016-07-17T07:38:45.000Z</time>
      </trkpt>
      <trkpt lat="47.52248" lon="6.75963">
        <ele>377</ele>
        <time>2016-07-17T07:38:46.000Z</time>
      </trkpt>
      <trkpt lat="47.52251" lon="6.75965">
        <ele>374</ele>
        <time>2016-07-17T07:38:47.000Z</time>
      </trkpt>
      <trkpt lat="47.52253" lon="6.75966">
        <ele>374</ele>
        <time>2016-07-17T07:38:48.000Z</time>
      </trkpt>
      <trkpt lat="47.52256" lon="6.75968">
        <ele>375</ele>
        <time>2016-07-17T07:38:49.000Z</time>
      </trkpt>
      <trkpt lat="47.52258" lon="6.7597">
        <ele>375</ele>
        <time>2016-07-17T07:38:50.000Z</time>
      </trkpt>
      <trkpt lat="47.52261" lon="6.75972">
        <ele>375</ele>
        <time>2016-07-17T07:38:51.000Z</time>
      </trkpt>
      <trkpt lat="47.52263" lon="6.75974">
        <ele>375</ele>
        <time>2016-07-17T07:38:52.000Z</time>
      </trkpt>
      <trkpt lat="47.52265" lon="6.75976">
        <ele>375</ele>
        <time>2016-07-17T07:38:53.000Z</time>
      </trkpt>
      <trkpt lat="47.52268" lon="6.75978">
        <ele>375</ele>
        <time>2016-07-17T07:38:54.000Z</time>
      </trkpt>
      <trkpt lat="47.52271" lon="6.7598">
        <ele>375</ele>
        <time>2016-07-17T07:38:55.000Z</time>
      </trkpt>
      <trkpt lat="47.52274" lon="6.75981">
        <ele>375</ele>
        <time>2016-07-17T07:38:56.000Z</time>
      </trkpt>
      <trkpt lat="47.52277" lon="6.75983">
        <ele>375</ele>
        <time>2016-07-17T07:38:57.000Z</time>
      </trkpt>
      <trkpt lat="47.5228" lon="6.75984">
        <ele>375</ele>
        <time>2016-07-17T07:38:58.000Z</time>
      </trkpt>
      <trkpt lat="47.52282" lon="6.75986">
        <ele>375</ele>
        <time>2016-07-17T07:38:59.000Z</time>
      </trkpt>
      <trkpt lat="47.52285" lon="6.75988">
        <ele>375</ele>
        <time>2016-07-17T07:39:00.000Z</time>
      </trkpt>
      <trkpt lat="47.52288" lon="6.7599">
        <ele>375</ele>
        <time>2016-07-17T07:39:01.000Z</time>
      </trkpt>
      <trkpt lat="47.52291" lon="6.75992">
        <ele>375</ele>
        <time>2016-07-17T07:39:02.000Z</time>
      </trkpt>
      <trkpt lat="47.52294" lon="6.75994">
        <ele>375</ele>
        <time>2016-07-17T07:39:03.000Z</time>
      </trkpt>
      <trkpt lat="47.52297" lon="6.75995">
        <ele>375</ele>
        <time>2016-07-17T07:39:04.000Z</time>
      </trkpt>
      <trkpt lat="47.52299" lon="6.75997">
        <ele>375</ele>
        <time>2016-07-17T07:39:05.000Z</time>
      </trkpt>
      <trkpt lat="47.52302" lon="6.75999">
        <ele>375</ele>
        <time>2016-07-17T07:39:06.000Z</time>
      </trkpt>
      <trkpt lat="47.52304" lon="6.76">
        <ele>378</ele>
        <time>2016-07-17T07:39:07.000Z</time>
      </trkpt>
      <trkpt lat="47.52307" lon="6.76002">
        <ele>378</ele>
        <time>2016-07-17T07:39:08.000Z</time>
      </trkpt>
      <trkpt lat="47.52309" lon="6.76004">
        <ele>378</ele>
        <time>2016-07-17T07:39:09.000Z</time>
      </trkpt>
      <trkpt lat="47.52312" lon="6.76006">
        <ele>378</ele>
        <time>2016-07-17T07:39:10.000Z</time>
      </trkpt>
      <trkpt lat="47.52314" lon="6.76007">
        <ele>378</ele>
        <time>2016-07-17T07:39:11.000Z</time>
      </trkpt>
      <trkpt lat="47.52317" lon="6.76009">
        <ele>378</ele>
        <time>2016-07-17T07:39:12.000Z</time>
      </trkpt>
      <trkpt lat="47.52319" lon="6.76011">
        <ele>378</ele>
        <time>2016-07-17T07:39:13.000Z</time>
      </trkpt>
      <trkpt lat="47.52322" lon="6.76013">
        <ele>378</ele>
        <time>2016-07-17T07:39:14.000Z</time>
      </trkpt>
      <trkpt lat="47.52324" lon="6.76014">
        <ele>378</ele>
        <time>2016-07-17T07:39:15.000Z</time>
      </trkpt>
      <trkpt lat="47.52327" lon="6.76016">
        <ele>378</ele>
        <time>2016-07-17T07:39:16.000Z</time>
      </trkpt>
      <trkpt lat="47.52329" lon="6.76018">
        <ele>378</ele>
        <time>2016-07-17T07:39:17.000Z</time>
      </trkpt>
      <trkpt lat="47.52331" lon="6.76019">
        <ele>378</ele>
        <time>2016-07-17T07:39:18.000Z</time>
      </trkpt>
      <trkpt lat="47.52333" lon="6.76021">
        <ele>378</ele>
        <time>2016-07-17T07:39:19.000Z</time>
      </trkpt>
      <trkpt lat="47.52335" lon="6.76023">
        <ele>379</ele>
        <time>2016-07-17T07:39:20.000Z</time>
      </trkpt>
      <trkpt lat="47.52338" lon="6.76025">
        <ele>379</ele>
        <time>2016-07-17T07:39:21.000Z</time>
      </trkpt>
      <trkpt lat="47.5234" lon="6.76027">
        <ele>379</ele>
        <time>2016-07-17T07:39:22.000Z</time>
      </trkpt>
      <trkpt lat="47.52342" lon="6.76028">
        <ele>379</ele>
        <time>2016-07-17T07:39:23.000Z</time>
      </trkpt>
      <trkpt lat="47.52344" lon="6.7603">
        <ele>379</ele>
        <time>2016-07-17T07:39:24.000Z</time>
      </trkpt>
      <trkpt lat="47.52346" lon="6.76032">
        <ele>379</ele>
        <time>2016-07-17T07:39:25.000Z</time>
      </trkpt>
      <trkpt lat="47.52348" lon="6.76034">
        <ele>379</ele>
        <time>2016-07-17T07:39:26.000Z</time>
      </trkpt>
      <trkpt lat="47.5235" lon="6.76035">
        <ele>379</ele>
        <time>2016-07-17T07:39:27.000Z</time>
      </trkpt>
      <trkpt lat="47.52353" lon="6.76037">
        <ele>379</ele>
        <time>2016-07-17T07:39:28.000Z</time>
      </trkpt>
      <trkpt lat="47.52355" lon="6.76039">
        <ele>379</ele>
        <time>2016-07-17T07:39:29.000Z</time>
      </trkpt>
      <trkpt lat="47.52357" lon="6.7604">
        <ele>379</ele>
        <time>2016-07-17T07:39:30.000Z</time>
      </trkpt>
      <trkpt lat="47.5236" lon="6.76042">
        <ele>379</ele>
        <time>2016-07-17T07:39:31.000Z</time>
      </trkpt>
      <trkpt lat="47.52362" lon="6.76043">
        <ele>380</ele>
        <time>2016-07-17T07:39:32.000Z</time>
      </trkpt>
      <trkpt lat="47.52365" lon="6.76044">
        <ele>380</ele>
        <time>2016-07-17T07:39:33.000Z</time>
      </trkpt>
      <trkpt lat="47.52367" lon="6.76046">
        <ele>380</ele>
        <time>2016-07-17T07:39:34.000Z</time>
      </trkpt>
      <trkpt lat="47.52369" lon="6.76047">
        <ele>380</ele>
        <time>2016-07-17T07:39:35.000Z</time>
      </trkpt>
      <trkpt lat="47.52372" lon="6.76048">
        <ele>380</ele>
        <time>2016-07-17T07:39:36.000Z</time>
      </trkpt>
      <trkpt lat="47.52374" lon="6.7605">
        <ele>380</ele>
        <time>2016-07-17T07:39:37.000Z</time>
      </trkpt>
      <trkpt lat="47.52376" lon="6.76051">
        <ele>380</ele>
        <time>2016-07-17T07:39:38.000Z</time>
      </trkpt>
      <trkpt lat="47.52379" lon="6.76053">
        <ele>380</ele>
        <time>2016-07-17T07:39:39.000Z</time>
      </trkpt>
      <trkpt lat="47.5238" lon="6.76055">
        <ele>380</ele>
        <time>2016-07-17T07:39:40.000Z</time>
      </trkpt>
      <trkpt lat="47.52384" lon="6.76059">
        <ele>380</ele>
        <time>2016-07-17T07:39:42.000Z</time>
      </trkpt>
      <trkpt lat="47.52385" lon="6.76061">
        <ele>380</ele>
        <time>2016-07-17T07:39:43.000Z</time>
      </trkpt>
      <trkpt lat="47.52388" lon="6.76065">
        <ele>380</ele>
        <time>2016-07-17T07:39:45.000Z</time>
      </trkpt>
      <trkpt lat="47.5239" lon="6.76068">
        <ele>380</ele>
        <time>2016-07-17T07:39:46.000Z</time>
      </trkpt>
      <trkpt lat="47.52393" lon="6.76072">
        <ele>380</ele>
        <time>2016-07-17T07:39:48.000Z</time>
      </trkpt>
      <trkpt lat="47.52395" lon="6.76074">
        <ele>381</ele>
        <time>2016-07-17T07:39:49.000Z</time>
      </trkpt>
      <trkpt lat="47.52398" lon="6.76079">
        <ele>381</ele>
        <time>2016-07-17T07:39:51.000Z</time>
      </trkpt>
      <trkpt lat="47.524" lon="6.76081">
        <ele>381</ele>
        <time>2016-07-17T07:39:52.000Z</time>
      </trkpt>
      <trkpt lat="47.52403" lon="6.76085">
        <ele>383</ele>
        <time>2016-07-17T07:39:54.000Z</time>
      </trkpt>
      <trkpt lat="47.52404" lon="6.76087">
        <ele>383</ele>
        <time>2016-07-17T07:39:55.000Z</time>
      </trkpt>
      <trkpt lat="47.52407" lon="6.76092">
        <ele>383</ele>
        <time>2016-07-17T07:39:57.000Z</time>
      </trkpt>
      <trkpt lat="47.52409" lon="6.76094">
        <ele>383</ele>
        <time>2016-07-17T07:39:58.000Z</time>
      </trkpt>
      <trkpt lat="47.52412" lon="6.76098">
        <ele>383</ele>
        <time>2016-07-17T07:40:00.000Z</time>
      </trkpt>
      <trkpt lat="47.52414" lon="6.76101">
        <ele>384</ele>
        <time>2016-07-17T07:40:01.000Z</time>
      </trkpt>
      <trkpt lat="47.52417" lon="6.76105">
        <ele>384</ele>
        <time>2016-07-17T07:40:03.000Z</time>
      </trkpt>
      <trkpt lat="47.52418" lon="6.76108">
        <ele>382</ele>
        <time>2016-07-17T07:40:04.000Z</time>
      </trkpt>
      <trkpt lat="47.5242" lon="6.76111">
        <ele>382</ele>
        <time>2016-07-17T07:40:05.000Z</time>
      </trkpt>
      <trkpt lat="47.52421" lon="6.76113">
        <ele>382</ele>
        <time>2016-07-17T07:40:06.000Z</time>
      </trkpt>
      <trkpt lat="47.52423" lon="6.76116">
        <ele>382</ele>
        <time>2016-07-17T07:40:07.000Z</time>
      </trkpt>
      <trkpt lat="47.52424" lon="6.76119">
        <ele>383</ele>
        <time>2016-07-17T07:40:08.000Z</time>
      </trkpt>
      <trkpt lat="47.52426" lon="6.76122">
        <ele>383</ele>
        <time>2016-07-17T07:40:09.000Z</time>
      </trkpt>
      <trkpt lat="47.52428" lon="6.76124">
        <ele>383</ele>
        <time>2016-07-17T07:40:10.000Z</time>
      </trkpt>
      <trkpt lat="47.52429" lon="6.76127">
        <ele>383</ele>
        <time>2016-07-17T07:40:11.000Z</time>
      </trkpt>
      <trkpt lat="47.52431" lon="6.7613">
        <ele>383</ele>
        <time>2016-07-17T07:40:12.000Z</time>
      </trkpt>
      <trkpt lat="47.52433" lon="6.76133">
        <ele>383</ele>
        <time>2016-07-17T07:40:13.000Z</time>
      </trkpt>
      <trkpt lat="47.52434" lon="6.76136">
        <ele>383</ele>
        <time>2016-07-17T07:40:14.000Z</time>
      </trkpt>
      <trkpt lat="47.52436" lon="6.76139">
        <ele>383</ele>
        <time>2016-07-17T07:40:15.000Z</time>
      </trkpt>
      <trkpt lat="47.52438" lon="6.76141">
        <ele>383</ele>
        <time>2016-07-17T07:40:16.000Z</time>
      </trkpt>
      <trkpt lat="47.5244" lon="6.76144">
        <ele>383</ele>
        <time>2016-07-17T07:40:17.000Z</time>
      </trkpt>
      <trkpt lat="47.52442" lon="6.76146">
        <ele>383</ele>
        <time>2016-07-17T07:40:18.000Z</time>
      </trkpt>
      <trkpt lat="47.52443" lon="6.76148">
        <ele>383</ele>
        <time>2016-07-17T07:40:19.000Z</time>
      </trkpt>
      <trkpt lat="47.52445" lon="6.76151">
        <ele>383</ele>
        <time>2016-07-17T07:40:20.000Z</time>
      </trkpt>
      <trkpt lat="47.52447" lon="6.76154">
        <ele>383</ele>
        <time>2016-07-17T07:40:21.000Z</time>
      </trkpt>
      <trkpt lat="47.5245" lon="6.76158">
        <ele>383</ele>
        <time>2016-07-17T07:40:22.000Z</time>
      </trkpt>
      <trkpt lat="47.52452" lon="6.76163">
        <ele>383</ele>
        <time>2016-07-17T07:40:23.000Z</time>
      </trkpt>
      <trkpt lat="47.52455" lon="6.76168">
        <ele>386</ele>
        <time>2016-07-17T07:40:24.000Z</time>
      </trkpt>
      <trkpt lat="47.52458" lon="6.76172">
        <ele>386</ele>
        <time>2016-07-17T07:40:25.000Z</time>
      </trkpt>
      <trkpt lat="47.52461" lon="6.76177">
        <ele>386</ele>
        <time>2016-07-17T07:40:26.000Z</time>
      </trkpt>
      <trkpt lat="47.52464" lon="6.76182">
        <ele>386</ele>
        <time>2016-07-17T07:40:27.000Z</time>
      </trkpt>
      <trkpt lat="47.52467" lon="6.76187">
        <ele>386</ele>
        <time>2016-07-17T07:40:28.000Z</time>
      </trkpt>
      <trkpt lat="47.52469" lon="6.76191">
        <ele>386</ele>
        <time>2016-07-17T07:40:29.000Z</time>
      </trkpt>
      <trkpt lat="47.52472" lon="6.76196">
        <ele>386</ele>
        <time>2016-07-17T07:40:30.000Z</time>
      </trkpt>
      <trkpt lat="47.52475" lon="6.762">
        <ele>386</ele>
        <time>2016-07-17T07:40:31.000Z</time>
      </trkpt>
      <trkpt lat="47.52475" lon="6.76201">
        <ele>386</ele>
        <time>2016-07-17T07:40:31.109Z</time>
      </trkpt>
      <trkpt lat="47.5248" lon="6.7621">
        <ele>386</ele>
        <time>2016-07-17T07:40:33.000Z</time>
      </trkpt>
      <trkpt lat="47.52483" lon="6.76215">
        <ele>386</ele>
        <time>2016-07-17T07:40:34.000Z</time>
      </trkpt>
      <trkpt lat="47.52486" lon="6.76221">
        <ele>386</ele>
        <time>2016-07-17T07:40:35.000Z</time>
      </trkpt>
      <trkpt lat="47.52489" lon="6.76226">
        <ele>386</ele>
        <time>2016-07-17T07:40:36.000Z</time>
      </trkpt>
      <trkpt lat="47.52492" lon="6.76231">
        <ele>386</ele>
        <time>2016-07-17T07:40:37.000Z</time>
      </trkpt>
      <trkpt lat="47.52494" lon="6.76236">
        <ele>386</ele>
        <time>2016-07-17T07:40:38.000Z</time>
      </trkpt>
      <trkpt lat="47.52496" lon="6.76241">
        <ele>386</ele>
        <time>2016-07-17T07:40:39.000Z</time>
      </trkpt>
      <trkpt lat="47.52499" lon="6.76246">
        <ele>386</ele>
        <time>2016-07-17T07:40:40.000Z</time>
      </trkpt>
      <trkpt lat="47.52501" lon="6.7625">
        <ele>386</ele>
        <time>2016-07-17T07:40:41.000Z</time>
      </trkpt>
      <trkpt lat="47.52503" lon="6.76255">
        <ele>385</ele>
        <time>2016-07-17T07:40:42.000Z</time>
      </trkpt>
      <trkpt lat="47.52505" lon="6.7626">
        <ele>385</ele>
        <time>2016-07-17T07:40:43.000Z</time>
      </trkpt>
      <trkpt lat="47.52508" lon="6.76264">
        <ele>384</ele>
        <time>2016-07-17T07:40:44.000Z</time>
      </trkpt>
      <trkpt lat="47.5251" lon="6.76269">
        <ele>384</ele>
        <time>2016-07-17T07:40:45.000Z</time>
      </trkpt>
      <trkpt lat="47.52512" lon="6.76274">
        <ele>384</ele>
        <time>2016-07-17T07:40:46.000Z</time>
      </trkpt>
      <trkpt lat="47.52515" lon="6.76279">
        <ele>384</ele>
        <time>2016-07-17T07:40:47.000Z</time>
      </trkpt>
      <trkpt lat="47.52517" lon="6.76284">
        <ele>384</ele>
        <time>2016-07-17T07:40:48.000Z</time>
      </trkpt>
      <trkpt lat="47.52519" lon="6.76289">
        <ele>384</ele>
        <time>2016-07-17T07:40:49.000Z</time>
      </trkpt>
      <trkpt lat="47.52521" lon="6.76294">
        <ele>384</ele>
        <time>2016-07-17T07:40:50.000Z</time>
      </trkpt>
      <trkpt lat="47.52523" lon="6.76299">
        <ele>384</ele>
        <time>2016-07-17T07:40:51.000Z</time>
      </trkpt>
      <trkpt lat="47.52525" lon="6.76303">
        <ele>384</ele>
        <time>2016-07-17T07:40:52.000Z</time>
      </trkpt>
      <trkpt lat="47.52528" lon="6.76308">
        <ele>384</ele>
        <time>2016-07-17T07:40:53.000Z</time>
      </trkpt>
      <trkpt lat="47.5253" lon="6.76313">
        <ele>384</ele>
        <time>2016-07-17T07:40:54.000Z</time>
      </trkpt>
      <trkpt lat="47.52532" lon="6.76317">
        <ele>384</ele>
        <time>2016-07-17T07:40:55.000Z</time>
      </trkpt>
      <trkpt lat="47.52535" lon="6.76322">
        <ele>384</ele>
        <time>2016-07-17T07:40:56.000Z</time>
      </trkpt>
      <trkpt lat="47.52537" lon="6.76327">
        <ele>384</ele>
        <time>2016-07-17T07:40:57.000Z</time>
      </trkpt>
      <trkpt lat="47.5254" lon="6.76332">
        <ele>383</ele>
        <time>2016-07-17T07:40:58.000Z</time>
      </trkpt>
      <trkpt lat="47.52542" lon="6.76336">
        <ele>386</ele>
        <time>2016-07-17T07:40:59.000Z</time>
      </trkpt>
      <trkpt lat="47.52544" lon="6.7634">
        <ele>386</ele>
        <time>2016-07-17T07:41:00.000Z</time>
      </trkpt>
      <trkpt lat="47.52546" lon="6.76345">
        <ele>386</ele>
        <time>2016-07-17T07:41:01.000Z</time>
      </trkpt>
      <trkpt lat="47.52548" lon="6.76349">
        <ele>386</ele>
        <time>2016-07-17T07:41:02.000Z</time>
      </trkpt>
      <trkpt lat="47.5255" lon="6.76353">
        <ele>386</ele>
        <time>2016-07-17T07:41:03.000Z</time>
      </trkpt>
      <trkpt lat="47.52552" lon="6.76358">
        <ele>386</ele>
        <time>2016-07-17T07:41:04.000Z</time>
      </trkpt>
      <trkpt lat="47.52554" lon="6.76362">
        <ele>386</ele>
        <time>2016-07-17T07:41:05.000Z</time>
      </trkpt>
      <trkpt lat="47.52556" lon="6.76367">
        <ele>386</ele>
        <time>2016-07-17T07:41:06.000Z</time>
      </trkpt>
      <trkpt lat="47.52559" lon="6.76371">
        <ele>386</ele>
        <time>2016-07-17T07:41:07.000Z</time>
      </trkpt>
      <trkpt lat="47.52561" lon="6.76376">
        <ele>386</ele>
        <time>2016-07-17T07:41:08.000Z</time>
      </trkpt>
      <trkpt lat="47.52563" lon="6.7638">
        <ele>386</ele>
        <time>2016-07-17T07:41:09.000Z</time>
      </trkpt>
      <trkpt lat="47.52565" lon="6.76385">
        <ele>386</ele>
        <time>2016-07-17T07:41:10.000Z</time>
      </trkpt>
      <trkpt lat="47.52568" lon="6.76389">
        <ele>386</ele>
        <time>2016-07-17T07:41:11.000Z</time>
      </trkpt>
      <trkpt lat="47.52569" lon="6.76393">
        <ele>386</ele>
        <time>2016-07-17T07:41:12.000Z</time>
      </trkpt>
      <trkpt lat="47.52571" lon="6.76397">
        <ele>386</ele>
        <time>2016-07-17T07:41:13.000Z</time>
      </trkpt>
      <trkpt lat="47.52573" lon="6.76401">
        <ele>386</ele>
        <time>2016-07-17T07:41:14.000Z</time>
      </trkpt>
      <trkpt lat="47.52575" lon="6.76406">
        <ele>386</ele>
        <time>2016-07-17T07:41:15.000Z</time>
      </trkpt>
      <trkpt lat="47.52578" lon="6.7641">
        <ele>386</ele>
        <time>2016-07-17T07:41:16.000Z</time>
      </trkpt>
      <trkpt lat="47.5258" lon="6.76415">
        <ele>385</ele>
        <time>2016-07-17T07:41:17.000Z</time>
      </trkpt>
      <trkpt lat="47.52582" lon="6.7642">
        <ele>386</ele>
        <time>2016-07-17T07:41:18.000Z</time>
      </trkpt>
      <trkpt lat="47.52584" lon="6.76425">
        <ele>384</ele>
        <time>2016-07-17T07:41:19.000Z</time>
      </trkpt>
      <trkpt lat="47.52587" lon="6.7643">
        <ele>384</ele>
        <time>2016-07-17T07:41:20.000Z</time>
      </trkpt>
      <trkpt lat="47.52589" lon="6.76435">
        <ele>383</ele>
        <time>2016-07-17T07:41:21.000Z</time>
      </trkpt>
      <trkpt lat="47.52591" lon="6.7644">
        <ele>383</ele>
        <time>2016-07-17T07:41:22.000Z</time>
      </trkpt>
      <trkpt lat="47.52593" lon="6.76445">
        <ele>383</ele>
        <time>2016-07-17T07:41:23.000Z</time>
      </trkpt>
      <trkpt lat="47.52596" lon="6.7645">
        <ele>383</ele>
        <time>2016-07-17T07:41:24.000Z</time>
      </trkpt>
      <trkpt lat="47.52598" lon="6.76455">
        <ele>383</ele>
        <time>2016-07-17T07:41:25.000Z</time>
      </trkpt>
      <trkpt lat="47.52601" lon="6.7646">
        <ele>383</ele>
        <time>2016-07-17T07:41:26.000Z</time>
      </trkpt>
      <trkpt lat="47.52603" lon="6.76465">
        <ele>383</ele>
        <time>2016-07-17T07:41:27.000Z</time>
      </trkpt>
      <trkpt lat="47.52605" lon="6.7647">
        <ele>383</ele>
        <time>2016-07-17T07:41:28.000Z</time>
      </trkpt>
      <trkpt lat="47.52608" lon="6.76475">
        <ele>383</ele>
        <time>2016-07-17T07:41:29.000Z</time>
      </trkpt>
      <trkpt lat="47.5261" lon="6.7648">
        <ele>383</ele>
        <time>2016-07-17T07:41:30.000Z</time>
      </trkpt>
      <trkpt lat="47.52612" lon="6.76484">
        <ele>383</ele>
        <time>2016-07-17T07:41:31.000Z</time>
      </trkpt>
      <trkpt lat="47.52614" lon="6.76489">
        <ele>383</ele>
        <time>2016-07-17T07:41:32.000Z</time>
      </trkpt>
      <trkpt lat="47.52616" lon="6.76494">
        <ele>383</ele>
        <time>2016-07-17T07:41:33.000Z</time>
      </trkpt>
      <trkpt lat="47.52618" lon="6.76499">
        <ele>383</ele>
        <time>2016-07-17T07:41:34.000Z</time>
      </trkpt>
      <trkpt lat="47.52621" lon="6.76505">
        <ele>384</ele>
        <time>2016-07-17T07:41:35.000Z</time>
      </trkpt>
      <trkpt lat="47.52623" lon="6.76513">
        <ele>384</ele>
        <time>2016-07-17T07:41:36.000Z</time>
      </trkpt>
      <trkpt lat="47.52626" lon="6.76519">
        <ele>384</ele>
        <time>2016-07-17T07:41:37.000Z</time>
      </trkpt>
      <trkpt lat="47.52626" lon="6.76519">
        <ele>384</ele>
        <time>2016-07-17T07:41:37.109Z</time>
      </trkpt>
      <trkpt lat="47.52631" lon="6.7653">
        <ele>384</ele>
        <time>2016-07-17T07:41:39.000Z</time>
      </trkpt>
      <trkpt lat="47.52633" lon="6.76536">
        <ele>384</ele>
        <time>2016-07-17T07:41:40.000Z</time>
      </trkpt>
      <trkpt lat="47.52635" lon="6.76541">
        <ele>384</ele>
        <time>2016-07-17T07:41:41.000Z</time>
      </trkpt>
      <trkpt lat="47.52636" lon="6.76545">
        <ele>384</ele>
        <time>2016-07-17T07:41:42.000Z</time>
      </trkpt>
      <trkpt lat="47.52637" lon="6.7655">
        <ele>384</ele>
        <time>2016-07-17T07:41:43.000Z</time>
      </trkpt>
      <trkpt lat="47.52639" lon="6.76554">
        <ele>384</ele>
        <time>2016-07-17T07:41:44.000Z</time>
      </trkpt>
      <trkpt lat="47.5264" lon="6.76559">
        <ele>383</ele>
        <time>2016-07-17T07:41:45.000Z</time>
      </trkpt>
      <trkpt lat="47.52641" lon="6.76563">
        <ele>383</ele>
        <time>2016-07-17T07:41:46.000Z</time>
      </trkpt>
      <trkpt lat="47.52643" lon="6.76568">
        <ele>383</ele>
        <time>2016-07-17T07:41:47.000Z</time>
      </trkpt>
      <trkpt lat="47.52644" lon="6.76572">
        <ele>383</ele>
        <time>2016-07-17T07:41:48.000Z</time>
      </trkpt>
      <trkpt lat="47.52645" lon="6.76576">
        <ele>383</ele>
        <time>2016-07-17T07:41:49.000Z</time>
      </trkpt>
      <trkpt lat="47.52646" lon="6.76581">
        <ele>383</ele>
        <time>2016-07-17T07:41:50.000Z</time>
      </trkpt>
      <trkpt lat="47.52648" lon="6.76585">
        <ele>384</ele>
        <time>2016-07-17T07:41:51.000Z</time>
      </trkpt>
      <trkpt lat="47.52649" lon="6.7659">
        <ele>384</ele>
        <time>2016-07-17T07:41:52.000Z</time>
      </trkpt>
      <trkpt lat="47.5265" lon="6.76595">
        <ele>384</ele>
        <time>2016-07-17T07:41:53.000Z</time>
      </trkpt>
      <trkpt lat="47.52651" lon="6.76601">
        <ele>384</ele>
        <time>2016-07-17T07:41:54.000Z</time>
      </trkpt>
      <trkpt lat="47.52653" lon="6.76606">
        <ele>384</ele>
        <time>2016-07-17T07:41:55.000Z</time>
      </trkpt>
      <trkpt lat="47.52654" lon="6.76612">
        <ele>384</ele>
        <time>2016-07-17T07:41:56.000Z</time>
      </trkpt>
      <trkpt lat="47.52656" lon="6.76618">
        <ele>384</ele>
        <time>2016-07-17T07:41:57.000Z</time>
      </trkpt>
      <trkpt lat="47.52658" lon="6.76623">
        <ele>384</ele>
        <time>2016-07-17T07:41:58.000Z</time>
      </trkpt>
      <trkpt lat="47.5266" lon="6.76629">
        <ele>384</ele>
        <time>2016-07-17T07:41:59.000Z</time>
      </trkpt>
      <trkpt lat="47.52661" lon="6.76634">
        <ele>384</ele>
        <time>2016-07-17T07:42:00.000Z</time>
      </trkpt>
      <trkpt lat="47.52663" lon="6.7664">
        <ele>384</ele>
        <time>2016-07-17T07:42:01.000Z</time>
      </trkpt>
      <trkpt lat="47.52664" lon="6.76645">
        <ele>384</ele>
        <time>2016-07-17T07:42:02.000Z</time>
      </trkpt>
      <trkpt lat="47.52666" lon="6.7665">
        <ele>383</ele>
        <time>2016-07-17T07:42:03.000Z</time>
      </trkpt>
      <trkpt lat="47.52668" lon="6.76655">
        <ele>379</ele>
        <time>2016-07-17T07:42:04.000Z</time>
      </trkpt>
      <trkpt lat="47.52669" lon="6.76659">
        <ele>380</ele>
        <time>2016-07-17T07:42:05.000Z</time>
      </trkpt>
      <trkpt lat="47.52671" lon="6.76664">
        <ele>380</ele>
        <time>2016-07-17T07:42:06.000Z</time>
      </trkpt>
      <trkpt lat="47.52672" lon="6.76669">
        <ele>380</ele>
        <time>2016-07-17T07:42:07.000Z</time>
      </trkpt>
      <trkpt lat="47.52674" lon="6.76674">
        <ele>380</ele>
        <time>2016-07-17T07:42:08.000Z</time>
      </trkpt>
      <trkpt lat="47.52675" lon="6.76679">
        <ele>380</ele>
        <time>2016-07-17T07:42:09.000Z</time>
      </trkpt>
      <trkpt lat="47.52676" lon="6.76684">
        <ele>380</ele>
        <time>2016-07-17T07:42:10.000Z</time>
      </trkpt>
      <trkpt lat="47.52678" lon="6.76689">
        <ele>379</ele>
        <time>2016-07-17T07:42:11.000Z</time>
      </trkpt>
      <trkpt lat="47.52679" lon="6.76694">
        <ele>379</ele>
        <time>2016-07-17T07:42:12.000Z</time>
      </trkpt>
      <trkpt lat="47.52681" lon="6.76699">
        <ele>379</ele>
        <time>2016-07-17T07:42:13.000Z</time>
      </trkpt>
      <trkpt lat="47.52682" lon="6.76704">
        <ele>379</ele>
        <time>2016-07-17T07:42:14.000Z</time>
      </trkpt>
      <trkpt lat="47.52684" lon="6.76709">
        <ele>379</ele>
        <time>2016-07-17T07:42:15.000Z</time>
      </trkpt>
      <trkpt lat="47.52686" lon="6.76715">
        <ele>379</ele>
        <time>2016-07-17T07:42:16.000Z</time>
      </trkpt>
      <trkpt lat="47.52688" lon="6.76719">
        <ele>380</ele>
        <time>2016-07-17T07:42:17.000Z</time>
      </trkpt>
      <trkpt lat="47.52689" lon="6.76724">
        <ele>380</ele>
        <time>2016-07-17T07:42:18.000Z</time>
      </trkpt>
      <trkpt lat="47.52691" lon="6.76729">
        <ele>380</ele>
        <time>2016-07-17T07:42:19.000Z</time>
      </trkpt>
      <trkpt lat="47.52692" lon="6.76734">
        <ele>380</ele>
        <time>2016-07-17T07:42:20.000Z</time>
      </trkpt>
      <trkpt lat="47.52694" lon="6.76739">
        <ele>380</ele>
        <time>2016-07-17T07:42:21.000Z</time>
      </trkpt>
      <trkpt lat="47.52695" lon="6.76744">
        <ele>380</ele>
        <time>2016-07-17T07:42:22.000Z</time>
      </trkpt>
      <trkpt lat="47.52697" lon="6.76749">
        <ele>380</ele>
        <time>2016-07-17T07:42:23.000Z</time>
      </trkpt>
      <trkpt lat="47.52698" lon="6.76754">
        <ele>381</ele>
        <time>2016-07-17T07:42:24.000Z</time>
      </trkpt>
      <trkpt lat="47.527" lon="6.76759">
        <ele>381</ele>
        <time>2016-07-17T07:42:25.000Z</time>
      </trkpt>
      <trkpt lat="47.52702" lon="6.76764">
        <ele>381</ele>
        <time>2016-07-17T07:42:26.000Z</time>
      </trkpt>
      <trkpt lat="47.52705" lon="6.76769">
        <ele>381</ele>
        <time>2016-07-17T07:42:27.000Z</time>
      </trkpt>
      <trkpt lat="47.52707" lon="6.76773">
        <ele>381</ele>
        <time>2016-07-17T07:42:28.000Z</time>
      </trkpt>
      <trkpt lat="47.52709" lon="6.76778">
        <ele>381</ele>
        <time>2016-07-17T07:42:29.000Z</time>
      </trkpt>
      <trkpt lat="47.52711" lon="6.76782">
        <ele>381</ele>
        <time>2016-07-17T07:42:30.000Z</time>
      </trkpt>
      <trkpt lat="47.52712" lon="6.76786">
        <ele>381</ele>
        <time>2016-07-17T07:42:31.000Z</time>
      </trkpt>
      <trkpt lat="47.52714" lon="6.76791">
        <ele>381</ele>
        <time>2016-07-17T07:42:32.000Z</time>
      </trkpt>
      <trkpt lat="47.52715" lon="6.76795">
        <ele>381</ele>
        <time>2016-07-17T07:42:33.000Z</time>
      </trkpt>
      <trkpt lat="47.52717" lon="6.76799">
        <ele>381</ele>
        <time>2016-07-17T07:42:34.000Z</time>
      </trkpt>
      <trkpt lat="47.52718" lon="6.76804">
        <ele>381</ele>
        <time>2016-07-17T07:42:35.000Z</time>
      </trkpt>
      <trkpt lat="47.5272" lon="6.76809">
        <ele>381</ele>
        <time>2016-07-17T07:42:36.000Z</time>
      </trkpt>
      <trkpt lat="47.52722" lon="6.76813">
        <ele>381</ele>
        <time>2016-07-17T07:42:37.000Z</time>
      </trkpt>
      <trkpt lat="47.52724" lon="6.76818">
        <ele>381</ele>
        <time>2016-07-17T07:42:38.000Z</time>
      </trkpt>
      <trkpt lat="47.52725" lon="6.76823">
        <ele>381</ele>
        <time>2016-07-17T07:42:39.000Z</time>
      </trkpt>
      <trkpt lat="47.52727" lon="6.76828">
        <ele>381</ele>
        <time>2016-07-17T07:42:40.000Z</time>
      </trkpt>
      <trkpt lat="47.52728" lon="6.76832">
        <ele>381</ele>
        <time>2016-07-17T07:42:41.000Z</time>
      </trkpt>
      <trkpt lat="47.5273" lon="6.76837">
        <ele>383</ele>
        <time>2016-07-17T07:42:42.000Z</time>
      </trkpt>
      <trkpt lat="47.52731" lon="6.76842">
        <ele>384</ele>
        <time>2016-07-17T07:42:43.000Z</time>
      </trkpt>
      <trkpt lat="47.52733" lon="6.76847">
        <ele>384</ele>
        <time>2016-07-17T07:42:44.000Z</time>
      </trkpt>
      <trkpt lat="47.52734" lon="6.76851">
        <ele>384</ele>
        <time>2016-07-17T07:42:45.000Z</time>
      </trkpt>
      <trkpt lat="47.52736" lon="6.76856">
        <ele>384</ele>
        <time>2016-07-17T07:42:46.000Z</time>
      </trkpt>
      <trkpt lat="47.52738" lon="6.7686">
        <ele>384</ele>
        <time>2016-07-17T07:42:47.000Z</time>
      </trkpt>
      <trkpt lat="47.52741" lon="6.76864">
        <ele>385</ele>
        <time>2016-07-17T07:42:48.000Z</time>
      </trkpt>
      <trkpt lat="47.52743" lon="6.76868">
        <ele>385</ele>
        <time>2016-07-17T07:42:49.000Z</time>
      </trkpt>
      <trkpt lat="47.52747" lon="6.76869">
        <ele>385</ele>
        <time>2016-07-17T07:42:50.000Z</time>
      </trkpt>
      <trkpt lat="47.52755" lon="6.76862">
        <ele>382</ele>
        <time>2016-07-17T07:42:51.000Z</time>
      </trkpt>
      <trkpt lat="47.5276" lon="6.76861">
        <ele>382</ele>
        <time>2016-07-17T07:42:52.000Z</time>
      </trkpt>
      <trkpt lat="47.52765" lon="6.7686">
        <ele>382</ele>
        <time>2016-07-17T07:42:53.000Z</time>
      </trkpt>
      <trkpt lat="47.5277" lon="6.76858">
        <ele>382</ele>
        <time>2016-07-17T07:42:54.000Z</time>
      </trkpt>
      <trkpt lat="47.52776" lon="6.76856">
        <ele>382</ele>
        <time>2016-07-17T07:42:55.000Z</time>
      </trkpt>
      <trkpt lat="47.52781" lon="6.76855">
        <ele>381</ele>
        <time>2016-07-17T07:42:56.000Z</time>
      </trkpt>
      <trkpt lat="47.52787" lon="6.76853">
        <ele>381</ele>
        <time>2016-07-17T07:42:57.000Z</time>
      </trkpt>
      <trkpt lat="47.52793" lon="6.76851">
        <ele>381</ele>
        <time>2016-07-17T07:42:58.000Z</time>
      </trkpt>
      <trkpt lat="47.528" lon="6.76849">
        <ele>381</ele>
        <time>2016-07-17T07:42:59.000Z</time>
      </trkpt>
      <trkpt lat="47.52806" lon="6.76846">
        <ele>381</ele>
        <time>2016-07-17T07:43:00.000Z</time>
      </trkpt>
      <trkpt lat="47.52812" lon="6.76844">
        <ele>380</ele>
        <time>2016-07-17T07:43:01.000Z</time>
      </trkpt>
      <trkpt lat="47.52819" lon="6.7684">
        <ele>380</ele>
        <time>2016-07-17T07:43:02.000Z</time>
      </trkpt>
      <trkpt lat="47.52826" lon="6.76838">
        <ele>379</ele>
        <time>2016-07-17T07:43:03.000Z</time>
      </trkpt>
      <trkpt lat="47.52833" lon="6.76836">
        <ele>378</ele>
        <time>2016-07-17T07:43:04.000Z</time>
      </trkpt>
      <trkpt lat="47.5284" lon="6.76832">
        <ele>377</ele>
        <time>2016-07-17T07:43:05.000Z</time>
      </trkpt>
      <trkpt lat="47.52848" lon="6.7683">
        <ele>376</ele>
        <time>2016-07-17T07:43:06.000Z</time>
      </trkpt>
      <trkpt lat="47.52855" lon="6.76828">
        <ele>376</ele>
        <time>2016-07-17T07:43:07.000Z</time>
      </trkpt>
      <trkpt lat="47.52861" lon="6.76826">
        <ele>375</ele>
        <time>2016-07-17T07:43:08.000Z</time>
      </trkpt>
      <trkpt lat="47.52867" lon="6.76824">
        <ele>375</ele>
        <time>2016-07-17T07:43:09.000Z</time>
      </trkpt>
      <trkpt lat="47.52873" lon="6.76825">
        <ele>375</ele>
        <time>2016-07-17T07:43:10.000Z</time>
      </trkpt>
      <trkpt lat="47.52879" lon="6.76826">
        <ele>375</ele>
        <time>2016-07-17T07:43:11.000Z</time>
      </trkpt>
      <trkpt lat="47.52884" lon="6.76826">
        <ele>375</ele>
        <time>2016-07-17T07:43:12.000Z</time>
      </trkpt>
      <trkpt lat="47.52892" lon="6.76827">
        <ele>375</ele>
        <time>2016-07-17T07:43:13.000Z</time>
      </trkpt>
      <trkpt lat="47.52899" lon="6.76826">
        <ele>375</ele>
        <time>2016-07-17T07:43:14.000Z</time>
      </trkpt>
      <trkpt lat="47.52904" lon="6.76824">
        <ele>375</ele>
        <time>2016-07-17T07:43:15.000Z</time>
      </trkpt>
      <trkpt lat="47.52908" lon="6.76823">
        <ele>375</ele>
        <time>2016-07-17T07:43:16.000Z</time>
      </trkpt>
      <trkpt lat="47.52914" lon="6.7682">
        <ele>375</ele>
        <time>2016-07-17T07:43:17.000Z</time>
      </trkpt>
      <trkpt lat="47.52918" lon="6.76819">
        <ele>377</ele>
        <time>2016-07-17T07:43:18.000Z</time>
      </trkpt>
      <trkpt lat="47.52921" lon="6.76819">
        <ele>377</ele>
        <time>2016-07-17T07:43:19.000Z</time>
      </trkpt>
      <trkpt lat="47.52923" lon="6.76819">
        <ele>377</ele>
        <time>2016-07-17T07:43:20.000Z</time>
      </trkpt>
      <trkpt lat="47.52926" lon="6.7682">
        <ele>377</ele>
        <time>2016-07-17T07:43:21.000Z</time>
      </trkpt>
      <trkpt lat="47.52929" lon="6.7682">
        <ele>377</ele>
        <time>2016-07-17T07:43:22.000Z</time>
      </trkpt>
      <trkpt lat="47.52933" lon="6.76821">
        <ele>377</ele>
        <time>2016-07-17T07:43:24.000Z</time>
      </trkpt>
      <trkpt lat="47.52935" lon="6.7682">
        <ele>377</ele>
        <time>2016-07-17T07:43:25.000Z</time>
      </trkpt>
      <trkpt lat="47.52938" lon="6.76821">
        <ele>377</ele>
        <time>2016-07-17T07:43:26.000Z</time>
      </trkpt>
      <trkpt lat="47.5294" lon="6.7682">
        <ele>377</ele>
        <time>2016-07-17T07:43:27.000Z</time>
      </trkpt>
      <trkpt lat="47.52942" lon="6.7682">
        <ele>377</ele>
        <time>2016-07-17T07:43:28.000Z</time>
      </trkpt>
      <trkpt lat="47.52945" lon="6.76819">
        <ele>377</ele>
        <time>2016-07-17T07:43:29.000Z</time>
      </trkpt>
      <trkpt lat="47.52947" lon="6.76819">
        <ele>377</ele>
        <time>2016-07-17T07:43:30.000Z</time>
      </trkpt>
      <trkpt lat="47.5295" lon="6.76818">
        <ele>377</ele>
        <time>2016-07-17T07:43:31.000Z</time>
      </trkpt>
      <trkpt lat="47.52953" lon="6.76817">
        <ele>378</ele>
        <time>2016-07-17T07:43:32.000Z</time>
      </trkpt>
      <trkpt lat="47.52956" lon="6.76816">
        <ele>378</ele>
        <time>2016-07-17T07:43:33.000Z</time>
      </trkpt>
      <trkpt lat="47.52959" lon="6.76815">
        <ele>378</ele>
        <time>2016-07-17T07:43:34.000Z</time>
      </trkpt>
      <trkpt lat="47.52961" lon="6.76815">
        <ele>378</ele>
        <time>2016-07-17T07:43:34.999Z</time>
      </trkpt>
      <trkpt lat="47.52965" lon="6.76814">
        <ele>378</ele>
        <time>2016-07-17T07:43:37.000Z</time>
      </trkpt>
      <trkpt lat="47.52967" lon="6.76814">
        <ele>378</ele>
        <time>2016-07-17T07:43:38.000Z</time>
      </trkpt>
      <trkpt lat="47.5297" lon="6.76813">
        <ele>378</ele>
        <time>2016-07-17T07:43:39.000Z</time>
      </trkpt>
      <trkpt lat="47.52972" lon="6.76812">
        <ele>378</ele>
        <time>2016-07-17T07:43:40.000Z</time>
      </trkpt>
      <trkpt lat="47.52974" lon="6.76812">
        <ele>378</ele>
        <time>2016-07-17T07:43:41.000Z</time>
      </trkpt>
      <trkpt lat="47.52977" lon="6.7681">
        <ele>378</ele>
        <time>2016-07-17T07:43:42.000Z</time>
      </trkpt>
      <trkpt lat="47.52979" lon="6.76808">
        <ele>378</ele>
        <time>2016-07-17T07:43:43.000Z</time>
      </trkpt>
      <trkpt lat="47.52981" lon="6.76805">
        <ele>379</ele>
        <time>2016-07-17T07:43:44.000Z</time>
      </trkpt>
      <trkpt lat="47.52984" lon="6.76803">
        <ele>379</ele>
        <time>2016-07-17T07:43:45.000Z</time>
      </trkpt>
      <trkpt lat="47.52986" lon="6.768">
        <ele>379</ele>
        <time>2016-07-17T07:43:46.000Z</time>
      </trkpt>
      <trkpt lat="47.52989" lon="6.76798">
        <ele>379</ele>
        <time>2016-07-17T07:43:47.000Z</time>
      </trkpt>
      <trkpt lat="47.52992" lon="6.76795">
        <ele>379</ele>
        <time>2016-07-17T07:43:48.000Z</time>
      </trkpt>
      <trkpt lat="47.52995" lon="6.76792">
        <ele>379</ele>
        <time>2016-07-17T07:43:49.000Z</time>
      </trkpt>
      <trkpt lat="47.52998" lon="6.76789">
        <ele>379</ele>
        <time>2016-07-17T07:43:50.000Z</time>
      </trkpt>
      <trkpt lat="47.53001" lon="6.76786">
        <ele>381</ele>
        <time>2016-07-17T07:43:51.000Z</time>
      </trkpt>
      <trkpt lat="47.53003" lon="6.76783">
        <ele>381</ele>
        <time>2016-07-17T07:43:52.000Z</time>
      </trkpt>
      <trkpt lat="47.53006" lon="6.76781">
        <ele>381</ele>
        <time>2016-07-17T07:43:53.000Z</time>
      </trkpt>
      <trkpt lat="47.53009" lon="6.76779">
        <ele>381</ele>
        <time>2016-07-17T07:43:54.000Z</time>
      </trkpt>
      <trkpt lat="47.53011" lon="6.76776">
        <ele>381</ele>
        <time>2016-07-17T07:43:55.000Z</time>
      </trkpt>
      <trkpt lat="47.53013" lon="6.76773">
        <ele>381</ele>
        <time>2016-07-17T07:43:56.000Z</time>
      </trkpt>
      <trkpt lat="47.53016" lon="6.7677">
        <ele>381</ele>
        <time>2016-07-17T07:43:57.000Z</time>
      </trkpt>
      <trkpt lat="47.53018" lon="6.76767">
        <ele>381</ele>
        <time>2016-07-17T07:43:58.000Z</time>
      </trkpt>
      <trkpt lat="47.53021" lon="6.76765">
        <ele>381</ele>
        <time>2016-07-17T07:43:59.000Z</time>
      </trkpt>
      <trkpt lat="47.53024" lon="6.76762">
        <ele>381</ele>
        <time>2016-07-17T07:44:00.000Z</time>
      </trkpt>
      <trkpt lat="47.53028" lon="6.76759">
        <ele>381</ele>
        <time>2016-07-17T07:44:01.000Z</time>
      </trkpt>
      <trkpt lat="47.53033" lon="6.76755">
        <ele>381</ele>
        <time>2016-07-17T07:44:02.000Z</time>
      </trkpt>
      <trkpt lat="47.53037" lon="6.76751">
        <ele>381</ele>
        <time>2016-07-17T07:44:03.000Z</time>
      </trkpt>
      <trkpt lat="47.53042" lon="6.76748">
        <ele>380</ele>
        <time>2016-07-17T07:44:04.000Z</time>
      </trkpt>
      <trkpt lat="47.53046" lon="6.76745">
        <ele>380</ele>
        <time>2016-07-17T07:44:05.000Z</time>
      </trkpt>
      <trkpt lat="47.53051" lon="6.76742">
        <ele>380</ele>
        <time>2016-07-17T07:44:06.000Z</time>
      </trkpt>
      <trkpt lat="47.53054" lon="6.76742">
        <ele>380</ele>
        <time>2016-07-17T07:44:07.000Z</time>
      </trkpt>
      <trkpt lat="47.53061" lon="6.76737">
        <ele>380</ele>
        <time>2016-07-17T07:44:08.000Z</time>
      </trkpt>
      <trkpt lat="47.53065" lon="6.76734">
        <ele>380</ele>
        <time>2016-07-17T07:44:09.000Z</time>
      </trkpt>
      <trkpt lat="47.5307" lon="6.76729">
        <ele>380</ele>
        <time>2016-07-17T07:44:10.000Z</time>
      </trkpt>
      <trkpt lat="47.53074" lon="6.76726">
        <ele>380</ele>
        <time>2016-07-17T07:44:11.000Z</time>
      </trkpt>
      <trkpt lat="47.53079" lon="6.76727">
        <ele>380</ele>
        <time>2016-07-17T07:44:12.000Z</time>
      </trkpt>
      <trkpt lat="47.53083" lon="6.76725">
        <ele>380</ele>
        <time>2016-07-17T07:44:13.000Z</time>
      </trkpt>
      <trkpt lat="47.53088" lon="6.76723">
        <ele>380</ele>
        <time>2016-07-17T07:44:14.000Z</time>
      </trkpt>
      <trkpt lat="47.53092" lon="6.76722">
        <ele>380</ele>
        <time>2016-07-17T07:44:15.000Z</time>
      </trkpt>
      <trkpt lat="47.531" lon="6.767">
        <ele>380</ele>
        <time>2016-07-17T07:44:16.000Z</time>
      </trkpt>
      <trkpt lat="47.53105" lon="6.76697">
        <ele>380</ele>
        <time>2016-07-17T07:44:17.000Z</time>
      </trkpt>
      <trkpt lat="47.53109" lon="6.76693">
        <ele>380</ele>
        <time>2016-07-17T07:44:18.000Z</time>
      </trkpt>
      <trkpt lat="47.53113" lon="6.76691">
        <ele>380</ele>
        <time>2016-07-17T07:44:19.000Z</time>
      </trkpt>
      <trkpt lat="47.53118" lon="6.76687">
        <ele>380</ele>
        <time>2016-07-17T07:44:20.000Z</time>
      </trkpt>
      <trkpt lat="47.53122" lon="6.76688">
        <ele>380</ele>
        <time>2016-07-17T07:44:21.000Z</time>
      </trkpt>
      <trkpt lat="47.53126" lon="6.76682">
        <ele>380</ele>
        <time>2016-07-17T07:44:22.000Z</time>
      </trkpt>
      <trkpt lat="47.53128" lon="6.76681">
        <ele>380</ele>
        <time>2016-07-17T07:44:23.000Z</time>
      </trkpt>
      <trkpt lat="47.53131" lon="6.76682">
        <ele>380</ele>
        <time>2016-07-17T07:44:24.000Z</time>
      </trkpt>
      <trkpt lat="47.53135" lon="6.76682">
        <ele>380</ele>
        <time>2016-07-17T07:44:25.000Z</time>
      </trkpt>
      <trkpt lat="47.53139" lon="6.76685">
        <ele>380</ele>
        <time>2016-07-17T07:44:26.000Z</time>
      </trkpt>
      <trkpt lat="47.53143" lon="6.76688">
        <ele>380</ele>
        <time>2016-07-17T07:44:27.000Z</time>
      </trkpt>
      <trkpt lat="47.53148" lon="6.76688">
        <ele>379</ele>
        <time>2016-07-17T07:44:28.000Z</time>
      </trkpt>
      <trkpt lat="47.53152" lon="6.76689">
        <ele>379</ele>
        <time>2016-07-17T07:44:29.000Z</time>
      </trkpt>
      <trkpt lat="47.53155" lon="6.76691">
        <ele>379</ele>
        <time>2016-07-17T07:44:30.000Z</time>
      </trkpt>
      <trkpt lat="47.53158" lon="6.76693">
        <ele>379</ele>
        <time>2016-07-17T07:44:31.000Z</time>
      </trkpt>
      <trkpt lat="47.53161" lon="6.76695">
        <ele>379</ele>
        <time>2016-07-17T07:44:32.000Z</time>
      </trkpt>
      <trkpt lat="47.53164" lon="6.76697">
        <ele>379</ele>
        <time>2016-07-17T07:44:33.000Z</time>
      </trkpt>
      <trkpt lat="47.53167" lon="6.76699">
        <ele>380</ele>
        <time>2016-07-17T07:44:34.000Z</time>
      </trkpt>
      <trkpt lat="47.5317" lon="6.76701">
        <ele>380</ele>
        <time>2016-07-17T07:44:35.000Z</time>
      </trkpt>
      <trkpt lat="47.53173" lon="6.76703">
        <ele>380</ele>
        <time>2016-07-17T07:44:36.000Z</time>
      </trkpt>
      <trkpt lat="47.53176" lon="6.76705">
        <ele>380</ele>
        <time>2016-07-17T07:44:37.000Z</time>
      </trkpt>
      <trkpt lat="47.53178" lon="6.76707">
        <ele>380</ele>
        <time>2016-07-17T07:44:38.000Z</time>
      </trkpt>
      <trkpt lat="47.53181" lon="6.76708">
        <ele>380</ele>
        <time>2016-07-17T07:44:39.000Z</time>
      </trkpt>
      <trkpt lat="47.53183" lon="6.7671">
        <ele>380</ele>
        <time>2016-07-17T07:44:40.000Z</time>
      </trkpt>
      <trkpt lat="47.53186" lon="6.76712">
        <ele>380</ele>
        <time>2016-07-17T07:44:41.000Z</time>
      </trkpt>
      <trkpt lat="47.53188" lon="6.76714">
        <ele>380</ele>
        <time>2016-07-17T07:44:42.000Z</time>
      </trkpt>
      <trkpt lat="47.53191" lon="6.76717">
        <ele>380</ele>
        <time>2016-07-17T07:44:43.000Z</time>
      </trkpt>
      <trkpt lat="47.53195" lon="6.7672">
        <ele>380</ele>
        <time>2016-07-17T07:44:44.000Z</time>
      </trkpt>
      <trkpt lat="47.53198" lon="6.76723">
        <ele>380</ele>
        <time>2016-07-17T07:44:45.000Z</time>
      </trkpt>
      <trkpt lat="47.53203" lon="6.76727">
        <ele>381</ele>
        <time>2016-07-17T07:44:46.000Z</time>
      </trkpt>
      <trkpt lat="47.53207" lon="6.76731">
        <ele>381</ele>
        <time>2016-07-17T07:44:47.000Z</time>
      </trkpt>
      <trkpt lat="47.53212" lon="6.76735">
        <ele>381</ele>
        <time>2016-07-17T07:44:48.000Z</time>
      </trkpt>
      <trkpt lat="47.53215" lon="6.76738">
        <ele>381</ele>
        <time>2016-07-17T07:44:49.000Z</time>
      </trkpt>
      <trkpt lat="47.53219" lon="6.7674">
        <ele>381</ele>
        <time>2016-07-17T07:44:50.000Z</time>
      </trkpt>
      <trkpt lat="47.53221" lon="6.76742">
        <ele>381</ele>
        <time>2016-07-17T07:44:51.000Z</time>
      </trkpt>
      <trkpt lat="47.53224" lon="6.76744">
        <ele>381</ele>
        <time>2016-07-17T07:44:52.000Z</time>
      </trkpt>
      <trkpt lat="47.53227" lon="6.76747">
        <ele>381</ele>
        <time>2016-07-17T07:44:53.000Z</time>
      </trkpt>
      <trkpt lat="47.53231" lon="6.7675">
        <ele>381</ele>
        <time>2016-07-17T07:44:54.000Z</time>
      </trkpt>
      <trkpt lat="47.53236" lon="6.76752">
        <ele>382</ele>
        <time>2016-07-17T07:44:55.000Z</time>
      </trkpt>
      <trkpt lat="47.5324" lon="6.76754">
        <ele>382</ele>
        <time>2016-07-17T07:44:56.000Z</time>
      </trkpt>
      <trkpt lat="47.53244" lon="6.76755">
        <ele>382</ele>
        <time>2016-07-17T07:44:57.000Z</time>
      </trkpt>
      <trkpt lat="47.53248" lon="6.76755">
        <ele>382</ele>
        <time>2016-07-17T07:44:58.000Z</time>
      </trkpt>
      <trkpt lat="47.53252" lon="6.76755">
        <ele>382</ele>
        <time>2016-07-17T07:44:59.000Z</time>
      </trkpt>
      <trkpt lat="47.53256" lon="6.76757">
        <ele>382</ele>
        <time>2016-07-17T07:45:00.000Z</time>
      </trkpt>
      <trkpt lat="47.5326" lon="6.76759">
        <ele>382</ele>
        <time>2016-07-17T07:45:01.000Z</time>
      </trkpt>
      <trkpt lat="47.53263" lon="6.76761">
        <ele>382</ele>
        <time>2016-07-17T07:45:02.000Z</time>
      </trkpt>
      <trkpt lat="47.53265" lon="6.76764">
        <ele>382</ele>
        <time>2016-07-17T07:45:03.000Z</time>
      </trkpt>
      <trkpt lat="47.53269" lon="6.76768">
        <ele>382</ele>
        <time>2016-07-17T07:45:04.000Z</time>
      </trkpt>
      <trkpt lat="47.53272" lon="6.76771">
        <ele>382</ele>
        <time>2016-07-17T07:45:05.000Z</time>
      </trkpt>
      <trkpt lat="47.53276" lon="6.76775">
        <ele>382</ele>
        <time>2016-07-17T07:45:06.000Z</time>
      </trkpt>
      <trkpt lat="47.5328" lon="6.76778">
        <ele>382</ele>
        <time>2016-07-17T07:45:07.000Z</time>
      </trkpt>
      <trkpt lat="47.53285" lon="6.76782">
        <ele>382</ele>
        <time>2016-07-17T07:45:08.000Z</time>
      </trkpt>
      <trkpt lat="47.53289" lon="6.76785">
        <ele>382</ele>
        <time>2016-07-17T07:45:09.000Z</time>
      </trkpt>
      <trkpt lat="47.53294" lon="6.76787">
        <ele>382</ele>
        <time>2016-07-17T07:45:10.000Z</time>
      </trkpt>
      <trkpt lat="47.53298" lon="6.7679">
        <ele>382</ele>
        <time>2016-07-17T07:45:11.000Z</time>
      </trkpt>
      <trkpt lat="47.53302" lon="6.76792">
        <ele>382</ele>
        <time>2016-07-17T07:45:12.000Z</time>
      </trkpt>
      <trkpt lat="47.53307" lon="6.76795">
        <ele>382</ele>
        <time>2016-07-17T07:45:13.000Z</time>
      </trkpt>
      <trkpt lat="47.5331" lon="6.76798">
        <ele>382</ele>
        <time>2016-07-17T07:45:14.000Z</time>
      </trkpt>
      <trkpt lat="47.53313" lon="6.76801">
        <ele>382</ele>
        <time>2016-07-17T07:45:15.000Z</time>
      </trkpt>
      <trkpt lat="47.53315" lon="6.76804">
        <ele>382</ele>
        <time>2016-07-17T07:45:16.000Z</time>
      </trkpt>
      <trkpt lat="47.53317" lon="6.76807">
        <ele>382</ele>
        <time>2016-07-17T07:45:17.000Z</time>
      </trkpt>
      <trkpt lat="47.53319" lon="6.76811">
        <ele>382</ele>
        <time>2016-07-17T07:45:18.000Z</time>
      </trkpt>
      <trkpt lat="47.5332" lon="6.76816">
        <ele>381</ele>
        <time>2016-07-17T07:45:19.000Z</time>
      </trkpt>
      <trkpt lat="47.53321" lon="6.76819">
        <ele>381</ele>
        <time>2016-07-17T07:45:20.000Z</time>
      </trkpt>
      <trkpt lat="47.53323" lon="6.76824">
        <ele>381</ele>
        <time>2016-07-17T07:45:21.000Z</time>
      </trkpt>
      <trkpt lat="47.53325" lon="6.76827">
        <ele>381</ele>
        <time>2016-07-17T07:45:22.000Z</time>
      </trkpt>
      <trkpt lat="47.53327" lon="6.76831">
        <ele>381</ele>
        <time>2016-07-17T07:45:23.000Z</time>
      </trkpt>
      <trkpt lat="47.53329" lon="6.76834">
        <ele>381</ele>
        <time>2016-07-17T07:45:24.000Z</time>
      </trkpt>
      <trkpt lat="47.53331" lon="6.76837">
        <ele>381</ele>
        <time>2016-07-17T07:45:25.000Z</time>
      </trkpt>
      <trkpt lat="47.53334" lon="6.76841">
        <ele>381</ele>
        <time>2016-07-17T07:45:26.000Z</time>
      </trkpt>
      <trkpt lat="47.53335" lon="6.76845">
        <ele>381</ele>
        <time>2016-07-17T07:45:27.000Z</time>
      </trkpt>
      <trkpt lat="47.53336" lon="6.76849">
        <ele>381</ele>
        <time>2016-07-17T07:45:28.000Z</time>
      </trkpt>
      <trkpt lat="47.53337" lon="6.76853">
        <ele>381</ele>
        <time>2016-07-17T07:45:29.000Z</time>
      </trkpt>
      <trkpt lat="47.53338" lon="6.76856">
        <ele>381</ele>
        <time>2016-07-17T07:45:30.000Z</time>
      </trkpt>
      <trkpt lat="47.5334" lon="6.76859">
        <ele>381</ele>
        <time>2016-07-17T07:45:31.000Z</time>
      </trkpt>
      <trkpt lat="47.53342" lon="6.76861">
        <ele>381</ele>
        <time>2016-07-17T07:45:32.000Z</time>
      </trkpt>
      <trkpt lat="47.53345" lon="6.76864">
        <ele>381</ele>
        <time>2016-07-17T07:45:33.000Z</time>
      </trkpt>
      <trkpt lat="47.53349" lon="6.76866">
        <ele>381</ele>
        <time>2016-07-17T07:45:34.000Z</time>
      </trkpt>
      <trkpt lat="47.53352" lon="6.76869">
        <ele>381</ele>
        <time>2016-07-17T07:45:35.000Z</time>
      </trkpt>
      <trkpt lat="47.53356" lon="6.76871">
        <ele>381</ele>
        <time>2016-07-17T07:45:36.000Z</time>
      </trkpt>
      <trkpt lat="47.53359" lon="6.76874">
        <ele>381</ele>
        <time>2016-07-17T07:45:37.000Z</time>
      </trkpt>
      <trkpt lat="47.53363" lon="6.76878">
        <ele>381</ele>
        <time>2016-07-17T07:45:38.000Z</time>
      </trkpt>
      <trkpt lat="47.53367" lon="6.76882">
        <ele>381</ele>
        <time>2016-07-17T07:45:39.000Z</time>
      </trkpt>
      <trkpt lat="47.5337" lon="6.76886">
        <ele>381</ele>
        <time>2016-07-17T07:45:40.000Z</time>
      </trkpt>
      <trkpt lat="47.53373" lon="6.76891">
        <ele>381</ele>
        <time>2016-07-17T07:45:41.000Z</time>
      </trkpt>
      <trkpt lat="47.53377" lon="6.76896">
        <ele>381</ele>
        <time>2016-07-17T07:45:42.000Z</time>
      </trkpt>
      <trkpt lat="47.53391" lon="6.76912">
        <ele>380</ele>
        <time>2016-07-17T07:45:43.000Z</time>
      </trkpt>
      <trkpt lat="47.53394" lon="6.76921">
        <ele>378</ele>
        <time>2016-07-17T07:45:44.000Z</time>
      </trkpt>
      <trkpt lat="47.53395" lon="6.76928">
        <ele>378</ele>
        <time>2016-07-17T07:45:45.000Z</time>
      </trkpt>
      <trkpt lat="47.53395" lon="6.76934">
        <ele>378</ele>
        <time>2016-07-17T07:45:46.000Z</time>
      </trkpt>
      <trkpt lat="47.53394" lon="6.76941">
        <ele>378</ele>
        <time>2016-07-17T07:45:47.000Z</time>
      </trkpt>
      <trkpt lat="47.53393" lon="6.76946">
        <ele>378</ele>
        <time>2016-07-17T07:45:48.000Z</time>
      </trkpt>
      <trkpt lat="47.53392" lon="6.76952">
        <ele>378</ele>
        <time>2016-07-17T07:45:49.000Z</time>
      </trkpt>
      <trkpt lat="47.53394" lon="6.76957">
        <ele>377</ele>
        <time>2016-07-17T07:45:53.000Z</time>
      </trkpt>
      <trkpt lat="47.53394" lon="6.76959">
        <ele>377</ele>
        <time>2016-07-17T07:45:54.000Z</time>
      </trkpt>
      <trkpt lat="47.53393" lon="6.76965">
        <ele>377</ele>
        <time>2016-07-17T07:46:08.000Z</time>
      </trkpt>
      <trkpt lat="47.53391" lon="6.76968">
        <ele>377</ele>
        <time>2016-07-17T07:46:09.000Z</time>
      </trkpt>
      <trkpt lat="47.5339" lon="6.76972">
        <ele>377</ele>
        <time>2016-07-17T07:46:10.000Z</time>
      </trkpt>
      <trkpt lat="47.53388" lon="6.76976">
        <ele>377</ele>
        <time>2016-07-17T07:46:11.000Z</time>
      </trkpt>
      <trkpt lat="47.53388" lon="6.7698">
        <ele>377</ele>
        <time>2016-07-17T07:46:12.000Z</time>
      </trkpt>
      <trkpt lat="47.53387" lon="6.76983">
        <ele>377</ele>
        <time>2016-07-17T07:46:13.000Z</time>
      </trkpt>
      <trkpt lat="47.53389" lon="6.76989">
        <ele>376</ele>
        <time>2016-07-17T07:46:17.000Z</time>
      </trkpt>
      <trkpt lat="47.53388" lon="6.76991">
        <ele>376</ele>
        <time>2016-07-17T07:46:18.000Z</time>
      </trkpt>
      <trkpt lat="47.53387" lon="6.76997">
        <ele>376</ele>
        <time>2016-07-17T07:46:22.000Z</time>
      </trkpt>
      <trkpt lat="47.53388" lon="6.76999">
        <ele>376</ele>
        <time>2016-07-17T07:46:23.000Z</time>
      </trkpt>
      <trkpt lat="47.53391" lon="6.76998">
        <ele>376</ele>
        <time>2016-07-17T07:46:31.000Z</time>
      </trkpt>
      <trkpt lat="47.53393" lon="6.77001">
        <ele>374</ele>
        <time>2016-07-17T07:46:32.000Z</time>
      </trkpt>
      <trkpt lat="47.53393" lon="6.77007">
        <ele>374</ele>
        <time>2016-07-17T07:46:42.000Z</time>
      </trkpt>
      <trkpt lat="47.53393" lon="6.77008">
        <ele>374</ele>
        <time>2016-07-17T07:46:43.000Z</time>
      </trkpt>
      <trkpt lat="47.53391" lon="6.77012">
        <ele>374</ele>
        <time>2016-07-17T07:46:45.000Z</time>
      </trkpt>
      <trkpt lat="47.53391" lon="6.77014">
        <ele>374</ele>
        <time>2016-07-17T07:46:46.000Z</time>
      </trkpt>
      <trkpt lat="47.5339" lon="6.77019">
        <ele>374</ele>
        <time>2016-07-17T07:46:49.000Z</time>
      </trkpt>
      <trkpt lat="47.5339" lon="6.77023">
        <ele>373</ele>
        <time>2016-07-17T07:46:50.000Z</time>
      </trkpt>
      <trkpt lat="47.5339" lon="6.77029">
        <ele>373</ele>
        <time>2016-07-17T07:46:51.000Z</time>
      </trkpt>
      <trkpt lat="47.5339" lon="6.77035">
        <ele>373</ele>
        <time>2016-07-17T07:46:52.000Z</time>
      </trkpt>
      <trkpt lat="47.53389" lon="6.77055">
        <ele>373</ele>
        <time>2016-07-17T07:46:53.000Z</time>
      </trkpt>
      <trkpt lat="47.53389" lon="6.77066">
        <ele>372</ele>
        <time>2016-07-17T07:46:54.000Z</time>
      </trkpt>
      <trkpt lat="47.53389" lon="6.77074">
        <ele>372</ele>
        <time>2016-07-17T07:46:55.000Z</time>
      </trkpt>
      <trkpt lat="47.53388" lon="6.77082">
        <ele>372</ele>
        <time>2016-07-17T07:46:56.000Z</time>
      </trkpt>
      <trkpt lat="47.53387" lon="6.7709">
        <ele>370</ele>
        <time>2016-07-17T07:46:57.000Z</time>
      </trkpt>
      <trkpt lat="47.53387" lon="6.77097">
        <ele>369</ele>
        <time>2016-07-17T07:46:58.000Z</time>
      </trkpt>
      <trkpt lat="47.53387" lon="6.77103">
        <ele>369</ele>
        <time>2016-07-17T07:46:59.000Z</time>
      </trkpt>
      <trkpt lat="47.53388" lon="6.77108">
        <ele>369</ele>
        <time>2016-07-17T07:47:00.000Z</time>
      </trkpt>
      <trkpt lat="47.53391" lon="6.7711">
        <ele>369</ele>
        <time>2016-07-17T07:47:01.000Z</time>
      </trkpt>
      <trkpt lat="47.53394" lon="6.77114">
        <ele>369</ele>
        <time>2016-07-17T07:47:02.000Z</time>
      </trkpt>
      <trkpt lat="47.53395" lon="6.77117">
        <ele>369</ele>
        <time>2016-07-17T07:47:03.000Z</time>
      </trkpt>
      <trkpt lat="47.53396" lon="6.77121">
        <ele>369</ele>
        <time>2016-07-17T07:47:04.000Z</time>
      </trkpt>
      <trkpt lat="47.53395" lon="6.77125">
        <ele>369</ele>
        <time>2016-07-17T07:47:06.000Z</time>
      </trkpt>
      <trkpt lat="47.53395" lon="6.77128">
        <ele>368</ele>
        <time>2016-07-17T07:47:07.000Z</time>
      </trkpt>
      <trkpt lat="47.53394" lon="6.77133">
        <ele>368</ele>
        <time>2016-07-17T07:47:09.000Z</time>
      </trkpt>
      <trkpt lat="47.53394" lon="6.77136">
        <ele>368</ele>
        <time>2016-07-17T07:47:10.000Z</time>
      </trkpt>
      <trkpt lat="47.53393" lon="6.7714">
        <ele>368</ele>
        <time>2016-07-17T07:47:11.000Z</time>
      </trkpt>
      <trkpt lat="47.53391" lon="6.77143">
        <ele>368</ele>
        <time>2016-07-17T07:47:12.000Z</time>
      </trkpt>
      <trkpt lat="47.53388" lon="6.77147">
        <ele>368</ele>
        <time>2016-07-17T07:47:13.000Z</time>
      </trkpt>
      <trkpt lat="47.53382" lon="6.77156">
        <ele>368</ele>
        <time>2016-07-17T07:47:14.000Z</time>
      </trkpt>
      <trkpt lat="47.53378" lon="6.77163">
        <ele>368</ele>
        <time>2016-07-17T07:47:15.000Z</time>
      </trkpt>
      <trkpt lat="47.53375" lon="6.7717">
        <ele>366</ele>
        <time>2016-07-17T07:47:16.000Z</time>
      </trkpt>
      <trkpt lat="47.53376" lon="6.77179">
        <ele>365</ele>
        <time>2016-07-17T07:47:17.000Z</time>
      </trkpt>
      <trkpt lat="47.53378" lon="6.77185">
        <ele>365</ele>
        <time>2016-07-17T07:47:18.000Z</time>
      </trkpt>
      <trkpt lat="47.53378" lon="6.77191">
        <ele>365</ele>
        <time>2016-07-17T07:47:19.000Z</time>
      </trkpt>
      <trkpt lat="47.5338" lon="6.77198">
        <ele>365</ele>
        <time>2016-07-17T07:47:20.000Z</time>
      </trkpt>
      <trkpt lat="47.53382" lon="6.77204">
        <ele>365</ele>
        <time>2016-07-17T07:47:21.000Z</time>
      </trkpt>
      <trkpt lat="47.53387" lon="6.77203">
        <ele>365</ele>
        <time>2016-07-17T07:47:22.000Z</time>
      </trkpt>
      <trkpt lat="47.53389" lon="6.77205">
        <ele>365</ele>
        <time>2016-07-17T07:47:23.000Z</time>
      </trkpt>
      <trkpt lat="47.53391" lon="6.77207">
        <ele>365</ele>
        <time>2016-07-17T07:47:24.000Z</time>
      </trkpt>
      <trkpt lat="47.53393" lon="6.77209">
        <ele>365</ele>
        <time>2016-07-17T07:47:25.000Z</time>
      </trkpt>
      <trkpt lat="47.53395" lon="6.7721">
        <ele>365</ele>
        <time>2016-07-17T07:47:26.000Z</time>
      </trkpt>
      <trkpt lat="47.53398" lon="6.77213">
        <ele>365</ele>
        <time>2016-07-17T07:47:27.000Z</time>
      </trkpt>
      <trkpt lat="47.534" lon="6.77216">
        <ele>365</ele>
        <time>2016-07-17T07:47:28.000Z</time>
      </trkpt>
      <trkpt lat="47.53402" lon="6.77218">
        <ele>365</ele>
        <time>2016-07-17T07:47:29.000Z</time>
      </trkpt>
      <trkpt lat="47.53405" lon="6.77221">
        <ele>365</ele>
        <time>2016-07-17T07:47:30.000Z</time>
      </trkpt>
      <trkpt lat="47.53406" lon="6.77222">
        <ele>365</ele>
        <time>2016-07-17T07:47:31.000Z</time>
      </trkpt>
      <trkpt lat="47.53408" lon="6.77224">
        <ele>365</ele>
        <time>2016-07-17T07:47:32.000Z</time>
      </trkpt>
      <trkpt lat="47.53411" lon="6.77228">
        <ele>365</ele>
        <time>2016-07-17T07:47:34.000Z</time>
      </trkpt>
      <trkpt lat="47.53413" lon="6.7723">
        <ele>365</ele>
        <time>2016-07-17T07:47:35.000Z</time>
      </trkpt>
      <trkpt lat="47.53416" lon="6.77234">
        <ele>365</ele>
        <time>2016-07-17T07:47:38.000Z</time>
      </trkpt>
      <trkpt lat="47.53416" lon="6.77236">
        <ele>365</ele>
        <time>2016-07-17T07:47:39.000Z</time>
      </trkpt>
      <trkpt lat="47.53419" lon="6.7724">
        <ele>366</ele>
        <time>2016-07-17T07:47:44.000Z</time>
      </trkpt>
      <trkpt lat="47.5342" lon="6.77241">
        <ele>366</ele>
        <time>2016-07-17T07:47:45.000Z</time>
      </trkpt>
      <trkpt lat="47.53424" lon="6.77244">
        <ele>366</ele>
        <time>2016-07-17T07:47:48.000Z</time>
      </trkpt>
      <trkpt lat="47.53424" lon="6.77245">
        <ele>366</ele>
        <time>2016-07-17T07:47:49.000Z</time>
      </trkpt>
      <trkpt lat="47.53428" lon="6.77248">
        <ele>366</ele>
        <time>2016-07-17T07:47:52.000Z</time>
      </trkpt>
      <trkpt lat="47.53429" lon="6.77249">
        <ele>366</ele>
        <time>2016-07-17T07:47:53.000Z</time>
      </trkpt>
      <trkpt lat="47.53432" lon="6.77251">
        <ele>367</ele>
        <time>2016-07-17T07:47:56.000Z</time>
      </trkpt>
      <trkpt lat="47.53433" lon="6.77251">
        <ele>367</ele>
        <time>2016-07-17T07:47:57.000Z</time>
      </trkpt>
      <trkpt lat="47.53438" lon="6.77253">
        <ele>367</ele>
        <time>2016-07-17T07:48:01.000Z</time>
      </trkpt>
      <trkpt lat="47.53439" lon="6.77253">
        <ele>367</ele>
        <time>2016-07-17T07:48:02.000Z</time>
      </trkpt>
      <trkpt lat="47.53443" lon="6.77255">
        <ele>367</ele>
        <time>2016-07-17T07:48:06.000Z</time>
      </trkpt>
      <trkpt lat="47.53444" lon="6.77256">
        <ele>368</ele>
        <time>2016-07-17T07:48:07.000Z</time>
      </trkpt>
      <trkpt lat="47.53448" lon="6.7726">
        <ele>368</ele>
        <time>2016-07-17T07:48:10.000Z</time>
      </trkpt>
      <trkpt lat="47.53449" lon="6.77261">
        <ele>368</ele>
        <time>2016-07-17T07:48:11.000Z</time>
      </trkpt>
      <trkpt lat="47.53453" lon="6.77264">
        <ele>368</ele>
        <time>2016-07-17T07:48:14.000Z</time>
      </trkpt>
      <trkpt lat="47.53454" lon="6.77265">
        <ele>368</ele>
        <time>2016-07-17T07:48:15.000Z</time>
      </trkpt>
      <trkpt lat="47.53457" lon="6.77268">
        <ele>368</ele>
        <time>2016-07-17T07:48:18.000Z</time>
      </trkpt>
      <trkpt lat="47.53458" lon="6.77269">
        <ele>368</ele>
        <time>2016-07-17T07:48:19.000Z</time>
      </trkpt>
      <trkpt lat="47.53461" lon="6.77271">
        <ele>368</ele>
        <time>2016-07-17T07:48:21.000Z</time>
      </trkpt>
      <trkpt lat="47.53462" lon="6.77273">
        <ele>368</ele>
        <time>2016-07-17T07:48:22.000Z</time>
      </trkpt>
      <trkpt lat="47.53466" lon="6.77275">
        <ele>369</ele>
        <time>2016-07-17T07:48:25.000Z</time>
      </trkpt>
      <trkpt lat="47.53467" lon="6.77277">
        <ele>369</ele>
        <time>2016-07-17T07:48:26.000Z</time>
      </trkpt>
      <trkpt lat="47.53469" lon="6.7728">
        <ele>369</ele>
        <time>2016-07-17T07:48:28.000Z</time>
      </trkpt>
      <trkpt lat="47.5347" lon="6.77281">
        <ele>369</ele>
        <time>2016-07-17T07:48:29.000Z</time>
      </trkpt>
      <trkpt lat="47.53473" lon="6.77284">
        <ele>369</ele>
        <time>2016-07-17T07:48:31.000Z</time>
      </trkpt>
      <trkpt lat="47.53474" lon="6.77285">
        <ele>369</ele>
        <time>2016-07-17T07:48:32.000Z</time>
      </trkpt>
      <trkpt lat="47.53478" lon="6.77289">
        <ele>369</ele>
        <time>2016-07-17T07:48:35.000Z</time>
      </trkpt>
      <trkpt lat="47.53478" lon="6.77291">
        <ele>369</ele>
        <time>2016-07-17T07:48:36.000Z</time>
      </trkpt>
      <trkpt lat="47.53478" lon="6.77295">
        <ele>369</ele>
        <time>2016-07-17T07:48:38.000Z</time>
      </trkpt>
      <trkpt lat="47.53479" lon="6.77297">
        <ele>369</ele>
        <time>2016-07-17T07:48:39.000Z</time>
      </trkpt>
      <trkpt lat="47.53481" lon="6.77302">
        <ele>369</ele>
        <time>2016-07-17T07:48:41.000Z</time>
      </trkpt>
      <trkpt lat="47.53482" lon="6.77304">
        <ele>369</ele>
        <time>2016-07-17T07:48:42.000Z</time>
      </trkpt>
      <trkpt lat="47.53485" lon="6.77308">
        <ele>369</ele>
        <time>2016-07-17T07:48:45.000Z</time>
      </trkpt>
      <trkpt lat="47.53487" lon="6.7731">
        <ele>369</ele>
        <time>2016-07-17T07:48:46.000Z</time>
      </trkpt>
      <trkpt lat="47.53489" lon="6.77313">
        <ele>369</ele>
        <time>2016-07-17T07:48:48.000Z</time>
      </trkpt>
      <trkpt lat="47.5349" lon="6.77315">
        <ele>369</ele>
        <time>2016-07-17T07:48:49.000Z</time>
      </trkpt>
      <trkpt lat="47.53492" lon="6.77319">
        <ele>369</ele>
        <time>2016-07-17T07:48:51.000Z</time>
      </trkpt>
      <trkpt lat="47.53493" lon="6.77321">
        <ele>369</ele>
        <time>2016-07-17T07:48:52.000Z</time>
      </trkpt>
      <trkpt lat="47.53496" lon="6.77325">
        <ele>369</ele>
        <time>2016-07-17T07:48:54.000Z</time>
      </trkpt>
      <trkpt lat="47.53499" lon="6.77328">
        <ele>369</ele>
        <time>2016-07-17T07:48:55.000Z</time>
      </trkpt>
      <trkpt lat="47.53501" lon="6.77329">
        <ele>370</ele>
        <time>2016-07-17T07:48:56.000Z</time>
      </trkpt>
      <trkpt lat="47.53504" lon="6.77331">
        <ele>370</ele>
        <time>2016-07-17T07:48:57.000Z</time>
      </trkpt>
      <trkpt lat="47.53507" lon="6.77333">
        <ele>371</ele>
        <time>2016-07-17T07:48:58.000Z</time>
      </trkpt>
      <trkpt lat="47.53509" lon="6.77334">
        <ele>370</ele>
        <time>2016-07-17T07:48:59.000Z</time>
      </trkpt>
      <trkpt lat="47.53511" lon="6.77336">
        <ele>371</ele>
        <time>2016-07-17T07:49:00.000Z</time>
      </trkpt>
      <trkpt lat="47.53513" lon="6.77339">
        <ele>371</ele>
        <time>2016-07-17T07:49:01.000Z</time>
      </trkpt>
      <trkpt lat="47.53515" lon="6.77343">
        <ele>371</ele>
        <time>2016-07-17T07:49:02.000Z</time>
      </trkpt>
      <trkpt lat="47.53517" lon="6.77347">
        <ele>371</ele>
        <time>2016-07-17T07:49:03.000Z</time>
      </trkpt>
      <trkpt lat="47.53518" lon="6.77352">
        <ele>372</ele>
        <time>2016-07-17T07:49:04.000Z</time>
      </trkpt>
      <trkpt lat="47.5352" lon="6.77357">
        <ele>372</ele>
        <time>2016-07-17T07:49:05.000Z</time>
      </trkpt>
      <trkpt lat="47.53522" lon="6.77362">
        <ele>372</ele>
        <time>2016-07-17T07:49:06.000Z</time>
      </trkpt>
      <trkpt lat="47.53525" lon="6.77367">
        <ele>372</ele>
        <time>2016-07-17T07:49:07.000Z</time>
      </trkpt>
      <trkpt lat="47.53529" lon="6.77371">
        <ele>372</ele>
        <time>2016-07-17T07:49:08.000Z</time>
      </trkpt>
      <trkpt lat="47.53533" lon="6.77375">
        <ele>372</ele>
        <time>2016-07-17T07:49:09.000Z</time>
      </trkpt>
      <trkpt lat="47.53537" lon="6.77378">
        <ele>373</ele>
        <time>2016-07-17T07:49:10.000Z</time>
      </trkpt>
      <trkpt lat="47.53541" lon="6.77381">
        <ele>373</ele>
        <time>2016-07-17T07:49:11.000Z</time>
      </trkpt>
      <trkpt lat="47.53545" lon="6.77383">
        <ele>373</ele>
        <time>2016-07-17T07:49:12.000Z</time>
      </trkpt>
      <trkpt lat="47.53548" lon="6.77386">
        <ele>373</ele>
        <time>2016-07-17T07:49:13.000Z</time>
      </trkpt>
      <trkpt lat="47.53551" lon="6.77389">
        <ele>373</ele>
        <time>2016-07-17T07:49:14.000Z</time>
      </trkpt>
      <trkpt lat="47.53554" lon="6.77392">
        <ele>373</ele>
        <time>2016-07-17T07:49:15.000Z</time>
      </trkpt>
      <trkpt lat="47.53557" lon="6.77395">
        <ele>373</ele>
        <time>2016-07-17T07:49:16.000Z</time>
      </trkpt>
      <trkpt lat="47.53561" lon="6.77399">
        <ele>374</ele>
        <time>2016-07-17T07:49:17.000Z</time>
      </trkpt>
      <trkpt lat="47.53564" lon="6.77402">
        <ele>374</ele>
        <time>2016-07-17T07:49:18.000Z</time>
      </trkpt>
      <trkpt lat="47.53568" lon="6.77405">
        <ele>374</ele>
        <time>2016-07-17T07:49:19.000Z</time>
      </trkpt>
      <trkpt lat="47.53572" lon="6.7741">
        <ele>374</ele>
        <time>2016-07-17T07:49:20.000Z</time>
      </trkpt>
      <trkpt lat="47.53575" lon="6.77413">
        <ele>374</ele>
        <time>2016-07-17T07:49:21.000Z</time>
      </trkpt>
      <trkpt lat="47.53579" lon="6.77417">
        <ele>374</ele>
        <time>2016-07-17T07:49:22.000Z</time>
      </trkpt>
      <trkpt lat="47.53582" lon="6.77421">
        <ele>374</ele>
        <time>2016-07-17T07:49:23.000Z</time>
      </trkpt>
      <trkpt lat="47.53585" lon="6.77424">
        <ele>375</ele>
        <time>2016-07-17T07:49:24.000Z</time>
      </trkpt>
      <trkpt lat="47.53588" lon="6.77428">
        <ele>375</ele>
        <time>2016-07-17T07:49:25.000Z</time>
      </trkpt>
      <trkpt lat="47.53591" lon="6.77431">
        <ele>376</ele>
        <time>2016-07-17T07:49:26.000Z</time>
      </trkpt>
      <trkpt lat="47.53594" lon="6.77435">
        <ele>376</ele>
        <time>2016-07-17T07:49:27.000Z</time>
      </trkpt>
      <trkpt lat="47.53598" lon="6.7744">
        <ele>376</ele>
        <time>2016-07-17T07:49:28.000Z</time>
      </trkpt>
      <trkpt lat="47.53603" lon="6.77445">
        <ele>376</ele>
        <time>2016-07-17T07:49:29.000Z</time>
      </trkpt>
      <trkpt lat="47.53607" lon="6.7745">
        <ele>376</ele>
        <time>2016-07-17T07:49:30.000Z</time>
      </trkpt>
      <trkpt lat="47.53611" lon="6.77454">
        <ele>376</ele>
        <time>2016-07-17T07:49:31.000Z</time>
      </trkpt>
      <trkpt lat="47.53615" lon="6.77459">
        <ele>376</ele>
        <time>2016-07-17T07:49:32.000Z</time>
      </trkpt>
      <trkpt lat="47.5362" lon="6.77463">
        <ele>376</ele>
        <time>2016-07-17T07:49:33.000Z</time>
      </trkpt>
      <trkpt lat="47.53624" lon="6.77467">
        <ele>376</ele>
        <time>2016-07-17T07:49:34.000Z</time>
      </trkpt>
      <trkpt lat="47.53627" lon="6.77472">
        <ele>376</ele>
        <time>2016-07-17T07:49:35.000Z</time>
      </trkpt>
      <trkpt lat="47.53631" lon="6.77477">
        <ele>376</ele>
        <time>2016-07-17T07:49:36.000Z</time>
      </trkpt>
      <trkpt lat="47.53634" lon="6.77482">
        <ele>376</ele>
        <time>2016-07-17T07:49:37.000Z</time>
      </trkpt>
      <trkpt lat="47.53636" lon="6.77488">
        <ele>377</ele>
        <time>2016-07-17T07:49:38.000Z</time>
      </trkpt>
      <trkpt lat="47.53639" lon="6.77494">
        <ele>377</ele>
        <time>2016-07-17T07:49:39.000Z</time>
      </trkpt>
      <trkpt lat="47.53642" lon="6.77501">
        <ele>373</ele>
        <time>2016-07-17T07:49:40.000Z</time>
      </trkpt>
      <trkpt lat="47.5365" lon="6.77518">
        <ele>373</ele>
        <time>2016-07-17T07:49:41.000Z</time>
      </trkpt>
      <trkpt lat="47.53654" lon="6.77526">
        <ele>372</ele>
        <time>2016-07-17T07:49:42.000Z</time>
      </trkpt>
      <trkpt lat="47.53657" lon="6.77534">
        <ele>372</ele>
        <time>2016-07-17T07:49:43.000Z</time>
      </trkpt>
      <trkpt lat="47.53664" lon="6.7754">
        <ele>371</ele>
        <time>2016-07-17T07:49:44.000Z</time>
      </trkpt>
      <trkpt lat="47.53668" lon="6.77546">
        <ele>376</ele>
        <time>2016-07-17T07:49:45.000Z</time>
      </trkpt>
      <trkpt lat="47.53672" lon="6.77553">
        <ele>375</ele>
        <time>2016-07-17T07:49:46.000Z</time>
      </trkpt>
      <trkpt lat="47.53675" lon="6.7756">
        <ele>374</ele>
        <time>2016-07-17T07:49:47.000Z</time>
      </trkpt>
      <trkpt lat="47.5368" lon="6.77567">
        <ele>374</ele>
        <time>2016-07-17T07:49:48.000Z</time>
      </trkpt>
      <trkpt lat="47.53686" lon="6.77575">
        <ele>374</ele>
        <time>2016-07-17T07:49:49.000Z</time>
      </trkpt>
      <trkpt lat="47.53693" lon="6.77584">
        <ele>369</ele>
        <time>2016-07-17T07:49:50.000Z</time>
      </trkpt>
      <trkpt lat="47.53699" lon="6.77592">
        <ele>369</ele>
        <time>2016-07-17T07:49:51.000Z</time>
      </trkpt>
      <trkpt lat="47.53705" lon="6.77601">
        <ele>369</ele>
        <time>2016-07-17T07:49:52.000Z</time>
      </trkpt>
      <trkpt lat="47.53706" lon="6.77608">
        <ele>368</ele>
        <time>2016-07-17T07:49:53.000Z</time>
      </trkpt>
      <trkpt lat="47.53711" lon="6.77618">
        <ele>368</ele>
        <time>2016-07-17T07:49:54.000Z</time>
      </trkpt>
      <trkpt lat="47.53714" lon="6.77628">
        <ele>368</ele>
        <time>2016-07-17T07:49:55.000Z</time>
      </trkpt>
      <trkpt lat="47.53718" lon="6.77638">
        <ele>367</ele>
        <time>2016-07-17T07:49:56.000Z</time>
      </trkpt>
      <trkpt lat="47.53721" lon="6.77652">
        <ele>367</ele>
        <time>2016-07-17T07:49:57.000Z</time>
      </trkpt>
      <trkpt lat="47.53727" lon="6.77662">
        <ele>366</ele>
        <time>2016-07-17T07:49:58.000Z</time>
      </trkpt>
      <trkpt lat="47.53734" lon="6.77673">
        <ele>363</ele>
        <time>2016-07-17T07:49:59.000Z</time>
      </trkpt>
      <trkpt lat="47.53738" lon="6.77689">
        <ele>362</ele>
        <time>2016-07-17T07:50:00.000Z</time>
      </trkpt>
      <trkpt lat="47.53742" lon="6.77699">
        <ele>361</ele>
        <time>2016-07-17T07:50:01.000Z</time>
      </trkpt>
      <trkpt lat="47.53747" lon="6.7771">
        <ele>360</ele>
        <time>2016-07-17T07:50:02.000Z</time>
      </trkpt>
      <trkpt lat="47.53753" lon="6.77717">
        <ele>359</ele>
        <time>2016-07-17T07:50:03.000Z</time>
      </trkpt>
      <trkpt lat="47.53757" lon="6.77722">
        <ele>359</ele>
        <time>2016-07-17T07:50:04.000Z</time>
      </trkpt>
      <trkpt lat="47.53764" lon="6.77729">
        <ele>359</ele>
        <time>2016-07-17T07:50:05.000Z</time>
      </trkpt>
      <trkpt lat="47.53769" lon="6.7773">
        <ele>358</ele>
        <time>2016-07-17T07:50:06.000Z</time>
      </trkpt>
      <trkpt lat="47.53774" lon="6.77731">
        <ele>358</ele>
        <time>2016-07-17T07:50:07.000Z</time>
      </trkpt>
      <trkpt lat="47.53778" lon="6.7773">
        <ele>358</ele>
        <time>2016-07-17T07:50:08.000Z</time>
      </trkpt>
      <trkpt lat="47.53782" lon="6.77729">
        <ele>358</ele>
        <time>2016-07-17T07:50:09.000Z</time>
      </trkpt>
      <trkpt lat="47.53788" lon="6.77729">
        <ele>358</ele>
        <time>2016-07-17T07:50:10.000Z</time>
      </trkpt>
      <trkpt lat="47.53793" lon="6.77726">
        <ele>358</ele>
        <time>2016-07-17T07:50:11.000Z</time>
      </trkpt>
      <trkpt lat="47.53801" lon="6.77728">
        <ele>357</ele>
        <time>2016-07-17T07:50:12.000Z</time>
      </trkpt>
      <trkpt lat="47.53808" lon="6.7772">
        <ele>357</ele>
        <time>2016-07-17T07:50:13.000Z</time>
      </trkpt>
      <trkpt lat="47.53814" lon="6.77714">
        <ele>357</ele>
        <time>2016-07-17T07:50:14.000Z</time>
      </trkpt>
      <trkpt lat="47.5382" lon="6.77708">
        <ele>358</ele>
        <time>2016-07-17T07:50:15.000Z</time>
      </trkpt>
      <trkpt lat="47.53825" lon="6.77703">
        <ele>358</ele>
        <time>2016-07-17T07:50:16.000Z</time>
      </trkpt>
      <trkpt lat="47.5383" lon="6.77703">
        <ele>358</ele>
        <time>2016-07-17T07:50:17.000Z</time>
      </trkpt>
      <trkpt lat="47.53831" lon="6.77705">
        <ele>358</ele>
        <time>2016-07-17T07:50:18.000Z</time>
      </trkpt>
      <trkpt lat="47.53835" lon="6.77702">
        <ele>355</ele>
        <time>2016-07-17T07:50:20.000Z</time>
      </trkpt>
      <trkpt lat="47.53837" lon="6.77698">
        <ele>355</ele>
        <time>2016-07-17T07:50:21.000Z</time>
      </trkpt>
      <trkpt lat="47.5384" lon="6.77695">
        <ele>356</ele>
        <time>2016-07-17T07:50:22.000Z</time>
      </trkpt>
      <trkpt lat="47.53843" lon="6.77693">
        <ele>356</ele>
        <time>2016-07-17T07:50:23.000Z</time>
      </trkpt>
      <trkpt lat="47.53845" lon="6.77692">
        <ele>356</ele>
        <time>2016-07-17T07:50:24.000Z</time>
      </trkpt>
      <trkpt lat="47.53848" lon="6.7769">
        <ele>356</ele>
        <time>2016-07-17T07:50:25.000Z</time>
      </trkpt>
      <trkpt lat="47.53851" lon="6.77688">
        <ele>356</ele>
        <time>2016-07-17T07:50:26.000Z</time>
      </trkpt>
      <trkpt lat="47.53854" lon="6.77687">
        <ele>356</ele>
        <time>2016-07-17T07:50:27.000Z</time>
      </trkpt>
      <trkpt lat="47.53857" lon="6.77686">
        <ele>356</ele>
        <time>2016-07-17T07:50:28.000Z</time>
      </trkpt>
      <trkpt lat="47.5386" lon="6.77685">
        <ele>356</ele>
        <time>2016-07-17T07:50:29.000Z</time>
      </trkpt>
      <trkpt lat="47.53863" lon="6.77684">
        <ele>355</ele>
        <time>2016-07-17T07:50:30.000Z</time>
      </trkpt>
      <trkpt lat="47.53866" lon="6.77683">
        <ele>355</ele>
        <time>2016-07-17T07:50:31.000Z</time>
      </trkpt>
      <trkpt lat="47.53869" lon="6.77681">
        <ele>355</ele>
        <time>2016-07-17T07:50:32.000Z</time>
      </trkpt>
      <trkpt lat="47.53872" lon="6.77679">
        <ele>355</ele>
        <time>2016-07-17T07:50:33.000Z</time>
      </trkpt>
      <trkpt lat="47.53875" lon="6.77677">
        <ele>355</ele>
        <time>2016-07-17T07:50:34.000Z</time>
      </trkpt>
      <trkpt lat="47.53878" lon="6.77675">
        <ele>355</ele>
        <time>2016-07-17T07:50:35.000Z</time>
      </trkpt>
      <trkpt lat="47.53884" lon="6.77666">
        <ele>361</ele>
        <time>2016-07-17T07:50:36.000Z</time>
      </trkpt>
      <trkpt lat="47.53886" lon="6.77668">
        <ele>355</ele>
        <time>2016-07-17T07:50:37.000Z</time>
      </trkpt>
      <trkpt lat="47.53889" lon="6.77668">
        <ele>354</ele>
        <time>2016-07-17T07:50:38.000Z</time>
      </trkpt>
      <trkpt lat="47.53892" lon="6.77667">
        <ele>354</ele>
        <time>2016-07-17T07:50:39.000Z</time>
      </trkpt>
      <trkpt lat="47.53894" lon="6.77666">
        <ele>360</ele>
        <time>2016-07-17T07:50:40.000Z</time>
      </trkpt>
      <trkpt lat="47.53897" lon="6.77663">
        <ele>360</ele>
        <time>2016-07-17T07:50:41.000Z</time>
      </trkpt>
      <trkpt lat="47.539" lon="6.7766">
        <ele>359</ele>
        <time>2016-07-17T07:50:42.000Z</time>
      </trkpt>
      <trkpt lat="47.53902" lon="6.77656">
        <ele>359</ele>
        <time>2016-07-17T07:50:43.000Z</time>
      </trkpt>
      <trkpt lat="47.53905" lon="6.77653">
        <ele>359</ele>
        <time>2016-07-17T07:50:44.000Z</time>
      </trkpt>
      <trkpt lat="47.53908" lon="6.7765">
        <ele>359</ele>
        <time>2016-07-17T07:50:45.000Z</time>
      </trkpt>
      <trkpt lat="47.5391" lon="6.7765">
        <ele>359</ele>
        <time>2016-07-17T07:50:46.000Z</time>
      </trkpt>
      <trkpt lat="47.53913" lon="6.77651">
        <ele>359</ele>
        <time>2016-07-17T07:50:47.000Z</time>
      </trkpt>
      <trkpt lat="47.53915" lon="6.77649">
        <ele>359</ele>
        <time>2016-07-17T07:50:48.000Z</time>
      </trkpt>
      <trkpt lat="47.53918" lon="6.77647">
        <ele>356</ele>
        <time>2016-07-17T07:50:49.000Z</time>
      </trkpt>
      <trkpt lat="47.5392" lon="6.77646">
        <ele>356</ele>
        <time>2016-07-17T07:50:50.000Z</time>
      </trkpt>
      <trkpt lat="47.53923" lon="6.77646">
        <ele>356</ele>
        <time>2016-07-17T07:50:51.000Z</time>
      </trkpt>
      <trkpt lat="47.53925" lon="6.77643">
        <ele>356</ele>
        <time>2016-07-17T07:50:52.000Z</time>
      </trkpt>
      <trkpt lat="47.53928" lon="6.77639">
        <ele>356</ele>
        <time>2016-07-17T07:50:53.000Z</time>
      </trkpt>
      <trkpt lat="47.5393" lon="6.77635">
        <ele>356</ele>
        <time>2016-07-17T07:50:54.000Z</time>
      </trkpt>
      <trkpt lat="47.53933" lon="6.77631">
        <ele>357</ele>
        <time>2016-07-17T07:50:55.000Z</time>
      </trkpt>
      <trkpt lat="47.53935" lon="6.77628">
        <ele>357</ele>
        <time>2016-07-17T07:50:56.000Z</time>
      </trkpt>
      <trkpt lat="47.53937" lon="6.77625">
        <ele>357</ele>
        <time>2016-07-17T07:50:57.000Z</time>
      </trkpt>
      <trkpt lat="47.5394" lon="6.77621">
        <ele>357</ele>
        <time>2016-07-17T07:50:58.000Z</time>
      </trkpt>
      <trkpt lat="47.53942" lon="6.77619">
        <ele>357</ele>
        <time>2016-07-17T07:50:59.000Z</time>
      </trkpt>
      <trkpt lat="47.53945" lon="6.77618">
        <ele>357</ele>
        <time>2016-07-17T07:51:00.000Z</time>
      </trkpt>
      <trkpt lat="47.53948" lon="6.77616">
        <ele>357</ele>
        <time>2016-07-17T07:51:01.000Z</time>
      </trkpt>
      <trkpt lat="47.53951" lon="6.77613">
        <ele>357</ele>
        <time>2016-07-17T07:51:02.000Z</time>
      </trkpt>
      <trkpt lat="47.53954" lon="6.7761">
        <ele>357</ele>
        <time>2016-07-17T07:51:03.000Z</time>
      </trkpt>
      <trkpt lat="47.53956" lon="6.77608">
        <ele>357</ele>
        <time>2016-07-17T07:51:04.000Z</time>
      </trkpt>
      <trkpt lat="47.53959" lon="6.77606">
        <ele>357</ele>
        <time>2016-07-17T07:51:05.000Z</time>
      </trkpt>
      <trkpt lat="47.53962" lon="6.77605">
        <ele>357</ele>
        <time>2016-07-17T07:51:06.000Z</time>
      </trkpt>
      <trkpt lat="47.53965" lon="6.77604">
        <ele>357</ele>
        <time>2016-07-17T07:51:07.000Z</time>
      </trkpt>
      <trkpt lat="47.53969" lon="6.77602">
        <ele>357</ele>
        <time>2016-07-17T07:51:08.000Z</time>
      </trkpt>
      <trkpt lat="47.53972" lon="6.77601">
        <ele>357</ele>
        <time>2016-07-17T07:51:09.000Z</time>
      </trkpt>
      <trkpt lat="47.53975" lon="6.776">
        <ele>357</ele>
        <time>2016-07-17T07:51:10.000Z</time>
      </trkpt>
      <trkpt lat="47.53977" lon="6.77598">
        <ele>357</ele>
        <time>2016-07-17T07:51:11.000Z</time>
      </trkpt>
      <trkpt lat="47.53979" lon="6.77597">
        <ele>357</ele>
        <time>2016-07-17T07:51:12.000Z</time>
      </trkpt>
      <trkpt lat="47.53982" lon="6.77595">
        <ele>357</ele>
        <time>2016-07-17T07:51:13.000Z</time>
      </trkpt>
      <trkpt lat="47.53984" lon="6.77593">
        <ele>357</ele>
        <time>2016-07-17T07:51:14.000Z</time>
      </trkpt>
      <trkpt lat="47.53986" lon="6.77591">
        <ele>357</ele>
        <time>2016-07-17T07:51:15.000Z</time>
      </trkpt>
      <trkpt lat="47.53989" lon="6.77588">
        <ele>358</ele>
        <time>2016-07-17T07:51:16.000Z</time>
      </trkpt>
      <trkpt lat="47.53992" lon="6.77584">
        <ele>358</ele>
        <time>2016-07-17T07:51:17.000Z</time>
      </trkpt>
      <trkpt lat="47.53995" lon="6.77581">
        <ele>360</ele>
        <time>2016-07-17T07:51:18.000Z</time>
      </trkpt>
      <trkpt lat="47.53998" lon="6.77578">
        <ele>360</ele>
        <time>2016-07-17T07:51:19.000Z</time>
      </trkpt>
      <trkpt lat="47.54001" lon="6.77576">
        <ele>359</ele>
        <time>2016-07-17T07:51:20.000Z</time>
      </trkpt>
      <trkpt lat="47.54004" lon="6.77573">
        <ele>359</ele>
        <time>2016-07-17T07:51:21.000Z</time>
      </trkpt>
      <trkpt lat="47.54007" lon="6.7757">
        <ele>360</ele>
        <time>2016-07-17T07:51:22.000Z</time>
      </trkpt>
      <trkpt lat="47.5401" lon="6.77567">
        <ele>360</ele>
        <time>2016-07-17T07:51:23.000Z</time>
      </trkpt>
      <trkpt lat="47.54013" lon="6.77564">
        <ele>360</ele>
        <time>2016-07-17T07:51:24.000Z</time>
      </trkpt>
      <trkpt lat="47.54015" lon="6.7756">
        <ele>361</ele>
        <time>2016-07-17T07:51:25.000Z</time>
      </trkpt>
      <trkpt lat="47.54018" lon="6.77557">
        <ele>361</ele>
        <time>2016-07-17T07:51:26.000Z</time>
      </trkpt>
      <trkpt lat="47.54021" lon="6.77555">
        <ele>361</ele>
        <time>2016-07-17T07:51:27.000Z</time>
      </trkpt>
      <trkpt lat="47.54024" lon="6.77552">
        <ele>361</ele>
        <time>2016-07-17T07:51:28.000Z</time>
      </trkpt>
      <trkpt lat="47.54027" lon="6.7755">
        <ele>361</ele>
        <time>2016-07-17T07:51:29.000Z</time>
      </trkpt>
      <trkpt lat="47.5403" lon="6.77547">
        <ele>362</ele>
        <time>2016-07-17T07:51:30.000Z</time>
      </trkpt>
      <trkpt lat="47.54033" lon="6.77545">
        <ele>362</ele>
        <time>2016-07-17T07:51:31.000Z</time>
      </trkpt>
      <trkpt lat="47.54035" lon="6.77542">
        <ele>362</ele>
        <time>2016-07-17T07:51:32.000Z</time>
      </trkpt>
      <trkpt lat="47.54036" lon="6.77539">
        <ele>362</ele>
        <time>2016-07-17T07:51:33.000Z</time>
      </trkpt>
      <trkpt lat="47.54038" lon="6.77537">
        <ele>362</ele>
        <time>2016-07-17T07:51:34.000Z</time>
      </trkpt>
      <trkpt lat="47.54042" lon="6.77534">
        <ele>362</ele>
        <time>2016-07-17T07:51:35.000Z</time>
      </trkpt>
      <trkpt lat="47.54047" lon="6.77531">
        <ele>362</ele>
        <time>2016-07-17T07:51:36.000Z</time>
      </trkpt>
      <trkpt lat="47.54052" lon="6.77529">
        <ele>362</ele>
        <time>2016-07-17T07:51:37.000Z</time>
      </trkpt>
      <trkpt lat="47.54058" lon="6.77527">
        <ele>362</ele>
        <time>2016-07-17T07:51:38.000Z</time>
      </trkpt>
      <trkpt lat="47.54064" lon="6.77526">
        <ele>362</ele>
        <time>2016-07-17T07:51:39.000Z</time>
      </trkpt>
      <trkpt lat="47.54077" lon="6.77523">
        <ele>361</ele>
        <time>2016-07-17T07:51:40.000Z</time>
      </trkpt>
      <trkpt lat="47.54083" lon="6.77521">
        <ele>361</ele>
        <time>2016-07-17T07:51:41.000Z</time>
      </trkpt>
      <trkpt lat="47.54089" lon="6.7752">
        <ele>359</ele>
        <time>2016-07-17T07:51:42.000Z</time>
      </trkpt>
      <trkpt lat="47.54095" lon="6.77518">
        <ele>359</ele>
        <time>2016-07-17T07:51:43.000Z</time>
      </trkpt>
      <trkpt lat="47.54101" lon="6.77517">
        <ele>358</ele>
        <time>2016-07-17T07:51:44.000Z</time>
      </trkpt>
      <trkpt lat="47.54107" lon="6.77516">
        <ele>358</ele>
        <time>2016-07-17T07:51:45.000Z</time>
      </trkpt>
      <trkpt lat="47.54113" lon="6.77514">
        <ele>358</ele>
        <time>2016-07-17T07:51:46.000Z</time>
      </trkpt>
      <trkpt lat="47.54119" lon="6.77513">
        <ele>358</ele>
        <time>2016-07-17T07:51:47.000Z</time>
      </trkpt>
      <trkpt lat="47.54125" lon="6.77513">
        <ele>357</ele>
        <time>2016-07-17T07:51:48.000Z</time>
      </trkpt>
      <trkpt lat="47.54131" lon="6.77514">
        <ele>357</ele>
        <time>2016-07-17T07:51:49.000Z</time>
      </trkpt>
      <trkpt lat="47.54137" lon="6.77513">
        <ele>357</ele>
        <time>2016-07-17T07:51:50.000Z</time>
      </trkpt>
      <trkpt lat="47.54143" lon="6.77509">
        <ele>357</ele>
        <time>2016-07-17T07:51:51.000Z</time>
      </trkpt>
      <trkpt lat="47.54149" lon="6.77507">
        <ele>357</ele>
        <time>2016-07-17T07:51:52.000Z</time>
      </trkpt>
      <trkpt lat="47.54155" lon="6.77507">
        <ele>357</ele>
        <time>2016-07-17T07:51:53.000Z</time>
      </trkpt>
      <trkpt lat="47.54161" lon="6.77506">
        <ele>357</ele>
        <time>2016-07-17T07:51:54.000Z</time>
      </trkpt>
      <trkpt lat="47.54168" lon="6.77505">
        <ele>357</ele>
        <time>2016-07-17T07:51:55.000Z</time>
      </trkpt>
      <trkpt lat="47.54173" lon="6.77503">
        <ele>357</ele>
        <time>2016-07-17T07:51:56.000Z</time>
      </trkpt>
      <trkpt lat="47.54179" lon="6.77501">
        <ele>357</ele>
        <time>2016-07-17T07:51:57.000Z</time>
      </trkpt>
      <trkpt lat="47.54184" lon="6.775">
        <ele>356</ele>
        <time>2016-07-17T07:51:58.000Z</time>
      </trkpt>
      <trkpt lat="47.54189" lon="6.77499">
        <ele>361</ele>
        <time>2016-07-17T07:51:59.000Z</time>
      </trkpt>
      <trkpt lat="47.54194" lon="6.77498">
        <ele>361</ele>
        <time>2016-07-17T07:52:00.000Z</time>
      </trkpt>
      <trkpt lat="47.54199" lon="6.77497">
        <ele>361</ele>
        <time>2016-07-17T07:52:01.000Z</time>
      </trkpt>
      <trkpt lat="47.54203" lon="6.77495">
        <ele>361</ele>
        <time>2016-07-17T07:52:02.000Z</time>
      </trkpt>
      <trkpt lat="47.54208" lon="6.77494">
        <ele>361</ele>
        <time>2016-07-17T07:52:03.000Z</time>
      </trkpt>
      <trkpt lat="47.54213" lon="6.77491">
        <ele>361</ele>
        <time>2016-07-17T07:52:04.000Z</time>
      </trkpt>
      <trkpt lat="47.54217" lon="6.7749">
        <ele>361</ele>
        <time>2016-07-17T07:52:05.000Z</time>
      </trkpt>
      <trkpt lat="47.54221" lon="6.77487">
        <ele>361</ele>
        <time>2016-07-17T07:52:06.000Z</time>
      </trkpt>
      <trkpt lat="47.54224" lon="6.77484">
        <ele>361</ele>
        <time>2016-07-17T07:52:07.000Z</time>
      </trkpt>
      <trkpt lat="47.54227" lon="6.77481">
        <ele>361</ele>
        <time>2016-07-17T07:52:08.000Z</time>
      </trkpt>
      <trkpt lat="47.54231" lon="6.77478">
        <ele>361</ele>
        <time>2016-07-17T07:52:09.000Z</time>
      </trkpt>
      <trkpt lat="47.54235" lon="6.77473">
        <ele>361</ele>
        <time>2016-07-17T07:52:10.000Z</time>
      </trkpt>
      <trkpt lat="47.54238" lon="6.77467">
        <ele>362</ele>
        <time>2016-07-17T07:52:11.000Z</time>
      </trkpt>
      <trkpt lat="47.54241" lon="6.77464">
        <ele>362</ele>
        <time>2016-07-17T07:52:12.000Z</time>
      </trkpt>
      <trkpt lat="47.54245" lon="6.7746">
        <ele>362</ele>
        <time>2016-07-17T07:52:13.000Z</time>
      </trkpt>
      <trkpt lat="47.54249" lon="6.77458">
        <ele>362</ele>
        <time>2016-07-17T07:52:14.000Z</time>
      </trkpt>
      <trkpt lat="47.54253" lon="6.77456">
        <ele>358</ele>
        <time>2016-07-17T07:52:15.000Z</time>
      </trkpt>
      <trkpt lat="47.54258" lon="6.7746">
        <ele>357</ele>
        <time>2016-07-17T07:52:16.000Z</time>
      </trkpt>
      <trkpt lat="47.54263" lon="6.77461">
        <ele>357</ele>
        <time>2016-07-17T07:52:17.000Z</time>
      </trkpt>
      <trkpt lat="47.54267" lon="6.77462">
        <ele>357</ele>
        <time>2016-07-17T07:52:18.000Z</time>
      </trkpt>
      <trkpt lat="47.54272" lon="6.77461">
        <ele>357</ele>
        <time>2016-07-17T07:52:19.000Z</time>
      </trkpt>
      <trkpt lat="47.54276" lon="6.7746">
        <ele>357</ele>
        <time>2016-07-17T07:52:20.000Z</time>
      </trkpt>
      <trkpt lat="47.5428" lon="6.77458">
        <ele>357</ele>
        <time>2016-07-17T07:52:21.000Z</time>
      </trkpt>
      <trkpt lat="47.54284" lon="6.77456">
        <ele>356</ele>
        <time>2016-07-17T07:52:22.000Z</time>
      </trkpt>
      <trkpt lat="47.54288" lon="6.77454">
        <ele>356</ele>
        <time>2016-07-17T07:52:23.000Z</time>
      </trkpt>
      <trkpt lat="47.54292" lon="6.77453">
        <ele>356</ele>
        <time>2016-07-17T07:52:24.000Z</time>
      </trkpt>
      <trkpt lat="47.54296" lon="6.77451">
        <ele>356</ele>
        <time>2016-07-17T07:52:25.000Z</time>
      </trkpt>
      <trkpt lat="47.54301" lon="6.7745">
        <ele>356</ele>
        <time>2016-07-17T07:52:26.000Z</time>
      </trkpt>
      <trkpt lat="47.54305" lon="6.77448">
        <ele>355</ele>
        <time>2016-07-17T07:52:27.000Z</time>
      </trkpt>
      <trkpt lat="47.5431" lon="6.77447">
        <ele>355</ele>
        <time>2016-07-17T07:52:28.000Z</time>
      </trkpt>
      <trkpt lat="47.54316" lon="6.77445">
        <ele>355</ele>
        <time>2016-07-17T07:52:29.000Z</time>
      </trkpt>
      <trkpt lat="47.54322" lon="6.77444">
        <ele>354</ele>
        <time>2016-07-17T07:52:30.000Z</time>
      </trkpt>
      <trkpt lat="47.54327" lon="6.77442">
        <ele>354</ele>
        <time>2016-07-17T07:52:31.000Z</time>
      </trkpt>
      <trkpt lat="47.54333" lon="6.7744">
        <ele>354</ele>
        <time>2016-07-17T07:52:32.000Z</time>
      </trkpt>
      <trkpt lat="47.54339" lon="6.77438">
        <ele>350</ele>
        <time>2016-07-17T07:52:33.000Z</time>
      </trkpt>
      <trkpt lat="47.54346" lon="6.77437">
        <ele>350</ele>
        <time>2016-07-17T07:52:34.000Z</time>
      </trkpt>
      <trkpt lat="47.54353" lon="6.77435">
        <ele>350</ele>
        <time>2016-07-17T07:52:35.000Z</time>
      </trkpt>
      <trkpt lat="47.5436" lon="6.77433">
        <ele>350</ele>
        <time>2016-07-17T07:52:36.000Z</time>
      </trkpt>
      <trkpt lat="47.54367" lon="6.77432">
        <ele>349</ele>
        <time>2016-07-17T07:52:37.000Z</time>
      </trkpt>
      <trkpt lat="47.54374" lon="6.77431">
        <ele>349</ele>
        <time>2016-07-17T07:52:38.000Z</time>
      </trkpt>
      <trkpt lat="47.5438" lon="6.77433">
        <ele>349</ele>
        <time>2016-07-17T07:52:39.000Z</time>
      </trkpt>
      <trkpt lat="47.54386" lon="6.77437">
        <ele>349</ele>
        <time>2016-07-17T07:52:40.000Z</time>
      </trkpt>
      <trkpt lat="47.54391" lon="6.77443">
        <ele>349</ele>
        <time>2016-07-17T07:52:41.000Z</time>
      </trkpt>
      <trkpt lat="47.54394" lon="6.77453">
        <ele>349</ele>
        <time>2016-07-17T07:52:42.000Z</time>
      </trkpt>
      <trkpt lat="47.54394" lon="6.77464">
        <ele>349</ele>
        <time>2016-07-17T07:52:43.000Z</time>
      </trkpt>
      <trkpt lat="47.54396" lon="6.77474">
        <ele>349</ele>
        <time>2016-07-17T07:52:44.000Z</time>
      </trkpt>
      <trkpt lat="47.54397" lon="6.77484">
        <ele>348</ele>
        <time>2016-07-17T07:52:45.000Z</time>
      </trkpt>
      <trkpt lat="47.54399" lon="6.77494">
        <ele>348</ele>
        <time>2016-07-17T07:52:46.000Z</time>
      </trkpt>
      <trkpt lat="47.544" lon="6.77503">
        <ele>348</ele>
        <time>2016-07-17T07:52:47.000Z</time>
      </trkpt>
      <trkpt lat="47.544" lon="6.77512">
        <ele>348</ele>
        <time>2016-07-17T07:52:48.000Z</time>
      </trkpt>
      <trkpt lat="47.54401" lon="6.7752">
        <ele>348</ele>
        <time>2016-07-17T07:52:49.000Z</time>
      </trkpt>
      <trkpt lat="47.54402" lon="6.77529">
        <ele>348</ele>
        <time>2016-07-17T07:52:50.000Z</time>
      </trkpt>
      <trkpt lat="47.54403" lon="6.77538">
        <ele>348</ele>
        <time>2016-07-17T07:52:51.000Z</time>
      </trkpt>
      <trkpt lat="47.54403" lon="6.77547">
        <ele>348</ele>
        <time>2016-07-17T07:52:52.000Z</time>
      </trkpt>
      <trkpt lat="47.54407" lon="6.77555">
        <ele>348</ele>
        <time>2016-07-17T07:52:53.000Z</time>
      </trkpt>
      <trkpt lat="47.5441" lon="6.77562">
        <ele>347</ele>
        <time>2016-07-17T07:52:54.000Z</time>
      </trkpt>
      <trkpt lat="47.54413" lon="6.77568">
        <ele>347</ele>
        <time>2016-07-17T07:52:55.000Z</time>
      </trkpt>
      <trkpt lat="47.54416" lon="6.77575">
        <ele>346</ele>
        <time>2016-07-17T07:52:56.000Z</time>
      </trkpt>
      <trkpt lat="47.54415" lon="6.77584">
        <ele>345</ele>
        <time>2016-07-17T07:52:57.000Z</time>
      </trkpt>
      <trkpt lat="47.54416" lon="6.7759">
        <ele>345</ele>
        <time>2016-07-17T07:52:58.000Z</time>
      </trkpt>
      <trkpt lat="47.54416" lon="6.77597">
        <ele>345</ele>
        <time>2016-07-17T07:52:59.000Z</time>
      </trkpt>
      <trkpt lat="47.54422" lon="6.776">
        <ele>344</ele>
        <time>2016-07-17T07:53:00.000Z</time>
      </trkpt>
      <trkpt lat="47.54428" lon="6.77605">
        <ele>344</ele>
        <time>2016-07-17T07:53:01.000Z</time>
      </trkpt>
      <trkpt lat="47.54434" lon="6.7761">
        <ele>344</ele>
        <time>2016-07-17T07:53:02.000Z</time>
      </trkpt>
      <trkpt lat="47.5444" lon="6.77615">
        <ele>344</ele>
        <time>2016-07-17T07:53:03.000Z</time>
      </trkpt>
      <trkpt lat="47.54446" lon="6.77619">
        <ele>344</ele>
        <time>2016-07-17T07:53:04.000Z</time>
      </trkpt>
      <trkpt lat="47.54452" lon="6.77626">
        <ele>344</ele>
        <time>2016-07-17T07:53:05.000Z</time>
      </trkpt>
      <trkpt lat="47.54456" lon="6.77637">
        <ele>343</ele>
        <time>2016-07-17T07:53:06.000Z</time>
      </trkpt>
      <trkpt lat="47.54459" lon="6.77648">
        <ele>343</ele>
        <time>2016-07-17T07:53:07.000Z</time>
      </trkpt>
      <trkpt lat="47.54461" lon="6.77658">
        <ele>343</ele>
        <time>2016-07-17T07:53:08.000Z</time>
      </trkpt>
      <trkpt lat="47.54463" lon="6.77671">
        <ele>340</ele>
        <time>2016-07-17T07:53:09.000Z</time>
      </trkpt>
      <trkpt lat="47.54466" lon="6.77682">
        <ele>340</ele>
        <time>2016-07-17T07:53:10.000Z</time>
      </trkpt>
      <trkpt lat="47.54469" lon="6.77692">
        <ele>340</ele>
        <time>2016-07-17T07:53:11.000Z</time>
      </trkpt>
      <trkpt lat="47.54472" lon="6.77702">
        <ele>340</ele>
        <time>2016-07-17T07:53:12.000Z</time>
      </trkpt>
      <trkpt lat="47.54476" lon="6.77713">
        <ele>339</ele>
        <time>2016-07-17T07:53:13.000Z</time>
      </trkpt>
      <trkpt lat="47.5448" lon="6.77724">
        <ele>339</ele>
        <time>2016-07-17T07:53:14.000Z</time>
      </trkpt>
      <trkpt lat="47.5448" lon="6.77735">
        <ele>339</ele>
        <time>2016-07-17T07:53:15.000Z</time>
      </trkpt>
      <trkpt lat="47.5448" lon="6.77745">
        <ele>339</ele>
        <time>2016-07-17T07:53:16.000Z</time>
      </trkpt>
      <trkpt lat="47.54479" lon="6.77755">
        <ele>336</ele>
        <time>2016-07-17T07:53:17.000Z</time>
      </trkpt>
      <trkpt lat="47.54477" lon="6.77764">
        <ele>336</ele>
        <time>2016-07-17T07:53:18.000Z</time>
      </trkpt>
      <trkpt lat="47.54477" lon="6.77774">
        <ele>335</ele>
        <time>2016-07-17T07:53:19.000Z</time>
      </trkpt>
      <trkpt lat="47.54476" lon="6.77783">
        <ele>335</ele>
        <time>2016-07-17T07:53:20.000Z</time>
      </trkpt>
      <trkpt lat="47.54476" lon="6.77792">
        <ele>334</ele>
        <time>2016-07-17T07:53:21.000Z</time>
      </trkpt>
      <trkpt lat="47.54476" lon="6.778">
        <ele>334</ele>
        <time>2016-07-17T07:53:22.000Z</time>
      </trkpt>
      <trkpt lat="47.54476" lon="6.77809">
        <ele>334</ele>
        <time>2016-07-17T07:53:23.000Z</time>
      </trkpt>
      <trkpt lat="47.54476" lon="6.77819">
        <ele>334</ele>
        <time>2016-07-17T07:53:24.000Z</time>
      </trkpt>
      <trkpt lat="47.54477" lon="6.77827">
        <ele>334</ele>
        <time>2016-07-17T07:53:25.000Z</time>
      </trkpt>
      <trkpt lat="47.54478" lon="6.77836">
        <ele>331</ele>
        <time>2016-07-17T07:53:26.000Z</time>
      </trkpt>
      <trkpt lat="47.54479" lon="6.77845">
        <ele>331</ele>
        <time>2016-07-17T07:53:27.000Z</time>
      </trkpt>
      <trkpt lat="47.54481" lon="6.77853">
        <ele>331</ele>
        <time>2016-07-17T07:53:28.000Z</time>
      </trkpt>
      <trkpt lat="47.54484" lon="6.77861">
        <ele>330</ele>
        <time>2016-07-17T07:53:29.000Z</time>
      </trkpt>
      <trkpt lat="47.54486" lon="6.77869">
        <ele>330</ele>
        <time>2016-07-17T07:53:30.000Z</time>
      </trkpt>
      <trkpt lat="47.54488" lon="6.77878">
        <ele>330</ele>
        <time>2016-07-17T07:53:31.000Z</time>
      </trkpt>
      <trkpt lat="47.5449" lon="6.77885">
        <ele>329</ele>
        <time>2016-07-17T07:53:32.000Z</time>
      </trkpt>
      <trkpt lat="47.54493" lon="6.77892">
        <ele>329</ele>
        <time>2016-07-17T07:53:33.000Z</time>
      </trkpt>
      <trkpt lat="47.54496" lon="6.77899">
        <ele>329</ele>
        <time>2016-07-17T07:53:34.000Z</time>
      </trkpt>
      <trkpt lat="47.545" lon="6.77905">
        <ele>330</ele>
        <time>2016-07-17T07:53:35.000Z</time>
      </trkpt>
      <trkpt lat="47.54503" lon="6.77911">
        <ele>329</ele>
        <time>2016-07-17T07:53:36.000Z</time>
      </trkpt>
      <trkpt lat="47.54506" lon="6.77916">
        <ele>329</ele>
        <time>2016-07-17T07:53:37.000Z</time>
      </trkpt>
      <trkpt lat="47.5451" lon="6.77921">
        <ele>328</ele>
        <time>2016-07-17T07:53:38.000Z</time>
      </trkpt>
      <trkpt lat="47.54514" lon="6.77926">
        <ele>328</ele>
        <time>2016-07-17T07:53:39.000Z</time>
      </trkpt>
      <trkpt lat="47.54519" lon="6.7793">
        <ele>328</ele>
        <time>2016-07-17T07:53:40.000Z</time>
      </trkpt>
      <trkpt lat="47.54523" lon="6.77935">
        <ele>328</ele>
        <time>2016-07-17T07:53:41.000Z</time>
      </trkpt>
      <trkpt lat="47.54527" lon="6.77939">
        <ele>329</ele>
        <time>2016-07-17T07:53:42.000Z</time>
      </trkpt>
      <trkpt lat="47.54531" lon="6.77942">
        <ele>329</ele>
        <time>2016-07-17T07:53:43.000Z</time>
      </trkpt>
      <trkpt lat="47.54536" lon="6.77944">
        <ele>329</ele>
        <time>2016-07-17T07:53:44.000Z</time>
      </trkpt>
      <trkpt lat="47.5454" lon="6.77947">
        <ele>329</ele>
        <time>2016-07-17T07:53:45.000Z</time>
      </trkpt>
      <trkpt lat="47.54545" lon="6.77949">
        <ele>329</ele>
        <time>2016-07-17T07:53:46.000Z</time>
      </trkpt>
      <trkpt lat="47.54549" lon="6.77952">
        <ele>329</ele>
        <time>2016-07-17T07:53:47.000Z</time>
      </trkpt>
      <trkpt lat="47.54553" lon="6.77953">
        <ele>329</ele>
        <time>2016-07-17T07:53:48.000Z</time>
      </trkpt>
      <trkpt lat="47.54558" lon="6.77954">
        <ele>329</ele>
        <time>2016-07-17T07:53:49.000Z</time>
      </trkpt>
      <trkpt lat="47.54563" lon="6.77956">
        <ele>329</ele>
        <time>2016-07-17T07:53:50.000Z</time>
      </trkpt>
      <trkpt lat="47.54568" lon="6.77958">
        <ele>329</ele>
        <time>2016-07-17T07:53:51.000Z</time>
      </trkpt>
      <trkpt lat="47.54571" lon="6.77962">
        <ele>329</ele>
        <time>2016-07-17T07:53:52.000Z</time>
      </trkpt>
      <trkpt lat="47.54574" lon="6.77967">
        <ele>329</ele>
        <time>2016-07-17T07:53:53.000Z</time>
      </trkpt>
      <trkpt lat="47.54575" lon="6.77975">
        <ele>329</ele>
        <time>2016-07-17T07:53:54.000Z</time>
      </trkpt>
      <trkpt lat="47.54577" lon="6.77982">
        <ele>328</ele>
        <time>2016-07-17T07:53:55.000Z</time>
      </trkpt>
      <trkpt lat="47.54578" lon="6.77989">
        <ele>328</ele>
        <time>2016-07-17T07:53:56.000Z</time>
      </trkpt>
      <trkpt lat="47.54577" lon="6.77995">
        <ele>328</ele>
        <time>2016-07-17T07:53:57.000Z</time>
      </trkpt>
      <trkpt lat="47.54576" lon="6.78">
        <ele>328</ele>
        <time>2016-07-17T07:53:58.000Z</time>
      </trkpt>
      <trkpt lat="47.54576" lon="6.78005">
        <ele>327</ele>
        <time>2016-07-17T07:54:00.000Z</time>
      </trkpt>
      <trkpt lat="47.54578" lon="6.78009">
        <ele>327</ele>
        <time>2016-07-17T07:54:01.000Z</time>
      </trkpt>
      <trkpt lat="47.5458" lon="6.78012">
        <ele>327</ele>
        <time>2016-07-17T07:54:02.000Z</time>
      </trkpt>
      <trkpt lat="47.54584" lon="6.78014">
        <ele>328</ele>
        <time>2016-07-17T07:54:03.000Z</time>
      </trkpt>
      <trkpt lat="47.54589" lon="6.78016">
        <ele>328</ele>
        <time>2016-07-17T07:54:04.000Z</time>
      </trkpt>
      <trkpt lat="47.54592" lon="6.78018">
        <ele>327</ele>
        <time>2016-07-17T07:54:05.000Z</time>
      </trkpt>
      <trkpt lat="47.54596" lon="6.7802">
        <ele>327</ele>
        <time>2016-07-17T07:54:06.000Z</time>
      </trkpt>
      <trkpt lat="47.54601" lon="6.78022">
        <ele>327</ele>
        <time>2016-07-17T07:54:07.000Z</time>
      </trkpt>
      <trkpt lat="47.54605" lon="6.78023">
        <ele>327</ele>
        <time>2016-07-17T07:54:08.000Z</time>
      </trkpt>
      <trkpt lat="47.54611" lon="6.78024">
        <ele>327</ele>
        <time>2016-07-17T07:54:09.000Z</time>
      </trkpt>
      <trkpt lat="47.54615" lon="6.78024">
        <ele>327</ele>
        <time>2016-07-17T07:54:10.000Z</time>
      </trkpt>
      <trkpt lat="47.5462" lon="6.78025">
        <ele>327</ele>
        <time>2016-07-17T07:54:11.000Z</time>
      </trkpt>
      <trkpt lat="47.54624" lon="6.78027">
        <ele>327</ele>
        <time>2016-07-17T07:54:12.000Z</time>
      </trkpt>
      <trkpt lat="47.54628" lon="6.78028">
        <ele>327</ele>
        <time>2016-07-17T07:54:13.000Z</time>
      </trkpt>
      <trkpt lat="47.54632" lon="6.78029">
        <ele>327</ele>
        <time>2016-07-17T07:54:14.000Z</time>
      </trkpt>
      <trkpt lat="47.54637" lon="6.78033">
        <ele>327</ele>
        <time>2016-07-17T07:54:15.000Z</time>
      </trkpt>
      <trkpt lat="47.54642" lon="6.78037">
        <ele>327</ele>
        <time>2016-07-17T07:54:16.000Z</time>
      </trkpt>
      <trkpt lat="47.54648" lon="6.78041">
        <ele>327</ele>
        <time>2016-07-17T07:54:17.000Z</time>
      </trkpt>
      <trkpt lat="47.54653" lon="6.78043">
        <ele>327</ele>
        <time>2016-07-17T07:54:18.000Z</time>
      </trkpt>
      <trkpt lat="47.54659" lon="6.78046">
        <ele>327</ele>
        <time>2016-07-17T07:54:19.000Z</time>
      </trkpt>
      <trkpt lat="47.54664" lon="6.78048">
        <ele>327</ele>
        <time>2016-07-17T07:54:20.000Z</time>
      </trkpt>
      <trkpt lat="47.5467" lon="6.7805">
        <ele>327</ele>
        <time>2016-07-17T07:54:21.000Z</time>
      </trkpt>
      <trkpt lat="47.54675" lon="6.78051">
        <ele>327</ele>
        <time>2016-07-17T07:54:22.000Z</time>
      </trkpt>
      <trkpt lat="47.54682" lon="6.78051">
        <ele>327</ele>
        <time>2016-07-17T07:54:23.000Z</time>
      </trkpt>
      <trkpt lat="47.54688" lon="6.78051">
        <ele>327</ele>
        <time>2016-07-17T07:54:24.000Z</time>
      </trkpt>
      <trkpt lat="47.54694" lon="6.78049">
        <ele>327</ele>
        <time>2016-07-17T07:54:25.000Z</time>
      </trkpt>
      <trkpt lat="47.54701" lon="6.78046">
        <ele>327</ele>
        <time>2016-07-17T07:54:26.000Z</time>
      </trkpt>
      <trkpt lat="47.54707" lon="6.78044">
        <ele>327</ele>
        <time>2016-07-17T07:54:27.000Z</time>
      </trkpt>
      <trkpt lat="47.54713" lon="6.78041">
        <ele>327</ele>
        <time>2016-07-17T07:54:28.000Z</time>
      </trkpt>
      <trkpt lat="47.54718" lon="6.78036">
        <ele>327</ele>
        <time>2016-07-17T07:54:29.000Z</time>
      </trkpt>
      <trkpt lat="47.54723" lon="6.78035">
        <ele>327</ele>
        <time>2016-07-17T07:54:30.000Z</time>
      </trkpt>
      <trkpt lat="47.54729" lon="6.7803">
        <ele>327</ele>
        <time>2016-07-17T07:54:31.000Z</time>
      </trkpt>
      <trkpt lat="47.54737" lon="6.78031">
        <ele>327</ele>
        <time>2016-07-17T07:54:32.000Z</time>
      </trkpt>
      <trkpt lat="47.54744" lon="6.78029">
        <ele>327</ele>
        <time>2016-07-17T07:54:33.000Z</time>
      </trkpt>
      <trkpt lat="47.54748" lon="6.78024">
        <ele>328</ele>
        <time>2016-07-17T07:54:34.000Z</time>
      </trkpt>
      <trkpt lat="47.54753" lon="6.7802">
        <ele>327</ele>
        <time>2016-07-17T07:54:35.000Z</time>
      </trkpt>
      <trkpt lat="47.54758" lon="6.78015">
        <ele>328</ele>
        <time>2016-07-17T07:54:36.000Z</time>
      </trkpt>
      <trkpt lat="47.54763" lon="6.78013">
        <ele>328</ele>
        <time>2016-07-17T07:54:37.000Z</time>
      </trkpt>
      <trkpt lat="47.54766" lon="6.7801">
        <ele>328</ele>
        <time>2016-07-17T07:54:38.000Z</time>
      </trkpt>
      <trkpt lat="47.54771" lon="6.78008">
        <ele>328</ele>
        <time>2016-07-17T07:54:39.000Z</time>
      </trkpt>
      <trkpt lat="47.54775" lon="6.78005">
        <ele>327</ele>
        <time>2016-07-17T07:54:40.000Z</time>
      </trkpt>
      <trkpt lat="47.5478" lon="6.78006">
        <ele>327</ele>
        <time>2016-07-17T07:54:41.000Z</time>
      </trkpt>
      <trkpt lat="47.54783" lon="6.78009">
        <ele>327</ele>
        <time>2016-07-17T07:54:42.000Z</time>
      </trkpt>
      <trkpt lat="47.54785" lon="6.78015">
        <ele>327</ele>
        <time>2016-07-17T07:54:43.000Z</time>
      </trkpt>
      <trkpt lat="47.54785" lon="6.78025">
        <ele>327</ele>
        <time>2016-07-17T07:54:44.000Z</time>
      </trkpt>
      <trkpt lat="47.54784" lon="6.78033">
        <ele>327</ele>
        <time>2016-07-17T07:54:45.000Z</time>
      </trkpt>
      <trkpt lat="47.54783" lon="6.78041">
        <ele>327</ele>
        <time>2016-07-17T07:54:46.000Z</time>
      </trkpt>
      <trkpt lat="47.54783" lon="6.78049">
        <ele>326</ele>
        <time>2016-07-17T07:54:47.000Z</time>
      </trkpt>
      <trkpt lat="47.54782" lon="6.78057">
        <ele>326</ele>
        <time>2016-07-17T07:54:48.000Z</time>
      </trkpt>
      <trkpt lat="47.54781" lon="6.78064">
        <ele>326</ele>
        <time>2016-07-17T07:54:49.000Z</time>
      </trkpt>
      <trkpt lat="47.54781" lon="6.78073">
        <ele>326</ele>
        <time>2016-07-17T07:54:50.000Z</time>
      </trkpt>
      <trkpt lat="47.5478" lon="6.7808">
        <ele>326</ele>
        <time>2016-07-17T07:54:51.000Z</time>
      </trkpt>
      <trkpt lat="47.54779" lon="6.78087">
        <ele>324</ele>
        <time>2016-07-17T07:54:52.000Z</time>
      </trkpt>
      <trkpt lat="47.54778" lon="6.78094">
        <ele>324</ele>
        <time>2016-07-17T07:54:53.000Z</time>
      </trkpt>
      <trkpt lat="47.54775" lon="6.78101">
        <ele>324</ele>
        <time>2016-07-17T07:54:54.000Z</time>
      </trkpt>
      <trkpt lat="47.54774" lon="6.78108">
        <ele>324</ele>
        <time>2016-07-17T07:54:55.000Z</time>
      </trkpt>
      <trkpt lat="47.54772" lon="6.78115">
        <ele>324</ele>
        <time>2016-07-17T07:54:56.000Z</time>
      </trkpt>
      <trkpt lat="47.54769" lon="6.78122">
        <ele>323</ele>
        <time>2016-07-17T07:54:57.000Z</time>
      </trkpt>
      <trkpt lat="47.54767" lon="6.78129">
        <ele>323</ele>
        <time>2016-07-17T07:54:58.000Z</time>
      </trkpt>
      <trkpt lat="47.54765" lon="6.78137">
        <ele>323</ele>
        <time>2016-07-17T07:54:59.000Z</time>
      </trkpt>
      <trkpt lat="47.54762" lon="6.78144">
        <ele>323</ele>
        <time>2016-07-17T07:55:00.000Z</time>
      </trkpt>
      <trkpt lat="47.54759" lon="6.78151">
        <ele>322</ele>
        <time>2016-07-17T07:55:01.000Z</time>
      </trkpt>
      <trkpt lat="47.54759" lon="6.78152">
        <ele>322</ele>
        <time>2016-07-17T07:55:01.107Z</time>
      </trkpt>
      <trkpt lat="47.54754" lon="6.78166">
        <ele>321</ele>
        <time>2016-07-17T07:55:03.000Z</time>
      </trkpt>
      <trkpt lat="47.54752" lon="6.78173">
        <ele>321</ele>
        <time>2016-07-17T07:55:04.000Z</time>
      </trkpt>
      <trkpt lat="47.5475" lon="6.7818">
        <ele>321</ele>
        <time>2016-07-17T07:55:05.000Z</time>
      </trkpt>
      <trkpt lat="47.54748" lon="6.78187">
        <ele>321</ele>
        <time>2016-07-17T07:55:06.000Z</time>
      </trkpt>
      <trkpt lat="47.54745" lon="6.78195">
        <ele>321</ele>
        <time>2016-07-17T07:55:07.000Z</time>
      </trkpt>
      <trkpt lat="47.54743" lon="6.78201">
        <ele>321</ele>
        <time>2016-07-17T07:55:08.000Z</time>
      </trkpt>
      <trkpt lat="47.54741" lon="6.78209">
        <ele>321</ele>
        <time>2016-07-17T07:55:09.000Z</time>
      </trkpt>
      <trkpt lat="47.54739" lon="6.78216">
        <ele>321</ele>
        <time>2016-07-17T07:55:10.000Z</time>
      </trkpt>
      <trkpt lat="47.54736" lon="6.78224">
        <ele>321</ele>
        <time>2016-07-17T07:55:11.000Z</time>
      </trkpt>
      <trkpt lat="47.54734" lon="6.7823">
        <ele>321</ele>
        <time>2016-07-17T07:55:12.000Z</time>
      </trkpt>
      <trkpt lat="47.54731" lon="6.78237">
        <ele>321</ele>
        <time>2016-07-17T07:55:13.000Z</time>
      </trkpt>
      <trkpt lat="47.54729" lon="6.78244">
        <ele>321</ele>
        <time>2016-07-17T07:55:14.000Z</time>
      </trkpt>
      <trkpt lat="47.54727" lon="6.78251">
        <ele>321</ele>
        <time>2016-07-17T07:55:15.000Z</time>
      </trkpt>
      <trkpt lat="47.54725" lon="6.78257">
        <ele>321</ele>
        <time>2016-07-17T07:55:16.000Z</time>
      </trkpt>
      <trkpt lat="47.54723" lon="6.78264">
        <ele>321</ele>
        <time>2016-07-17T07:55:17.000Z</time>
      </trkpt>
      <trkpt lat="47.54721" lon="6.78271">
        <ele>321</ele>
        <time>2016-07-17T07:55:18.000Z</time>
      </trkpt>
      <trkpt lat="47.54718" lon="6.78278">
        <ele>321</ele>
        <time>2016-07-17T07:55:19.000Z</time>
      </trkpt>
      <trkpt lat="47.54716" lon="6.78285">
        <ele>321</ele>
        <time>2016-07-17T07:55:20.000Z</time>
      </trkpt>
      <trkpt lat="47.54714" lon="6.78293">
        <ele>321</ele>
        <time>2016-07-17T07:55:21.000Z</time>
      </trkpt>
      <trkpt lat="47.54713" lon="6.78299">
        <ele>321</ele>
        <time>2016-07-17T07:55:22.000Z</time>
      </trkpt>
      <trkpt lat="47.5471" lon="6.78307">
        <ele>321</ele>
        <time>2016-07-17T07:55:23.000Z</time>
      </trkpt>
      <trkpt lat="47.54708" lon="6.78314">
        <ele>321</ele>
        <time>2016-07-17T07:55:24.000Z</time>
      </trkpt>
      <trkpt lat="47.54706" lon="6.78322">
        <ele>321</ele>
        <time>2016-07-17T07:55:25.000Z</time>
      </trkpt>
      <trkpt lat="47.54703" lon="6.78328">
        <ele>321</ele>
        <time>2016-07-17T07:55:26.000Z</time>
      </trkpt>
      <trkpt lat="47.54701" lon="6.78336">
        <ele>322</ele>
        <time>2016-07-17T07:55:27.000Z</time>
      </trkpt>
      <trkpt lat="47.54698" lon="6.78342">
        <ele>322</ele>
        <time>2016-07-17T07:55:28.000Z</time>
      </trkpt>
      <trkpt lat="47.54695" lon="6.78348">
        <ele>322</ele>
        <time>2016-07-17T07:55:29.000Z</time>
      </trkpt>
      <trkpt lat="47.54691" lon="6.78355">
        <ele>322</ele>
        <time>2016-07-17T07:55:30.000Z</time>
      </trkpt>
      <trkpt lat="47.54688" lon="6.7836">
        <ele>322</ele>
        <time>2016-07-17T07:55:31.000Z</time>
      </trkpt>
      <trkpt lat="47.54684" lon="6.78365">
        <ele>322</ele>
        <time>2016-07-17T07:55:32.000Z</time>
      </trkpt>
      <trkpt lat="47.5468" lon="6.78371">
        <ele>322</ele>
        <time>2016-07-17T07:55:33.000Z</time>
      </trkpt>
      <trkpt lat="47.54676" lon="6.78375">
        <ele>322</ele>
        <time>2016-07-17T07:55:34.000Z</time>
      </trkpt>
      <trkpt lat="47.54672" lon="6.7838">
        <ele>322</ele>
        <time>2016-07-17T07:55:35.000Z</time>
      </trkpt>
      <trkpt lat="47.54667" lon="6.78385">
        <ele>322</ele>
        <time>2016-07-17T07:55:36.000Z</time>
      </trkpt>
      <trkpt lat="47.54662" lon="6.78388">
        <ele>322</ele>
        <time>2016-07-17T07:55:37.000Z</time>
      </trkpt>
      <trkpt lat="47.54658" lon="6.78393">
        <ele>322</ele>
        <time>2016-07-17T07:55:38.000Z</time>
      </trkpt>
      <trkpt lat="47.54654" lon="6.78397">
        <ele>322</ele>
        <time>2016-07-17T07:55:39.000Z</time>
      </trkpt>
      <trkpt lat="47.5465" lon="6.78402">
        <ele>322</ele>
        <time>2016-07-17T07:55:40.000Z</time>
      </trkpt>
      <trkpt lat="47.54648" lon="6.78407">
        <ele>322</ele>
        <time>2016-07-17T07:55:41.000Z</time>
      </trkpt>
      <trkpt lat="47.54645" lon="6.78412">
        <ele>322</ele>
        <time>2016-07-17T07:55:42.000Z</time>
      </trkpt>
      <trkpt lat="47.54644" lon="6.78417">
        <ele>323</ele>
        <time>2016-07-17T07:55:43.000Z</time>
      </trkpt>
      <trkpt lat="47.54643" lon="6.78422">
        <ele>323</ele>
        <time>2016-07-17T07:55:44.000Z</time>
      </trkpt>
      <trkpt lat="47.54641" lon="6.78426">
        <ele>323</ele>
        <time>2016-07-17T07:55:45.000Z</time>
      </trkpt>
      <trkpt lat="47.5464" lon="6.78431">
        <ele>323</ele>
        <time>2016-07-17T07:55:46.000Z</time>
      </trkpt>
      <trkpt lat="47.54639" lon="6.78436">
        <ele>323</ele>
        <time>2016-07-17T07:55:47.000Z</time>
      </trkpt>
      <trkpt lat="47.54638" lon="6.78443">
        <ele>323</ele>
        <time>2016-07-17T07:55:48.000Z</time>
      </trkpt>
      <trkpt lat="47.54636" lon="6.78449">
        <ele>323</ele>
        <time>2016-07-17T07:55:49.000Z</time>
      </trkpt>
      <trkpt lat="47.54634" lon="6.78455">
        <ele>323</ele>
        <time>2016-07-17T07:55:50.000Z</time>
      </trkpt>
      <trkpt lat="47.54633" lon="6.7846">
        <ele>323</ele>
        <time>2016-07-17T07:55:51.000Z</time>
      </trkpt>
      <trkpt lat="47.54632" lon="6.78466">
        <ele>323</ele>
        <time>2016-07-17T07:55:52.000Z</time>
      </trkpt>
      <trkpt lat="47.54631" lon="6.78471">
        <ele>323</ele>
        <time>2016-07-17T07:55:53.000Z</time>
      </trkpt>
      <trkpt lat="47.5463" lon="6.78476">
        <ele>323</ele>
        <time>2016-07-17T07:55:54.000Z</time>
      </trkpt>
      <trkpt lat="47.54629" lon="6.78481">
        <ele>323</ele>
        <time>2016-07-17T07:55:55.000Z</time>
      </trkpt>
      <trkpt lat="47.54628" lon="6.78486">
        <ele>323</ele>
        <time>2016-07-17T07:55:56.000Z</time>
      </trkpt>
      <trkpt lat="47.54627" lon="6.7849">
        <ele>323</ele>
        <time>2016-07-17T07:55:57.000Z</time>
      </trkpt>
      <trkpt lat="47.54627" lon="6.78495">
        <ele>323</ele>
        <time>2016-07-17T07:55:58.000Z</time>
      </trkpt>
      <trkpt lat="47.54627" lon="6.785">
        <ele>323</ele>
        <time>2016-07-17T07:55:59.000Z</time>
      </trkpt>
      <trkpt lat="47.54627" lon="6.78504">
        <ele>325</ele>
        <time>2016-07-17T07:56:00.000Z</time>
      </trkpt>
      <trkpt lat="47.54628" lon="6.78509">
        <ele>325</ele>
        <time>2016-07-17T07:56:01.000Z</time>
      </trkpt>
      <trkpt lat="47.54629" lon="6.78515">
        <ele>325</ele>
        <time>2016-07-17T07:56:02.000Z</time>
      </trkpt>
      <trkpt lat="47.54636" lon="6.78522">
        <ele>325</ele>
        <time>2016-07-17T07:56:03.000Z</time>
      </trkpt>
      <trkpt lat="47.5464" lon="6.78527">
        <ele>325</ele>
        <time>2016-07-17T07:56:04.000Z</time>
      </trkpt>
      <trkpt lat="47.54644" lon="6.78531">
        <ele>325</ele>
        <time>2016-07-17T07:56:05.000Z</time>
      </trkpt>
      <trkpt lat="47.54648" lon="6.78535">
        <ele>325</ele>
        <time>2016-07-17T07:56:06.000Z</time>
      </trkpt>
      <trkpt lat="47.54652" lon="6.7854">
        <ele>325</ele>
        <time>2016-07-17T07:56:07.000Z</time>
      </trkpt>
      <trkpt lat="47.54656" lon="6.78544">
        <ele>325</ele>
        <time>2016-07-17T07:56:08.000Z</time>
      </trkpt>
      <trkpt lat="47.54659" lon="6.78549">
        <ele>325</ele>
        <time>2016-07-17T07:56:09.000Z</time>
      </trkpt>
      <trkpt lat="47.54662" lon="6.78555">
        <ele>325</ele>
        <time>2016-07-17T07:56:10.000Z</time>
      </trkpt>
      <trkpt lat="47.54664" lon="6.78561">
        <ele>326</ele>
        <time>2016-07-17T07:56:11.000Z</time>
      </trkpt>
      <trkpt lat="47.54667" lon="6.78567">
        <ele>326</ele>
        <time>2016-07-17T07:56:12.000Z</time>
      </trkpt>
      <trkpt lat="47.54669" lon="6.78572">
        <ele>327</ele>
        <time>2016-07-17T07:56:13.000Z</time>
      </trkpt>
      <trkpt lat="47.54672" lon="6.78578">
        <ele>327</ele>
        <time>2016-07-17T07:56:14.000Z</time>
      </trkpt>
      <trkpt lat="47.54674" lon="6.78583">
        <ele>327</ele>
        <time>2016-07-17T07:56:15.000Z</time>
      </trkpt>
      <trkpt lat="47.54676" lon="6.78588">
        <ele>328</ele>
        <time>2016-07-17T07:56:16.000Z</time>
      </trkpt>
      <trkpt lat="47.54678" lon="6.78593">
        <ele>329</ele>
        <time>2016-07-17T07:56:17.000Z</time>
      </trkpt>
      <trkpt lat="47.54679" lon="6.78598">
        <ele>329</ele>
        <time>2016-07-17T07:56:18.000Z</time>
      </trkpt>
      <trkpt lat="47.54681" lon="6.78603">
        <ele>330</ele>
        <time>2016-07-17T07:56:19.000Z</time>
      </trkpt>
      <trkpt lat="47.54682" lon="6.78607">
        <ele>330</ele>
        <time>2016-07-17T07:56:20.000Z</time>
      </trkpt>
      <trkpt lat="47.54683" lon="6.78612">
        <ele>331</ele>
        <time>2016-07-17T07:56:21.000Z</time>
      </trkpt>
      <trkpt lat="47.54684" lon="6.78617">
        <ele>331</ele>
        <time>2016-07-17T07:56:22.000Z</time>
      </trkpt>
      <trkpt lat="47.54686" lon="6.78621">
        <ele>331</ele>
        <time>2016-07-17T07:56:23.000Z</time>
      </trkpt>
      <trkpt lat="47.54687" lon="6.78626">
        <ele>331</ele>
        <time>2016-07-17T07:56:24.000Z</time>
      </trkpt>
      <trkpt lat="47.54688" lon="6.7863">
        <ele>332</ele>
        <time>2016-07-17T07:56:25.000Z</time>
      </trkpt>
      <trkpt lat="47.5469" lon="6.78633">
        <ele>332</ele>
        <time>2016-07-17T07:56:26.000Z</time>
      </trkpt>
      <trkpt lat="47.54691" lon="6.78637">
        <ele>332</ele>
        <time>2016-07-17T07:56:27.000Z</time>
      </trkpt>
      <trkpt lat="47.54692" lon="6.78641">
        <ele>332</ele>
        <time>2016-07-17T07:56:28.000Z</time>
      </trkpt>
      <trkpt lat="47.54693" lon="6.78645">
        <ele>332</ele>
        <time>2016-07-17T07:56:29.000Z</time>
      </trkpt>
      <trkpt lat="47.54693" lon="6.78648">
        <ele>332</ele>
        <time>2016-07-17T07:56:30.000Z</time>
      </trkpt>
      <trkpt lat="47.54694" lon="6.78652">
        <ele>332</ele>
        <time>2016-07-17T07:56:31.000Z</time>
      </trkpt>
      <trkpt lat="47.54695" lon="6.78656">
        <ele>332</ele>
        <time>2016-07-17T07:56:32.000Z</time>
      </trkpt>
      <trkpt lat="47.54696" lon="6.7866">
        <ele>332</ele>
        <time>2016-07-17T07:56:33.000Z</time>
      </trkpt>
      <trkpt lat="47.54697" lon="6.78664">
        <ele>332</ele>
        <time>2016-07-17T07:56:34.000Z</time>
      </trkpt>
      <trkpt lat="47.54698" lon="6.78668">
        <ele>334</ele>
        <time>2016-07-17T07:56:35.000Z</time>
      </trkpt>
      <trkpt lat="47.54699" lon="6.78672">
        <ele>334</ele>
        <time>2016-07-17T07:56:36.000Z</time>
      </trkpt>
      <trkpt lat="47.547" lon="6.78676">
        <ele>334</ele>
        <time>2016-07-17T07:56:37.000Z</time>
      </trkpt>
      <trkpt lat="47.54701" lon="6.7868">
        <ele>334</ele>
        <time>2016-07-17T07:56:38.000Z</time>
      </trkpt>
      <trkpt lat="47.54702" lon="6.78684">
        <ele>334</ele>
        <time>2016-07-17T07:56:39.000Z</time>
      </trkpt>
      <trkpt lat="47.54703" lon="6.78688">
        <ele>334</ele>
        <time>2016-07-17T07:56:40.000Z</time>
      </trkpt>
      <trkpt lat="47.54705" lon="6.78692">
        <ele>335</ele>
        <time>2016-07-17T07:56:41.000Z</time>
      </trkpt>
      <trkpt lat="47.54707" lon="6.78695">
        <ele>335</ele>
        <time>2016-07-17T07:56:42.000Z</time>
      </trkpt>
      <trkpt lat="47.54708" lon="6.78699">
        <ele>335</ele>
        <time>2016-07-17T07:56:43.000Z</time>
      </trkpt>
      <trkpt lat="47.5471" lon="6.78703">
        <ele>335</ele>
        <time>2016-07-17T07:56:44.000Z</time>
      </trkpt>
      <trkpt lat="47.54711" lon="6.78707">
        <ele>335</ele>
        <time>2016-07-17T07:56:45.000Z</time>
      </trkpt>
      <trkpt lat="47.54713" lon="6.78711">
        <ele>335</ele>
        <time>2016-07-17T07:56:46.000Z</time>
      </trkpt>
      <trkpt lat="47.54714" lon="6.78715">
        <ele>335</ele>
        <time>2016-07-17T07:56:47.000Z</time>
      </trkpt>
      <trkpt lat="47.54716" lon="6.78719">
        <ele>335</ele>
        <time>2016-07-17T07:56:48.000Z</time>
      </trkpt>
      <trkpt lat="47.54718" lon="6.78723">
        <ele>335</ele>
        <time>2016-07-17T07:56:49.000Z</time>
      </trkpt>
      <trkpt lat="47.5472" lon="6.78727">
        <ele>335</ele>
        <time>2016-07-17T07:56:50.000Z</time>
      </trkpt>
      <trkpt lat="47.54721" lon="6.78732">
        <ele>335</ele>
        <time>2016-07-17T07:56:51.000Z</time>
      </trkpt>
      <trkpt lat="47.54722" lon="6.78736">
        <ele>335</ele>
        <time>2016-07-17T07:56:52.000Z</time>
      </trkpt>
      <trkpt lat="47.54723" lon="6.7874">
        <ele>335</ele>
        <time>2016-07-17T07:56:53.000Z</time>
      </trkpt>
      <trkpt lat="47.54724" lon="6.78744">
        <ele>335</ele>
        <time>2016-07-17T07:56:54.000Z</time>
      </trkpt>
      <trkpt lat="47.54725" lon="6.78749">
        <ele>335</ele>
        <time>2016-07-17T07:56:55.000Z</time>
      </trkpt>
      <trkpt lat="47.54726" lon="6.78752">
        <ele>336</ele>
        <time>2016-07-17T07:56:56.000Z</time>
      </trkpt>
      <trkpt lat="47.54727" lon="6.78756">
        <ele>336</ele>
        <time>2016-07-17T07:56:57.000Z</time>
      </trkpt>
      <trkpt lat="47.54729" lon="6.78759">
        <ele>336</ele>
        <time>2016-07-17T07:56:58.000Z</time>
      </trkpt>
      <trkpt lat="47.5473" lon="6.78763">
        <ele>336</ele>
        <time>2016-07-17T07:56:59.000Z</time>
      </trkpt>
      <trkpt lat="47.54731" lon="6.78767">
        <ele>336</ele>
        <time>2016-07-17T07:57:00.000Z</time>
      </trkpt>
      <trkpt lat="47.54732" lon="6.78771">
        <ele>336</ele>
        <time>2016-07-17T07:57:01.000Z</time>
      </trkpt>
      <trkpt lat="47.54733" lon="6.78774">
        <ele>337</ele>
        <time>2016-07-17T07:57:02.000Z</time>
      </trkpt>
      <trkpt lat="47.54734" lon="6.78778">
        <ele>337</ele>
        <time>2016-07-17T07:57:03.000Z</time>
      </trkpt>
      <trkpt lat="47.54735" lon="6.78782">
        <ele>337</ele>
        <time>2016-07-17T07:57:04.000Z</time>
      </trkpt>
      <trkpt lat="47.54736" lon="6.78785">
        <ele>337</ele>
        <time>2016-07-17T07:57:05.000Z</time>
      </trkpt>
      <trkpt lat="47.54737" lon="6.78789">
        <ele>337</ele>
        <time>2016-07-17T07:57:06.000Z</time>
      </trkpt>
      <trkpt lat="47.54738" lon="6.78793">
        <ele>337</ele>
        <time>2016-07-17T07:57:07.000Z</time>
      </trkpt>
      <trkpt lat="47.54739" lon="6.78797">
        <ele>337</ele>
        <time>2016-07-17T07:57:08.000Z</time>
      </trkpt>
      <trkpt lat="47.5474" lon="6.788">
        <ele>337</ele>
        <time>2016-07-17T07:57:09.000Z</time>
      </trkpt>
      <trkpt lat="47.54741" lon="6.78804">
        <ele>337</ele>
        <time>2016-07-17T07:57:10.000Z</time>
      </trkpt>
      <trkpt lat="47.54742" lon="6.78807">
        <ele>337</ele>
        <time>2016-07-17T07:57:11.000Z</time>
      </trkpt>
      <trkpt lat="47.54743" lon="6.78811">
        <ele>337</ele>
        <time>2016-07-17T07:57:12.000Z</time>
      </trkpt>
      <trkpt lat="47.54744" lon="6.78814">
        <ele>338</ele>
        <time>2016-07-17T07:57:13.000Z</time>
      </trkpt>
      <trkpt lat="47.54744" lon="6.78818">
        <ele>338</ele>
        <time>2016-07-17T07:57:14.000Z</time>
      </trkpt>
      <trkpt lat="47.54745" lon="6.78821">
        <ele>338</ele>
        <time>2016-07-17T07:57:15.000Z</time>
      </trkpt>
      <trkpt lat="47.54746" lon="6.78825">
        <ele>338</ele>
        <time>2016-07-17T07:57:16.000Z</time>
      </trkpt>
      <trkpt lat="47.54746" lon="6.78828">
        <ele>338</ele>
        <time>2016-07-17T07:57:17.000Z</time>
      </trkpt>
      <trkpt lat="47.54747" lon="6.78831">
        <ele>338</ele>
        <time>2016-07-17T07:57:18.000Z</time>
      </trkpt>
      <trkpt lat="47.54748" lon="6.78837">
        <ele>339</ele>
        <time>2016-07-17T07:57:20.000Z</time>
      </trkpt>
      <trkpt lat="47.54748" lon="6.7884">
        <ele>339</ele>
        <time>2016-07-17T07:57:21.000Z</time>
      </trkpt>
      <trkpt lat="47.54749" lon="6.78846">
        <ele>340</ele>
        <time>2016-07-17T07:57:23.000Z</time>
      </trkpt>
      <trkpt lat="47.54749" lon="6.78849">
        <ele>340</ele>
        <time>2016-07-17T07:57:24.000Z</time>
      </trkpt>
      <trkpt lat="47.54751" lon="6.78855">
        <ele>340</ele>
        <time>2016-07-17T07:57:26.000Z</time>
      </trkpt>
      <trkpt lat="47.54751" lon="6.78858">
        <ele>340</ele>
        <time>2016-07-17T07:57:27.000Z</time>
      </trkpt>
      <trkpt lat="47.54752" lon="6.78861">
        <ele>340</ele>
        <time>2016-07-17T07:57:28.000Z</time>
      </trkpt>
      <trkpt lat="47.54752" lon="6.78864">
        <ele>341</ele>
        <time>2016-07-17T07:57:29.000Z</time>
      </trkpt>
      <trkpt lat="47.54753" lon="6.78868">
        <ele>341</ele>
        <time>2016-07-17T07:57:30.000Z</time>
      </trkpt>
      <trkpt lat="47.54753" lon="6.78871">
        <ele>341</ele>
        <time>2016-07-17T07:57:31.000Z</time>
      </trkpt>
      <trkpt lat="47.54754" lon="6.78874">
        <ele>341</ele>
        <time>2016-07-17T07:57:32.000Z</time>
      </trkpt>
      <trkpt lat="47.54754" lon="6.78877">
        <ele>341</ele>
        <time>2016-07-17T07:57:33.000Z</time>
      </trkpt>
      <trkpt lat="47.54755" lon="6.78884">
        <ele>342</ele>
        <time>2016-07-17T07:57:35.000Z</time>
      </trkpt>
      <trkpt lat="47.54756" lon="6.78886">
        <ele>342</ele>
        <time>2016-07-17T07:57:36.000Z</time>
      </trkpt>
      <trkpt lat="47.54757" lon="6.78892">
        <ele>342</ele>
        <time>2016-07-17T07:57:38.000Z</time>
      </trkpt>
      <trkpt lat="47.54758" lon="6.78895">
        <ele>342</ele>
        <time>2016-07-17T07:57:39.000Z</time>
      </trkpt>
      <trkpt lat="47.54759" lon="6.78901">
        <ele>342</ele>
        <time>2016-07-17T07:57:41.000Z</time>
      </trkpt>
      <trkpt lat="47.5476" lon="6.78903">
        <ele>343</ele>
        <time>2016-07-17T07:57:42.000Z</time>
      </trkpt>
      <trkpt lat="47.54761" lon="6.78909">
        <ele>343</ele>
        <time>2016-07-17T07:57:44.000Z</time>
      </trkpt>
      <trkpt lat="47.54761" lon="6.78911">
        <ele>343</ele>
        <time>2016-07-17T07:57:45.000Z</time>
      </trkpt>
      <trkpt lat="47.54763" lon="6.78916">
        <ele>343</ele>
        <time>2016-07-17T07:57:47.000Z</time>
      </trkpt>
      <trkpt lat="47.54764" lon="6.78919">
        <ele>345</ele>
        <time>2016-07-17T07:57:48.000Z</time>
      </trkpt>
      <trkpt lat="47.54766" lon="6.78924">
        <ele>345</ele>
        <time>2016-07-17T07:57:50.000Z</time>
      </trkpt>
      <trkpt lat="47.54766" lon="6.78927">
        <ele>345</ele>
        <time>2016-07-17T07:57:51.000Z</time>
      </trkpt>
      <trkpt lat="47.54768" lon="6.78933">
        <ele>346</ele>
        <time>2016-07-17T07:57:53.000Z</time>
      </trkpt>
      <trkpt lat="47.54769" lon="6.78936">
        <ele>346</ele>
        <time>2016-07-17T07:57:54.000Z</time>
      </trkpt>
      <trkpt lat="47.54771" lon="6.78941">
        <ele>346</ele>
        <time>2016-07-17T07:57:56.000Z</time>
      </trkpt>
      <trkpt lat="47.54772" lon="6.78943">
        <ele>346</ele>
        <time>2016-07-17T07:57:57.000Z</time>
      </trkpt>
      <trkpt lat="47.54774" lon="6.78948">
        <ele>346</ele>
        <time>2016-07-17T07:57:59.000Z</time>
      </trkpt>
      <trkpt lat="47.54776" lon="6.78951">
        <ele>347</ele>
        <time>2016-07-17T07:58:00.000Z</time>
      </trkpt>
      <trkpt lat="47.54778" lon="6.78956">
        <ele>347</ele>
        <time>2016-07-17T07:58:02.000Z</time>
      </trkpt>
      <trkpt lat="47.54778" lon="6.78959">
        <ele>347</ele>
        <time>2016-07-17T07:58:03.000Z</time>
      </trkpt>
      <trkpt lat="47.5478" lon="6.78964">
        <ele>347</ele>
        <time>2016-07-17T07:58:05.000Z</time>
      </trkpt>
      <trkpt lat="47.54781" lon="6.78967">
        <ele>347</ele>
        <time>2016-07-17T07:58:06.000Z</time>
      </trkpt>
      <trkpt lat="47.54784" lon="6.78972">
        <ele>347</ele>
        <time>2016-07-17T07:58:08.000Z</time>
      </trkpt>
      <trkpt lat="47.54785" lon="6.78975">
        <ele>347</ele>
        <time>2016-07-17T07:58:09.000Z</time>
      </trkpt>
      <trkpt lat="47.54787" lon="6.78979">
        <ele>348</ele>
        <time>2016-07-17T07:58:11.000Z</time>
      </trkpt>
      <trkpt lat="47.54788" lon="6.78982">
        <ele>348</ele>
        <time>2016-07-17T07:58:12.000Z</time>
      </trkpt>
      <trkpt lat="47.5479" lon="6.78988">
        <ele>348</ele>
        <time>2016-07-17T07:58:14.000Z</time>
      </trkpt>
      <trkpt lat="47.54791" lon="6.7899">
        <ele>348</ele>
        <time>2016-07-17T07:58:15.000Z</time>
      </trkpt>
      <trkpt lat="47.54794" lon="6.78996">
        <ele>348</ele>
        <time>2016-07-17T07:58:17.000Z</time>
      </trkpt>
      <trkpt lat="47.54795" lon="6.78998">
        <ele>348</ele>
        <time>2016-07-17T07:58:18.000Z</time>
      </trkpt>
      <trkpt lat="47.54797" lon="6.79003">
        <ele>352</ele>
        <time>2016-07-17T07:58:20.000Z</time>
      </trkpt>
      <trkpt lat="47.54798" lon="6.79006">
        <ele>352</ele>
        <time>2016-07-17T07:58:21.000Z</time>
      </trkpt>
      <trkpt lat="47.548" lon="6.79012">
        <ele>352</ele>
        <time>2016-07-17T07:58:23.000Z</time>
      </trkpt>
      <trkpt lat="47.54801" lon="6.79015">
        <ele>352</ele>
        <time>2016-07-17T07:58:24.000Z</time>
      </trkpt>
      <trkpt lat="47.54801" lon="6.79018">
        <ele>352</ele>
        <time>2016-07-17T07:58:25.000Z</time>
      </trkpt>
      <trkpt lat="47.54802" lon="6.79021">
        <ele>352</ele>
        <time>2016-07-17T07:58:26.000Z</time>
      </trkpt>
      <trkpt lat="47.54803" lon="6.79025">
        <ele>352</ele>
        <time>2016-07-17T07:58:27.000Z</time>
      </trkpt>
      <trkpt lat="47.54804" lon="6.79028">
        <ele>352</ele>
        <time>2016-07-17T07:58:28.000Z</time>
      </trkpt>
      <trkpt lat="47.54805" lon="6.79031">
        <ele>352</ele>
        <time>2016-07-17T07:58:29.000Z</time>
      </trkpt>
      <trkpt lat="47.54806" lon="6.79034">
        <ele>353</ele>
        <time>2016-07-17T07:58:30.000Z</time>
      </trkpt>
      <trkpt lat="47.54807" lon="6.79038">
        <ele>353</ele>
        <time>2016-07-17T07:58:31.000Z</time>
      </trkpt>
      <trkpt lat="47.54808" lon="6.79041">
        <ele>353</ele>
        <time>2016-07-17T07:58:32.000Z</time>
      </trkpt>
      <trkpt lat="47.54809" lon="6.79044">
        <ele>353</ele>
        <time>2016-07-17T07:58:33.000Z</time>
      </trkpt>
      <trkpt lat="47.54809" lon="6.79047">
        <ele>353</ele>
        <time>2016-07-17T07:58:34.000Z</time>
      </trkpt>
      <trkpt lat="47.5481" lon="6.7905">
        <ele>353</ele>
        <time>2016-07-17T07:58:35.000Z</time>
      </trkpt>
      <trkpt lat="47.54811" lon="6.79053">
        <ele>353</ele>
        <time>2016-07-17T07:58:36.000Z</time>
      </trkpt>
      <trkpt lat="47.54812" lon="6.79057">
        <ele>353</ele>
        <time>2016-07-17T07:58:37.000Z</time>
      </trkpt>
      <trkpt lat="47.54813" lon="6.7906">
        <ele>354</ele>
        <time>2016-07-17T07:58:38.000Z</time>
      </trkpt>
      <trkpt lat="47.54813" lon="6.79063">
        <ele>354</ele>
        <time>2016-07-17T07:58:39.000Z</time>
      </trkpt>
      <trkpt lat="47.54814" lon="6.79067">
        <ele>354</ele>
        <time>2016-07-17T07:58:40.000Z</time>
      </trkpt>
      <trkpt lat="47.54815" lon="6.7907">
        <ele>354</ele>
        <time>2016-07-17T07:58:41.000Z</time>
      </trkpt>
      <trkpt lat="47.54816" lon="6.79074">
        <ele>354</ele>
        <time>2016-07-17T07:58:42.000Z</time>
      </trkpt>
      <trkpt lat="47.54817" lon="6.79077">
        <ele>354</ele>
        <time>2016-07-17T07:58:43.000Z</time>
      </trkpt>
      <trkpt lat="47.54818" lon="6.79081">
        <ele>354</ele>
        <time>2016-07-17T07:58:44.000Z</time>
      </trkpt>
      <trkpt lat="47.54819" lon="6.79084">
        <ele>356</ele>
        <time>2016-07-17T07:58:45.000Z</time>
      </trkpt>
      <trkpt lat="47.5482" lon="6.79087">
        <ele>356</ele>
        <time>2016-07-17T07:58:46.000Z</time>
      </trkpt>
      <trkpt lat="47.54822" lon="6.7909">
        <ele>356</ele>
        <time>2016-07-17T07:58:47.000Z</time>
      </trkpt>
      <trkpt lat="47.54824" lon="6.79093">
        <ele>356</ele>
        <time>2016-07-17T07:58:48.000Z</time>
      </trkpt>
      <trkpt lat="47.54825" lon="6.79095">
        <ele>356</ele>
        <time>2016-07-17T07:58:49.000Z</time>
      </trkpt>
      <trkpt lat="47.54827" lon="6.79098">
        <ele>356</ele>
        <time>2016-07-17T07:58:50.000Z</time>
      </trkpt>
      <trkpt lat="47.54829" lon="6.791">
        <ele>356</ele>
        <time>2016-07-17T07:58:51.000Z</time>
      </trkpt>
      <trkpt lat="47.5483" lon="6.79103">
        <ele>356</ele>
        <time>2016-07-17T07:58:52.000Z</time>
      </trkpt>
      <trkpt lat="47.54832" lon="6.79106">
        <ele>356</ele>
        <time>2016-07-17T07:58:53.000Z</time>
      </trkpt>
      <trkpt lat="47.54833" lon="6.79109">
        <ele>356</ele>
        <time>2016-07-17T07:58:54.000Z</time>
      </trkpt>
      <trkpt lat="47.54835" lon="6.79112">
        <ele>356</ele>
        <time>2016-07-17T07:58:55.000Z</time>
      </trkpt>
      <trkpt lat="47.54836" lon="6.79116">
        <ele>356</ele>
        <time>2016-07-17T07:58:56.000Z</time>
      </trkpt>
      <trkpt lat="47.54837" lon="6.79119">
        <ele>356</ele>
        <time>2016-07-17T07:58:57.000Z</time>
      </trkpt>
      <trkpt lat="47.54838" lon="6.79123">
        <ele>356</ele>
        <time>2016-07-17T07:58:58.000Z</time>
      </trkpt>
      <trkpt lat="47.5484" lon="6.79127">
        <ele>356</ele>
        <time>2016-07-17T07:58:59.000Z</time>
      </trkpt>
      <trkpt lat="47.54841" lon="6.79131">
        <ele>356</ele>
        <time>2016-07-17T07:59:00.000Z</time>
      </trkpt>
      <trkpt lat="47.54842" lon="6.79136">
        <ele>356</ele>
        <time>2016-07-17T07:59:01.000Z</time>
      </trkpt>
      <trkpt lat="47.54844" lon="6.7914">
        <ele>356</ele>
        <time>2016-07-17T07:59:02.000Z</time>
      </trkpt>
      <trkpt lat="47.54845" lon="6.79144">
        <ele>357</ele>
        <time>2016-07-17T07:59:03.000Z</time>
      </trkpt>
      <trkpt lat="47.54847" lon="6.79148">
        <ele>357</ele>
        <time>2016-07-17T07:59:04.000Z</time>
      </trkpt>
      <trkpt lat="47.54848" lon="6.79152">
        <ele>357</ele>
        <time>2016-07-17T07:59:05.000Z</time>
      </trkpt>
      <trkpt lat="47.5485" lon="6.79155">
        <ele>357</ele>
        <time>2016-07-17T07:59:06.000Z</time>
      </trkpt>
      <trkpt lat="47.54851" lon="6.79159">
        <ele>357</ele>
        <time>2016-07-17T07:59:07.000Z</time>
      </trkpt>
      <trkpt lat="47.54852" lon="6.79164">
        <ele>357</ele>
        <time>2016-07-17T07:59:08.000Z</time>
      </trkpt>
      <trkpt lat="47.54854" lon="6.79168">
        <ele>358</ele>
        <time>2016-07-17T07:59:09.000Z</time>
      </trkpt>
      <trkpt lat="47.54855" lon="6.79172">
        <ele>358</ele>
        <time>2016-07-17T07:59:10.000Z</time>
      </trkpt>
      <trkpt lat="47.54856" lon="6.79177">
        <ele>358</ele>
        <time>2016-07-17T07:59:11.000Z</time>
      </trkpt>
      <trkpt lat="47.54857" lon="6.79181">
        <ele>358</ele>
        <time>2016-07-17T07:59:12.000Z</time>
      </trkpt>
      <trkpt lat="47.54859" lon="6.79186">
        <ele>358</ele>
        <time>2016-07-17T07:59:13.000Z</time>
      </trkpt>
      <trkpt lat="47.5486" lon="6.79191">
        <ele>358</ele>
        <time>2016-07-17T07:59:14.000Z</time>
      </trkpt>
      <trkpt lat="47.54861" lon="6.79196">
        <ele>358</ele>
        <time>2016-07-17T07:59:15.000Z</time>
      </trkpt>
      <trkpt lat="47.54862" lon="6.792">
        <ele>358</ele>
        <time>2016-07-17T07:59:16.000Z</time>
      </trkpt>
      <trkpt lat="47.54862" lon="6.79205">
        <ele>358</ele>
        <time>2016-07-17T07:59:17.000Z</time>
      </trkpt>
      <trkpt lat="47.54863" lon="6.7921">
        <ele>358</ele>
        <time>2016-07-17T07:59:18.000Z</time>
      </trkpt>
      <trkpt lat="47.54864" lon="6.79215">
        <ele>358</ele>
        <time>2016-07-17T07:59:19.000Z</time>
      </trkpt>
      <trkpt lat="47.54865" lon="6.79221">
        <ele>358</ele>
        <time>2016-07-17T07:59:20.000Z</time>
      </trkpt>
      <trkpt lat="47.54866" lon="6.79227">
        <ele>358</ele>
        <time>2016-07-17T07:59:21.000Z</time>
      </trkpt>
      <trkpt lat="47.54867" lon="6.79232">
        <ele>358</ele>
        <time>2016-07-17T07:59:22.000Z</time>
      </trkpt>
      <trkpt lat="47.54868" lon="6.79238">
        <ele>358</ele>
        <time>2016-07-17T07:59:23.000Z</time>
      </trkpt>
      <trkpt lat="47.54869" lon="6.79243">
        <ele>359</ele>
        <time>2016-07-17T07:59:24.000Z</time>
      </trkpt>
      <trkpt lat="47.5487" lon="6.79248">
        <ele>359</ele>
        <time>2016-07-17T07:59:25.000Z</time>
      </trkpt>
      <trkpt lat="47.54871" lon="6.79253">
        <ele>359</ele>
        <time>2016-07-17T07:59:26.000Z</time>
      </trkpt>
      <trkpt lat="47.54873" lon="6.79258">
        <ele>359</ele>
        <time>2016-07-17T07:59:27.000Z</time>
      </trkpt>
      <trkpt lat="47.54874" lon="6.79263">
        <ele>358</ele>
        <time>2016-07-17T07:59:28.000Z</time>
      </trkpt>
      <trkpt lat="47.54875" lon="6.79267">
        <ele>358</ele>
        <time>2016-07-17T07:59:29.000Z</time>
      </trkpt>
      <trkpt lat="47.54876" lon="6.79272">
        <ele>358</ele>
        <time>2016-07-17T07:59:30.000Z</time>
      </trkpt>
      <trkpt lat="47.54877" lon="6.79277">
        <ele>358</ele>
        <time>2016-07-17T07:59:31.000Z</time>
      </trkpt>
      <trkpt lat="47.54878" lon="6.79281">
        <ele>358</ele>
        <time>2016-07-17T07:59:32.000Z</time>
      </trkpt>
      <trkpt lat="47.5488" lon="6.79285">
        <ele>358</ele>
        <time>2016-07-17T07:59:33.000Z</time>
      </trkpt>
      <trkpt lat="47.54881" lon="6.7929">
        <ele>358</ele>
        <time>2016-07-17T07:59:34.000Z</time>
      </trkpt>
      <trkpt lat="47.54882" lon="6.79295">
        <ele>358</ele>
        <time>2016-07-17T07:59:35.000Z</time>
      </trkpt>
      <trkpt lat="47.54883" lon="6.793">
        <ele>358</ele>
        <time>2016-07-17T07:59:36.000Z</time>
      </trkpt>
      <trkpt lat="47.54885" lon="6.79306">
        <ele>358</ele>
        <time>2016-07-17T07:59:37.000Z</time>
      </trkpt>
      <trkpt lat="47.54886" lon="6.79311">
        <ele>358</ele>
        <time>2016-07-17T07:59:38.000Z</time>
      </trkpt>
      <trkpt lat="47.54887" lon="6.79317">
        <ele>358</ele>
        <time>2016-07-17T07:59:38.999Z</time>
      </trkpt>
      <trkpt lat="47.54888" lon="6.79322">
        <ele>358</ele>
        <time>2016-07-17T07:59:40.000Z</time>
      </trkpt>
      <trkpt lat="47.5489" lon="6.79327">
        <ele>358</ele>
        <time>2016-07-17T07:59:41.000Z</time>
      </trkpt>
      <trkpt lat="47.54891" lon="6.79333">
        <ele>358</ele>
        <time>2016-07-17T07:59:42.000Z</time>
      </trkpt>
      <trkpt lat="47.54892" lon="6.79339">
        <ele>357</ele>
        <time>2016-07-17T07:59:43.000Z</time>
      </trkpt>
      <trkpt lat="47.54894" lon="6.79344">
        <ele>357</ele>
        <time>2016-07-17T07:59:44.000Z</time>
      </trkpt>
      <trkpt lat="47.54895" lon="6.7935">
        <ele>357</ele>
        <time>2016-07-17T07:59:45.000Z</time>
      </trkpt>
      <trkpt lat="47.54896" lon="6.79354">
        <ele>357</ele>
        <time>2016-07-17T07:59:46.000Z</time>
      </trkpt>
      <trkpt lat="47.54898" lon="6.79358">
        <ele>356</ele>
        <time>2016-07-17T07:59:48.000Z</time>
      </trkpt>
      <trkpt lat="47.54899" lon="6.7936">
        <ele>356</ele>
        <time>2016-07-17T07:59:49.000Z</time>
      </trkpt>
      <trkpt lat="47.54896" lon="6.79363">
        <ele>356</ele>
        <time>2016-07-17T08:00:04.000Z</time>
      </trkpt>
      <trkpt lat="47.54895" lon="6.79365">
        <ele>356</ele>
        <time>2016-07-17T08:00:05.000Z</time>
      </trkpt>
      <trkpt lat="47.54892" lon="6.79368">
        <ele>356</ele>
        <time>2016-07-17T08:00:07.000Z</time>
      </trkpt>
      <trkpt lat="47.54891" lon="6.7937">
        <ele>356</ele>
        <time>2016-07-17T08:00:08.000Z</time>
      </trkpt>
      <trkpt lat="47.54887" lon="6.79372">
        <ele>356</ele>
        <time>2016-07-17T08:00:10.000Z</time>
      </trkpt>
      <trkpt lat="47.54885" lon="6.79374">
        <ele>356</ele>
        <time>2016-07-17T08:00:11.000Z</time>
      </trkpt>
      <trkpt lat="47.54882" lon="6.79375">
        <ele>356</ele>
        <time>2016-07-17T08:00:12.000Z</time>
      </trkpt>
      <trkpt lat="47.5488" lon="6.79376">
        <ele>356</ele>
        <time>2016-07-17T08:00:13.000Z</time>
      </trkpt>
      <trkpt lat="47.54876" lon="6.79378">
        <ele>356</ele>
        <time>2016-07-17T08:00:15.000Z</time>
      </trkpt>
      <trkpt lat="47.54874" lon="6.79379">
        <ele>356</ele>
        <time>2016-07-17T08:00:16.000Z</time>
      </trkpt>
      <trkpt lat="47.54871" lon="6.79379">
        <ele>356</ele>
        <time>2016-07-17T08:00:17.000Z</time>
      </trkpt>
      <trkpt lat="47.54869" lon="6.7938">
        <ele>356</ele>
        <time>2016-07-17T08:00:18.000Z</time>
      </trkpt>
      <trkpt lat="47.54866" lon="6.79381">
        <ele>356</ele>
        <time>2016-07-17T08:00:19.000Z</time>
      </trkpt>
      <trkpt lat="47.54864" lon="6.79382">
        <ele>356</ele>
        <time>2016-07-17T08:00:20.000Z</time>
      </trkpt>
      <trkpt lat="47.54861" lon="6.79383">
        <ele>356</ele>
        <time>2016-07-17T08:00:20.999Z</time>
      </trkpt>
      <trkpt lat="47.54859" lon="6.79385">
        <ele>356</ele>
        <time>2016-07-17T08:00:22.000Z</time>
      </trkpt>
      <trkpt lat="47.54856" lon="6.79387">
        <ele>356</ele>
        <time>2016-07-17T08:00:23.000Z</time>
      </trkpt>
      <trkpt lat="47.54854" lon="6.79389">
        <ele>356</ele>
        <time>2016-07-17T08:00:24.000Z</time>
      </trkpt>
      <trkpt lat="47.54853" lon="6.79391">
        <ele>356</ele>
        <time>2016-07-17T08:00:25.000Z</time>
      </trkpt>
      <trkpt lat="47.54851" lon="6.79393">
        <ele>356</ele>
        <time>2016-07-17T08:00:26.000Z</time>
      </trkpt>
      <trkpt lat="47.54847" lon="6.79396">
        <ele>356</ele>
        <time>2016-07-17T08:00:28.000Z</time>
      </trkpt>
      <trkpt lat="47.54846" lon="6.79397">
        <ele>356</ele>
        <time>2016-07-17T08:00:29.000Z</time>
      </trkpt>
      <trkpt lat="47.54842" lon="6.79399">
        <ele>356</ele>
        <time>2016-07-17T08:00:31.000Z</time>
      </trkpt>
      <trkpt lat="47.5484" lon="6.794">
        <ele>356</ele>
        <time>2016-07-17T08:00:32.000Z</time>
      </trkpt>
      <trkpt lat="47.54835" lon="6.79402">
        <ele>355</ele>
        <time>2016-07-17T08:00:34.000Z</time>
      </trkpt>
      <trkpt lat="47.54834" lon="6.79404">
        <ele>355</ele>
        <time>2016-07-17T08:00:35.000Z</time>
      </trkpt>
      <trkpt lat="47.54831" lon="6.7941">
        <ele>355</ele>
        <time>2016-07-17T08:00:37.000Z</time>
      </trkpt>
      <trkpt lat="47.5483" lon="6.79412">
        <ele>355</ele>
        <time>2016-07-17T08:00:38.000Z</time>
      </trkpt>
      <trkpt lat="47.54827" lon="6.79416">
        <ele>355</ele>
        <time>2016-07-17T08:00:40.000Z</time>
      </trkpt>
      <trkpt lat="47.54825" lon="6.79417">
        <ele>356</ele>
        <time>2016-07-17T08:00:41.000Z</time>
      </trkpt>
      <trkpt lat="47.54822" lon="6.79419">
        <ele>356</ele>
        <time>2016-07-17T08:00:43.000Z</time>
      </trkpt>
      <trkpt lat="47.5482" lon="6.7942">
        <ele>356</ele>
        <time>2016-07-17T08:00:44.000Z</time>
      </trkpt>
      <trkpt lat="47.54817" lon="6.79424">
        <ele>356</ele>
        <time>2016-07-17T08:00:46.000Z</time>
      </trkpt>
      <trkpt lat="47.54815" lon="6.79425">
        <ele>356</ele>
        <time>2016-07-17T08:00:47.000Z</time>
      </trkpt>
      <trkpt lat="47.54813" lon="6.79429">
        <ele>357</ele>
        <time>2016-07-17T08:00:49.000Z</time>
      </trkpt>
      <trkpt lat="47.54811" lon="6.79431">
        <ele>357</ele>
        <time>2016-07-17T08:00:50.000Z</time>
      </trkpt>
      <trkpt lat="47.54809" lon="6.79433">
        <ele>357</ele>
        <time>2016-07-17T08:00:51.000Z</time>
      </trkpt>
      <trkpt lat="47.54807" lon="6.79435">
        <ele>357</ele>
        <time>2016-07-17T08:00:51.998Z</time>
      </trkpt>
      <trkpt lat="47.54804" lon="6.79437">
        <ele>357</ele>
        <time>2016-07-17T08:00:53.000Z</time>
      </trkpt>
      <trkpt lat="47.54801" lon="6.79439">
        <ele>357</ele>
        <time>2016-07-17T08:00:54.000Z</time>
      </trkpt>
      <trkpt lat="47.54798" lon="6.7944">
        <ele>357</ele>
        <time>2016-07-17T08:00:55.000Z</time>
      </trkpt>
      <trkpt lat="47.54796" lon="6.79441">
        <ele>357</ele>
        <time>2016-07-17T08:00:56.001Z</time>
      </trkpt>
      <trkpt lat="47.54792" lon="6.79443">
        <ele>357</ele>
        <time>2016-07-17T08:00:58.000Z</time>
      </trkpt>
      <trkpt lat="47.54791" lon="6.79444">
        <ele>357</ele>
        <time>2016-07-17T08:00:59.000Z</time>
      </trkpt>
      <trkpt lat="47.54791" lon="6.79449">
        <ele>357</ele>
        <time>2016-07-17T08:01:02.000Z</time>
      </trkpt>
      <trkpt lat="47.54791" lon="6.79452">
        <ele>357</ele>
        <time>2016-07-17T08:01:03.000Z</time>
      </trkpt>
      <trkpt lat="47.54791" lon="6.79455">
        <ele>357</ele>
        <time>2016-07-17T08:01:04.000Z</time>
      </trkpt>
      <trkpt lat="47.54792" lon="6.79459">
        <ele>358</ele>
        <time>2016-07-17T08:01:05.000Z</time>
      </trkpt>
      <trkpt lat="47.54793" lon="6.79462">
        <ele>358</ele>
        <time>2016-07-17T08:01:06.000Z</time>
      </trkpt>
      <trkpt lat="47.54793" lon="6.79466">
        <ele>358</ele>
        <time>2016-07-17T08:01:07.000Z</time>
      </trkpt>
      <trkpt lat="47.54794" lon="6.7947">
        <ele>358</ele>
        <time>2016-07-17T08:01:08.000Z</time>
      </trkpt>
      <trkpt lat="47.54794" lon="6.79475">
        <ele>358</ele>
        <time>2016-07-17T08:01:09.000Z</time>
      </trkpt>
      <trkpt lat="47.54794" lon="6.7948">
        <ele>358</ele>
        <time>2016-07-17T08:01:10.000Z</time>
      </trkpt>
      <trkpt lat="47.54794" lon="6.79485">
        <ele>358</ele>
        <time>2016-07-17T08:01:11.000Z</time>
      </trkpt>
      <trkpt lat="47.54794" lon="6.79489">
        <ele>358</ele>
        <time>2016-07-17T08:01:12.000Z</time>
      </trkpt>
      <trkpt lat="47.54795" lon="6.79494">
        <ele>358</ele>
        <time>2016-07-17T08:01:13.000Z</time>
      </trkpt>
      <trkpt lat="47.54797" lon="6.79499">
        <ele>358</ele>
        <time>2016-07-17T08:01:14.000Z</time>
      </trkpt>
      <trkpt lat="47.54799" lon="6.79505">
        <ele>360</ele>
        <time>2016-07-17T08:01:15.000Z</time>
      </trkpt>
      <trkpt lat="47.54801" lon="6.7951">
        <ele>360</ele>
        <time>2016-07-17T08:01:16.000Z</time>
      </trkpt>
      <trkpt lat="47.54803" lon="6.79515">
        <ele>360</ele>
        <time>2016-07-17T08:01:17.000Z</time>
      </trkpt>
      <trkpt lat="47.54806" lon="6.79519">
        <ele>360</ele>
        <time>2016-07-17T08:01:18.000Z</time>
      </trkpt>
      <trkpt lat="47.54808" lon="6.79524">
        <ele>360</ele>
        <time>2016-07-17T08:01:19.000Z</time>
      </trkpt>
      <trkpt lat="47.54811" lon="6.79528">
        <ele>360</ele>
        <time>2016-07-17T08:01:20.000Z</time>
      </trkpt>
      <trkpt lat="47.54814" lon="6.79532">
        <ele>360</ele>
        <time>2016-07-17T08:01:21.000Z</time>
      </trkpt>
      <trkpt lat="47.54816" lon="6.79536">
        <ele>360</ele>
        <time>2016-07-17T08:01:22.000Z</time>
      </trkpt>
      <trkpt lat="47.54819" lon="6.7954">
        <ele>360</ele>
        <time>2016-07-17T08:01:23.000Z</time>
      </trkpt>
      <trkpt lat="47.54821" lon="6.79543">
        <ele>360</ele>
        <time>2016-07-17T08:01:24.000Z</time>
      </trkpt>
      <trkpt lat="47.54822" lon="6.79546">
        <ele>360</ele>
        <time>2016-07-17T08:01:25.000Z</time>
      </trkpt>
      <trkpt lat="47.54825" lon="6.79551">
        <ele>360</ele>
        <time>2016-07-17T08:01:27.000Z</time>
      </trkpt>
      <trkpt lat="47.54826" lon="6.79553">
        <ele>360</ele>
        <time>2016-07-17T08:01:28.000Z</time>
      </trkpt>
      <trkpt lat="47.54828" lon="6.79556">
        <ele>360</ele>
        <time>2016-07-17T08:01:30.000Z</time>
      </trkpt>
      <trkpt lat="47.54829" lon="6.79558">
        <ele>360</ele>
        <time>2016-07-17T08:01:31.000Z</time>
      </trkpt>
      <trkpt lat="47.54832" lon="6.79562">
        <ele>360</ele>
        <time>2016-07-17T08:01:33.000Z</time>
      </trkpt>
      <trkpt lat="47.54832" lon="6.79564">
        <ele>360</ele>
        <time>2016-07-17T08:01:34.000Z</time>
      </trkpt>
      <trkpt lat="47.54835" lon="6.79568">
        <ele>358</ele>
        <time>2016-07-17T08:01:45.000Z</time>
      </trkpt>
      <trkpt lat="47.54836" lon="6.7957">
        <ele>358</ele>
        <time>2016-07-17T08:01:46.000Z</time>
      </trkpt>
      <trkpt lat="47.54838" lon="6.79574">
        <ele>359</ele>
        <time>2016-07-17T08:01:49.000Z</time>
      </trkpt>
      <trkpt lat="47.54839" lon="6.79576">
        <ele>359</ele>
        <time>2016-07-17T08:01:50.000Z</time>
      </trkpt>
      <trkpt lat="47.54841" lon="6.79578">
        <ele>359</ele>
        <time>2016-07-17T08:01:52.000Z</time>
      </trkpt>
      <trkpt lat="47.54842" lon="6.79581">
        <ele>359</ele>
        <time>2016-07-17T08:01:53.000Z</time>
      </trkpt>
      <trkpt lat="47.54845" lon="6.79585">
        <ele>359</ele>
        <time>2016-07-17T08:01:55.000Z</time>
      </trkpt>
      <trkpt lat="47.54846" lon="6.79588">
        <ele>359</ele>
        <time>2016-07-17T08:01:56.000Z</time>
      </trkpt>
      <trkpt lat="47.54847" lon="6.79591">
        <ele>359</ele>
        <time>2016-07-17T08:01:57.000Z</time>
      </trkpt>
      <trkpt lat="47.54848" lon="6.79594">
        <ele>358</ele>
        <time>2016-07-17T08:01:58.000Z</time>
      </trkpt>
      <trkpt lat="47.54851" lon="6.79598">
        <ele>358</ele>
        <time>2016-07-17T08:02:02.000Z</time>
      </trkpt>
      <trkpt lat="47.54851" lon="6.79599">
        <ele>358</ele>
        <time>2016-07-17T08:02:03.000Z</time>
      </trkpt>
      <trkpt lat="47.54851" lon="6.79604">
        <ele>358</ele>
        <time>2016-07-17T08:02:08.000Z</time>
      </trkpt>
      <trkpt lat="47.54852" lon="6.79606">
        <ele>358</ele>
        <time>2016-07-17T08:02:09.000Z</time>
      </trkpt>
      <trkpt lat="47.54854" lon="6.79611">
        <ele>358</ele>
        <time>2016-07-17T08:02:12.000Z</time>
      </trkpt>
      <trkpt lat="47.54855" lon="6.79613">
        <ele>358</ele>
        <time>2016-07-17T08:02:13.000Z</time>
      </trkpt>
      <trkpt lat="47.54856" lon="6.79619">
        <ele>358</ele>
        <time>2016-07-17T08:02:17.000Z</time>
      </trkpt>
      <trkpt lat="47.54856" lon="6.7962">
        <ele>358</ele>
        <time>2016-07-17T08:02:18.000Z</time>
      </trkpt>
      <trkpt lat="47.54859" lon="6.79624">
        <ele>358</ele>
        <time>2016-07-17T08:02:20.000Z</time>
      </trkpt>
      <trkpt lat="47.5486" lon="6.79625">
        <ele>358</ele>
        <time>2016-07-17T08:02:21.000Z</time>
      </trkpt>
      <trkpt lat="47.54862" lon="6.79628">
        <ele>358</ele>
        <time>2016-07-17T08:02:22.000Z</time>
      </trkpt>
      <trkpt lat="47.54864" lon="6.79632">
        <ele>358</ele>
        <time>2016-07-17T08:02:23.000Z</time>
      </trkpt>
      <trkpt lat="47.54866" lon="6.79637">
        <ele>358</ele>
        <time>2016-07-17T08:02:24.000Z</time>
      </trkpt>
      <trkpt lat="47.54869" lon="6.79641">
        <ele>358</ele>
        <time>2016-07-17T08:02:25.000Z</time>
      </trkpt>
      <trkpt lat="47.54872" lon="6.79646">
        <ele>358</ele>
        <time>2016-07-17T08:02:26.000Z</time>
      </trkpt>
      <trkpt lat="47.54876" lon="6.7965">
        <ele>358</ele>
        <time>2016-07-17T08:02:27.000Z</time>
      </trkpt>
      <trkpt lat="47.54879" lon="6.79654">
        <ele>357</ele>
        <time>2016-07-17T08:02:28.000Z</time>
      </trkpt>
      <trkpt lat="47.54882" lon="6.79659">
        <ele>357</ele>
        <time>2016-07-17T08:02:29.000Z</time>
      </trkpt>
      <trkpt lat="47.54884" lon="6.79663">
        <ele>357</ele>
        <time>2016-07-17T08:02:30.000Z</time>
      </trkpt>
      <trkpt lat="47.54887" lon="6.79668">
        <ele>358</ele>
        <time>2016-07-17T08:02:31.000Z</time>
      </trkpt>
      <trkpt lat="47.54892" lon="6.79678">
        <ele>358</ele>
        <time>2016-07-17T08:02:32.000Z</time>
      </trkpt>
      <trkpt lat="47.54893" lon="6.79686">
        <ele>358</ele>
        <time>2016-07-17T08:02:33.000Z</time>
      </trkpt>
      <trkpt lat="47.54894" lon="6.79692">
        <ele>359</ele>
        <time>2016-07-17T08:02:34.000Z</time>
      </trkpt>
      <trkpt lat="47.54895" lon="6.79698">
        <ele>359</ele>
        <time>2016-07-17T08:02:35.000Z</time>
      </trkpt>
      <trkpt lat="47.54896" lon="6.79704">
        <ele>359</ele>
        <time>2016-07-17T08:02:36.000Z</time>
      </trkpt>
      <trkpt lat="47.54897" lon="6.79709">
        <ele>359</ele>
        <time>2016-07-17T08:02:37.000Z</time>
      </trkpt>
      <trkpt lat="47.54897" lon="6.79714">
        <ele>359</ele>
        <time>2016-07-17T08:02:38.000Z</time>
      </trkpt>
      <trkpt lat="47.549" lon="6.7972">
        <ele>359</ele>
        <time>2016-07-17T08:02:39.000Z</time>
      </trkpt>
      <trkpt lat="47.54901" lon="6.79726">
        <ele>359</ele>
        <time>2016-07-17T08:02:40.000Z</time>
      </trkpt>
      <trkpt lat="47.54903" lon="6.79727">
        <ele>359</ele>
        <time>2016-07-17T08:02:41.000Z</time>
      </trkpt>
      <trkpt lat="47.54905" lon="6.79732">
        <ele>359</ele>
        <time>2016-07-17T08:02:42.000Z</time>
      </trkpt>
      <trkpt lat="47.54909" lon="6.79736">
        <ele>359</ele>
        <time>2016-07-17T08:02:43.000Z</time>
      </trkpt>
      <trkpt lat="47.54912" lon="6.79736">
        <ele>359</ele>
        <time>2016-07-17T08:02:44.000Z</time>
      </trkpt>
      <trkpt lat="47.54917" lon="6.79736">
        <ele>359</ele>
        <time>2016-07-17T08:02:45.000Z</time>
      </trkpt>
      <trkpt lat="47.54921" lon="6.79735">
        <ele>359</ele>
        <time>2016-07-17T08:02:46.000Z</time>
      </trkpt>
      <trkpt lat="47.54926" lon="6.79735">
        <ele>359</ele>
        <time>2016-07-17T08:02:47.000Z</time>
      </trkpt>
      <trkpt lat="47.54931" lon="6.79734">
        <ele>359</ele>
        <time>2016-07-17T08:02:48.000Z</time>
      </trkpt>
      <trkpt lat="47.54935" lon="6.79734">
        <ele>359</ele>
        <time>2016-07-17T08:02:49.000Z</time>
      </trkpt>
      <trkpt lat="47.54939" lon="6.79733">
        <ele>359</ele>
        <time>2016-07-17T08:02:50.000Z</time>
      </trkpt>
      <trkpt lat="47.54945" lon="6.79731">
        <ele>359</ele>
        <time>2016-07-17T08:02:52.000Z</time>
      </trkpt>
      <trkpt lat="47.54947" lon="6.79731">
        <ele>359</ele>
        <time>2016-07-17T08:02:53.000Z</time>
      </trkpt>
      <trkpt lat="47.5495" lon="6.7973">
        <ele>359</ele>
        <time>2016-07-17T08:02:54.000Z</time>
      </trkpt>
      <trkpt lat="47.54952" lon="6.79729">
        <ele>359</ele>
        <time>2016-07-17T08:02:55.000Z</time>
      </trkpt>
      <trkpt lat="47.54955" lon="6.79728">
        <ele>360</ele>
        <time>2016-07-17T08:02:56.000Z</time>
      </trkpt>
      <trkpt lat="47.54957" lon="6.79727">
        <ele>360</ele>
        <time>2016-07-17T08:02:57.000Z</time>
      </trkpt>
      <trkpt lat="47.5496" lon="6.79726">
        <ele>360</ele>
        <time>2016-07-17T08:02:58.000Z</time>
      </trkpt>
      <trkpt lat="47.54964" lon="6.79725">
        <ele>360</ele>
        <time>2016-07-17T08:03:00.000Z</time>
      </trkpt>
      <trkpt lat="47.54966" lon="6.79724">
        <ele>360</ele>
        <time>2016-07-17T08:03:01.000Z</time>
      </trkpt>
      <trkpt lat="47.54968" lon="6.79723">
        <ele>360</ele>
        <time>2016-07-17T08:03:02.000Z</time>
      </trkpt>
      <trkpt lat="47.5497" lon="6.79722">
        <ele>360</ele>
        <time>2016-07-17T08:03:03.000Z</time>
      </trkpt>
      <trkpt lat="47.54973" lon="6.79722">
        <ele>360</ele>
        <time>2016-07-17T08:03:04.000Z</time>
      </trkpt>
      <trkpt lat="47.54975" lon="6.79723">
        <ele>360</ele>
        <time>2016-07-17T08:03:05.000Z</time>
      </trkpt>
      <trkpt lat="47.54979" lon="6.79723">
        <ele>360</ele>
        <time>2016-07-17T08:03:07.000Z</time>
      </trkpt>
      <trkpt lat="47.54981" lon="6.79724">
        <ele>360</ele>
        <time>2016-07-17T08:03:08.000Z</time>
      </trkpt>
      <trkpt lat="47.54985" lon="6.79725">
        <ele>360</ele>
        <time>2016-07-17T08:03:10.000Z</time>
      </trkpt>
      <trkpt lat="47.54987" lon="6.79725">
        <ele>360</ele>
        <time>2016-07-17T08:03:11.000Z</time>
      </trkpt>
      <trkpt lat="47.54991" lon="6.79727">
        <ele>360</ele>
        <time>2016-07-17T08:03:13.000Z</time>
      </trkpt>
      <trkpt lat="47.54994" lon="6.79728">
        <ele>360</ele>
        <time>2016-07-17T08:03:14.000Z</time>
      </trkpt>
      <trkpt lat="47.54997" lon="6.79729">
        <ele>360</ele>
        <time>2016-07-17T08:03:15.000Z</time>
      </trkpt>
      <trkpt lat="47.55" lon="6.7973">
        <ele>360</ele>
        <time>2016-07-17T08:03:16.000Z</time>
      </trkpt>
      <trkpt lat="47.55003" lon="6.79731">
        <ele>363</ele>
        <time>2016-07-17T08:03:17.000Z</time>
      </trkpt>
      <trkpt lat="47.55006" lon="6.79733">
        <ele>363</ele>
        <time>2016-07-17T08:03:18.000Z</time>
      </trkpt>
      <trkpt lat="47.5501" lon="6.79734">
        <ele>363</ele>
        <time>2016-07-17T08:03:19.000Z</time>
      </trkpt>
      <trkpt lat="47.55013" lon="6.79736">
        <ele>363</ele>
        <time>2016-07-17T08:03:20.000Z</time>
      </trkpt>
      <trkpt lat="47.55017" lon="6.79737">
        <ele>364</ele>
        <time>2016-07-17T08:03:21.000Z</time>
      </trkpt>
      <trkpt lat="47.5502" lon="6.79739">
        <ele>364</ele>
        <time>2016-07-17T08:03:22.000Z</time>
      </trkpt>
      <trkpt lat="47.55023" lon="6.7974">
        <ele>364</ele>
        <time>2016-07-17T08:03:23.000Z</time>
      </trkpt>
      <trkpt lat="47.55026" lon="6.79742">
        <ele>364</ele>
        <time>2016-07-17T08:03:24.000Z</time>
      </trkpt>
      <trkpt lat="47.55028" lon="6.79745">
        <ele>364</ele>
        <time>2016-07-17T08:03:25.000Z</time>
      </trkpt>
      <trkpt lat="47.5503" lon="6.79747">
        <ele>364</ele>
        <time>2016-07-17T08:03:26.000Z</time>
      </trkpt>
      <trkpt lat="47.55032" lon="6.79749">
        <ele>365</ele>
        <time>2016-07-17T08:03:27.000Z</time>
      </trkpt>
      <trkpt lat="47.55034" lon="6.79751">
        <ele>363</ele>
        <time>2016-07-17T08:03:28.000Z</time>
      </trkpt>
      <trkpt lat="47.55036" lon="6.79754">
        <ele>363</ele>
        <time>2016-07-17T08:03:29.000Z</time>
      </trkpt>
      <trkpt lat="47.55039" lon="6.79757">
        <ele>363</ele>
        <time>2016-07-17T08:03:30.000Z</time>
      </trkpt>
      <trkpt lat="47.55041" lon="6.79761">
        <ele>363</ele>
        <time>2016-07-17T08:03:31.000Z</time>
      </trkpt>
      <trkpt lat="47.55044" lon="6.79765">
        <ele>364</ele>
        <time>2016-07-17T08:03:32.000Z</time>
      </trkpt>
      <trkpt lat="47.55047" lon="6.79768">
        <ele>364</ele>
        <time>2016-07-17T08:03:33.000Z</time>
      </trkpt>
      <trkpt lat="47.5505" lon="6.79771">
        <ele>364</ele>
        <time>2016-07-17T08:03:34.000Z</time>
      </trkpt>
      <trkpt lat="47.55053" lon="6.79773">
        <ele>364</ele>
        <time>2016-07-17T08:03:35.000Z</time>
      </trkpt>
      <trkpt lat="47.55056" lon="6.79775">
        <ele>364</ele>
        <time>2016-07-17T08:03:36.000Z</time>
      </trkpt>
      <trkpt lat="47.55059" lon="6.79777">
        <ele>364</ele>
        <time>2016-07-17T08:03:37.000Z</time>
      </trkpt>
      <trkpt lat="47.55062" lon="6.79778">
        <ele>364</ele>
        <time>2016-07-17T08:03:38.000Z</time>
      </trkpt>
      <trkpt lat="47.55064" lon="6.79779">
        <ele>364</ele>
        <time>2016-07-17T08:03:39.000Z</time>
      </trkpt>
      <trkpt lat="47.55067" lon="6.7978">
        <ele>364</ele>
        <time>2016-07-17T08:03:40.000Z</time>
      </trkpt>
      <trkpt lat="47.5507" lon="6.79781">
        <ele>364</ele>
        <time>2016-07-17T08:03:41.000Z</time>
      </trkpt>
      <trkpt lat="47.55072" lon="6.79781">
        <ele>364</ele>
        <time>2016-07-17T08:03:42.000Z</time>
      </trkpt>
      <trkpt lat="47.55076" lon="6.79782">
        <ele>364</ele>
        <time>2016-07-17T08:03:44.000Z</time>
      </trkpt>
      <trkpt lat="47.55078" lon="6.79784">
        <ele>364</ele>
        <time>2016-07-17T08:03:45.000Z</time>
      </trkpt>
      <trkpt lat="47.5508" lon="6.79786">
        <ele>364</ele>
        <time>2016-07-17T08:03:46.000Z</time>
      </trkpt>
      <trkpt lat="47.55083" lon="6.79788">
        <ele>364</ele>
        <time>2016-07-17T08:03:47.000Z</time>
      </trkpt>
      <trkpt lat="47.55085" lon="6.7979">
        <ele>368</ele>
        <time>2016-07-17T08:03:48.000Z</time>
      </trkpt>
      <trkpt lat="47.55087" lon="6.79793">
        <ele>368</ele>
        <time>2016-07-17T08:03:49.000Z</time>
      </trkpt>
      <trkpt lat="47.55088" lon="6.79797">
        <ele>368</ele>
        <time>2016-07-17T08:03:50.000Z</time>
      </trkpt>
      <trkpt lat="47.55092" lon="6.79806">
        <ele>368</ele>
        <time>2016-07-17T08:03:52.000Z</time>
      </trkpt>
      <trkpt lat="47.55095" lon="6.79811">
        <ele>368</ele>
        <time>2016-07-17T08:03:53.000Z</time>
      </trkpt>
      <trkpt lat="47.55097" lon="6.79816">
        <ele>367</ele>
        <time>2016-07-17T08:03:54.000Z</time>
      </trkpt>
      <trkpt lat="47.551" lon="6.79821">
        <ele>367</ele>
        <time>2016-07-17T08:03:55.000Z</time>
      </trkpt>
      <trkpt lat="47.55102" lon="6.79826">
        <ele>367</ele>
        <time>2016-07-17T08:03:56.000Z</time>
      </trkpt>
      <trkpt lat="47.55104" lon="6.79831">
        <ele>367</ele>
        <time>2016-07-17T08:03:57.000Z</time>
      </trkpt>
      <trkpt lat="47.55106" lon="6.79835">
        <ele>365</ele>
        <time>2016-07-17T08:03:58.000Z</time>
      </trkpt>
      <trkpt lat="47.55108" lon="6.7984">
        <ele>365</ele>
        <time>2016-07-17T08:03:59.000Z</time>
      </trkpt>
      <trkpt lat="47.5511" lon="6.79844">
        <ele>365</ele>
        <time>2016-07-17T08:04:00.000Z</time>
      </trkpt>
      <trkpt lat="47.55113" lon="6.79847">
        <ele>365</ele>
        <time>2016-07-17T08:04:01.000Z</time>
      </trkpt>
      <trkpt lat="47.55116" lon="6.79849">
        <ele>365</ele>
        <time>2016-07-17T08:04:02.000Z</time>
      </trkpt>
      <trkpt lat="47.5512" lon="6.79852">
        <ele>365</ele>
        <time>2016-07-17T08:04:03.000Z</time>
      </trkpt>
      <trkpt lat="47.55124" lon="6.79854">
        <ele>365</ele>
        <time>2016-07-17T08:04:04.000Z</time>
      </trkpt>
      <trkpt lat="47.55128" lon="6.79857">
        <ele>365</ele>
        <time>2016-07-17T08:04:05.000Z</time>
      </trkpt>
      <trkpt lat="47.55133" lon="6.79859">
        <ele>365</ele>
        <time>2016-07-17T08:04:06.000Z</time>
      </trkpt>
      <trkpt lat="47.55138" lon="6.79862">
        <ele>366</ele>
        <time>2016-07-17T08:04:07.000Z</time>
      </trkpt>
      <trkpt lat="47.55143" lon="6.79864">
        <ele>366</ele>
        <time>2016-07-17T08:04:08.000Z</time>
      </trkpt>
      <trkpt lat="47.55148" lon="6.79866">
        <ele>366</ele>
        <time>2016-07-17T08:04:09.000Z</time>
      </trkpt>
      <trkpt lat="47.55152" lon="6.79868">
        <ele>366</ele>
        <time>2016-07-17T08:04:10.000Z</time>
      </trkpt>
      <trkpt lat="47.55156" lon="6.79869">
        <ele>366</ele>
        <time>2016-07-17T08:04:11.000Z</time>
      </trkpt>
      <trkpt lat="47.5516" lon="6.79871">
        <ele>366</ele>
        <time>2016-07-17T08:04:12.000Z</time>
      </trkpt>
      <trkpt lat="47.55164" lon="6.79874">
        <ele>366</ele>
        <time>2016-07-17T08:04:13.000Z</time>
      </trkpt>
      <trkpt lat="47.55169" lon="6.79876">
        <ele>369</ele>
        <time>2016-07-17T08:04:14.000Z</time>
      </trkpt>
      <trkpt lat="47.55173" lon="6.79878">
        <ele>369</ele>
        <time>2016-07-17T08:04:15.000Z</time>
      </trkpt>
      <trkpt lat="47.55176" lon="6.7988">
        <ele>369</ele>
        <time>2016-07-17T08:04:16.000Z</time>
      </trkpt>
      <trkpt lat="47.55179" lon="6.79882">
        <ele>369</ele>
        <time>2016-07-17T08:04:17.000Z</time>
      </trkpt>
      <trkpt lat="47.55181" lon="6.79884">
        <ele>369</ele>
        <time>2016-07-17T08:04:18.000Z</time>
      </trkpt>
      <trkpt lat="47.55184" lon="6.79885">
        <ele>369</ele>
        <time>2016-07-17T08:04:19.000Z</time>
      </trkpt>
      <trkpt lat="47.55186" lon="6.79886">
        <ele>369</ele>
        <time>2016-07-17T08:04:20.000Z</time>
      </trkpt>
      <trkpt lat="47.55188" lon="6.79888">
        <ele>369</ele>
        <time>2016-07-17T08:04:21.000Z</time>
      </trkpt>
      <trkpt lat="47.5519" lon="6.7989">
        <ele>369</ele>
        <time>2016-07-17T08:04:22.000Z</time>
      </trkpt>
      <trkpt lat="47.55192" lon="6.79892">
        <ele>369</ele>
        <time>2016-07-17T08:04:23.000Z</time>
      </trkpt>
      <trkpt lat="47.55194" lon="6.79895">
        <ele>369</ele>
        <time>2016-07-17T08:04:24.000Z</time>
      </trkpt>
      <trkpt lat="47.55196" lon="6.79897">
        <ele>369</ele>
        <time>2016-07-17T08:04:25.000Z</time>
      </trkpt>
      <trkpt lat="47.55199" lon="6.79899">
        <ele>369</ele>
        <time>2016-07-17T08:04:26.000Z</time>
      </trkpt>
      <trkpt lat="47.55201" lon="6.79902">
        <ele>369</ele>
        <time>2016-07-17T08:04:27.000Z</time>
      </trkpt>
      <trkpt lat="47.55204" lon="6.79905">
        <ele>369</ele>
        <time>2016-07-17T08:04:28.000Z</time>
      </trkpt>
      <trkpt lat="47.55206" lon="6.79908">
        <ele>369</ele>
        <time>2016-07-17T08:04:29.000Z</time>
      </trkpt>
      <trkpt lat="47.55209" lon="6.79911">
        <ele>369</ele>
        <time>2016-07-17T08:04:30.000Z</time>
      </trkpt>
      <trkpt lat="47.55212" lon="6.79915">
        <ele>369</ele>
        <time>2016-07-17T08:04:31.000Z</time>
      </trkpt>
      <trkpt lat="47.55215" lon="6.79919">
        <ele>366</ele>
        <time>2016-07-17T08:04:32.000Z</time>
      </trkpt>
      <trkpt lat="47.55218" lon="6.79923">
        <ele>366</ele>
        <time>2016-07-17T08:04:33.000Z</time>
      </trkpt>
      <trkpt lat="47.55221" lon="6.79927">
        <ele>366</ele>
        <time>2016-07-17T08:04:34.000Z</time>
      </trkpt>
      <trkpt lat="47.55223" lon="6.79931">
        <ele>366</ele>
        <time>2016-07-17T08:04:35.000Z</time>
      </trkpt>
      <trkpt lat="47.55225" lon="6.79935">
        <ele>366</ele>
        <time>2016-07-17T08:04:36.000Z</time>
      </trkpt>
      <trkpt lat="47.55227" lon="6.79938">
        <ele>366</ele>
        <time>2016-07-17T08:04:37.000Z</time>
      </trkpt>
      <trkpt lat="47.55229" lon="6.79942">
        <ele>366</ele>
        <time>2016-07-17T08:04:38.000Z</time>
      </trkpt>
      <trkpt lat="47.55231" lon="6.79945">
        <ele>366</ele>
        <time>2016-07-17T08:04:39.000Z</time>
      </trkpt>
      <trkpt lat="47.55233" lon="6.79948">
        <ele>366</ele>
        <time>2016-07-17T08:04:40.000Z</time>
      </trkpt>
      <trkpt lat="47.55235" lon="6.79951">
        <ele>366</ele>
        <time>2016-07-17T08:04:41.000Z</time>
      </trkpt>
      <trkpt lat="47.55237" lon="6.79954">
        <ele>366</ele>
        <time>2016-07-17T08:04:42.000Z</time>
      </trkpt>
      <trkpt lat="47.55239" lon="6.79957">
        <ele>366</ele>
        <time>2016-07-17T08:04:43.000Z</time>
      </trkpt>
      <trkpt lat="47.55242" lon="6.7996">
        <ele>366</ele>
        <time>2016-07-17T08:04:44.000Z</time>
      </trkpt>
      <trkpt lat="47.55245" lon="6.79963">
        <ele>366</ele>
        <time>2016-07-17T08:04:45.000Z</time>
      </trkpt>
      <trkpt lat="47.55248" lon="6.79967">
        <ele>366</ele>
        <time>2016-07-17T08:04:46.000Z</time>
      </trkpt>
      <trkpt lat="47.5525" lon="6.79969">
        <ele>369</ele>
        <time>2016-07-17T08:04:47.000Z</time>
      </trkpt>
      <trkpt lat="47.55253" lon="6.79972">
        <ele>369</ele>
        <time>2016-07-17T08:04:48.000Z</time>
      </trkpt>
      <trkpt lat="47.55256" lon="6.79974">
        <ele>369</ele>
        <time>2016-07-17T08:04:49.000Z</time>
      </trkpt>
      <trkpt lat="47.55259" lon="6.79976">
        <ele>369</ele>
        <time>2016-07-17T08:04:50.000Z</time>
      </trkpt>
      <trkpt lat="47.55261" lon="6.79978">
        <ele>369</ele>
        <time>2016-07-17T08:04:51.000Z</time>
      </trkpt>
      <trkpt lat="47.55264" lon="6.79981">
        <ele>369</ele>
        <time>2016-07-17T08:04:52.000Z</time>
      </trkpt>
      <trkpt lat="47.55267" lon="6.79983">
        <ele>369</ele>
        <time>2016-07-17T08:04:53.000Z</time>
      </trkpt>
      <trkpt lat="47.5527" lon="6.79985">
        <ele>369</ele>
        <time>2016-07-17T08:04:54.000Z</time>
      </trkpt>
      <trkpt lat="47.55273" lon="6.79986">
        <ele>369</ele>
        <time>2016-07-17T08:04:55.000Z</time>
      </trkpt>
      <trkpt lat="47.55276" lon="6.79988">
        <ele>369</ele>
        <time>2016-07-17T08:04:56.000Z</time>
      </trkpt>
      <trkpt lat="47.5528" lon="6.7999">
        <ele>369</ele>
        <time>2016-07-17T08:04:57.000Z</time>
      </trkpt>
      <trkpt lat="47.55283" lon="6.79991">
        <ele>369</ele>
        <time>2016-07-17T08:04:58.000Z</time>
      </trkpt>
      <trkpt lat="47.55287" lon="6.79993">
        <ele>369</ele>
        <time>2016-07-17T08:04:59.000Z</time>
      </trkpt>
      <trkpt lat="47.55291" lon="6.79995">
        <ele>370</ele>
        <time>2016-07-17T08:05:00.000Z</time>
      </trkpt>
      <trkpt lat="47.55294" lon="6.79997">
        <ele>370</ele>
        <time>2016-07-17T08:05:01.000Z</time>
      </trkpt>
      <trkpt lat="47.55298" lon="6.79999">
        <ele>370</ele>
        <time>2016-07-17T08:05:02.000Z</time>
      </trkpt>
      <trkpt lat="47.553" lon="6.8">
        <ele>369</ele>
        <time>2016-07-17T08:05:03.000Z</time>
      </trkpt>
      <trkpt lat="47.55302" lon="6.80001">
        <ele>369</ele>
        <time>2016-07-17T08:05:04.000Z</time>
      </trkpt>
      <trkpt lat="47.55305" lon="6.80002">
        <ele>369</ele>
        <time>2016-07-17T08:05:05.000Z</time>
      </trkpt>
      <trkpt lat="47.55307" lon="6.80003">
        <ele>369</ele>
        <time>2016-07-17T08:05:06.000Z</time>
      </trkpt>
      <trkpt lat="47.55311" lon="6.80004">
        <ele>369</ele>
        <time>2016-07-17T08:05:07.000Z</time>
      </trkpt>
      <trkpt lat="47.55314" lon="6.80005">
        <ele>370</ele>
        <time>2016-07-17T08:05:08.000Z</time>
      </trkpt>
      <trkpt lat="47.55316" lon="6.80007">
        <ele>370</ele>
        <time>2016-07-17T08:05:09.000Z</time>
      </trkpt>
      <trkpt lat="47.55319" lon="6.80009">
        <ele>370</ele>
        <time>2016-07-17T08:05:10.000Z</time>
      </trkpt>
      <trkpt lat="47.55321" lon="6.80011">
        <ele>370</ele>
        <time>2016-07-17T08:05:11.000Z</time>
      </trkpt>
      <trkpt lat="47.55324" lon="6.80012">
        <ele>370</ele>
        <time>2016-07-17T08:05:12.000Z</time>
      </trkpt>
      <trkpt lat="47.55327" lon="6.80013">
        <ele>370</ele>
        <time>2016-07-17T08:05:13.000Z</time>
      </trkpt>
      <trkpt lat="47.5533" lon="6.80014">
        <ele>370</ele>
        <time>2016-07-17T08:05:14.000Z</time>
      </trkpt>
      <trkpt lat="47.55334" lon="6.80015">
        <ele>373</ele>
        <time>2016-07-17T08:05:15.000Z</time>
      </trkpt>
      <trkpt lat="47.55336" lon="6.80016">
        <ele>373</ele>
        <time>2016-07-17T08:05:16.000Z</time>
      </trkpt>
      <trkpt lat="47.5534" lon="6.80018">
        <ele>373</ele>
        <time>2016-07-17T08:05:18.000Z</time>
      </trkpt>
      <trkpt lat="47.55341" lon="6.80019">
        <ele>373</ele>
        <time>2016-07-17T08:05:19.000Z</time>
      </trkpt>
      <trkpt lat="47.55344" lon="6.8002">
        <ele>373</ele>
        <time>2016-07-17T08:05:21.000Z</time>
      </trkpt>
      <trkpt lat="47.55346" lon="6.80021">
        <ele>373</ele>
        <time>2016-07-17T08:05:22.000Z</time>
      </trkpt>
      <trkpt lat="47.55348" lon="6.80023">
        <ele>374</ele>
        <time>2016-07-17T08:05:23.000Z</time>
      </trkpt>
      <trkpt lat="47.55351" lon="6.80025">
        <ele>374</ele>
        <time>2016-07-17T08:05:24.000Z</time>
      </trkpt>
      <trkpt lat="47.55353" lon="6.80027">
        <ele>374</ele>
        <time>2016-07-17T08:05:25.000Z</time>
      </trkpt>
      <trkpt lat="47.55356" lon="6.8003">
        <ele>374</ele>
        <time>2016-07-17T08:05:26.000Z</time>
      </trkpt>
      <trkpt lat="47.55359" lon="6.80032">
        <ele>374</ele>
        <time>2016-07-17T08:05:27.000Z</time>
      </trkpt>
      <trkpt lat="47.55361" lon="6.80033">
        <ele>374</ele>
        <time>2016-07-17T08:05:28.000Z</time>
      </trkpt>
      <trkpt lat="47.55364" lon="6.80037">
        <ele>375</ele>
        <time>2016-07-17T08:05:30.000Z</time>
      </trkpt>
      <trkpt lat="47.55366" lon="6.80038">
        <ele>375</ele>
        <time>2016-07-17T08:05:31.000Z</time>
      </trkpt>
      <trkpt lat="47.55368" lon="6.80041">
        <ele>375</ele>
        <time>2016-07-17T08:05:32.000Z</time>
      </trkpt>
      <trkpt lat="47.5537" lon="6.80044">
        <ele>375</ele>
        <time>2016-07-17T08:05:33.000Z</time>
      </trkpt>
      <trkpt lat="47.55373" lon="6.80047">
        <ele>375</ele>
        <time>2016-07-17T08:05:34.000Z</time>
      </trkpt>
      <trkpt lat="47.55376" lon="6.80051">
        <ele>375</ele>
        <time>2016-07-17T08:05:35.000Z</time>
      </trkpt>
      <trkpt lat="47.5538" lon="6.80054">
        <ele>375</ele>
        <time>2016-07-17T08:05:36.000Z</time>
      </trkpt>
      <trkpt lat="47.55383" lon="6.80058">
        <ele>375</ele>
        <time>2016-07-17T08:05:37.000Z</time>
      </trkpt>
      <trkpt lat="47.55387" lon="6.80062">
        <ele>375</ele>
        <time>2016-07-17T08:05:38.000Z</time>
      </trkpt>
      <trkpt lat="47.5539" lon="6.80065">
        <ele>375</ele>
        <time>2016-07-17T08:05:39.000Z</time>
      </trkpt>
      <trkpt lat="47.55392" lon="6.8007">
        <ele>376</ele>
        <time>2016-07-17T08:05:40.000Z</time>
      </trkpt>
      <trkpt lat="47.55394" lon="6.80075">
        <ele>376</ele>
        <time>2016-07-17T08:05:41.000Z</time>
      </trkpt>
      <trkpt lat="47.55396" lon="6.8008">
        <ele>376</ele>
        <time>2016-07-17T08:05:42.000Z</time>
      </trkpt>
      <trkpt lat="47.55397" lon="6.80085">
        <ele>375</ele>
        <time>2016-07-17T08:05:43.000Z</time>
      </trkpt>
      <trkpt lat="47.55399" lon="6.8009">
        <ele>375</ele>
        <time>2016-07-17T08:05:44.000Z</time>
      </trkpt>
      <trkpt lat="47.55401" lon="6.80094">
        <ele>375</ele>
        <time>2016-07-17T08:05:45.000Z</time>
      </trkpt>
      <trkpt lat="47.55403" lon="6.80097">
        <ele>375</ele>
        <time>2016-07-17T08:05:46.000Z</time>
      </trkpt>
      <trkpt lat="47.55405" lon="6.801">
        <ele>375</ele>
        <time>2016-07-17T08:05:47.000Z</time>
      </trkpt>
      <trkpt lat="47.55408" lon="6.80103">
        <ele>375</ele>
        <time>2016-07-17T08:05:48.000Z</time>
      </trkpt>
      <trkpt lat="47.5541" lon="6.80105">
        <ele>375</ele>
        <time>2016-07-17T08:05:49.000Z</time>
      </trkpt>
      <trkpt lat="47.55411" lon="6.80107">
        <ele>375</ele>
        <time>2016-07-17T08:05:50.000Z</time>
      </trkpt>
      <trkpt lat="47.55413" lon="6.80109">
        <ele>375</ele>
        <time>2016-07-17T08:05:51.000Z</time>
      </trkpt>
      <trkpt lat="47.55416" lon="6.80111">
        <ele>375</ele>
        <time>2016-07-17T08:05:52.000Z</time>
      </trkpt>
      <trkpt lat="47.55428" lon="6.80115">
        <ele>376</ele>
        <time>2016-07-17T08:05:53.000Z</time>
      </trkpt>
      <trkpt lat="47.55434" lon="6.80119">
        <ele>376</ele>
        <time>2016-07-17T08:05:54.000Z</time>
      </trkpt>
      <trkpt lat="47.55438" lon="6.80121">
        <ele>376</ele>
        <time>2016-07-17T08:05:55.000Z</time>
      </trkpt>
      <trkpt lat="47.55443" lon="6.80122">
        <ele>376</ele>
        <time>2016-07-17T08:05:56.000Z</time>
      </trkpt>
      <trkpt lat="47.55447" lon="6.80121">
        <ele>376</ele>
        <time>2016-07-17T08:05:57.000Z</time>
      </trkpt>
      <trkpt lat="47.55453" lon="6.80123">
        <ele>376</ele>
        <time>2016-07-17T08:05:58.000Z</time>
      </trkpt>
      <trkpt lat="47.55459" lon="6.80123">
        <ele>376</ele>
        <time>2016-07-17T08:05:59.000Z</time>
      </trkpt>
      <trkpt lat="47.55465" lon="6.80124">
        <ele>376</ele>
        <time>2016-07-17T08:06:00.000Z</time>
      </trkpt>
      <trkpt lat="47.55471" lon="6.80125">
        <ele>376</ele>
        <time>2016-07-17T08:06:01.000Z</time>
      </trkpt>
      <trkpt lat="47.55477" lon="6.80126">
        <ele>376</ele>
        <time>2016-07-17T08:06:02.000Z</time>
      </trkpt>
      <trkpt lat="47.55483" lon="6.80127">
        <ele>376</ele>
        <time>2016-07-17T08:06:03.000Z</time>
      </trkpt>
      <trkpt lat="47.5549" lon="6.80129">
        <ele>376</ele>
        <time>2016-07-17T08:06:04.000Z</time>
      </trkpt>
      <trkpt lat="47.55495" lon="6.80132">
        <ele>375</ele>
        <time>2016-07-17T08:06:05.000Z</time>
      </trkpt>
      <trkpt lat="47.55497" lon="6.8014">
        <ele>375</ele>
        <time>2016-07-17T08:06:06.000Z</time>
      </trkpt>
      <trkpt lat="47.55501" lon="6.80145">
        <ele>375</ele>
        <time>2016-07-17T08:06:07.000Z</time>
      </trkpt>
      <trkpt lat="47.55504" lon="6.8015">
        <ele>375</ele>
        <time>2016-07-17T08:06:08.000Z</time>
      </trkpt>
      <trkpt lat="47.55508" lon="6.80151">
        <ele>375</ele>
        <time>2016-07-17T08:06:09.000Z</time>
      </trkpt>
      <trkpt lat="47.55512" lon="6.80155">
        <ele>375</ele>
        <time>2016-07-17T08:06:10.000Z</time>
      </trkpt>
      <trkpt lat="47.55514" lon="6.80148">
        <ele>375</ele>
        <time>2016-07-17T08:06:11.000Z</time>
      </trkpt>
      <trkpt lat="47.55518" lon="6.80151">
        <ele>375</ele>
        <time>2016-07-17T08:06:12.000Z</time>
      </trkpt>
      <trkpt lat="47.5552" lon="6.80152">
        <ele>375</ele>
        <time>2016-07-17T08:06:13.000Z</time>
      </trkpt>
      <trkpt lat="47.55524" lon="6.80155">
        <ele>376</ele>
        <time>2016-07-17T08:06:14.000Z</time>
      </trkpt>
      <trkpt lat="47.55528" lon="6.8016">
        <ele>376</ele>
        <time>2016-07-17T08:06:15.000Z</time>
      </trkpt>
      <trkpt lat="47.55533" lon="6.80161">
        <ele>376</ele>
        <time>2016-07-17T08:06:16.000Z</time>
      </trkpt>
      <trkpt lat="47.55537" lon="6.80161">
        <ele>376</ele>
        <time>2016-07-17T08:06:17.000Z</time>
      </trkpt>
      <trkpt lat="47.55545" lon="6.80162">
        <ele>376</ele>
        <time>2016-07-17T08:06:18.000Z</time>
      </trkpt>
      <trkpt lat="47.5555" lon="6.8016">
        <ele>376</ele>
        <time>2016-07-17T08:06:19.000Z</time>
      </trkpt>
      <trkpt lat="47.55554" lon="6.8016">
        <ele>376</ele>
        <time>2016-07-17T08:06:20.000Z</time>
      </trkpt>
      <trkpt lat="47.55557" lon="6.80159">
        <ele>377</ele>
        <time>2016-07-17T08:06:21.000Z</time>
      </trkpt>
      <trkpt lat="47.55561" lon="6.80158">
        <ele>377</ele>
        <time>2016-07-17T08:06:22.000Z</time>
      </trkpt>
      <trkpt lat="47.55564" lon="6.80158">
        <ele>377</ele>
        <time>2016-07-17T08:06:23.000Z</time>
      </trkpt>
      <trkpt lat="47.55568" lon="6.80158">
        <ele>377</ele>
        <time>2016-07-17T08:06:24.000Z</time>
      </trkpt>
      <trkpt lat="47.55572" lon="6.80158">
        <ele>377</ele>
        <time>2016-07-17T08:06:25.000Z</time>
      </trkpt>
      <trkpt lat="47.55575" lon="6.80158">
        <ele>377</ele>
        <time>2016-07-17T08:06:26.000Z</time>
      </trkpt>
      <trkpt lat="47.55579" lon="6.80158">
        <ele>377</ele>
        <time>2016-07-17T08:06:27.000Z</time>
      </trkpt>
      <trkpt lat="47.55582" lon="6.80158">
        <ele>377</ele>
        <time>2016-07-17T08:06:28.000Z</time>
      </trkpt>
      <trkpt lat="47.55585" lon="6.80159">
        <ele>378</ele>
        <time>2016-07-17T08:06:29.000Z</time>
      </trkpt>
      <trkpt lat="47.55587" lon="6.80159">
        <ele>378</ele>
        <time>2016-07-17T08:06:30.000Z</time>
      </trkpt>
      <trkpt lat="47.5559" lon="6.8016">
        <ele>378</ele>
        <time>2016-07-17T08:06:31.000Z</time>
      </trkpt>
      <trkpt lat="47.55594" lon="6.8016">
        <ele>379</ele>
        <time>2016-07-17T08:06:34.000Z</time>
      </trkpt>
      <trkpt lat="47.55595" lon="6.8016">
        <ele>379</ele>
        <time>2016-07-17T08:06:35.000Z</time>
      </trkpt>
      <trkpt lat="47.55599" lon="6.8016">
        <ele>379</ele>
        <time>2016-07-17T08:06:37.000Z</time>
      </trkpt>
      <trkpt lat="47.55601" lon="6.80161">
        <ele>379</ele>
        <time>2016-07-17T08:06:38.000Z</time>
      </trkpt>
      <trkpt lat="47.55604" lon="6.80163">
        <ele>380</ele>
        <time>2016-07-17T08:06:41.000Z</time>
      </trkpt>
      <trkpt lat="47.55605" lon="6.80163">
        <ele>380</ele>
        <time>2016-07-17T08:06:42.000Z</time>
      </trkpt>
      <trkpt lat="47.55609" lon="6.80165">
        <ele>380</ele>
        <time>2016-07-17T08:06:44.000Z</time>
      </trkpt>
      <trkpt lat="47.55611" lon="6.80166">
        <ele>380</ele>
        <time>2016-07-17T08:06:45.000Z</time>
      </trkpt>
      <trkpt lat="47.55614" lon="6.80167">
        <ele>380</ele>
        <time>2016-07-17T08:06:47.000Z</time>
      </trkpt>
      <trkpt lat="47.55615" lon="6.80167">
        <ele>380</ele>
        <time>2016-07-17T08:06:48.000Z</time>
      </trkpt>
      <trkpt lat="47.55619" lon="6.80168">
        <ele>381</ele>
        <time>2016-07-17T08:06:51.000Z</time>
      </trkpt>
      <trkpt lat="47.5562" lon="6.80168">
        <ele>381</ele>
        <time>2016-07-17T08:06:52.000Z</time>
      </trkpt>
      <trkpt lat="47.55624" lon="6.80169">
        <ele>381</ele>
        <time>2016-07-17T08:06:55.000Z</time>
      </trkpt>
      <trkpt lat="47.55626" lon="6.80169">
        <ele>381</ele>
        <time>2016-07-17T08:06:56.000Z</time>
      </trkpt>
      <trkpt lat="47.55628" lon="6.8017">
        <ele>381</ele>
        <time>2016-07-17T08:06:57.000Z</time>
      </trkpt>
      <trkpt lat="47.5563" lon="6.80171">
        <ele>381</ele>
        <time>2016-07-17T08:06:58.000Z</time>
      </trkpt>
      <trkpt lat="47.55634" lon="6.80173">
        <ele>382</ele>
        <time>2016-07-17T08:07:00.000Z</time>
      </trkpt>
      <trkpt lat="47.55636" lon="6.80174">
        <ele>382</ele>
        <time>2016-07-17T08:07:01.000Z</time>
      </trkpt>
      <trkpt lat="47.55638" lon="6.80175">
        <ele>382</ele>
        <time>2016-07-17T08:07:03.000Z</time>
      </trkpt>
      <trkpt lat="47.5564" lon="6.80177">
        <ele>382</ele>
        <time>2016-07-17T08:07:04.000Z</time>
      </trkpt>
      <trkpt lat="47.55643" lon="6.8018">
        <ele>382</ele>
        <time>2016-07-17T08:07:06.000Z</time>
      </trkpt>
      <trkpt lat="47.55646" lon="6.80181">
        <ele>382</ele>
        <time>2016-07-17T08:07:07.000Z</time>
      </trkpt>
      <trkpt lat="47.55649" lon="6.80183">
        <ele>382</ele>
        <time>2016-07-17T08:07:09.000Z</time>
      </trkpt>
      <trkpt lat="47.55651" lon="6.80183">
        <ele>383</ele>
        <time>2016-07-17T08:07:10.000Z</time>
      </trkpt>
      <trkpt lat="47.55654" lon="6.80184">
        <ele>383</ele>
        <time>2016-07-17T08:07:13.000Z</time>
      </trkpt>
      <trkpt lat="47.55656" lon="6.80185">
        <ele>383</ele>
        <time>2016-07-17T08:07:14.000Z</time>
      </trkpt>
      <trkpt lat="47.5566" lon="6.80186">
        <ele>383</ele>
        <time>2016-07-17T08:07:18.000Z</time>
      </trkpt>
      <trkpt lat="47.55661" lon="6.80187">
        <ele>383</ele>
        <time>2016-07-17T08:07:19.000Z</time>
      </trkpt>
      <trkpt lat="47.55665" lon="6.80188">
        <ele>383</ele>
        <time>2016-07-17T08:07:22.000Z</time>
      </trkpt>
      <trkpt lat="47.55666" lon="6.80189">
        <ele>383</ele>
        <time>2016-07-17T08:07:23.000Z</time>
      </trkpt>
      <trkpt lat="47.5567" lon="6.80191">
        <ele>386</ele>
        <time>2016-07-17T08:07:26.000Z</time>
      </trkpt>
      <trkpt lat="47.55672" lon="6.80192">
        <ele>386</ele>
        <time>2016-07-17T08:07:27.000Z</time>
      </trkpt>
      <trkpt lat="47.55675" lon="6.80193">
        <ele>387</ele>
        <time>2016-07-17T08:07:29.000Z</time>
      </trkpt>
      <trkpt lat="47.55677" lon="6.80194">
        <ele>387</ele>
        <time>2016-07-17T08:07:30.000Z</time>
      </trkpt>
      <trkpt lat="47.55681" lon="6.80196">
        <ele>387</ele>
        <time>2016-07-17T08:07:32.000Z</time>
      </trkpt>
      <trkpt lat="47.55683" lon="6.80197">
        <ele>387</ele>
        <time>2016-07-17T08:07:33.000Z</time>
      </trkpt>
      <trkpt lat="47.55685" lon="6.80198">
        <ele>387</ele>
        <time>2016-07-17T08:07:34.000Z</time>
      </trkpt>
      <trkpt lat="47.55688" lon="6.80198">
        <ele>387</ele>
        <time>2016-07-17T08:07:35.000Z</time>
      </trkpt>
      <trkpt lat="47.55691" lon="6.80199">
        <ele>387</ele>
        <time>2016-07-17T08:07:36.000Z</time>
      </trkpt>
      <trkpt lat="47.55694" lon="6.802">
        <ele>387</ele>
        <time>2016-07-17T08:07:37.000Z</time>
      </trkpt>
      <trkpt lat="47.55697" lon="6.80201">
        <ele>387</ele>
        <time>2016-07-17T08:07:38.000Z</time>
      </trkpt>
      <trkpt lat="47.557" lon="6.80202">
        <ele>388</ele>
        <time>2016-07-17T08:07:39.000Z</time>
      </trkpt>
      <trkpt lat="47.55702" lon="6.80203">
        <ele>388</ele>
        <time>2016-07-17T08:07:40.000Z</time>
      </trkpt>
      <trkpt lat="47.55705" lon="6.80203">
        <ele>388</ele>
        <time>2016-07-17T08:07:41.000Z</time>
      </trkpt>
      <trkpt lat="47.55707" lon="6.80203">
        <ele>388</ele>
        <time>2016-07-17T08:07:42.000Z</time>
      </trkpt>
      <trkpt lat="47.5571" lon="6.80204">
        <ele>388</ele>
        <time>2016-07-17T08:07:43.000Z</time>
      </trkpt>
      <trkpt lat="47.55712" lon="6.80204">
        <ele>388</ele>
        <time>2016-07-17T08:07:44.000Z</time>
      </trkpt>
      <trkpt lat="47.55715" lon="6.80204">
        <ele>388</ele>
        <time>2016-07-17T08:07:45.000Z</time>
      </trkpt>
      <trkpt lat="47.55717" lon="6.80204">
        <ele>388</ele>
        <time>2016-07-17T08:07:46.000Z</time>
      </trkpt>
      <trkpt lat="47.5572" lon="6.80204">
        <ele>388</ele>
        <time>2016-07-17T08:07:47.000Z</time>
      </trkpt>
      <trkpt lat="47.55723" lon="6.80203">
        <ele>388</ele>
        <time>2016-07-17T08:07:48.000Z</time>
      </trkpt>
      <trkpt lat="47.55726" lon="6.80203">
        <ele>388</ele>
        <time>2016-07-17T08:07:49.000Z</time>
      </trkpt>
      <trkpt lat="47.55729" lon="6.80203">
        <ele>389</ele>
        <time>2016-07-17T08:07:50.000Z</time>
      </trkpt>
      <trkpt lat="47.55732" lon="6.80203">
        <ele>389</ele>
        <time>2016-07-17T08:07:51.000Z</time>
      </trkpt>
      <trkpt lat="47.55734" lon="6.80203">
        <ele>389</ele>
        <time>2016-07-17T08:07:52.000Z</time>
      </trkpt>
      <trkpt lat="47.55737" lon="6.80202">
        <ele>389</ele>
        <time>2016-07-17T08:07:53.000Z</time>
      </trkpt>
      <trkpt lat="47.55739" lon="6.80201">
        <ele>389</ele>
        <time>2016-07-17T08:07:54.000Z</time>
      </trkpt>
      <trkpt lat="47.55741" lon="6.802">
        <ele>389</ele>
        <time>2016-07-17T08:07:55.000Z</time>
      </trkpt>
      <trkpt lat="47.55744" lon="6.802">
        <ele>389</ele>
        <time>2016-07-17T08:07:56.000Z</time>
      </trkpt>
      <trkpt lat="47.55746" lon="6.802">
        <ele>389</ele>
        <time>2016-07-17T08:07:57.000Z</time>
      </trkpt>
      <trkpt lat="47.55749" lon="6.80199">
        <ele>389</ele>
        <time>2016-07-17T08:07:58.000Z</time>
      </trkpt>
      <trkpt lat="47.55752" lon="6.802">
        <ele>391</ele>
        <time>2016-07-17T08:07:59.000Z</time>
      </trkpt>
      <trkpt lat="47.55754" lon="6.802">
        <ele>391</ele>
        <time>2016-07-17T08:08:00.000Z</time>
      </trkpt>
      <trkpt lat="47.55757" lon="6.80201">
        <ele>391</ele>
        <time>2016-07-17T08:08:01.000Z</time>
      </trkpt>
      <trkpt lat="47.55759" lon="6.80199">
        <ele>391</ele>
        <time>2016-07-17T08:08:02.000Z</time>
      </trkpt>
      <trkpt lat="47.55761" lon="6.80198">
        <ele>391</ele>
        <time>2016-07-17T08:08:03.000Z</time>
      </trkpt>
      <trkpt lat="47.55763" lon="6.80196">
        <ele>391</ele>
        <time>2016-07-17T08:08:04.000Z</time>
      </trkpt>
      <trkpt lat="47.55765" lon="6.80194">
        <ele>391</ele>
        <time>2016-07-17T08:08:05.000Z</time>
      </trkpt>
      <trkpt lat="47.55767" lon="6.80193">
        <ele>391</ele>
        <time>2016-07-17T08:08:06.000Z</time>
      </trkpt>
      <trkpt lat="47.55769" lon="6.80193">
        <ele>391</ele>
        <time>2016-07-17T08:08:07.000Z</time>
      </trkpt>
      <trkpt lat="47.55772" lon="6.80193">
        <ele>391</ele>
        <time>2016-07-17T08:08:08.000Z</time>
      </trkpt>
      <trkpt lat="47.55775" lon="6.80193">
        <ele>391</ele>
        <time>2016-07-17T08:08:09.000Z</time>
      </trkpt>
      <trkpt lat="47.55777" lon="6.80193">
        <ele>391</ele>
        <time>2016-07-17T08:08:10.000Z</time>
      </trkpt>
      <trkpt lat="47.5578" lon="6.80194">
        <ele>391</ele>
        <time>2016-07-17T08:08:11.000Z</time>
      </trkpt>
      <trkpt lat="47.55783" lon="6.80195">
        <ele>391</ele>
        <time>2016-07-17T08:08:12.000Z</time>
      </trkpt>
      <trkpt lat="47.55786" lon="6.80196">
        <ele>391</ele>
        <time>2016-07-17T08:08:13.000Z</time>
      </trkpt>
      <trkpt lat="47.5579" lon="6.80198">
        <ele>391</ele>
        <time>2016-07-17T08:08:14.000Z</time>
      </trkpt>
      <trkpt lat="47.55794" lon="6.802">
        <ele>391</ele>
        <time>2016-07-17T08:08:15.000Z</time>
      </trkpt>
      <trkpt lat="47.55798" lon="6.80203">
        <ele>391</ele>
        <time>2016-07-17T08:08:16.000Z</time>
      </trkpt>
      <trkpt lat="47.55801" lon="6.80205">
        <ele>391</ele>
        <time>2016-07-17T08:08:17.000Z</time>
      </trkpt>
      <trkpt lat="47.55805" lon="6.80208">
        <ele>392</ele>
        <time>2016-07-17T08:08:18.000Z</time>
      </trkpt>
      <trkpt lat="47.55808" lon="6.8021">
        <ele>392</ele>
        <time>2016-07-17T08:08:19.000Z</time>
      </trkpt>
      <trkpt lat="47.55812" lon="6.80212">
        <ele>392</ele>
        <time>2016-07-17T08:08:20.000Z</time>
      </trkpt>
      <trkpt lat="47.55816" lon="6.80214">
        <ele>392</ele>
        <time>2016-07-17T08:08:21.000Z</time>
      </trkpt>
      <trkpt lat="47.5582" lon="6.80215">
        <ele>392</ele>
        <time>2016-07-17T08:08:22.000Z</time>
      </trkpt>
      <trkpt lat="47.55826" lon="6.80217">
        <ele>392</ele>
        <time>2016-07-17T08:08:23.000Z</time>
      </trkpt>
      <trkpt lat="47.55831" lon="6.80218">
        <ele>392</ele>
        <time>2016-07-17T08:08:24.000Z</time>
      </trkpt>
      <trkpt lat="47.55836" lon="6.80219">
        <ele>392</ele>
        <time>2016-07-17T08:08:25.000Z</time>
      </trkpt>
      <trkpt lat="47.55842" lon="6.80221">
        <ele>392</ele>
        <time>2016-07-17T08:08:26.000Z</time>
      </trkpt>
      <trkpt lat="47.55849" lon="6.80223">
        <ele>392</ele>
        <time>2016-07-17T08:08:27.000Z</time>
      </trkpt>
      <trkpt lat="47.55866" lon="6.8023">
        <ele>392</ele>
        <time>2016-07-17T08:08:28.000Z</time>
      </trkpt>
      <trkpt lat="47.55869" lon="6.80233">
        <ele>392</ele>
        <time>2016-07-17T08:08:29.000Z</time>
      </trkpt>
      <trkpt lat="47.55875" lon="6.8024">
        <ele>392</ele>
        <time>2016-07-17T08:08:30.000Z</time>
      </trkpt>
      <trkpt lat="47.55882" lon="6.80236">
        <ele>392</ele>
        <time>2016-07-17T08:08:31.000Z</time>
      </trkpt>
      <trkpt lat="47.55888" lon="6.80233">
        <ele>392</ele>
        <time>2016-07-17T08:08:32.000Z</time>
      </trkpt>
      <trkpt lat="47.55894" lon="6.80228">
        <ele>392</ele>
        <time>2016-07-17T08:08:33.000Z</time>
      </trkpt>
      <trkpt lat="47.559" lon="6.8022">
        <ele>392</ele>
        <time>2016-07-17T08:08:34.000Z</time>
      </trkpt>
      <trkpt lat="47.55907" lon="6.8021">
        <ele>391</ele>
        <time>2016-07-17T08:08:35.000Z</time>
      </trkpt>
      <trkpt lat="47.55912" lon="6.80205">
        <ele>391</ele>
        <time>2016-07-17T08:08:36.000Z</time>
      </trkpt>
      <trkpt lat="47.55916" lon="6.802">
        <ele>391</ele>
        <time>2016-07-17T08:08:37.000Z</time>
      </trkpt>
      <trkpt lat="47.5592" lon="6.80192">
        <ele>389</ele>
        <time>2016-07-17T08:08:38.000Z</time>
      </trkpt>
      <trkpt lat="47.55925" lon="6.80185">
        <ele>388</ele>
        <time>2016-07-17T08:08:39.000Z</time>
      </trkpt>
      <trkpt lat="47.5593" lon="6.80182">
        <ele>388</ele>
        <time>2016-07-17T08:08:40.000Z</time>
      </trkpt>
      <trkpt lat="47.55936" lon="6.80179">
        <ele>388</ele>
        <time>2016-07-17T08:08:41.000Z</time>
      </trkpt>
      <trkpt lat="47.55941" lon="6.80175">
        <ele>388</ele>
        <time>2016-07-17T08:08:42.000Z</time>
      </trkpt>
      <trkpt lat="47.55948" lon="6.80177">
        <ele>388</ele>
        <time>2016-07-17T08:08:43.000Z</time>
      </trkpt>
      <trkpt lat="47.55958" lon="6.80178">
        <ele>387</ele>
        <time>2016-07-17T08:08:44.000Z</time>
      </trkpt>
      <trkpt lat="47.55965" lon="6.80178">
        <ele>387</ele>
        <time>2016-07-17T08:08:45.000Z</time>
      </trkpt>
      <trkpt lat="47.55972" lon="6.80176">
        <ele>386</ele>
        <time>2016-07-17T08:08:46.000Z</time>
      </trkpt>
      <trkpt lat="47.5598" lon="6.80172">
        <ele>385</ele>
        <time>2016-07-17T08:08:47.000Z</time>
      </trkpt>
      <trkpt lat="47.55986" lon="6.80173">
        <ele>385</ele>
        <time>2016-07-17T08:08:48.000Z</time>
      </trkpt>
      <trkpt lat="47.5599" lon="6.80174">
        <ele>384</ele>
        <time>2016-07-17T08:08:49.000Z</time>
      </trkpt>
      <trkpt lat="47.55994" lon="6.80178">
        <ele>384</ele>
        <time>2016-07-17T08:08:50.000Z</time>
      </trkpt>
      <trkpt lat="47.55996" lon="6.80179">
        <ele>384</ele>
        <time>2016-07-17T08:08:51.000Z</time>
      </trkpt>
      <trkpt lat="47.55999" lon="6.8018">
        <ele>384</ele>
        <time>2016-07-17T08:08:52.000Z</time>
      </trkpt>
      <trkpt lat="47.56002" lon="6.80183">
        <ele>383</ele>
        <time>2016-07-17T08:08:54.000Z</time>
      </trkpt>
      <trkpt lat="47.56003" lon="6.80186">
        <ele>383</ele>
        <time>2016-07-17T08:08:55.000Z</time>
      </trkpt>
      <trkpt lat="47.56005" lon="6.80192">
        <ele>383</ele>
        <time>2016-07-17T08:08:57.000Z</time>
      </trkpt>
      <trkpt lat="47.56006" lon="6.80195">
        <ele>383</ele>
        <time>2016-07-17T08:08:58.000Z</time>
      </trkpt>
      <trkpt lat="47.56008" lon="6.80198">
        <ele>383</ele>
        <time>2016-07-17T08:08:59.000Z</time>
      </trkpt>
      <trkpt lat="47.5601" lon="6.80202">
        <ele>383</ele>
        <time>2016-07-17T08:09:00.000Z</time>
      </trkpt>
      <trkpt lat="47.56012" lon="6.80206">
        <ele>383</ele>
        <time>2016-07-17T08:09:01.000Z</time>
      </trkpt>
      <trkpt lat="47.56015" lon="6.80209">
        <ele>383</ele>
        <time>2016-07-17T08:09:02.000Z</time>
      </trkpt>
      <trkpt lat="47.56018" lon="6.80213">
        <ele>384</ele>
        <time>2016-07-17T08:09:03.000Z</time>
      </trkpt>
      <trkpt lat="47.56022" lon="6.80215">
        <ele>384</ele>
        <time>2016-07-17T08:09:04.000Z</time>
      </trkpt>
      <trkpt lat="47.56027" lon="6.80217">
        <ele>384</ele>
        <time>2016-07-17T08:09:05.000Z</time>
      </trkpt>
      <trkpt lat="47.56032" lon="6.80218">
        <ele>383</ele>
        <time>2016-07-17T08:09:06.000Z</time>
      </trkpt>
      <trkpt lat="47.56037" lon="6.80217">
        <ele>383</ele>
        <time>2016-07-17T08:09:07.000Z</time>
      </trkpt>
      <trkpt lat="47.56042" lon="6.80217">
        <ele>383</ele>
        <time>2016-07-17T08:09:08.000Z</time>
      </trkpt>
      <trkpt lat="47.56047" lon="6.80216">
        <ele>383</ele>
        <time>2016-07-17T08:09:09.000Z</time>
      </trkpt>
      <trkpt lat="47.5605" lon="6.80215">
        <ele>383</ele>
        <time>2016-07-17T08:09:10.000Z</time>
      </trkpt>
      <trkpt lat="47.56054" lon="6.80215">
        <ele>383</ele>
        <time>2016-07-17T08:09:11.000Z</time>
      </trkpt>
      <trkpt lat="47.56059" lon="6.80213">
        <ele>383</ele>
        <time>2016-07-17T08:09:12.000Z</time>
      </trkpt>
      <trkpt lat="47.5607" lon="6.80211">
        <ele>383</ele>
        <time>2016-07-17T08:09:13.000Z</time>
      </trkpt>
      <trkpt lat="47.56075" lon="6.80208">
        <ele>382</ele>
        <time>2016-07-17T08:09:14.000Z</time>
      </trkpt>
      <trkpt lat="47.56079" lon="6.80205">
        <ele>382</ele>
        <time>2016-07-17T08:09:15.000Z</time>
      </trkpt>
      <trkpt lat="47.56084" lon="6.80202">
        <ele>381</ele>
        <time>2016-07-17T08:09:16.000Z</time>
      </trkpt>
      <trkpt lat="47.56089" lon="6.80196">
        <ele>381</ele>
        <time>2016-07-17T08:09:17.000Z</time>
      </trkpt>
      <trkpt lat="47.56093" lon="6.80191">
        <ele>381</ele>
        <time>2016-07-17T08:09:18.000Z</time>
      </trkpt>
      <trkpt lat="47.56096" lon="6.80185">
        <ele>380</ele>
        <time>2016-07-17T08:09:19.000Z</time>
      </trkpt>
      <trkpt lat="47.56101" lon="6.80179">
        <ele>380</ele>
        <time>2016-07-17T08:09:20.000Z</time>
      </trkpt>
      <trkpt lat="47.56105" lon="6.80172">
        <ele>380</ele>
        <time>2016-07-17T08:09:21.000Z</time>
      </trkpt>
      <trkpt lat="47.5611" lon="6.80166">
        <ele>380</ele>
        <time>2016-07-17T08:09:22.000Z</time>
      </trkpt>
      <trkpt lat="47.56116" lon="6.80161">
        <ele>379</ele>
        <time>2016-07-17T08:09:23.000Z</time>
      </trkpt>
      <trkpt lat="47.56122" lon="6.80157">
        <ele>379</ele>
        <time>2016-07-17T08:09:24.000Z</time>
      </trkpt>
      <trkpt lat="47.56129" lon="6.80154">
        <ele>379</ele>
        <time>2016-07-17T08:09:25.000Z</time>
      </trkpt>
      <trkpt lat="47.56136" lon="6.80151">
        <ele>379</ele>
        <time>2016-07-17T08:09:26.000Z</time>
      </trkpt>
      <trkpt lat="47.56142" lon="6.8015">
        <ele>379</ele>
        <time>2016-07-17T08:09:27.000Z</time>
      </trkpt>
      <trkpt lat="47.56149" lon="6.80149">
        <ele>379</ele>
        <time>2016-07-17T08:09:28.000Z</time>
      </trkpt>
      <trkpt lat="47.56157" lon="6.80147">
        <ele>379</ele>
        <time>2016-07-17T08:09:29.000Z</time>
      </trkpt>
      <trkpt lat="47.56164" lon="6.80146">
        <ele>379</ele>
        <time>2016-07-17T08:09:30.000Z</time>
      </trkpt>
      <trkpt lat="47.56169" lon="6.80147">
        <ele>379</ele>
        <time>2016-07-17T08:09:31.000Z</time>
      </trkpt>
      <trkpt lat="47.56175" lon="6.80147">
        <ele>379</ele>
        <time>2016-07-17T08:09:32.000Z</time>
      </trkpt>
      <trkpt lat="47.5618" lon="6.80151">
        <ele>379</ele>
        <time>2016-07-17T08:09:33.000Z</time>
      </trkpt>
      <trkpt lat="47.56183" lon="6.80153">
        <ele>379</ele>
        <time>2016-07-17T08:09:34.000Z</time>
      </trkpt>
      <trkpt lat="47.56186" lon="6.80157">
        <ele>379</ele>
        <time>2016-07-17T08:09:35.000Z</time>
      </trkpt>
      <trkpt lat="47.5619" lon="6.80161">
        <ele>379</ele>
        <time>2016-07-17T08:09:36.000Z</time>
      </trkpt>
      <trkpt lat="47.56194" lon="6.80166">
        <ele>379</ele>
        <time>2016-07-17T08:09:37.000Z</time>
      </trkpt>
      <trkpt lat="47.56199" lon="6.80168">
        <ele>380</ele>
        <time>2016-07-17T08:09:38.000Z</time>
      </trkpt>
      <trkpt lat="47.56205" lon="6.8017">
        <ele>380</ele>
        <time>2016-07-17T08:09:39.000Z</time>
      </trkpt>
      <trkpt lat="47.56211" lon="6.8017">
        <ele>380</ele>
        <time>2016-07-17T08:09:40.000Z</time>
      </trkpt>
      <trkpt lat="47.5622" lon="6.80167">
        <ele>380</ele>
        <time>2016-07-17T08:09:41.000Z</time>
      </trkpt>
      <trkpt lat="47.56226" lon="6.80165">
        <ele>379</ele>
        <time>2016-07-17T08:09:42.000Z</time>
      </trkpt>
      <trkpt lat="47.56233" lon="6.80163">
        <ele>380</ele>
        <time>2016-07-17T08:09:43.000Z</time>
      </trkpt>
      <trkpt lat="47.56238" lon="6.8016">
        <ele>380</ele>
        <time>2016-07-17T08:09:44.000Z</time>
      </trkpt>
      <trkpt lat="47.56244" lon="6.80156">
        <ele>380</ele>
        <time>2016-07-17T08:09:45.000Z</time>
      </trkpt>
      <trkpt lat="47.56247" lon="6.80154">
        <ele>380</ele>
        <time>2016-07-17T08:09:46.000Z</time>
      </trkpt>
      <trkpt lat="47.56252" lon="6.80154">
        <ele>380</ele>
        <time>2016-07-17T08:09:47.000Z</time>
      </trkpt>
      <trkpt lat="47.56256" lon="6.80153">
        <ele>380</ele>
        <time>2016-07-17T08:09:48.000Z</time>
      </trkpt>
      <trkpt lat="47.56259" lon="6.80152">
        <ele>380</ele>
        <time>2016-07-17T08:09:49.000Z</time>
      </trkpt>
      <trkpt lat="47.56264" lon="6.80151">
        <ele>380</ele>
        <time>2016-07-17T08:09:50.000Z</time>
      </trkpt>
      <trkpt lat="47.56268" lon="6.8015">
        <ele>379</ele>
        <time>2016-07-17T08:09:51.000Z</time>
      </trkpt>
      <trkpt lat="47.56272" lon="6.8015">
        <ele>379</ele>
        <time>2016-07-17T08:09:52.000Z</time>
      </trkpt>
      <trkpt lat="47.56276" lon="6.80149">
        <ele>379</ele>
        <time>2016-07-17T08:09:53.000Z</time>
      </trkpt>
      <trkpt lat="47.5628" lon="6.80149">
        <ele>379</ele>
        <time>2016-07-17T08:09:54.000Z</time>
      </trkpt>
      <trkpt lat="47.56283" lon="6.80148">
        <ele>379</ele>
        <time>2016-07-17T08:09:55.000Z</time>
      </trkpt>
      <trkpt lat="47.56286" lon="6.80147">
        <ele>379</ele>
        <time>2016-07-17T08:09:56.000Z</time>
      </trkpt>
      <trkpt lat="47.5629" lon="6.80146">
        <ele>379</ele>
        <time>2016-07-17T08:09:57.000Z</time>
      </trkpt>
      <trkpt lat="47.56292" lon="6.80144">
        <ele>379</ele>
        <time>2016-07-17T08:09:58.000Z</time>
      </trkpt>
      <trkpt lat="47.56295" lon="6.80142">
        <ele>379</ele>
        <time>2016-07-17T08:09:59.000Z</time>
      </trkpt>
      <trkpt lat="47.56298" lon="6.80138">
        <ele>379</ele>
        <time>2016-07-17T08:10:00.000Z</time>
      </trkpt>
      <trkpt lat="47.56302" lon="6.80135">
        <ele>379</ele>
        <time>2016-07-17T08:10:01.000Z</time>
      </trkpt>
      <trkpt lat="47.56306" lon="6.80132">
        <ele>379</ele>
        <time>2016-07-17T08:10:02.000Z</time>
      </trkpt>
      <trkpt lat="47.5631" lon="6.8013">
        <ele>379</ele>
        <time>2016-07-17T08:10:03.000Z</time>
      </trkpt>
      <trkpt lat="47.56313" lon="6.8013">
        <ele>379</ele>
        <time>2016-07-17T08:10:04.000Z</time>
      </trkpt>
      <trkpt lat="47.56316" lon="6.8013">
        <ele>379</ele>
        <time>2016-07-17T08:10:05.000Z</time>
      </trkpt>
      <trkpt lat="47.56319" lon="6.8013">
        <ele>379</ele>
        <time>2016-07-17T08:10:06.000Z</time>
      </trkpt>
      <trkpt lat="47.56321" lon="6.80131">
        <ele>379</ele>
        <time>2016-07-17T08:10:07.000Z</time>
      </trkpt>
      <trkpt lat="47.56324" lon="6.80132">
        <ele>379</ele>
        <time>2016-07-17T08:10:08.000Z</time>
      </trkpt>
      <trkpt lat="47.56328" lon="6.80133">
        <ele>379</ele>
        <time>2016-07-17T08:10:10.000Z</time>
      </trkpt>
      <trkpt lat="47.5633" lon="6.80133">
        <ele>379</ele>
        <time>2016-07-17T08:10:11.000Z</time>
      </trkpt>
      <trkpt lat="47.56334" lon="6.80134">
        <ele>378</ele>
        <time>2016-07-17T08:10:13.000Z</time>
      </trkpt>
      <trkpt lat="47.56336" lon="6.80134">
        <ele>378</ele>
        <time>2016-07-17T08:10:14.000Z</time>
      </trkpt>
      <trkpt lat="47.56339" lon="6.80134">
        <ele>378</ele>
        <time>2016-07-17T08:10:15.000Z</time>
      </trkpt>
      <trkpt lat="47.56342" lon="6.80133">
        <ele>378</ele>
        <time>2016-07-17T08:10:16.000Z</time>
      </trkpt>
      <trkpt lat="47.56345" lon="6.80133">
        <ele>378</ele>
        <time>2016-07-17T08:10:17.000Z</time>
      </trkpt>
      <trkpt lat="47.56348" lon="6.80132">
        <ele>378</ele>
        <time>2016-07-17T08:10:18.000Z</time>
      </trkpt>
      <trkpt lat="47.56351" lon="6.80132">
        <ele>378</ele>
        <time>2016-07-17T08:10:19.000Z</time>
      </trkpt>
      <trkpt lat="47.56354" lon="6.80132">
        <ele>378</ele>
        <time>2016-07-17T08:10:20.000Z</time>
      </trkpt>
      <trkpt lat="47.56357" lon="6.80131">
        <ele>378</ele>
        <time>2016-07-17T08:10:21.000Z</time>
      </trkpt>
      <trkpt lat="47.5636" lon="6.80131">
        <ele>378</ele>
        <time>2016-07-17T08:10:22.000Z</time>
      </trkpt>
      <trkpt lat="47.56363" lon="6.8013">
        <ele>378</ele>
        <time>2016-07-17T08:10:23.000Z</time>
      </trkpt>
      <trkpt lat="47.56367" lon="6.8013">
        <ele>378</ele>
        <time>2016-07-17T08:10:24.000Z</time>
      </trkpt>
      <trkpt lat="47.5637" lon="6.8013">
        <ele>378</ele>
        <time>2016-07-17T08:10:25.000Z</time>
      </trkpt>
      <trkpt lat="47.56373" lon="6.8013">
        <ele>378</ele>
        <time>2016-07-17T08:10:26.000Z</time>
      </trkpt>
      <trkpt lat="47.56377" lon="6.8013">
        <ele>378</ele>
        <time>2016-07-17T08:10:27.000Z</time>
      </trkpt>
      <trkpt lat="47.5638" lon="6.80131">
        <ele>378</ele>
        <time>2016-07-17T08:10:28.000Z</time>
      </trkpt>
      <trkpt lat="47.56384" lon="6.80131">
        <ele>378</ele>
        <time>2016-07-17T08:10:29.000Z</time>
      </trkpt>
      <trkpt lat="47.56387" lon="6.80131">
        <ele>378</ele>
        <time>2016-07-17T08:10:30.000Z</time>
      </trkpt>
      <trkpt lat="47.56391" lon="6.80132">
        <ele>378</ele>
        <time>2016-07-17T08:10:31.000Z</time>
      </trkpt>
      <trkpt lat="47.56394" lon="6.80132">
        <ele>378</ele>
        <time>2016-07-17T08:10:32.000Z</time>
      </trkpt>
      <trkpt lat="47.56398" lon="6.80133">
        <ele>378</ele>
        <time>2016-07-17T08:10:33.000Z</time>
      </trkpt>
      <trkpt lat="47.56401" lon="6.80134">
        <ele>378</ele>
        <time>2016-07-17T08:10:34.000Z</time>
      </trkpt>
      <trkpt lat="47.56404" lon="6.80135">
        <ele>378</ele>
        <time>2016-07-17T08:10:35.000Z</time>
      </trkpt>
      <trkpt lat="47.56407" lon="6.80135">
        <ele>378</ele>
        <time>2016-07-17T08:10:36.000Z</time>
      </trkpt>
      <trkpt lat="47.5641" lon="6.80136">
        <ele>378</ele>
        <time>2016-07-17T08:10:37.000Z</time>
      </trkpt>
      <trkpt lat="47.56413" lon="6.80136">
        <ele>378</ele>
        <time>2016-07-17T08:10:38.000Z</time>
      </trkpt>
      <trkpt lat="47.56417" lon="6.80137">
        <ele>378</ele>
        <time>2016-07-17T08:10:39.000Z</time>
      </trkpt>
      <trkpt lat="47.5642" lon="6.80139">
        <ele>378</ele>
        <time>2016-07-17T08:10:40.000Z</time>
      </trkpt>
      <trkpt lat="47.56423" lon="6.8014">
        <ele>378</ele>
        <time>2016-07-17T08:10:41.000Z</time>
      </trkpt>
      <trkpt lat="47.56427" lon="6.80142">
        <ele>378</ele>
        <time>2016-07-17T08:10:42.000Z</time>
      </trkpt>
      <trkpt lat="47.5643" lon="6.80143">
        <ele>378</ele>
        <time>2016-07-17T08:10:43.000Z</time>
      </trkpt>
      <trkpt lat="47.56434" lon="6.80144">
        <ele>378</ele>
        <time>2016-07-17T08:10:44.000Z</time>
      </trkpt>
      <trkpt lat="47.56437" lon="6.80144">
        <ele>378</ele>
        <time>2016-07-17T08:10:45.000Z</time>
      </trkpt>
      <trkpt lat="47.56441" lon="6.80145">
        <ele>378</ele>
        <time>2016-07-17T08:10:46.000Z</time>
      </trkpt>
      <trkpt lat="47.56445" lon="6.80144">
        <ele>378</ele>
        <time>2016-07-17T08:10:47.000Z</time>
      </trkpt>
      <trkpt lat="47.56449" lon="6.80144">
        <ele>377</ele>
        <time>2016-07-17T08:10:48.000Z</time>
      </trkpt>
      <trkpt lat="47.56453" lon="6.80142">
        <ele>377</ele>
        <time>2016-07-17T08:10:49.000Z</time>
      </trkpt>
      <trkpt lat="47.56456" lon="6.80141">
        <ele>377</ele>
        <time>2016-07-17T08:10:50.000Z</time>
      </trkpt>
      <trkpt lat="47.5646" lon="6.8014">
        <ele>377</ele>
        <time>2016-07-17T08:10:51.000Z</time>
      </trkpt>
      <trkpt lat="47.56464" lon="6.80138">
        <ele>377</ele>
        <time>2016-07-17T08:10:52.000Z</time>
      </trkpt>
      <trkpt lat="47.56468" lon="6.80137">
        <ele>377</ele>
        <time>2016-07-17T08:10:53.000Z</time>
      </trkpt>
      <trkpt lat="47.56472" lon="6.80136">
        <ele>377</ele>
        <time>2016-07-17T08:10:54.000Z</time>
      </trkpt>
      <trkpt lat="47.56476" lon="6.80135">
        <ele>377</ele>
        <time>2016-07-17T08:10:55.000Z</time>
      </trkpt>
      <trkpt lat="47.56479" lon="6.80135">
        <ele>377</ele>
        <time>2016-07-17T08:10:56.000Z</time>
      </trkpt>
      <trkpt lat="47.56482" lon="6.80134">
        <ele>377</ele>
        <time>2016-07-17T08:10:57.000Z</time>
      </trkpt>
      <trkpt lat="47.56486" lon="6.80133">
        <ele>377</ele>
        <time>2016-07-17T08:10:58.000Z</time>
      </trkpt>
      <trkpt lat="47.56489" lon="6.80132">
        <ele>377</ele>
        <time>2016-07-17T08:10:59.000Z</time>
      </trkpt>
      <trkpt lat="47.56493" lon="6.80131">
        <ele>377</ele>
        <time>2016-07-17T08:11:00.000Z</time>
      </trkpt>
      <trkpt lat="47.56496" lon="6.8013">
        <ele>377</ele>
        <time>2016-07-17T08:11:01.000Z</time>
      </trkpt>
      <trkpt lat="47.56499" lon="6.80129">
        <ele>377</ele>
        <time>2016-07-17T08:11:02.000Z</time>
      </trkpt>
      <trkpt lat="47.56503" lon="6.80128">
        <ele>379</ele>
        <time>2016-07-17T08:11:03.000Z</time>
      </trkpt>
      <trkpt lat="47.56506" lon="6.80127">
        <ele>379</ele>
        <time>2016-07-17T08:11:04.000Z</time>
      </trkpt>
      <trkpt lat="47.56509" lon="6.80127">
        <ele>379</ele>
        <time>2016-07-17T08:11:05.000Z</time>
      </trkpt>
      <trkpt lat="47.56512" lon="6.80126">
        <ele>379</ele>
        <time>2016-07-17T08:11:06.000Z</time>
      </trkpt>
      <trkpt lat="47.56515" lon="6.80125">
        <ele>379</ele>
        <time>2016-07-17T08:11:07.000Z</time>
      </trkpt>
      <trkpt lat="47.56518" lon="6.80125">
        <ele>379</ele>
        <time>2016-07-17T08:11:08.000Z</time>
      </trkpt>
      <trkpt lat="47.56521" lon="6.80124">
        <ele>379</ele>
        <time>2016-07-17T08:11:09.000Z</time>
      </trkpt>
      <trkpt lat="47.56524" lon="6.80124">
        <ele>379</ele>
        <time>2016-07-17T08:11:10.000Z</time>
      </trkpt>
      <trkpt lat="47.56527" lon="6.80123">
        <ele>379</ele>
        <time>2016-07-17T08:11:11.000Z</time>
      </trkpt>
      <trkpt lat="47.56529" lon="6.80123">
        <ele>379</ele>
        <time>2016-07-17T08:11:12.000Z</time>
      </trkpt>
      <trkpt lat="47.56532" lon="6.80122">
        <ele>379</ele>
        <time>2016-07-17T08:11:13.000Z</time>
      </trkpt>
      <trkpt lat="47.56535" lon="6.80122">
        <ele>379</ele>
        <time>2016-07-17T08:11:14.000Z</time>
      </trkpt>
      <trkpt lat="47.56538" lon="6.80122">
        <ele>379</ele>
        <time>2016-07-17T08:11:15.000Z</time>
      </trkpt>
      <trkpt lat="47.5654" lon="6.80121">
        <ele>379</ele>
        <time>2016-07-17T08:11:16.000Z</time>
      </trkpt>
      <trkpt lat="47.56543" lon="6.80121">
        <ele>379</ele>
        <time>2016-07-17T08:11:17.000Z</time>
      </trkpt>
      <trkpt lat="47.56546" lon="6.8012">
        <ele>379</ele>
        <time>2016-07-17T08:11:18.000Z</time>
      </trkpt>
      <trkpt lat="47.56548" lon="6.80119">
        <ele>379</ele>
        <time>2016-07-17T08:11:19.000Z</time>
      </trkpt>
      <trkpt lat="47.56551" lon="6.80118">
        <ele>379</ele>
        <time>2016-07-17T08:11:20.000Z</time>
      </trkpt>
      <trkpt lat="47.56553" lon="6.80117">
        <ele>380</ele>
        <time>2016-07-17T08:11:21.000Z</time>
      </trkpt>
      <trkpt lat="47.56556" lon="6.80116">
        <ele>380</ele>
        <time>2016-07-17T08:11:22.000Z</time>
      </trkpt>
      <trkpt lat="47.56558" lon="6.80116">
        <ele>380</ele>
        <time>2016-07-17T08:11:23.000Z</time>
      </trkpt>
      <trkpt lat="47.56561" lon="6.80115">
        <ele>380</ele>
        <time>2016-07-17T08:11:24.000Z</time>
      </trkpt>
      <trkpt lat="47.56563" lon="6.80115">
        <ele>380</ele>
        <time>2016-07-17T08:11:25.000Z</time>
      </trkpt>
      <trkpt lat="47.56565" lon="6.80114">
        <ele>380</ele>
        <time>2016-07-17T08:11:26.000Z</time>
      </trkpt>
      <trkpt lat="47.56568" lon="6.80114">
        <ele>380</ele>
        <time>2016-07-17T08:11:27.000Z</time>
      </trkpt>
      <trkpt lat="47.5657" lon="6.80113">
        <ele>380</ele>
        <time>2016-07-17T08:11:28.000Z</time>
      </trkpt>
      <trkpt lat="47.56572" lon="6.80112">
        <ele>380</ele>
        <time>2016-07-17T08:11:29.000Z</time>
      </trkpt>
      <trkpt lat="47.56574" lon="6.80111">
        <ele>380</ele>
        <time>2016-07-17T08:11:30.000Z</time>
      </trkpt>
      <trkpt lat="47.56577" lon="6.8011">
        <ele>380</ele>
        <time>2016-07-17T08:11:31.000Z</time>
      </trkpt>
      <trkpt lat="47.56579" lon="6.8011">
        <ele>380</ele>
        <time>2016-07-17T08:11:32.000Z</time>
      </trkpt>
      <trkpt lat="47.56581" lon="6.80109">
        <ele>380</ele>
        <time>2016-07-17T08:11:33.000Z</time>
      </trkpt>
      <trkpt lat="47.56584" lon="6.80109">
        <ele>382</ele>
        <time>2016-07-17T08:11:34.000Z</time>
      </trkpt>
      <trkpt lat="47.56588" lon="6.80109">
        <ele>382</ele>
        <time>2016-07-17T08:11:36.000Z</time>
      </trkpt>
      <trkpt lat="47.5659" lon="6.80109">
        <ele>382</ele>
        <time>2016-07-17T08:11:37.000Z</time>
      </trkpt>
      <trkpt lat="47.56594" lon="6.8011">
        <ele>382</ele>
        <time>2016-07-17T08:11:39.000Z</time>
      </trkpt>
      <trkpt lat="47.56597" lon="6.8011">
        <ele>382</ele>
        <time>2016-07-17T08:11:40.000Z</time>
      </trkpt>
      <trkpt lat="47.56599" lon="6.80111">
        <ele>382</ele>
        <time>2016-07-17T08:11:41.000Z</time>
      </trkpt>
      <trkpt lat="47.56601" lon="6.80112">
        <ele>382</ele>
        <time>2016-07-17T08:11:42.000Z</time>
      </trkpt>
      <trkpt lat="47.56604" lon="6.80113">
        <ele>383</ele>
        <time>2016-07-17T08:11:43.000Z</time>
      </trkpt>
      <trkpt lat="47.56606" lon="6.80115">
        <ele>383</ele>
        <time>2016-07-17T08:11:44.000Z</time>
      </trkpt>
      <trkpt lat="47.56609" lon="6.80116">
        <ele>383</ele>
        <time>2016-07-17T08:11:45.000Z</time>
      </trkpt>
      <trkpt lat="47.56611" lon="6.80118">
        <ele>383</ele>
        <time>2016-07-17T08:11:46.000Z</time>
      </trkpt>
      <trkpt lat="47.56614" lon="6.8012">
        <ele>383</ele>
        <time>2016-07-17T08:11:47.000Z</time>
      </trkpt>
      <trkpt lat="47.56616" lon="6.80122">
        <ele>383</ele>
        <time>2016-07-17T08:11:48.000Z</time>
      </trkpt>
      <trkpt lat="47.56618" lon="6.80125">
        <ele>383</ele>
        <time>2016-07-17T08:11:49.000Z</time>
      </trkpt>
      <trkpt lat="47.5662" lon="6.80127">
        <ele>383</ele>
        <time>2016-07-17T08:11:50.000Z</time>
      </trkpt>
      <trkpt lat="47.56623" lon="6.8013">
        <ele>383</ele>
        <time>2016-07-17T08:11:51.000Z</time>
      </trkpt>
      <trkpt lat="47.56625" lon="6.80133">
        <ele>383</ele>
        <time>2016-07-17T08:11:52.000Z</time>
      </trkpt>
      <trkpt lat="47.56628" lon="6.80135">
        <ele>383</ele>
        <time>2016-07-17T08:11:53.000Z</time>
      </trkpt>
      <trkpt lat="47.56631" lon="6.80138">
        <ele>383</ele>
        <time>2016-07-17T08:11:54.000Z</time>
      </trkpt>
      <trkpt lat="47.56634" lon="6.8014">
        <ele>383</ele>
        <time>2016-07-17T08:11:55.000Z</time>
      </trkpt>
      <trkpt lat="47.56637" lon="6.80142">
        <ele>383</ele>
        <time>2016-07-17T08:11:56.000Z</time>
      </trkpt>
      <trkpt lat="47.5664" lon="6.80144">
        <ele>383</ele>
        <time>2016-07-17T08:11:57.000Z</time>
      </trkpt>
      <trkpt lat="47.56643" lon="6.80145">
        <ele>383</ele>
        <time>2016-07-17T08:11:58.000Z</time>
      </trkpt>
      <trkpt lat="47.56646" lon="6.80146">
        <ele>383</ele>
        <time>2016-07-17T08:11:59.000Z</time>
      </trkpt>
      <trkpt lat="47.56649" lon="6.80148">
        <ele>383</ele>
        <time>2016-07-17T08:12:00.000Z</time>
      </trkpt>
      <trkpt lat="47.56652" lon="6.80149">
        <ele>383</ele>
        <time>2016-07-17T08:12:01.000Z</time>
      </trkpt>
      <trkpt lat="47.56655" lon="6.8015">
        <ele>384</ele>
        <time>2016-07-17T08:12:02.000Z</time>
      </trkpt>
      <trkpt lat="47.56657" lon="6.80152">
        <ele>384</ele>
        <time>2016-07-17T08:12:03.000Z</time>
      </trkpt>
      <trkpt lat="47.56659" lon="6.80153">
        <ele>384</ele>
        <time>2016-07-17T08:12:04.000Z</time>
      </trkpt>
      <trkpt lat="47.56662" lon="6.80155">
        <ele>384</ele>
        <time>2016-07-17T08:12:05.000Z</time>
      </trkpt>
      <trkpt lat="47.56664" lon="6.80157">
        <ele>384</ele>
        <time>2016-07-17T08:12:06.000Z</time>
      </trkpt>
      <trkpt lat="47.56666" lon="6.80159">
        <ele>384</ele>
        <time>2016-07-17T08:12:07.000Z</time>
      </trkpt>
      <trkpt lat="47.56669" lon="6.8016">
        <ele>385</ele>
        <time>2016-07-17T08:12:08.000Z</time>
      </trkpt>
      <trkpt lat="47.56671" lon="6.80161">
        <ele>385</ele>
        <time>2016-07-17T08:12:09.000Z</time>
      </trkpt>
      <trkpt lat="47.56673" lon="6.80162">
        <ele>385</ele>
        <time>2016-07-17T08:12:10.000Z</time>
      </trkpt>
      <trkpt lat="47.56676" lon="6.80164">
        <ele>385</ele>
        <time>2016-07-17T08:12:11.000Z</time>
      </trkpt>
      <trkpt lat="47.56678" lon="6.80165">
        <ele>386</ele>
        <time>2016-07-17T08:12:12.000Z</time>
      </trkpt>
      <trkpt lat="47.5668" lon="6.80167">
        <ele>386</ele>
        <time>2016-07-17T08:12:13.000Z</time>
      </trkpt>
      <trkpt lat="47.56683" lon="6.80168">
        <ele>386</ele>
        <time>2016-07-17T08:12:14.000Z</time>
      </trkpt>
      <trkpt lat="47.56685" lon="6.80169">
        <ele>386</ele>
        <time>2016-07-17T08:12:15.000Z</time>
      </trkpt>
      <trkpt lat="47.56687" lon="6.80171">
        <ele>387</ele>
        <time>2016-07-17T08:12:16.000Z</time>
      </trkpt>
      <trkpt lat="47.56689" lon="6.80172">
        <ele>387</ele>
        <time>2016-07-17T08:12:17.000Z</time>
      </trkpt>
      <trkpt lat="47.56692" lon="6.80173">
        <ele>387</ele>
        <time>2016-07-17T08:12:18.000Z</time>
      </trkpt>
      <trkpt lat="47.56694" lon="6.80174">
        <ele>387</ele>
        <time>2016-07-17T08:12:19.000Z</time>
      </trkpt>
      <trkpt lat="47.56696" lon="6.80175">
        <ele>387</ele>
        <time>2016-07-17T08:12:20.000Z</time>
      </trkpt>
      <trkpt lat="47.567" lon="6.80177">
        <ele>388</ele>
        <time>2016-07-17T08:12:22.000Z</time>
      </trkpt>
      <trkpt lat="47.56702" lon="6.80179">
        <ele>388</ele>
        <time>2016-07-17T08:12:23.000Z</time>
      </trkpt>
      <trkpt lat="47.56704" lon="6.80181">
        <ele>388</ele>
        <time>2016-07-17T08:12:24.000Z</time>
      </trkpt>
      <trkpt lat="47.56706" lon="6.80183">
        <ele>388</ele>
        <time>2016-07-17T08:12:25.000Z</time>
      </trkpt>
      <trkpt lat="47.56708" lon="6.80185">
        <ele>388</ele>
        <time>2016-07-17T08:12:26.000Z</time>
      </trkpt>
      <trkpt lat="47.56709" lon="6.80188">
        <ele>388</ele>
        <time>2016-07-17T08:12:27.000Z</time>
      </trkpt>
      <trkpt lat="47.56713" lon="6.80191">
        <ele>389</ele>
        <time>2016-07-17T08:12:29.000Z</time>
      </trkpt>
      <trkpt lat="47.56714" lon="6.80193">
        <ele>389</ele>
        <time>2016-07-17T08:12:30.000Z</time>
      </trkpt>
      <trkpt lat="47.56718" lon="6.80196">
        <ele>389</ele>
        <time>2016-07-17T08:12:32.000Z</time>
      </trkpt>
      <trkpt lat="47.56719" lon="6.80198">
        <ele>389</ele>
        <time>2016-07-17T08:12:33.000Z</time>
      </trkpt>
      <trkpt lat="47.56723" lon="6.80201">
        <ele>389</ele>
        <time>2016-07-17T08:12:35.000Z</time>
      </trkpt>
      <trkpt lat="47.56724" lon="6.80202">
        <ele>389</ele>
        <time>2016-07-17T08:12:36.000Z</time>
      </trkpt>
      <trkpt lat="47.56728" lon="6.80205">
        <ele>389</ele>
        <time>2016-07-17T08:12:38.000Z</time>
      </trkpt>
      <trkpt lat="47.56729" lon="6.80207">
        <ele>389</ele>
        <time>2016-07-17T08:12:39.000Z</time>
      </trkpt>
      <trkpt lat="47.56733" lon="6.80211">
        <ele>389</ele>
        <time>2016-07-17T08:12:41.000Z</time>
      </trkpt>
      <trkpt lat="47.56734" lon="6.80212">
        <ele>390</ele>
        <time>2016-07-17T08:12:42.000Z</time>
      </trkpt>
      <trkpt lat="47.56737" lon="6.80216">
        <ele>390</ele>
        <time>2016-07-17T08:12:44.000Z</time>
      </trkpt>
      <trkpt lat="47.56739" lon="6.80217">
        <ele>390</ele>
        <time>2016-07-17T08:12:45.000Z</time>
      </trkpt>
      <trkpt lat="47.56742" lon="6.8022">
        <ele>390</ele>
        <time>2016-07-17T08:12:47.000Z</time>
      </trkpt>
      <trkpt lat="47.56744" lon="6.80221">
        <ele>390</ele>
        <time>2016-07-17T08:12:48.000Z</time>
      </trkpt>
      <trkpt lat="47.56747" lon="6.80225">
        <ele>390</ele>
        <time>2016-07-17T08:12:50.000Z</time>
      </trkpt>
      <trkpt lat="47.56748" lon="6.80226">
        <ele>390</ele>
        <time>2016-07-17T08:12:51.000Z</time>
      </trkpt>
      <trkpt lat="47.56751" lon="6.8023">
        <ele>395</ele>
        <time>2016-07-17T08:12:53.000Z</time>
      </trkpt>
      <trkpt lat="47.56753" lon="6.80232">
        <ele>395</ele>
        <time>2016-07-17T08:12:54.000Z</time>
      </trkpt>
      <trkpt lat="47.56756" lon="6.80235">
        <ele>395</ele>
        <time>2016-07-17T08:12:56.000Z</time>
      </trkpt>
      <trkpt lat="47.56758" lon="6.80237">
        <ele>395</ele>
        <time>2016-07-17T08:12:57.000Z</time>
      </trkpt>
      <trkpt lat="47.56761" lon="6.8024">
        <ele>395</ele>
        <time>2016-07-17T08:12:59.000Z</time>
      </trkpt>
      <trkpt lat="47.56762" lon="6.80241">
        <ele>395</ele>
        <time>2016-07-17T08:13:00.000Z</time>
      </trkpt>
      <trkpt lat="47.56765" lon="6.80244">
        <ele>395</ele>
        <time>2016-07-17T08:13:02.000Z</time>
      </trkpt>
      <trkpt lat="47.56767" lon="6.80246">
        <ele>395</ele>
        <time>2016-07-17T08:13:03.000Z</time>
      </trkpt>
      <trkpt lat="47.56769" lon="6.80249">
        <ele>395</ele>
        <time>2016-07-17T08:13:05.000Z</time>
      </trkpt>
      <trkpt lat="47.56771" lon="6.80251">
        <ele>396</ele>
        <time>2016-07-17T08:13:06.000Z</time>
      </trkpt>
      <trkpt lat="47.56774" lon="6.80254">
        <ele>396</ele>
        <time>2016-07-17T08:13:08.000Z</time>
      </trkpt>
      <trkpt lat="47.56775" lon="6.80256">
        <ele>397</ele>
        <time>2016-07-17T08:13:09.000Z</time>
      </trkpt>
      <trkpt lat="47.56779" lon="6.80259">
        <ele>397</ele>
        <time>2016-07-17T08:13:11.000Z</time>
      </trkpt>
      <trkpt lat="47.5678" lon="6.8026">
        <ele>397</ele>
        <time>2016-07-17T08:13:12.000Z</time>
      </trkpt>
      <trkpt lat="47.56783" lon="6.80263">
        <ele>397</ele>
        <time>2016-07-17T08:13:14.000Z</time>
      </trkpt>
      <trkpt lat="47.56785" lon="6.80265">
        <ele>398</ele>
        <time>2016-07-17T08:13:15.000Z</time>
      </trkpt>
      <trkpt lat="47.56788" lon="6.80269">
        <ele>398</ele>
        <time>2016-07-17T08:13:17.000Z</time>
      </trkpt>
      <trkpt lat="47.56789" lon="6.80271">
        <ele>398</ele>
        <time>2016-07-17T08:13:18.000Z</time>
      </trkpt>
      <trkpt lat="47.56793" lon="6.80274">
        <ele>398</ele>
        <time>2016-07-17T08:13:20.000Z</time>
      </trkpt>
      <trkpt lat="47.56794" lon="6.80275">
        <ele>398</ele>
        <time>2016-07-17T08:13:21.000Z</time>
      </trkpt>
      <trkpt lat="47.56798" lon="6.80278">
        <ele>398</ele>
        <time>2016-07-17T08:13:23.000Z</time>
      </trkpt>
      <trkpt lat="47.568" lon="6.80279">
        <ele>399</ele>
        <time>2016-07-17T08:13:24.000Z</time>
      </trkpt>
      <trkpt lat="47.56804" lon="6.80281">
        <ele>399</ele>
        <time>2016-07-17T08:13:26.000Z</time>
      </trkpt>
      <trkpt lat="47.56805" lon="6.80282">
        <ele>399</ele>
        <time>2016-07-17T08:13:27.000Z</time>
      </trkpt>
      <trkpt lat="47.56809" lon="6.80285">
        <ele>399</ele>
        <time>2016-07-17T08:13:29.000Z</time>
      </trkpt>
      <trkpt lat="47.56811" lon="6.80286">
        <ele>399</ele>
        <time>2016-07-17T08:13:30.000Z</time>
      </trkpt>
      <trkpt lat="47.56815" lon="6.80288">
        <ele>399</ele>
        <time>2016-07-17T08:13:32.000Z</time>
      </trkpt>
      <trkpt lat="47.56817" lon="6.80289">
        <ele>399</ele>
        <time>2016-07-17T08:13:33.000Z</time>
      </trkpt>
      <trkpt lat="47.56821" lon="6.80291">
        <ele>400</ele>
        <time>2016-07-17T08:13:35.000Z</time>
      </trkpt>
      <trkpt lat="47.56822" lon="6.80292">
        <ele>400</ele>
        <time>2016-07-17T08:13:36.000Z</time>
      </trkpt>
      <trkpt lat="47.56826" lon="6.80294">
        <ele>400</ele>
        <time>2016-07-17T08:13:38.000Z</time>
      </trkpt>
      <trkpt lat="47.56828" lon="6.80295">
        <ele>400</ele>
        <time>2016-07-17T08:13:39.000Z</time>
      </trkpt>
      <trkpt lat="47.56832" lon="6.80297">
        <ele>400</ele>
        <time>2016-07-17T08:13:41.000Z</time>
      </trkpt>
      <trkpt lat="47.56834" lon="6.80298">
        <ele>404</ele>
        <time>2016-07-17T08:13:42.000Z</time>
      </trkpt>
      <trkpt lat="47.56838" lon="6.80301">
        <ele>404</ele>
        <time>2016-07-17T08:13:44.000Z</time>
      </trkpt>
      <trkpt lat="47.56839" lon="6.80302">
        <ele>404</ele>
        <time>2016-07-17T08:13:45.000Z</time>
      </trkpt>
      <trkpt lat="47.56844" lon="6.80304">
        <ele>404</ele>
        <time>2016-07-17T08:13:47.000Z</time>
      </trkpt>
      <trkpt lat="47.56845" lon="6.80305">
        <ele>404</ele>
        <time>2016-07-17T08:13:48.000Z</time>
      </trkpt>
      <trkpt lat="47.56849" lon="6.80308">
        <ele>404</ele>
        <time>2016-07-17T08:13:50.000Z</time>
      </trkpt>
      <trkpt lat="47.56851" lon="6.80309">
        <ele>404</ele>
        <time>2016-07-17T08:13:51.000Z</time>
      </trkpt>
      <trkpt lat="47.56855" lon="6.80312">
        <ele>404</ele>
        <time>2016-07-17T08:13:53.000Z</time>
      </trkpt>
      <trkpt lat="47.56857" lon="6.80313">
        <ele>405</ele>
        <time>2016-07-17T08:13:54.000Z</time>
      </trkpt>
      <trkpt lat="47.56861" lon="6.80315">
        <ele>405</ele>
        <time>2016-07-17T08:13:56.000Z</time>
      </trkpt>
      <trkpt lat="47.56863" lon="6.80316">
        <ele>405</ele>
        <time>2016-07-17T08:13:57.000Z</time>
      </trkpt>
      <trkpt lat="47.56867" lon="6.80319">
        <ele>405</ele>
        <time>2016-07-17T08:13:59.000Z</time>
      </trkpt>
      <trkpt lat="47.56869" lon="6.8032">
        <ele>405</ele>
        <time>2016-07-17T08:14:00.000Z</time>
      </trkpt>
      <trkpt lat="47.56873" lon="6.80322">
        <ele>405</ele>
        <time>2016-07-17T08:14:02.000Z</time>
      </trkpt>
      <trkpt lat="47.56874" lon="6.80323">
        <ele>405</ele>
        <time>2016-07-17T08:14:03.000Z</time>
      </trkpt>
      <trkpt lat="47.56878" lon="6.80325">
        <ele>405</ele>
        <time>2016-07-17T08:14:05.000Z</time>
      </trkpt>
      <trkpt lat="47.5688" lon="6.80326">
        <ele>406</ele>
        <time>2016-07-17T08:14:06.000Z</time>
      </trkpt>
      <trkpt lat="47.56885" lon="6.80326">
        <ele>406</ele>
        <time>2016-07-17T08:14:08.000Z</time>
      </trkpt>
      <trkpt lat="47.56887" lon="6.80326">
        <ele>406</ele>
        <time>2016-07-17T08:14:09.000Z</time>
      </trkpt>
      <trkpt lat="47.56891" lon="6.80326">
        <ele>406</ele>
        <time>2016-07-17T08:14:11.000Z</time>
      </trkpt>
      <trkpt lat="47.56893" lon="6.80326">
        <ele>406</ele>
        <time>2016-07-17T08:14:12.000Z</time>
      </trkpt>
      <trkpt lat="47.56895" lon="6.80326">
        <ele>407</ele>
        <time>2016-07-17T08:14:13.000Z</time>
      </trkpt>
      <trkpt lat="47.56898" lon="6.80326">
        <ele>407</ele>
        <time>2016-07-17T08:14:14.000Z</time>
      </trkpt>
      <trkpt lat="47.569" lon="6.80327">
        <ele>407</ele>
        <time>2016-07-17T08:14:15.000Z</time>
      </trkpt>
      <trkpt lat="47.56902" lon="6.80327">
        <ele>407</ele>
        <time>2016-07-17T08:14:16.000Z</time>
      </trkpt>
      <trkpt lat="47.56907" lon="6.80327">
        <ele>407</ele>
        <time>2016-07-17T08:14:18.000Z</time>
      </trkpt>
      <trkpt lat="47.56909" lon="6.80326">
        <ele>408</ele>
        <time>2016-07-17T08:14:19.000Z</time>
      </trkpt>
      <trkpt lat="47.56913" lon="6.80326">
        <ele>408</ele>
        <time>2016-07-17T08:14:21.000Z</time>
      </trkpt>
      <trkpt lat="47.56915" lon="6.80325">
        <ele>408</ele>
        <time>2016-07-17T08:14:22.000Z</time>
      </trkpt>
      <trkpt lat="47.56918" lon="6.80325">
        <ele>409</ele>
        <time>2016-07-17T08:14:23.000Z</time>
      </trkpt>
      <trkpt lat="47.5692" lon="6.80324">
        <ele>409</ele>
        <time>2016-07-17T08:14:24.000Z</time>
      </trkpt>
      <trkpt lat="47.56922" lon="6.80324">
        <ele>409</ele>
        <time>2016-07-17T08:14:25.000Z</time>
      </trkpt>
      <trkpt lat="47.56924" lon="6.80324">
        <ele>409</ele>
        <time>2016-07-17T08:14:26.000Z</time>
      </trkpt>
      <trkpt lat="47.56927" lon="6.80325">
        <ele>409</ele>
        <time>2016-07-17T08:14:27.000Z</time>
      </trkpt>
      <trkpt lat="47.5693" lon="6.80325">
        <ele>409</ele>
        <time>2016-07-17T08:14:28.000Z</time>
      </trkpt>
      <trkpt lat="47.56933" lon="6.80326">
        <ele>409</ele>
        <time>2016-07-17T08:14:29.000Z</time>
      </trkpt>
      <trkpt lat="47.56935" lon="6.80326">
        <ele>409</ele>
        <time>2016-07-17T08:14:30.000Z</time>
      </trkpt>
      <trkpt lat="47.56938" lon="6.80326">
        <ele>409</ele>
        <time>2016-07-17T08:14:31.000Z</time>
      </trkpt>
      <trkpt lat="47.5694" lon="6.80326">
        <ele>409</ele>
        <time>2016-07-17T08:14:32.000Z</time>
      </trkpt>
      <trkpt lat="47.56943" lon="6.80325">
        <ele>409</ele>
        <time>2016-07-17T08:14:33.000Z</time>
      </trkpt>
      <trkpt lat="47.56945" lon="6.80325">
        <ele>409</ele>
        <time>2016-07-17T08:14:34.000Z</time>
      </trkpt>
      <trkpt lat="47.56948" lon="6.80325">
        <ele>410</ele>
        <time>2016-07-17T08:14:35.000Z</time>
      </trkpt>
      <trkpt lat="47.56951" lon="6.80325">
        <ele>410</ele>
        <time>2016-07-17T08:14:36.000Z</time>
      </trkpt>
      <trkpt lat="47.56954" lon="6.80325">
        <ele>410</ele>
        <time>2016-07-17T08:14:37.000Z</time>
      </trkpt>
      <trkpt lat="47.56958" lon="6.80326">
        <ele>410</ele>
        <time>2016-07-17T08:14:38.000Z</time>
      </trkpt>
      <trkpt lat="47.56961" lon="6.80326">
        <ele>410</ele>
        <time>2016-07-17T08:14:39.000Z</time>
      </trkpt>
      <trkpt lat="47.56964" lon="6.80326">
        <ele>410</ele>
        <time>2016-07-17T08:14:40.000Z</time>
      </trkpt>
      <trkpt lat="47.56967" lon="6.80327">
        <ele>410</ele>
        <time>2016-07-17T08:14:41.000Z</time>
      </trkpt>
      <trkpt lat="47.5697" lon="6.80327">
        <ele>410</ele>
        <time>2016-07-17T08:14:42.000Z</time>
      </trkpt>
      <trkpt lat="47.56972" lon="6.80327">
        <ele>410</ele>
        <time>2016-07-17T08:14:43.000Z</time>
      </trkpt>
      <trkpt lat="47.56975" lon="6.80327">
        <ele>411</ele>
        <time>2016-07-17T08:14:44.000Z</time>
      </trkpt>
      <trkpt lat="47.56977" lon="6.80327">
        <ele>411</ele>
        <time>2016-07-17T08:14:45.000Z</time>
      </trkpt>
      <trkpt lat="47.5698" lon="6.80326">
        <ele>411</ele>
        <time>2016-07-17T08:14:46.000Z</time>
      </trkpt>
      <trkpt lat="47.56983" lon="6.80326">
        <ele>411</ele>
        <time>2016-07-17T08:14:47.000Z</time>
      </trkpt>
      <trkpt lat="47.56986" lon="6.80326">
        <ele>411</ele>
        <time>2016-07-17T08:14:48.000Z</time>
      </trkpt>
      <trkpt lat="47.56989" lon="6.80326">
        <ele>411</ele>
        <time>2016-07-17T08:14:49.000Z</time>
      </trkpt>
      <trkpt lat="47.56992" lon="6.80326">
        <ele>412</ele>
        <time>2016-07-17T08:14:50.000Z</time>
      </trkpt>
      <trkpt lat="47.56995" lon="6.80327">
        <ele>412</ele>
        <time>2016-07-17T08:14:51.000Z</time>
      </trkpt>
      <trkpt lat="47.56998" lon="6.80327">
        <ele>412</ele>
        <time>2016-07-17T08:14:52.000Z</time>
      </trkpt>
      <trkpt lat="47.57" lon="6.80327">
        <ele>413</ele>
        <time>2016-07-17T08:14:53.000Z</time>
      </trkpt>
      <trkpt lat="47.57003" lon="6.80327">
        <ele>412</ele>
        <time>2016-07-17T08:14:54.000Z</time>
      </trkpt>
      <trkpt lat="47.57006" lon="6.80327">
        <ele>412</ele>
        <time>2016-07-17T08:14:55.000Z</time>
      </trkpt>
      <trkpt lat="47.57008" lon="6.80326">
        <ele>412</ele>
        <time>2016-07-17T08:14:56.000Z</time>
      </trkpt>
      <trkpt lat="47.57011" lon="6.80323">
        <ele>412</ele>
        <time>2016-07-17T08:15:46.000Z</time>
      </trkpt>
      <trkpt lat="47.57012" lon="6.80323">
        <ele>412</ele>
        <time>2016-07-17T08:15:47.000Z</time>
      </trkpt>
      <trkpt lat="47.57014" lon="6.80322">
        <ele>412</ele>
        <time>2016-07-17T08:15:49.000Z</time>
      </trkpt>
      <trkpt lat="47.57016" lon="6.80321">
        <ele>412</ele>
        <time>2016-07-17T08:15:50.000Z</time>
      </trkpt>
      <trkpt lat="47.57019" lon="6.80321">
        <ele>412</ele>
        <time>2016-07-17T08:15:51.000Z</time>
      </trkpt>
      <trkpt lat="47.57021" lon="6.8032">
        <ele>412</ele>
        <time>2016-07-17T08:15:52.000Z</time>
      </trkpt>
      <trkpt lat="47.57024" lon="6.80319">
        <ele>412</ele>
        <time>2016-07-17T08:15:53.000Z</time>
      </trkpt>
      <trkpt lat="47.57027" lon="6.80317">
        <ele>411</ele>
        <time>2016-07-17T08:15:54.000Z</time>
      </trkpt>
      <trkpt lat="47.5703" lon="6.80316">
        <ele>411</ele>
        <time>2016-07-17T08:15:55.000Z</time>
      </trkpt>
      <trkpt lat="47.57032" lon="6.80315">
        <ele>411</ele>
        <time>2016-07-17T08:15:56.000Z</time>
      </trkpt>
      <trkpt lat="47.57036" lon="6.80317">
        <ele>411</ele>
        <time>2016-07-17T08:16:00.000Z</time>
      </trkpt>
      <trkpt lat="47.57036" lon="6.80319">
        <ele>411</ele>
        <time>2016-07-17T08:16:01.000Z</time>
      </trkpt>
      <trkpt lat="47.57036" lon="6.80323">
        <ele>411</ele>
        <time>2016-07-17T08:16:02.000Z</time>
      </trkpt>
      <trkpt lat="47.57036" lon="6.80326">
        <ele>411</ele>
        <time>2016-07-17T08:16:03.000Z</time>
      </trkpt>
      <trkpt lat="47.57036" lon="6.80332">
        <ele>411</ele>
        <time>2016-07-17T08:16:05.000Z</time>
      </trkpt>
      <trkpt lat="47.57035" lon="6.80335">
        <ele>413</ele>
        <time>2016-07-17T08:16:06.000Z</time>
      </trkpt>
      <trkpt lat="47.57033" lon="6.80339">
        <ele>413</ele>
        <time>2016-07-17T08:16:08.000Z</time>
      </trkpt>
      <trkpt lat="47.57032" lon="6.80342">
        <ele>413</ele>
        <time>2016-07-17T08:16:09.000Z</time>
      </trkpt>
      <trkpt lat="47.57032" lon="6.80345">
        <ele>413</ele>
        <time>2016-07-17T08:16:10.000Z</time>
      </trkpt>
      <trkpt lat="47.57031" lon="6.80349">
        <ele>413</ele>
        <time>2016-07-17T08:16:11.000Z</time>
      </trkpt>
      <trkpt lat="47.57031" lon="6.80354">
        <ele>413</ele>
        <time>2016-07-17T08:16:13.000Z</time>
      </trkpt>
      <trkpt lat="47.57031" lon="6.80357">
        <ele>413</ele>
        <time>2016-07-17T08:16:14.000Z</time>
      </trkpt>
      <trkpt lat="47.57031" lon="6.80363">
        <ele>413</ele>
        <time>2016-07-17T08:16:17.000Z</time>
      </trkpt>
      <trkpt lat="47.57031" lon="6.80364">
        <ele>413</ele>
        <time>2016-07-17T08:16:18.000Z</time>
      </trkpt>
      <trkpt lat="47.57032" lon="6.8037">
        <ele>413</ele>
        <time>2016-07-17T08:16:21.000Z</time>
      </trkpt>
      <trkpt lat="47.57032" lon="6.80372">
        <ele>413</ele>
        <time>2016-07-17T08:16:22.000Z</time>
      </trkpt>
      <trkpt lat="47.57032" lon="6.80378">
        <ele>414</ele>
        <time>2016-07-17T08:16:25.000Z</time>
      </trkpt>
      <trkpt lat="47.57032" lon="6.8038">
        <ele>414</ele>
        <time>2016-07-17T08:16:26.000Z</time>
      </trkpt>
      <trkpt lat="47.57033" lon="6.80385">
        <ele>414</ele>
        <time>2016-07-17T08:16:57.000Z</time>
      </trkpt>
      <trkpt lat="47.57033" lon="6.80388">
        <ele>414</ele>
        <time>2016-07-17T08:16:58.000Z</time>
      </trkpt>
      <trkpt lat="47.57034" lon="6.80391">
        <ele>414</ele>
        <time>2016-07-17T08:16:59.000Z</time>
      </trkpt>
      <trkpt lat="47.57036" lon="6.80394">
        <ele>414</ele>
        <time>2016-07-17T08:17:00.000Z</time>
      </trkpt>
      <trkpt lat="47.57037" lon="6.80398">
        <ele>414</ele>
        <time>2016-07-17T08:17:01.000Z</time>
      </trkpt>
      <trkpt lat="47.57038" lon="6.80401">
        <ele>414</ele>
        <time>2016-07-17T08:17:02.000Z</time>
      </trkpt>
      <trkpt lat="47.5704" lon="6.80404">
        <ele>414</ele>
        <time>2016-07-17T08:17:03.000Z</time>
      </trkpt>
      <trkpt lat="47.57042" lon="6.80408">
        <ele>414</ele>
        <time>2016-07-17T08:17:04.000Z</time>
      </trkpt>
      <trkpt lat="47.57044" lon="6.8041">
        <ele>414</ele>
        <time>2016-07-17T08:17:05.000Z</time>
      </trkpt>
      <trkpt lat="47.57046" lon="6.80413">
        <ele>414</ele>
        <time>2016-07-17T08:17:06.000Z</time>
      </trkpt>
      <trkpt lat="47.57048" lon="6.80416">
        <ele>413</ele>
        <time>2016-07-17T08:17:07.000Z</time>
      </trkpt>
      <trkpt lat="47.5705" lon="6.8042">
        <ele>415</ele>
        <time>2016-07-17T08:17:08.000Z</time>
      </trkpt>
      <trkpt lat="47.57052" lon="6.80423">
        <ele>415</ele>
        <time>2016-07-17T08:17:09.000Z</time>
      </trkpt>
      <trkpt lat="47.57054" lon="6.80427">
        <ele>415</ele>
        <time>2016-07-17T08:17:10.000Z</time>
      </trkpt>
      <trkpt lat="47.57056" lon="6.8043">
        <ele>415</ele>
        <time>2016-07-17T08:17:11.000Z</time>
      </trkpt>
      <trkpt lat="47.57058" lon="6.80433">
        <ele>415</ele>
        <time>2016-07-17T08:17:12.000Z</time>
      </trkpt>
      <trkpt lat="47.5706" lon="6.80436">
        <ele>415</ele>
        <time>2016-07-17T08:17:13.000Z</time>
      </trkpt>
      <trkpt lat="47.57062" lon="6.80439">
        <ele>415</ele>
        <time>2016-07-17T08:17:14.000Z</time>
      </trkpt>
      <trkpt lat="47.57063" lon="6.80443">
        <ele>415</ele>
        <time>2016-07-17T08:17:15.000Z</time>
      </trkpt>
      <trkpt lat="47.57064" lon="6.80445">
        <ele>415</ele>
        <time>2016-07-17T08:17:16.000Z</time>
      </trkpt>
      <trkpt lat="47.57067" lon="6.8045">
        <ele>415</ele>
        <time>2016-07-17T08:17:18.000Z</time>
      </trkpt>
      <trkpt lat="47.57069" lon="6.80453">
        <ele>416</ele>
        <time>2016-07-17T08:17:19.000Z</time>
      </trkpt>
      <trkpt lat="47.57072" lon="6.80458">
        <ele>416</ele>
        <time>2016-07-17T08:17:21.000Z</time>
      </trkpt>
      <trkpt lat="47.57073" lon="6.8046">
        <ele>416</ele>
        <time>2016-07-17T08:17:22.000Z</time>
      </trkpt>
      <trkpt lat="47.57076" lon="6.80464">
        <ele>416</ele>
        <time>2016-07-17T08:17:24.000Z</time>
      </trkpt>
      <trkpt lat="47.57077" lon="6.80467">
        <ele>416</ele>
        <time>2016-07-17T08:17:25.000Z</time>
      </trkpt>
      <trkpt lat="47.57078" lon="6.8047">
        <ele>416</ele>
        <time>2016-07-17T08:17:26.000Z</time>
      </trkpt>
      <trkpt lat="47.5708" lon="6.80474">
        <ele>416</ele>
        <time>2016-07-17T08:17:27.000Z</time>
      </trkpt>
      <trkpt lat="47.57081" lon="6.80476">
        <ele>416</ele>
        <time>2016-07-17T08:17:28.000Z</time>
      </trkpt>
      <trkpt lat="47.57083" lon="6.80478">
        <ele>416</ele>
        <time>2016-07-17T08:17:29.000Z</time>
      </trkpt>
      <trkpt lat="47.57086" lon="6.80482">
        <ele>414</ele>
        <time>2016-07-17T08:17:31.000Z</time>
      </trkpt>
      <trkpt lat="47.57088" lon="6.80485">
        <ele>415</ele>
        <time>2016-07-17T08:17:32.000Z</time>
      </trkpt>
      <trkpt lat="47.5709" lon="6.80487">
        <ele>415</ele>
        <time>2016-07-17T08:17:33.000Z</time>
      </trkpt>
      <trkpt lat="47.57094" lon="6.80491">
        <ele>415</ele>
        <time>2016-07-17T08:17:34.000Z</time>
      </trkpt>
      <trkpt lat="47.57098" lon="6.80494">
        <ele>415</ele>
        <time>2016-07-17T08:17:35.000Z</time>
      </trkpt>
      <trkpt lat="47.57101" lon="6.80497">
        <ele>414</ele>
        <time>2016-07-17T08:17:36.000Z</time>
      </trkpt>
      <trkpt lat="47.57105" lon="6.805">
        <ele>416</ele>
        <time>2016-07-17T08:17:37.000Z</time>
      </trkpt>
      <trkpt lat="47.57108" lon="6.80504">
        <ele>416</ele>
        <time>2016-07-17T08:17:38.000Z</time>
      </trkpt>
      <trkpt lat="47.57112" lon="6.80507">
        <ele>416</ele>
        <time>2016-07-17T08:17:39.000Z</time>
      </trkpt>
      <trkpt lat="47.57116" lon="6.80511">
        <ele>415</ele>
        <time>2016-07-17T08:17:40.000Z</time>
      </trkpt>
      <trkpt lat="47.5712" lon="6.80516">
        <ele>415</ele>
        <time>2016-07-17T08:17:41.000Z</time>
      </trkpt>
      <trkpt lat="47.57123" lon="6.8052">
        <ele>415</ele>
        <time>2016-07-17T08:17:42.000Z</time>
      </trkpt>
      <trkpt lat="47.57125" lon="6.80524">
        <ele>415</ele>
        <time>2016-07-17T08:17:43.000Z</time>
      </trkpt>
      <trkpt lat="47.57127" lon="6.80528">
        <ele>415</ele>
        <time>2016-07-17T08:17:44.000Z</time>
      </trkpt>
      <trkpt lat="47.57129" lon="6.80531">
        <ele>415</ele>
        <time>2016-07-17T08:17:45.000Z</time>
      </trkpt>
      <trkpt lat="47.57131" lon="6.80535">
        <ele>415</ele>
        <time>2016-07-17T08:17:47.000Z</time>
      </trkpt>
      <trkpt lat="47.57131" lon="6.80538">
        <ele>415</ele>
        <time>2016-07-17T08:17:48.000Z</time>
      </trkpt>
      <trkpt lat="47.57132" lon="6.80543">
        <ele>415</ele>
        <time>2016-07-17T08:17:51.000Z</time>
      </trkpt>
      <trkpt lat="47.57132" lon="6.80544">
        <ele>415</ele>
        <time>2016-07-17T08:17:52.000Z</time>
      </trkpt>
      <trkpt lat="47.57133" lon="6.80548">
        <ele>415</ele>
        <time>2016-07-17T08:17:54.000Z</time>
      </trkpt>
      <trkpt lat="47.57134" lon="6.80551">
        <ele>415</ele>
        <time>2016-07-17T08:17:55.000Z</time>
      </trkpt>
      <trkpt lat="47.57135" lon="6.80554">
        <ele>415</ele>
        <time>2016-07-17T08:17:56.000Z</time>
      </trkpt>
      <trkpt lat="47.57136" lon="6.80558">
        <ele>415</ele>
        <time>2016-07-17T08:17:57.000Z</time>
      </trkpt>
      <trkpt lat="47.57138" lon="6.80561">
        <ele>415</ele>
        <time>2016-07-17T08:17:58.000Z</time>
      </trkpt>
      <trkpt lat="47.5714" lon="6.80565">
        <ele>415</ele>
        <time>2016-07-17T08:17:59.000Z</time>
      </trkpt>
      <trkpt lat="47.57141" lon="6.80569">
        <ele>415</ele>
        <time>2016-07-17T08:18:00.000Z</time>
      </trkpt>
      <trkpt lat="47.57143" lon="6.80572">
        <ele>415</ele>
        <time>2016-07-17T08:18:01.000Z</time>
      </trkpt>
      <trkpt lat="47.57144" lon="6.80577">
        <ele>415</ele>
        <time>2016-07-17T08:18:03.000Z</time>
      </trkpt>
      <trkpt lat="47.57145" lon="6.80579">
        <ele>415</ele>
        <time>2016-07-17T08:18:04.000Z</time>
      </trkpt>
      <trkpt lat="47.57148" lon="6.80582">
        <ele>415</ele>
        <time>2016-07-17T08:18:07.000Z</time>
      </trkpt>
      <trkpt lat="47.57148" lon="6.80584">
        <ele>414</ele>
        <time>2016-07-17T08:18:08.000Z</time>
      </trkpt>
      <trkpt lat="47.57151" lon="6.80589">
        <ele>414</ele>
        <time>2016-07-17T08:18:10.000Z</time>
      </trkpt>
      <trkpt lat="47.57152" lon="6.80592">
        <ele>414</ele>
        <time>2016-07-17T08:18:11.000Z</time>
      </trkpt>
      <trkpt lat="47.57154" lon="6.80595">
        <ele>414</ele>
        <time>2016-07-17T08:18:12.000Z</time>
      </trkpt>
      <trkpt lat="47.57156" lon="6.80599">
        <ele>414</ele>
        <time>2016-07-17T08:18:13.000Z</time>
      </trkpt>
      <trkpt lat="47.57157" lon="6.80603">
        <ele>414</ele>
        <time>2016-07-17T08:18:14.000Z</time>
      </trkpt>
      <trkpt lat="47.57159" lon="6.80608">
        <ele>414</ele>
        <time>2016-07-17T08:18:15.000Z</time>
      </trkpt>
      <trkpt lat="47.57161" lon="6.80613">
        <ele>414</ele>
        <time>2016-07-17T08:18:16.000Z</time>
      </trkpt>
      <trkpt lat="47.57163" lon="6.80617">
        <ele>414</ele>
        <time>2016-07-17T08:18:17.000Z</time>
      </trkpt>
      <trkpt lat="47.57165" lon="6.80622">
        <ele>414</ele>
        <time>2016-07-17T08:18:18.000Z</time>
      </trkpt>
      <trkpt lat="47.57169" lon="6.80628">
        <ele>410</ele>
        <time>2016-07-17T08:18:19.000Z</time>
      </trkpt>
      <trkpt lat="47.57172" lon="6.80635">
        <ele>409</ele>
        <time>2016-07-17T08:18:20.000Z</time>
      </trkpt>
      <trkpt lat="47.57176" lon="6.80641">
        <ele>409</ele>
        <time>2016-07-17T08:18:21.000Z</time>
      </trkpt>
      <trkpt lat="47.57179" lon="6.80648">
        <ele>409</ele>
        <time>2016-07-17T08:18:22.000Z</time>
      </trkpt>
      <trkpt lat="47.57182" lon="6.80654">
        <ele>410</ele>
        <time>2016-07-17T08:18:23.000Z</time>
      </trkpt>
      <trkpt lat="47.57185" lon="6.8066">
        <ele>409</ele>
        <time>2016-07-17T08:18:24.000Z</time>
      </trkpt>
      <trkpt lat="47.57188" lon="6.80666">
        <ele>409</ele>
        <time>2016-07-17T08:18:25.000Z</time>
      </trkpt>
      <trkpt lat="47.57191" lon="6.8067">
        <ele>409</ele>
        <time>2016-07-17T08:18:26.000Z</time>
      </trkpt>
      <trkpt lat="47.57194" lon="6.80676">
        <ele>408</ele>
        <time>2016-07-17T08:18:27.000Z</time>
      </trkpt>
      <trkpt lat="47.57197" lon="6.80681">
        <ele>408</ele>
        <time>2016-07-17T08:18:28.000Z</time>
      </trkpt>
      <trkpt lat="47.572" lon="6.80688">
        <ele>408</ele>
        <time>2016-07-17T08:18:29.000Z</time>
      </trkpt>
      <trkpt lat="47.57204" lon="6.80695">
        <ele>407</ele>
        <time>2016-07-17T08:18:30.000Z</time>
      </trkpt>
      <trkpt lat="47.57215" lon="6.80716">
        <ele>407</ele>
        <time>2016-07-17T08:18:31.000Z</time>
      </trkpt>
      <trkpt lat="47.57219" lon="6.80724">
        <ele>407</ele>
        <time>2016-07-17T08:18:32.000Z</time>
      </trkpt>
      <trkpt lat="47.57223" lon="6.80731">
        <ele>406</ele>
        <time>2016-07-17T08:18:33.000Z</time>
      </trkpt>
      <trkpt lat="47.57228" lon="6.80739">
        <ele>406</ele>
        <time>2016-07-17T08:18:34.000Z</time>
      </trkpt>
      <trkpt lat="47.57232" lon="6.80747">
        <ele>405</ele>
        <time>2016-07-17T08:18:35.000Z</time>
      </trkpt>
      <trkpt lat="47.57236" lon="6.80753">
        <ele>404</ele>
        <time>2016-07-17T08:18:36.000Z</time>
      </trkpt>
      <trkpt lat="47.5724" lon="6.80761">
        <ele>404</ele>
        <time>2016-07-17T08:18:37.000Z</time>
      </trkpt>
      <trkpt lat="47.57245" lon="6.80769">
        <ele>404</ele>
        <time>2016-07-17T08:18:38.000Z</time>
      </trkpt>
      <trkpt lat="47.57249" lon="6.80776">
        <ele>404</ele>
        <time>2016-07-17T08:18:39.000Z</time>
      </trkpt>
      <trkpt lat="47.57252" lon="6.80784">
        <ele>400</ele>
        <time>2016-07-17T08:18:40.000Z</time>
      </trkpt>
      <trkpt lat="47.57254" lon="6.80792">
        <ele>400</ele>
        <time>2016-07-17T08:18:41.000Z</time>
      </trkpt>
      <trkpt lat="47.57259" lon="6.80804">
        <ele>399</ele>
        <time>2016-07-17T08:18:42.000Z</time>
      </trkpt>
      <trkpt lat="47.57259" lon="6.80812">
        <ele>399</ele>
        <time>2016-07-17T08:18:43.000Z</time>
      </trkpt>
      <trkpt lat="47.5726" lon="6.80821">
        <ele>399</ele>
        <time>2016-07-17T08:18:44.000Z</time>
      </trkpt>
      <trkpt lat="47.57264" lon="6.80833">
        <ele>399</ele>
        <time>2016-07-17T08:18:45.000Z</time>
      </trkpt>
      <trkpt lat="47.57267" lon="6.80842">
        <ele>396</ele>
        <time>2016-07-17T08:18:46.000Z</time>
      </trkpt>
      <trkpt lat="47.57271" lon="6.80852">
        <ele>396</ele>
        <time>2016-07-17T08:18:47.000Z</time>
      </trkpt>
      <trkpt lat="47.57276" lon="6.80859">
        <ele>396</ele>
        <time>2016-07-17T08:18:48.000Z</time>
      </trkpt>
      <trkpt lat="47.57282" lon="6.80871">
        <ele>395</ele>
        <time>2016-07-17T08:18:49.000Z</time>
      </trkpt>
      <trkpt lat="47.57289" lon="6.80883">
        <ele>395</ele>
        <time>2016-07-17T08:18:50.000Z</time>
      </trkpt>
      <trkpt lat="47.57294" lon="6.80894">
        <ele>395</ele>
        <time>2016-07-17T08:18:51.000Z</time>
      </trkpt>
      <trkpt lat="47.57298" lon="6.80901">
        <ele>394</ele>
        <time>2016-07-17T08:18:52.000Z</time>
      </trkpt>
      <trkpt lat="47.57304" lon="6.80909">
        <ele>394</ele>
        <time>2016-07-17T08:18:53.000Z</time>
      </trkpt>
      <trkpt lat="47.57309" lon="6.80918">
        <ele>392</ele>
        <time>2016-07-17T08:18:54.000Z</time>
      </trkpt>
      <trkpt lat="47.57314" lon="6.80927">
        <ele>392</ele>
        <time>2016-07-17T08:18:55.000Z</time>
      </trkpt>
      <trkpt lat="47.57317" lon="6.80936">
        <ele>392</ele>
        <time>2016-07-17T08:18:56.000Z</time>
      </trkpt>
      <trkpt lat="47.5732" lon="6.80944">
        <ele>392</ele>
        <time>2016-07-17T08:18:57.000Z</time>
      </trkpt>
      <trkpt lat="47.57323" lon="6.80951">
        <ele>392</ele>
        <time>2016-07-17T08:18:58.000Z</time>
      </trkpt>
      <trkpt lat="47.57324" lon="6.80958">
        <ele>392</ele>
        <time>2016-07-17T08:18:59.000Z</time>
      </trkpt>
      <trkpt lat="47.57324" lon="6.80964">
        <ele>392</ele>
        <time>2016-07-17T08:19:00.000Z</time>
      </trkpt>
      <trkpt lat="47.57325" lon="6.8097">
        <ele>392</ele>
        <time>2016-07-17T08:19:01.000Z</time>
      </trkpt>
      <trkpt lat="47.57325" lon="6.80974">
        <ele>391</ele>
        <time>2016-07-17T08:19:02.000Z</time>
      </trkpt>
      <trkpt lat="47.57325" lon="6.80978">
        <ele>391</ele>
        <time>2016-07-17T08:19:03.000Z</time>
      </trkpt>
      <trkpt lat="47.57325" lon="6.80982">
        <ele>391</ele>
        <time>2016-07-17T08:19:04.000Z</time>
      </trkpt>
      <trkpt lat="47.57326" lon="6.80985">
        <ele>391</ele>
        <time>2016-07-17T08:19:05.000Z</time>
      </trkpt>
      <trkpt lat="47.57328" lon="6.80988">
        <ele>391</ele>
        <time>2016-07-17T08:19:06.000Z</time>
      </trkpt>
      <trkpt lat="47.57328" lon="6.80992">
        <ele>391</ele>
        <time>2016-07-17T08:19:07.000Z</time>
      </trkpt>
      <trkpt lat="47.57329" lon="6.80996">
        <ele>391</ele>
        <time>2016-07-17T08:19:08.000Z</time>
      </trkpt>
      <trkpt lat="47.57329" lon="6.80999">
        <ele>390</ele>
        <time>2016-07-17T08:19:09.000Z</time>
      </trkpt>
      <trkpt lat="47.57332" lon="6.81004">
        <ele>390</ele>
        <time>2016-07-17T08:19:11.000Z</time>
      </trkpt>
      <trkpt lat="47.57334" lon="6.81006">
        <ele>391</ele>
        <time>2016-07-17T08:19:12.000Z</time>
      </trkpt>
      <trkpt lat="47.57337" lon="6.81006">
        <ele>391</ele>
        <time>2016-07-17T08:19:14.000Z</time>
      </trkpt>
      <trkpt lat="47.57339" lon="6.81004">
        <ele>391</ele>
        <time>2016-07-17T08:19:15.000Z</time>
      </trkpt>
      <trkpt lat="47.5734" lon="6.80999">
        <ele>391</ele>
        <time>2016-07-17T08:19:17.000Z</time>
      </trkpt>
      <trkpt lat="47.5734" lon="6.80996">
        <ele>392</ele>
        <time>2016-07-17T08:19:18.000Z</time>
      </trkpt>
      <trkpt lat="47.5734" lon="6.8099">
        <ele>392</ele>
        <time>2016-07-17T08:19:20.000Z</time>
      </trkpt>
      <trkpt lat="47.57341" lon="6.80987">
        <ele>393</ele>
        <time>2016-07-17T08:19:21.000Z</time>
      </trkpt>
      <trkpt lat="47.57342" lon="6.80982">
        <ele>393</ele>
        <time>2016-07-17T08:19:23.000Z</time>
      </trkpt>
      <trkpt lat="47.57343" lon="6.8098">
        <ele>393</ele>
        <time>2016-07-17T08:19:24.000Z</time>
      </trkpt>
      <trkpt lat="47.57345" lon="6.80975">
        <ele>394</ele>
        <time>2016-07-17T08:19:26.000Z</time>
      </trkpt>
      <trkpt lat="47.57346" lon="6.80973">
        <ele>394</ele>
        <time>2016-07-17T08:19:27.000Z</time>
      </trkpt>
      <trkpt lat="47.57349" lon="6.80969">
        <ele>394</ele>
        <time>2016-07-17T08:19:30.000Z</time>
      </trkpt>
      <trkpt lat="47.5735" lon="6.80967">
        <ele>394</ele>
        <time>2016-07-17T08:19:31.000Z</time>
      </trkpt>
      <trkpt lat="47.57352" lon="6.80964">
        <ele>394</ele>
        <time>2016-07-17T08:19:33.000Z</time>
      </trkpt>
      <trkpt lat="47.57353" lon="6.80962">
        <ele>395</ele>
        <time>2016-07-17T08:19:34.000Z</time>
      </trkpt>
      <trkpt lat="47.57355" lon="6.80958">
        <ele>395</ele>
        <time>2016-07-17T08:19:36.000Z</time>
      </trkpt>
      <trkpt lat="47.57357" lon="6.80957">
        <ele>395</ele>
        <time>2016-07-17T08:19:37.000Z</time>
      </trkpt>
      <trkpt lat="47.5736" lon="6.80953">
        <ele>395</ele>
        <time>2016-07-17T08:19:39.000Z</time>
      </trkpt>
      <trkpt lat="47.57361" lon="6.8095">
        <ele>395</ele>
        <time>2016-07-17T08:19:40.000Z</time>
      </trkpt>
      <trkpt lat="47.57364" lon="6.80945">
        <ele>395</ele>
        <time>2016-07-17T08:19:42.000Z</time>
      </trkpt>
      <trkpt lat="47.57365" lon="6.80943">
        <ele>395</ele>
        <time>2016-07-17T08:19:43.000Z</time>
      </trkpt>
      <trkpt lat="47.57367" lon="6.80941">
        <ele>395</ele>
        <time>2016-07-17T08:19:44.000Z</time>
      </trkpt>
      <trkpt lat="47.57369" lon="6.80939">
        <ele>395</ele>
        <time>2016-07-17T08:19:45.000Z</time>
      </trkpt>
      <trkpt lat="47.57372" lon="6.80937">
        <ele>396</ele>
        <time>2016-07-17T08:19:46.000Z</time>
      </trkpt>
      <trkpt lat="47.57374" lon="6.80935">
        <ele>396</ele>
        <time>2016-07-17T08:19:47.000Z</time>
      </trkpt>
      <trkpt lat="47.57375" lon="6.80932">
        <ele>396</ele>
        <time>2016-07-17T08:19:48.000Z</time>
      </trkpt>
      <trkpt lat="47.57377" lon="6.80928">
        <ele>396</ele>
        <time>2016-07-17T08:19:49.000Z</time>
      </trkpt>
      <trkpt lat="47.57379" lon="6.80925">
        <ele>396</ele>
        <time>2016-07-17T08:19:50.000Z</time>
      </trkpt>
      <trkpt lat="47.57381" lon="6.80922">
        <ele>396</ele>
        <time>2016-07-17T08:19:51.000Z</time>
      </trkpt>
      <trkpt lat="47.57382" lon="6.80919">
        <ele>396</ele>
        <time>2016-07-17T08:19:52.000Z</time>
      </trkpt>
      <trkpt lat="47.57384" lon="6.80915">
        <ele>397</ele>
        <time>2016-07-17T08:19:53.000Z</time>
      </trkpt>
      <trkpt lat="47.57385" lon="6.80912">
        <ele>397</ele>
        <time>2016-07-17T08:19:54.000Z</time>
      </trkpt>
      <trkpt lat="47.57386" lon="6.80909">
        <ele>397</ele>
        <time>2016-07-17T08:19:55.000Z</time>
      </trkpt>
      <trkpt lat="47.57388" lon="6.80906">
        <ele>397</ele>
        <time>2016-07-17T08:19:56.000Z</time>
      </trkpt>
      <trkpt lat="47.5739" lon="6.80903">
        <ele>398</ele>
        <time>2016-07-17T08:19:57.000Z</time>
      </trkpt>
      <trkpt lat="47.57392" lon="6.809">
        <ele>398</ele>
        <time>2016-07-17T08:19:58.000Z</time>
      </trkpt>
      <trkpt lat="47.57394" lon="6.80896">
        <ele>398</ele>
        <time>2016-07-17T08:19:59.000Z</time>
      </trkpt>
      <trkpt lat="47.57395" lon="6.80893">
        <ele>398</ele>
        <time>2016-07-17T08:20:00.000Z</time>
      </trkpt>
      <trkpt lat="47.57396" lon="6.80889">
        <ele>398</ele>
        <time>2016-07-17T08:20:01.000Z</time>
      </trkpt>
      <trkpt lat="47.57398" lon="6.80886">
        <ele>398</ele>
        <time>2016-07-17T08:20:02.000Z</time>
      </trkpt>
      <trkpt lat="47.57399" lon="6.80883">
        <ele>398</ele>
        <time>2016-07-17T08:20:03.000Z</time>
      </trkpt>
      <trkpt lat="47.57401" lon="6.80878">
        <ele>398</ele>
        <time>2016-07-17T08:20:05.000Z</time>
      </trkpt>
      <trkpt lat="47.57403" lon="6.80876">
        <ele>398</ele>
        <time>2016-07-17T08:20:06.000Z</time>
      </trkpt>
      <trkpt lat="47.57406" lon="6.80872">
        <ele>398</ele>
        <time>2016-07-17T08:20:08.000Z</time>
      </trkpt>
      <trkpt lat="47.57408" lon="6.80871">
        <ele>398</ele>
        <time>2016-07-17T08:20:09.000Z</time>
      </trkpt>
      <trkpt lat="47.5741" lon="6.80867">
        <ele>398</ele>
        <time>2016-07-17T08:20:11.000Z</time>
      </trkpt>
      <trkpt lat="47.5741" lon="6.80865">
        <ele>398</ele>
        <time>2016-07-17T08:20:12.000Z</time>
      </trkpt>
      <trkpt lat="47.57413" lon="6.80862">
        <ele>398</ele>
        <time>2016-07-17T08:20:14.000Z</time>
      </trkpt>
      <trkpt lat="47.57415" lon="6.8086">
        <ele>398</ele>
        <time>2016-07-17T08:20:15.000Z</time>
      </trkpt>
      <trkpt lat="47.57417" lon="6.80858">
        <ele>403</ele>
        <time>2016-07-17T08:20:16.000Z</time>
      </trkpt>
      <trkpt lat="47.57419" lon="6.80856">
        <ele>403</ele>
        <time>2016-07-17T08:20:17.000Z</time>
      </trkpt>
      <trkpt lat="47.57422" lon="6.80851">
        <ele>403</ele>
        <time>2016-07-17T08:20:19.000Z</time>
      </trkpt>
      <trkpt lat="47.57423" lon="6.8085">
        <ele>403</ele>
        <time>2016-07-17T08:20:20.000Z</time>
      </trkpt>
      <trkpt lat="47.57425" lon="6.80845">
        <ele>403</ele>
        <time>2016-07-17T08:20:22.000Z</time>
      </trkpt>
      <trkpt lat="47.57426" lon="6.80843">
        <ele>403</ele>
        <time>2016-07-17T08:20:23.000Z</time>
      </trkpt>
      <trkpt lat="47.57427" lon="6.8084">
        <ele>402</ele>
        <time>2016-07-17T08:20:24.000Z</time>
      </trkpt>
      <trkpt lat="47.57429" lon="6.80837">
        <ele>403</ele>
        <time>2016-07-17T08:20:25.000Z</time>
      </trkpt>
      <trkpt lat="47.5743" lon="6.80834">
        <ele>403</ele>
        <time>2016-07-17T08:20:26.000Z</time>
      </trkpt>
      <trkpt lat="47.57431" lon="6.80832">
        <ele>404</ele>
        <time>2016-07-17T08:20:27.000Z</time>
      </trkpt>
      <trkpt lat="47.57433" lon="6.80829">
        <ele>404</ele>
        <time>2016-07-17T08:20:28.000Z</time>
      </trkpt>
      <trkpt lat="47.57434" lon="6.80827">
        <ele>405</ele>
        <time>2016-07-17T08:20:29.000Z</time>
      </trkpt>
      <trkpt lat="47.57436" lon="6.80824">
        <ele>405</ele>
        <time>2016-07-17T08:20:30.000Z</time>
      </trkpt>
      <trkpt lat="47.57437" lon="6.80821">
        <ele>405</ele>
        <time>2016-07-17T08:20:31.000Z</time>
      </trkpt>
      <trkpt lat="47.57439" lon="6.80816">
        <ele>406</ele>
        <time>2016-07-17T08:20:33.000Z</time>
      </trkpt>
      <trkpt lat="47.57439" lon="6.80813">
        <ele>406</ele>
        <time>2016-07-17T08:20:34.000Z</time>
      </trkpt>
      <trkpt lat="47.5744" lon="6.80808">
        <ele>406</ele>
        <time>2016-07-17T08:20:36.000Z</time>
      </trkpt>
      <trkpt lat="47.57441" lon="6.80806">
        <ele>407</ele>
        <time>2016-07-17T08:20:37.000Z</time>
      </trkpt>
      <trkpt lat="47.57443" lon="6.80801">
        <ele>407</ele>
        <time>2016-07-17T08:20:39.000Z</time>
      </trkpt>
      <trkpt lat="47.57443" lon="6.80798">
        <ele>407</ele>
        <time>2016-07-17T08:20:40.000Z</time>
      </trkpt>
      <trkpt lat="47.57442" lon="6.80792">
        <ele>407</ele>
        <time>2016-07-17T08:20:42.000Z</time>
      </trkpt>
      <trkpt lat="47.57442" lon="6.80789">
        <ele>407</ele>
        <time>2016-07-17T08:20:43.000Z</time>
      </trkpt>
      <trkpt lat="47.57441" lon="6.80785">
        <ele>407</ele>
        <time>2016-07-17T08:20:44.000Z</time>
      </trkpt>
      <trkpt lat="47.57441" lon="6.80781">
        <ele>407</ele>
        <time>2016-07-17T08:20:45.000Z</time>
      </trkpt>
      <trkpt lat="47.5744" lon="6.80777">
        <ele>408</ele>
        <time>2016-07-17T08:20:46.000Z</time>
      </trkpt>
      <trkpt lat="47.5744" lon="6.80773">
        <ele>408</ele>
        <time>2016-07-17T08:20:47.000Z</time>
      </trkpt>
      <trkpt lat="47.57439" lon="6.80769">
        <ele>408</ele>
        <time>2016-07-17T08:20:48.000Z</time>
      </trkpt>
      <trkpt lat="47.57438" lon="6.80765">
        <ele>407</ele>
        <time>2016-07-17T08:20:49.000Z</time>
      </trkpt>
      <trkpt lat="47.57438" lon="6.8076">
        <ele>407</ele>
        <time>2016-07-17T08:20:50.000Z</time>
      </trkpt>
      <trkpt lat="47.57437" lon="6.80755">
        <ele>407</ele>
        <time>2016-07-17T08:20:51.000Z</time>
      </trkpt>
      <trkpt lat="47.57436" lon="6.80749">
        <ele>409</ele>
        <time>2016-07-17T08:20:52.000Z</time>
      </trkpt>
      <trkpt lat="47.57435" lon="6.80743">
        <ele>409</ele>
        <time>2016-07-17T08:20:53.000Z</time>
      </trkpt>
      <trkpt lat="47.57435" lon="6.80736">
        <ele>410</ele>
        <time>2016-07-17T08:20:54.000Z</time>
      </trkpt>
      <trkpt lat="47.57435" lon="6.8073">
        <ele>410</ele>
        <time>2016-07-17T08:20:55.000Z</time>
      </trkpt>
      <trkpt lat="47.57435" lon="6.80723">
        <ele>410</ele>
        <time>2016-07-17T08:20:56.000Z</time>
      </trkpt>
      <trkpt lat="47.57435" lon="6.80717">
        <ele>411</ele>
        <time>2016-07-17T08:20:57.000Z</time>
      </trkpt>
      <trkpt lat="47.57435" lon="6.80711">
        <ele>411</ele>
        <time>2016-07-17T08:20:58.000Z</time>
      </trkpt>
      <trkpt lat="47.57435" lon="6.80705">
        <ele>411</ele>
        <time>2016-07-17T08:20:59.000Z</time>
      </trkpt>
      <trkpt lat="47.57435" lon="6.80699">
        <ele>411</ele>
        <time>2016-07-17T08:21:00.000Z</time>
      </trkpt>
      <trkpt lat="47.57435" lon="6.80693">
        <ele>412</ele>
        <time>2016-07-17T08:21:01.000Z</time>
      </trkpt>
      <trkpt lat="47.57436" lon="6.80688">
        <ele>412</ele>
        <time>2016-07-17T08:21:02.000Z</time>
      </trkpt>
      <trkpt lat="47.57436" lon="6.80682">
        <ele>412</ele>
        <time>2016-07-17T08:21:03.000Z</time>
      </trkpt>
      <trkpt lat="47.57437" lon="6.80677">
        <ele>412</ele>
        <time>2016-07-17T08:21:04.000Z</time>
      </trkpt>
      <trkpt lat="47.57439" lon="6.80673">
        <ele>412</ele>
        <time>2016-07-17T08:21:05.000Z</time>
      </trkpt>
      <trkpt lat="47.5744" lon="6.80668">
        <ele>412</ele>
        <time>2016-07-17T08:21:06.000Z</time>
      </trkpt>
      <trkpt lat="47.57442" lon="6.80663">
        <ele>413</ele>
        <time>2016-07-17T08:21:07.000Z</time>
      </trkpt>
      <trkpt lat="47.57443" lon="6.80658">
        <ele>413</ele>
        <time>2016-07-17T08:21:08.000Z</time>
      </trkpt>
      <trkpt lat="47.57444" lon="6.80653">
        <ele>413</ele>
        <time>2016-07-17T08:21:09.000Z</time>
      </trkpt>
      <trkpt lat="47.57445" lon="6.80647">
        <ele>413</ele>
        <time>2016-07-17T08:21:10.000Z</time>
      </trkpt>
      <trkpt lat="47.57447" lon="6.80642">
        <ele>413</ele>
        <time>2016-07-17T08:21:11.000Z</time>
      </trkpt>
      <trkpt lat="47.57448" lon="6.80636">
        <ele>413</ele>
        <time>2016-07-17T08:21:12.000Z</time>
      </trkpt>
      <trkpt lat="47.5745" lon="6.80631">
        <ele>413</ele>
        <time>2016-07-17T08:21:13.000Z</time>
      </trkpt>
      <trkpt lat="47.57451" lon="6.80625">
        <ele>413</ele>
        <time>2016-07-17T08:21:14.000Z</time>
      </trkpt>
      <trkpt lat="47.57453" lon="6.8062">
        <ele>413</ele>
        <time>2016-07-17T08:21:15.000Z</time>
      </trkpt>
      <trkpt lat="47.57454" lon="6.80615">
        <ele>413</ele>
        <time>2016-07-17T08:21:16.000Z</time>
      </trkpt>
      <trkpt lat="47.57456" lon="6.80609">
        <ele>413</ele>
        <time>2016-07-17T08:21:17.000Z</time>
      </trkpt>
      <trkpt lat="47.57457" lon="6.80604">
        <ele>413</ele>
        <time>2016-07-17T08:21:18.000Z</time>
      </trkpt>
      <trkpt lat="47.57459" lon="6.80599">
        <ele>413</ele>
        <time>2016-07-17T08:21:19.000Z</time>
      </trkpt>
      <trkpt lat="47.5746" lon="6.80594">
        <ele>413</ele>
        <time>2016-07-17T08:21:20.000Z</time>
      </trkpt>
      <trkpt lat="47.57461" lon="6.80588">
        <ele>413</ele>
        <time>2016-07-17T08:21:21.000Z</time>
      </trkpt>
      <trkpt lat="47.57462" lon="6.80583">
        <ele>412</ele>
        <time>2016-07-17T08:21:22.000Z</time>
      </trkpt>
      <trkpt lat="47.57463" lon="6.80578">
        <ele>412</ele>
        <time>2016-07-17T08:21:23.000Z</time>
      </trkpt>
      <trkpt lat="47.57465" lon="6.80573">
        <ele>412</ele>
        <time>2016-07-17T08:21:24.000Z</time>
      </trkpt>
      <trkpt lat="47.57467" lon="6.80569">
        <ele>412</ele>
        <time>2016-07-17T08:21:25.000Z</time>
      </trkpt>
      <trkpt lat="47.57469" lon="6.80565">
        <ele>412</ele>
        <time>2016-07-17T08:21:26.000Z</time>
      </trkpt>
      <trkpt lat="47.57471" lon="6.80561">
        <ele>412</ele>
        <time>2016-07-17T08:21:27.000Z</time>
      </trkpt>
      <trkpt lat="47.57473" lon="6.80558">
        <ele>412</ele>
        <time>2016-07-17T08:21:28.000Z</time>
      </trkpt>
      <trkpt lat="47.57475" lon="6.80554">
        <ele>412</ele>
        <time>2016-07-17T08:21:29.000Z</time>
      </trkpt>
      <trkpt lat="47.57477" lon="6.8055">
        <ele>411</ele>
        <time>2016-07-17T08:21:30.000Z</time>
      </trkpt>
      <trkpt lat="47.57479" lon="6.80545">
        <ele>411</ele>
        <time>2016-07-17T08:21:31.000Z</time>
      </trkpt>
      <trkpt lat="47.57481" lon="6.80541">
        <ele>411</ele>
        <time>2016-07-17T08:21:32.000Z</time>
      </trkpt>
      <trkpt lat="47.57483" lon="6.80537">
        <ele>411</ele>
        <time>2016-07-17T08:21:33.000Z</time>
      </trkpt>
      <trkpt lat="47.57485" lon="6.80533">
        <ele>411</ele>
        <time>2016-07-17T08:21:34.000Z</time>
      </trkpt>
      <trkpt lat="47.57488" lon="6.8053">
        <ele>411</ele>
        <time>2016-07-17T08:21:35.000Z</time>
      </trkpt>
      <trkpt lat="47.57489" lon="6.80526">
        <ele>411</ele>
        <time>2016-07-17T08:21:36.000Z</time>
      </trkpt>
      <trkpt lat="47.57491" lon="6.80522">
        <ele>411</ele>
        <time>2016-07-17T08:21:37.000Z</time>
      </trkpt>
      <trkpt lat="47.57492" lon="6.80517">
        <ele>411</ele>
        <time>2016-07-17T08:21:38.000Z</time>
      </trkpt>
      <trkpt lat="47.57494" lon="6.80513">
        <ele>411</ele>
        <time>2016-07-17T08:21:39.000Z</time>
      </trkpt>
      <trkpt lat="47.57496" lon="6.80509">
        <ele>410</ele>
        <time>2016-07-17T08:21:40.000Z</time>
      </trkpt>
      <trkpt lat="47.57498" lon="6.80505">
        <ele>410</ele>
        <time>2016-07-17T08:21:41.000Z</time>
      </trkpt>
      <trkpt lat="47.57499" lon="6.80501">
        <ele>410</ele>
        <time>2016-07-17T08:21:42.000Z</time>
      </trkpt>
      <trkpt lat="47.57501" lon="6.80497">
        <ele>410</ele>
        <time>2016-07-17T08:21:43.000Z</time>
      </trkpt>
      <trkpt lat="47.57503" lon="6.80494">
        <ele>410</ele>
        <time>2016-07-17T08:21:44.000Z</time>
      </trkpt>
      <trkpt lat="47.57505" lon="6.80491">
        <ele>411</ele>
        <time>2016-07-17T08:21:45.000Z</time>
      </trkpt>
      <trkpt lat="47.57508" lon="6.80488">
        <ele>411</ele>
        <time>2016-07-17T08:21:46.000Z</time>
      </trkpt>
      <trkpt lat="47.5751" lon="6.80486">
        <ele>411</ele>
        <time>2016-07-17T08:21:47.000Z</time>
      </trkpt>
      <trkpt lat="47.57513" lon="6.80483">
        <ele>411</ele>
        <time>2016-07-17T08:21:48.000Z</time>
      </trkpt>
      <trkpt lat="47.57516" lon="6.80481">
        <ele>411</ele>
        <time>2016-07-17T08:21:49.000Z</time>
      </trkpt>
      <trkpt lat="47.57519" lon="6.80478">
        <ele>411</ele>
        <time>2016-07-17T08:21:50.000Z</time>
      </trkpt>
      <trkpt lat="47.57521" lon="6.80475">
        <ele>411</ele>
        <time>2016-07-17T08:21:51.000Z</time>
      </trkpt>
      <trkpt lat="47.57524" lon="6.80473">
        <ele>412</ele>
        <time>2016-07-17T08:21:52.000Z</time>
      </trkpt>
      <trkpt lat="47.57526" lon="6.8047">
        <ele>412</ele>
        <time>2016-07-17T08:21:53.000Z</time>
      </trkpt>
      <trkpt lat="47.57529" lon="6.80467">
        <ele>412</ele>
        <time>2016-07-17T08:21:54.000Z</time>
      </trkpt>
      <trkpt lat="47.57532" lon="6.80463">
        <ele>412</ele>
        <time>2016-07-17T08:21:55.000Z</time>
      </trkpt>
      <trkpt lat="47.57535" lon="6.8046">
        <ele>412</ele>
        <time>2016-07-17T08:21:56.000Z</time>
      </trkpt>
      <trkpt lat="47.57538" lon="6.80457">
        <ele>412</ele>
        <time>2016-07-17T08:21:57.000Z</time>
      </trkpt>
      <trkpt lat="47.57541" lon="6.80454">
        <ele>412</ele>
        <time>2016-07-17T08:21:58.000Z</time>
      </trkpt>
      <trkpt lat="47.57544" lon="6.80451">
        <ele>412</ele>
        <time>2016-07-17T08:21:59.000Z</time>
      </trkpt>
      <trkpt lat="47.57547" lon="6.80449">
        <ele>412</ele>
        <time>2016-07-17T08:22:00.000Z</time>
      </trkpt>
      <trkpt lat="47.57549" lon="6.80446">
        <ele>412</ele>
        <time>2016-07-17T08:22:01.000Z</time>
      </trkpt>
      <trkpt lat="47.57552" lon="6.80444">
        <ele>412</ele>
        <time>2016-07-17T08:22:02.000Z</time>
      </trkpt>
      <trkpt lat="47.57554" lon="6.80443">
        <ele>412</ele>
        <time>2016-07-17T08:22:03.000Z</time>
      </trkpt>
      <trkpt lat="47.57557" lon="6.80441">
        <ele>412</ele>
        <time>2016-07-17T08:22:04.000Z</time>
      </trkpt>
      <trkpt lat="47.57559" lon="6.80439">
        <ele>412</ele>
        <time>2016-07-17T08:22:05.000Z</time>
      </trkpt>
      <trkpt lat="47.57562" lon="6.80438">
        <ele>412</ele>
        <time>2016-07-17T08:22:06.000Z</time>
      </trkpt>
      <trkpt lat="47.57565" lon="6.80437">
        <ele>412</ele>
        <time>2016-07-17T08:22:07.000Z</time>
      </trkpt>
      <trkpt lat="47.57569" lon="6.80435">
        <ele>412</ele>
        <time>2016-07-17T08:22:08.000Z</time>
      </trkpt>
      <trkpt lat="47.57572" lon="6.80434">
        <ele>413</ele>
        <time>2016-07-17T08:22:09.000Z</time>
      </trkpt>
      <trkpt lat="47.57575" lon="6.80433">
        <ele>413</ele>
        <time>2016-07-17T08:22:10.000Z</time>
      </trkpt>
      <trkpt lat="47.57577" lon="6.80433">
        <ele>413</ele>
        <time>2016-07-17T08:22:11.000Z</time>
      </trkpt>
      <trkpt lat="47.5758" lon="6.80432">
        <ele>413</ele>
        <time>2016-07-17T08:22:12.000Z</time>
      </trkpt>
      <trkpt lat="47.57583" lon="6.80431">
        <ele>413</ele>
        <time>2016-07-17T08:22:13.000Z</time>
      </trkpt>
      <trkpt lat="47.57586" lon="6.80431">
        <ele>415</ele>
        <time>2016-07-17T08:22:14.000Z</time>
      </trkpt>
      <trkpt lat="47.57589" lon="6.80431">
        <ele>416</ele>
        <time>2016-07-17T08:22:15.000Z</time>
      </trkpt>
      <trkpt lat="47.57593" lon="6.80431">
        <ele>416</ele>
        <time>2016-07-17T08:22:16.000Z</time>
      </trkpt>
      <trkpt lat="47.57596" lon="6.80432">
        <ele>416</ele>
        <time>2016-07-17T08:22:17.000Z</time>
      </trkpt>
      <trkpt lat="47.57599" lon="6.80433">
        <ele>416</ele>
        <time>2016-07-17T08:22:18.000Z</time>
      </trkpt>
      <trkpt lat="47.57601" lon="6.80433">
        <ele>417</ele>
        <time>2016-07-17T08:22:19.000Z</time>
      </trkpt>
      <trkpt lat="47.57604" lon="6.80435">
        <ele>417</ele>
        <time>2016-07-17T08:22:20.000Z</time>
      </trkpt>
      <trkpt lat="47.57608" lon="6.80436">
        <ele>417</ele>
        <time>2016-07-17T08:22:21.000Z</time>
      </trkpt>
      <trkpt lat="47.57611" lon="6.80436">
        <ele>418</ele>
        <time>2016-07-17T08:22:22.000Z</time>
      </trkpt>
      <trkpt lat="47.57614" lon="6.80437">
        <ele>418</ele>
        <time>2016-07-17T08:22:23.000Z</time>
      </trkpt>
      <trkpt lat="47.57617" lon="6.80437">
        <ele>418</ele>
        <time>2016-07-17T08:22:24.000Z</time>
      </trkpt>
      <trkpt lat="47.5762" lon="6.80437">
        <ele>418</ele>
        <time>2016-07-17T08:22:25.000Z</time>
      </trkpt>
      <trkpt lat="47.57623" lon="6.80437">
        <ele>418</ele>
        <time>2016-07-17T08:22:26.000Z</time>
      </trkpt>
      <trkpt lat="47.57627" lon="6.80438">
        <ele>419</ele>
        <time>2016-07-17T08:22:27.000Z</time>
      </trkpt>
      <trkpt lat="47.5763" lon="6.80438">
        <ele>419</ele>
        <time>2016-07-17T08:22:28.000Z</time>
      </trkpt>
      <trkpt lat="47.57633" lon="6.8044">
        <ele>419</ele>
        <time>2016-07-17T08:22:29.000Z</time>
      </trkpt>
      <trkpt lat="47.57635" lon="6.80441">
        <ele>419</ele>
        <time>2016-07-17T08:22:30.000Z</time>
      </trkpt>
      <trkpt lat="47.57637" lon="6.80444">
        <ele>419</ele>
        <time>2016-07-17T08:22:31.000Z</time>
      </trkpt>
      <trkpt lat="47.57639" lon="6.80448">
        <ele>419</ele>
        <time>2016-07-17T08:22:33.000Z</time>
      </trkpt>
      <trkpt lat="47.57641" lon="6.8045">
        <ele>419</ele>
        <time>2016-07-17T08:22:34.000Z</time>
      </trkpt>
      <trkpt lat="47.57643" lon="6.8045">
        <ele>419</ele>
        <time>2016-07-17T08:22:35.000Z</time>
      </trkpt>
      <trkpt lat="47.57646" lon="6.80451">
        <ele>420</ele>
        <time>2016-07-17T08:22:36.000Z</time>
      </trkpt>
      <trkpt lat="47.57648" lon="6.80452">
        <ele>420</ele>
        <time>2016-07-17T08:22:37.000Z</time>
      </trkpt>
      <trkpt lat="47.57651" lon="6.80453">
        <ele>420</ele>
        <time>2016-07-17T08:22:38.000Z</time>
      </trkpt>
      <trkpt lat="47.57654" lon="6.80454">
        <ele>420</ele>
        <time>2016-07-17T08:22:39.000Z</time>
      </trkpt>
      <trkpt lat="47.57656" lon="6.80455">
        <ele>420</ele>
        <time>2016-07-17T08:22:40.000Z</time>
      </trkpt>
      <trkpt lat="47.57659" lon="6.80456">
        <ele>420</ele>
        <time>2016-07-17T08:22:41.000Z</time>
      </trkpt>
      <trkpt lat="47.57662" lon="6.80457">
        <ele>420</ele>
        <time>2016-07-17T08:22:42.000Z</time>
      </trkpt>
      <trkpt lat="47.57664" lon="6.80457">
        <ele>420</ele>
        <time>2016-07-17T08:22:43.000Z</time>
      </trkpt>
      <trkpt lat="47.57667" lon="6.80457">
        <ele>424</ele>
        <time>2016-07-17T08:22:44.000Z</time>
      </trkpt>
      <trkpt lat="47.5767" lon="6.80457">
        <ele>424</ele>
        <time>2016-07-17T08:22:45.000Z</time>
      </trkpt>
      <trkpt lat="47.57674" lon="6.80457">
        <ele>424</ele>
        <time>2016-07-17T08:22:46.000Z</time>
      </trkpt>
      <trkpt lat="47.57677" lon="6.80458">
        <ele>424</ele>
        <time>2016-07-17T08:22:47.000Z</time>
      </trkpt>
      <trkpt lat="47.57681" lon="6.8046">
        <ele>424</ele>
        <time>2016-07-17T08:22:48.000Z</time>
      </trkpt>
      <trkpt lat="47.57685" lon="6.8046">
        <ele>424</ele>
        <time>2016-07-17T08:22:49.000Z</time>
      </trkpt>
      <trkpt lat="47.57688" lon="6.80461">
        <ele>424</ele>
        <time>2016-07-17T08:22:50.000Z</time>
      </trkpt>
      <trkpt lat="47.57691" lon="6.80461">
        <ele>424</ele>
        <time>2016-07-17T08:22:51.000Z</time>
      </trkpt>
      <trkpt lat="47.57695" lon="6.80461">
        <ele>424</ele>
        <time>2016-07-17T08:22:52.000Z</time>
      </trkpt>
      <trkpt lat="47.57698" lon="6.80462">
        <ele>424</ele>
        <time>2016-07-17T08:22:53.000Z</time>
      </trkpt>
      <trkpt lat="47.57702" lon="6.80462">
        <ele>424</ele>
        <time>2016-07-17T08:22:54.000Z</time>
      </trkpt>
      <trkpt lat="47.57705" lon="6.80462">
        <ele>424</ele>
        <time>2016-07-17T08:22:55.000Z</time>
      </trkpt>
      <trkpt lat="47.57708" lon="6.80463">
        <ele>424</ele>
        <time>2016-07-17T08:22:56.000Z</time>
      </trkpt>
      <trkpt lat="47.57712" lon="6.80463">
        <ele>424</ele>
        <time>2016-07-17T08:22:57.000Z</time>
      </trkpt>
      <trkpt lat="47.57716" lon="6.80464">
        <ele>424</ele>
        <time>2016-07-17T08:22:58.000Z</time>
      </trkpt>
      <trkpt lat="47.57719" lon="6.80465">
        <ele>424</ele>
        <time>2016-07-17T08:22:59.000Z</time>
      </trkpt>
      <trkpt lat="47.57722" lon="6.80466">
        <ele>424</ele>
        <time>2016-07-17T08:23:00.000Z</time>
      </trkpt>
      <trkpt lat="47.57725" lon="6.80467">
        <ele>425</ele>
        <time>2016-07-17T08:23:01.000Z</time>
      </trkpt>
      <trkpt lat="47.57728" lon="6.80468">
        <ele>425</ele>
        <time>2016-07-17T08:23:02.000Z</time>
      </trkpt>
      <trkpt lat="47.57731" lon="6.8047">
        <ele>425</ele>
        <time>2016-07-17T08:23:03.000Z</time>
      </trkpt>
      <trkpt lat="47.57734" lon="6.80471">
        <ele>425</ele>
        <time>2016-07-17T08:23:04.000Z</time>
      </trkpt>
      <trkpt lat="47.57737" lon="6.80472">
        <ele>425</ele>
        <time>2016-07-17T08:23:05.000Z</time>
      </trkpt>
      <trkpt lat="47.5774" lon="6.80472">
        <ele>425</ele>
        <time>2016-07-17T08:23:06.000Z</time>
      </trkpt>
      <trkpt lat="47.57743" lon="6.80472">
        <ele>425</ele>
        <time>2016-07-17T08:23:07.000Z</time>
      </trkpt>
      <trkpt lat="47.57747" lon="6.80473">
        <ele>425</ele>
        <time>2016-07-17T08:23:08.000Z</time>
      </trkpt>
      <trkpt lat="47.5775" lon="6.80475">
        <ele>425</ele>
        <time>2016-07-17T08:23:09.000Z</time>
      </trkpt>
      <trkpt lat="47.57754" lon="6.80476">
        <ele>426</ele>
        <time>2016-07-17T08:23:10.000Z</time>
      </trkpt>
      <trkpt lat="47.57758" lon="6.80478">
        <ele>426</ele>
        <time>2016-07-17T08:23:11.000Z</time>
      </trkpt>
      <trkpt lat="47.57761" lon="6.80479">
        <ele>426</ele>
        <time>2016-07-17T08:23:12.000Z</time>
      </trkpt>
      <trkpt lat="47.57765" lon="6.8048">
        <ele>426</ele>
        <time>2016-07-17T08:23:13.000Z</time>
      </trkpt>
      <trkpt lat="47.57768" lon="6.80481">
        <ele>426</ele>
        <time>2016-07-17T08:23:14.000Z</time>
      </trkpt>
      <trkpt lat="47.57771" lon="6.80482">
        <ele>426</ele>
        <time>2016-07-17T08:23:15.000Z</time>
      </trkpt>
      <trkpt lat="47.57775" lon="6.80482">
        <ele>426</ele>
        <time>2016-07-17T08:23:16.000Z</time>
      </trkpt>
      <trkpt lat="47.57779" lon="6.80483">
        <ele>426</ele>
        <time>2016-07-17T08:23:17.000Z</time>
      </trkpt>
      <trkpt lat="47.57783" lon="6.80484">
        <ele>426</ele>
        <time>2016-07-17T08:23:18.000Z</time>
      </trkpt>
      <trkpt lat="47.57786" lon="6.80484">
        <ele>426</ele>
        <time>2016-07-17T08:23:19.000Z</time>
      </trkpt>
      <trkpt lat="47.5779" lon="6.80485">
        <ele>426</ele>
        <time>2016-07-17T08:23:20.000Z</time>
      </trkpt>
      <trkpt lat="47.57793" lon="6.80485">
        <ele>426</ele>
        <time>2016-07-17T08:23:21.000Z</time>
      </trkpt>
      <trkpt lat="47.57796" lon="6.80485">
        <ele>426</ele>
        <time>2016-07-17T08:23:22.000Z</time>
      </trkpt>
      <trkpt lat="47.578" lon="6.80485">
        <ele>426</ele>
        <time>2016-07-17T08:23:23.000Z</time>
      </trkpt>
      <trkpt lat="47.57805" lon="6.80484">
        <ele>425</ele>
        <time>2016-07-17T08:23:24.000Z</time>
      </trkpt>
      <trkpt lat="47.57809" lon="6.80483">
        <ele>425</ele>
        <time>2016-07-17T08:23:25.000Z</time>
      </trkpt>
      <trkpt lat="47.57813" lon="6.80483">
        <ele>425</ele>
        <time>2016-07-17T08:23:26.000Z</time>
      </trkpt>
      <trkpt lat="47.57817" lon="6.80484">
        <ele>425</ele>
        <time>2016-07-17T08:23:27.000Z</time>
      </trkpt>
      <trkpt lat="47.57821" lon="6.80485">
        <ele>425</ele>
        <time>2016-07-17T08:23:28.000Z</time>
      </trkpt>
      <trkpt lat="47.57825" lon="6.80486">
        <ele>425</ele>
        <time>2016-07-17T08:23:29.000Z</time>
      </trkpt>
      <trkpt lat="47.57829" lon="6.80487">
        <ele>425</ele>
        <time>2016-07-17T08:23:30.000Z</time>
      </trkpt>
      <trkpt lat="47.57833" lon="6.80488">
        <ele>425</ele>
        <time>2016-07-17T08:23:31.000Z</time>
      </trkpt>
      <trkpt lat="47.57837" lon="6.80487">
        <ele>425</ele>
        <time>2016-07-17T08:23:32.000Z</time>
      </trkpt>
      <trkpt lat="47.5784" lon="6.80487">
        <ele>425</ele>
        <time>2016-07-17T08:23:33.000Z</time>
      </trkpt>
      <trkpt lat="47.57843" lon="6.80486">
        <ele>425</ele>
        <time>2016-07-17T08:23:34.000Z</time>
      </trkpt>
      <trkpt lat="47.57846" lon="6.80486">
        <ele>425</ele>
        <time>2016-07-17T08:23:35.000Z</time>
      </trkpt>
      <trkpt lat="47.5785" lon="6.80485">
        <ele>425</ele>
        <time>2016-07-17T08:23:36.000Z</time>
      </trkpt>
      <trkpt lat="47.57854" lon="6.80484">
        <ele>425</ele>
        <time>2016-07-17T08:23:37.000Z</time>
      </trkpt>
      <trkpt lat="47.57859" lon="6.80484">
        <ele>425</ele>
        <time>2016-07-17T08:23:38.000Z</time>
      </trkpt>
      <trkpt lat="47.57863" lon="6.80484">
        <ele>426</ele>
        <time>2016-07-17T08:23:39.000Z</time>
      </trkpt>
      <trkpt lat="47.57866" lon="6.80485">
        <ele>426</ele>
        <time>2016-07-17T08:23:40.000Z</time>
      </trkpt>
      <trkpt lat="47.57869" lon="6.80486">
        <ele>426</ele>
        <time>2016-07-17T08:23:41.000Z</time>
      </trkpt>
      <trkpt lat="47.57873" lon="6.80486">
        <ele>426</ele>
        <time>2016-07-17T08:23:42.000Z</time>
      </trkpt>
      <trkpt lat="47.57876" lon="6.80486">
        <ele>426</ele>
        <time>2016-07-17T08:23:43.000Z</time>
      </trkpt>
      <trkpt lat="47.57879" lon="6.80487">
        <ele>426</ele>
        <time>2016-07-17T08:23:44.000Z</time>
      </trkpt>
      <trkpt lat="47.57882" lon="6.80488">
        <ele>426</ele>
        <time>2016-07-17T08:23:45.000Z</time>
      </trkpt>
      <trkpt lat="47.57886" lon="6.80488">
        <ele>426</ele>
        <time>2016-07-17T08:23:46.000Z</time>
      </trkpt>
      <trkpt lat="47.5789" lon="6.80488">
        <ele>425</ele>
        <time>2016-07-17T08:23:47.000Z</time>
      </trkpt>
      <trkpt lat="47.57893" lon="6.80488">
        <ele>425</ele>
        <time>2016-07-17T08:23:48.000Z</time>
      </trkpt>
      <trkpt lat="47.57897" lon="6.80488">
        <ele>425</ele>
        <time>2016-07-17T08:23:49.000Z</time>
      </trkpt>
      <trkpt lat="47.57901" lon="6.80488">
        <ele>425</ele>
        <time>2016-07-17T08:23:50.000Z</time>
      </trkpt>
      <trkpt lat="47.57904" lon="6.80487">
        <ele>425</ele>
        <time>2016-07-17T08:23:51.000Z</time>
      </trkpt>
      <trkpt lat="47.57908" lon="6.80486">
        <ele>425</ele>
        <time>2016-07-17T08:23:52.000Z</time>
      </trkpt>
      <trkpt lat="47.57918" lon="6.80484">
        <ele>426</ele>
        <time>2016-07-17T08:23:53.000Z</time>
      </trkpt>
      <trkpt lat="47.57922" lon="6.80481">
        <ele>427</ele>
        <time>2016-07-17T08:23:54.000Z</time>
      </trkpt>
      <trkpt lat="47.57925" lon="6.80478">
        <ele>427</ele>
        <time>2016-07-17T08:23:55.000Z</time>
      </trkpt>
      <trkpt lat="47.57928" lon="6.80476">
        <ele>427</ele>
        <time>2016-07-17T08:23:56.000Z</time>
      </trkpt>
      <trkpt lat="47.5793" lon="6.80472">
        <ele>427</ele>
        <time>2016-07-17T08:23:57.000Z</time>
      </trkpt>
      <trkpt lat="47.57932" lon="6.80469">
        <ele>428</ele>
        <time>2016-07-17T08:23:58.000Z</time>
      </trkpt>
      <trkpt lat="47.57933" lon="6.80466">
        <ele>428</ele>
        <time>2016-07-17T08:23:59.000Z</time>
      </trkpt>
      <trkpt lat="47.57935" lon="6.80463">
        <ele>428</ele>
        <time>2016-07-17T08:24:00.000Z</time>
      </trkpt>
      <trkpt lat="47.57937" lon="6.80459">
        <ele>428</ele>
        <time>2016-07-17T08:24:01.000Z</time>
      </trkpt>
      <trkpt lat="47.57939" lon="6.80454">
        <ele>428</ele>
        <time>2016-07-17T08:24:02.000Z</time>
      </trkpt>
      <trkpt lat="47.57941" lon="6.80451">
        <ele>429</ele>
        <time>2016-07-17T08:24:03.000Z</time>
      </trkpt>
      <trkpt lat="47.57944" lon="6.80448">
        <ele>429</ele>
        <time>2016-07-17T08:24:04.000Z</time>
      </trkpt>
      <trkpt lat="47.57947" lon="6.80444">
        <ele>429</ele>
        <time>2016-07-17T08:24:05.000Z</time>
      </trkpt>
      <trkpt lat="47.5795" lon="6.80441">
        <ele>429</ele>
        <time>2016-07-17T08:24:06.000Z</time>
      </trkpt>
      <trkpt lat="47.57953" lon="6.80437">
        <ele>429</ele>
        <time>2016-07-17T08:24:07.000Z</time>
      </trkpt>
      <trkpt lat="47.57956" lon="6.80432">
        <ele>429</ele>
        <time>2016-07-17T08:24:08.000Z</time>
      </trkpt>
      <trkpt lat="47.57959" lon="6.80427">
        <ele>429</ele>
        <time>2016-07-17T08:24:09.000Z</time>
      </trkpt>
      <trkpt lat="47.57961" lon="6.80421">
        <ele>430</ele>
        <time>2016-07-17T08:24:10.000Z</time>
      </trkpt>
      <trkpt lat="47.57963" lon="6.80415">
        <ele>430</ele>
        <time>2016-07-17T08:24:11.000Z</time>
      </trkpt>
      <trkpt lat="47.57966" lon="6.80408">
        <ele>430</ele>
        <time>2016-07-17T08:24:12.000Z</time>
      </trkpt>
      <trkpt lat="47.57969" lon="6.80401">
        <ele>430</ele>
        <time>2016-07-17T08:24:13.000Z</time>
      </trkpt>
      <trkpt lat="47.57971" lon="6.80394">
        <ele>430</ele>
        <time>2016-07-17T08:24:14.000Z</time>
      </trkpt>
      <trkpt lat="47.57974" lon="6.80387">
        <ele>430</ele>
        <time>2016-07-17T08:24:15.000Z</time>
      </trkpt>
      <trkpt lat="47.57979" lon="6.80372">
        <ele>429</ele>
        <time>2016-07-17T08:24:16.000Z</time>
      </trkpt>
      <trkpt lat="47.57983" lon="6.80364">
        <ele>429</ele>
        <time>2016-07-17T08:24:17.000Z</time>
      </trkpt>
      <trkpt lat="47.57988" lon="6.80356">
        <ele>429</ele>
        <time>2016-07-17T08:24:18.000Z</time>
      </trkpt>
      <trkpt lat="47.57992" lon="6.80349">
        <ele>428</ele>
        <time>2016-07-17T08:24:19.000Z</time>
      </trkpt>
      <trkpt lat="47.57996" lon="6.8034">
        <ele>428</ele>
        <time>2016-07-17T08:24:20.000Z</time>
      </trkpt>
      <trkpt lat="47.57999" lon="6.80334">
        <ele>427</ele>
        <time>2016-07-17T08:24:21.000Z</time>
      </trkpt>
      <trkpt lat="47.58004" lon="6.80325">
        <ele>425</ele>
        <time>2016-07-17T08:24:22.000Z</time>
      </trkpt>
      <trkpt lat="47.58008" lon="6.80317">
        <ele>424</ele>
        <time>2016-07-17T08:24:23.000Z</time>
      </trkpt>
      <trkpt lat="47.58012" lon="6.80309">
        <ele>423</ele>
        <time>2016-07-17T08:24:24.000Z</time>
      </trkpt>
      <trkpt lat="47.58014" lon="6.80299">
        <ele>422</ele>
        <time>2016-07-17T08:24:25.000Z</time>
      </trkpt>
      <trkpt lat="47.58017" lon="6.80291">
        <ele>421</ele>
        <time>2016-07-17T08:24:26.000Z</time>
      </trkpt>
      <trkpt lat="47.58019" lon="6.80281">
        <ele>421</ele>
        <time>2016-07-17T08:24:27.000Z</time>
      </trkpt>
      <trkpt lat="47.58019" lon="6.80268">
        <ele>420</ele>
        <time>2016-07-17T08:24:28.000Z</time>
      </trkpt>
      <trkpt lat="47.5802" lon="6.80257">
        <ele>419</ele>
        <time>2016-07-17T08:24:29.000Z</time>
      </trkpt>
      <trkpt lat="47.58021" lon="6.80247">
        <ele>416</ele>
        <time>2016-07-17T08:24:30.000Z</time>
      </trkpt>
      <trkpt lat="47.58021" lon="6.80236">
        <ele>416</ele>
        <time>2016-07-17T08:24:31.000Z</time>
      </trkpt>
      <trkpt lat="47.58021" lon="6.80225">
        <ele>415</ele>
        <time>2016-07-17T08:24:32.000Z</time>
      </trkpt>
      <trkpt lat="47.58022" lon="6.80213">
        <ele>415</ele>
        <time>2016-07-17T08:24:33.000Z</time>
      </trkpt>
      <trkpt lat="47.58022" lon="6.80203">
        <ele>415</ele>
        <time>2016-07-17T08:24:34.000Z</time>
      </trkpt>
      <trkpt lat="47.58024" lon="6.8019">
        <ele>414</ele>
        <time>2016-07-17T08:24:35.000Z</time>
      </trkpt>
      <trkpt lat="47.58025" lon="6.80179">
        <ele>414</ele>
        <time>2016-07-17T08:24:36.000Z</time>
      </trkpt>
      <trkpt lat="47.58028" lon="6.80168">
        <ele>414</ele>
        <time>2016-07-17T08:24:37.000Z</time>
      </trkpt>
      <trkpt lat="47.58031" lon="6.80158">
        <ele>412</ele>
        <time>2016-07-17T08:24:38.000Z</time>
      </trkpt>
      <trkpt lat="47.58034" lon="6.80149">
        <ele>411</ele>
        <time>2016-07-17T08:24:39.000Z</time>
      </trkpt>
      <trkpt lat="47.58037" lon="6.80139">
        <ele>411</ele>
        <time>2016-07-17T08:24:40.000Z</time>
      </trkpt>
      <trkpt lat="47.5804" lon="6.80129">
        <ele>411</ele>
        <time>2016-07-17T08:24:41.000Z</time>
      </trkpt>
      <trkpt lat="47.58042" lon="6.80119">
        <ele>411</ele>
        <time>2016-07-17T08:24:42.000Z</time>
      </trkpt>
      <trkpt lat="47.58043" lon="6.80108">
        <ele>410</ele>
        <time>2016-07-17T08:24:43.000Z</time>
      </trkpt>
      <trkpt lat="47.58045" lon="6.80097">
        <ele>410</ele>
        <time>2016-07-17T08:24:44.000Z</time>
      </trkpt>
      <trkpt lat="47.58044" lon="6.80087">
        <ele>410</ele>
        <time>2016-07-17T08:24:45.000Z</time>
      </trkpt>
      <trkpt lat="47.58044" lon="6.80076">
        <ele>408</ele>
        <time>2016-07-17T08:24:46.000Z</time>
      </trkpt>
      <trkpt lat="47.58043" lon="6.80066">
        <ele>408</ele>
        <time>2016-07-17T08:24:47.000Z</time>
      </trkpt>
      <trkpt lat="47.58041" lon="6.80056">
        <ele>408</ele>
        <time>2016-07-17T08:24:48.000Z</time>
      </trkpt>
      <trkpt lat="47.58039" lon="6.80046">
        <ele>408</ele>
        <time>2016-07-17T08:24:49.000Z</time>
      </trkpt>
      <trkpt lat="47.58036" lon="6.80037">
        <ele>408</ele>
        <time>2016-07-17T08:24:50.000Z</time>
      </trkpt>
      <trkpt lat="47.58036" lon="6.80031">
        <ele>408</ele>
        <time>2016-07-17T08:24:51.000Z</time>
      </trkpt>
      <trkpt lat="47.58035" lon="6.80022">
        <ele>408</ele>
        <time>2016-07-17T08:24:52.000Z</time>
      </trkpt>
      <trkpt lat="47.58033" lon="6.80011">
        <ele>408</ele>
        <time>2016-07-17T08:24:53.000Z</time>
      </trkpt>
      <trkpt lat="47.58032" lon="6.80001">
        <ele>408</ele>
        <time>2016-07-17T08:24:54.000Z</time>
      </trkpt>
      <trkpt lat="47.58033" lon="6.79991">
        <ele>407</ele>
        <time>2016-07-17T08:24:55.000Z</time>
      </trkpt>
      <trkpt lat="47.58034" lon="6.7998">
        <ele>407</ele>
        <time>2016-07-17T08:24:56.000Z</time>
      </trkpt>
      <trkpt lat="47.58035" lon="6.79968">
        <ele>406</ele>
        <time>2016-07-17T08:24:57.000Z</time>
      </trkpt>
      <trkpt lat="47.58037" lon="6.79956">
        <ele>406</ele>
        <time>2016-07-17T08:24:58.000Z</time>
      </trkpt>
      <trkpt lat="47.58038" lon="6.79944">
        <ele>406</ele>
        <time>2016-07-17T08:24:59.000Z</time>
      </trkpt>
      <trkpt lat="47.58039" lon="6.79931">
        <ele>406</ele>
        <time>2016-07-17T08:25:00.000Z</time>
      </trkpt>
      <trkpt lat="47.58039" lon="6.79918">
        <ele>406</ele>
        <time>2016-07-17T08:25:01.000Z</time>
      </trkpt>
      <trkpt lat="47.5804" lon="6.79905">
        <ele>406</ele>
        <time>2016-07-17T08:25:02.000Z</time>
      </trkpt>
      <trkpt lat="47.5804" lon="6.79891">
        <ele>405</ele>
        <time>2016-07-17T08:25:03.000Z</time>
      </trkpt>
      <trkpt lat="47.5804" lon="6.79879">
        <ele>405</ele>
        <time>2016-07-17T08:25:04.000Z</time>
      </trkpt>
      <trkpt lat="47.5804" lon="6.79865">
        <ele>405</ele>
        <time>2016-07-17T08:25:05.000Z</time>
      </trkpt>
      <trkpt lat="47.5804" lon="6.79851">
        <ele>405</ele>
        <time>2016-07-17T08:25:06.000Z</time>
      </trkpt>
      <trkpt lat="47.5804" lon="6.79838">
        <ele>405</ele>
        <time>2016-07-17T08:25:07.000Z</time>
      </trkpt>
      <trkpt lat="47.5804" lon="6.79824">
        <ele>404</ele>
        <time>2016-07-17T08:25:08.000Z</time>
      </trkpt>
      <trkpt lat="47.5804" lon="6.7981">
        <ele>404</ele>
        <time>2016-07-17T08:25:09.000Z</time>
      </trkpt>
      <trkpt lat="47.5804" lon="6.79796">
        <ele>404</ele>
        <time>2016-07-17T08:25:10.000Z</time>
      </trkpt>
      <trkpt lat="47.58039" lon="6.79782">
        <ele>404</ele>
        <time>2016-07-17T08:25:11.000Z</time>
      </trkpt>
      <trkpt lat="47.58039" lon="6.79769">
        <ele>404</ele>
        <time>2016-07-17T08:25:12.000Z</time>
      </trkpt>
      <trkpt lat="47.58039" lon="6.79758">
        <ele>404</ele>
        <time>2016-07-17T08:25:13.000Z</time>
      </trkpt>
      <trkpt lat="47.58038" lon="6.7975">
        <ele>403</ele>
        <time>2016-07-17T08:25:14.000Z</time>
      </trkpt>
      <trkpt lat="47.58038" lon="6.79745">
        <ele>403</ele>
        <time>2016-07-17T08:25:15.000Z</time>
      </trkpt>
      <trkpt lat="47.58038" lon="6.79743">
        <ele>403</ele>
        <time>2016-07-17T08:25:16.000Z</time>
      </trkpt>
      <trkpt lat="47.5804" lon="6.79738">
        <ele>403</ele>
        <time>2016-07-17T08:25:31.000Z</time>
      </trkpt>
      <trkpt lat="47.58038" lon="6.79733">
        <ele>403</ele>
        <time>2016-07-17T08:25:32.000Z</time>
      </trkpt>
      <trkpt lat="47.58037" lon="6.79728">
        <ele>403</ele>
        <time>2016-07-17T08:25:33.000Z</time>
      </trkpt>
      <trkpt lat="47.58037" lon="6.79724">
        <ele>403</ele>
        <time>2016-07-17T08:25:34.000Z</time>
      </trkpt>
      <trkpt lat="47.58036" lon="6.79719">
        <ele>403</ele>
        <time>2016-07-17T08:25:35.000Z</time>
      </trkpt>
      <trkpt lat="47.58036" lon="6.7971">
        <ele>403</ele>
        <time>2016-07-17T08:25:36.000Z</time>
      </trkpt>
      <trkpt lat="47.58035" lon="6.79702">
        <ele>403</ele>
        <time>2016-07-17T08:25:37.000Z</time>
      </trkpt>
      <trkpt lat="47.58034" lon="6.79693">
        <ele>403</ele>
        <time>2016-07-17T08:25:38.000Z</time>
      </trkpt>
      <trkpt lat="47.58034" lon="6.79684">
        <ele>403</ele>
        <time>2016-07-17T08:25:39.000Z</time>
      </trkpt>
      <trkpt lat="47.58033" lon="6.79674">
        <ele>403</ele>
        <time>2016-07-17T08:25:40.000Z</time>
      </trkpt>
      <trkpt lat="47.58032" lon="6.79664">
        <ele>403</ele>
        <time>2016-07-17T08:25:41.000Z</time>
      </trkpt>
      <trkpt lat="47.58032" lon="6.79655">
        <ele>403</ele>
        <time>2016-07-17T08:25:42.000Z</time>
      </trkpt>
      <trkpt lat="47.5803" lon="6.79646">
        <ele>403</ele>
        <time>2016-07-17T08:25:43.000Z</time>
      </trkpt>
      <trkpt lat="47.58029" lon="6.79636">
        <ele>403</ele>
        <time>2016-07-17T08:25:44.000Z</time>
      </trkpt>
      <trkpt lat="47.58028" lon="6.79626">
        <ele>403</ele>
        <time>2016-07-17T08:25:45.000Z</time>
      </trkpt>
      <trkpt lat="47.58027" lon="6.79615">
        <ele>403</ele>
        <time>2016-07-17T08:25:46.000Z</time>
      </trkpt>
      <trkpt lat="47.58027" lon="6.79604">
        <ele>403</ele>
        <time>2016-07-17T08:25:47.000Z</time>
      </trkpt>
      <trkpt lat="47.58028" lon="6.79593">
        <ele>403</ele>
        <time>2016-07-17T08:25:48.000Z</time>
      </trkpt>
      <trkpt lat="47.58028" lon="6.79581">
        <ele>402</ele>
        <time>2016-07-17T08:25:49.000Z</time>
      </trkpt>
      <trkpt lat="47.58028" lon="6.79569">
        <ele>402</ele>
        <time>2016-07-17T08:25:50.000Z</time>
      </trkpt>
      <trkpt lat="47.58027" lon="6.79558">
        <ele>402</ele>
        <time>2016-07-17T08:25:51.000Z</time>
      </trkpt>
      <trkpt lat="47.58028" lon="6.79544">
        <ele>402</ele>
        <time>2016-07-17T08:25:52.000Z</time>
      </trkpt>
      <trkpt lat="47.58028" lon="6.79531">
        <ele>402</ele>
        <time>2016-07-17T08:25:53.000Z</time>
      </trkpt>
      <trkpt lat="47.58029" lon="6.79518">
        <ele>402</ele>
        <time>2016-07-17T08:25:54.000Z</time>
      </trkpt>
      <trkpt lat="47.58029" lon="6.79503">
        <ele>402</ele>
        <time>2016-07-17T08:25:55.000Z</time>
      </trkpt>
      <trkpt lat="47.58029" lon="6.79488">
        <ele>399</ele>
        <time>2016-07-17T08:25:56.000Z</time>
      </trkpt>
      <trkpt lat="47.58029" lon="6.79474">
        <ele>399</ele>
        <time>2016-07-17T08:25:57.000Z</time>
      </trkpt>
      <trkpt lat="47.58029" lon="6.7946">
        <ele>398</ele>
        <time>2016-07-17T08:25:58.000Z</time>
      </trkpt>
      <trkpt lat="47.58031" lon="6.79447">
        <ele>397</ele>
        <time>2016-07-17T08:25:59.000Z</time>
      </trkpt>
      <trkpt lat="47.58032" lon="6.79434">
        <ele>397</ele>
        <time>2016-07-17T08:26:00.000Z</time>
      </trkpt>
      <trkpt lat="47.58036" lon="6.79421">
        <ele>396</ele>
        <time>2016-07-17T08:26:01.000Z</time>
      </trkpt>
      <trkpt lat="47.58039" lon="6.79408">
        <ele>390</ele>
        <time>2016-07-17T08:26:02.000Z</time>
      </trkpt>
      <trkpt lat="47.58046" lon="6.79397">
        <ele>389</ele>
        <time>2016-07-17T08:26:03.000Z</time>
      </trkpt>
      <trkpt lat="47.58052" lon="6.79388">
        <ele>388</ele>
        <time>2016-07-17T08:26:04.000Z</time>
      </trkpt>
      <trkpt lat="47.58058" lon="6.7938">
        <ele>387</ele>
        <time>2016-07-17T08:26:05.000Z</time>
      </trkpt>
      <trkpt lat="47.58062" lon="6.79372">
        <ele>386</ele>
        <time>2016-07-17T08:26:06.000Z</time>
      </trkpt>
      <trkpt lat="47.58069" lon="6.79363">
        <ele>384</ele>
        <time>2016-07-17T08:26:07.000Z</time>
      </trkpt>
      <trkpt lat="47.58074" lon="6.79356">
        <ele>382</ele>
        <time>2016-07-17T08:26:08.000Z</time>
      </trkpt>
      <trkpt lat="47.5808" lon="6.79348">
        <ele>379</ele>
        <time>2016-07-17T08:26:09.000Z</time>
      </trkpt>
      <trkpt lat="47.58086" lon="6.79341">
        <ele>375</ele>
        <time>2016-07-17T08:26:10.000Z</time>
      </trkpt>
      <trkpt lat="47.58093" lon="6.79334">
        <ele>375</ele>
        <time>2016-07-17T08:26:11.000Z</time>
      </trkpt>
      <trkpt lat="47.58098" lon="6.79328">
        <ele>371</ele>
        <time>2016-07-17T08:26:12.000Z</time>
      </trkpt>
      <trkpt lat="47.58104" lon="6.79322">
        <ele>370</ele>
        <time>2016-07-17T08:26:13.000Z</time>
      </trkpt>
      <trkpt lat="47.58109" lon="6.79317">
        <ele>370</ele>
        <time>2016-07-17T08:26:14.000Z</time>
      </trkpt>
      <trkpt lat="47.58114" lon="6.79313">
        <ele>369</ele>
        <time>2016-07-17T08:26:15.000Z</time>
      </trkpt>
      <trkpt lat="47.58119" lon="6.7931">
        <ele>369</ele>
        <time>2016-07-17T08:26:16.000Z</time>
      </trkpt>
      <trkpt lat="47.58125" lon="6.79306">
        <ele>369</ele>
        <time>2016-07-17T08:26:17.000Z</time>
      </trkpt>
      <trkpt lat="47.58132" lon="6.79298">
        <ele>369</ele>
        <time>2016-07-17T08:26:18.000Z</time>
      </trkpt>
      <trkpt lat="47.58137" lon="6.79289">
        <ele>368</ele>
        <time>2016-07-17T08:26:19.000Z</time>
      </trkpt>
      <trkpt lat="47.58137" lon="6.79276">
        <ele>367</ele>
        <time>2016-07-17T08:26:20.000Z</time>
      </trkpt>
      <trkpt lat="47.58138" lon="6.79263">
        <ele>367</ele>
        <time>2016-07-17T08:26:21.000Z</time>
      </trkpt>
      <trkpt lat="47.58139" lon="6.7925">
        <ele>366</ele>
        <time>2016-07-17T08:26:22.000Z</time>
      </trkpt>
      <trkpt lat="47.58139" lon="6.79238">
        <ele>364</ele>
        <time>2016-07-17T08:26:23.000Z</time>
      </trkpt>
      <trkpt lat="47.5814" lon="6.79228">
        <ele>363</ele>
        <time>2016-07-17T08:26:24.000Z</time>
      </trkpt>
      <trkpt lat="47.58141" lon="6.7922">
        <ele>363</ele>
        <time>2016-07-17T08:26:25.000Z</time>
      </trkpt>
      <trkpt lat="47.58147" lon="6.79219">
        <ele>363</ele>
        <time>2016-07-17T08:26:26.000Z</time>
      </trkpt>
      <trkpt lat="47.58152" lon="6.79219">
        <ele>363</ele>
        <time>2016-07-17T08:26:27.000Z</time>
      </trkpt>
      <trkpt lat="47.58156" lon="6.79218">
        <ele>363</ele>
        <time>2016-07-17T08:26:28.000Z</time>
      </trkpt>
      <trkpt lat="47.5816" lon="6.79218">
        <ele>363</ele>
        <time>2016-07-17T08:26:29.000Z</time>
      </trkpt>
      <trkpt lat="47.58164" lon="6.79219">
        <ele>363</ele>
        <time>2016-07-17T08:26:30.000Z</time>
      </trkpt>
      <trkpt lat="47.58166" lon="6.79219">
        <ele>363</ele>
        <time>2016-07-17T08:26:31.000Z</time>
      </trkpt>
      <trkpt lat="47.58172" lon="6.7922">
        <ele>359</ele>
        <time>2016-07-17T08:26:32.000Z</time>
      </trkpt>
      <trkpt lat="47.58175" lon="6.79221">
        <ele>359</ele>
        <time>2016-07-17T08:26:33.000Z</time>
      </trkpt>
      <trkpt lat="47.5818" lon="6.79225">
        <ele>359</ele>
        <time>2016-07-17T08:26:34.000Z</time>
      </trkpt>
      <trkpt lat="47.58186" lon="6.79226">
        <ele>359</ele>
        <time>2016-07-17T08:26:35.000Z</time>
      </trkpt>
      <trkpt lat="47.58192" lon="6.79226">
        <ele>359</ele>
        <time>2016-07-17T08:26:36.000Z</time>
      </trkpt>
      <trkpt lat="47.58198" lon="6.79226">
        <ele>359</ele>
        <time>2016-07-17T08:26:37.000Z</time>
      </trkpt>
      <trkpt lat="47.58204" lon="6.79226">
        <ele>358</ele>
        <time>2016-07-17T08:26:38.000Z</time>
      </trkpt>
      <trkpt lat="47.5821" lon="6.79225">
        <ele>358</ele>
        <time>2016-07-17T08:26:39.000Z</time>
      </trkpt>
      <trkpt lat="47.58216" lon="6.79223">
        <ele>358</ele>
        <time>2016-07-17T08:26:40.000Z</time>
      </trkpt>
      <trkpt lat="47.58222" lon="6.79221">
        <ele>358</ele>
        <time>2016-07-17T08:26:41.000Z</time>
      </trkpt>
      <trkpt lat="47.58229" lon="6.79221">
        <ele>358</ele>
        <time>2016-07-17T08:26:42.000Z</time>
      </trkpt>
      <trkpt lat="47.58236" lon="6.7922">
        <ele>357</ele>
        <time>2016-07-17T08:26:43.000Z</time>
      </trkpt>
      <trkpt lat="47.58242" lon="6.7922">
        <ele>357</ele>
        <time>2016-07-17T08:26:44.000Z</time>
      </trkpt>
      <trkpt lat="47.58249" lon="6.79218">
        <ele>357</ele>
        <time>2016-07-17T08:26:45.000Z</time>
      </trkpt>
      <trkpt lat="47.58257" lon="6.79218">
        <ele>355</ele>
        <time>2016-07-17T08:26:46.000Z</time>
      </trkpt>
      <trkpt lat="47.58263" lon="6.79217">
        <ele>355</ele>
        <time>2016-07-17T08:26:47.000Z</time>
      </trkpt>
      <trkpt lat="47.5827" lon="6.79217">
        <ele>355</ele>
        <time>2016-07-17T08:26:48.000Z</time>
      </trkpt>
      <trkpt lat="47.58277" lon="6.79216">
        <ele>354</ele>
        <time>2016-07-17T08:26:49.000Z</time>
      </trkpt>
      <trkpt lat="47.58284" lon="6.79216">
        <ele>354</ele>
        <time>2016-07-17T08:26:50.000Z</time>
      </trkpt>
      <trkpt lat="47.58291" lon="6.79215">
        <ele>354</ele>
        <time>2016-07-17T08:26:51.000Z</time>
      </trkpt>
      <trkpt lat="47.58297" lon="6.79215">
        <ele>354</ele>
        <time>2016-07-17T08:26:52.000Z</time>
      </trkpt>
      <trkpt lat="47.58304" lon="6.79215">
        <ele>354</ele>
        <time>2016-07-17T08:26:53.000Z</time>
      </trkpt>
      <trkpt lat="47.5831" lon="6.79215">
        <ele>354</ele>
        <time>2016-07-17T08:26:54.000Z</time>
      </trkpt>
      <trkpt lat="47.58316" lon="6.79214">
        <ele>354</ele>
        <time>2016-07-17T08:26:55.000Z</time>
      </trkpt>
      <trkpt lat="47.58322" lon="6.79213">
        <ele>354</ele>
        <time>2016-07-17T08:26:56.000Z</time>
      </trkpt>
      <trkpt lat="47.58328" lon="6.79212">
        <ele>354</ele>
        <time>2016-07-17T08:26:57.000Z</time>
      </trkpt>
      <trkpt lat="47.58334" lon="6.79212">
        <ele>353</ele>
        <time>2016-07-17T08:26:58.000Z</time>
      </trkpt>
      <trkpt lat="47.58339" lon="6.79212">
        <ele>353</ele>
        <time>2016-07-17T08:26:59.000Z</time>
      </trkpt>
      <trkpt lat="47.58345" lon="6.79211">
        <ele>353</ele>
        <time>2016-07-17T08:27:00.000Z</time>
      </trkpt>
      <trkpt lat="47.5835" lon="6.7921">
        <ele>353</ele>
        <time>2016-07-17T08:27:01.000Z</time>
      </trkpt>
      <trkpt lat="47.58356" lon="6.7921">
        <ele>354</ele>
        <time>2016-07-17T08:27:02.000Z</time>
      </trkpt>
      <trkpt lat="47.58361" lon="6.7921">
        <ele>354</ele>
        <time>2016-07-17T08:27:03.000Z</time>
      </trkpt>
      <trkpt lat="47.58366" lon="6.79209">
        <ele>354</ele>
        <time>2016-07-17T08:27:04.000Z</time>
      </trkpt>
      <trkpt lat="47.58371" lon="6.79208">
        <ele>354</ele>
        <time>2016-07-17T08:27:05.000Z</time>
      </trkpt>
      <trkpt lat="47.58376" lon="6.79207">
        <ele>354</ele>
        <time>2016-07-17T08:27:06.000Z</time>
      </trkpt>
      <trkpt lat="47.58381" lon="6.79207">
        <ele>354</ele>
        <time>2016-07-17T08:27:07.000Z</time>
      </trkpt>
      <trkpt lat="47.58387" lon="6.79206">
        <ele>354</ele>
        <time>2016-07-17T08:27:08.000Z</time>
      </trkpt>
      <trkpt lat="47.58392" lon="6.79206">
        <ele>354</ele>
        <time>2016-07-17T08:27:09.000Z</time>
      </trkpt>
      <trkpt lat="47.58396" lon="6.79205">
        <ele>354</ele>
        <time>2016-07-17T08:27:10.000Z</time>
      </trkpt>
      <trkpt lat="47.58401" lon="6.79204">
        <ele>354</ele>
        <time>2016-07-17T08:27:11.000Z</time>
      </trkpt>
      <trkpt lat="47.58405" lon="6.79203">
        <ele>354</ele>
        <time>2016-07-17T08:27:12.000Z</time>
      </trkpt>
      <trkpt lat="47.5841" lon="6.79202">
        <ele>354</ele>
        <time>2016-07-17T08:27:13.000Z</time>
      </trkpt>
      <trkpt lat="47.58415" lon="6.79202">
        <ele>354</ele>
        <time>2016-07-17T08:27:14.000Z</time>
      </trkpt>
      <trkpt lat="47.5842" lon="6.79201">
        <ele>355</ele>
        <time>2016-07-17T08:27:15.000Z</time>
      </trkpt>
      <trkpt lat="47.58425" lon="6.792">
        <ele>355</ele>
        <time>2016-07-17T08:27:16.000Z</time>
      </trkpt>
      <trkpt lat="47.5843" lon="6.79201">
        <ele>355</ele>
        <time>2016-07-17T08:27:17.000Z</time>
      </trkpt>
      <trkpt lat="47.58435" lon="6.792">
        <ele>355</ele>
        <time>2016-07-17T08:27:18.000Z</time>
      </trkpt>
      <trkpt lat="47.5844" lon="6.792">
        <ele>355</ele>
        <time>2016-07-17T08:27:19.000Z</time>
      </trkpt>
      <trkpt lat="47.58445" lon="6.79201">
        <ele>355</ele>
        <time>2016-07-17T08:27:20.000Z</time>
      </trkpt>
      <trkpt lat="47.5845" lon="6.79202">
        <ele>355</ele>
        <time>2016-07-17T08:27:21.000Z</time>
      </trkpt>
      <trkpt lat="47.58455" lon="6.79204">
        <ele>355</ele>
        <time>2016-07-17T08:27:22.000Z</time>
      </trkpt>
      <trkpt lat="47.5846" lon="6.79205">
        <ele>355</ele>
        <time>2016-07-17T08:27:23.000Z</time>
      </trkpt>
      <trkpt lat="47.58464" lon="6.79207">
        <ele>356</ele>
        <time>2016-07-17T08:27:24.000Z</time>
      </trkpt>
      <trkpt lat="47.58469" lon="6.7921">
        <ele>356</ele>
        <time>2016-07-17T08:27:25.000Z</time>
      </trkpt>
      <trkpt lat="47.58473" lon="6.79212">
        <ele>356</ele>
        <time>2016-07-17T08:27:26.000Z</time>
      </trkpt>
      <trkpt lat="47.58477" lon="6.79213">
        <ele>356</ele>
        <time>2016-07-17T08:27:27.000Z</time>
      </trkpt>
      <trkpt lat="47.58481" lon="6.79215">
        <ele>356</ele>
        <time>2016-07-17T08:27:28.000Z</time>
      </trkpt>
      <trkpt lat="47.58484" lon="6.79217">
        <ele>356</ele>
        <time>2016-07-17T08:27:29.000Z</time>
      </trkpt>
      <trkpt lat="47.58488" lon="6.79218">
        <ele>356</ele>
        <time>2016-07-17T08:27:30.000Z</time>
      </trkpt>
      <trkpt lat="47.58493" lon="6.79219">
        <ele>356</ele>
        <time>2016-07-17T08:27:31.000Z</time>
      </trkpt>
      <trkpt lat="47.58498" lon="6.79219">
        <ele>356</ele>
        <time>2016-07-17T08:27:32.000Z</time>
      </trkpt>
      <trkpt lat="47.58502" lon="6.79218">
        <ele>356</ele>
        <time>2016-07-17T08:27:33.000Z</time>
      </trkpt>
      <trkpt lat="47.58507" lon="6.79218">
        <ele>356</ele>
        <time>2016-07-17T08:27:34.000Z</time>
      </trkpt>
      <trkpt lat="47.58511" lon="6.79218">
        <ele>356</ele>
        <time>2016-07-17T08:27:35.000Z</time>
      </trkpt>
      <trkpt lat="47.58515" lon="6.79218">
        <ele>356</ele>
        <time>2016-07-17T08:27:36.000Z</time>
      </trkpt>
      <trkpt lat="47.58519" lon="6.79217">
        <ele>356</ele>
        <time>2016-07-17T08:27:37.000Z</time>
      </trkpt>
      <trkpt lat="47.58523" lon="6.79216">
        <ele>356</ele>
        <time>2016-07-17T08:27:38.000Z</time>
      </trkpt>
      <trkpt lat="47.58528" lon="6.79215">
        <ele>356</ele>
        <time>2016-07-17T08:27:39.000Z</time>
      </trkpt>
      <trkpt lat="47.58532" lon="6.79213">
        <ele>356</ele>
        <time>2016-07-17T08:27:40.000Z</time>
      </trkpt>
      <trkpt lat="47.58536" lon="6.79211">
        <ele>356</ele>
        <time>2016-07-17T08:27:41.000Z</time>
      </trkpt>
      <trkpt lat="47.58542" lon="6.79206">
        <ele>356</ele>
        <time>2016-07-17T08:27:42.000Z</time>
      </trkpt>
      <trkpt lat="47.58546" lon="6.79204">
        <ele>356</ele>
        <time>2016-07-17T08:27:43.000Z</time>
      </trkpt>
      <trkpt lat="47.58551" lon="6.79201">
        <ele>356</ele>
        <time>2016-07-17T08:27:44.000Z</time>
      </trkpt>
      <trkpt lat="47.58555" lon="6.79198">
        <ele>356</ele>
        <time>2016-07-17T08:27:45.000Z</time>
      </trkpt>
      <trkpt lat="47.5856" lon="6.79195">
        <ele>356</ele>
        <time>2016-07-17T08:27:46.000Z</time>
      </trkpt>
      <trkpt lat="47.58565" lon="6.79193">
        <ele>356</ele>
        <time>2016-07-17T08:27:47.000Z</time>
      </trkpt>
      <trkpt lat="47.5857" lon="6.7919">
        <ele>356</ele>
        <time>2016-07-17T08:27:48.000Z</time>
      </trkpt>
      <trkpt lat="47.58575" lon="6.79189">
        <ele>356</ele>
        <time>2016-07-17T08:27:49.000Z</time>
      </trkpt>
      <trkpt lat="47.5858" lon="6.79186">
        <ele>356</ele>
        <time>2016-07-17T08:27:50.000Z</time>
      </trkpt>
      <trkpt lat="47.58585" lon="6.79183">
        <ele>356</ele>
        <time>2016-07-17T08:27:51.000Z</time>
      </trkpt>
      <trkpt lat="47.5859" lon="6.7918">
        <ele>356</ele>
        <time>2016-07-17T08:27:52.000Z</time>
      </trkpt>
      <trkpt lat="47.58596" lon="6.79178">
        <ele>356</ele>
        <time>2016-07-17T08:27:53.000Z</time>
      </trkpt>
      <trkpt lat="47.586" lon="6.79175">
        <ele>356</ele>
        <time>2016-07-17T08:27:54.000Z</time>
      </trkpt>
      <trkpt lat="47.58605" lon="6.79171">
        <ele>356</ele>
        <time>2016-07-17T08:27:55.000Z</time>
      </trkpt>
      <trkpt lat="47.5861" lon="6.79169">
        <ele>355</ele>
        <time>2016-07-17T08:27:56.000Z</time>
      </trkpt>
      <trkpt lat="47.58615" lon="6.79166">
        <ele>355</ele>
        <time>2016-07-17T08:27:57.000Z</time>
      </trkpt>
      <trkpt lat="47.58621" lon="6.79163">
        <ele>355</ele>
        <time>2016-07-17T08:27:58.000Z</time>
      </trkpt>
      <trkpt lat="47.58626" lon="6.79159">
        <ele>355</ele>
        <time>2016-07-17T08:27:59.000Z</time>
      </trkpt>
      <trkpt lat="47.58631" lon="6.79155">
        <ele>355</ele>
        <time>2016-07-17T08:28:00.000Z</time>
      </trkpt>
      <trkpt lat="47.58636" lon="6.79152">
        <ele>355</ele>
        <time>2016-07-17T08:28:01.000Z</time>
      </trkpt>
      <trkpt lat="47.58642" lon="6.79148">
        <ele>354</ele>
        <time>2016-07-17T08:28:02.000Z</time>
      </trkpt>
      <trkpt lat="47.58647" lon="6.79145">
        <ele>354</ele>
        <time>2016-07-17T08:28:03.000Z</time>
      </trkpt>
      <trkpt lat="47.58652" lon="6.79141">
        <ele>354</ele>
        <time>2016-07-17T08:28:04.000Z</time>
      </trkpt>
      <trkpt lat="47.58657" lon="6.79137">
        <ele>354</ele>
        <time>2016-07-17T08:28:05.000Z</time>
      </trkpt>
      <trkpt lat="47.58662" lon="6.79132">
        <ele>354</ele>
        <time>2016-07-17T08:28:06.000Z</time>
      </trkpt>
      <trkpt lat="47.58669" lon="6.7913">
        <ele>354</ele>
        <time>2016-07-17T08:28:07.000Z</time>
      </trkpt>
      <trkpt lat="47.58674" lon="6.79126">
        <ele>354</ele>
        <time>2016-07-17T08:28:08.000Z</time>
      </trkpt>
      <trkpt lat="47.58679" lon="6.79124">
        <ele>354</ele>
        <time>2016-07-17T08:28:09.000Z</time>
      </trkpt>
      <trkpt lat="47.58684" lon="6.79121">
        <ele>354</ele>
        <time>2016-07-17T08:28:10.000Z</time>
      </trkpt>
      <trkpt lat="47.58689" lon="6.79118">
        <ele>354</ele>
        <time>2016-07-17T08:28:11.000Z</time>
      </trkpt>
      <trkpt lat="47.58694" lon="6.79114">
        <ele>354</ele>
        <time>2016-07-17T08:28:12.000Z</time>
      </trkpt>
      <trkpt lat="47.58697" lon="6.7911">
        <ele>354</ele>
        <time>2016-07-17T08:28:13.000Z</time>
      </trkpt>
      <trkpt lat="47.58701" lon="6.79105">
        <ele>354</ele>
        <time>2016-07-17T08:28:14.000Z</time>
      </trkpt>
      <trkpt lat="47.58705" lon="6.79102">
        <ele>354</ele>
        <time>2016-07-17T08:28:15.000Z</time>
      </trkpt>
      <trkpt lat="47.58709" lon="6.79097">
        <ele>354</ele>
        <time>2016-07-17T08:28:16.000Z</time>
      </trkpt>
      <trkpt lat="47.58714" lon="6.79093">
        <ele>354</ele>
        <time>2016-07-17T08:28:17.000Z</time>
      </trkpt>
      <trkpt lat="47.58719" lon="6.79089">
        <ele>354</ele>
        <time>2016-07-17T08:28:18.000Z</time>
      </trkpt>
      <trkpt lat="47.58724" lon="6.79085">
        <ele>354</ele>
        <time>2016-07-17T08:28:19.000Z</time>
      </trkpt>
      <trkpt lat="47.58729" lon="6.79082">
        <ele>354</ele>
        <time>2016-07-17T08:28:20.000Z</time>
      </trkpt>
      <trkpt lat="47.58734" lon="6.79079">
        <ele>354</ele>
        <time>2016-07-17T08:28:21.000Z</time>
      </trkpt>
      <trkpt lat="47.58739" lon="6.79077">
        <ele>354</ele>
        <time>2016-07-17T08:28:22.000Z</time>
      </trkpt>
      <trkpt lat="47.58745" lon="6.79074">
        <ele>354</ele>
        <time>2016-07-17T08:28:23.000Z</time>
      </trkpt>
      <trkpt lat="47.5875" lon="6.79072">
        <ele>354</ele>
        <time>2016-07-17T08:28:24.000Z</time>
      </trkpt>
      <trkpt lat="47.58755" lon="6.7907">
        <ele>354</ele>
        <time>2016-07-17T08:28:25.000Z</time>
      </trkpt>
      <trkpt lat="47.58758" lon="6.79069">
        <ele>354</ele>
        <time>2016-07-17T08:28:27.000Z</time>
      </trkpt>
      <trkpt lat="47.58759" lon="6.79069">
        <ele>354</ele>
        <time>2016-07-17T08:28:28.000Z</time>
      </trkpt>
      <trkpt lat="47.58761" lon="6.79068">
        <ele>354</ele>
        <time>2016-07-17T08:28:29.000Z</time>
      </trkpt>
      <trkpt lat="47.58764" lon="6.79069">
        <ele>354</ele>
        <time>2016-07-17T08:28:30.000Z</time>
      </trkpt>
      <trkpt lat="47.58767" lon="6.7907">
        <ele>354</ele>
        <time>2016-07-17T08:28:31.000Z</time>
      </trkpt>
      <trkpt lat="47.58771" lon="6.79069">
        <ele>354</ele>
        <time>2016-07-17T08:28:32.000Z</time>
      </trkpt>
      <trkpt lat="47.58775" lon="6.79069">
        <ele>354</ele>
        <time>2016-07-17T08:28:33.000Z</time>
      </trkpt>
      <trkpt lat="47.58778" lon="6.79068">
        <ele>354</ele>
        <time>2016-07-17T08:28:34.000Z</time>
      </trkpt>
      <trkpt lat="47.58782" lon="6.79067">
        <ele>354</ele>
        <time>2016-07-17T08:28:35.000Z</time>
      </trkpt>
      <trkpt lat="47.58788" lon="6.79068">
        <ele>354</ele>
        <time>2016-07-17T08:28:36.000Z</time>
      </trkpt>
      <trkpt lat="47.58792" lon="6.79069">
        <ele>354</ele>
        <time>2016-07-17T08:28:37.000Z</time>
      </trkpt>
      <trkpt lat="47.58797" lon="6.79069">
        <ele>354</ele>
        <time>2016-07-17T08:28:38.000Z</time>
      </trkpt>
      <trkpt lat="47.58801" lon="6.7907">
        <ele>354</ele>
        <time>2016-07-17T08:28:39.000Z</time>
      </trkpt>
      <trkpt lat="47.58806" lon="6.79071">
        <ele>354</ele>
        <time>2016-07-17T08:28:40.000Z</time>
      </trkpt>
      <trkpt lat="47.58811" lon="6.79071">
        <ele>354</ele>
        <time>2016-07-17T08:28:41.000Z</time>
      </trkpt>
      <trkpt lat="47.58815" lon="6.79071">
        <ele>354</ele>
        <time>2016-07-17T08:28:42.000Z</time>
      </trkpt>
      <trkpt lat="47.58819" lon="6.79072">
        <ele>354</ele>
        <time>2016-07-17T08:28:43.000Z</time>
      </trkpt>
      <trkpt lat="47.58824" lon="6.7907">
        <ele>354</ele>
        <time>2016-07-17T08:28:44.000Z</time>
      </trkpt>
      <trkpt lat="47.58828" lon="6.7907">
        <ele>354</ele>
        <time>2016-07-17T08:28:45.000Z</time>
      </trkpt>
      <trkpt lat="47.58832" lon="6.79068">
        <ele>354</ele>
        <time>2016-07-17T08:28:46.000Z</time>
      </trkpt>
      <trkpt lat="47.58836" lon="6.79065">
        <ele>356</ele>
        <time>2016-07-17T08:28:47.000Z</time>
      </trkpt>
      <trkpt lat="47.58839" lon="6.79063">
        <ele>356</ele>
        <time>2016-07-17T08:28:48.000Z</time>
      </trkpt>
      <trkpt lat="47.58843" lon="6.7906">
        <ele>356</ele>
        <time>2016-07-17T08:28:49.000Z</time>
      </trkpt>
      <trkpt lat="47.58847" lon="6.79058">
        <ele>356</ele>
        <time>2016-07-17T08:28:50.000Z</time>
      </trkpt>
      <trkpt lat="47.5885" lon="6.79056">
        <ele>356</ele>
        <time>2016-07-17T08:28:51.000Z</time>
      </trkpt>
      <trkpt lat="47.58854" lon="6.79053">
        <ele>356</ele>
        <time>2016-07-17T08:28:52.000Z</time>
      </trkpt>
      <trkpt lat="47.58858" lon="6.79051">
        <ele>357</ele>
        <time>2016-07-17T08:28:53.000Z</time>
      </trkpt>
      <trkpt lat="47.58862" lon="6.79049">
        <ele>357</ele>
        <time>2016-07-17T08:28:54.000Z</time>
      </trkpt>
      <trkpt lat="47.58866" lon="6.79047">
        <ele>357</ele>
        <time>2016-07-17T08:28:55.000Z</time>
      </trkpt>
      <trkpt lat="47.58869" lon="6.79044">
        <ele>357</ele>
        <time>2016-07-17T08:28:56.000Z</time>
      </trkpt>
      <trkpt lat="47.58873" lon="6.79041">
        <ele>357</ele>
        <time>2016-07-17T08:28:57.000Z</time>
      </trkpt>
      <trkpt lat="47.58876" lon="6.79039">
        <ele>357</ele>
        <time>2016-07-17T08:28:58.000Z</time>
      </trkpt>
      <trkpt lat="47.58879" lon="6.79037">
        <ele>357</ele>
        <time>2016-07-17T08:28:59.000Z</time>
      </trkpt>
      <trkpt lat="47.58882" lon="6.79035">
        <ele>358</ele>
        <time>2016-07-17T08:29:00.000Z</time>
      </trkpt>
      <trkpt lat="47.58885" lon="6.79033">
        <ele>358</ele>
        <time>2016-07-17T08:29:01.000Z</time>
      </trkpt>
      <trkpt lat="47.58889" lon="6.79032">
        <ele>358</ele>
        <time>2016-07-17T08:29:02.000Z</time>
      </trkpt>
      <trkpt lat="47.58892" lon="6.79031">
        <ele>358</ele>
        <time>2016-07-17T08:29:03.000Z</time>
      </trkpt>
      <trkpt lat="47.58894" lon="6.79029">
        <ele>358</ele>
        <time>2016-07-17T08:29:04.000Z</time>
      </trkpt>
      <trkpt lat="47.58897" lon="6.79028">
        <ele>358</ele>
        <time>2016-07-17T08:29:05.000Z</time>
      </trkpt>
      <trkpt lat="47.58899" lon="6.79026">
        <ele>359</ele>
        <time>2016-07-17T08:29:06.000Z</time>
      </trkpt>
      <trkpt lat="47.58901" lon="6.79024">
        <ele>359</ele>
        <time>2016-07-17T08:29:07.000Z</time>
      </trkpt>
      <trkpt lat="47.58903" lon="6.79023">
        <ele>359</ele>
        <time>2016-07-17T08:29:08.000Z</time>
      </trkpt>
      <trkpt lat="47.58907" lon="6.7902">
        <ele>359</ele>
        <time>2016-07-17T08:29:10.000Z</time>
      </trkpt>
      <trkpt lat="47.58908" lon="6.79019">
        <ele>359</ele>
        <time>2016-07-17T08:29:11.000Z</time>
      </trkpt>
      <trkpt lat="47.58911" lon="6.79017">
        <ele>360</ele>
        <time>2016-07-17T08:29:13.000Z</time>
      </trkpt>
      <trkpt lat="47.58913" lon="6.79016">
        <ele>360</ele>
        <time>2016-07-17T08:29:14.000Z</time>
      </trkpt>
      <trkpt lat="47.58917" lon="6.79014">
        <ele>360</ele>
        <time>2016-07-17T08:29:16.000Z</time>
      </trkpt>
      <trkpt lat="47.58918" lon="6.79013">
        <ele>363</ele>
        <time>2016-07-17T08:29:17.000Z</time>
      </trkpt>
      <trkpt lat="47.58922" lon="6.79012">
        <ele>363</ele>
        <time>2016-07-17T08:29:19.000Z</time>
      </trkpt>
      <trkpt lat="47.58923" lon="6.79011">
        <ele>363</ele>
        <time>2016-07-17T08:29:20.000Z</time>
      </trkpt>
      <trkpt lat="47.58926" lon="6.79008">
        <ele>363</ele>
        <time>2016-07-17T08:29:22.000Z</time>
      </trkpt>
      <trkpt lat="47.58928" lon="6.79007">
        <ele>363</ele>
        <time>2016-07-17T08:29:23.000Z</time>
      </trkpt>
      <trkpt lat="47.58931" lon="6.79006">
        <ele>363</ele>
        <time>2016-07-17T08:29:25.000Z</time>
      </trkpt>
      <trkpt lat="47.58933" lon="6.79005">
        <ele>364</ele>
        <time>2016-07-17T08:29:26.000Z</time>
      </trkpt>
      <trkpt lat="47.58936" lon="6.79004">
        <ele>364</ele>
        <time>2016-07-17T08:29:28.000Z</time>
      </trkpt>
      <trkpt lat="47.58937" lon="6.79004">
        <ele>364</ele>
        <time>2016-07-17T08:29:29.000Z</time>
      </trkpt>
      <trkpt lat="47.58941" lon="6.79002">
        <ele>364</ele>
        <time>2016-07-17T08:29:31.000Z</time>
      </trkpt>
      <trkpt lat="47.58942" lon="6.79001">
        <ele>364</ele>
        <time>2016-07-17T08:29:32.000Z</time>
      </trkpt>
      <trkpt lat="47.58946" lon="6.78998">
        <ele>366</ele>
        <time>2016-07-17T08:29:34.000Z</time>
      </trkpt>
      <trkpt lat="47.58947" lon="6.78997">
        <ele>366</ele>
        <time>2016-07-17T08:29:35.000Z</time>
      </trkpt>
      <trkpt lat="47.5895" lon="6.78996">
        <ele>366</ele>
        <time>2016-07-17T08:29:37.000Z</time>
      </trkpt>
      <trkpt lat="47.58952" lon="6.78995">
        <ele>366</ele>
        <time>2016-07-17T08:29:38.000Z</time>
      </trkpt>
      <trkpt lat="47.58955" lon="6.78994">
        <ele>366</ele>
        <time>2016-07-17T08:29:40.000Z</time>
      </trkpt>
      <trkpt lat="47.58957" lon="6.78993">
        <ele>367</ele>
        <time>2016-07-17T08:29:41.000Z</time>
      </trkpt>
      <trkpt lat="47.5896" lon="6.78991">
        <ele>367</ele>
        <time>2016-07-17T08:29:43.000Z</time>
      </trkpt>
      <trkpt lat="47.58962" lon="6.7899">
        <ele>367</ele>
        <time>2016-07-17T08:29:44.000Z</time>
      </trkpt>
      <trkpt lat="47.58966" lon="6.78989">
        <ele>367</ele>
        <time>2016-07-17T08:29:46.000Z</time>
      </trkpt>
      <trkpt lat="47.58968" lon="6.78988">
        <ele>367</ele>
        <time>2016-07-17T08:29:47.000Z</time>
      </trkpt>
      <trkpt lat="47.58971" lon="6.78986">
        <ele>368</ele>
        <time>2016-07-17T08:29:49.000Z</time>
      </trkpt>
      <trkpt lat="47.58973" lon="6.78985">
        <ele>368</ele>
        <time>2016-07-17T08:29:50.000Z</time>
      </trkpt>
      <trkpt lat="47.58976" lon="6.78983">
        <ele>368</ele>
        <time>2016-07-17T08:29:52.000Z</time>
      </trkpt>
      <trkpt lat="47.58978" lon="6.78983">
        <ele>368</ele>
        <time>2016-07-17T08:29:53.000Z</time>
      </trkpt>
      <trkpt lat="47.58981" lon="6.78982">
        <ele>368</ele>
        <time>2016-07-17T08:29:55.000Z</time>
      </trkpt>
      <trkpt lat="47.58983" lon="6.78982">
        <ele>368</ele>
        <time>2016-07-17T08:29:56.000Z</time>
      </trkpt>
      <trkpt lat="47.58986" lon="6.78982">
        <ele>368</ele>
        <time>2016-07-17T08:29:58.000Z</time>
      </trkpt>
      <trkpt lat="47.58988" lon="6.78982">
        <ele>369</ele>
        <time>2016-07-17T08:29:59.000Z</time>
      </trkpt>
      <trkpt lat="47.58992" lon="6.78981">
        <ele>369</ele>
        <time>2016-07-17T08:30:01.000Z</time>
      </trkpt>
      <trkpt lat="47.58994" lon="6.78981">
        <ele>369</ele>
        <time>2016-07-17T08:30:02.000Z</time>
      </trkpt>
      <trkpt lat="47.58998" lon="6.78979">
        <ele>369</ele>
        <time>2016-07-17T08:30:04.000Z</time>
      </trkpt>
      <trkpt lat="47.59" lon="6.78979">
        <ele>369</ele>
        <time>2016-07-17T08:30:05.000Z</time>
      </trkpt>
      <trkpt lat="47.59002" lon="6.78978">
        <ele>372</ele>
        <time>2016-07-17T08:30:06.000Z</time>
      </trkpt>
      <trkpt lat="47.59004" lon="6.78978">
        <ele>372</ele>
        <time>2016-07-17T08:30:07.000Z</time>
      </trkpt>
      <trkpt lat="47.59008" lon="6.78977">
        <ele>372</ele>
        <time>2016-07-17T08:30:09.000Z</time>
      </trkpt>
      <trkpt lat="47.5901" lon="6.78976">
        <ele>372</ele>
        <time>2016-07-17T08:30:10.000Z</time>
      </trkpt>
      <trkpt lat="47.59015" lon="6.78975">
        <ele>372</ele>
        <time>2016-07-17T08:30:12.000Z</time>
      </trkpt>
      <trkpt lat="47.59017" lon="6.78974">
        <ele>372</ele>
        <time>2016-07-17T08:30:13.000Z</time>
      </trkpt>
      <trkpt lat="47.59021" lon="6.78973">
        <ele>372</ele>
        <time>2016-07-17T08:30:15.000Z</time>
      </trkpt>
      <trkpt lat="47.59023" lon="6.78972">
        <ele>372</ele>
        <time>2016-07-17T08:30:16.000Z</time>
      </trkpt>
      <trkpt lat="47.59027" lon="6.78971">
        <ele>372</ele>
        <time>2016-07-17T08:30:18.000Z</time>
      </trkpt>
      <trkpt lat="47.59029" lon="6.78971">
        <ele>372</ele>
        <time>2016-07-17T08:30:19.000Z</time>
      </trkpt>
      <trkpt lat="47.59033" lon="6.78969">
        <ele>372</ele>
        <time>2016-07-17T08:30:21.000Z</time>
      </trkpt>
      <trkpt lat="47.59035" lon="6.78969">
        <ele>372</ele>
        <time>2016-07-17T08:30:22.000Z</time>
      </trkpt>
      <trkpt lat="47.59037" lon="6.78968">
        <ele>372</ele>
        <time>2016-07-17T08:30:23.000Z</time>
      </trkpt>
      <trkpt lat="47.5904" lon="6.78967">
        <ele>373</ele>
        <time>2016-07-17T08:30:24.000Z</time>
      </trkpt>
      <trkpt lat="47.59042" lon="6.78967">
        <ele>373</ele>
        <time>2016-07-17T08:30:25.000Z</time>
      </trkpt>
      <trkpt lat="47.59045" lon="6.78966">
        <ele>373</ele>
        <time>2016-07-17T08:30:26.000Z</time>
      </trkpt>
      <trkpt lat="47.59047" lon="6.78965">
        <ele>373</ele>
        <time>2016-07-17T08:30:27.000Z</time>
      </trkpt>
      <trkpt lat="47.5905" lon="6.78964">
        <ele>373</ele>
        <time>2016-07-17T08:30:28.000Z</time>
      </trkpt>
      <trkpt lat="47.59052" lon="6.78963">
        <ele>373</ele>
        <time>2016-07-17T08:30:29.000Z</time>
      </trkpt>
      <trkpt lat="47.59055" lon="6.78962">
        <ele>373</ele>
        <time>2016-07-17T08:30:30.000Z</time>
      </trkpt>
      <trkpt lat="47.59058" lon="6.78962">
        <ele>373</ele>
        <time>2016-07-17T08:30:31.000Z</time>
      </trkpt>
      <trkpt lat="47.5906" lon="6.78961">
        <ele>373</ele>
        <time>2016-07-17T08:30:32.000Z</time>
      </trkpt>
      <trkpt lat="47.59063" lon="6.7896">
        <ele>373</ele>
        <time>2016-07-17T08:30:33.000Z</time>
      </trkpt>
      <trkpt lat="47.59065" lon="6.78959">
        <ele>373</ele>
        <time>2016-07-17T08:30:34.000Z</time>
      </trkpt>
      <trkpt lat="47.59068" lon="6.78959">
        <ele>373</ele>
        <time>2016-07-17T08:30:35.000Z</time>
      </trkpt>
      <trkpt lat="47.5907" lon="6.78958">
        <ele>373</ele>
        <time>2016-07-17T08:30:36.000Z</time>
      </trkpt>
      <trkpt lat="47.59073" lon="6.78957">
        <ele>373</ele>
        <time>2016-07-17T08:30:37.000Z</time>
      </trkpt>
      <trkpt lat="47.59075" lon="6.78956">
        <ele>373</ele>
        <time>2016-07-17T08:30:38.000Z</time>
      </trkpt>
      <trkpt lat="47.59078" lon="6.78955">
        <ele>373</ele>
        <time>2016-07-17T08:30:39.000Z</time>
      </trkpt>
      <trkpt lat="47.59081" lon="6.78954">
        <ele>373</ele>
        <time>2016-07-17T08:30:40.000Z</time>
      </trkpt>
      <trkpt lat="47.59084" lon="6.78953">
        <ele>376</ele>
        <time>2016-07-17T08:30:41.000Z</time>
      </trkpt>
      <trkpt lat="47.59088" lon="6.78952">
        <ele>376</ele>
        <time>2016-07-17T08:30:42.000Z</time>
      </trkpt>
      <trkpt lat="47.59091" lon="6.78951">
        <ele>376</ele>
        <time>2016-07-17T08:30:43.000Z</time>
      </trkpt>
      <trkpt lat="47.59094" lon="6.78951">
        <ele>376</ele>
        <time>2016-07-17T08:30:44.000Z</time>
      </trkpt>
      <trkpt lat="47.59097" lon="6.7895">
        <ele>376</ele>
        <time>2016-07-17T08:30:45.000Z</time>
      </trkpt>
      <trkpt lat="47.59101" lon="6.78949">
        <ele>376</ele>
        <time>2016-07-17T08:30:46.000Z</time>
      </trkpt>
      <trkpt lat="47.59104" lon="6.78948">
        <ele>376</ele>
        <time>2016-07-17T08:30:47.000Z</time>
      </trkpt>
      <trkpt lat="47.59108" lon="6.78947">
        <ele>376</ele>
        <time>2016-07-17T08:30:48.000Z</time>
      </trkpt>
      <trkpt lat="47.59112" lon="6.78946">
        <ele>376</ele>
        <time>2016-07-17T08:30:49.000Z</time>
      </trkpt>
      <trkpt lat="47.59116" lon="6.78945">
        <ele>376</ele>
        <time>2016-07-17T08:30:50.000Z</time>
      </trkpt>
      <trkpt lat="47.5912" lon="6.78944">
        <ele>376</ele>
        <time>2016-07-17T08:30:51.000Z</time>
      </trkpt>
      <trkpt lat="47.59124" lon="6.78943">
        <ele>376</ele>
        <time>2016-07-17T08:30:52.000Z</time>
      </trkpt>
      <trkpt lat="47.59129" lon="6.78942">
        <ele>376</ele>
        <time>2016-07-17T08:30:53.000Z</time>
      </trkpt>
      <trkpt lat="47.59133" lon="6.78941">
        <ele>376</ele>
        <time>2016-07-17T08:30:54.000Z</time>
      </trkpt>
      <trkpt lat="47.59138" lon="6.7894">
        <ele>376</ele>
        <time>2016-07-17T08:30:55.000Z</time>
      </trkpt>
      <trkpt lat="47.59143" lon="6.78937">
        <ele>376</ele>
        <time>2016-07-17T08:30:56.000Z</time>
      </trkpt>
      <trkpt lat="47.59148" lon="6.78936">
        <ele>376</ele>
        <time>2016-07-17T08:30:57.000Z</time>
      </trkpt>
      <trkpt lat="47.59153" lon="6.78935">
        <ele>376</ele>
        <time>2016-07-17T08:30:58.000Z</time>
      </trkpt>
      <trkpt lat="47.59158" lon="6.78934">
        <ele>376</ele>
        <time>2016-07-17T08:30:59.000Z</time>
      </trkpt>
      <trkpt lat="47.59163" lon="6.78933">
        <ele>376</ele>
        <time>2016-07-17T08:31:00.000Z</time>
      </trkpt>
      <trkpt lat="47.59168" lon="6.78931">
        <ele>378</ele>
        <time>2016-07-17T08:31:01.000Z</time>
      </trkpt>
      <trkpt lat="47.59174" lon="6.7893">
        <ele>377</ele>
        <time>2016-07-17T08:31:02.000Z</time>
      </trkpt>
      <trkpt lat="47.59179" lon="6.78928">
        <ele>378</ele>
        <time>2016-07-17T08:31:03.000Z</time>
      </trkpt>
      <trkpt lat="47.59185" lon="6.78927">
        <ele>378</ele>
        <time>2016-07-17T08:31:04.000Z</time>
      </trkpt>
      <trkpt lat="47.59191" lon="6.78924">
        <ele>378</ele>
        <time>2016-07-17T08:31:05.000Z</time>
      </trkpt>
      <trkpt lat="47.59197" lon="6.78922">
        <ele>378</ele>
        <time>2016-07-17T08:31:06.000Z</time>
      </trkpt>
      <trkpt lat="47.59202" lon="6.78921">
        <ele>378</ele>
        <time>2016-07-17T08:31:07.000Z</time>
      </trkpt>
      <trkpt lat="47.59208" lon="6.7892">
        <ele>379</ele>
        <time>2016-07-17T08:31:08.000Z</time>
      </trkpt>
      <trkpt lat="47.59214" lon="6.78919">
        <ele>379</ele>
        <time>2016-07-17T08:31:09.000Z</time>
      </trkpt>
      <trkpt lat="47.59219" lon="6.78917">
        <ele>378</ele>
        <time>2016-07-17T08:31:10.000Z</time>
      </trkpt>
      <trkpt lat="47.59225" lon="6.78914">
        <ele>378</ele>
        <time>2016-07-17T08:31:11.000Z</time>
      </trkpt>
      <trkpt lat="47.5923" lon="6.78913">
        <ele>378</ele>
        <time>2016-07-17T08:31:12.000Z</time>
      </trkpt>
      <trkpt lat="47.59235" lon="6.78911">
        <ele>378</ele>
        <time>2016-07-17T08:31:13.000Z</time>
      </trkpt>
      <trkpt lat="47.5924" lon="6.7891">
        <ele>378</ele>
        <time>2016-07-17T08:31:14.000Z</time>
      </trkpt>
      <trkpt lat="47.59246" lon="6.78908">
        <ele>379</ele>
        <time>2016-07-17T08:31:15.000Z</time>
      </trkpt>
      <trkpt lat="47.5925" lon="6.78907">
        <ele>379</ele>
        <time>2016-07-17T08:31:16.000Z</time>
      </trkpt>
      <trkpt lat="47.59255" lon="6.78906">
        <ele>380</ele>
        <time>2016-07-17T08:31:17.000Z</time>
      </trkpt>
      <trkpt lat="47.59259" lon="6.78904">
        <ele>380</ele>
        <time>2016-07-17T08:31:18.000Z</time>
      </trkpt>
      <trkpt lat="47.59264" lon="6.78903">
        <ele>380</ele>
        <time>2016-07-17T08:31:19.000Z</time>
      </trkpt>
      <trkpt lat="47.59268" lon="6.78901">
        <ele>380</ele>
        <time>2016-07-17T08:31:20.000Z</time>
      </trkpt>
      <trkpt lat="47.59273" lon="6.78899">
        <ele>381</ele>
        <time>2016-07-17T08:31:21.000Z</time>
      </trkpt>
      <trkpt lat="47.59277" lon="6.78899">
        <ele>381</ele>
        <time>2016-07-17T08:31:22.000Z</time>
      </trkpt>
      <trkpt lat="47.59281" lon="6.78898">
        <ele>381</ele>
        <time>2016-07-17T08:31:23.000Z</time>
      </trkpt>
      <trkpt lat="47.59284" lon="6.78896">
        <ele>381</ele>
        <time>2016-07-17T08:31:24.000Z</time>
      </trkpt>
      <trkpt lat="47.59288" lon="6.78895">
        <ele>381</ele>
        <time>2016-07-17T08:31:25.000Z</time>
      </trkpt>
      <trkpt lat="47.59292" lon="6.78893">
        <ele>381</ele>
        <time>2016-07-17T08:31:26.000Z</time>
      </trkpt>
      <trkpt lat="47.59296" lon="6.78893">
        <ele>381</ele>
        <time>2016-07-17T08:31:27.000Z</time>
      </trkpt>
      <trkpt lat="47.593" lon="6.78892">
        <ele>381</ele>
        <time>2016-07-17T08:31:28.000Z</time>
      </trkpt>
      <trkpt lat="47.59303" lon="6.78892">
        <ele>381</ele>
        <time>2016-07-17T08:31:29.000Z</time>
      </trkpt>
      <trkpt lat="47.59307" lon="6.78891">
        <ele>381</ele>
        <time>2016-07-17T08:31:30.000Z</time>
      </trkpt>
      <trkpt lat="47.59312" lon="6.78891">
        <ele>381</ele>
        <time>2016-07-17T08:31:31.000Z</time>
      </trkpt>
      <trkpt lat="47.59317" lon="6.78888">
        <ele>381</ele>
        <time>2016-07-17T08:31:32.000Z</time>
      </trkpt>
      <trkpt lat="47.59322" lon="6.78887">
        <ele>381</ele>
        <time>2016-07-17T08:31:33.000Z</time>
      </trkpt>
      <trkpt lat="47.59328" lon="6.78887">
        <ele>381</ele>
        <time>2016-07-17T08:31:34.000Z</time>
      </trkpt>
      <trkpt lat="47.59333" lon="6.78886">
        <ele>381</ele>
        <time>2016-07-17T08:31:35.000Z</time>
      </trkpt>
      <trkpt lat="47.59338" lon="6.78886">
        <ele>382</ele>
        <time>2016-07-17T08:31:36.000Z</time>
      </trkpt>
      <trkpt lat="47.59344" lon="6.78881">
        <ele>382</ele>
        <time>2016-07-17T08:31:37.000Z</time>
      </trkpt>
      <trkpt lat="47.5935" lon="6.7888">
        <ele>382</ele>
        <time>2016-07-17T08:31:38.000Z</time>
      </trkpt>
      <trkpt lat="47.59357" lon="6.78878">
        <ele>382</ele>
        <time>2016-07-17T08:31:39.000Z</time>
      </trkpt>
      <trkpt lat="47.59364" lon="6.78877">
        <ele>382</ele>
        <time>2016-07-17T08:31:40.000Z</time>
      </trkpt>
      <trkpt lat="47.59371" lon="6.78875">
        <ele>382</ele>
        <time>2016-07-17T08:31:41.000Z</time>
      </trkpt>
      <trkpt lat="47.59379" lon="6.78873">
        <ele>381</ele>
        <time>2016-07-17T08:31:42.000Z</time>
      </trkpt>
      <trkpt lat="47.59386" lon="6.7887">
        <ele>381</ele>
        <time>2016-07-17T08:31:43.000Z</time>
      </trkpt>
      <trkpt lat="47.59394" lon="6.78866">
        <ele>381</ele>
        <time>2016-07-17T08:31:44.000Z</time>
      </trkpt>
      <trkpt lat="47.59401" lon="6.78862">
        <ele>381</ele>
        <time>2016-07-17T08:31:45.000Z</time>
      </trkpt>
      <trkpt lat="47.59409" lon="6.78857">
        <ele>381</ele>
        <time>2016-07-17T08:31:46.000Z</time>
      </trkpt>
      <trkpt lat="47.59415" lon="6.78851">
        <ele>381</ele>
        <time>2016-07-17T08:31:47.000Z</time>
      </trkpt>
      <trkpt lat="47.59421" lon="6.78845">
        <ele>382</ele>
        <time>2016-07-17T08:31:48.000Z</time>
      </trkpt>
      <trkpt lat="47.59427" lon="6.7884">
        <ele>382</ele>
        <time>2016-07-17T08:31:49.000Z</time>
      </trkpt>
      <trkpt lat="47.59432" lon="6.78838">
        <ele>383</ele>
        <time>2016-07-17T08:31:50.000Z</time>
      </trkpt>
      <trkpt lat="47.59436" lon="6.78836">
        <ele>383</ele>
        <time>2016-07-17T08:31:51.000Z</time>
      </trkpt>
      <trkpt lat="47.5944" lon="6.78834">
        <ele>384</ele>
        <time>2016-07-17T08:31:52.000Z</time>
      </trkpt>
      <trkpt lat="47.59444" lon="6.78832">
        <ele>383</ele>
        <time>2016-07-17T08:31:53.000Z</time>
      </trkpt>
      <trkpt lat="47.59448" lon="6.78829">
        <ele>383</ele>
        <time>2016-07-17T08:31:54.000Z</time>
      </trkpt>
      <trkpt lat="47.5945" lon="6.78826">
        <ele>384</ele>
        <time>2016-07-17T08:31:55.000Z</time>
      </trkpt>
      <trkpt lat="47.59455" lon="6.78824">
        <ele>384</ele>
        <time>2016-07-17T08:31:56.000Z</time>
      </trkpt>
      <trkpt lat="47.59456" lon="6.78824">
        <ele>384</ele>
        <time>2016-07-17T08:31:57.000Z</time>
      </trkpt>
      <trkpt lat="47.59459" lon="6.78822">
        <ele>384</ele>
        <time>2016-07-17T08:31:59.000Z</time>
      </trkpt>
      <trkpt lat="47.59461" lon="6.78822">
        <ele>385</ele>
        <time>2016-07-17T08:32:00.000Z</time>
      </trkpt>
      <trkpt lat="47.59465" lon="6.78821">
        <ele>385</ele>
        <time>2016-07-17T08:32:03.000Z</time>
      </trkpt>
      <trkpt lat="47.59467" lon="6.78821">
        <ele>385</ele>
        <time>2016-07-17T08:32:04.000Z</time>
      </trkpt>
      <trkpt lat="47.59469" lon="6.78821">
        <ele>385</ele>
        <time>2016-07-17T08:32:05.000Z</time>
      </trkpt>
      <trkpt lat="47.59472" lon="6.78822">
        <ele>386</ele>
        <time>2016-07-17T08:32:06.000Z</time>
      </trkpt>
      <trkpt lat="47.59476" lon="6.78825">
        <ele>386</ele>
        <time>2016-07-17T08:32:07.000Z</time>
      </trkpt>
      <trkpt lat="47.59479" lon="6.78825">
        <ele>386</ele>
        <time>2016-07-17T08:32:08.000Z</time>
      </trkpt>
      <trkpt lat="47.59482" lon="6.78825">
        <ele>387</ele>
        <time>2016-07-17T08:32:09.000Z</time>
      </trkpt>
      <trkpt lat="47.59485" lon="6.78823">
        <ele>387</ele>
        <time>2016-07-17T08:32:10.000Z</time>
      </trkpt>
      <trkpt lat="47.59487" lon="6.78821">
        <ele>387</ele>
        <time>2016-07-17T08:32:11.000Z</time>
      </trkpt>
      <trkpt lat="47.5949" lon="6.7882">
        <ele>387</ele>
        <time>2016-07-17T08:32:12.000Z</time>
      </trkpt>
      <trkpt lat="47.59494" lon="6.7882">
        <ele>387</ele>
        <time>2016-07-17T08:32:14.000Z</time>
      </trkpt>
      <trkpt lat="47.59495" lon="6.7882">
        <ele>387</ele>
        <time>2016-07-17T08:32:15.000Z</time>
      </trkpt>
      <trkpt lat="47.59498" lon="6.78821">
        <ele>388</ele>
        <time>2016-07-17T08:32:16.000Z</time>
      </trkpt>
      <trkpt lat="47.595" lon="6.78821">
        <ele>388</ele>
        <time>2016-07-17T08:32:17.000Z</time>
      </trkpt>
      <trkpt lat="47.59503" lon="6.78821">
        <ele>390</ele>
        <time>2016-07-17T08:32:18.000Z</time>
      </trkpt>
      <trkpt lat="47.59506" lon="6.78822">
        <ele>390</ele>
        <time>2016-07-17T08:32:19.000Z</time>
      </trkpt>
      <trkpt lat="47.5951" lon="6.78822">
        <ele>390</ele>
        <time>2016-07-17T08:32:20.000Z</time>
      </trkpt>
      <trkpt lat="47.59515" lon="6.78823">
        <ele>390</ele>
        <time>2016-07-17T08:32:21.000Z</time>
      </trkpt>
      <trkpt lat="47.5952" lon="6.78823">
        <ele>390</ele>
        <time>2016-07-17T08:32:22.000Z</time>
      </trkpt>
      <trkpt lat="47.59524" lon="6.78822">
        <ele>390</ele>
        <time>2016-07-17T08:32:23.000Z</time>
      </trkpt>
      <trkpt lat="47.59529" lon="6.78823">
        <ele>390</ele>
        <time>2016-07-17T08:32:24.000Z</time>
      </trkpt>
      <trkpt lat="47.59533" lon="6.78824">
        <ele>390</ele>
        <time>2016-07-17T08:32:25.000Z</time>
      </trkpt>
      <trkpt lat="47.59537" lon="6.78825">
        <ele>390</ele>
        <time>2016-07-17T08:32:26.000Z</time>
      </trkpt>
      <trkpt lat="47.59541" lon="6.78827">
        <ele>390</ele>
        <time>2016-07-17T08:32:27.000Z</time>
      </trkpt>
      <trkpt lat="47.59545" lon="6.78826">
        <ele>390</ele>
        <time>2016-07-17T08:32:28.000Z</time>
      </trkpt>
      <trkpt lat="47.59549" lon="6.78823">
        <ele>390</ele>
        <time>2016-07-17T08:32:29.000Z</time>
      </trkpt>
      <trkpt lat="47.59553" lon="6.78818">
        <ele>390</ele>
        <time>2016-07-17T08:32:30.000Z</time>
      </trkpt>
      <trkpt lat="47.59556" lon="6.78811">
        <ele>390</ele>
        <time>2016-07-17T08:32:31.000Z</time>
      </trkpt>
      <trkpt lat="47.59558" lon="6.78803">
        <ele>390</ele>
        <time>2016-07-17T08:32:32.000Z</time>
      </trkpt>
      <trkpt lat="47.5956" lon="6.78794">
        <ele>390</ele>
        <time>2016-07-17T08:32:33.000Z</time>
      </trkpt>
      <trkpt lat="47.59561" lon="6.78785">
        <ele>390</ele>
        <time>2016-07-17T08:32:34.000Z</time>
      </trkpt>
      <trkpt lat="47.59563" lon="6.78777">
        <ele>390</ele>
        <time>2016-07-17T08:32:35.000Z</time>
      </trkpt>
      <trkpt lat="47.59564" lon="6.78769">
        <ele>390</ele>
        <time>2016-07-17T08:32:36.000Z</time>
      </trkpt>
      <trkpt lat="47.59565" lon="6.78761">
        <ele>390</ele>
        <time>2016-07-17T08:32:37.000Z</time>
      </trkpt>
      <trkpt lat="47.59566" lon="6.78754">
        <ele>390</ele>
        <time>2016-07-17T08:32:38.000Z</time>
      </trkpt>
      <trkpt lat="47.59567" lon="6.78746">
        <ele>389</ele>
        <time>2016-07-17T08:32:39.000Z</time>
      </trkpt>
      <trkpt lat="47.59568" lon="6.78739">
        <ele>388</ele>
        <time>2016-07-17T08:32:40.000Z</time>
      </trkpt>
      <trkpt lat="47.59569" lon="6.78732">
        <ele>388</ele>
        <time>2016-07-17T08:32:41.000Z</time>
      </trkpt>
      <trkpt lat="47.5957" lon="6.78726">
        <ele>388</ele>
        <time>2016-07-17T08:32:42.000Z</time>
      </trkpt>
      <trkpt lat="47.59571" lon="6.7872">
        <ele>388</ele>
        <time>2016-07-17T08:32:43.000Z</time>
      </trkpt>
      <trkpt lat="47.59572" lon="6.78714">
        <ele>388</ele>
        <time>2016-07-17T08:32:44.000Z</time>
      </trkpt>
      <trkpt lat="47.59572" lon="6.78708">
        <ele>388</ele>
        <time>2016-07-17T08:32:45.000Z</time>
      </trkpt>
      <trkpt lat="47.59573" lon="6.78703">
        <ele>388</ele>
        <time>2016-07-17T08:32:46.000Z</time>
      </trkpt>
      <trkpt lat="47.59574" lon="6.78698">
        <ele>388</ele>
        <time>2016-07-17T08:32:47.000Z</time>
      </trkpt>
      <trkpt lat="47.59575" lon="6.78693">
        <ele>388</ele>
        <time>2016-07-17T08:32:48.000Z</time>
      </trkpt>
      <trkpt lat="47.59576" lon="6.78688">
        <ele>388</ele>
        <time>2016-07-17T08:32:49.000Z</time>
      </trkpt>
      <trkpt lat="47.59577" lon="6.78683">
        <ele>388</ele>
        <time>2016-07-17T08:32:50.000Z</time>
      </trkpt>
      <trkpt lat="47.59579" lon="6.78678">
        <ele>388</ele>
        <time>2016-07-17T08:32:51.000Z</time>
      </trkpt>
      <trkpt lat="47.59581" lon="6.78674">
        <ele>388</ele>
        <time>2016-07-17T08:32:52.000Z</time>
      </trkpt>
      <trkpt lat="47.59582" lon="6.78669">
        <ele>389</ele>
        <time>2016-07-17T08:32:53.000Z</time>
      </trkpt>
      <trkpt lat="47.59584" lon="6.78664">
        <ele>389</ele>
        <time>2016-07-17T08:32:54.000Z</time>
      </trkpt>
      <trkpt lat="47.59584" lon="6.7866">
        <ele>390</ele>
        <time>2016-07-17T08:32:55.000Z</time>
      </trkpt>
      <trkpt lat="47.59584" lon="6.78655">
        <ele>390</ele>
        <time>2016-07-17T08:32:56.000Z</time>
      </trkpt>
      <trkpt lat="47.59583" lon="6.78651">
        <ele>387</ele>
        <time>2016-07-17T08:32:57.000Z</time>
      </trkpt>
      <trkpt lat="47.59582" lon="6.78646">
        <ele>386</ele>
        <time>2016-07-17T08:32:58.000Z</time>
      </trkpt>
      <trkpt lat="47.59582" lon="6.78642">
        <ele>386</ele>
        <time>2016-07-17T08:32:59.000Z</time>
      </trkpt>
      <trkpt lat="47.59582" lon="6.78637">
        <ele>386</ele>
        <time>2016-07-17T08:33:00.000Z</time>
      </trkpt>
      <trkpt lat="47.59583" lon="6.78631">
        <ele>385</ele>
        <time>2016-07-17T08:33:01.000Z</time>
      </trkpt>
      <trkpt lat="47.59585" lon="6.78625">
        <ele>391</ele>
        <time>2016-07-17T08:33:02.000Z</time>
      </trkpt>
      <trkpt lat="47.59587" lon="6.78619">
        <ele>391</ele>
        <time>2016-07-17T08:33:03.000Z</time>
      </trkpt>
      <trkpt lat="47.59589" lon="6.78613">
        <ele>391</ele>
        <time>2016-07-17T08:33:04.000Z</time>
      </trkpt>
      <trkpt lat="47.59591" lon="6.78609">
        <ele>391</ele>
        <time>2016-07-17T08:33:05.000Z</time>
      </trkpt>
      <trkpt lat="47.59593" lon="6.78605">
        <ele>390</ele>
        <time>2016-07-17T08:33:06.000Z</time>
      </trkpt>
      <trkpt lat="47.59595" lon="6.78602">
        <ele>390</ele>
        <time>2016-07-17T08:33:07.000Z</time>
      </trkpt>
      <trkpt lat="47.59598" lon="6.78599">
        <ele>390</ele>
        <time>2016-07-17T08:33:08.000Z</time>
      </trkpt>
      <trkpt lat="47.59599" lon="6.78596">
        <ele>390</ele>
        <time>2016-07-17T08:33:09.000Z</time>
      </trkpt>
      <trkpt lat="47.59602" lon="6.78593">
        <ele>390</ele>
        <time>2016-07-17T08:33:10.000Z</time>
      </trkpt>
      <trkpt lat="47.59604" lon="6.78589">
        <ele>390</ele>
        <time>2016-07-17T08:33:11.000Z</time>
      </trkpt>
      <trkpt lat="47.59606" lon="6.78584">
        <ele>391</ele>
        <time>2016-07-17T08:33:12.000Z</time>
      </trkpt>
      <trkpt lat="47.59608" lon="6.7858">
        <ele>391</ele>
        <time>2016-07-17T08:33:13.000Z</time>
      </trkpt>
      <trkpt lat="47.5961" lon="6.78576">
        <ele>391</ele>
        <time>2016-07-17T08:33:14.000Z</time>
      </trkpt>
      <trkpt lat="47.59612" lon="6.78573">
        <ele>391</ele>
        <time>2016-07-17T08:33:15.000Z</time>
      </trkpt>
      <trkpt lat="47.59614" lon="6.78569">
        <ele>392</ele>
        <time>2016-07-17T08:33:16.000Z</time>
      </trkpt>
      <trkpt lat="47.59616" lon="6.78566">
        <ele>392</ele>
        <time>2016-07-17T08:33:17.000Z</time>
      </trkpt>
      <trkpt lat="47.59617" lon="6.78563">
        <ele>392</ele>
        <time>2016-07-17T08:33:18.000Z</time>
      </trkpt>
      <trkpt lat="47.59618" lon="6.7856">
        <ele>392</ele>
        <time>2016-07-17T08:33:19.000Z</time>
      </trkpt>
      <trkpt lat="47.59619" lon="6.78557">
        <ele>392</ele>
        <time>2016-07-17T08:33:20.000Z</time>
      </trkpt>
      <trkpt lat="47.5962" lon="6.78553">
        <ele>392</ele>
        <time>2016-07-17T08:33:21.000Z</time>
      </trkpt>
      <trkpt lat="47.59621" lon="6.7855">
        <ele>392</ele>
        <time>2016-07-17T08:33:22.000Z</time>
      </trkpt>
      <trkpt lat="47.59622" lon="6.78546">
        <ele>393</ele>
        <time>2016-07-17T08:33:23.000Z</time>
      </trkpt>
      <trkpt lat="47.59623" lon="6.78543">
        <ele>393</ele>
        <time>2016-07-17T08:33:24.000Z</time>
      </trkpt>
      <trkpt lat="47.59624" lon="6.78539">
        <ele>393</ele>
        <time>2016-07-17T08:33:25.000Z</time>
      </trkpt>
      <trkpt lat="47.59625" lon="6.78535">
        <ele>393</ele>
        <time>2016-07-17T08:33:26.000Z</time>
      </trkpt>
      <trkpt lat="47.59626" lon="6.7853">
        <ele>393</ele>
        <time>2016-07-17T08:33:27.000Z</time>
      </trkpt>
      <trkpt lat="47.59627" lon="6.78526">
        <ele>393</ele>
        <time>2016-07-17T08:33:28.000Z</time>
      </trkpt>
      <trkpt lat="47.59628" lon="6.78521">
        <ele>393</ele>
        <time>2016-07-17T08:33:29.000Z</time>
      </trkpt>
      <trkpt lat="47.59628" lon="6.78516">
        <ele>393</ele>
        <time>2016-07-17T08:33:30.000Z</time>
      </trkpt>
      <trkpt lat="47.59629" lon="6.78511">
        <ele>393</ele>
        <time>2016-07-17T08:33:31.000Z</time>
      </trkpt>
      <trkpt lat="47.5963" lon="6.78507">
        <ele>393</ele>
        <time>2016-07-17T08:33:32.000Z</time>
      </trkpt>
      <trkpt lat="47.5963" lon="6.78503">
        <ele>393</ele>
        <time>2016-07-17T08:33:33.000Z</time>
      </trkpt>
      <trkpt lat="47.59631" lon="6.78499">
        <ele>394</ele>
        <time>2016-07-17T08:33:34.000Z</time>
      </trkpt>
      <trkpt lat="47.59632" lon="6.78495">
        <ele>394</ele>
        <time>2016-07-17T08:33:35.000Z</time>
      </trkpt>
      <trkpt lat="47.59633" lon="6.78492">
        <ele>394</ele>
        <time>2016-07-17T08:33:36.000Z</time>
      </trkpt>
      <trkpt lat="47.59635" lon="6.78488">
        <ele>394</ele>
        <time>2016-07-17T08:33:37.000Z</time>
      </trkpt>
      <trkpt lat="47.59636" lon="6.78485">
        <ele>394</ele>
        <time>2016-07-17T08:33:38.000Z</time>
      </trkpt>
      <trkpt lat="47.59637" lon="6.78481">
        <ele>394</ele>
        <time>2016-07-17T08:33:39.000Z</time>
      </trkpt>
      <trkpt lat="47.59639" lon="6.78478">
        <ele>394</ele>
        <time>2016-07-17T08:33:40.000Z</time>
      </trkpt>
      <trkpt lat="47.5964" lon="6.78475">
        <ele>394</ele>
        <time>2016-07-17T08:33:41.000Z</time>
      </trkpt>
      <trkpt lat="47.59642" lon="6.78471">
        <ele>394</ele>
        <time>2016-07-17T08:33:42.000Z</time>
      </trkpt>
      <trkpt lat="47.59643" lon="6.78468">
        <ele>394</ele>
        <time>2016-07-17T08:33:43.000Z</time>
      </trkpt>
      <trkpt lat="47.59644" lon="6.78464">
        <ele>394</ele>
        <time>2016-07-17T08:33:44.000Z</time>
      </trkpt>
      <trkpt lat="47.59646" lon="6.78461">
        <ele>394</ele>
        <time>2016-07-17T08:33:45.000Z</time>
      </trkpt>
      <trkpt lat="47.59648" lon="6.78457">
        <ele>394</ele>
        <time>2016-07-17T08:33:46.000Z</time>
      </trkpt>
      <trkpt lat="47.5965" lon="6.78454">
        <ele>394</ele>
        <time>2016-07-17T08:33:47.000Z</time>
      </trkpt>
      <trkpt lat="47.59651" lon="6.7845">
        <ele>394</ele>
        <time>2016-07-17T08:33:48.000Z</time>
      </trkpt>
      <trkpt lat="47.59653" lon="6.78446">
        <ele>394</ele>
        <time>2016-07-17T08:33:49.000Z</time>
      </trkpt>
      <trkpt lat="47.59655" lon="6.78441">
        <ele>395</ele>
        <time>2016-07-17T08:33:50.000Z</time>
      </trkpt>
      <trkpt lat="47.59657" lon="6.78437">
        <ele>395</ele>
        <time>2016-07-17T08:33:51.000Z</time>
      </trkpt>
      <trkpt lat="47.59659" lon="6.78433">
        <ele>395</ele>
        <time>2016-07-17T08:33:52.000Z</time>
      </trkpt>
      <trkpt lat="47.59661" lon="6.7843">
        <ele>395</ele>
        <time>2016-07-17T08:33:53.000Z</time>
      </trkpt>
      <trkpt lat="47.59663" lon="6.78427">
        <ele>396</ele>
        <time>2016-07-17T08:33:54.000Z</time>
      </trkpt>
      <trkpt lat="47.59666" lon="6.78425">
        <ele>396</ele>
        <time>2016-07-17T08:33:55.000Z</time>
      </trkpt>
      <trkpt lat="47.59668" lon="6.78423">
        <ele>398</ele>
        <time>2016-07-17T08:33:56.000Z</time>
      </trkpt>
      <trkpt lat="47.5967" lon="6.7842">
        <ele>398</ele>
        <time>2016-07-17T08:33:57.000Z</time>
      </trkpt>
      <trkpt lat="47.59673" lon="6.78418">
        <ele>398</ele>
        <time>2016-07-17T08:33:58.000Z</time>
      </trkpt>
      <trkpt lat="47.59676" lon="6.78416">
        <ele>397</ele>
        <time>2016-07-17T08:33:59.000Z</time>
      </trkpt>
      <trkpt lat="47.59679" lon="6.78415">
        <ele>397</ele>
        <time>2016-07-17T08:34:00.000Z</time>
      </trkpt>
      <trkpt lat="47.59682" lon="6.78413">
        <ele>397</ele>
        <time>2016-07-17T08:34:01.000Z</time>
      </trkpt>
      <trkpt lat="47.59685" lon="6.78412">
        <ele>397</ele>
        <time>2016-07-17T08:34:02.000Z</time>
      </trkpt>
      <trkpt lat="47.59689" lon="6.78411">
        <ele>397</ele>
        <time>2016-07-17T08:34:03.000Z</time>
      </trkpt>
      <trkpt lat="47.59692" lon="6.78409">
        <ele>397</ele>
        <time>2016-07-17T08:34:04.000Z</time>
      </trkpt>
      <trkpt lat="47.59695" lon="6.78408">
        <ele>398</ele>
        <time>2016-07-17T08:34:05.000Z</time>
      </trkpt>
      <trkpt lat="47.59698" lon="6.78406">
        <ele>398</ele>
        <time>2016-07-17T08:34:06.000Z</time>
      </trkpt>
      <trkpt lat="47.59701" lon="6.78405">
        <ele>398</ele>
        <time>2016-07-17T08:34:07.000Z</time>
      </trkpt>
      <trkpt lat="47.59703" lon="6.78405">
        <ele>398</ele>
        <time>2016-07-17T08:34:08.000Z</time>
      </trkpt>
      <trkpt lat="47.59706" lon="6.78404">
        <ele>398</ele>
        <time>2016-07-17T08:34:09.000Z</time>
      </trkpt>
      <trkpt lat="47.59709" lon="6.78404">
        <ele>398</ele>
        <time>2016-07-17T08:34:10.000Z</time>
      </trkpt>
      <trkpt lat="47.59711" lon="6.78403">
        <ele>398</ele>
        <time>2016-07-17T08:34:11.000Z</time>
      </trkpt>
      <trkpt lat="47.59714" lon="6.78403">
        <ele>398</ele>
        <time>2016-07-17T08:34:12.000Z</time>
      </trkpt>
      <trkpt lat="47.59718" lon="6.78402">
        <ele>399</ele>
        <time>2016-07-17T08:34:13.000Z</time>
      </trkpt>
      <trkpt lat="47.59722" lon="6.78401">
        <ele>399</ele>
        <time>2016-07-17T08:34:14.000Z</time>
      </trkpt>
      <trkpt lat="47.59726" lon="6.78399">
        <ele>399</ele>
        <time>2016-07-17T08:34:15.000Z</time>
      </trkpt>
      <trkpt lat="47.59729" lon="6.78398">
        <ele>399</ele>
        <time>2016-07-17T08:34:16.000Z</time>
      </trkpt>
      <trkpt lat="47.59733" lon="6.78397">
        <ele>399</ele>
        <time>2016-07-17T08:34:17.000Z</time>
      </trkpt>
      <trkpt lat="47.59736" lon="6.78395">
        <ele>399</ele>
        <time>2016-07-17T08:34:18.000Z</time>
      </trkpt>
      <trkpt lat="47.5974" lon="6.78394">
        <ele>400</ele>
        <time>2016-07-17T08:34:19.000Z</time>
      </trkpt>
      <trkpt lat="47.59743" lon="6.78394">
        <ele>400</ele>
        <time>2016-07-17T08:34:20.000Z</time>
      </trkpt>
      <trkpt lat="47.59746" lon="6.78392">
        <ele>400</ele>
        <time>2016-07-17T08:34:21.000Z</time>
      </trkpt>
      <trkpt lat="47.59749" lon="6.78392">
        <ele>400</ele>
        <time>2016-07-17T08:34:22.000Z</time>
      </trkpt>
      <trkpt lat="47.59752" lon="6.78391">
        <ele>402</ele>
        <time>2016-07-17T08:34:23.000Z</time>
      </trkpt>
      <trkpt lat="47.59754" lon="6.78391">
        <ele>402</ele>
        <time>2016-07-17T08:34:24.000Z</time>
      </trkpt>
      <trkpt lat="47.59757" lon="6.78391">
        <ele>402</ele>
        <time>2016-07-17T08:34:25.000Z</time>
      </trkpt>
      <trkpt lat="47.5976" lon="6.7839">
        <ele>402</ele>
        <time>2016-07-17T08:34:26.000Z</time>
      </trkpt>
      <trkpt lat="47.59763" lon="6.78389">
        <ele>402</ele>
        <time>2016-07-17T08:34:27.000Z</time>
      </trkpt>
      <trkpt lat="47.59766" lon="6.78387">
        <ele>402</ele>
        <time>2016-07-17T08:34:28.000Z</time>
      </trkpt>
      <trkpt lat="47.5977" lon="6.78384">
        <ele>402</ele>
        <time>2016-07-17T08:34:29.000Z</time>
      </trkpt>
      <trkpt lat="47.59772" lon="6.78381">
        <ele>402</ele>
        <time>2016-07-17T08:34:30.000Z</time>
      </trkpt>
      <trkpt lat="47.59775" lon="6.78378">
        <ele>402</ele>
        <time>2016-07-17T08:34:31.000Z</time>
      </trkpt>
      <trkpt lat="47.59778" lon="6.78373">
        <ele>401</ele>
        <time>2016-07-17T08:34:32.000Z</time>
      </trkpt>
      <trkpt lat="47.5978" lon="6.78368">
        <ele>401</ele>
        <time>2016-07-17T08:34:33.000Z</time>
      </trkpt>
      <trkpt lat="47.59782" lon="6.78363">
        <ele>401</ele>
        <time>2016-07-17T08:34:34.000Z</time>
      </trkpt>
      <trkpt lat="47.59785" lon="6.78357">
        <ele>401</ele>
        <time>2016-07-17T08:34:35.000Z</time>
      </trkpt>
      <trkpt lat="47.59786" lon="6.78351">
        <ele>401</ele>
        <time>2016-07-17T08:34:36.000Z</time>
      </trkpt>
      <trkpt lat="47.59787" lon="6.78344">
        <ele>400</ele>
        <time>2016-07-17T08:34:37.000Z</time>
      </trkpt>
      <trkpt lat="47.59785" lon="6.7834">
        <ele>400</ele>
        <time>2016-07-17T08:34:38.000Z</time>
      </trkpt>
      <trkpt lat="47.59772" lon="6.78336">
        <ele>399</ele>
        <time>2016-07-17T08:34:39.000Z</time>
      </trkpt>
      <trkpt lat="47.59767" lon="6.78332">
        <ele>393</ele>
        <time>2016-07-17T08:34:40.000Z</time>
      </trkpt>
      <trkpt lat="47.59766" lon="6.78327">
        <ele>393</ele>
        <time>2016-07-17T08:34:41.000Z</time>
      </trkpt>
      <trkpt lat="47.59763" lon="6.78322">
        <ele>393</ele>
        <time>2016-07-17T08:34:42.000Z</time>
      </trkpt>
      <trkpt lat="47.59758" lon="6.78326">
        <ele>394</ele>
        <time>2016-07-17T08:34:43.000Z</time>
      </trkpt>
      <trkpt lat="47.59752" lon="6.78326">
        <ele>394</ele>
        <time>2016-07-17T08:34:44.000Z</time>
      </trkpt>
      <trkpt lat="47.59746" lon="6.78323">
        <ele>393</ele>
        <time>2016-07-17T08:34:45.000Z</time>
      </trkpt>
      <trkpt lat="47.59741" lon="6.7832">
        <ele>391</ele>
        <time>2016-07-17T08:34:46.000Z</time>
      </trkpt>
      <trkpt lat="47.59735" lon="6.7832">
        <ele>391</ele>
        <time>2016-07-17T08:34:47.000Z</time>
      </trkpt>
      <trkpt lat="47.5973" lon="6.7832">
        <ele>390</ele>
        <time>2016-07-17T08:34:48.000Z</time>
      </trkpt>
      <trkpt lat="47.59725" lon="6.7832">
        <ele>389</ele>
        <time>2016-07-17T08:34:49.000Z</time>
      </trkpt>
      <trkpt lat="47.59718" lon="6.78321">
        <ele>389</ele>
        <time>2016-07-17T08:34:50.000Z</time>
      </trkpt>
      <trkpt lat="47.59713" lon="6.78316">
        <ele>388</ele>
        <time>2016-07-17T08:34:51.000Z</time>
      </trkpt>
      <trkpt lat="47.59705" lon="6.7832">
        <ele>388</ele>
        <time>2016-07-17T08:34:52.000Z</time>
      </trkpt>
      <trkpt lat="47.59699" lon="6.7832">
        <ele>388</ele>
        <time>2016-07-17T08:34:53.000Z</time>
      </trkpt>
      <trkpt lat="47.59693" lon="6.78316">
        <ele>388</ele>
        <time>2016-07-17T08:34:54.000Z</time>
      </trkpt>
      <trkpt lat="47.59686" lon="6.78317">
        <ele>388</ele>
        <time>2016-07-17T08:34:55.000Z</time>
      </trkpt>
      <trkpt lat="47.59678" lon="6.78317">
        <ele>388</ele>
        <time>2016-07-17T08:34:56.000Z</time>
      </trkpt>
      <trkpt lat="47.5967" lon="6.78316">
        <ele>388</ele>
        <time>2016-07-17T08:34:57.000Z</time>
      </trkpt>
      <trkpt lat="47.59666" lon="6.78315">
        <ele>385</ele>
        <time>2016-07-17T08:34:58.000Z</time>
      </trkpt>
      <trkpt lat="47.59661" lon="6.78315">
        <ele>385</ele>
        <time>2016-07-17T08:34:59.000Z</time>
      </trkpt>
      <trkpt lat="47.59657" lon="6.78316">
        <ele>384</ele>
        <time>2016-07-17T08:35:00.000Z</time>
      </trkpt>
      <trkpt lat="47.59651" lon="6.78315">
        <ele>384</ele>
        <time>2016-07-17T08:35:01.000Z</time>
      </trkpt>
      <trkpt lat="47.59643" lon="6.78317">
        <ele>383</ele>
        <time>2016-07-17T08:35:02.000Z</time>
      </trkpt>
      <trkpt lat="47.59637" lon="6.7832">
        <ele>383</ele>
        <time>2016-07-17T08:35:03.000Z</time>
      </trkpt>
      <trkpt lat="47.5963" lon="6.78321">
        <ele>382</ele>
        <time>2016-07-17T08:35:04.000Z</time>
      </trkpt>
      <trkpt lat="47.59624" lon="6.78323">
        <ele>382</ele>
        <time>2016-07-17T08:35:05.000Z</time>
      </trkpt>
      <trkpt lat="47.59619" lon="6.78324">
        <ele>381</ele>
        <time>2016-07-17T08:35:06.000Z</time>
      </trkpt>
      <trkpt lat="47.59613" lon="6.78326">
        <ele>381</ele>
        <time>2016-07-17T08:35:07.000Z</time>
      </trkpt>
      <trkpt lat="47.59606" lon="6.78328">
        <ele>382</ele>
        <time>2016-07-17T08:35:08.000Z</time>
      </trkpt>
      <trkpt lat="47.59599" lon="6.78333">
        <ele>382</ele>
        <time>2016-07-17T08:35:09.000Z</time>
      </trkpt>
      <trkpt lat="47.5959" lon="6.78337">
        <ele>386</ele>
        <time>2016-07-17T08:35:10.000Z</time>
      </trkpt>
      <trkpt lat="47.59579" lon="6.78343">
        <ele>384</ele>
        <time>2016-07-17T08:35:11.000Z</time>
      </trkpt>
      <trkpt lat="47.59571" lon="6.7835">
        <ele>383</ele>
        <time>2016-07-17T08:35:12.000Z</time>
      </trkpt>
      <trkpt lat="47.59565" lon="6.78362">
        <ele>383</ele>
        <time>2016-07-17T08:35:13.000Z</time>
      </trkpt>
      <trkpt lat="47.5956" lon="6.78368">
        <ele>383</ele>
        <time>2016-07-17T08:35:14.000Z</time>
      </trkpt>
      <trkpt lat="47.59553" lon="6.78377">
        <ele>383</ele>
        <time>2016-07-17T08:35:15.000Z</time>
      </trkpt>
      <trkpt lat="47.59547" lon="6.78385">
        <ele>383</ele>
        <time>2016-07-17T08:35:16.000Z</time>
      </trkpt>
      <trkpt lat="47.5954" lon="6.78387">
        <ele>383</ele>
        <time>2016-07-17T08:35:17.000Z</time>
      </trkpt>
      <trkpt lat="47.59533" lon="6.78386">
        <ele>383</ele>
        <time>2016-07-17T08:35:18.000Z</time>
      </trkpt>
      <trkpt lat="47.59529" lon="6.78385">
        <ele>382</ele>
        <time>2016-07-17T08:35:19.000Z</time>
      </trkpt>
      <trkpt lat="47.59524" lon="6.78381">
        <ele>382</ele>
        <time>2016-07-17T08:35:20.000Z</time>
      </trkpt>
      <trkpt lat="47.59522" lon="6.7837">
        <ele>382</ele>
        <time>2016-07-17T08:35:21.000Z</time>
      </trkpt>
      <trkpt lat="47.59521" lon="6.78367">
        <ele>382</ele>
        <time>2016-07-17T08:35:22.000Z</time>
      </trkpt>
      <trkpt lat="47.59519" lon="6.78358">
        <ele>381</ele>
        <time>2016-07-17T08:35:23.000Z</time>
      </trkpt>
      <trkpt lat="47.59521" lon="6.78353">
        <ele>381</ele>
        <time>2016-07-17T08:35:24.000Z</time>
      </trkpt>
      <trkpt lat="47.59522" lon="6.78349">
        <ele>381</ele>
        <time>2016-07-17T08:35:25.000Z</time>
      </trkpt>
      <trkpt lat="47.59522" lon="6.78346">
        <ele>381</ele>
        <time>2016-07-17T08:35:29.000Z</time>
      </trkpt>
      <trkpt lat="47.59525" lon="6.78341">
        <ele>381</ele>
        <time>2016-07-17T08:35:30.000Z</time>
      </trkpt>
      <trkpt lat="47.59528" lon="6.78337">
        <ele>381</ele>
        <time>2016-07-17T08:35:31.000Z</time>
      </trkpt>
      <trkpt lat="47.59532" lon="6.78335">
        <ele>381</ele>
        <time>2016-07-17T08:35:32.000Z</time>
      </trkpt>
      <trkpt lat="47.59537" lon="6.78332">
        <ele>376</ele>
        <time>2016-07-17T08:35:33.000Z</time>
      </trkpt>
      <trkpt lat="47.59542" lon="6.78331">
        <ele>376</ele>
        <time>2016-07-17T08:35:34.000Z</time>
      </trkpt>
      <trkpt lat="47.59546" lon="6.78329">
        <ele>377</ele>
        <time>2016-07-17T08:35:35.000Z</time>
      </trkpt>
      <trkpt lat="47.59553" lon="6.78325">
        <ele>377</ele>
        <time>2016-07-17T08:35:36.000Z</time>
      </trkpt>
      <trkpt lat="47.59557" lon="6.78321">
        <ele>377</ele>
        <time>2016-07-17T08:35:37.000Z</time>
      </trkpt>
      <trkpt lat="47.59563" lon="6.78318">
        <ele>377</ele>
        <time>2016-07-17T08:35:38.000Z</time>
      </trkpt>
      <trkpt lat="47.5957" lon="6.78314">
        <ele>377</ele>
        <time>2016-07-17T08:35:39.000Z</time>
      </trkpt>
      <trkpt lat="47.59577" lon="6.78311">
        <ele>377</ele>
        <time>2016-07-17T08:35:40.000Z</time>
      </trkpt>
      <trkpt lat="47.59583" lon="6.78306">
        <ele>376</ele>
        <time>2016-07-17T08:35:41.000Z</time>
      </trkpt>
      <trkpt lat="47.5959" lon="6.78302">
        <ele>379</ele>
        <time>2016-07-17T08:35:42.000Z</time>
      </trkpt>
      <trkpt lat="47.59597" lon="6.78297">
        <ele>378</ele>
        <time>2016-07-17T08:35:43.000Z</time>
      </trkpt>
      <trkpt lat="47.59604" lon="6.78291">
        <ele>378</ele>
        <time>2016-07-17T08:35:44.000Z</time>
      </trkpt>
      <trkpt lat="47.59611" lon="6.78286">
        <ele>377</ele>
        <time>2016-07-17T08:35:45.000Z</time>
      </trkpt>
      <trkpt lat="47.59618" lon="6.78277">
        <ele>377</ele>
        <time>2016-07-17T08:35:46.000Z</time>
      </trkpt>
      <trkpt lat="47.59624" lon="6.7827">
        <ele>377</ele>
        <time>2016-07-17T08:35:47.000Z</time>
      </trkpt>
      <trkpt lat="47.5963" lon="6.78261">
        <ele>377</ele>
        <time>2016-07-17T08:35:48.000Z</time>
      </trkpt>
      <trkpt lat="47.59636" lon="6.78252">
        <ele>377</ele>
        <time>2016-07-17T08:35:49.000Z</time>
      </trkpt>
      <trkpt lat="47.59644" lon="6.78245">
        <ele>372</ele>
        <time>2016-07-17T08:35:50.000Z</time>
      </trkpt>
      <trkpt lat="47.5965" lon="6.78235">
        <ele>372</ele>
        <time>2016-07-17T08:35:51.000Z</time>
      </trkpt>
      <trkpt lat="47.59656" lon="6.78226">
        <ele>371</ele>
        <time>2016-07-17T08:35:52.000Z</time>
      </trkpt>
      <trkpt lat="47.59662" lon="6.78218">
        <ele>370</ele>
        <time>2016-07-17T08:35:53.000Z</time>
      </trkpt>
      <trkpt lat="47.5967" lon="6.78211">
        <ele>372</ele>
        <time>2016-07-17T08:35:54.000Z</time>
      </trkpt>
      <trkpt lat="47.59677" lon="6.78205">
        <ele>372</ele>
        <time>2016-07-17T08:35:55.000Z</time>
      </trkpt>
      <trkpt lat="47.59684" lon="6.782">
        <ele>371</ele>
        <time>2016-07-17T08:35:56.000Z</time>
      </trkpt>
      <trkpt lat="47.59691" lon="6.782">
        <ele>372</ele>
        <time>2016-07-17T08:35:57.000Z</time>
      </trkpt>
      <trkpt lat="47.59698" lon="6.78197">
        <ele>372</ele>
        <time>2016-07-17T08:35:58.000Z</time>
      </trkpt>
      <trkpt lat="47.59705" lon="6.78197">
        <ele>372</ele>
        <time>2016-07-17T08:35:59.000Z</time>
      </trkpt>
      <trkpt lat="47.59712" lon="6.78195">
        <ele>372</ele>
        <time>2016-07-17T08:36:00.000Z</time>
      </trkpt>
      <trkpt lat="47.59719" lon="6.7819">
        <ele>372</ele>
        <time>2016-07-17T08:36:01.000Z</time>
      </trkpt>
      <trkpt lat="47.59724" lon="6.7818">
        <ele>371</ele>
        <time>2016-07-17T08:36:02.000Z</time>
      </trkpt>
      <trkpt lat="47.59729" lon="6.78171">
        <ele>370</ele>
        <time>2016-07-17T08:36:03.000Z</time>
      </trkpt>
      <trkpt lat="47.59732" lon="6.78163">
        <ele>370</ele>
        <time>2016-07-17T08:36:04.000Z</time>
      </trkpt>
      <trkpt lat="47.5972" lon="6.7815">
        <ele>371</ele>
        <time>2016-07-17T08:36:05.000Z</time>
      </trkpt>
      <trkpt lat="47.59718" lon="6.78143">
        <ele>371</ele>
        <time>2016-07-17T08:36:06.000Z</time>
      </trkpt>
      <trkpt lat="47.59715" lon="6.78138">
        <ele>372</ele>
        <time>2016-07-17T08:36:07.000Z</time>
      </trkpt>
      <trkpt lat="47.59711" lon="6.78133">
        <ele>372</ele>
        <time>2016-07-17T08:36:08.000Z</time>
      </trkpt>
      <trkpt lat="47.59706" lon="6.78134">
        <ele>372</ele>
        <time>2016-07-17T08:36:09.000Z</time>
      </trkpt>
      <trkpt lat="47.59702" lon="6.7813">
        <ele>372</ele>
        <time>2016-07-17T08:36:10.000Z</time>
      </trkpt>
      <trkpt lat="47.59699" lon="6.78129">
        <ele>372</ele>
        <time>2016-07-17T08:36:11.000Z</time>
      </trkpt>
      <trkpt lat="47.59696" lon="6.78129">
        <ele>372</ele>
        <time>2016-07-17T08:36:12.000Z</time>
      </trkpt>
      <trkpt lat="47.5969" lon="6.78129">
        <ele>372</ele>
        <time>2016-07-17T08:36:13.000Z</time>
      </trkpt>
      <trkpt lat="47.59687" lon="6.7813">
        <ele>372</ele>
        <time>2016-07-17T08:36:14.000Z</time>
      </trkpt>
      <trkpt lat="47.59684" lon="6.78131">
        <ele>372</ele>
        <time>2016-07-17T08:36:15.000Z</time>
      </trkpt>
      <trkpt lat="47.5968" lon="6.78131">
        <ele>372</ele>
        <time>2016-07-17T08:36:16.000Z</time>
      </trkpt>
      <trkpt lat="47.59678" lon="6.78132">
        <ele>372</ele>
        <time>2016-07-17T08:36:17.000Z</time>
      </trkpt>
      <trkpt lat="47.59675" lon="6.78132">
        <ele>372</ele>
        <time>2016-07-17T08:36:18.000Z</time>
      </trkpt>
      <trkpt lat="47.59672" lon="6.78132">
        <ele>372</ele>
        <time>2016-07-17T08:36:19.000Z</time>
      </trkpt>
      <trkpt lat="47.5967" lon="6.78132">
        <ele>372</ele>
        <time>2016-07-17T08:36:20.000Z</time>
      </trkpt>
      <trkpt lat="47.59667" lon="6.78132">
        <ele>372</ele>
        <time>2016-07-17T08:36:21.000Z</time>
      </trkpt>
      <trkpt lat="47.59664" lon="6.78132">
        <ele>374</ele>
        <time>2016-07-17T08:36:22.000Z</time>
      </trkpt>
      <trkpt lat="47.5966" lon="6.78131">
        <ele>374</ele>
        <time>2016-07-17T08:36:23.000Z</time>
      </trkpt>
      <trkpt lat="47.59657" lon="6.7813">
        <ele>374</ele>
        <time>2016-07-17T08:36:24.000Z</time>
      </trkpt>
      <trkpt lat="47.59654" lon="6.7813">
        <ele>374</ele>
        <time>2016-07-17T08:36:25.000Z</time>
      </trkpt>
      <trkpt lat="47.59652" lon="6.78129">
        <ele>374</ele>
        <time>2016-07-17T08:36:26.000Z</time>
      </trkpt>
      <trkpt lat="47.59649" lon="6.78128">
        <ele>375</ele>
        <time>2016-07-17T08:36:27.000Z</time>
      </trkpt>
      <trkpt lat="47.59647" lon="6.78128">
        <ele>375</ele>
        <time>2016-07-17T08:36:28.000Z</time>
      </trkpt>
      <trkpt lat="47.59644" lon="6.78128">
        <ele>375</ele>
        <time>2016-07-17T08:36:29.000Z</time>
      </trkpt>
      <trkpt lat="47.5964" lon="6.78128">
        <ele>375</ele>
        <time>2016-07-17T08:36:30.000Z</time>
      </trkpt>
      <trkpt lat="47.59637" lon="6.78127">
        <ele>375</ele>
        <time>2016-07-17T08:36:31.000Z</time>
      </trkpt>
      <trkpt lat="47.59633" lon="6.78128">
        <ele>375</ele>
        <time>2016-07-17T08:36:32.000Z</time>
      </trkpt>
      <trkpt lat="47.5963" lon="6.78128">
        <ele>375</ele>
        <time>2016-07-17T08:36:33.000Z</time>
      </trkpt>
      <trkpt lat="47.59627" lon="6.78129">
        <ele>375</ele>
        <time>2016-07-17T08:36:34.000Z</time>
      </trkpt>
      <trkpt lat="47.59624" lon="6.7813">
        <ele>375</ele>
        <time>2016-07-17T08:36:35.000Z</time>
      </trkpt>
      <trkpt lat="47.59622" lon="6.78131">
        <ele>375</ele>
        <time>2016-07-17T08:36:37.000Z</time>
      </trkpt>
      <trkpt lat="47.5962" lon="6.78132">
        <ele>375</ele>
        <time>2016-07-17T08:36:38.000Z</time>
      </trkpt>
      <trkpt lat="47.59617" lon="6.78131">
        <ele>375</ele>
        <time>2016-07-17T08:36:39.000Z</time>
      </trkpt>
      <trkpt lat="47.59614" lon="6.78132">
        <ele>375</ele>
        <time>2016-07-17T08:36:40.000Z</time>
      </trkpt>
      <trkpt lat="47.59611" lon="6.78132">
        <ele>375</ele>
        <time>2016-07-17T08:36:41.000Z</time>
      </trkpt>
      <trkpt lat="47.59608" lon="6.78133">
        <ele>375</ele>
        <time>2016-07-17T08:36:42.000Z</time>
      </trkpt>
      <trkpt lat="47.59605" lon="6.78136">
        <ele>375</ele>
        <time>2016-07-17T08:36:44.000Z</time>
      </trkpt>
      <trkpt lat="47.59605" lon="6.78139">
        <ele>375</ele>
        <time>2016-07-17T08:36:45.000Z</time>
      </trkpt>
      <trkpt lat="47.59602" lon="6.78142">
        <ele>374</ele>
        <time>2016-07-17T08:36:47.000Z</time>
      </trkpt>
      <trkpt lat="47.596" lon="6.78143">
        <ele>374</ele>
        <time>2016-07-17T08:36:48.000Z</time>
      </trkpt>
      <trkpt lat="47.59596" lon="6.78144">
        <ele>374</ele>
        <time>2016-07-17T08:36:49.000Z</time>
      </trkpt>
      <trkpt lat="47.59593" lon="6.78145">
        <ele>374</ele>
        <time>2016-07-17T08:36:50.000Z</time>
      </trkpt>
      <trkpt lat="47.59589" lon="6.78145">
        <ele>373</ele>
        <time>2016-07-17T08:36:51.000Z</time>
      </trkpt>
      <trkpt lat="47.59586" lon="6.78146">
        <ele>373</ele>
        <time>2016-07-17T08:36:52.000Z</time>
      </trkpt>
      <trkpt lat="47.59582" lon="6.78147">
        <ele>375</ele>
        <time>2016-07-17T08:36:53.000Z</time>
      </trkpt>
      <trkpt lat="47.59579" lon="6.78148">
        <ele>375</ele>
        <time>2016-07-17T08:36:54.000Z</time>
      </trkpt>
      <trkpt lat="47.59576" lon="6.78149">
        <ele>375</ele>
        <time>2016-07-17T08:36:55.000Z</time>
      </trkpt>
      <trkpt lat="47.59572" lon="6.78151">
        <ele>375</ele>
        <time>2016-07-17T08:36:56.000Z</time>
      </trkpt>
      <trkpt lat="47.59569" lon="6.78152">
        <ele>375</ele>
        <time>2016-07-17T08:36:57.000Z</time>
      </trkpt>
      <trkpt lat="47.59565" lon="6.78154">
        <ele>375</ele>
        <time>2016-07-17T08:36:58.000Z</time>
      </trkpt>
      <trkpt lat="47.59562" lon="6.78156">
        <ele>375</ele>
        <time>2016-07-17T08:36:59.000Z</time>
      </trkpt>
      <trkpt lat="47.5956" lon="6.78158">
        <ele>376</ele>
        <time>2016-07-17T08:37:00.000Z</time>
      </trkpt>
      <trkpt lat="47.59557" lon="6.78159">
        <ele>376</ele>
        <time>2016-07-17T08:37:01.000Z</time>
      </trkpt>
      <trkpt lat="47.59554" lon="6.7816">
        <ele>376</ele>
        <time>2016-07-17T08:37:02.000Z</time>
      </trkpt>
      <trkpt lat="47.5955" lon="6.78161">
        <ele>376</ele>
        <time>2016-07-17T08:37:03.000Z</time>
      </trkpt>
      <trkpt lat="47.59547" lon="6.78163">
        <ele>376</ele>
        <time>2016-07-17T08:37:04.000Z</time>
      </trkpt>
      <trkpt lat="47.59544" lon="6.78164">
        <ele>376</ele>
        <time>2016-07-17T08:37:05.000Z</time>
      </trkpt>
      <trkpt lat="47.59542" lon="6.78164">
        <ele>377</ele>
        <time>2016-07-17T08:37:06.000Z</time>
      </trkpt>
      <trkpt lat="47.59539" lon="6.78163">
        <ele>377</ele>
        <time>2016-07-17T08:37:07.000Z</time>
      </trkpt>
      <trkpt lat="47.59536" lon="6.78161">
        <ele>377</ele>
        <time>2016-07-17T08:37:08.000Z</time>
      </trkpt>
      <trkpt lat="47.59534" lon="6.7816">
        <ele>377</ele>
        <time>2016-07-17T08:37:09.000Z</time>
      </trkpt>
      <trkpt lat="47.59532" lon="6.78158">
        <ele>377</ele>
        <time>2016-07-17T08:37:10.000Z</time>
      </trkpt>
      <trkpt lat="47.5953" lon="6.78156">
        <ele>377</ele>
        <time>2016-07-17T08:37:11.000Z</time>
      </trkpt>
      <trkpt lat="47.59528" lon="6.78154">
        <ele>377</ele>
        <time>2016-07-17T08:37:12.000Z</time>
      </trkpt>
      <trkpt lat="47.59525" lon="6.78148">
        <ele>378</ele>
        <time>2016-07-17T08:37:14.000Z</time>
      </trkpt>
      <trkpt lat="47.59524" lon="6.78145">
        <ele>378</ele>
        <time>2016-07-17T08:37:15.000Z</time>
      </trkpt>
      <trkpt lat="47.59524" lon="6.7814">
        <ele>378</ele>
        <time>2016-07-17T08:37:17.000Z</time>
      </trkpt>
      <trkpt lat="47.59525" lon="6.78138">
        <ele>379</ele>
        <time>2016-07-17T08:37:18.000Z</time>
      </trkpt>
      <trkpt lat="47.59526" lon="6.78135">
        <ele>379</ele>
        <time>2016-07-17T08:37:19.000Z</time>
      </trkpt>
      <trkpt lat="47.59528" lon="6.78133">
        <ele>379</ele>
        <time>2016-07-17T08:37:20.000Z</time>
      </trkpt>
      <trkpt lat="47.5953" lon="6.7813">
        <ele>379</ele>
        <time>2016-07-17T08:37:21.000Z</time>
      </trkpt>
      <trkpt lat="47.59532" lon="6.78128">
        <ele>380</ele>
        <time>2016-07-17T08:37:22.000Z</time>
      </trkpt>
      <trkpt lat="47.59535" lon="6.78127">
        <ele>380</ele>
        <time>2016-07-17T08:37:23.000Z</time>
      </trkpt>
      <trkpt lat="47.59537" lon="6.78127">
        <ele>380</ele>
        <time>2016-07-17T08:37:24.000Z</time>
      </trkpt>
      <trkpt lat="47.5954" lon="6.78126">
        <ele>380</ele>
        <time>2016-07-17T08:37:25.000Z</time>
      </trkpt>
      <trkpt lat="47.59543" lon="6.78127">
        <ele>380</ele>
        <time>2016-07-17T08:37:26.000Z</time>
      </trkpt>
      <trkpt lat="47.59546" lon="6.78127">
        <ele>380</ele>
        <time>2016-07-17T08:37:27.000Z</time>
      </trkpt>
      <trkpt lat="47.59549" lon="6.78127">
        <ele>379</ele>
        <time>2016-07-17T08:37:28.000Z</time>
      </trkpt>
      <trkpt lat="47.59552" lon="6.78128">
        <ele>379</ele>
        <time>2016-07-17T08:37:29.000Z</time>
      </trkpt>
      <trkpt lat="47.59554" lon="6.7813">
        <ele>379</ele>
        <time>2016-07-17T08:37:30.000Z</time>
      </trkpt>
      <trkpt lat="47.59556" lon="6.78132">
        <ele>379</ele>
        <time>2016-07-17T08:37:31.000Z</time>
      </trkpt>
      <trkpt lat="47.59558" lon="6.78134">
        <ele>378</ele>
        <time>2016-07-17T08:37:32.000Z</time>
      </trkpt>
      <trkpt lat="47.5956" lon="6.78137">
        <ele>378</ele>
        <time>2016-07-17T08:37:33.000Z</time>
      </trkpt>
      <trkpt lat="47.59563" lon="6.78139">
        <ele>378</ele>
        <time>2016-07-17T08:37:34.000Z</time>
      </trkpt>
      <trkpt lat="47.59566" lon="6.78139">
        <ele>377</ele>
        <time>2016-07-17T08:37:35.000Z</time>
      </trkpt>
      <trkpt lat="47.5957" lon="6.78139">
        <ele>377</ele>
        <time>2016-07-17T08:37:36.000Z</time>
      </trkpt>
      <trkpt lat="47.59573" lon="6.78138">
        <ele>377</ele>
        <time>2016-07-17T08:37:37.000Z</time>
      </trkpt>
      <trkpt lat="47.59576" lon="6.78136">
        <ele>377</ele>
        <time>2016-07-17T08:37:38.000Z</time>
      </trkpt>
      <trkpt lat="47.5958" lon="6.78134">
        <ele>378</ele>
        <time>2016-07-17T08:37:39.000Z</time>
      </trkpt>
      <trkpt lat="47.59583" lon="6.78133">
        <ele>378</ele>
        <time>2016-07-17T08:37:40.000Z</time>
      </trkpt>
      <trkpt lat="47.59585" lon="6.78132">
        <ele>376</ele>
        <time>2016-07-17T08:37:41.000Z</time>
      </trkpt>
      <trkpt lat="47.59588" lon="6.78131">
        <ele>376</ele>
        <time>2016-07-17T08:37:42.000Z</time>
      </trkpt>
      <trkpt lat="47.59591" lon="6.78129">
        <ele>376</ele>
        <time>2016-07-17T08:37:43.000Z</time>
      </trkpt>
      <trkpt lat="47.59594" lon="6.78127">
        <ele>376</ele>
        <time>2016-07-17T08:37:44.000Z</time>
      </trkpt>
      <trkpt lat="47.59597" lon="6.78125">
        <ele>377</ele>
        <time>2016-07-17T08:37:45.000Z</time>
      </trkpt>
      <trkpt lat="47.596" lon="6.78124">
        <ele>377</ele>
        <time>2016-07-17T08:37:46.000Z</time>
      </trkpt>
      <trkpt lat="47.59603" lon="6.78122">
        <ele>377</ele>
        <time>2016-07-17T08:37:47.000Z</time>
      </trkpt>
      <trkpt lat="47.59605" lon="6.7812">
        <ele>377</ele>
        <time>2016-07-17T08:37:48.000Z</time>
      </trkpt>
      <trkpt lat="47.59608" lon="6.78117">
        <ele>377</ele>
        <time>2016-07-17T08:37:49.000Z</time>
      </trkpt>
      <trkpt lat="47.5961" lon="6.78114">
        <ele>378</ele>
        <time>2016-07-17T08:37:50.000Z</time>
      </trkpt>
      <trkpt lat="47.59612" lon="6.78111">
        <ele>378</ele>
        <time>2016-07-17T08:37:51.000Z</time>
      </trkpt>
      <trkpt lat="47.59614" lon="6.78107">
        <ele>378</ele>
        <time>2016-07-17T08:37:52.000Z</time>
      </trkpt>
      <trkpt lat="47.59616" lon="6.78104">
        <ele>378</ele>
        <time>2016-07-17T08:37:53.000Z</time>
      </trkpt>
      <trkpt lat="47.59617" lon="6.78101">
        <ele>379</ele>
        <time>2016-07-17T08:37:54.000Z</time>
      </trkpt>
      <trkpt lat="47.59619" lon="6.78098">
        <ele>379</ele>
        <time>2016-07-17T08:37:55.000Z</time>
      </trkpt>
      <trkpt lat="47.59621" lon="6.78095">
        <ele>379</ele>
        <time>2016-07-17T08:37:56.000Z</time>
      </trkpt>
      <trkpt lat="47.59622" lon="6.78092">
        <ele>379</ele>
        <time>2016-07-17T08:37:57.000Z</time>
      </trkpt>
      <trkpt lat="47.59624" lon="6.7809">
        <ele>379</ele>
        <time>2016-07-17T08:37:58.000Z</time>
      </trkpt>
      <trkpt lat="47.59627" lon="6.78088">
        <ele>379</ele>
        <time>2016-07-17T08:37:59.000Z</time>
      </trkpt>
      <trkpt lat="47.59629" lon="6.78086">
        <ele>379</ele>
        <time>2016-07-17T08:38:00.000Z</time>
      </trkpt>
      <trkpt lat="47.59631" lon="6.78085">
        <ele>379</ele>
        <time>2016-07-17T08:38:01.000Z</time>
      </trkpt>
      <trkpt lat="47.59633" lon="6.78083">
        <ele>388</ele>
        <time>2016-07-17T08:38:02.000Z</time>
      </trkpt>
      <trkpt lat="47.59637" lon="6.78081">
        <ele>388</ele>
        <time>2016-07-17T08:38:04.000Z</time>
      </trkpt>
      <trkpt lat="47.59639" lon="6.7808">
        <ele>388</ele>
        <time>2016-07-17T08:38:05.000Z</time>
      </trkpt>
      <trkpt lat="47.59642" lon="6.78079">
        <ele>387</ele>
        <time>2016-07-17T08:38:06.000Z</time>
      </trkpt>
      <trkpt lat="47.59644" lon="6.78078">
        <ele>387</ele>
        <time>2016-07-17T08:38:07.000Z</time>
      </trkpt>
      <trkpt lat="47.59646" lon="6.78077">
        <ele>387</ele>
        <time>2016-07-17T08:38:08.000Z</time>
      </trkpt>
      <trkpt lat="47.59648" lon="6.78076">
        <ele>387</ele>
        <time>2016-07-17T08:38:09.000Z</time>
      </trkpt>
      <trkpt lat="47.5965" lon="6.78075">
        <ele>386</ele>
        <time>2016-07-17T08:38:10.000Z</time>
      </trkpt>
      <trkpt lat="47.59653" lon="6.78074">
        <ele>386</ele>
        <time>2016-07-17T08:38:11.000Z</time>
      </trkpt>
      <trkpt lat="47.59657" lon="6.78072">
        <ele>386</ele>
        <time>2016-07-17T08:38:13.000Z</time>
      </trkpt>
      <trkpt lat="47.59659" lon="6.78071">
        <ele>386</ele>
        <time>2016-07-17T08:38:14.000Z</time>
      </trkpt>
      <trkpt lat="47.59661" lon="6.78071">
        <ele>386</ele>
        <time>2016-07-17T08:38:15.000Z</time>
      </trkpt>
      <trkpt lat="47.59663" lon="6.7807">
        <ele>386</ele>
        <time>2016-07-17T08:38:16.000Z</time>
      </trkpt>
      <trkpt lat="47.59665" lon="6.78069">
        <ele>386</ele>
        <time>2016-07-17T08:38:17.000Z</time>
      </trkpt>
      <trkpt lat="47.59667" lon="6.78069">
        <ele>384</ele>
        <time>2016-07-17T08:38:18.000Z</time>
      </trkpt>
      <trkpt lat="47.5967" lon="6.78067">
        <ele>384</ele>
        <time>2016-07-17T08:38:19.000Z</time>
      </trkpt>
      <trkpt lat="47.59671" lon="6.78065">
        <ele>384</ele>
        <time>2016-07-17T08:38:20.000Z</time>
      </trkpt>
      <trkpt lat="47.59673" lon="6.78063">
        <ele>384</ele>
        <time>2016-07-17T08:38:21.000Z</time>
      </trkpt>
      <trkpt lat="47.59675" lon="6.78061">
        <ele>385</ele>
        <time>2016-07-17T08:38:22.000Z</time>
      </trkpt>
      <trkpt lat="47.59677" lon="6.78059">
        <ele>385</ele>
        <time>2016-07-17T08:38:23.000Z</time>
      </trkpt>
      <trkpt lat="47.59679" lon="6.78057">
        <ele>385</ele>
        <time>2016-07-17T08:38:24.000Z</time>
      </trkpt>
      <trkpt lat="47.59683" lon="6.78053">
        <ele>386</ele>
        <time>2016-07-17T08:38:26.000Z</time>
      </trkpt>
      <trkpt lat="47.59684" lon="6.78051">
        <ele>386</ele>
        <time>2016-07-17T08:38:27.000Z</time>
      </trkpt>
      <trkpt lat="47.59686" lon="6.78049">
        <ele>386</ele>
        <time>2016-07-17T08:38:28.000Z</time>
      </trkpt>
      <trkpt lat="47.59688" lon="6.78047">
        <ele>386</ele>
        <time>2016-07-17T08:38:29.000Z</time>
      </trkpt>
      <trkpt lat="47.5969" lon="6.78044">
        <ele>387</ele>
        <time>2016-07-17T08:38:30.000Z</time>
      </trkpt>
      <trkpt lat="47.59692" lon="6.78043">
        <ele>387</ele>
        <time>2016-07-17T08:38:31.000Z</time>
      </trkpt>
      <trkpt lat="47.59696" lon="6.78039">
        <ele>387</ele>
        <time>2016-07-17T08:38:33.000Z</time>
      </trkpt>
      <trkpt lat="47.59698" lon="6.78038">
        <ele>387</ele>
        <time>2016-07-17T08:38:34.000Z</time>
      </trkpt>
      <trkpt lat="47.59701" lon="6.78035">
        <ele>387</ele>
        <time>2016-07-17T08:38:36.000Z</time>
      </trkpt>
      <trkpt lat="47.59703" lon="6.78034">
        <ele>387</ele>
        <time>2016-07-17T08:38:37.000Z</time>
      </trkpt>
      <trkpt lat="47.59707" lon="6.78033">
        <ele>387</ele>
        <time>2016-07-17T08:38:39.000Z</time>
      </trkpt>
      <trkpt lat="47.59709" lon="6.78032">
        <ele>387</ele>
        <time>2016-07-17T08:38:40.000Z</time>
      </trkpt>
      <trkpt lat="47.59713" lon="6.78031">
        <ele>387</ele>
        <time>2016-07-17T08:38:42.000Z</time>
      </trkpt>
      <trkpt lat="47.59715" lon="6.78029">
        <ele>387</ele>
        <time>2016-07-17T08:38:43.000Z</time>
      </trkpt>
      <trkpt lat="47.59719" lon="6.78027">
        <ele>387</ele>
        <time>2016-07-17T08:38:45.000Z</time>
      </trkpt>
      <trkpt lat="47.59721" lon="6.78026">
        <ele>387</ele>
        <time>2016-07-17T08:38:46.000Z</time>
      </trkpt>
      <trkpt lat="47.59725" lon="6.78024">
        <ele>387</ele>
        <time>2016-07-17T08:38:48.000Z</time>
      </trkpt>
      <trkpt lat="47.59727" lon="6.78022">
        <ele>388</ele>
        <time>2016-07-17T08:38:49.000Z</time>
      </trkpt>
      <trkpt lat="47.5973" lon="6.78021">
        <ele>388</ele>
        <time>2016-07-17T08:38:51.000Z</time>
      </trkpt>
      <trkpt lat="47.59732" lon="6.7802">
        <ele>388</ele>
        <time>2016-07-17T08:38:52.000Z</time>
      </trkpt>
      <trkpt lat="47.59735" lon="6.78018">
        <ele>388</ele>
        <time>2016-07-17T08:38:54.000Z</time>
      </trkpt>
      <trkpt lat="47.59736" lon="6.78017">
        <ele>388</ele>
        <time>2016-07-17T08:38:55.000Z</time>
      </trkpt>
      <trkpt lat="47.5974" lon="6.78015">
        <ele>388</ele>
        <time>2016-07-17T08:38:57.000Z</time>
      </trkpt>
      <trkpt lat="47.59742" lon="6.78014">
        <ele>389</ele>
        <time>2016-07-17T08:38:58.000Z</time>
      </trkpt>
      <trkpt lat="47.59744" lon="6.78013">
        <ele>389</ele>
        <time>2016-07-17T08:38:59.000Z</time>
      </trkpt>
      <trkpt lat="47.59746" lon="6.78011">
        <ele>389</ele>
        <time>2016-07-17T08:39:00.000Z</time>
      </trkpt>
      <trkpt lat="47.59748" lon="6.7801">
        <ele>389</ele>
        <time>2016-07-17T08:39:01.000Z</time>
      </trkpt>
      <trkpt lat="47.5975" lon="6.78007">
        <ele>390</ele>
        <time>2016-07-17T08:39:02.000Z</time>
      </trkpt>
      <trkpt lat="47.59751" lon="6.78005">
        <ele>389</ele>
        <time>2016-07-17T08:39:03.000Z</time>
      </trkpt>
      <trkpt lat="47.59753" lon="6.78002">
        <ele>390</ele>
        <time>2016-07-17T08:39:04.000Z</time>
      </trkpt>
      <trkpt lat="47.59754" lon="6.77998">
        <ele>391</ele>
        <time>2016-07-17T08:39:05.000Z</time>
      </trkpt>
      <trkpt lat="47.59755" lon="6.77996">
        <ele>391</ele>
        <time>2016-07-17T08:39:06.000Z</time>
      </trkpt>
      <trkpt lat="47.59757" lon="6.77993">
        <ele>391</ele>
        <time>2016-07-17T08:39:07.000Z</time>
      </trkpt>
      <trkpt lat="47.59759" lon="6.77991">
        <ele>391</ele>
        <time>2016-07-17T08:39:08.000Z</time>
      </trkpt>
      <trkpt lat="47.59763" lon="6.77991">
        <ele>391</ele>
        <time>2016-07-17T08:39:10.000Z</time>
      </trkpt>
      <trkpt lat="47.59765" lon="6.77992">
        <ele>391</ele>
        <time>2016-07-17T08:39:11.000Z</time>
      </trkpt>
      <trkpt lat="47.59769" lon="6.77993">
        <ele>391</ele>
        <time>2016-07-17T08:39:13.000Z</time>
      </trkpt>
      <trkpt lat="47.59771" lon="6.77991">
        <ele>391</ele>
        <time>2016-07-17T08:39:14.000Z</time>
      </trkpt>
      <trkpt lat="47.59773" lon="6.77989">
        <ele>391</ele>
        <time>2016-07-17T08:39:15.000Z</time>
      </trkpt>
      <trkpt lat="47.59774" lon="6.77986">
        <ele>391</ele>
        <time>2016-07-17T08:39:16.000Z</time>
      </trkpt>
      <trkpt lat="47.59776" lon="6.77982">
        <ele>391</ele>
        <time>2016-07-17T08:39:17.000Z</time>
      </trkpt>
      <trkpt lat="47.59778" lon="6.77979">
        <ele>391</ele>
        <time>2016-07-17T08:39:18.000Z</time>
      </trkpt>
      <trkpt lat="47.5978" lon="6.77976">
        <ele>391</ele>
        <time>2016-07-17T08:39:19.000Z</time>
      </trkpt>
      <trkpt lat="47.59783" lon="6.77973">
        <ele>391</ele>
        <time>2016-07-17T08:39:20.000Z</time>
      </trkpt>
      <trkpt lat="47.59785" lon="6.77969">
        <ele>391</ele>
        <time>2016-07-17T08:39:21.000Z</time>
      </trkpt>
      <trkpt lat="47.59787" lon="6.77965">
        <ele>391</ele>
        <time>2016-07-17T08:39:22.000Z</time>
      </trkpt>
      <trkpt lat="47.59788" lon="6.7796">
        <ele>391</ele>
        <time>2016-07-17T08:39:23.000Z</time>
      </trkpt>
      <trkpt lat="47.5979" lon="6.77955">
        <ele>392</ele>
        <time>2016-07-17T08:39:24.000Z</time>
      </trkpt>
      <trkpt lat="47.59791" lon="6.77951">
        <ele>392</ele>
        <time>2016-07-17T08:39:25.000Z</time>
      </trkpt>
      <trkpt lat="47.59791" lon="6.77946">
        <ele>392</ele>
        <time>2016-07-17T08:39:26.000Z</time>
      </trkpt>
      <trkpt lat="47.59792" lon="6.77941">
        <ele>392</ele>
        <time>2016-07-17T08:39:27.000Z</time>
      </trkpt>
      <trkpt lat="47.59792" lon="6.77936">
        <ele>393</ele>
        <time>2016-07-17T08:39:28.000Z</time>
      </trkpt>
      <trkpt lat="47.59791" lon="6.77931">
        <ele>393</ele>
        <time>2016-07-17T08:39:29.000Z</time>
      </trkpt>
      <trkpt lat="47.59791" lon="6.77926">
        <ele>393</ele>
        <time>2016-07-17T08:39:30.000Z</time>
      </trkpt>
      <trkpt lat="47.5979" lon="6.77921">
        <ele>394</ele>
        <time>2016-07-17T08:39:31.000Z</time>
      </trkpt>
      <trkpt lat="47.5979" lon="6.77917">
        <ele>394</ele>
        <time>2016-07-17T08:39:32.000Z</time>
      </trkpt>
      <trkpt lat="47.5979" lon="6.77913">
        <ele>399</ele>
        <time>2016-07-17T08:39:33.000Z</time>
      </trkpt>
      <trkpt lat="47.5979" lon="6.77909">
        <ele>399</ele>
        <time>2016-07-17T08:39:34.000Z</time>
      </trkpt>
      <trkpt lat="47.5979" lon="6.77905">
        <ele>399</ele>
        <time>2016-07-17T08:39:35.000Z</time>
      </trkpt>
      <trkpt lat="47.5979" lon="6.77901">
        <ele>399</ele>
        <time>2016-07-17T08:39:36.000Z</time>
      </trkpt>
      <trkpt lat="47.59789" lon="6.77898">
        <ele>399</ele>
        <time>2016-07-17T08:39:37.000Z</time>
      </trkpt>
      <trkpt lat="47.59789" lon="6.77894">
        <ele>399</ele>
        <time>2016-07-17T08:39:38.000Z</time>
      </trkpt>
      <trkpt lat="47.59789" lon="6.7789">
        <ele>399</ele>
        <time>2016-07-17T08:39:39.000Z</time>
      </trkpt>
      <trkpt lat="47.59788" lon="6.77886">
        <ele>399</ele>
        <time>2016-07-17T08:39:40.000Z</time>
      </trkpt>
      <trkpt lat="47.59788" lon="6.7788">
        <ele>400</ele>
        <time>2016-07-17T08:39:42.000Z</time>
      </trkpt>
      <trkpt lat="47.59787" lon="6.77877">
        <ele>400</ele>
        <time>2016-07-17T08:39:43.000Z</time>
      </trkpt>
      <trkpt lat="47.59787" lon="6.77873">
        <ele>400</ele>
        <time>2016-07-17T08:39:44.000Z</time>
      </trkpt>
      <trkpt lat="47.59786" lon="6.7787">
        <ele>400</ele>
        <time>2016-07-17T08:39:45.000Z</time>
      </trkpt>
      <trkpt lat="47.59785" lon="6.77865">
        <ele>400</ele>
        <time>2016-07-17T08:39:47.000Z</time>
      </trkpt>
      <trkpt lat="47.59785" lon="6.77862">
        <ele>400</ele>
        <time>2016-07-17T08:39:48.000Z</time>
      </trkpt>
      <trkpt lat="47.59785" lon="6.77857">
        <ele>401</ele>
        <time>2016-07-17T08:39:50.000Z</time>
      </trkpt>
      <trkpt lat="47.59785" lon="6.77854">
        <ele>401</ele>
        <time>2016-07-17T08:39:51.000Z</time>
      </trkpt>
      <trkpt lat="47.59786" lon="6.77848">
        <ele>401</ele>
        <time>2016-07-17T08:39:53.000Z</time>
      </trkpt>
      <trkpt lat="47.59787" lon="6.77846">
        <ele>401</ele>
        <time>2016-07-17T08:39:54.000Z</time>
      </trkpt>
      <trkpt lat="47.59789" lon="6.77841">
        <ele>400</ele>
        <time>2016-07-17T08:39:56.000Z</time>
      </trkpt>
      <trkpt lat="47.5979" lon="6.77838">
        <ele>400</ele>
        <time>2016-07-17T08:39:57.000Z</time>
      </trkpt>
      <trkpt lat="47.59792" lon="6.77835">
        <ele>400</ele>
        <time>2016-07-17T08:39:58.000Z</time>
      </trkpt>
      <trkpt lat="47.59793" lon="6.77832">
        <ele>403</ele>
        <time>2016-07-17T08:39:59.000Z</time>
      </trkpt>
      <trkpt lat="47.59794" lon="6.77829">
        <ele>403</ele>
        <time>2016-07-17T08:40:00.000Z</time>
      </trkpt>
      <trkpt lat="47.59796" lon="6.77827">
        <ele>403</ele>
        <time>2016-07-17T08:40:01.000Z</time>
      </trkpt>
      <trkpt lat="47.59798" lon="6.77825">
        <ele>403</ele>
        <time>2016-07-17T08:40:02.000Z</time>
      </trkpt>
      <trkpt lat="47.598" lon="6.77823">
        <ele>402</ele>
        <time>2016-07-17T08:40:03.000Z</time>
      </trkpt>
      <trkpt lat="47.59804" lon="6.77819">
        <ele>402</ele>
        <time>2016-07-17T08:40:05.000Z</time>
      </trkpt>
      <trkpt lat="47.59805" lon="6.77817">
        <ele>402</ele>
        <time>2016-07-17T08:40:06.000Z</time>
      </trkpt>
      <trkpt lat="47.59808" lon="6.77813">
        <ele>402</ele>
        <time>2016-07-17T08:40:08.000Z</time>
      </trkpt>
      <trkpt lat="47.59808" lon="6.77811">
        <ele>402</ele>
        <time>2016-07-17T08:40:09.000Z</time>
      </trkpt>
      <trkpt lat="47.59806" lon="6.77806">
        <ele>403</ele>
        <time>2016-07-17T08:40:12.000Z</time>
      </trkpt>
      <trkpt lat="47.59804" lon="6.77803">
        <ele>403</ele>
        <time>2016-07-17T08:40:13.000Z</time>
      </trkpt>
      <trkpt lat="47.59802" lon="6.778">
        <ele>404</ele>
        <time>2016-07-17T08:40:14.000Z</time>
      </trkpt>
      <trkpt lat="47.59799" lon="6.77797">
        <ele>404</ele>
        <time>2016-07-17T08:40:15.000Z</time>
      </trkpt>
      <trkpt lat="47.59797" lon="6.77795">
        <ele>404</ele>
        <time>2016-07-17T08:40:16.000Z</time>
      </trkpt>
      <trkpt lat="47.59795" lon="6.77794">
        <ele>405</ele>
        <time>2016-07-17T08:40:17.000Z</time>
      </trkpt>
      <trkpt lat="47.59791" lon="6.77795">
        <ele>405</ele>
        <time>2016-07-17T08:40:19.000Z</time>
      </trkpt>
      <trkpt lat="47.5979" lon="6.77796">
        <ele>405</ele>
        <time>2016-07-17T08:40:20.000Z</time>
      </trkpt>
      <trkpt lat="47.59786" lon="6.77799">
        <ele>405</ele>
        <time>2016-07-17T08:40:23.000Z</time>
      </trkpt>
      <trkpt lat="47.59785" lon="6.778">
        <ele>405</ele>
        <time>2016-07-17T08:40:24.000Z</time>
      </trkpt>
      <trkpt lat="47.59783" lon="6.77806">
        <ele>405</ele>
        <time>2016-07-17T08:40:27.000Z</time>
      </trkpt>
      <trkpt lat="47.59782" lon="6.77808">
        <ele>405</ele>
        <time>2016-07-17T08:40:28.000Z</time>
      </trkpt>
      <trkpt lat="47.5978" lon="6.77813">
        <ele>406</ele>
        <time>2016-07-17T08:40:30.000Z</time>
      </trkpt>
      <trkpt lat="47.59779" lon="6.77815">
        <ele>406</ele>
        <time>2016-07-17T08:40:31.000Z</time>
      </trkpt>
      <trkpt lat="47.59776" lon="6.77819">
        <ele>406</ele>
        <time>2016-07-17T08:40:33.000Z</time>
      </trkpt>
      <trkpt lat="47.59775" lon="6.77821">
        <ele>406</ele>
        <time>2016-07-17T08:40:34.000Z</time>
      </trkpt>
      <trkpt lat="47.59773" lon="6.77825">
        <ele>407</ele>
        <time>2016-07-17T08:40:36.000Z</time>
      </trkpt>
      <trkpt lat="47.59772" lon="6.77827">
        <ele>407</ele>
        <time>2016-07-17T08:40:37.000Z</time>
      </trkpt>
      <trkpt lat="47.5977" lon="6.7783">
        <ele>407</ele>
        <time>2016-07-17T08:40:39.000Z</time>
      </trkpt>
      <trkpt lat="47.59769" lon="6.77833">
        <ele>407</ele>
        <time>2016-07-17T08:40:40.000Z</time>
      </trkpt>
      <trkpt lat="47.59767" lon="6.77837">
        <ele>405</ele>
        <time>2016-07-17T08:40:42.000Z</time>
      </trkpt>
      <trkpt lat="47.59765" lon="6.77839">
        <ele>405</ele>
        <time>2016-07-17T08:40:43.000Z</time>
      </trkpt>
      <trkpt lat="47.59762" lon="6.77842">
        <ele>406</ele>
        <time>2016-07-17T08:40:45.000Z</time>
      </trkpt>
      <trkpt lat="47.59761" lon="6.77843">
        <ele>406</ele>
        <time>2016-07-17T08:40:46.000Z</time>
      </trkpt>
      <trkpt lat="47.59757" lon="6.77846">
        <ele>406</ele>
        <time>2016-07-17T08:40:49.000Z</time>
      </trkpt>
      <trkpt lat="47.59756" lon="6.77847">
        <ele>406</ele>
        <time>2016-07-17T08:40:50.000Z</time>
      </trkpt>
      <trkpt lat="47.59753" lon="6.77849">
        <ele>406</ele>
        <time>2016-07-17T08:40:52.000Z</time>
      </trkpt>
      <trkpt lat="47.59751" lon="6.7785">
        <ele>406</ele>
        <time>2016-07-17T08:40:53.000Z</time>
      </trkpt>
      <trkpt lat="47.59748" lon="6.77853">
        <ele>409</ele>
        <time>2016-07-17T08:40:55.000Z</time>
      </trkpt>
      <trkpt lat="47.59746" lon="6.77855">
        <ele>409</ele>
        <time>2016-07-17T08:40:56.000Z</time>
      </trkpt>
      <trkpt lat="47.59743" lon="6.7786">
        <ele>409</ele>
        <time>2016-07-17T08:40:58.000Z</time>
      </trkpt>
      <trkpt lat="47.59742" lon="6.77862">
        <ele>409</ele>
        <time>2016-07-17T08:40:59.000Z</time>
      </trkpt>
      <trkpt lat="47.59739" lon="6.77865">
        <ele>409</ele>
        <time>2016-07-17T08:41:01.000Z</time>
      </trkpt>
      <trkpt lat="47.59737" lon="6.77866">
        <ele>409</ele>
        <time>2016-07-17T08:41:02.000Z</time>
      </trkpt>
      <trkpt lat="47.59733" lon="6.77868">
        <ele>408</ele>
        <time>2016-07-17T08:41:04.000Z</time>
      </trkpt>
      <trkpt lat="47.59731" lon="6.77869">
        <ele>408</ele>
        <time>2016-07-17T08:41:05.000Z</time>
      </trkpt>
      <trkpt lat="47.59727" lon="6.77871">
        <ele>408</ele>
        <time>2016-07-17T08:41:07.000Z</time>
      </trkpt>
      <trkpt lat="47.59725" lon="6.77872">
        <ele>408</ele>
        <time>2016-07-17T08:41:08.000Z</time>
      </trkpt>
      <trkpt lat="47.59722" lon="6.77875">
        <ele>408</ele>
        <time>2016-07-17T08:41:10.000Z</time>
      </trkpt>
      <trkpt lat="47.5972" lon="6.77876">
        <ele>408</ele>
        <time>2016-07-17T08:41:11.000Z</time>
      </trkpt>
      <trkpt lat="47.59717" lon="6.77876">
        <ele>408</ele>
        <time>2016-07-17T08:41:12.000Z</time>
      </trkpt>
      <trkpt lat="47.59715" lon="6.77876">
        <ele>408</ele>
        <time>2016-07-17T08:41:13.000Z</time>
      </trkpt>
      <trkpt lat="47.59712" lon="6.77876">
        <ele>408</ele>
        <time>2016-07-17T08:41:14.000Z</time>
      </trkpt>
      <trkpt lat="47.59708" lon="6.77876">
        <ele>408</ele>
        <time>2016-07-17T08:41:15.000Z</time>
      </trkpt>
      <trkpt lat="47.59705" lon="6.77877">
        <ele>408</ele>
        <time>2016-07-17T08:41:16.000Z</time>
      </trkpt>
      <trkpt lat="47.59701" lon="6.77877">
        <ele>408</ele>
        <time>2016-07-17T08:41:17.000Z</time>
      </trkpt>
      <trkpt lat="47.59697" lon="6.77877">
        <ele>408</ele>
        <time>2016-07-17T08:41:18.000Z</time>
      </trkpt>
      <trkpt lat="47.59693" lon="6.77876">
        <ele>408</ele>
        <time>2016-07-17T08:41:19.000Z</time>
      </trkpt>
      <trkpt lat="47.59689" lon="6.77875">
        <ele>408</ele>
        <time>2016-07-17T08:41:20.000Z</time>
      </trkpt>
      <trkpt lat="47.59685" lon="6.77872">
        <ele>408</ele>
        <time>2016-07-17T08:41:21.000Z</time>
      </trkpt>
      <trkpt lat="47.59681" lon="6.77867">
        <ele>408</ele>
        <time>2016-07-17T08:41:22.000Z</time>
      </trkpt>
      <trkpt lat="47.59677" lon="6.77863">
        <ele>408</ele>
        <time>2016-07-17T08:41:23.000Z</time>
      </trkpt>
      <trkpt lat="47.59673" lon="6.77859">
        <ele>408</ele>
        <time>2016-07-17T08:41:24.000Z</time>
      </trkpt>
      <trkpt lat="47.59668" lon="6.77856">
        <ele>409</ele>
        <time>2016-07-17T08:41:25.000Z</time>
      </trkpt>
      <trkpt lat="47.59663" lon="6.77851">
        <ele>408</ele>
        <time>2016-07-17T08:41:26.000Z</time>
      </trkpt>
      <trkpt lat="47.59658" lon="6.77848">
        <ele>408</ele>
        <time>2016-07-17T08:41:27.000Z</time>
      </trkpt>
      <trkpt lat="47.59653" lon="6.77844">
        <ele>408</ele>
        <time>2016-07-17T08:41:28.000Z</time>
      </trkpt>
      <trkpt lat="47.59648" lon="6.77839">
        <ele>408</ele>
        <time>2016-07-17T08:41:29.000Z</time>
      </trkpt>
      <trkpt lat="47.59644" lon="6.77834">
        <ele>408</ele>
        <time>2016-07-17T08:41:30.000Z</time>
      </trkpt>
      <trkpt lat="47.59641" lon="6.77829">
        <ele>411</ele>
        <time>2016-07-17T08:41:31.000Z</time>
      </trkpt>
      <trkpt lat="47.59639" lon="6.77824">
        <ele>411</ele>
        <time>2016-07-17T08:41:32.000Z</time>
      </trkpt>
      <trkpt lat="47.59638" lon="6.77818">
        <ele>411</ele>
        <time>2016-07-17T08:41:33.000Z</time>
      </trkpt>
      <trkpt lat="47.59638" lon="6.77813">
        <ele>411</ele>
        <time>2016-07-17T08:41:34.000Z</time>
      </trkpt>
      <trkpt lat="47.59642" lon="6.77813">
        <ele>411</ele>
        <time>2016-07-17T08:41:35.000Z</time>
      </trkpt>
      <trkpt lat="47.59644" lon="6.77811">
        <ele>411</ele>
        <time>2016-07-17T08:41:36.000Z</time>
      </trkpt>
      <trkpt lat="47.59648" lon="6.7781">
        <ele>412</ele>
        <time>2016-07-17T08:41:38.000Z</time>
      </trkpt>
      <trkpt lat="47.5965" lon="6.77812">
        <ele>411</ele>
        <time>2016-07-17T08:41:39.000Z</time>
      </trkpt>
      <trkpt lat="47.59654" lon="6.77814">
        <ele>411</ele>
        <time>2016-07-17T08:41:41.000Z</time>
      </trkpt>
      <trkpt lat="47.59656" lon="6.77815">
        <ele>411</ele>
        <time>2016-07-17T08:41:42.000Z</time>
      </trkpt>
      <trkpt lat="47.5966" lon="6.77818">
        <ele>411</ele>
        <time>2016-07-17T08:41:44.000Z</time>
      </trkpt>
      <trkpt lat="47.59662" lon="6.7782">
        <ele>411</ele>
        <time>2016-07-17T08:41:45.000Z</time>
      </trkpt>
      <trkpt lat="47.59664" lon="6.77822">
        <ele>411</ele>
        <time>2016-07-17T08:41:46.000Z</time>
      </trkpt>
      <trkpt lat="47.59665" lon="6.77824">
        <ele>411</ele>
        <time>2016-07-17T08:41:47.000Z</time>
      </trkpt>
      <trkpt lat="47.59667" lon="6.77827">
        <ele>411</ele>
        <time>2016-07-17T08:41:48.000Z</time>
      </trkpt>
      <trkpt lat="47.59668" lon="6.77829">
        <ele>411</ele>
        <time>2016-07-17T08:41:49.000Z</time>
      </trkpt>
      <trkpt lat="47.59671" lon="6.77833">
        <ele>411</ele>
        <time>2016-07-17T08:41:51.000Z</time>
      </trkpt>
      <trkpt lat="47.59673" lon="6.77835">
        <ele>410</ele>
        <time>2016-07-17T08:41:52.000Z</time>
      </trkpt>
      <trkpt lat="47.59676" lon="6.77839">
        <ele>409</ele>
        <time>2016-07-17T08:41:54.000Z</time>
      </trkpt>
      <trkpt lat="47.59678" lon="6.77841">
        <ele>409</ele>
        <time>2016-07-17T08:41:55.000Z</time>
      </trkpt>
      <trkpt lat="47.5968" lon="6.77845">
        <ele>409</ele>
        <time>2016-07-17T08:41:57.000Z</time>
      </trkpt>
      <trkpt lat="47.59682" lon="6.77847">
        <ele>409</ele>
        <time>2016-07-17T08:41:58.000Z</time>
      </trkpt>
      <trkpt lat="47.59686" lon="6.77849">
        <ele>409</ele>
        <time>2016-07-17T08:42:00.000Z</time>
      </trkpt>
      <trkpt lat="47.59688" lon="6.77851">
        <ele>409</ele>
        <time>2016-07-17T08:42:01.000Z</time>
      </trkpt>
      <trkpt lat="47.59691" lon="6.77853">
        <ele>409</ele>
        <time>2016-07-17T08:42:03.000Z</time>
      </trkpt>
      <trkpt lat="47.59693" lon="6.77854">
        <ele>409</ele>
        <time>2016-07-17T08:42:04.000Z</time>
      </trkpt>
      <trkpt lat="47.59698" lon="6.77853">
        <ele>409</ele>
        <time>2016-07-17T08:42:06.000Z</time>
      </trkpt>
      <trkpt lat="47.597" lon="6.77852">
        <ele>409</ele>
        <time>2016-07-17T08:42:07.000Z</time>
      </trkpt>
      <trkpt lat="47.59703" lon="6.77849">
        <ele>409</ele>
        <time>2016-07-17T08:42:09.000Z</time>
      </trkpt>
      <trkpt lat="47.59704" lon="6.77847">
        <ele>409</ele>
        <time>2016-07-17T08:42:10.000Z</time>
      </trkpt>
      <trkpt lat="47.59706" lon="6.77842">
        <ele>409</ele>
        <time>2016-07-17T08:42:12.000Z</time>
      </trkpt>
      <trkpt lat="47.59707" lon="6.77839">
        <ele>409</ele>
        <time>2016-07-17T08:42:13.000Z</time>
      </trkpt>
      <trkpt lat="47.59707" lon="6.77834">
        <ele>409</ele>
        <time>2016-07-17T08:42:15.000Z</time>
      </trkpt>
      <trkpt lat="47.59707" lon="6.77832">
        <ele>413</ele>
        <time>2016-07-17T08:42:16.000Z</time>
      </trkpt>
      <trkpt lat="47.59706" lon="6.77827">
        <ele>413</ele>
        <time>2016-07-17T08:42:18.000Z</time>
      </trkpt>
      <trkpt lat="47.59706" lon="6.77825">
        <ele>413</ele>
        <time>2016-07-17T08:42:19.000Z</time>
      </trkpt>
      <trkpt lat="47.59705" lon="6.7782">
        <ele>413</ele>
        <time>2016-07-17T08:42:21.000Z</time>
      </trkpt>
      <trkpt lat="47.59704" lon="6.77818">
        <ele>413</ele>
        <time>2016-07-17T08:42:22.000Z</time>
      </trkpt>
      <trkpt lat="47.59703" lon="6.77813">
        <ele>413</ele>
        <time>2016-07-17T08:42:24.000Z</time>
      </trkpt>
      <trkpt lat="47.59703" lon="6.77811">
        <ele>413</ele>
        <time>2016-07-17T08:42:25.000Z</time>
      </trkpt>
      <trkpt lat="47.59702" lon="6.77806">
        <ele>414</ele>
        <time>2016-07-17T08:42:27.000Z</time>
      </trkpt>
      <trkpt lat="47.59702" lon="6.77804">
        <ele>414</ele>
        <time>2016-07-17T08:42:28.000Z</time>
      </trkpt>
      <trkpt lat="47.59702" lon="6.77798">
        <ele>414</ele>
        <time>2016-07-17T08:42:31.000Z</time>
      </trkpt>
      <trkpt lat="47.59702" lon="6.77796">
        <ele>414</ele>
        <time>2016-07-17T08:42:32.000Z</time>
      </trkpt>
      <trkpt lat="47.59702" lon="6.7779">
        <ele>414</ele>
        <time>2016-07-17T08:42:35.000Z</time>
      </trkpt>
      <trkpt lat="47.59702" lon="6.77788">
        <ele>414</ele>
        <time>2016-07-17T08:42:36.000Z</time>
      </trkpt>
      <trkpt lat="47.59702" lon="6.77783">
        <ele>415</ele>
        <time>2016-07-17T08:42:39.000Z</time>
      </trkpt>
      <trkpt lat="47.59702" lon="6.77781">
        <ele>415</ele>
        <time>2016-07-17T08:42:40.000Z</time>
      </trkpt>
      <trkpt lat="47.59702" lon="6.77775">
        <ele>415</ele>
        <time>2016-07-17T08:42:43.000Z</time>
      </trkpt>
      <trkpt lat="47.59702" lon="6.77773">
        <ele>415</ele>
        <time>2016-07-17T08:42:44.000Z</time>
      </trkpt>
      <trkpt lat="47.59701" lon="6.77767">
        <ele>415</ele>
        <time>2016-07-17T08:42:47.000Z</time>
      </trkpt>
      <trkpt lat="47.59701" lon="6.77765">
        <ele>415</ele>
        <time>2016-07-17T08:42:48.000Z</time>
      </trkpt>
      <trkpt lat="47.597" lon="6.77759">
        <ele>416</ele>
        <time>2016-07-17T08:42:51.000Z</time>
      </trkpt>
      <trkpt lat="47.597" lon="6.77757">
        <ele>416</ele>
        <time>2016-07-17T08:42:52.000Z</time>
      </trkpt>
      <trkpt lat="47.597" lon="6.7775">
        <ele>416</ele>
        <time>2016-07-17T08:42:55.000Z</time>
      </trkpt>
      <trkpt lat="47.59699" lon="6.77748">
        <ele>420</ele>
        <time>2016-07-17T08:42:56.000Z</time>
      </trkpt>
      <trkpt lat="47.59698" lon="6.77744">
        <ele>420</ele>
        <time>2016-07-17T08:42:58.000Z</time>
      </trkpt>
      <trkpt lat="47.59698" lon="6.77742">
        <ele>420</ele>
        <time>2016-07-17T08:42:59.000Z</time>
      </trkpt>
      <trkpt lat="47.59696" lon="6.77736">
        <ele>420</ele>
        <time>2016-07-17T08:43:02.000Z</time>
      </trkpt>
      <trkpt lat="47.59696" lon="6.77734">
        <ele>420</ele>
        <time>2016-07-17T08:43:03.000Z</time>
      </trkpt>
      <trkpt lat="47.59695" lon="6.77728">
        <ele>420</ele>
        <time>2016-07-17T08:43:06.000Z</time>
      </trkpt>
      <trkpt lat="47.59694" lon="6.77726">
        <ele>420</ele>
        <time>2016-07-17T08:43:07.000Z</time>
      </trkpt>
      <trkpt lat="47.59694" lon="6.7772">
        <ele>421</ele>
        <time>2016-07-17T08:43:10.000Z</time>
      </trkpt>
      <trkpt lat="47.59693" lon="6.77718">
        <ele>421</ele>
        <time>2016-07-17T08:43:11.000Z</time>
      </trkpt>
      <trkpt lat="47.59692" lon="6.77712">
        <ele>421</ele>
        <time>2016-07-17T08:43:14.000Z</time>
      </trkpt>
      <trkpt lat="47.59692" lon="6.7771">
        <ele>421</ele>
        <time>2016-07-17T08:43:15.000Z</time>
      </trkpt>
      <trkpt lat="47.59691" lon="6.77705">
        <ele>421</ele>
        <time>2016-07-17T08:43:17.000Z</time>
      </trkpt>
      <trkpt lat="47.59691" lon="6.77703">
        <ele>421</ele>
        <time>2016-07-17T08:43:18.000Z</time>
      </trkpt>
      <trkpt lat="47.5969" lon="6.77698">
        <ele>422</ele>
        <time>2016-07-17T08:43:20.000Z</time>
      </trkpt>
      <trkpt lat="47.59689" lon="6.77696">
        <ele>422</ele>
        <time>2016-07-17T08:43:21.000Z</time>
      </trkpt>
      <trkpt lat="47.59688" lon="6.7769">
        <ele>422</ele>
        <time>2016-07-17T08:43:24.000Z</time>
      </trkpt>
      <trkpt lat="47.59688" lon="6.77688">
        <ele>422</ele>
        <time>2016-07-17T08:43:25.000Z</time>
      </trkpt>
      <trkpt lat="47.59687" lon="6.77682">
        <ele>423</ele>
        <time>2016-07-17T08:43:28.000Z</time>
      </trkpt>
      <trkpt lat="47.59687" lon="6.7768">
        <ele>423</ele>
        <time>2016-07-17T08:43:29.000Z</time>
      </trkpt>
      <trkpt lat="47.59687" lon="6.77674">
        <ele>423</ele>
        <time>2016-07-17T08:43:32.000Z</time>
      </trkpt>
      <trkpt lat="47.59687" lon="6.77672">
        <ele>423</ele>
        <time>2016-07-17T08:43:33.000Z</time>
      </trkpt>
      <trkpt lat="47.59686" lon="6.77667">
        <ele>423</ele>
        <time>2016-07-17T08:43:36.000Z</time>
      </trkpt>
      <trkpt lat="47.59686" lon="6.77665">
        <ele>426</ele>
        <time>2016-07-17T08:43:37.000Z</time>
      </trkpt>
      <trkpt lat="47.59684" lon="6.77659">
        <ele>426</ele>
        <time>2016-07-17T08:43:40.000Z</time>
      </trkpt>
      <trkpt lat="47.59683" lon="6.77657">
        <ele>426</ele>
        <time>2016-07-17T08:43:41.000Z</time>
      </trkpt>
      <trkpt lat="47.5968" lon="6.77654">
        <ele>426</ele>
        <time>2016-07-17T08:43:43.000Z</time>
      </trkpt>
      <trkpt lat="47.59679" lon="6.77652">
        <ele>426</ele>
        <time>2016-07-17T08:43:44.000Z</time>
      </trkpt>
      <trkpt lat="47.59676" lon="6.77649">
        <ele>426</ele>
        <time>2016-07-17T08:43:46.000Z</time>
      </trkpt>
      <trkpt lat="47.59675" lon="6.77647">
        <ele>426</ele>
        <time>2016-07-17T08:43:47.000Z</time>
      </trkpt>
      <trkpt lat="47.59673" lon="6.77643">
        <ele>426</ele>
        <time>2016-07-17T08:43:49.000Z</time>
      </trkpt>
      <trkpt lat="47.59673" lon="6.77641">
        <ele>426</ele>
        <time>2016-07-17T08:43:50.000Z</time>
      </trkpt>
      <trkpt lat="47.59671" lon="6.77635">
        <ele>426</ele>
        <time>2016-07-17T08:43:53.000Z</time>
      </trkpt>
      <trkpt lat="47.5967" lon="6.77633">
        <ele>427</ele>
        <time>2016-07-17T08:43:54.000Z</time>
      </trkpt>
      <trkpt lat="47.59668" lon="6.77628">
        <ele>427</ele>
        <time>2016-07-17T08:43:57.000Z</time>
      </trkpt>
      <trkpt lat="47.59668" lon="6.77626">
        <ele>427</ele>
        <time>2016-07-17T08:43:58.000Z</time>
      </trkpt>
      <trkpt lat="47.59667" lon="6.77621">
        <ele>427</ele>
        <time>2016-07-17T08:44:01.000Z</time>
      </trkpt>
      <trkpt lat="47.59667" lon="6.77619">
        <ele>427</ele>
        <time>2016-07-17T08:44:02.000Z</time>
      </trkpt>
      <trkpt lat="47.59667" lon="6.77613">
        <ele>430</ele>
        <time>2016-07-17T08:44:05.000Z</time>
      </trkpt>
      <trkpt lat="47.59667" lon="6.77611">
        <ele>428</ele>
        <time>2016-07-17T08:44:06.000Z</time>
      </trkpt>
      <trkpt lat="47.59668" lon="6.77605">
        <ele>428</ele>
        <time>2016-07-17T08:44:09.000Z</time>
      </trkpt>
      <trkpt lat="47.59668" lon="6.77603">
        <ele>429</ele>
        <time>2016-07-17T08:44:10.000Z</time>
      </trkpt>
      <trkpt lat="47.59668" lon="6.77597">
        <ele>429</ele>
        <time>2016-07-17T08:44:13.000Z</time>
      </trkpt>
      <trkpt lat="47.59667" lon="6.77594">
        <ele>430</ele>
        <time>2016-07-17T08:44:14.000Z</time>
      </trkpt>
      <trkpt lat="47.59667" lon="6.77589">
        <ele>431</ele>
        <time>2016-07-17T08:44:16.000Z</time>
      </trkpt>
      <trkpt lat="47.59668" lon="6.77587">
        <ele>431</ele>
        <time>2016-07-17T08:44:17.000Z</time>
      </trkpt>
      <trkpt lat="47.59669" lon="6.7758">
        <ele>432</ele>
        <time>2016-07-17T08:44:20.000Z</time>
      </trkpt>
      <trkpt lat="47.59668" lon="6.77578">
        <ele>432</ele>
        <time>2016-07-17T08:44:21.000Z</time>
      </trkpt>
      <trkpt lat="47.59667" lon="6.77572">
        <ele>433</ele>
        <time>2016-07-17T08:44:24.000Z</time>
      </trkpt>
      <trkpt lat="47.59666" lon="6.77571">
        <ele>435</ele>
        <time>2016-07-17T08:44:25.000Z</time>
      </trkpt>
      <trkpt lat="47.59663" lon="6.77568">
        <ele>436</ele>
        <time>2016-07-17T08:44:27.000Z</time>
      </trkpt>
      <trkpt lat="47.59662" lon="6.77566">
        <ele>436</ele>
        <time>2016-07-17T08:44:28.000Z</time>
      </trkpt>
      <trkpt lat="47.5966" lon="6.77563">
        <ele>437</ele>
        <time>2016-07-17T08:44:30.000Z</time>
      </trkpt>
      <trkpt lat="47.59659" lon="6.77561">
        <ele>437</ele>
        <time>2016-07-17T08:44:31.000Z</time>
      </trkpt>
      <trkpt lat="47.59659" lon="6.77555">
        <ele>438</ele>
        <time>2016-07-17T08:44:34.000Z</time>
      </trkpt>
      <trkpt lat="47.59659" lon="6.77554">
        <ele>438</ele>
        <time>2016-07-17T08:44:35.000Z</time>
      </trkpt>
      <trkpt lat="47.59657" lon="6.77549">
        <ele>439</ele>
        <time>2016-07-17T08:44:38.000Z</time>
      </trkpt>
      <trkpt lat="47.59657" lon="6.77547">
        <ele>439</ele>
        <time>2016-07-17T08:44:39.000Z</time>
      </trkpt>
      <trkpt lat="47.59655" lon="6.77542">
        <ele>440</ele>
        <time>2016-07-17T08:44:42.000Z</time>
      </trkpt>
      <trkpt lat="47.59655" lon="6.7754">
        <ele>440</ele>
        <time>2016-07-17T08:44:43.000Z</time>
      </trkpt>
      <trkpt lat="47.59654" lon="6.77535">
        <ele>441</ele>
        <time>2016-07-17T08:44:46.000Z</time>
      </trkpt>
      <trkpt lat="47.59654" lon="6.77533">
        <ele>441</ele>
        <time>2016-07-17T08:44:47.000Z</time>
      </trkpt>
      <trkpt lat="47.59654" lon="6.77528">
        <ele>442</ele>
        <time>2016-07-17T08:44:50.000Z</time>
      </trkpt>
      <trkpt lat="47.59654" lon="6.77526">
        <ele>442</ele>
        <time>2016-07-17T08:44:51.000Z</time>
      </trkpt>
      <trkpt lat="47.59653" lon="6.77522">
        <ele>442</ele>
        <time>2016-07-17T08:44:53.000Z</time>
      </trkpt>
      <trkpt lat="47.59653" lon="6.77519">
        <ele>442</ele>
        <time>2016-07-17T08:44:54.000Z</time>
      </trkpt>
      <trkpt lat="47.59652" lon="6.77514">
        <ele>443</ele>
        <time>2016-07-17T08:44:56.000Z</time>
      </trkpt>
      <trkpt lat="47.59651" lon="6.77511">
        <ele>443</ele>
        <time>2016-07-17T08:44:57.000Z</time>
      </trkpt>
      <trkpt lat="47.5965" lon="6.77506">
        <ele>443</ele>
        <time>2016-07-17T08:44:59.000Z</time>
      </trkpt>
      <trkpt lat="47.5965" lon="6.77505">
        <ele>444</ele>
        <time>2016-07-17T08:45:00.000Z</time>
      </trkpt>
      <trkpt lat="47.59651" lon="6.77498">
        <ele>448</ele>
        <time>2016-07-17T08:45:03.000Z</time>
      </trkpt>
      <trkpt lat="47.59651" lon="6.77496">
        <ele>448</ele>
        <time>2016-07-17T08:45:04.000Z</time>
      </trkpt>
      <trkpt lat="47.59649" lon="6.7749">
        <ele>448</ele>
        <time>2016-07-17T08:45:08.000Z</time>
      </trkpt>
      <trkpt lat="47.59649" lon="6.77488">
        <ele>448</ele>
        <time>2016-07-17T08:45:09.000Z</time>
      </trkpt>
      <trkpt lat="47.59648" lon="6.77484">
        <ele>448</ele>
        <time>2016-07-17T08:45:11.000Z</time>
      </trkpt>
      <trkpt lat="47.59648" lon="6.77481">
        <ele>449</ele>
        <time>2016-07-17T08:45:12.000Z</time>
      </trkpt>
      <trkpt lat="47.59648" lon="6.77478">
        <ele>449</ele>
        <time>2016-07-17T08:45:13.000Z</time>
      </trkpt>
      <trkpt lat="47.59648" lon="6.77474">
        <ele>449</ele>
        <time>2016-07-17T08:45:14.000Z</time>
      </trkpt>
      <trkpt lat="47.59647" lon="6.77467">
        <ele>449</ele>
        <time>2016-07-17T08:45:16.000Z</time>
      </trkpt>
      <trkpt lat="47.59647" lon="6.77464">
        <ele>449</ele>
        <time>2016-07-17T08:45:17.000Z</time>
      </trkpt>
      <trkpt lat="47.59645" lon="6.77458">
        <ele>450</ele>
        <time>2016-07-17T08:45:19.000Z</time>
      </trkpt>
      <trkpt lat="47.59644" lon="6.77455">
        <ele>450</ele>
        <time>2016-07-17T08:45:20.000Z</time>
      </trkpt>
      <trkpt lat="47.59644" lon="6.7745">
        <ele>450</ele>
        <time>2016-07-17T08:45:22.000Z</time>
      </trkpt>
      <trkpt lat="47.59645" lon="6.77447">
        <ele>450</ele>
        <time>2016-07-17T08:45:23.000Z</time>
      </trkpt>
      <trkpt lat="47.59646" lon="6.77445">
        <ele>450</ele>
        <time>2016-07-17T08:45:24.000Z</time>
      </trkpt>
      <trkpt lat="47.59648" lon="6.77442">
        <ele>450</ele>
        <time>2016-07-17T08:45:25.000Z</time>
      </trkpt>
      <trkpt lat="47.59649" lon="6.77437">
        <ele>450</ele>
        <time>2016-07-17T08:45:27.000Z</time>
      </trkpt>
      <trkpt lat="47.59649" lon="6.77434">
        <ele>450</ele>
        <time>2016-07-17T08:45:28.000Z</time>
      </trkpt>
      <trkpt lat="47.59647" lon="6.7743">
        <ele>450</ele>
        <time>2016-07-17T08:45:30.000Z</time>
      </trkpt>
      <trkpt lat="47.59646" lon="6.77428">
        <ele>451</ele>
        <time>2016-07-17T08:45:31.000Z</time>
      </trkpt>
      <trkpt lat="47.59645" lon="6.77425">
        <ele>451</ele>
        <time>2016-07-17T08:45:32.000Z</time>
      </trkpt>
      <trkpt lat="47.59644" lon="6.77422">
        <ele>451</ele>
        <time>2016-07-17T08:45:33.000Z</time>
      </trkpt>
      <trkpt lat="47.59643" lon="6.77418">
        <ele>451</ele>
        <time>2016-07-17T08:45:34.000Z</time>
      </trkpt>
      <trkpt lat="47.59642" lon="6.77415">
        <ele>454</ele>
        <time>2016-07-17T08:45:34.999Z</time>
      </trkpt>
      <trkpt lat="47.59641" lon="6.77411">
        <ele>454</ele>
        <time>2016-07-17T08:45:36.000Z</time>
      </trkpt>
      <trkpt lat="47.5964" lon="6.77409">
        <ele>454</ele>
        <time>2016-07-17T08:45:37.000Z</time>
      </trkpt>
      <trkpt lat="47.59638" lon="6.77406">
        <ele>454</ele>
        <time>2016-07-17T08:45:38.000Z</time>
      </trkpt>
      <trkpt lat="47.59637" lon="6.77403">
        <ele>454</ele>
        <time>2016-07-17T08:45:39.000Z</time>
      </trkpt>
      <trkpt lat="47.59636" lon="6.77397">
        <ele>454</ele>
        <time>2016-07-17T08:45:41.000Z</time>
      </trkpt>
      <trkpt lat="47.59636" lon="6.77394">
        <ele>455</ele>
        <time>2016-07-17T08:45:42.001Z</time>
      </trkpt>
      <trkpt lat="47.59637" lon="6.77389">
        <ele>455</ele>
        <time>2016-07-17T08:45:44.000Z</time>
      </trkpt>
      <trkpt lat="47.59639" lon="6.77386">
        <ele>455</ele>
        <time>2016-07-17T08:45:45.000Z</time>
      </trkpt>
      <trkpt lat="47.59639" lon="6.7738">
        <ele>455</ele>
        <time>2016-07-17T08:45:47.000Z</time>
      </trkpt>
      <trkpt lat="47.59639" lon="6.77378">
        <ele>455</ele>
        <time>2016-07-17T08:45:48.000Z</time>
      </trkpt>
      <trkpt lat="47.59637" lon="6.77372">
        <ele>455</ele>
        <time>2016-07-17T08:45:51.001Z</time>
      </trkpt>
      <trkpt lat="47.59637" lon="6.7737">
        <ele>455</ele>
        <time>2016-07-17T08:45:52.000Z</time>
      </trkpt>
      <trkpt lat="47.59638" lon="6.77364">
        <ele>456</ele>
        <time>2016-07-17T08:45:55.000Z</time>
      </trkpt>
      <trkpt lat="47.59639" lon="6.77362">
        <ele>456</ele>
        <time>2016-07-17T08:45:56.000Z</time>
      </trkpt>
      <trkpt lat="47.59641" lon="6.77356">
        <ele>456</ele>
        <time>2016-07-17T08:45:58.000Z</time>
      </trkpt>
      <trkpt lat="47.59642" lon="6.77353">
        <ele>456</ele>
        <time>2016-07-17T08:45:59.000Z</time>
      </trkpt>
      <trkpt lat="47.59643" lon="6.77347">
        <ele>456</ele>
        <time>2016-07-17T08:46:01.000Z</time>
      </trkpt>
      <trkpt lat="47.59643" lon="6.77345">
        <ele>456</ele>
        <time>2016-07-17T08:46:02.000Z</time>
      </trkpt>
      <trkpt lat="47.59644" lon="6.77342">
        <ele>456</ele>
        <time>2016-07-17T08:46:03.000Z</time>
      </trkpt>
      <trkpt lat="47.59646" lon="6.77339">
        <ele>456</ele>
        <time>2016-07-17T08:46:04.000Z</time>
      </trkpt>
      <trkpt lat="47.59649" lon="6.77336">
        <ele>456</ele>
        <time>2016-07-17T08:46:05.000Z</time>
      </trkpt>
      <trkpt lat="47.5965" lon="6.77334">
        <ele>456</ele>
        <time>2016-07-17T08:46:06.001Z</time>
      </trkpt>
      <trkpt lat="47.59653" lon="6.77328">
        <ele>459</ele>
        <time>2016-07-17T08:46:08.000Z</time>
      </trkpt>
      <trkpt lat="47.59653" lon="6.77326">
        <ele>459</ele>
        <time>2016-07-17T08:46:09.000Z</time>
      </trkpt>
      <trkpt lat="47.59652" lon="6.7732">
        <ele>460</ele>
        <time>2016-07-17T08:46:11.000Z</time>
      </trkpt>
      <trkpt lat="47.59652" lon="6.77318">
        <ele>460</ele>
        <time>2016-07-17T08:46:12.000Z</time>
      </trkpt>
      <trkpt lat="47.59651" lon="6.77313">
        <ele>460</ele>
        <time>2016-07-17T08:46:14.000Z</time>
      </trkpt>
      <trkpt lat="47.59651" lon="6.7731">
        <ele>461</ele>
        <time>2016-07-17T08:46:15.000Z</time>
      </trkpt>
      <trkpt lat="47.5965" lon="6.77304">
        <ele>461</ele>
        <time>2016-07-17T08:46:18.000Z</time>
      </trkpt>
      <trkpt lat="47.59651" lon="6.77302">
        <ele>461</ele>
        <time>2016-07-17T08:46:19.000Z</time>
      </trkpt>
      <trkpt lat="47.59653" lon="6.77297">
        <ele>462</ele>
        <time>2016-07-17T08:46:22.001Z</time>
      </trkpt>
      <trkpt lat="47.59651" lon="6.77295">
        <ele>462</ele>
        <time>2016-07-17T08:46:23.000Z</time>
      </trkpt>
      <trkpt lat="47.59649" lon="6.7729">
        <ele>462</ele>
        <time>2016-07-17T08:46:25.000Z</time>
      </trkpt>
      <trkpt lat="47.59648" lon="6.77288">
        <ele>462</ele>
        <time>2016-07-17T08:46:26.000Z</time>
      </trkpt>
      <trkpt lat="47.59646" lon="6.77282">
        <ele>462</ele>
        <time>2016-07-17T08:46:29.000Z</time>
      </trkpt>
      <trkpt lat="47.59645" lon="6.7728">
        <ele>463</ele>
        <time>2016-07-17T08:46:30.000Z</time>
      </trkpt>
      <trkpt lat="47.59645" lon="6.77275">
        <ele>463</ele>
        <time>2016-07-17T08:46:33.000Z</time>
      </trkpt>
      <trkpt lat="47.59645" lon="6.77273">
        <ele>463</ele>
        <time>2016-07-17T08:46:34.000Z</time>
      </trkpt>
      <trkpt lat="47.59647" lon="6.77269">
        <ele>463</ele>
        <time>2016-07-17T08:46:36.000Z</time>
      </trkpt>
      <trkpt lat="47.59647" lon="6.77266">
        <ele>463</ele>
        <time>2016-07-17T08:46:37.000Z</time>
      </trkpt>
      <trkpt lat="47.59647" lon="6.77261">
        <ele>463</ele>
        <time>2016-07-17T08:46:39.000Z</time>
      </trkpt>
      <trkpt lat="47.59647" lon="6.77258">
        <ele>464</ele>
        <time>2016-07-17T08:46:40.000Z</time>
      </trkpt>
      <trkpt lat="47.59647" lon="6.77254">
        <ele>464</ele>
        <time>2016-07-17T08:46:41.000Z</time>
      </trkpt>
      <trkpt lat="47.59646" lon="6.77251">
        <ele>464</ele>
        <time>2016-07-17T08:46:42.000Z</time>
      </trkpt>
      <trkpt lat="47.59645" lon="6.77245">
        <ele>467</ele>
        <time>2016-07-17T08:46:44.000Z</time>
      </trkpt>
      <trkpt lat="47.59645" lon="6.77242">
        <ele>467</ele>
        <time>2016-07-17T08:46:45.000Z</time>
      </trkpt>
      <trkpt lat="47.59645" lon="6.77237">
        <ele>468</ele>
        <time>2016-07-17T08:46:47.000Z</time>
      </trkpt>
      <trkpt lat="47.59646" lon="6.77235">
        <ele>468</ele>
        <time>2016-07-17T08:46:48.000Z</time>
      </trkpt>
      <trkpt lat="47.59646" lon="6.77228">
        <ele>468</ele>
        <time>2016-07-17T08:46:51.000Z</time>
      </trkpt>
      <trkpt lat="47.59646" lon="6.77226">
        <ele>468</ele>
        <time>2016-07-17T08:46:52.000Z</time>
      </trkpt>
      <trkpt lat="47.59647" lon="6.77219">
        <ele>468</ele>
        <time>2016-07-17T08:46:55.000Z</time>
      </trkpt>
      <trkpt lat="47.59647" lon="6.77217">
        <ele>468</ele>
        <time>2016-07-17T08:46:56.000Z</time>
      </trkpt>
      <trkpt lat="47.59645" lon="6.77211">
        <ele>469</ele>
        <time>2016-07-17T08:46:59.000Z</time>
      </trkpt>
      <trkpt lat="47.59645" lon="6.77209">
        <ele>469</ele>
        <time>2016-07-17T08:47:00.000Z</time>
      </trkpt>
      <trkpt lat="47.59645" lon="6.77203">
        <ele>469</ele>
        <time>2016-07-17T08:47:03.000Z</time>
      </trkpt>
      <trkpt lat="47.59645" lon="6.77202">
        <ele>469</ele>
        <time>2016-07-17T08:47:04.000Z</time>
      </trkpt>
      <trkpt lat="47.59645" lon="6.77196">
        <ele>469</ele>
        <time>2016-07-17T08:47:08.000Z</time>
      </trkpt>
      <trkpt lat="47.59645" lon="6.77195">
        <ele>469</ele>
        <time>2016-07-17T08:47:09.000Z</time>
      </trkpt>
      <trkpt lat="47.59644" lon="6.77189">
        <ele>470</ele>
        <time>2016-07-17T08:47:12.000Z</time>
      </trkpt>
      <trkpt lat="47.59644" lon="6.77187">
        <ele>470</ele>
        <time>2016-07-17T08:47:13.000Z</time>
      </trkpt>
      <trkpt lat="47.59644" lon="6.77182">
        <ele>470</ele>
        <time>2016-07-17T08:47:15.000Z</time>
      </trkpt>
      <trkpt lat="47.59645" lon="6.7718">
        <ele>470</ele>
        <time>2016-07-17T08:47:16.000Z</time>
      </trkpt>
      <trkpt lat="47.59647" lon="6.77177">
        <ele>470</ele>
        <time>2016-07-17T08:47:18.000Z</time>
      </trkpt>
      <trkpt lat="47.59648" lon="6.77175">
        <ele>470</ele>
        <time>2016-07-17T08:47:19.000Z</time>
      </trkpt>
      <trkpt lat="47.5965" lon="6.77169">
        <ele>470</ele>
        <time>2016-07-17T08:47:22.000Z</time>
      </trkpt>
      <trkpt lat="47.5965" lon="6.77167">
        <ele>470</ele>
        <time>2016-07-17T08:47:23.000Z</time>
      </trkpt>
      <trkpt lat="47.59651" lon="6.77161">
        <ele>473</ele>
        <time>2016-07-17T08:47:27.000Z</time>
      </trkpt>
      <trkpt lat="47.59651" lon="6.7716">
        <ele>474</ele>
        <time>2016-07-17T08:47:28.000Z</time>
      </trkpt>
      <trkpt lat="47.5965" lon="6.77154">
        <ele>474</ele>
        <time>2016-07-17T08:47:32.000Z</time>
      </trkpt>
      <trkpt lat="47.5965" lon="6.77152">
        <ele>474</ele>
        <time>2016-07-17T08:47:33.000Z</time>
      </trkpt>
      <trkpt lat="47.59649" lon="6.77146">
        <ele>475</ele>
        <time>2016-07-17T08:47:37.000Z</time>
      </trkpt>
      <trkpt lat="47.5965" lon="6.77145">
        <ele>475</ele>
        <time>2016-07-17T08:47:38.000Z</time>
      </trkpt>
      <trkpt lat="47.5965" lon="6.77139">
        <ele>475</ele>
        <time>2016-07-17T08:47:42.000Z</time>
      </trkpt>
      <trkpt lat="47.5965" lon="6.77138">
        <ele>475</ele>
        <time>2016-07-17T08:47:43.000Z</time>
      </trkpt>
      <trkpt lat="47.5965" lon="6.77131">
        <ele>476</ele>
        <time>2016-07-17T08:47:47.000Z</time>
      </trkpt>
      <trkpt lat="47.5965" lon="6.7713">
        <ele>476</ele>
        <time>2016-07-17T08:47:48.000Z</time>
      </trkpt>
      <trkpt lat="47.59651" lon="6.77123">
        <ele>476</ele>
        <time>2016-07-17T08:47:53.000Z</time>
      </trkpt>
      <trkpt lat="47.59651" lon="6.77122">
        <ele>476</ele>
        <time>2016-07-17T08:47:54.000Z</time>
      </trkpt>
      <trkpt lat="47.59651" lon="6.77116">
        <ele>477</ele>
        <time>2016-07-17T08:47:59.000Z</time>
      </trkpt>
      <trkpt lat="47.59651" lon="6.77115">
        <ele>477</ele>
        <time>2016-07-17T08:48:00.000Z</time>
      </trkpt>
      <trkpt lat="47.59651" lon="6.77111">
        <ele>477</ele>
        <time>2016-07-17T08:48:03.000Z</time>
      </trkpt>
      <trkpt lat="47.59651" lon="6.77108">
        <ele>477</ele>
        <time>2016-07-17T08:48:04.000Z</time>
      </trkpt>
      <trkpt lat="47.59651" lon="6.77103">
        <ele>478</ele>
        <time>2016-07-17T08:48:06.000Z</time>
      </trkpt>
      <trkpt lat="47.59651" lon="6.77101">
        <ele>478</ele>
        <time>2016-07-17T08:48:07.000Z</time>
      </trkpt>
      <trkpt lat="47.5965" lon="6.77097">
        <ele>478</ele>
        <time>2016-07-17T08:48:09.000Z</time>
      </trkpt>
      <trkpt lat="47.5965" lon="6.77094">
        <ele>478</ele>
        <time>2016-07-17T08:48:10.000Z</time>
      </trkpt>
      <trkpt lat="47.59649" lon="6.7709">
        <ele>479</ele>
        <time>2016-07-17T08:48:12.000Z</time>
      </trkpt>
      <trkpt lat="47.59649" lon="6.77087">
        <ele>479</ele>
        <time>2016-07-17T08:48:13.000Z</time>
      </trkpt>
      <trkpt lat="47.59649" lon="6.77081">
        <ele>483</ele>
        <time>2016-07-17T08:48:15.000Z</time>
      </trkpt>
      <trkpt lat="47.59649" lon="6.77078">
        <ele>483</ele>
        <time>2016-07-17T08:48:16.000Z</time>
      </trkpt>
      <trkpt lat="47.5965" lon="6.77072">
        <ele>483</ele>
        <time>2016-07-17T08:48:18.000Z</time>
      </trkpt>
      <trkpt lat="47.59651" lon="6.77069">
        <ele>483</ele>
        <time>2016-07-17T08:48:19.000Z</time>
      </trkpt>
      <trkpt lat="47.59651" lon="6.77064">
        <ele>483</ele>
        <time>2016-07-17T08:48:21.000Z</time>
      </trkpt>
      <trkpt lat="47.59652" lon="6.77062">
        <ele>484</ele>
        <time>2016-07-17T08:48:22.000Z</time>
      </trkpt>
      <trkpt lat="47.59653" lon="6.77056">
        <ele>484</ele>
        <time>2016-07-17T08:48:24.000Z</time>
      </trkpt>
      <trkpt lat="47.59653" lon="6.77054">
        <ele>484</ele>
        <time>2016-07-17T08:48:25.000Z</time>
      </trkpt>
      <trkpt lat="47.59653" lon="6.77047">
        <ele>485</ele>
        <time>2016-07-17T08:48:29.000Z</time>
      </trkpt>
      <trkpt lat="47.59653" lon="6.77046">
        <ele>485</ele>
        <time>2016-07-17T08:48:30.000Z</time>
      </trkpt>
      <trkpt lat="47.59654" lon="6.77039">
        <ele>485</ele>
        <time>2016-07-17T08:48:34.000Z</time>
      </trkpt>
      <trkpt lat="47.59654" lon="6.77037">
        <ele>485</ele>
        <time>2016-07-17T08:48:35.000Z</time>
      </trkpt>
      <trkpt lat="47.59652" lon="6.77031">
        <ele>486</ele>
        <time>2016-07-17T08:48:38.000Z</time>
      </trkpt>
      <trkpt lat="47.59652" lon="6.77029">
        <ele>486</ele>
        <time>2016-07-17T08:48:39.000Z</time>
      </trkpt>
      <trkpt lat="47.59652" lon="6.77022">
        <ele>487</ele>
        <time>2016-07-17T08:48:42.000Z</time>
      </trkpt>
      <trkpt lat="47.59652" lon="6.7702">
        <ele>487</ele>
        <time>2016-07-17T08:48:43.000Z</time>
      </trkpt>
      <trkpt lat="47.59651" lon="6.77015">
        <ele>487</ele>
        <time>2016-07-17T08:48:46.000Z</time>
      </trkpt>
      <trkpt lat="47.59651" lon="6.77013">
        <ele>487</ele>
        <time>2016-07-17T08:48:47.000Z</time>
      </trkpt>
      <trkpt lat="47.59652" lon="6.77008">
        <ele>488</ele>
        <time>2016-07-17T08:48:50.000Z</time>
      </trkpt>
      <trkpt lat="47.59652" lon="6.77006">
        <ele>488</ele>
        <time>2016-07-17T08:48:51.000Z</time>
      </trkpt>
      <trkpt lat="47.59651" lon="6.77">
        <ele>491</ele>
        <time>2016-07-17T08:48:54.000Z</time>
      </trkpt>
      <trkpt lat="47.59651" lon="6.76998">
        <ele>491</ele>
        <time>2016-07-17T08:48:55.000Z</time>
      </trkpt>
      <trkpt lat="47.59652" lon="6.76994">
        <ele>491</ele>
        <time>2016-07-17T08:48:58.000Z</time>
      </trkpt>
      <trkpt lat="47.59652" lon="6.76992">
        <ele>491</ele>
        <time>2016-07-17T08:48:59.000Z</time>
      </trkpt>
      <trkpt lat="47.59653" lon="6.76986">
        <ele>491</ele>
        <time>2016-07-17T08:49:02.000Z</time>
      </trkpt>
      <trkpt lat="47.59653" lon="6.76985">
        <ele>491</ele>
        <time>2016-07-17T08:49:03.000Z</time>
      </trkpt>
      <trkpt lat="47.59653" lon="6.76978">
        <ele>492</ele>
        <time>2016-07-17T08:49:08.000Z</time>
      </trkpt>
      <trkpt lat="47.59653" lon="6.76977">
        <ele>492</ele>
        <time>2016-07-17T08:49:09.000Z</time>
      </trkpt>
      <trkpt lat="47.59652" lon="6.76971">
        <ele>492</ele>
        <time>2016-07-17T08:49:12.000Z</time>
      </trkpt>
      <trkpt lat="47.59652" lon="6.76969">
        <ele>492</ele>
        <time>2016-07-17T08:49:13.000Z</time>
      </trkpt>
      <trkpt lat="47.59653" lon="6.76963">
        <ele>492</ele>
        <time>2016-07-17T08:49:16.000Z</time>
      </trkpt>
      <trkpt lat="47.59654" lon="6.76961">
        <ele>492</ele>
        <time>2016-07-17T08:49:17.000Z</time>
      </trkpt>
      <trkpt lat="47.59655" lon="6.76956">
        <ele>493</ele>
        <time>2016-07-17T08:49:20.000Z</time>
      </trkpt>
      <trkpt lat="47.59655" lon="6.76954">
        <ele>493</ele>
        <time>2016-07-17T08:49:21.000Z</time>
      </trkpt>
      <trkpt lat="47.59656" lon="6.76949">
        <ele>493</ele>
        <time>2016-07-17T08:49:24.000Z</time>
      </trkpt>
      <trkpt lat="47.59656" lon="6.76947">
        <ele>493</ele>
        <time>2016-07-17T08:49:25.000Z</time>
      </trkpt>
      <trkpt lat="47.59657" lon="6.76941">
        <ele>494</ele>
        <time>2016-07-17T08:49:28.000Z</time>
      </trkpt>
      <trkpt lat="47.59657" lon="6.76939">
        <ele>494</ele>
        <time>2016-07-17T08:49:29.000Z</time>
      </trkpt>
      <trkpt lat="47.59658" lon="6.76933">
        <ele>495</ele>
        <time>2016-07-17T08:49:34.000Z</time>
      </trkpt>
      <trkpt lat="47.59658" lon="6.76931">
        <ele>495</ele>
        <time>2016-07-17T08:49:35.000Z</time>
      </trkpt>
      <trkpt lat="47.5966" lon="6.76925">
        <ele>496</ele>
        <time>2016-07-17T08:49:38.000Z</time>
      </trkpt>
      <trkpt lat="47.5966" lon="6.76923">
        <ele>496</ele>
        <time>2016-07-17T08:49:39.000Z</time>
      </trkpt>
      <trkpt lat="47.5966" lon="6.76918">
        <ele>496</ele>
        <time>2016-07-17T08:49:41.000Z</time>
      </trkpt>
      <trkpt lat="47.5966" lon="6.76916">
        <ele>498</ele>
        <time>2016-07-17T08:49:42.000Z</time>
      </trkpt>
      <trkpt lat="47.59659" lon="6.7691">
        <ele>498</ele>
        <time>2016-07-17T08:49:45.000Z</time>
      </trkpt>
      <trkpt lat="47.59659" lon="6.76909">
        <ele>498</ele>
        <time>2016-07-17T08:49:46.000Z</time>
      </trkpt>
      <trkpt lat="47.5966" lon="6.76904">
        <ele>498</ele>
        <time>2016-07-17T08:49:48.000Z</time>
      </trkpt>
      <trkpt lat="47.5966" lon="6.76902">
        <ele>497</ele>
        <time>2016-07-17T08:49:49.000Z</time>
      </trkpt>
      <trkpt lat="47.5966" lon="6.76896">
        <ele>497</ele>
        <time>2016-07-17T08:49:51.000Z</time>
      </trkpt>
      <trkpt lat="47.5966" lon="6.76893">
        <ele>497</ele>
        <time>2016-07-17T08:49:52.000Z</time>
      </trkpt>
      <trkpt lat="47.5966" lon="6.76887">
        <ele>498</ele>
        <time>2016-07-17T08:49:54.000Z</time>
      </trkpt>
      <trkpt lat="47.5966" lon="6.76885">
        <ele>498</ele>
        <time>2016-07-17T08:49:55.000Z</time>
      </trkpt>
      <trkpt lat="47.5966" lon="6.7688">
        <ele>498</ele>
        <time>2016-07-17T08:49:58.000Z</time>
      </trkpt>
      <trkpt lat="47.5966" lon="6.76878">
        <ele>498</ele>
        <time>2016-07-17T08:49:59.000Z</time>
      </trkpt>
      <trkpt lat="47.59661" lon="6.76872">
        <ele>498</ele>
        <time>2016-07-17T08:50:02.000Z</time>
      </trkpt>
      <trkpt lat="47.59661" lon="6.76869">
        <ele>498</ele>
        <time>2016-07-17T08:50:03.000Z</time>
      </trkpt>
      <trkpt lat="47.59661" lon="6.76865">
        <ele>498</ele>
        <time>2016-07-17T08:50:05.000Z</time>
      </trkpt>
      <trkpt lat="47.59661" lon="6.76863">
        <ele>498</ele>
        <time>2016-07-17T08:50:06.000Z</time>
      </trkpt>
      <trkpt lat="47.59662" lon="6.76857">
        <ele>499</ele>
        <time>2016-07-17T08:50:09.000Z</time>
      </trkpt>
      <trkpt lat="47.59663" lon="6.76856">
        <ele>499</ele>
        <time>2016-07-17T08:50:10.000Z</time>
      </trkpt>
      <trkpt lat="47.59664" lon="6.76851">
        <ele>499</ele>
        <time>2016-07-17T08:50:13.000Z</time>
      </trkpt>
      <trkpt lat="47.59665" lon="6.76849">
        <ele>500</ele>
        <time>2016-07-17T08:50:14.000Z</time>
      </trkpt>
      <trkpt lat="47.59666" lon="6.76845">
        <ele>500</ele>
        <time>2016-07-17T08:50:16.000Z</time>
      </trkpt>
      <trkpt lat="47.59667" lon="6.76842">
        <ele>500</ele>
        <time>2016-07-17T08:50:17.000Z</time>
      </trkpt>
      <trkpt lat="47.59667" lon="6.76838">
        <ele>501</ele>
        <time>2016-07-17T08:50:19.000Z</time>
      </trkpt>
      <trkpt lat="47.59668" lon="6.76835">
        <ele>502</ele>
        <time>2016-07-17T08:50:20.000Z</time>
      </trkpt>
      <trkpt lat="47.59669" lon="6.76829">
        <ele>502</ele>
        <time>2016-07-17T08:50:23.000Z</time>
      </trkpt>
      <trkpt lat="47.59669" lon="6.76827">
        <ele>502</ele>
        <time>2016-07-17T08:50:24.000Z</time>
      </trkpt>
      <trkpt lat="47.59669" lon="6.76821">
        <ele>502</ele>
        <time>2016-07-17T08:50:29.000Z</time>
      </trkpt>
      <trkpt lat="47.5967" lon="6.76819">
        <ele>502</ele>
        <time>2016-07-17T08:50:30.000Z</time>
      </trkpt>
      <trkpt lat="47.5967" lon="6.76813">
        <ele>502</ele>
        <time>2016-07-17T08:50:32.000Z</time>
      </trkpt>
      <trkpt lat="47.5967" lon="6.7681">
        <ele>503</ele>
        <time>2016-07-17T08:50:33.000Z</time>
      </trkpt>
      <trkpt lat="47.59671" lon="6.76804">
        <ele>503</ele>
        <time>2016-07-17T08:50:35.000Z</time>
      </trkpt>
      <trkpt lat="47.59672" lon="6.76802">
        <ele>503</ele>
        <time>2016-07-17T08:50:36.000Z</time>
      </trkpt>
      <trkpt lat="47.59673" lon="6.76796">
        <ele>503</ele>
        <time>2016-07-17T08:50:39.000Z</time>
      </trkpt>
      <trkpt lat="47.59674" lon="6.76793">
        <ele>503</ele>
        <time>2016-07-17T08:50:40.000Z</time>
      </trkpt>
      <trkpt lat="47.59675" lon="6.76789">
        <ele>503</ele>
        <time>2016-07-17T08:50:42.000Z</time>
      </trkpt>
      <trkpt lat="47.59675" lon="6.76786">
        <ele>503</ele>
        <time>2016-07-17T08:50:43.000Z</time>
      </trkpt>
      <trkpt lat="47.59676" lon="6.76782">
        <ele>504</ele>
        <time>2016-07-17T08:50:44.000Z</time>
      </trkpt>
      <trkpt lat="47.59676" lon="6.76778">
        <ele>504</ele>
        <time>2016-07-17T08:50:45.000Z</time>
      </trkpt>
      <trkpt lat="47.59677" lon="6.76775">
        <ele>504</ele>
        <time>2016-07-17T08:50:46.000Z</time>
      </trkpt>
      <trkpt lat="47.59678" lon="6.76772">
        <ele>504</ele>
        <time>2016-07-17T08:50:47.000Z</time>
      </trkpt>
      <trkpt lat="47.59678" lon="6.76766">
        <ele>505</ele>
        <time>2016-07-17T08:50:49.000Z</time>
      </trkpt>
      <trkpt lat="47.59678" lon="6.76763">
        <ele>505</ele>
        <time>2016-07-17T08:50:50.000Z</time>
      </trkpt>
      <trkpt lat="47.59678" lon="6.76756">
        <ele>505</ele>
        <time>2016-07-17T08:50:52.000Z</time>
      </trkpt>
      <trkpt lat="47.59678" lon="6.76753">
        <ele>505</ele>
        <time>2016-07-17T08:50:53.000Z</time>
      </trkpt>
      <trkpt lat="47.59679" lon="6.76749">
        <ele>507</ele>
        <time>2016-07-17T08:50:54.000Z</time>
      </trkpt>
      <trkpt lat="47.59679" lon="6.76746">
        <ele>507</ele>
        <time>2016-07-17T08:50:55.000Z</time>
      </trkpt>
      <trkpt lat="47.5968" lon="6.7674">
        <ele>507</ele>
        <time>2016-07-17T08:50:57.000Z</time>
      </trkpt>
      <trkpt lat="47.5968" lon="6.76738">
        <ele>507</ele>
        <time>2016-07-17T08:50:58.000Z</time>
      </trkpt>
      <trkpt lat="47.59683" lon="6.76733">
        <ele>507</ele>
        <time>2016-07-17T08:51:01.000Z</time>
      </trkpt>
      <trkpt lat="47.59685" lon="6.76732">
        <ele>507</ele>
        <time>2016-07-17T08:51:02.000Z</time>
      </trkpt>
      <trkpt lat="47.59688" lon="6.76728">
        <ele>507</ele>
        <time>2016-07-17T08:51:05.000Z</time>
      </trkpt>
      <trkpt lat="47.59688" lon="6.76726">
        <ele>507</ele>
        <time>2016-07-17T08:51:06.000Z</time>
      </trkpt>
      <trkpt lat="47.59689" lon="6.76721">
        <ele>507</ele>
        <time>2016-07-17T08:51:08.000Z</time>
      </trkpt>
      <trkpt lat="47.59689" lon="6.76718">
        <ele>508</ele>
        <time>2016-07-17T08:51:09.000Z</time>
      </trkpt>
      <trkpt lat="47.5969" lon="6.76712">
        <ele>508</ele>
        <time>2016-07-17T08:51:11.000Z</time>
      </trkpt>
      <trkpt lat="47.5969" lon="6.76709">
        <ele>508</ele>
        <time>2016-07-17T08:51:12.000Z</time>
      </trkpt>
      <trkpt lat="47.5969" lon="6.76704">
        <ele>508</ele>
        <time>2016-07-17T08:51:14.000Z</time>
      </trkpt>
      <trkpt lat="47.5969" lon="6.76701">
        <ele>508</ele>
        <time>2016-07-17T08:51:15.000Z</time>
      </trkpt>
      <trkpt lat="47.5969" lon="6.76694">
        <ele>508</ele>
        <time>2016-07-17T08:51:17.000Z</time>
      </trkpt>
      <trkpt lat="47.59689" lon="6.76691">
        <ele>508</ele>
        <time>2016-07-17T08:51:18.000Z</time>
      </trkpt>
      <trkpt lat="47.59689" lon="6.76685">
        <ele>509</ele>
        <time>2016-07-17T08:51:20.000Z</time>
      </trkpt>
      <trkpt lat="47.59689" lon="6.76682">
        <ele>509</ele>
        <time>2016-07-17T08:51:21.000Z</time>
      </trkpt>
      <trkpt lat="47.5969" lon="6.76675">
        <ele>509</ele>
        <time>2016-07-17T08:51:24.000Z</time>
      </trkpt>
      <trkpt lat="47.5969" lon="6.76673">
        <ele>509</ele>
        <time>2016-07-17T08:51:25.000Z</time>
      </trkpt>
      <trkpt lat="47.59691" lon="6.76669">
        <ele>509</ele>
        <time>2016-07-17T08:51:27.000Z</time>
      </trkpt>
      <trkpt lat="47.59692" lon="6.76666">
        <ele>512</ele>
        <time>2016-07-17T08:51:28.000Z</time>
      </trkpt>
      <trkpt lat="47.59693" lon="6.76662">
        <ele>512</ele>
        <time>2016-07-17T08:51:30.000Z</time>
      </trkpt>
      <trkpt lat="47.59694" lon="6.76659">
        <ele>512</ele>
        <time>2016-07-17T08:51:31.000Z</time>
      </trkpt>
      <trkpt lat="47.59696" lon="6.76654">
        <ele>512</ele>
        <time>2016-07-17T08:51:33.000Z</time>
      </trkpt>
      <trkpt lat="47.59697" lon="6.76652">
        <ele>512</ele>
        <time>2016-07-17T08:51:34.000Z</time>
      </trkpt>
      <trkpt lat="47.59698" lon="6.76647">
        <ele>512</ele>
        <time>2016-07-17T08:51:36.000Z</time>
      </trkpt>
      <trkpt lat="47.59699" lon="6.76644">
        <ele>512</ele>
        <time>2016-07-17T08:51:37.000Z</time>
      </trkpt>
      <trkpt lat="47.59699" lon="6.76637">
        <ele>512</ele>
        <time>2016-07-17T08:51:39.000Z</time>
      </trkpt>
      <trkpt lat="47.59699" lon="6.76634">
        <ele>512</ele>
        <time>2016-07-17T08:51:40.000Z</time>
      </trkpt>
      <trkpt lat="47.597" lon="6.76628">
        <ele>513</ele>
        <time>2016-07-17T08:51:42.000Z</time>
      </trkpt>
      <trkpt lat="47.59701" lon="6.76625">
        <ele>513</ele>
        <time>2016-07-17T08:51:43.000Z</time>
      </trkpt>
      <trkpt lat="47.59702" lon="6.76622">
        <ele>513</ele>
        <time>2016-07-17T08:51:44.000Z</time>
      </trkpt>
      <trkpt lat="47.59702" lon="6.76618">
        <ele>513</ele>
        <time>2016-07-17T08:51:45.000Z</time>
      </trkpt>
      <trkpt lat="47.59701" lon="6.76612">
        <ele>513</ele>
        <time>2016-07-17T08:51:47.000Z</time>
      </trkpt>
      <trkpt lat="47.597" lon="6.76609">
        <ele>513</ele>
        <time>2016-07-17T08:51:48.000Z</time>
      </trkpt>
      <trkpt lat="47.597" lon="6.76604">
        <ele>513</ele>
        <time>2016-07-17T08:51:50.000Z</time>
      </trkpt>
      <trkpt lat="47.597" lon="6.76601">
        <ele>513</ele>
        <time>2016-07-17T08:51:51.000Z</time>
      </trkpt>
      <trkpt lat="47.59701" lon="6.76595">
        <ele>514</ele>
        <time>2016-07-17T08:51:53.000Z</time>
      </trkpt>
      <trkpt lat="47.59701" lon="6.76592">
        <ele>514</ele>
        <time>2016-07-17T08:51:54.000Z</time>
      </trkpt>
      <trkpt lat="47.59702" lon="6.76587">
        <ele>514</ele>
        <time>2016-07-17T08:51:56.000Z</time>
      </trkpt>
      <trkpt lat="47.59702" lon="6.76585">
        <ele>514</ele>
        <time>2016-07-17T08:51:57.000Z</time>
      </trkpt>
      <trkpt lat="47.597" lon="6.76579">
        <ele>517</ele>
        <time>2016-07-17T08:52:00.000Z</time>
      </trkpt>
      <trkpt lat="47.597" lon="6.76578">
        <ele>517</ele>
        <time>2016-07-17T08:52:01.000Z</time>
      </trkpt>
      <trkpt lat="47.59701" lon="6.76571">
        <ele>517</ele>
        <time>2016-07-17T08:52:05.000Z</time>
      </trkpt>
      <trkpt lat="47.59702" lon="6.76569">
        <ele>517</ele>
        <time>2016-07-17T08:52:06.000Z</time>
      </trkpt>
      <trkpt lat="47.59706" lon="6.76567">
        <ele>517</ele>
        <time>2016-07-17T08:52:12.000Z</time>
      </trkpt>
      <trkpt lat="47.59706" lon="6.76567">
        <ele>517</ele>
        <time>2016-07-17T08:52:12.998Z</time>
      </trkpt>
      <trkpt lat="47.59708" lon="6.76561">
        <ele>517</ele>
        <time>2016-07-17T08:52:15.000Z</time>
      </trkpt>
      <trkpt lat="47.59709" lon="6.76558">
        <ele>517</ele>
        <time>2016-07-17T08:52:16.000Z</time>
      </trkpt>
      <trkpt lat="47.5971" lon="6.76552">
        <ele>517</ele>
        <time>2016-07-17T08:52:18.000Z</time>
      </trkpt>
      <trkpt lat="47.59711" lon="6.7655">
        <ele>517</ele>
        <time>2016-07-17T08:52:19.000Z</time>
      </trkpt>
      <trkpt lat="47.59712" lon="6.76544">
        <ele>517</ele>
        <time>2016-07-17T08:52:21.000Z</time>
      </trkpt>
      <trkpt lat="47.59713" lon="6.76542">
        <ele>517</ele>
        <time>2016-07-17T08:52:22.000Z</time>
      </trkpt>
      <trkpt lat="47.59713" lon="6.76536">
        <ele>517</ele>
        <time>2016-07-17T08:52:24.000Z</time>
      </trkpt>
      <trkpt lat="47.59713" lon="6.76534">
        <ele>517</ele>
        <time>2016-07-17T08:52:25.000Z</time>
      </trkpt>
      <trkpt lat="47.59713" lon="6.76529">
        <ele>518</ele>
        <time>2016-07-17T08:52:27.000Z</time>
      </trkpt>
      <trkpt lat="47.59713" lon="6.76527">
        <ele>518</ele>
        <time>2016-07-17T08:52:28.000Z</time>
      </trkpt>
      <trkpt lat="47.59713" lon="6.7652">
        <ele>518</ele>
        <time>2016-07-17T08:52:30.000Z</time>
      </trkpt>
      <trkpt lat="47.59713" lon="6.76516">
        <ele>518</ele>
        <time>2016-07-17T08:52:31.000Z</time>
      </trkpt>
      <trkpt lat="47.59713" lon="6.7651">
        <ele>518</ele>
        <time>2016-07-17T08:52:33.000Z</time>
      </trkpt>
      <trkpt lat="47.59714" lon="6.76508">
        <ele>518</ele>
        <time>2016-07-17T08:52:34.000Z</time>
      </trkpt>
      <trkpt lat="47.59716" lon="6.76503">
        <ele>518</ele>
        <time>2016-07-17T08:52:40.000Z</time>
      </trkpt>
      <trkpt lat="47.59716" lon="6.76502">
        <ele>518</ele>
        <time>2016-07-17T08:52:41.000Z</time>
      </trkpt>
      <trkpt lat="47.59719" lon="6.76498">
        <ele>520</ele>
        <time>2016-07-17T08:52:44.000Z</time>
      </trkpt>
      <trkpt lat="47.5972" lon="6.76496">
        <ele>520</ele>
        <time>2016-07-17T08:52:45.000Z</time>
      </trkpt>
      <trkpt lat="47.59722" lon="6.76492">
        <ele>520</ele>
        <time>2016-07-17T08:52:47.000Z</time>
      </trkpt>
      <trkpt lat="47.59723" lon="6.7649">
        <ele>520</ele>
        <time>2016-07-17T08:52:48.000Z</time>
      </trkpt>
      <trkpt lat="47.59726" lon="6.76486">
        <ele>520</ele>
        <time>2016-07-17T08:52:50.000Z</time>
      </trkpt>
      <trkpt lat="47.59727" lon="6.76483">
        <ele>520</ele>
        <time>2016-07-17T08:52:51.000Z</time>
      </trkpt>
      <trkpt lat="47.59729" lon="6.76481">
        <ele>520</ele>
        <time>2016-07-17T08:52:52.000Z</time>
      </trkpt>
      <trkpt lat="47.5973" lon="6.76478">
        <ele>521</ele>
        <time>2016-07-17T08:52:53.000Z</time>
      </trkpt>
      <trkpt lat="47.59731" lon="6.76474">
        <ele>521</ele>
        <time>2016-07-17T08:52:54.000Z</time>
      </trkpt>
      <trkpt lat="47.59731" lon="6.76471">
        <ele>521</ele>
        <time>2016-07-17T08:52:55.000Z</time>
      </trkpt>
      <trkpt lat="47.59733" lon="6.76465">
        <ele>521</ele>
        <time>2016-07-17T08:52:57.000Z</time>
      </trkpt>
      <trkpt lat="47.59734" lon="6.76462">
        <ele>521</ele>
        <time>2016-07-17T08:52:58.000Z</time>
      </trkpt>
      <trkpt lat="47.59735" lon="6.76458">
        <ele>521</ele>
        <time>2016-07-17T08:53:00.000Z</time>
      </trkpt>
      <trkpt lat="47.59736" lon="6.76455">
        <ele>521</ele>
        <time>2016-07-17T08:53:01.000Z</time>
      </trkpt>
      <trkpt lat="47.59739" lon="6.7645">
        <ele>521</ele>
        <time>2016-07-17T08:53:03.000Z</time>
      </trkpt>
      <trkpt lat="47.5974" lon="6.76448">
        <ele>521</ele>
        <time>2016-07-17T08:53:04.000Z</time>
      </trkpt>
      <trkpt lat="47.59743" lon="6.76443">
        <ele>521</ele>
        <time>2016-07-17T08:53:06.000Z</time>
      </trkpt>
      <trkpt lat="47.59744" lon="6.76441">
        <ele>522</ele>
        <time>2016-07-17T08:53:07.000Z</time>
      </trkpt>
      <trkpt lat="47.59746" lon="6.76436">
        <ele>522</ele>
        <time>2016-07-17T08:53:09.000Z</time>
      </trkpt>
      <trkpt lat="47.59746" lon="6.76434">
        <ele>522</ele>
        <time>2016-07-17T08:53:10.000Z</time>
      </trkpt>
      <trkpt lat="47.59747" lon="6.76428">
        <ele>522</ele>
        <time>2016-07-17T08:53:13.000Z</time>
      </trkpt>
      <trkpt lat="47.59747" lon="6.76426">
        <ele>522</ele>
        <time>2016-07-17T08:53:14.000Z</time>
      </trkpt>
      <trkpt lat="47.59749" lon="6.7642">
        <ele>523</ele>
        <time>2016-07-17T08:53:16.000Z</time>
      </trkpt>
      <trkpt lat="47.59749" lon="6.76417">
        <ele>523</ele>
        <time>2016-07-17T08:53:17.000Z</time>
      </trkpt>
      <trkpt lat="47.59751" lon="6.76412">
        <ele>521</ele>
        <time>2016-07-17T08:53:19.000Z</time>
      </trkpt>
      <trkpt lat="47.59752" lon="6.7641">
        <ele>520</ele>
        <time>2016-07-17T08:53:20.000Z</time>
      </trkpt>
      <trkpt lat="47.59753" lon="6.76406">
        <ele>519</ele>
        <time>2016-07-17T08:53:22.000Z</time>
      </trkpt>
      <trkpt lat="47.59754" lon="6.76403">
        <ele>519</ele>
        <time>2016-07-17T08:53:23.000Z</time>
      </trkpt>
      <trkpt lat="47.59754" lon="6.76398">
        <ele>518</ele>
        <time>2016-07-17T08:53:25.000Z</time>
      </trkpt>
      <trkpt lat="47.59755" lon="6.76396">
        <ele>517</ele>
        <time>2016-07-17T08:53:26.000Z</time>
      </trkpt>
      <trkpt lat="47.59756" lon="6.76389">
        <ele>517</ele>
        <time>2016-07-17T08:53:28.000Z</time>
      </trkpt>
      <trkpt lat="47.59757" lon="6.76385">
        <ele>516</ele>
        <time>2016-07-17T08:53:29.000Z</time>
      </trkpt>
      <trkpt lat="47.59759" lon="6.7638">
        <ele>516</ele>
        <time>2016-07-17T08:53:30.000Z</time>
      </trkpt>
      <trkpt lat="47.5976" lon="6.76375">
        <ele>516</ele>
        <time>2016-07-17T08:53:31.000Z</time>
      </trkpt>
      <trkpt lat="47.59762" lon="6.7637">
        <ele>516</ele>
        <time>2016-07-17T08:53:32.000Z</time>
      </trkpt>
      <trkpt lat="47.59763" lon="6.7636">
        <ele>517</ele>
        <time>2016-07-17T08:53:34.000Z</time>
      </trkpt>
      <trkpt lat="47.59764" lon="6.76355">
        <ele>518</ele>
        <time>2016-07-17T08:53:35.000Z</time>
      </trkpt>
      <trkpt lat="47.59764" lon="6.76349">
        <ele>518</ele>
        <time>2016-07-17T08:53:36.000Z</time>
      </trkpt>
      <trkpt lat="47.59764" lon="6.76343">
        <ele>519</ele>
        <time>2016-07-17T08:53:37.000Z</time>
      </trkpt>
      <trkpt lat="47.59764" lon="6.76336">
        <ele>520</ele>
        <time>2016-07-17T08:53:38.000Z</time>
      </trkpt>
      <trkpt lat="47.59765" lon="6.7633">
        <ele>521</ele>
        <time>2016-07-17T08:53:39.000Z</time>
      </trkpt>
      <trkpt lat="47.59765" lon="6.76324">
        <ele>521</ele>
        <time>2016-07-17T08:53:40.000Z</time>
      </trkpt>
      <trkpt lat="47.59766" lon="6.76319">
        <ele>520</ele>
        <time>2016-07-17T08:53:41.000Z</time>
      </trkpt>
      <trkpt lat="47.59768" lon="6.76314">
        <ele>519</ele>
        <time>2016-07-17T08:53:42.000Z</time>
      </trkpt>
      <trkpt lat="47.59768" lon="6.76309">
        <ele>519</ele>
        <time>2016-07-17T08:53:43.000Z</time>
      </trkpt>
      <trkpt lat="47.59769" lon="6.76304">
        <ele>518</ele>
        <time>2016-07-17T08:53:44.000Z</time>
      </trkpt>
      <trkpt lat="47.5977" lon="6.763">
        <ele>518</ele>
        <time>2016-07-17T08:53:45.000Z</time>
      </trkpt>
      <trkpt lat="47.59771" lon="6.76296">
        <ele>518</ele>
        <time>2016-07-17T08:53:46.000Z</time>
      </trkpt>
      <trkpt lat="47.59771" lon="6.76292">
        <ele>518</ele>
        <time>2016-07-17T08:53:47.000Z</time>
      </trkpt>
      <trkpt lat="47.59772" lon="6.76288">
        <ele>518</ele>
        <time>2016-07-17T08:53:48.000Z</time>
      </trkpt>
      <trkpt lat="47.59773" lon="6.76284">
        <ele>518</ele>
        <time>2016-07-17T08:53:49.000Z</time>
      </trkpt>
      <trkpt lat="47.59774" lon="6.7628">
        <ele>518</ele>
        <time>2016-07-17T08:53:50.000Z</time>
      </trkpt>
      <trkpt lat="47.59775" lon="6.76276">
        <ele>518</ele>
        <time>2016-07-17T08:53:51.000Z</time>
      </trkpt>
      <trkpt lat="47.59775" lon="6.76272">
        <ele>518</ele>
        <time>2016-07-17T08:53:52.000Z</time>
      </trkpt>
      <trkpt lat="47.59775" lon="6.76268">
        <ele>518</ele>
        <time>2016-07-17T08:53:53.000Z</time>
      </trkpt>
      <trkpt lat="47.59775" lon="6.76264">
        <ele>519</ele>
        <time>2016-07-17T08:53:54.000Z</time>
      </trkpt>
      <trkpt lat="47.59775" lon="6.76259">
        <ele>519</ele>
        <time>2016-07-17T08:53:55.000Z</time>
      </trkpt>
      <trkpt lat="47.59776" lon="6.76254">
        <ele>519</ele>
        <time>2016-07-17T08:53:56.000Z</time>
      </trkpt>
      <trkpt lat="47.59776" lon="6.76249">
        <ele>521</ele>
        <time>2016-07-17T08:53:57.000Z</time>
      </trkpt>
      <trkpt lat="47.59777" lon="6.76243">
        <ele>520</ele>
        <time>2016-07-17T08:53:58.000Z</time>
      </trkpt>
      <trkpt lat="47.59777" lon="6.76239">
        <ele>520</ele>
        <time>2016-07-17T08:53:59.000Z</time>
      </trkpt>
      <trkpt lat="47.59778" lon="6.76235">
        <ele>520</ele>
        <time>2016-07-17T08:54:00.000Z</time>
      </trkpt>
      <trkpt lat="47.59778" lon="6.76231">
        <ele>520</ele>
        <time>2016-07-17T08:54:01.000Z</time>
      </trkpt>
      <trkpt lat="47.59778" lon="6.76226">
        <ele>519</ele>
        <time>2016-07-17T08:54:02.000Z</time>
      </trkpt>
      <trkpt lat="47.59778" lon="6.76222">
        <ele>519</ele>
        <time>2016-07-17T08:54:03.000Z</time>
      </trkpt>
      <trkpt lat="47.59778" lon="6.76218">
        <ele>519</ele>
        <time>2016-07-17T08:54:04.000Z</time>
      </trkpt>
      <trkpt lat="47.59778" lon="6.76214">
        <ele>519</ele>
        <time>2016-07-17T08:54:05.000Z</time>
      </trkpt>
      <trkpt lat="47.59779" lon="6.7621">
        <ele>519</ele>
        <time>2016-07-17T08:54:06.000Z</time>
      </trkpt>
      <trkpt lat="47.59779" lon="6.76206">
        <ele>519</ele>
        <time>2016-07-17T08:54:07.000Z</time>
      </trkpt>
      <trkpt lat="47.5978" lon="6.76201">
        <ele>519</ele>
        <time>2016-07-17T08:54:08.000Z</time>
      </trkpt>
      <trkpt lat="47.59781" lon="6.76196">
        <ele>519</ele>
        <time>2016-07-17T08:54:09.000Z</time>
      </trkpt>
      <trkpt lat="47.59781" lon="6.76192">
        <ele>519</ele>
        <time>2016-07-17T08:54:10.000Z</time>
      </trkpt>
      <trkpt lat="47.59781" lon="6.76187">
        <ele>520</ele>
        <time>2016-07-17T08:54:11.000Z</time>
      </trkpt>
      <trkpt lat="47.5978" lon="6.76183">
        <ele>520</ele>
        <time>2016-07-17T08:54:12.000Z</time>
      </trkpt>
      <trkpt lat="47.5978" lon="6.7618">
        <ele>520</ele>
        <time>2016-07-17T08:54:13.000Z</time>
      </trkpt>
      <trkpt lat="47.59779" lon="6.76176">
        <ele>520</ele>
        <time>2016-07-17T08:54:14.000Z</time>
      </trkpt>
      <trkpt lat="47.59779" lon="6.7617">
        <ele>521</ele>
        <time>2016-07-17T08:54:16.000Z</time>
      </trkpt>
      <trkpt lat="47.59779" lon="6.76167">
        <ele>521</ele>
        <time>2016-07-17T08:54:17.000Z</time>
      </trkpt>
      <trkpt lat="47.59779" lon="6.76163">
        <ele>521</ele>
        <time>2016-07-17T08:54:18.000Z</time>
      </trkpt>
      <trkpt lat="47.59779" lon="6.7616">
        <ele>521</ele>
        <time>2016-07-17T08:54:19.000Z</time>
      </trkpt>
      <trkpt lat="47.59779" lon="6.76153">
        <ele>521</ele>
        <time>2016-07-17T08:54:21.000Z</time>
      </trkpt>
      <trkpt lat="47.59779" lon="6.7615">
        <ele>521</ele>
        <time>2016-07-17T08:54:22.000Z</time>
      </trkpt>
      <trkpt lat="47.59779" lon="6.76147">
        <ele>521</ele>
        <time>2016-07-17T08:54:23.000Z</time>
      </trkpt>
      <trkpt lat="47.59779" lon="6.76143">
        <ele>521</ele>
        <time>2016-07-17T08:54:24.000Z</time>
      </trkpt>
      <trkpt lat="47.5978" lon="6.76139">
        <ele>520</ele>
        <time>2016-07-17T08:54:25.000Z</time>
      </trkpt>
      <trkpt lat="47.5978" lon="6.76135">
        <ele>520</ele>
        <time>2016-07-17T08:54:26.000Z</time>
      </trkpt>
      <trkpt lat="47.59781" lon="6.7613">
        <ele>520</ele>
        <time>2016-07-17T08:54:27.000Z</time>
      </trkpt>
      <trkpt lat="47.59781" lon="6.76126">
        <ele>520</ele>
        <time>2016-07-17T08:54:28.000Z</time>
      </trkpt>
      <trkpt lat="47.59781" lon="6.76122">
        <ele>520</ele>
        <time>2016-07-17T08:54:29.000Z</time>
      </trkpt>
      <trkpt lat="47.59782" lon="6.76118">
        <ele>520</ele>
        <time>2016-07-17T08:54:30.000Z</time>
      </trkpt>
      <trkpt lat="47.59783" lon="6.76114">
        <ele>520</ele>
        <time>2016-07-17T08:54:31.000Z</time>
      </trkpt>
      <trkpt lat="47.59784" lon="6.7611">
        <ele>520</ele>
        <time>2016-07-17T08:54:32.000Z</time>
      </trkpt>
      <trkpt lat="47.59784" lon="6.76105">
        <ele>520</ele>
        <time>2016-07-17T08:54:33.000Z</time>
      </trkpt>
      <trkpt lat="47.59785" lon="6.76101">
        <ele>520</ele>
        <time>2016-07-17T08:54:34.000Z</time>
      </trkpt>
      <trkpt lat="47.59785" lon="6.76097">
        <ele>520</ele>
        <time>2016-07-17T08:54:35.000Z</time>
      </trkpt>
      <trkpt lat="47.59784" lon="6.76093">
        <ele>520</ele>
        <time>2016-07-17T08:54:36.000Z</time>
      </trkpt>
      <trkpt lat="47.59784" lon="6.76089">
        <ele>520</ele>
        <time>2016-07-17T08:54:37.000Z</time>
      </trkpt>
      <trkpt lat="47.59784" lon="6.76085">
        <ele>520</ele>
        <time>2016-07-17T08:54:38.000Z</time>
      </trkpt>
      <trkpt lat="47.59783" lon="6.7608">
        <ele>520</ele>
        <time>2016-07-17T08:54:39.000Z</time>
      </trkpt>
      <trkpt lat="47.59783" lon="6.76076">
        <ele>520</ele>
        <time>2016-07-17T08:54:40.000Z</time>
      </trkpt>
      <trkpt lat="47.59783" lon="6.76071">
        <ele>520</ele>
        <time>2016-07-17T08:54:41.000Z</time>
      </trkpt>
      <trkpt lat="47.59783" lon="6.76068">
        <ele>520</ele>
        <time>2016-07-17T08:54:41.998Z</time>
      </trkpt>
      <trkpt lat="47.59782" lon="6.76062">
        <ele>520</ele>
        <time>2016-07-17T08:54:43.000Z</time>
      </trkpt>
      <trkpt lat="47.59781" lon="6.76058">
        <ele>520</ele>
        <time>2016-07-17T08:54:44.000Z</time>
      </trkpt>
      <trkpt lat="47.5978" lon="6.76055">
        <ele>520</ele>
        <time>2016-07-17T08:54:45.000Z</time>
      </trkpt>
      <trkpt lat="47.59779" lon="6.76051">
        <ele>520</ele>
        <time>2016-07-17T08:54:46.000Z</time>
      </trkpt>
      <trkpt lat="47.59779" lon="6.76046">
        <ele>520</ele>
        <time>2016-07-17T08:54:47.000Z</time>
      </trkpt>
      <trkpt lat="47.5978" lon="6.76043">
        <ele>520</ele>
        <time>2016-07-17T08:54:48.000Z</time>
      </trkpt>
      <trkpt lat="47.5978" lon="6.76039">
        <ele>520</ele>
        <time>2016-07-17T08:54:49.000Z</time>
      </trkpt>
      <trkpt lat="47.5978" lon="6.76036">
        <ele>520</ele>
        <time>2016-07-17T08:54:50.000Z</time>
      </trkpt>
      <trkpt lat="47.5978" lon="6.76032">
        <ele>520</ele>
        <time>2016-07-17T08:54:51.000Z</time>
      </trkpt>
      <trkpt lat="47.59779" lon="6.76029">
        <ele>520</ele>
        <time>2016-07-17T08:54:52.000Z</time>
      </trkpt>
      <trkpt lat="47.59778" lon="6.76023">
        <ele>520</ele>
        <time>2016-07-17T08:54:54.000Z</time>
      </trkpt>
      <trkpt lat="47.59778" lon="6.7602">
        <ele>520</ele>
        <time>2016-07-17T08:54:55.000Z</time>
      </trkpt>
      <trkpt lat="47.59777" lon="6.76014">
        <ele>521</ele>
        <time>2016-07-17T08:54:57.000Z</time>
      </trkpt>
      <trkpt lat="47.59777" lon="6.76011">
        <ele>521</ele>
        <time>2016-07-17T08:54:58.000Z</time>
      </trkpt>
      <trkpt lat="47.59777" lon="6.76007">
        <ele>521</ele>
        <time>2016-07-17T08:54:59.000Z</time>
      </trkpt>
      <trkpt lat="47.59776" lon="6.76004">
        <ele>522</ele>
        <time>2016-07-17T08:55:00.000Z</time>
      </trkpt>
      <trkpt lat="47.59776" lon="6.76">
        <ele>522</ele>
        <time>2016-07-17T08:55:01.000Z</time>
      </trkpt>
      <trkpt lat="47.59776" lon="6.75997">
        <ele>520</ele>
        <time>2016-07-17T08:55:02.000Z</time>
      </trkpt>
      <trkpt lat="47.59775" lon="6.75993">
        <ele>520</ele>
        <time>2016-07-17T08:55:03.000Z</time>
      </trkpt>
      <trkpt lat="47.59775" lon="6.75988">
        <ele>520</ele>
        <time>2016-07-17T08:55:04.000Z</time>
      </trkpt>
      <trkpt lat="47.59774" lon="6.75983">
        <ele>520</ele>
        <time>2016-07-17T08:55:05.000Z</time>
      </trkpt>
      <trkpt lat="47.59773" lon="6.75978">
        <ele>520</ele>
        <time>2016-07-17T08:55:06.000Z</time>
      </trkpt>
      <trkpt lat="47.59773" lon="6.75973">
        <ele>519</ele>
        <time>2016-07-17T08:55:07.000Z</time>
      </trkpt>
      <trkpt lat="47.59772" lon="6.75968">
        <ele>519</ele>
        <time>2016-07-17T08:55:08.000Z</time>
      </trkpt>
      <trkpt lat="47.59771" lon="6.75964">
        <ele>519</ele>
        <time>2016-07-17T08:55:09.000Z</time>
      </trkpt>
      <trkpt lat="47.5977" lon="6.75959">
        <ele>519</ele>
        <time>2016-07-17T08:55:10.000Z</time>
      </trkpt>
      <trkpt lat="47.59768" lon="6.75954">
        <ele>519</ele>
        <time>2016-07-17T08:55:11.000Z</time>
      </trkpt>
      <trkpt lat="47.59766" lon="6.75949">
        <ele>520</ele>
        <time>2016-07-17T08:55:12.000Z</time>
      </trkpt>
      <trkpt lat="47.59764" lon="6.75944">
        <ele>520</ele>
        <time>2016-07-17T08:55:13.000Z</time>
      </trkpt>
      <trkpt lat="47.59762" lon="6.75939">
        <ele>521</ele>
        <time>2016-07-17T08:55:14.000Z</time>
      </trkpt>
      <trkpt lat="47.59761" lon="6.75935">
        <ele>522</ele>
        <time>2016-07-17T08:55:15.000Z</time>
      </trkpt>
      <trkpt lat="47.5976" lon="6.75931">
        <ele>523</ele>
        <time>2016-07-17T08:55:16.000Z</time>
      </trkpt>
      <trkpt lat="47.59759" lon="6.75927">
        <ele>524</ele>
        <time>2016-07-17T08:55:17.000Z</time>
      </trkpt>
      <trkpt lat="47.59758" lon="6.75924">
        <ele>525</ele>
        <time>2016-07-17T08:55:18.000Z</time>
      </trkpt>
      <trkpt lat="47.59757" lon="6.7592">
        <ele>526</ele>
        <time>2016-07-17T08:55:19.000Z</time>
      </trkpt>
      <trkpt lat="47.59757" lon="6.75916">
        <ele>526</ele>
        <time>2016-07-17T08:55:20.000Z</time>
      </trkpt>
      <trkpt lat="47.59756" lon="6.75912">
        <ele>525</ele>
        <time>2016-07-17T08:55:21.000Z</time>
      </trkpt>
      <trkpt lat="47.59754" lon="6.75907">
        <ele>524</ele>
        <time>2016-07-17T08:55:22.000Z</time>
      </trkpt>
      <trkpt lat="47.59753" lon="6.75903">
        <ele>522</ele>
        <time>2016-07-17T08:55:23.000Z</time>
      </trkpt>
      <trkpt lat="47.59752" lon="6.75899">
        <ele>521</ele>
        <time>2016-07-17T08:55:24.000Z</time>
      </trkpt>
      <trkpt lat="47.59751" lon="6.75895">
        <ele>520</ele>
        <time>2016-07-17T08:55:25.000Z</time>
      </trkpt>
      <trkpt lat="47.59751" lon="6.75892">
        <ele>519</ele>
        <time>2016-07-17T08:55:26.000Z</time>
      </trkpt>
      <trkpt lat="47.59751" lon="6.75888">
        <ele>518</ele>
        <time>2016-07-17T08:55:27.000Z</time>
      </trkpt>
      <trkpt lat="47.59752" lon="6.75885">
        <ele>517</ele>
        <time>2016-07-17T08:55:28.000Z</time>
      </trkpt>
      <trkpt lat="47.59752" lon="6.75882">
        <ele>517</ele>
        <time>2016-07-17T08:55:29.000Z</time>
      </trkpt>
      <trkpt lat="47.59751" lon="6.75878">
        <ele>517</ele>
        <time>2016-07-17T08:55:30.000Z</time>
      </trkpt>
      <trkpt lat="47.5975" lon="6.75875">
        <ele>530</ele>
        <time>2016-07-17T08:55:31.000Z</time>
      </trkpt>
      <trkpt lat="47.59748" lon="6.75872">
        <ele>529</ele>
        <time>2016-07-17T08:55:32.000Z</time>
      </trkpt>
      <trkpt lat="47.59746" lon="6.75868">
        <ele>529</ele>
        <time>2016-07-17T08:55:33.000Z</time>
      </trkpt>
      <trkpt lat="47.59745" lon="6.75864">
        <ele>529</ele>
        <time>2016-07-17T08:55:34.000Z</time>
      </trkpt>
      <trkpt lat="47.59744" lon="6.7586">
        <ele>529</ele>
        <time>2016-07-17T08:55:35.000Z</time>
      </trkpt>
      <trkpt lat="47.59744" lon="6.75856">
        <ele>528</ele>
        <time>2016-07-17T08:55:36.000Z</time>
      </trkpt>
      <trkpt lat="47.59743" lon="6.75851">
        <ele>528</ele>
        <time>2016-07-17T08:55:37.000Z</time>
      </trkpt>
      <trkpt lat="47.59742" lon="6.75847">
        <ele>527</ele>
        <time>2016-07-17T08:55:38.000Z</time>
      </trkpt>
      <trkpt lat="47.59741" lon="6.75842">
        <ele>526</ele>
        <time>2016-07-17T08:55:39.000Z</time>
      </trkpt>
      <trkpt lat="47.5974" lon="6.75837">
        <ele>526</ele>
        <time>2016-07-17T08:55:40.000Z</time>
      </trkpt>
      <trkpt lat="47.59739" lon="6.75833">
        <ele>524</ele>
        <time>2016-07-17T08:55:41.000Z</time>
      </trkpt>
      <trkpt lat="47.59738" lon="6.75828">
        <ele>524</ele>
        <time>2016-07-17T08:55:42.000Z</time>
      </trkpt>
      <trkpt lat="47.59736" lon="6.75823">
        <ele>524</ele>
        <time>2016-07-17T08:55:43.000Z</time>
      </trkpt>
      <trkpt lat="47.59735" lon="6.7582">
        <ele>524</ele>
        <time>2016-07-17T08:55:43.999Z</time>
      </trkpt>
      <trkpt lat="47.59733" lon="6.75814">
        <ele>524</ele>
        <time>2016-07-17T08:55:45.000Z</time>
      </trkpt>
      <trkpt lat="47.59731" lon="6.7581">
        <ele>524</ele>
        <time>2016-07-17T08:55:46.000Z</time>
      </trkpt>
      <trkpt lat="47.5973" lon="6.75806">
        <ele>524</ele>
        <time>2016-07-17T08:55:47.000Z</time>
      </trkpt>
      <trkpt lat="47.59729" lon="6.75803">
        <ele>524</ele>
        <time>2016-07-17T08:55:48.000Z</time>
      </trkpt>
      <trkpt lat="47.59728" lon="6.75799">
        <ele>524</ele>
        <time>2016-07-17T08:55:49.000Z</time>
      </trkpt>
      <trkpt lat="47.59727" lon="6.75794">
        <ele>523</ele>
        <time>2016-07-17T08:55:50.000Z</time>
      </trkpt>
      <trkpt lat="47.59726" lon="6.7579">
        <ele>523</ele>
        <time>2016-07-17T08:55:51.000Z</time>
      </trkpt>
      <trkpt lat="47.59724" lon="6.75785">
        <ele>523</ele>
        <time>2016-07-17T08:55:52.000Z</time>
      </trkpt>
      <trkpt lat="47.59723" lon="6.75781">
        <ele>523</ele>
        <time>2016-07-17T08:55:53.000Z</time>
      </trkpt>
      <trkpt lat="47.59721" lon="6.75777">
        <ele>523</ele>
        <time>2016-07-17T08:55:54.000Z</time>
      </trkpt>
      <trkpt lat="47.59718" lon="6.75773">
        <ele>523</ele>
        <time>2016-07-17T08:55:55.000Z</time>
      </trkpt>
      <trkpt lat="47.59716" lon="6.75769">
        <ele>523</ele>
        <time>2016-07-17T08:55:56.000Z</time>
      </trkpt>
      <trkpt lat="47.59714" lon="6.75765">
        <ele>523</ele>
        <time>2016-07-17T08:55:57.000Z</time>
      </trkpt>
      <trkpt lat="47.59712" lon="6.75762">
        <ele>523</ele>
        <time>2016-07-17T08:55:58.000Z</time>
      </trkpt>
      <trkpt lat="47.59709" lon="6.75759">
        <ele>523</ele>
        <time>2016-07-17T08:55:59.000Z</time>
      </trkpt>
      <trkpt lat="47.59707" lon="6.75755">
        <ele>524</ele>
        <time>2016-07-17T08:56:00.000Z</time>
      </trkpt>
      <trkpt lat="47.59706" lon="6.75752">
        <ele>524</ele>
        <time>2016-07-17T08:56:01.000Z</time>
      </trkpt>
      <trkpt lat="47.59704" lon="6.75748">
        <ele>519</ele>
        <time>2016-07-17T08:56:02.000Z</time>
      </trkpt>
      <trkpt lat="47.59703" lon="6.75744">
        <ele>519</ele>
        <time>2016-07-17T08:56:03.000Z</time>
      </trkpt>
      <trkpt lat="47.59701" lon="6.7574">
        <ele>519</ele>
        <time>2016-07-17T08:56:04.000Z</time>
      </trkpt>
      <trkpt lat="47.597" lon="6.75736">
        <ele>519</ele>
        <time>2016-07-17T08:56:05.000Z</time>
      </trkpt>
      <trkpt lat="47.59698" lon="6.75731">
        <ele>519</ele>
        <time>2016-07-17T08:56:06.000Z</time>
      </trkpt>
      <trkpt lat="47.59695" lon="6.75726">
        <ele>519</ele>
        <time>2016-07-17T08:56:07.000Z</time>
      </trkpt>
      <trkpt lat="47.59693" lon="6.75722">
        <ele>519</ele>
        <time>2016-07-17T08:56:08.000Z</time>
      </trkpt>
      <trkpt lat="47.5969" lon="6.75718">
        <ele>519</ele>
        <time>2016-07-17T08:56:09.000Z</time>
      </trkpt>
      <trkpt lat="47.59688" lon="6.75714">
        <ele>519</ele>
        <time>2016-07-17T08:56:10.000Z</time>
      </trkpt>
      <trkpt lat="47.59686" lon="6.7571">
        <ele>519</ele>
        <time>2016-07-17T08:56:11.000Z</time>
      </trkpt>
      <trkpt lat="47.59684" lon="6.75706">
        <ele>519</ele>
        <time>2016-07-17T08:56:12.000Z</time>
      </trkpt>
      <trkpt lat="47.59683" lon="6.75703">
        <ele>519</ele>
        <time>2016-07-17T08:56:13.000Z</time>
      </trkpt>
      <trkpt lat="47.59681" lon="6.75699">
        <ele>519</ele>
        <time>2016-07-17T08:56:14.000Z</time>
      </trkpt>
      <trkpt lat="47.59679" lon="6.75695">
        <ele>519</ele>
        <time>2016-07-17T08:56:15.000Z</time>
      </trkpt>
      <trkpt lat="47.59677" lon="6.75692">
        <ele>519</ele>
        <time>2016-07-17T08:56:16.000Z</time>
      </trkpt>
      <trkpt lat="47.59675" lon="6.75689">
        <ele>520</ele>
        <time>2016-07-17T08:56:17.000Z</time>
      </trkpt>
      <trkpt lat="47.59674" lon="6.75686">
        <ele>520</ele>
        <time>2016-07-17T08:56:18.000Z</time>
      </trkpt>
      <trkpt lat="47.59672" lon="6.75684">
        <ele>520</ele>
        <time>2016-07-17T08:56:19.000Z</time>
      </trkpt>
      <trkpt lat="47.5967" lon="6.7568">
        <ele>521</ele>
        <time>2016-07-17T08:56:21.000Z</time>
      </trkpt>
      <trkpt lat="47.59669" lon="6.75678">
        <ele>521</ele>
        <time>2016-07-17T08:56:22.000Z</time>
      </trkpt>
      <trkpt lat="47.59667" lon="6.75672">
        <ele>522</ele>
        <time>2016-07-17T08:56:24.000Z</time>
      </trkpt>
      <trkpt lat="47.59666" lon="6.75669">
        <ele>524</ele>
        <time>2016-07-17T08:56:25.000Z</time>
      </trkpt>
      <trkpt lat="47.59664" lon="6.75663">
        <ele>524</ele>
        <time>2016-07-17T08:56:27.000Z</time>
      </trkpt>
      <trkpt lat="47.59662" lon="6.75662">
        <ele>523</ele>
        <time>2016-07-17T08:56:28.000Z</time>
      </trkpt>
      <trkpt lat="47.59659" lon="6.75658">
        <ele>523</ele>
        <time>2016-07-17T08:56:30.000Z</time>
      </trkpt>
      <trkpt lat="47.59658" lon="6.75657">
        <ele>523</ele>
        <time>2016-07-17T08:56:31.000Z</time>
      </trkpt>
      <trkpt lat="47.59656" lon="6.75653">
        <ele>523</ele>
        <time>2016-07-17T08:56:33.000Z</time>
      </trkpt>
      <trkpt lat="47.59655" lon="6.75651">
        <ele>523</ele>
        <time>2016-07-17T08:56:34.000Z</time>
      </trkpt>
      <trkpt lat="47.5965" lon="6.75649">
        <ele>523</ele>
        <time>2016-07-17T08:56:40.000Z</time>
      </trkpt>
      <trkpt lat="47.5965" lon="6.75649">
        <ele>523</ele>
        <time>2016-07-17T08:56:41.000Z</time>
      </trkpt>
      <trkpt lat="47.59646" lon="6.75652">
        <ele>523</ele>
        <time>2016-07-17T08:56:47.000Z</time>
      </trkpt>
      <trkpt lat="47.59646" lon="6.75652">
        <ele>523</ele>
        <time>2016-07-17T08:56:48.000Z</time>
      </trkpt>
      <trkpt lat="47.59641" lon="6.75653">
        <ele>523</ele>
        <time>2016-07-17T08:56:53.000Z</time>
      </trkpt>
      <trkpt lat="47.5964" lon="6.75653">
        <ele>523</ele>
        <time>2016-07-17T08:56:54.000Z</time>
      </trkpt>
      <trkpt lat="47.59636" lon="6.75655">
        <ele>523</ele>
        <time>2016-07-17T08:56:57.000Z</time>
      </trkpt>
      <trkpt lat="47.59635" lon="6.75655">
        <ele>523</ele>
        <time>2016-07-17T08:56:58.000Z</time>
      </trkpt>
      <trkpt lat="47.59632" lon="6.7566">
        <ele>523</ele>
        <time>2016-07-17T08:57:03.000Z</time>
      </trkpt>
      <trkpt lat="47.59632" lon="6.7566">
        <ele>523</ele>
        <time>2016-07-17T08:57:04.000Z</time>
      </trkpt>
      <trkpt lat="47.59635" lon="6.75664">
        <ele>523</ele>
        <time>2016-07-17T08:57:12.000Z</time>
      </trkpt>
      <trkpt lat="47.59636" lon="6.75664">
        <ele>523</ele>
        <time>2016-07-17T08:57:12.998Z</time>
      </trkpt>
      <trkpt lat="47.59635" lon="6.7567">
        <ele>526</ele>
        <time>2016-07-17T08:57:18.000Z</time>
      </trkpt>
      <trkpt lat="47.59635" lon="6.75671">
        <ele>526</ele>
        <time>2016-07-17T08:57:19.000Z</time>
      </trkpt>
      <trkpt lat="47.59637" lon="6.75677">
        <ele>527</ele>
        <time>2016-07-17T08:58:51.000Z</time>
      </trkpt>
      <trkpt lat="47.59637" lon="6.75677">
        <ele>527</ele>
        <time>2016-07-17T08:58:52.000Z</time>
      </trkpt>
      <trkpt lat="47.59641" lon="6.7568">
        <ele>526</ele>
        <time>2016-07-17T08:59:22.000Z</time>
      </trkpt>
      <trkpt lat="47.59641" lon="6.75681">
        <ele>526</ele>
        <time>2016-07-17T08:59:23.000Z</time>
      </trkpt>
      <trkpt lat="47.59644" lon="6.75685">
        <ele>526</ele>
        <time>2016-07-17T08:59:29.000Z</time>
      </trkpt>
      <trkpt lat="47.59644" lon="6.75685">
        <ele>526</ele>
        <time>2016-07-17T08:59:30.000Z</time>
      </trkpt>
      <trkpt lat="47.59646" lon="6.7569">
        <ele>527</ele>
        <time>2016-07-17T08:59:35.000Z</time>
      </trkpt>
      <trkpt lat="47.59646" lon="6.75692">
        <ele>527</ele>
        <time>2016-07-17T08:59:36.000Z</time>
      </trkpt>
      <trkpt lat="47.59646" lon="6.75686">
        <ele>526</ele>
        <time>2016-07-17T09:00:18.000Z</time>
      </trkpt>
      <trkpt lat="47.59645" lon="6.75682">
        <ele>526</ele>
        <time>2016-07-17T09:00:19.000Z</time>
      </trkpt>
      <trkpt lat="47.59644" lon="6.75678">
        <ele>526</ele>
        <time>2016-07-17T09:00:20.000Z</time>
      </trkpt>
      <trkpt lat="47.59643" lon="6.75674">
        <ele>526</ele>
        <time>2016-07-17T09:00:21.000Z</time>
      </trkpt>
      <trkpt lat="47.59642" lon="6.7567">
        <ele>526</ele>
        <time>2016-07-17T09:00:22.000Z</time>
      </trkpt>
      <trkpt lat="47.59641" lon="6.75664">
        <ele>523</ele>
        <time>2016-07-17T09:00:23.000Z</time>
      </trkpt>
      <trkpt lat="47.59641" lon="6.75658">
        <ele>523</ele>
        <time>2016-07-17T09:00:24.000Z</time>
      </trkpt>
      <trkpt lat="47.5964" lon="6.7565">
        <ele>523</ele>
        <time>2016-07-17T09:00:25.000Z</time>
      </trkpt>
      <trkpt lat="47.59639" lon="6.75643">
        <ele>522</ele>
        <time>2016-07-17T09:00:26.000Z</time>
      </trkpt>
      <trkpt lat="47.59637" lon="6.75637">
        <ele>522</ele>
        <time>2016-07-17T09:00:27.000Z</time>
      </trkpt>
      <trkpt lat="47.59635" lon="6.75633">
        <ele>522</ele>
        <time>2016-07-17T09:00:28.000Z</time>
      </trkpt>
      <trkpt lat="47.59633" lon="6.75629">
        <ele>522</ele>
        <time>2016-07-17T09:00:29.000Z</time>
      </trkpt>
      <trkpt lat="47.59632" lon="6.75626">
        <ele>522</ele>
        <time>2016-07-17T09:00:30.000Z</time>
      </trkpt>
      <trkpt lat="47.59629" lon="6.75622">
        <ele>522</ele>
        <time>2016-07-17T09:00:32.000Z</time>
      </trkpt>
      <trkpt lat="47.59628" lon="6.75619">
        <ele>522</ele>
        <time>2016-07-17T09:00:33.000Z</time>
      </trkpt>
      <trkpt lat="47.59627" lon="6.75615">
        <ele>522</ele>
        <time>2016-07-17T09:00:34.000Z</time>
      </trkpt>
      <trkpt lat="47.59626" lon="6.75611">
        <ele>522</ele>
        <time>2016-07-17T09:00:35.000Z</time>
      </trkpt>
      <trkpt lat="47.59622" lon="6.75609">
        <ele>522</ele>
        <time>2016-07-17T09:00:39.000Z</time>
      </trkpt>
      <trkpt lat="47.59621" lon="6.75609">
        <ele>522</ele>
        <time>2016-07-17T09:00:40.000Z</time>
      </trkpt>
      <trkpt lat="47.59617" lon="6.75609">
        <ele>522</ele>
        <time>2016-07-17T09:00:49.000Z</time>
      </trkpt>
      <trkpt lat="47.59616" lon="6.75609">
        <ele>522</ele>
        <time>2016-07-17T09:00:50.000Z</time>
      </trkpt>
      <trkpt lat="47.59615" lon="6.75608">
        <ele>523</ele>
        <time>2016-07-17T09:00:51.000Z</time>
      </trkpt>
      <trkpt lat="47.59611" lon="6.75604">
        <ele>523</ele>
        <time>2016-07-17T09:00:53.000Z</time>
      </trkpt>
      <trkpt lat="47.5961" lon="6.75601">
        <ele>523</ele>
        <time>2016-07-17T09:00:54.000Z</time>
      </trkpt>
      <trkpt lat="47.59608" lon="6.75598">
        <ele>523</ele>
        <time>2016-07-17T09:00:55.000Z</time>
      </trkpt>
      <trkpt lat="47.59606" lon="6.75593">
        <ele>524</ele>
        <time>2016-07-17T09:00:56.000Z</time>
      </trkpt>
      <trkpt lat="47.59604" lon="6.75588">
        <ele>524</ele>
        <time>2016-07-17T09:00:57.000Z</time>
      </trkpt>
      <trkpt lat="47.59602" lon="6.75582">
        <ele>519</ele>
        <time>2016-07-17T09:00:58.000Z</time>
      </trkpt>
      <trkpt lat="47.596" lon="6.75577">
        <ele>519</ele>
        <time>2016-07-17T09:00:59.000Z</time>
      </trkpt>
      <trkpt lat="47.59598" lon="6.75573">
        <ele>519</ele>
        <time>2016-07-17T09:01:00.000Z</time>
      </trkpt>
      <trkpt lat="47.59596" lon="6.7557">
        <ele>519</ele>
        <time>2016-07-17T09:01:01.000Z</time>
      </trkpt>
      <trkpt lat="47.59593" lon="6.75566">
        <ele>519</ele>
        <time>2016-07-17T09:01:02.000Z</time>
      </trkpt>
      <trkpt lat="47.59591" lon="6.75563">
        <ele>518</ele>
        <time>2016-07-17T09:01:03.000Z</time>
      </trkpt>
      <trkpt lat="47.59589" lon="6.75559">
        <ele>518</ele>
        <time>2016-07-17T09:01:04.000Z</time>
      </trkpt>
      <trkpt lat="47.59587" lon="6.75555">
        <ele>517</ele>
        <time>2016-07-17T09:01:05.000Z</time>
      </trkpt>
      <trkpt lat="47.59585" lon="6.7555">
        <ele>516</ele>
        <time>2016-07-17T09:01:06.000Z</time>
      </trkpt>
      <trkpt lat="47.59582" lon="6.75546">
        <ele>524</ele>
        <time>2016-07-17T09:01:07.000Z</time>
      </trkpt>
      <trkpt lat="47.59579" lon="6.75541">
        <ele>523</ele>
        <time>2016-07-17T09:01:08.000Z</time>
      </trkpt>
      <trkpt lat="47.59575" lon="6.75536">
        <ele>523</ele>
        <time>2016-07-17T09:01:09.000Z</time>
      </trkpt>
      <trkpt lat="47.59571" lon="6.75531">
        <ele>523</ele>
        <time>2016-07-17T09:01:10.000Z</time>
      </trkpt>
      <trkpt lat="47.59567" lon="6.75526">
        <ele>522</ele>
        <time>2016-07-17T09:01:11.000Z</time>
      </trkpt>
      <trkpt lat="47.59563" lon="6.7552">
        <ele>522</ele>
        <time>2016-07-17T09:01:12.000Z</time>
      </trkpt>
      <trkpt lat="47.5956" lon="6.75516">
        <ele>522</ele>
        <time>2016-07-17T09:01:13.000Z</time>
      </trkpt>
      <trkpt lat="47.59556" lon="6.75511">
        <ele>522</ele>
        <time>2016-07-17T09:01:14.000Z</time>
      </trkpt>
      <trkpt lat="47.59552" lon="6.75507">
        <ele>522</ele>
        <time>2016-07-17T09:01:15.000Z</time>
      </trkpt>
      <trkpt lat="47.59549" lon="6.75504">
        <ele>523</ele>
        <time>2016-07-17T09:01:16.000Z</time>
      </trkpt>
      <trkpt lat="47.59545" lon="6.75501">
        <ele>523</ele>
        <time>2016-07-17T09:01:17.000Z</time>
      </trkpt>
      <trkpt lat="47.59542" lon="6.75497">
        <ele>516</ele>
        <time>2016-07-17T09:01:18.000Z</time>
      </trkpt>
      <trkpt lat="47.59539" lon="6.75494">
        <ele>516</ele>
        <time>2016-07-17T09:01:19.000Z</time>
      </trkpt>
      <trkpt lat="47.59535" lon="6.75489">
        <ele>516</ele>
        <time>2016-07-17T09:01:20.000Z</time>
      </trkpt>
      <trkpt lat="47.59532" lon="6.75484">
        <ele>516</ele>
        <time>2016-07-17T09:01:21.000Z</time>
      </trkpt>
      <trkpt lat="47.59529" lon="6.7548">
        <ele>516</ele>
        <time>2016-07-17T09:01:22.000Z</time>
      </trkpt>
      <trkpt lat="47.59525" lon="6.75474">
        <ele>516</ele>
        <time>2016-07-17T09:01:23.000Z</time>
      </trkpt>
      <trkpt lat="47.59522" lon="6.75469">
        <ele>516</ele>
        <time>2016-07-17T09:01:24.000Z</time>
      </trkpt>
      <trkpt lat="47.59518" lon="6.75464">
        <ele>515</ele>
        <time>2016-07-17T09:01:25.000Z</time>
      </trkpt>
      <trkpt lat="47.59515" lon="6.75459">
        <ele>515</ele>
        <time>2016-07-17T09:01:26.000Z</time>
      </trkpt>
      <trkpt lat="47.59512" lon="6.75455">
        <ele>515</ele>
        <time>2016-07-17T09:01:27.000Z</time>
      </trkpt>
      <trkpt lat="47.59509" lon="6.75451">
        <ele>514</ele>
        <time>2016-07-17T09:01:28.000Z</time>
      </trkpt>
      <trkpt lat="47.59506" lon="6.75447">
        <ele>514</ele>
        <time>2016-07-17T09:01:29.000Z</time>
      </trkpt>
      <trkpt lat="47.59502" lon="6.75444">
        <ele>514</ele>
        <time>2016-07-17T09:01:30.000Z</time>
      </trkpt>
      <trkpt lat="47.59499" lon="6.75441">
        <ele>518</ele>
        <time>2016-07-17T09:01:31.000Z</time>
      </trkpt>
      <trkpt lat="47.59496" lon="6.75436">
        <ele>517</ele>
        <time>2016-07-17T09:01:32.000Z</time>
      </trkpt>
      <trkpt lat="47.59493" lon="6.75431">
        <ele>517</ele>
        <time>2016-07-17T09:01:33.000Z</time>
      </trkpt>
      <trkpt lat="47.59489" lon="6.75426">
        <ele>516</ele>
        <time>2016-07-17T09:01:34.000Z</time>
      </trkpt>
      <trkpt lat="47.59485" lon="6.75421">
        <ele>516</ele>
        <time>2016-07-17T09:01:35.000Z</time>
      </trkpt>
      <trkpt lat="47.59481" lon="6.75419">
        <ele>517</ele>
        <time>2016-07-17T09:01:36.000Z</time>
      </trkpt>
      <trkpt lat="47.59476" lon="6.75419">
        <ele>517</ele>
        <time>2016-07-17T09:01:37.000Z</time>
      </trkpt>
      <trkpt lat="47.59472" lon="6.7542">
        <ele>517</ele>
        <time>2016-07-17T09:01:38.000Z</time>
      </trkpt>
      <trkpt lat="47.59468" lon="6.75424">
        <ele>518</ele>
        <time>2016-07-17T09:01:41.000Z</time>
      </trkpt>
      <trkpt lat="47.59468" lon="6.75424">
        <ele>518</ele>
        <time>2016-07-17T09:01:42.000Z</time>
      </trkpt>
      <trkpt lat="47.59466" lon="6.7542">
        <ele>518</ele>
        <time>2016-07-17T09:01:45.000Z</time>
      </trkpt>
      <trkpt lat="47.59465" lon="6.75418">
        <ele>518</ele>
        <time>2016-07-17T09:01:46.000Z</time>
      </trkpt>
      <trkpt lat="47.59463" lon="6.75415">
        <ele>510</ele>
        <time>2016-07-17T09:01:47.000Z</time>
      </trkpt>
      <trkpt lat="47.5946" lon="6.75412">
        <ele>510</ele>
        <time>2016-07-17T09:01:48.000Z</time>
      </trkpt>
      <trkpt lat="47.59457" lon="6.75408">
        <ele>510</ele>
        <time>2016-07-17T09:01:49.000Z</time>
      </trkpt>
      <trkpt lat="47.59452" lon="6.75404">
        <ele>510</ele>
        <time>2016-07-17T09:01:50.000Z</time>
      </trkpt>
      <trkpt lat="47.59448" lon="6.754">
        <ele>510</ele>
        <time>2016-07-17T09:01:51.000Z</time>
      </trkpt>
      <trkpt lat="47.59439" lon="6.75395">
        <ele>510</ele>
        <time>2016-07-17T09:01:52.000Z</time>
      </trkpt>
      <trkpt lat="47.59433" lon="6.75394">
        <ele>511</ele>
        <time>2016-07-17T09:01:53.000Z</time>
      </trkpt>
      <trkpt lat="47.59428" lon="6.75392">
        <ele>511</ele>
        <time>2016-07-17T09:01:54.000Z</time>
      </trkpt>
      <trkpt lat="47.59423" lon="6.75386">
        <ele>510</ele>
        <time>2016-07-17T09:01:55.000Z</time>
      </trkpt>
      <trkpt lat="47.59421" lon="6.75379">
        <ele>509</ele>
        <time>2016-07-17T09:01:56.000Z</time>
      </trkpt>
      <trkpt lat="47.5942" lon="6.75369">
        <ele>508</ele>
        <time>2016-07-17T09:01:57.000Z</time>
      </trkpt>
      <trkpt lat="47.59418" lon="6.75361">
        <ele>508</ele>
        <time>2016-07-17T09:01:58.000Z</time>
      </trkpt>
      <trkpt lat="47.59414" lon="6.75355">
        <ele>510</ele>
        <time>2016-07-17T09:01:59.000Z</time>
      </trkpt>
      <trkpt lat="47.59411" lon="6.7535">
        <ele>509</ele>
        <time>2016-07-17T09:02:00.000Z</time>
      </trkpt>
      <trkpt lat="47.59408" lon="6.75346">
        <ele>509</ele>
        <time>2016-07-17T09:02:01.000Z</time>
      </trkpt>
      <trkpt lat="47.59404" lon="6.75342">
        <ele>509</ele>
        <time>2016-07-17T09:02:02.000Z</time>
      </trkpt>
      <trkpt lat="47.594" lon="6.75339">
        <ele>509</ele>
        <time>2016-07-17T09:02:03.000Z</time>
      </trkpt>
      <trkpt lat="47.59397" lon="6.75338">
        <ele>509</ele>
        <time>2016-07-17T09:02:04.000Z</time>
      </trkpt>
      <trkpt lat="47.59395" lon="6.75341">
        <ele>510</ele>
        <time>2016-07-17T09:02:06.000Z</time>
      </trkpt>
      <trkpt lat="47.59392" lon="6.75342">
        <ele>510</ele>
        <time>2016-07-17T09:02:07.000Z</time>
      </trkpt>
      <trkpt lat="47.59388" lon="6.75342">
        <ele>510</ele>
        <time>2016-07-17T09:02:14.000Z</time>
      </trkpt>
      <trkpt lat="47.59388" lon="6.75342">
        <ele>510</ele>
        <time>2016-07-17T09:02:15.000Z</time>
      </trkpt>
      <trkpt lat="47.59385" lon="6.75342">
        <ele>510</ele>
        <time>2016-07-17T09:02:16.000Z</time>
      </trkpt>
      <trkpt lat="47.59382" lon="6.75343">
        <ele>510</ele>
        <time>2016-07-17T09:02:17.000Z</time>
      </trkpt>
      <trkpt lat="47.59377" lon="6.75343">
        <ele>510</ele>
        <time>2016-07-17T09:02:19.000Z</time>
      </trkpt>
      <trkpt lat="47.59374" lon="6.75344">
        <ele>511</ele>
        <time>2016-07-17T09:02:20.000Z</time>
      </trkpt>
      <trkpt lat="47.59372" lon="6.75345">
        <ele>511</ele>
        <time>2016-07-17T09:02:21.000Z</time>
      </trkpt>
      <trkpt lat="47.59369" lon="6.75346">
        <ele>511</ele>
        <time>2016-07-17T09:02:22.000Z</time>
      </trkpt>
      <trkpt lat="47.59365" lon="6.75349">
        <ele>511</ele>
        <time>2016-07-17T09:02:23.000Z</time>
      </trkpt>
      <trkpt lat="47.59361" lon="6.75352">
        <ele>511</ele>
        <time>2016-07-17T09:02:24.000Z</time>
      </trkpt>
      <trkpt lat="47.59358" lon="6.75356">
        <ele>511</ele>
        <time>2016-07-17T09:02:25.000Z</time>
      </trkpt>
      <trkpt lat="47.59356" lon="6.7536">
        <ele>511</ele>
        <time>2016-07-17T09:02:26.000Z</time>
      </trkpt>
      <trkpt lat="47.59355" lon="6.75363">
        <ele>511</ele>
        <time>2016-07-17T09:02:27.000Z</time>
      </trkpt>
      <trkpt lat="47.59356" lon="6.75366">
        <ele>511</ele>
        <time>2016-07-17T09:02:28.000Z</time>
      </trkpt>
      <trkpt lat="47.59357" lon="6.75369">
        <ele>511</ele>
        <time>2016-07-17T09:02:29.000Z</time>
      </trkpt>
      <trkpt lat="47.59358" lon="6.75373">
        <ele>512</ele>
        <time>2016-07-17T09:02:30.000Z</time>
      </trkpt>
      <trkpt lat="47.59358" lon="6.75376">
        <ele>512</ele>
        <time>2016-07-17T09:02:31.000Z</time>
      </trkpt>
      <trkpt lat="47.59358" lon="6.75381">
        <ele>512</ele>
        <time>2016-07-17T09:02:32.000Z</time>
      </trkpt>
      <trkpt lat="47.59358" lon="6.75386">
        <ele>512</ele>
        <time>2016-07-17T09:02:33.000Z</time>
      </trkpt>
      <trkpt lat="47.59357" lon="6.75391">
        <ele>512</ele>
        <time>2016-07-17T09:02:54.000Z</time>
      </trkpt>
      <trkpt lat="47.59356" lon="6.75392">
        <ele>512</ele>
        <time>2016-07-17T09:02:55.000Z</time>
      </trkpt>
      <trkpt lat="47.59353" lon="6.75395">
        <ele>512</ele>
        <time>2016-07-17T09:03:02.000Z</time>
      </trkpt>
      <trkpt lat="47.59352" lon="6.75396">
        <ele>512</ele>
        <time>2016-07-17T09:03:03.000Z</time>
      </trkpt>
      <trkpt lat="47.59348" lon="6.75399">
        <ele>512</ele>
        <time>2016-07-17T09:03:05.000Z</time>
      </trkpt>
      <trkpt lat="47.59344" lon="6.75401">
        <ele>512</ele>
        <time>2016-07-17T09:03:06.000Z</time>
      </trkpt>
      <trkpt lat="47.5934" lon="6.75405">
        <ele>513</ele>
        <time>2016-07-17T09:03:07.000Z</time>
      </trkpt>
      <trkpt lat="47.59336" lon="6.75408">
        <ele>513</ele>
        <time>2016-07-17T09:03:08.000Z</time>
      </trkpt>
      <trkpt lat="47.59334" lon="6.75412">
        <ele>513</ele>
        <time>2016-07-17T09:03:09.000Z</time>
      </trkpt>
      <trkpt lat="47.59332" lon="6.75414">
        <ele>512</ele>
        <time>2016-07-17T09:03:10.000Z</time>
      </trkpt>
      <trkpt lat="47.59329" lon="6.75409">
        <ele>511</ele>
        <time>2016-07-17T09:03:16.000Z</time>
      </trkpt>
      <trkpt lat="47.59328" lon="6.75398">
        <ele>510</ele>
        <time>2016-07-17T09:03:17.000Z</time>
      </trkpt>
      <trkpt lat="47.59327" lon="6.75391">
        <ele>510</ele>
        <time>2016-07-17T09:03:18.000Z</time>
      </trkpt>
      <trkpt lat="47.59325" lon="6.75387">
        <ele>509</ele>
        <time>2016-07-17T09:03:19.000Z</time>
      </trkpt>
      <trkpt lat="47.59325" lon="6.75383">
        <ele>509</ele>
        <time>2016-07-17T09:03:20.000Z</time>
      </trkpt>
      <trkpt lat="47.59322" lon="6.7538">
        <ele>509</ele>
        <time>2016-07-17T09:03:21.000Z</time>
      </trkpt>
      <trkpt lat="47.59319" lon="6.75376">
        <ele>509</ele>
        <time>2016-07-17T09:03:22.000Z</time>
      </trkpt>
      <trkpt lat="47.59317" lon="6.75372">
        <ele>509</ele>
        <time>2016-07-17T09:03:23.000Z</time>
      </trkpt>
      <trkpt lat="47.59313" lon="6.75369">
        <ele>508</ele>
        <time>2016-07-17T09:03:24.000Z</time>
      </trkpt>
      <trkpt lat="47.59307" lon="6.75369">
        <ele>508</ele>
        <time>2016-07-17T09:03:25.000Z</time>
      </trkpt>
      <trkpt lat="47.59299" lon="6.75368">
        <ele>508</ele>
        <time>2016-07-17T09:03:26.000Z</time>
      </trkpt>
      <trkpt lat="47.59294" lon="6.75369">
        <ele>508</ele>
        <time>2016-07-17T09:03:27.000Z</time>
      </trkpt>
      <trkpt lat="47.59288" lon="6.75367">
        <ele>507</ele>
        <time>2016-07-17T09:03:28.000Z</time>
      </trkpt>
      <trkpt lat="47.59293" lon="6.75359">
        <ele>507</ele>
        <time>2016-07-17T09:03:29.000Z</time>
      </trkpt>
      <trkpt lat="47.59292" lon="6.75354">
        <ele>507</ele>
        <time>2016-07-17T09:03:30.000Z</time>
      </trkpt>
      <trkpt lat="47.5929" lon="6.7535">
        <ele>507</ele>
        <time>2016-07-17T09:03:31.000Z</time>
      </trkpt>
      <trkpt lat="47.59288" lon="6.75344">
        <ele>507</ele>
        <time>2016-07-17T09:03:32.000Z</time>
      </trkpt>
      <trkpt lat="47.59285" lon="6.75339">
        <ele>507</ele>
        <time>2016-07-17T09:03:33.000Z</time>
      </trkpt>
      <trkpt lat="47.59281" lon="6.75335">
        <ele>506</ele>
        <time>2016-07-17T09:03:34.000Z</time>
      </trkpt>
      <trkpt lat="47.59277" lon="6.75333">
        <ele>502</ele>
        <time>2016-07-17T09:03:35.000Z</time>
      </trkpt>
      <trkpt lat="47.59271" lon="6.7533">
        <ele>502</ele>
        <time>2016-07-17T09:03:36.000Z</time>
      </trkpt>
      <trkpt lat="47.59266" lon="6.75326">
        <ele>502</ele>
        <time>2016-07-17T09:03:37.000Z</time>
      </trkpt>
      <trkpt lat="47.59261" lon="6.75323">
        <ele>502</ele>
        <time>2016-07-17T09:03:38.000Z</time>
      </trkpt>
      <trkpt lat="47.59257" lon="6.7532">
        <ele>502</ele>
        <time>2016-07-17T09:03:39.000Z</time>
      </trkpt>
      <trkpt lat="47.59253" lon="6.75317">
        <ele>502</ele>
        <time>2016-07-17T09:03:40.000Z</time>
      </trkpt>
      <trkpt lat="47.59249" lon="6.75313">
        <ele>498</ele>
        <time>2016-07-17T09:03:41.000Z</time>
      </trkpt>
      <trkpt lat="47.59243" lon="6.75305">
        <ele>497</ele>
        <time>2016-07-17T09:03:42.000Z</time>
      </trkpt>
      <trkpt lat="47.59239" lon="6.753">
        <ele>496</ele>
        <time>2016-07-17T09:03:43.000Z</time>
      </trkpt>
      <trkpt lat="47.59237" lon="6.75297">
        <ele>496</ele>
        <time>2016-07-17T09:03:44.000Z</time>
      </trkpt>
      <trkpt lat="47.5923" lon="6.75295">
        <ele>495</ele>
        <time>2016-07-17T09:03:45.000Z</time>
      </trkpt>
      <trkpt lat="47.59227" lon="6.75295">
        <ele>495</ele>
        <time>2016-07-17T09:03:46.000Z</time>
      </trkpt>
      <trkpt lat="47.59224" lon="6.75295">
        <ele>495</ele>
        <time>2016-07-17T09:03:47.000Z</time>
      </trkpt>
      <trkpt lat="47.59221" lon="6.75292">
        <ele>495</ele>
        <time>2016-07-17T09:03:48.000Z</time>
      </trkpt>
      <trkpt lat="47.59218" lon="6.75288">
        <ele>494</ele>
        <time>2016-07-17T09:03:49.000Z</time>
      </trkpt>
      <trkpt lat="47.59216" lon="6.75286">
        <ele>494</ele>
        <time>2016-07-17T09:03:50.000Z</time>
      </trkpt>
      <trkpt lat="47.59213" lon="6.75284">
        <ele>494</ele>
        <time>2016-07-17T09:03:51.000Z</time>
      </trkpt>
      <trkpt lat="47.5921" lon="6.75281">
        <ele>494</ele>
        <time>2016-07-17T09:03:52.000Z</time>
      </trkpt>
      <trkpt lat="47.59208" lon="6.75279">
        <ele>494</ele>
        <time>2016-07-17T09:03:53.000Z</time>
      </trkpt>
      <trkpt lat="47.59205" lon="6.75276">
        <ele>493</ele>
        <time>2016-07-17T09:03:54.000Z</time>
      </trkpt>
      <trkpt lat="47.59202" lon="6.75272">
        <ele>493</ele>
        <time>2016-07-17T09:03:55.000Z</time>
      </trkpt>
      <trkpt lat="47.59198" lon="6.7527">
        <ele>493</ele>
        <time>2016-07-17T09:03:56.000Z</time>
      </trkpt>
      <trkpt lat="47.59193" lon="6.75268">
        <ele>492</ele>
        <time>2016-07-17T09:03:57.000Z</time>
      </trkpt>
      <trkpt lat="47.59187" lon="6.75268">
        <ele>492</ele>
        <time>2016-07-17T09:03:58.000Z</time>
      </trkpt>
      <trkpt lat="47.59182" lon="6.75269">
        <ele>491</ele>
        <time>2016-07-17T09:03:59.000Z</time>
      </trkpt>
      <trkpt lat="47.59176" lon="6.7527">
        <ele>491</ele>
        <time>2016-07-17T09:04:00.000Z</time>
      </trkpt>
      <trkpt lat="47.59163" lon="6.75276">
        <ele>485</ele>
        <time>2016-07-17T09:04:01.000Z</time>
      </trkpt>
      <trkpt lat="47.59157" lon="6.75277">
        <ele>484</ele>
        <time>2016-07-17T09:04:02.000Z</time>
      </trkpt>
      <trkpt lat="47.59153" lon="6.75281">
        <ele>484</ele>
        <time>2016-07-17T09:04:12.000Z</time>
      </trkpt>
      <trkpt lat="47.59153" lon="6.75281">
        <ele>484</ele>
        <time>2016-07-17T09:04:13.000Z</time>
      </trkpt>
      <trkpt lat="47.59149" lon="6.75281">
        <ele>484</ele>
        <time>2016-07-17T09:04:28.000Z</time>
      </trkpt>
      <trkpt lat="47.59147" lon="6.7528">
        <ele>484</ele>
        <time>2016-07-17T09:04:29.000Z</time>
      </trkpt>
      <trkpt lat="47.59145" lon="6.75275">
        <ele>484</ele>
        <time>2016-07-17T09:04:30.000Z</time>
      </trkpt>
      <trkpt lat="47.59142" lon="6.7527">
        <ele>484</ele>
        <time>2016-07-17T09:04:31.000Z</time>
      </trkpt>
      <trkpt lat="47.5914" lon="6.75267">
        <ele>484</ele>
        <time>2016-07-17T09:04:32.000Z</time>
      </trkpt>
      <trkpt lat="47.59138" lon="6.75263">
        <ele>483</ele>
        <time>2016-07-17T09:04:33.000Z</time>
      </trkpt>
      <trkpt lat="47.59136" lon="6.75259">
        <ele>483</ele>
        <time>2016-07-17T09:04:34.000Z</time>
      </trkpt>
      <trkpt lat="47.59134" lon="6.75255">
        <ele>483</ele>
        <time>2016-07-17T09:04:35.000Z</time>
      </trkpt>
      <trkpt lat="47.59132" lon="6.75251">
        <ele>483</ele>
        <time>2016-07-17T09:04:36.000Z</time>
      </trkpt>
      <trkpt lat="47.59129" lon="6.75247">
        <ele>479</ele>
        <time>2016-07-17T09:04:37.000Z</time>
      </trkpt>
      <trkpt lat="47.59127" lon="6.75243">
        <ele>479</ele>
        <time>2016-07-17T09:04:38.000Z</time>
      </trkpt>
      <trkpt lat="47.59124" lon="6.75239">
        <ele>479</ele>
        <time>2016-07-17T09:04:39.000Z</time>
      </trkpt>
      <trkpt lat="47.59121" lon="6.75235">
        <ele>478</ele>
        <time>2016-07-17T09:04:40.000Z</time>
      </trkpt>
      <trkpt lat="47.59111" lon="6.75227">
        <ele>478</ele>
        <time>2016-07-17T09:04:41.000Z</time>
      </trkpt>
      <trkpt lat="47.59107" lon="6.75222">
        <ele>477</ele>
        <time>2016-07-17T09:04:42.000Z</time>
      </trkpt>
      <trkpt lat="47.59101" lon="6.75215">
        <ele>477</ele>
        <time>2016-07-17T09:04:43.000Z</time>
      </trkpt>
      <trkpt lat="47.59096" lon="6.7521">
        <ele>476</ele>
        <time>2016-07-17T09:04:44.000Z</time>
      </trkpt>
      <trkpt lat="47.59093" lon="6.75205">
        <ele>476</ele>
        <time>2016-07-17T09:04:45.000Z</time>
      </trkpt>
      <trkpt lat="47.59094" lon="6.75202">
        <ele>476</ele>
        <time>2016-07-17T09:04:46.000Z</time>
      </trkpt>
      <trkpt lat="47.59093" lon="6.75196">
        <ele>476</ele>
        <time>2016-07-17T09:04:47.000Z</time>
      </trkpt>
      <trkpt lat="47.5909" lon="6.75193">
        <ele>475</ele>
        <time>2016-07-17T09:04:48.000Z</time>
      </trkpt>
      <trkpt lat="47.59088" lon="6.75189">
        <ele>475</ele>
        <time>2016-07-17T09:04:49.000Z</time>
      </trkpt>
      <trkpt lat="47.59083" lon="6.75185">
        <ele>475</ele>
        <time>2016-07-17T09:04:50.000Z</time>
      </trkpt>
      <trkpt lat="47.59078" lon="6.7518">
        <ele>470</ele>
        <time>2016-07-17T09:04:51.000Z</time>
      </trkpt>
      <trkpt lat="47.59074" lon="6.75177">
        <ele>470</ele>
        <time>2016-07-17T09:04:52.000Z</time>
      </trkpt>
      <trkpt lat="47.5907" lon="6.75174">
        <ele>470</ele>
        <time>2016-07-17T09:04:53.000Z</time>
      </trkpt>
      <trkpt lat="47.59067" lon="6.75166">
        <ele>467</ele>
        <time>2016-07-17T09:04:54.000Z</time>
      </trkpt>
      <trkpt lat="47.59066" lon="6.75158">
        <ele>466</ele>
        <time>2016-07-17T09:04:55.000Z</time>
      </trkpt>
      <trkpt lat="47.59067" lon="6.75149">
        <ele>465</ele>
        <time>2016-07-17T09:04:56.000Z</time>
      </trkpt>
      <trkpt lat="47.59068" lon="6.75142">
        <ele>465</ele>
        <time>2016-07-17T09:04:57.000Z</time>
      </trkpt>
      <trkpt lat="47.59065" lon="6.75133">
        <ele>463</ele>
        <time>2016-07-17T09:04:58.000Z</time>
      </trkpt>
      <trkpt lat="47.59063" lon="6.75124">
        <ele>462</ele>
        <time>2016-07-17T09:04:59.000Z</time>
      </trkpt>
      <trkpt lat="47.59062" lon="6.75117">
        <ele>462</ele>
        <time>2016-07-17T09:05:00.000Z</time>
      </trkpt>
      <trkpt lat="47.59061" lon="6.7511">
        <ele>461</ele>
        <time>2016-07-17T09:05:01.000Z</time>
      </trkpt>
      <trkpt lat="47.59059" lon="6.75104">
        <ele>461</ele>
        <time>2016-07-17T09:05:02.000Z</time>
      </trkpt>
      <trkpt lat="47.59056" lon="6.75104">
        <ele>461</ele>
        <time>2016-07-17T09:05:03.000Z</time>
      </trkpt>
      <trkpt lat="47.59052" lon="6.75103">
        <ele>461</ele>
        <time>2016-07-17T09:05:04.000Z</time>
      </trkpt>
      <trkpt lat="47.59044" lon="6.75109">
        <ele>461</ele>
        <time>2016-07-17T09:05:05.000Z</time>
      </trkpt>
      <trkpt lat="47.59039" lon="6.75111">
        <ele>461</ele>
        <time>2016-07-17T09:05:06.000Z</time>
      </trkpt>
      <trkpt lat="47.59034" lon="6.75114">
        <ele>461</ele>
        <time>2016-07-17T09:05:07.000Z</time>
      </trkpt>
      <trkpt lat="47.59032" lon="6.75114">
        <ele>461</ele>
        <time>2016-07-17T09:05:08.000Z</time>
      </trkpt>
      <trkpt lat="47.59029" lon="6.75111">
        <ele>461</ele>
        <time>2016-07-17T09:05:10.000Z</time>
      </trkpt>
      <trkpt lat="47.59027" lon="6.7511">
        <ele>460</ele>
        <time>2016-07-17T09:05:11.000Z</time>
      </trkpt>
      <trkpt lat="47.59024" lon="6.75107">
        <ele>460</ele>
        <time>2016-07-17T09:05:12.000Z</time>
      </trkpt>
      <trkpt lat="47.5902" lon="6.75104">
        <ele>460</ele>
        <time>2016-07-17T09:05:13.000Z</time>
      </trkpt>
      <trkpt lat="47.59009" lon="6.75107">
        <ele>459</ele>
        <time>2016-07-17T09:05:14.000Z</time>
      </trkpt>
      <trkpt lat="47.59004" lon="6.75109">
        <ele>459</ele>
        <time>2016-07-17T09:05:15.000Z</time>
      </trkpt>
      <trkpt lat="47.58999" lon="6.75107">
        <ele>454</ele>
        <time>2016-07-17T09:05:16.000Z</time>
      </trkpt>
      <trkpt lat="47.58995" lon="6.75105">
        <ele>454</ele>
        <time>2016-07-17T09:05:17.000Z</time>
      </trkpt>
      <trkpt lat="47.58991" lon="6.751">
        <ele>454</ele>
        <time>2016-07-17T09:05:18.000Z</time>
      </trkpt>
      <trkpt lat="47.58991" lon="6.75095">
        <ele>454</ele>
        <time>2016-07-17T09:05:19.000Z</time>
      </trkpt>
      <trkpt lat="47.58994" lon="6.75086">
        <ele>455</ele>
        <time>2016-07-17T09:05:20.000Z</time>
      </trkpt>
      <trkpt lat="47.58991" lon="6.7508">
        <ele>452</ele>
        <time>2016-07-17T09:05:21.000Z</time>
      </trkpt>
      <trkpt lat="47.58989" lon="6.75075">
        <ele>451</ele>
        <time>2016-07-17T09:05:22.000Z</time>
      </trkpt>
      <trkpt lat="47.58987" lon="6.75073">
        <ele>451</ele>
        <time>2016-07-17T09:05:23.000Z</time>
      </trkpt>
      <trkpt lat="47.58986" lon="6.75068">
        <ele>450</ele>
        <time>2016-07-17T09:05:24.000Z</time>
      </trkpt>
      <trkpt lat="47.58983" lon="6.75063">
        <ele>449</ele>
        <time>2016-07-17T09:05:25.000Z</time>
      </trkpt>
      <trkpt lat="47.58981" lon="6.75058">
        <ele>448</ele>
        <time>2016-07-17T09:05:26.000Z</time>
      </trkpt>
      <trkpt lat="47.58977" lon="6.75054">
        <ele>447</ele>
        <time>2016-07-17T09:05:27.000Z</time>
      </trkpt>
      <trkpt lat="47.58963" lon="6.75051">
        <ele>446</ele>
        <time>2016-07-17T09:05:28.000Z</time>
      </trkpt>
      <trkpt lat="47.58956" lon="6.75052">
        <ele>446</ele>
        <time>2016-07-17T09:05:29.000Z</time>
      </trkpt>
      <trkpt lat="47.58952" lon="6.75052">
        <ele>446</ele>
        <time>2016-07-17T09:05:30.000Z</time>
      </trkpt>
      <trkpt lat="47.58947" lon="6.75052">
        <ele>446</ele>
        <time>2016-07-17T09:05:31.000Z</time>
      </trkpt>
      <trkpt lat="47.5894" lon="6.75051">
        <ele>445</ele>
        <time>2016-07-17T09:05:32.000Z</time>
      </trkpt>
      <trkpt lat="47.58935" lon="6.75051">
        <ele>445</ele>
        <time>2016-07-17T09:05:33.000Z</time>
      </trkpt>
      <trkpt lat="47.5893" lon="6.75047">
        <ele>445</ele>
        <time>2016-07-17T09:05:34.000Z</time>
      </trkpt>
      <trkpt lat="47.58928" lon="6.75043">
        <ele>445</ele>
        <time>2016-07-17T09:05:35.000Z</time>
      </trkpt>
      <trkpt lat="47.5893" lon="6.7504">
        <ele>445</ele>
        <time>2016-07-17T09:05:36.000Z</time>
      </trkpt>
      <trkpt lat="47.58929" lon="6.75034">
        <ele>444</ele>
        <time>2016-07-17T09:05:37.000Z</time>
      </trkpt>
      <trkpt lat="47.58927" lon="6.75031">
        <ele>444</ele>
        <time>2016-07-17T09:05:38.000Z</time>
      </trkpt>
      <trkpt lat="47.58924" lon="6.75027">
        <ele>444</ele>
        <time>2016-07-17T09:05:40.000Z</time>
      </trkpt>
      <trkpt lat="47.58921" lon="6.75029">
        <ele>444</ele>
        <time>2016-07-17T09:05:41.000Z</time>
      </trkpt>
      <trkpt lat="47.58917" lon="6.75028">
        <ele>444</ele>
        <time>2016-07-17T09:05:45.000Z</time>
      </trkpt>
      <trkpt lat="47.58917" lon="6.75027">
        <ele>440</ele>
        <time>2016-07-17T09:05:46.000Z</time>
      </trkpt>
      <trkpt lat="47.58914" lon="6.75025">
        <ele>440</ele>
        <time>2016-07-17T09:05:57.998Z</time>
      </trkpt>
      <trkpt lat="47.58912" lon="6.75023">
        <ele>440</ele>
        <time>2016-07-17T09:05:59.000Z</time>
      </trkpt>
      <trkpt lat="47.58909" lon="6.75019">
        <ele>440</ele>
        <time>2016-07-17T09:06:01.000Z</time>
      </trkpt>
      <trkpt lat="47.58906" lon="6.75016">
        <ele>440</ele>
        <time>2016-07-17T09:06:02.000Z</time>
      </trkpt>
      <trkpt lat="47.58897" lon="6.75011">
        <ele>439</ele>
        <time>2016-07-17T09:06:03.000Z</time>
      </trkpt>
      <trkpt lat="47.5889" lon="6.75007">
        <ele>439</ele>
        <time>2016-07-17T09:06:04.000Z</time>
      </trkpt>
      <trkpt lat="47.58883" lon="6.75004">
        <ele>439</ele>
        <time>2016-07-17T09:06:05.000Z</time>
      </trkpt>
      <trkpt lat="47.58876" lon="6.75003">
        <ele>438</ele>
        <time>2016-07-17T09:06:06.000Z</time>
      </trkpt>
      <trkpt lat="47.5887" lon="6.75007">
        <ele>438</ele>
        <time>2016-07-17T09:06:07.000Z</time>
      </trkpt>
      <trkpt lat="47.58865" lon="6.75008">
        <ele>437</ele>
        <time>2016-07-17T09:06:08.000Z</time>
      </trkpt>
      <trkpt lat="47.58861" lon="6.75007">
        <ele>437</ele>
        <time>2016-07-17T09:06:09.000Z</time>
      </trkpt>
      <trkpt lat="47.58858" lon="6.75003">
        <ele>437</ele>
        <time>2016-07-17T09:06:10.000Z</time>
      </trkpt>
      <trkpt lat="47.58853" lon="6.75001">
        <ele>436</ele>
        <time>2016-07-17T09:06:11.000Z</time>
      </trkpt>
      <trkpt lat="47.58849" lon="6.74998">
        <ele>434</ele>
        <time>2016-07-17T09:06:12.000Z</time>
      </trkpt>
      <trkpt lat="47.58843" lon="6.74995">
        <ele>434</ele>
        <time>2016-07-17T09:06:13.000Z</time>
      </trkpt>
      <trkpt lat="47.58837" lon="6.7499">
        <ele>433</ele>
        <time>2016-07-17T09:06:14.000Z</time>
      </trkpt>
      <trkpt lat="47.58833" lon="6.74984">
        <ele>429</ele>
        <time>2016-07-17T09:06:15.000Z</time>
      </trkpt>
      <trkpt lat="47.58828" lon="6.7498">
        <ele>428</ele>
        <time>2016-07-17T09:06:16.000Z</time>
      </trkpt>
      <trkpt lat="47.58825" lon="6.7498">
        <ele>428</ele>
        <time>2016-07-17T09:06:17.000Z</time>
      </trkpt>
      <trkpt lat="47.58822" lon="6.74976">
        <ele>427</ele>
        <time>2016-07-17T09:06:18.000Z</time>
      </trkpt>
      <trkpt lat="47.58817" lon="6.74969">
        <ele>426</ele>
        <time>2016-07-17T09:06:19.000Z</time>
      </trkpt>
      <trkpt lat="47.58813" lon="6.74965">
        <ele>425</ele>
        <time>2016-07-17T09:06:20.000Z</time>
      </trkpt>
      <trkpt lat="47.58805" lon="6.74961">
        <ele>424</ele>
        <time>2016-07-17T09:06:21.000Z</time>
      </trkpt>
      <trkpt lat="47.588" lon="6.74962">
        <ele>424</ele>
        <time>2016-07-17T09:06:22.000Z</time>
      </trkpt>
      <trkpt lat="47.58796" lon="6.74961">
        <ele>424</ele>
        <time>2016-07-17T09:06:23.000Z</time>
      </trkpt>
      <trkpt lat="47.58788" lon="6.7496">
        <ele>423</ele>
        <time>2016-07-17T09:06:24.000Z</time>
      </trkpt>
      <trkpt lat="47.58783" lon="6.74953">
        <ele>422</ele>
        <time>2016-07-17T09:06:25.000Z</time>
      </trkpt>
      <trkpt lat="47.58776" lon="6.74946">
        <ele>421</ele>
        <time>2016-07-17T09:06:26.000Z</time>
      </trkpt>
      <trkpt lat="47.58771" lon="6.7494">
        <ele>421</ele>
        <time>2016-07-17T09:06:27.000Z</time>
      </trkpt>
      <trkpt lat="47.58765" lon="6.74934">
        <ele>419</ele>
        <time>2016-07-17T09:06:28.000Z</time>
      </trkpt>
      <trkpt lat="47.58759" lon="6.74928">
        <ele>418</ele>
        <time>2016-07-17T09:06:29.000Z</time>
      </trkpt>
      <trkpt lat="47.58758" lon="6.74922">
        <ele>417</ele>
        <time>2016-07-17T09:06:31.000Z</time>
      </trkpt>
      <trkpt lat="47.58762" lon="6.7492">
        <ele>418</ele>
        <time>2016-07-17T09:06:32.000Z</time>
      </trkpt>
      <trkpt lat="47.58763" lon="6.74916">
        <ele>414</ele>
        <time>2016-07-17T09:06:37.000Z</time>
      </trkpt>
      <trkpt lat="47.58763" lon="6.74913">
        <ele>414</ele>
        <time>2016-07-17T09:06:38.000Z</time>
      </trkpt>
      <trkpt lat="47.5876" lon="6.74908">
        <ele>414</ele>
        <time>2016-07-17T09:06:40.000Z</time>
      </trkpt>
      <trkpt lat="47.58759" lon="6.74905">
        <ele>414</ele>
        <time>2016-07-17T09:06:41.000Z</time>
      </trkpt>
      <trkpt lat="47.58759" lon="6.74902">
        <ele>414</ele>
        <time>2016-07-17T09:06:42.000Z</time>
      </trkpt>
      <trkpt lat="47.58758" lon="6.74897">
        <ele>414</ele>
        <time>2016-07-17T09:06:43.000Z</time>
      </trkpt>
      <trkpt lat="47.58757" lon="6.74891">
        <ele>414</ele>
        <time>2016-07-17T09:06:44.000Z</time>
      </trkpt>
      <trkpt lat="47.58755" lon="6.74879">
        <ele>413</ele>
        <time>2016-07-17T09:06:45.000Z</time>
      </trkpt>
      <trkpt lat="47.58755" lon="6.74874">
        <ele>413</ele>
        <time>2016-07-17T09:06:46.000Z</time>
      </trkpt>
      <trkpt lat="47.58757" lon="6.74868">
        <ele>412</ele>
        <time>2016-07-17T09:06:47.000Z</time>
      </trkpt>
      <trkpt lat="47.58756" lon="6.74862">
        <ele>412</ele>
        <time>2016-07-17T09:06:49.000Z</time>
      </trkpt>
      <trkpt lat="47.58754" lon="6.74859">
        <ele>411</ele>
        <time>2016-07-17T09:06:50.000Z</time>
      </trkpt>
      <trkpt lat="47.58754" lon="6.74855">
        <ele>411</ele>
        <time>2016-07-17T09:06:51.000Z</time>
      </trkpt>
      <trkpt lat="47.58753" lon="6.7485">
        <ele>410</ele>
        <time>2016-07-17T09:06:52.000Z</time>
      </trkpt>
      <trkpt lat="47.58753" lon="6.74845">
        <ele>409</ele>
        <time>2016-07-17T09:06:53.000Z</time>
      </trkpt>
      <trkpt lat="47.58751" lon="6.74839">
        <ele>408</ele>
        <time>2016-07-17T09:06:54.000Z</time>
      </trkpt>
      <trkpt lat="47.58749" lon="6.74834">
        <ele>406</ele>
        <time>2016-07-17T09:06:55.000Z</time>
      </trkpt>
      <trkpt lat="47.58747" lon="6.7483">
        <ele>403</ele>
        <time>2016-07-17T09:06:56.000Z</time>
      </trkpt>
      <trkpt lat="47.58744" lon="6.74825">
        <ele>401</ele>
        <time>2016-07-17T09:06:57.000Z</time>
      </trkpt>
      <trkpt lat="47.5874" lon="6.74821">
        <ele>399</ele>
        <time>2016-07-17T09:06:58.000Z</time>
      </trkpt>
      <trkpt lat="47.58736" lon="6.74818">
        <ele>398</ele>
        <time>2016-07-17T09:06:59.000Z</time>
      </trkpt>
      <trkpt lat="47.58731" lon="6.74814">
        <ele>397</ele>
        <time>2016-07-17T09:07:00.000Z</time>
      </trkpt>
      <trkpt lat="47.58726" lon="6.74813">
        <ele>396</ele>
        <time>2016-07-17T09:07:01.000Z</time>
      </trkpt>
      <trkpt lat="47.58722" lon="6.74812">
        <ele>396</ele>
        <time>2016-07-17T09:07:02.000Z</time>
      </trkpt>
      <trkpt lat="47.58718" lon="6.74811">
        <ele>395</ele>
        <time>2016-07-17T09:07:03.000Z</time>
      </trkpt>
      <trkpt lat="47.58713" lon="6.74812">
        <ele>395</ele>
        <time>2016-07-17T09:07:04.000Z</time>
      </trkpt>
      <trkpt lat="47.58709" lon="6.74814">
        <ele>395</ele>
        <time>2016-07-17T09:07:05.000Z</time>
      </trkpt>
      <trkpt lat="47.58705" lon="6.74818">
        <ele>395</ele>
        <time>2016-07-17T09:07:06.000Z</time>
      </trkpt>
      <trkpt lat="47.58701" lon="6.74822">
        <ele>394</ele>
        <time>2016-07-17T09:07:07.000Z</time>
      </trkpt>
      <trkpt lat="47.58696" lon="6.74824">
        <ele>394</ele>
        <time>2016-07-17T09:07:08.000Z</time>
      </trkpt>
      <trkpt lat="47.58683" lon="6.74815">
        <ele>394</ele>
        <time>2016-07-17T09:07:09.000Z</time>
      </trkpt>
      <trkpt lat="47.58679" lon="6.74811">
        <ele>393</ele>
        <time>2016-07-17T09:07:10.000Z</time>
      </trkpt>
      <trkpt lat="47.58672" lon="6.7481">
        <ele>393</ele>
        <time>2016-07-17T09:07:11.000Z</time>
      </trkpt>
      <trkpt lat="47.58668" lon="6.74811">
        <ele>393</ele>
        <time>2016-07-17T09:07:12.000Z</time>
      </trkpt>
      <trkpt lat="47.58665" lon="6.74807">
        <ele>386</ele>
        <time>2016-07-17T09:07:13.000Z</time>
      </trkpt>
      <trkpt lat="47.58664" lon="6.74804">
        <ele>385</ele>
        <time>2016-07-17T09:07:14.000Z</time>
      </trkpt>
      <trkpt lat="47.58663" lon="6.74801">
        <ele>384</ele>
        <time>2016-07-17T09:07:15.000Z</time>
      </trkpt>
      <trkpt lat="47.58659" lon="6.74799">
        <ele>384</ele>
        <time>2016-07-17T09:07:16.000Z</time>
      </trkpt>
      <trkpt lat="47.58651" lon="6.74802">
        <ele>384</ele>
        <time>2016-07-17T09:07:17.000Z</time>
      </trkpt>
      <trkpt lat="47.58645" lon="6.74804">
        <ele>383</ele>
        <time>2016-07-17T09:07:18.000Z</time>
      </trkpt>
      <trkpt lat="47.5864" lon="6.74812">
        <ele>383</ele>
        <time>2016-07-17T09:07:19.000Z</time>
      </trkpt>
      <trkpt lat="47.58636" lon="6.74818">
        <ele>383</ele>
        <time>2016-07-17T09:07:20.000Z</time>
      </trkpt>
      <trkpt lat="47.58633" lon="6.74828">
        <ele>383</ele>
        <time>2016-07-17T09:07:21.000Z</time>
      </trkpt>
      <trkpt lat="47.58631" lon="6.74833">
        <ele>383</ele>
        <time>2016-07-17T09:07:22.000Z</time>
      </trkpt>
      <trkpt lat="47.58627" lon="6.74837">
        <ele>384</ele>
        <time>2016-07-17T09:07:23.000Z</time>
      </trkpt>
      <trkpt lat="47.58624" lon="6.74839">
        <ele>383</ele>
        <time>2016-07-17T09:07:24.000Z</time>
      </trkpt>
      <trkpt lat="47.5862" lon="6.74832">
        <ele>381</ele>
        <time>2016-07-17T09:07:25.000Z</time>
      </trkpt>
      <trkpt lat="47.58616" lon="6.74829">
        <ele>380</ele>
        <time>2016-07-17T09:07:26.000Z</time>
      </trkpt>
      <trkpt lat="47.58614" lon="6.74827">
        <ele>379</ele>
        <time>2016-07-17T09:07:27.000Z</time>
      </trkpt>
      <trkpt lat="47.58612" lon="6.74825">
        <ele>379</ele>
        <time>2016-07-17T09:07:28.000Z</time>
      </trkpt>
      <trkpt lat="47.58608" lon="6.74825">
        <ele>378</ele>
        <time>2016-07-17T09:07:29.000Z</time>
      </trkpt>
      <trkpt lat="47.58603" lon="6.74826">
        <ele>378</ele>
        <time>2016-07-17T09:07:30.000Z</time>
      </trkpt>
      <trkpt lat="47.586" lon="6.74823">
        <ele>377</ele>
        <time>2016-07-17T09:07:58.000Z</time>
      </trkpt>
      <trkpt lat="47.58599" lon="6.74821">
        <ele>377</ele>
        <time>2016-07-17T09:07:59.000Z</time>
      </trkpt>
      <trkpt lat="47.58597" lon="6.74817">
        <ele>377</ele>
        <time>2016-07-17T09:08:01.000Z</time>
      </trkpt>
      <trkpt lat="47.58595" lon="6.74815">
        <ele>377</ele>
        <time>2016-07-17T09:08:02.000Z</time>
      </trkpt>
      <trkpt lat="47.58593" lon="6.74811">
        <ele>377</ele>
        <time>2016-07-17T09:08:04.000Z</time>
      </trkpt>
      <trkpt lat="47.58591" lon="6.74808">
        <ele>377</ele>
        <time>2016-07-17T09:08:05.000Z</time>
      </trkpt>
      <trkpt lat="47.5859" lon="6.74805">
        <ele>377</ele>
        <time>2016-07-17T09:08:06.000Z</time>
      </trkpt>
      <trkpt lat="47.58589" lon="6.74801">
        <ele>377</ele>
        <time>2016-07-17T09:08:07.000Z</time>
      </trkpt>
      <trkpt lat="47.58587" lon="6.74798">
        <ele>377</ele>
        <time>2016-07-17T09:08:08.000Z</time>
      </trkpt>
      <trkpt lat="47.58586" lon="6.74795">
        <ele>377</ele>
        <time>2016-07-17T09:08:09.000Z</time>
      </trkpt>
      <trkpt lat="47.58586" lon="6.74792">
        <ele>377</ele>
        <time>2016-07-17T09:08:10.000Z</time>
      </trkpt>
      <trkpt lat="47.58586" lon="6.74788">
        <ele>376</ele>
        <time>2016-07-17T09:08:11.000Z</time>
      </trkpt>
      <trkpt lat="47.58583" lon="6.74784">
        <ele>366</ele>
        <time>2016-07-17T09:08:13.000Z</time>
      </trkpt>
      <trkpt lat="47.58581" lon="6.74785">
        <ele>366</ele>
        <time>2016-07-17T09:08:14.000Z</time>
      </trkpt>
      <trkpt lat="47.58578" lon="6.7479">
        <ele>366</ele>
        <time>2016-07-17T09:08:16.000Z</time>
      </trkpt>
      <trkpt lat="47.58578" lon="6.74792">
        <ele>366</ele>
        <time>2016-07-17T09:08:17.000Z</time>
      </trkpt>
      <trkpt lat="47.58582" lon="6.74791">
        <ele>366</ele>
        <time>2016-07-17T09:08:21.000Z</time>
      </trkpt>
      <trkpt lat="47.58583" lon="6.74789">
        <ele>366</ele>
        <time>2016-07-17T09:08:22.000Z</time>
      </trkpt>
      <trkpt lat="47.5858" lon="6.74784">
        <ele>366</ele>
        <time>2016-07-17T09:08:32.000Z</time>
      </trkpt>
      <trkpt lat="47.58579" lon="6.74784">
        <ele>366</ele>
        <time>2016-07-17T09:08:33.000Z</time>
      </trkpt>
      <trkpt lat="47.58575" lon="6.74787">
        <ele>366</ele>
        <time>2016-07-17T09:08:36.000Z</time>
      </trkpt>
      <trkpt lat="47.58575" lon="6.74789">
        <ele>366</ele>
        <time>2016-07-17T09:08:37.000Z</time>
      </trkpt>
      <trkpt lat="47.58577" lon="6.74786">
        <ele>366</ele>
        <time>2016-07-17T09:10:10.000Z</time>
      </trkpt>
      <trkpt lat="47.58576" lon="6.74782">
        <ele>366</ele>
        <time>2016-07-17T09:10:11.000Z</time>
      </trkpt>
      <trkpt lat="47.58574" lon="6.74778">
        <ele>366</ele>
        <time>2016-07-17T09:10:12.000Z</time>
      </trkpt>
      <trkpt lat="47.58572" lon="6.74773">
        <ele>366</ele>
        <time>2016-07-17T09:10:13.000Z</time>
      </trkpt>
      <trkpt lat="47.58571" lon="6.74769">
        <ele>366</ele>
        <time>2016-07-17T09:10:14.000Z</time>
      </trkpt>
      <trkpt lat="47.58569" lon="6.74765">
        <ele>366</ele>
        <time>2016-07-17T09:10:15.000Z</time>
      </trkpt>
      <trkpt lat="47.58568" lon="6.74761">
        <ele>366</ele>
        <time>2016-07-17T09:10:16.000Z</time>
      </trkpt>
      <trkpt lat="47.58567" lon="6.74758">
        <ele>366</ele>
        <time>2016-07-17T09:10:17.000Z</time>
      </trkpt>
      <trkpt lat="47.58565" lon="6.74755">
        <ele>366</ele>
        <time>2016-07-17T09:10:18.000Z</time>
      </trkpt>
      <trkpt lat="47.58564" lon="6.74751">
        <ele>366</ele>
        <time>2016-07-17T09:10:19.000Z</time>
      </trkpt>
      <trkpt lat="47.58561" lon="6.74748">
        <ele>364</ele>
        <time>2016-07-17T09:10:20.000Z</time>
      </trkpt>
      <trkpt lat="47.58559" lon="6.74744">
        <ele>363</ele>
        <time>2016-07-17T09:10:21.000Z</time>
      </trkpt>
      <trkpt lat="47.58556" lon="6.7474">
        <ele>363</ele>
        <time>2016-07-17T09:10:22.000Z</time>
      </trkpt>
      <trkpt lat="47.58554" lon="6.74737">
        <ele>362</ele>
        <time>2016-07-17T09:10:23.000Z</time>
      </trkpt>
      <trkpt lat="47.58552" lon="6.74733">
        <ele>362</ele>
        <time>2016-07-17T09:10:24.000Z</time>
      </trkpt>
      <trkpt lat="47.58549" lon="6.74731">
        <ele>362</ele>
        <time>2016-07-17T09:10:25.000Z</time>
      </trkpt>
      <trkpt lat="47.58547" lon="6.74729">
        <ele>361</ele>
        <time>2016-07-17T09:10:26.000Z</time>
      </trkpt>
      <trkpt lat="47.58545" lon="6.74727">
        <ele>361</ele>
        <time>2016-07-17T09:10:27.000Z</time>
      </trkpt>
      <trkpt lat="47.58546" lon="6.74732">
        <ele>361</ele>
        <time>2016-07-17T09:10:34.000Z</time>
      </trkpt>
      <trkpt lat="47.58547" lon="6.74734">
        <ele>362</ele>
        <time>2016-07-17T09:10:35.000Z</time>
      </trkpt>
      <trkpt lat="47.58549" lon="6.74736">
        <ele>362</ele>
        <time>2016-07-17T09:10:36.000Z</time>
      </trkpt>
      <trkpt lat="47.58552" lon="6.74738">
        <ele>362</ele>
        <time>2016-07-17T09:10:37.000Z</time>
      </trkpt>
      <trkpt lat="47.58554" lon="6.74741">
        <ele>363</ele>
        <time>2016-07-17T09:10:38.000Z</time>
      </trkpt>
      <trkpt lat="47.58556" lon="6.74744">
        <ele>363</ele>
        <time>2016-07-17T09:10:39.000Z</time>
      </trkpt>
      <trkpt lat="47.58554" lon="6.7475">
        <ele>363</ele>
        <time>2016-07-17T09:10:41.000Z</time>
      </trkpt>
      <trkpt lat="47.58551" lon="6.74752">
        <ele>364</ele>
        <time>2016-07-17T09:10:42.000Z</time>
      </trkpt>
      <trkpt lat="47.58547" lon="6.74751">
        <ele>364</ele>
        <time>2016-07-17T09:10:43.000Z</time>
      </trkpt>
      <trkpt lat="47.58543" lon="6.74749">
        <ele>361</ele>
        <time>2016-07-17T09:10:44.000Z</time>
      </trkpt>
      <trkpt lat="47.58539" lon="6.74746">
        <ele>361</ele>
        <time>2016-07-17T09:10:45.000Z</time>
      </trkpt>
      <trkpt lat="47.58534" lon="6.74743">
        <ele>360</ele>
        <time>2016-07-17T09:10:46.000Z</time>
      </trkpt>
      <trkpt lat="47.5853" lon="6.74741">
        <ele>360</ele>
        <time>2016-07-17T09:10:47.000Z</time>
      </trkpt>
      <trkpt lat="47.58526" lon="6.74739">
        <ele>360</ele>
        <time>2016-07-17T09:10:48.000Z</time>
      </trkpt>
      <trkpt lat="47.58518" lon="6.74739">
        <ele>359</ele>
        <time>2016-07-17T09:10:49.000Z</time>
      </trkpt>
      <trkpt lat="47.58515" lon="6.74741">
        <ele>358</ele>
        <time>2016-07-17T09:10:50.000Z</time>
      </trkpt>
      <trkpt lat="47.5851" lon="6.74744">
        <ele>358</ele>
        <time>2016-07-17T09:10:51.000Z</time>
      </trkpt>
      <trkpt lat="47.58506" lon="6.74748">
        <ele>357</ele>
        <time>2016-07-17T09:10:52.000Z</time>
      </trkpt>
      <trkpt lat="47.58502" lon="6.74753">
        <ele>357</ele>
        <time>2016-07-17T09:10:53.000Z</time>
      </trkpt>
      <trkpt lat="47.58497" lon="6.74758">
        <ele>355</ele>
        <time>2016-07-17T09:10:54.000Z</time>
      </trkpt>
      <trkpt lat="47.58493" lon="6.74762">
        <ele>355</ele>
        <time>2016-07-17T09:10:55.000Z</time>
      </trkpt>
      <trkpt lat="47.58489" lon="6.74769">
        <ele>355</ele>
        <time>2016-07-17T09:10:56.000Z</time>
      </trkpt>
      <trkpt lat="47.58485" lon="6.74773">
        <ele>354</ele>
        <time>2016-07-17T09:10:57.000Z</time>
      </trkpt>
      <trkpt lat="47.5848" lon="6.74777">
        <ele>354</ele>
        <time>2016-07-17T09:10:58.000Z</time>
      </trkpt>
      <trkpt lat="47.58476" lon="6.7478">
        <ele>354</ele>
        <time>2016-07-17T09:10:59.000Z</time>
      </trkpt>
      <trkpt lat="47.58472" lon="6.74784">
        <ele>354</ele>
        <time>2016-07-17T09:11:00.000Z</time>
      </trkpt>
      <trkpt lat="47.58468" lon="6.74788">
        <ele>354</ele>
        <time>2016-07-17T09:11:01.000Z</time>
      </trkpt>
      <trkpt lat="47.58463" lon="6.74794">
        <ele>354</ele>
        <time>2016-07-17T09:11:02.000Z</time>
      </trkpt>
      <trkpt lat="47.58459" lon="6.74797">
        <ele>354</ele>
        <time>2016-07-17T09:11:03.000Z</time>
      </trkpt>
      <trkpt lat="47.58455" lon="6.74801">
        <ele>354</ele>
        <time>2016-07-17T09:11:04.000Z</time>
      </trkpt>
      <trkpt lat="47.5845" lon="6.74805">
        <ele>353</ele>
        <time>2016-07-17T09:11:05.000Z</time>
      </trkpt>
      <trkpt lat="47.58446" lon="6.74808">
        <ele>353</ele>
        <time>2016-07-17T09:11:06.000Z</time>
      </trkpt>
      <trkpt lat="47.58442" lon="6.74811">
        <ele>353</ele>
        <time>2016-07-17T09:11:07.000Z</time>
      </trkpt>
      <trkpt lat="47.58438" lon="6.74814">
        <ele>353</ele>
        <time>2016-07-17T09:11:08.000Z</time>
      </trkpt>
      <trkpt lat="47.58435" lon="6.74815">
        <ele>353</ele>
        <time>2016-07-17T09:11:09.000Z</time>
      </trkpt>
      <trkpt lat="47.58433" lon="6.74817">
        <ele>353</ele>
        <time>2016-07-17T09:11:10.000Z</time>
      </trkpt>
      <trkpt lat="47.58429" lon="6.74819">
        <ele>353</ele>
        <time>2016-07-17T09:11:11.000Z</time>
      </trkpt>
      <trkpt lat="47.58426" lon="6.74821">
        <ele>353</ele>
        <time>2016-07-17T09:11:12.000Z</time>
      </trkpt>
      <trkpt lat="47.58422" lon="6.74823">
        <ele>353</ele>
        <time>2016-07-17T09:11:13.000Z</time>
      </trkpt>
      <trkpt lat="47.58419" lon="6.74826">
        <ele>353</ele>
        <time>2016-07-17T09:11:14.000Z</time>
      </trkpt>
      <trkpt lat="47.58416" lon="6.7483">
        <ele>353</ele>
        <time>2016-07-17T09:11:15.000Z</time>
      </trkpt>
      <trkpt lat="47.58414" lon="6.74834">
        <ele>353</ele>
        <time>2016-07-17T09:11:16.000Z</time>
      </trkpt>
      <trkpt lat="47.58411" lon="6.74838">
        <ele>353</ele>
        <time>2016-07-17T09:11:17.000Z</time>
      </trkpt>
      <trkpt lat="47.58408" lon="6.74841">
        <ele>354</ele>
        <time>2016-07-17T09:11:18.000Z</time>
      </trkpt>
      <trkpt lat="47.58405" lon="6.74842">
        <ele>354</ele>
        <time>2016-07-17T09:11:19.000Z</time>
      </trkpt>
      <trkpt lat="47.58401" lon="6.74841">
        <ele>354</ele>
        <time>2016-07-17T09:11:20.000Z</time>
      </trkpt>
      <trkpt lat="47.58398" lon="6.74839">
        <ele>354</ele>
        <time>2016-07-17T09:11:21.000Z</time>
      </trkpt>
      <trkpt lat="47.58394" lon="6.74835">
        <ele>354</ele>
        <time>2016-07-17T09:11:22.000Z</time>
      </trkpt>
      <trkpt lat="47.5839" lon="6.74825">
        <ele>352</ele>
        <time>2016-07-17T09:11:23.000Z</time>
      </trkpt>
      <trkpt lat="47.58387" lon="6.7482">
        <ele>352</ele>
        <time>2016-07-17T09:11:24.000Z</time>
      </trkpt>
      <trkpt lat="47.58384" lon="6.74815">
        <ele>352</ele>
        <time>2016-07-17T09:11:25.000Z</time>
      </trkpt>
      <trkpt lat="47.58381" lon="6.74808">
        <ele>351</ele>
        <time>2016-07-17T09:11:26.000Z</time>
      </trkpt>
      <trkpt lat="47.58379" lon="6.74801">
        <ele>351</ele>
        <time>2016-07-17T09:11:27.000Z</time>
      </trkpt>
      <trkpt lat="47.58377" lon="6.74794">
        <ele>351</ele>
        <time>2016-07-17T09:11:28.000Z</time>
      </trkpt>
      <trkpt lat="47.58375" lon="6.74787">
        <ele>351</ele>
        <time>2016-07-17T09:11:29.000Z</time>
      </trkpt>
      <trkpt lat="47.58374" lon="6.74779">
        <ele>351</ele>
        <time>2016-07-17T09:11:30.000Z</time>
      </trkpt>
      <trkpt lat="47.58373" lon="6.74771">
        <ele>351</ele>
        <time>2016-07-17T09:11:31.000Z</time>
      </trkpt>
      <trkpt lat="47.58373" lon="6.74763">
        <ele>350</ele>
        <time>2016-07-17T09:11:32.000Z</time>
      </trkpt>
      <trkpt lat="47.58373" lon="6.74755">
        <ele>350</ele>
        <time>2016-07-17T09:11:33.000Z</time>
      </trkpt>
      <trkpt lat="47.58374" lon="6.74746">
        <ele>348</ele>
        <time>2016-07-17T09:11:34.000Z</time>
      </trkpt>
      <trkpt lat="47.58375" lon="6.74737">
        <ele>348</ele>
        <time>2016-07-17T09:11:35.000Z</time>
      </trkpt>
      <trkpt lat="47.58377" lon="6.74728">
        <ele>348</ele>
        <time>2016-07-17T09:11:36.000Z</time>
      </trkpt>
      <trkpt lat="47.5838" lon="6.74718">
        <ele>347</ele>
        <time>2016-07-17T09:11:37.000Z</time>
      </trkpt>
      <trkpt lat="47.58383" lon="6.74709">
        <ele>347</ele>
        <time>2016-07-17T09:11:38.000Z</time>
      </trkpt>
      <trkpt lat="47.58385" lon="6.74701">
        <ele>347</ele>
        <time>2016-07-17T09:11:39.000Z</time>
      </trkpt>
      <trkpt lat="47.58388" lon="6.74691">
        <ele>347</ele>
        <time>2016-07-17T09:11:40.000Z</time>
      </trkpt>
      <trkpt lat="47.5839" lon="6.74681">
        <ele>347</ele>
        <time>2016-07-17T09:11:41.000Z</time>
      </trkpt>
      <trkpt lat="47.58392" lon="6.74672">
        <ele>347</ele>
        <time>2016-07-17T09:11:42.000Z</time>
      </trkpt>
      <trkpt lat="47.58396" lon="6.74661">
        <ele>345</ele>
        <time>2016-07-17T09:11:43.000Z</time>
      </trkpt>
      <trkpt lat="47.58399" lon="6.7465">
        <ele>345</ele>
        <time>2016-07-17T09:11:44.000Z</time>
      </trkpt>
      <trkpt lat="47.58401" lon="6.7464">
        <ele>345</ele>
        <time>2016-07-17T09:11:45.000Z</time>
      </trkpt>
      <trkpt lat="47.58405" lon="6.74629">
        <ele>345</ele>
        <time>2016-07-17T09:11:46.000Z</time>
      </trkpt>
      <trkpt lat="47.58407" lon="6.74618">
        <ele>345</ele>
        <time>2016-07-17T09:11:47.000Z</time>
      </trkpt>
      <trkpt lat="47.58409" lon="6.74607">
        <ele>345</ele>
        <time>2016-07-17T09:11:48.000Z</time>
      </trkpt>
      <trkpt lat="47.58413" lon="6.74596">
        <ele>346</ele>
        <time>2016-07-17T09:11:49.000Z</time>
      </trkpt>
      <trkpt lat="47.58417" lon="6.74584">
        <ele>347</ele>
        <time>2016-07-17T09:11:50.000Z</time>
      </trkpt>
      <trkpt lat="47.5842" lon="6.74573">
        <ele>348</ele>
        <time>2016-07-17T09:11:51.000Z</time>
      </trkpt>
      <trkpt lat="47.58423" lon="6.74561">
        <ele>349</ele>
        <time>2016-07-17T09:11:52.000Z</time>
      </trkpt>
      <trkpt lat="47.58426" lon="6.7455">
        <ele>350</ele>
        <time>2016-07-17T09:11:53.000Z</time>
      </trkpt>
      <trkpt lat="47.58429" lon="6.74537">
        <ele>350</ele>
        <time>2016-07-17T09:11:54.000Z</time>
      </trkpt>
      <trkpt lat="47.58432" lon="6.74526">
        <ele>350</ele>
        <time>2016-07-17T09:11:55.000Z</time>
      </trkpt>
      <trkpt lat="47.58434" lon="6.74515">
        <ele>350</ele>
        <time>2016-07-17T09:11:56.000Z</time>
      </trkpt>
      <trkpt lat="47.58436" lon="6.74503">
        <ele>350</ele>
        <time>2016-07-17T09:11:57.000Z</time>
      </trkpt>
      <trkpt lat="47.58438" lon="6.74491">
        <ele>349</ele>
        <time>2016-07-17T09:11:58.000Z</time>
      </trkpt>
      <trkpt lat="47.58439" lon="6.74478">
        <ele>349</ele>
        <time>2016-07-17T09:11:59.000Z</time>
      </trkpt>
      <trkpt lat="47.58439" lon="6.74466">
        <ele>348</ele>
        <time>2016-07-17T09:12:00.000Z</time>
      </trkpt>
      <trkpt lat="47.58438" lon="6.74453">
        <ele>348</ele>
        <time>2016-07-17T09:12:01.000Z</time>
      </trkpt>
      <trkpt lat="47.58437" lon="6.74441">
        <ele>348</ele>
        <time>2016-07-17T09:12:02.000Z</time>
      </trkpt>
      <trkpt lat="47.58434" lon="6.74429">
        <ele>347</ele>
        <time>2016-07-17T09:12:03.000Z</time>
      </trkpt>
      <trkpt lat="47.58431" lon="6.74418">
        <ele>347</ele>
        <time>2016-07-17T09:12:04.000Z</time>
      </trkpt>
      <trkpt lat="47.58428" lon="6.74407">
        <ele>345</ele>
        <time>2016-07-17T09:12:05.000Z</time>
      </trkpt>
      <trkpt lat="47.58424" lon="6.74395">
        <ele>345</ele>
        <time>2016-07-17T09:12:06.000Z</time>
      </trkpt>
      <trkpt lat="47.5842" lon="6.74384">
        <ele>344</ele>
        <time>2016-07-17T09:12:07.000Z</time>
      </trkpt>
      <trkpt lat="47.58417" lon="6.74374">
        <ele>344</ele>
        <time>2016-07-17T09:12:08.000Z</time>
      </trkpt>
      <trkpt lat="47.58413" lon="6.74364">
        <ele>340</ele>
        <time>2016-07-17T09:12:09.000Z</time>
      </trkpt>
      <trkpt lat="47.58409" lon="6.74353">
        <ele>340</ele>
        <time>2016-07-17T09:12:10.000Z</time>
      </trkpt>
      <trkpt lat="47.58404" lon="6.74343">
        <ele>340</ele>
        <time>2016-07-17T09:12:11.000Z</time>
      </trkpt>
      <trkpt lat="47.584" lon="6.74332">
        <ele>338</ele>
        <time>2016-07-17T09:12:12.000Z</time>
      </trkpt>
      <trkpt lat="47.58395" lon="6.74322">
        <ele>337</ele>
        <time>2016-07-17T09:12:13.000Z</time>
      </trkpt>
      <trkpt lat="47.58392" lon="6.74312">
        <ele>337</ele>
        <time>2016-07-17T09:12:14.000Z</time>
      </trkpt>
      <trkpt lat="47.58388" lon="6.74301">
        <ele>336</ele>
        <time>2016-07-17T09:12:15.000Z</time>
      </trkpt>
      <trkpt lat="47.58384" lon="6.74291">
        <ele>336</ele>
        <time>2016-07-17T09:12:16.000Z</time>
      </trkpt>
      <trkpt lat="47.58381" lon="6.74282">
        <ele>336</ele>
        <time>2016-07-17T09:12:17.000Z</time>
      </trkpt>
      <trkpt lat="47.58377" lon="6.74272">
        <ele>335</ele>
        <time>2016-07-17T09:12:18.000Z</time>
      </trkpt>
      <trkpt lat="47.58373" lon="6.74261">
        <ele>335</ele>
        <time>2016-07-17T09:12:19.000Z</time>
      </trkpt>
      <trkpt lat="47.5837" lon="6.74252">
        <ele>335</ele>
        <time>2016-07-17T09:12:20.000Z</time>
      </trkpt>
      <trkpt lat="47.58366" lon="6.74243">
        <ele>336</ele>
        <time>2016-07-17T09:12:21.000Z</time>
      </trkpt>
      <trkpt lat="47.58362" lon="6.74234">
        <ele>336</ele>
        <time>2016-07-17T09:12:22.000Z</time>
      </trkpt>
      <trkpt lat="47.58359" lon="6.74222">
        <ele>337</ele>
        <time>2016-07-17T09:12:23.000Z</time>
      </trkpt>
      <trkpt lat="47.58355" lon="6.74213">
        <ele>337</ele>
        <time>2016-07-17T09:12:24.000Z</time>
      </trkpt>
      <trkpt lat="47.58352" lon="6.74205">
        <ele>338</ele>
        <time>2016-07-17T09:12:25.000Z</time>
      </trkpt>
      <trkpt lat="47.58348" lon="6.74194">
        <ele>339</ele>
        <time>2016-07-17T09:12:26.000Z</time>
      </trkpt>
      <trkpt lat="47.58343" lon="6.74184">
        <ele>340</ele>
        <time>2016-07-17T09:12:27.000Z</time>
      </trkpt>
      <trkpt lat="47.58339" lon="6.74175">
        <ele>341</ele>
        <time>2016-07-17T09:12:28.000Z</time>
      </trkpt>
      <trkpt lat="47.58334" lon="6.74165">
        <ele>343</ele>
        <time>2016-07-17T09:12:29.000Z</time>
      </trkpt>
      <trkpt lat="47.5833" lon="6.74154">
        <ele>346</ele>
        <time>2016-07-17T09:12:30.000Z</time>
      </trkpt>
      <trkpt lat="47.58326" lon="6.74144">
        <ele>347</ele>
        <time>2016-07-17T09:12:31.000Z</time>
      </trkpt>
      <trkpt lat="47.58322" lon="6.74134">
        <ele>348</ele>
        <time>2016-07-17T09:12:32.000Z</time>
      </trkpt>
      <trkpt lat="47.58319" lon="6.74124">
        <ele>349</ele>
        <time>2016-07-17T09:12:33.000Z</time>
      </trkpt>
      <trkpt lat="47.58314" lon="6.74115">
        <ele>350</ele>
        <time>2016-07-17T09:12:34.000Z</time>
      </trkpt>
      <trkpt lat="47.5831" lon="6.74105">
        <ele>350</ele>
        <time>2016-07-17T09:12:35.000Z</time>
      </trkpt>
      <trkpt lat="47.58306" lon="6.74095">
        <ele>351</ele>
        <time>2016-07-17T09:12:36.000Z</time>
      </trkpt>
      <trkpt lat="47.58301" lon="6.74084">
        <ele>351</ele>
        <time>2016-07-17T09:12:37.000Z</time>
      </trkpt>
      <trkpt lat="47.58298" lon="6.74076">
        <ele>353</ele>
        <time>2016-07-17T09:12:38.000Z</time>
      </trkpt>
      <trkpt lat="47.58295" lon="6.74066">
        <ele>353</ele>
        <time>2016-07-17T09:12:39.000Z</time>
      </trkpt>
      <trkpt lat="47.58292" lon="6.74057">
        <ele>353</ele>
        <time>2016-07-17T09:12:40.000Z</time>
      </trkpt>
      <trkpt lat="47.58289" lon="6.74048">
        <ele>353</ele>
        <time>2016-07-17T09:12:41.000Z</time>
      </trkpt>
      <trkpt lat="47.58287" lon="6.74039">
        <ele>353</ele>
        <time>2016-07-17T09:12:42.000Z</time>
      </trkpt>
      <trkpt lat="47.58282" lon="6.74029">
        <ele>353</ele>
        <time>2016-07-17T09:12:43.000Z</time>
      </trkpt>
      <trkpt lat="47.58281" lon="6.7402">
        <ele>353</ele>
        <time>2016-07-17T09:12:44.000Z</time>
      </trkpt>
      <trkpt lat="47.58279" lon="6.74009">
        <ele>353</ele>
        <time>2016-07-17T09:12:45.000Z</time>
      </trkpt>
      <trkpt lat="47.58277" lon="6.74">
        <ele>353</ele>
        <time>2016-07-17T09:12:46.000Z</time>
      </trkpt>
      <trkpt lat="47.58276" lon="6.7399">
        <ele>353</ele>
        <time>2016-07-17T09:12:47.000Z</time>
      </trkpt>
      <trkpt lat="47.58273" lon="6.73981">
        <ele>353</ele>
        <time>2016-07-17T09:12:48.000Z</time>
      </trkpt>
      <trkpt lat="47.58272" lon="6.73972">
        <ele>353</ele>
        <time>2016-07-17T09:12:49.000Z</time>
      </trkpt>
      <trkpt lat="47.58271" lon="6.73964">
        <ele>353</ele>
        <time>2016-07-17T09:12:50.000Z</time>
      </trkpt>
      <trkpt lat="47.5827" lon="6.73956">
        <ele>353</ele>
        <time>2016-07-17T09:12:51.000Z</time>
      </trkpt>
      <trkpt lat="47.5827" lon="6.73948">
        <ele>353</ele>
        <time>2016-07-17T09:12:52.000Z</time>
      </trkpt>
      <trkpt lat="47.58268" lon="6.7394">
        <ele>352</ele>
        <time>2016-07-17T09:12:53.000Z</time>
      </trkpt>
      <trkpt lat="47.58268" lon="6.73932">
        <ele>352</ele>
        <time>2016-07-17T09:12:54.000Z</time>
      </trkpt>
      <trkpt lat="47.58267" lon="6.73922">
        <ele>351</ele>
        <time>2016-07-17T09:12:55.000Z</time>
      </trkpt>
      <trkpt lat="47.58267" lon="6.73912">
        <ele>350</ele>
        <time>2016-07-17T09:12:56.000Z</time>
      </trkpt>
      <trkpt lat="47.58265" lon="6.73902">
        <ele>351</ele>
        <time>2016-07-17T09:12:57.000Z</time>
      </trkpt>
      <trkpt lat="47.58265" lon="6.73893">
        <ele>351</ele>
        <time>2016-07-17T09:12:58.000Z</time>
      </trkpt>
      <trkpt lat="47.58265" lon="6.73883">
        <ele>351</ele>
        <time>2016-07-17T09:12:59.000Z</time>
      </trkpt>
      <trkpt lat="47.58264" lon="6.73874">
        <ele>351</ele>
        <time>2016-07-17T09:12:59.999Z</time>
      </trkpt>
      <trkpt lat="47.58265" lon="6.73867">
        <ele>351</ele>
        <time>2016-07-17T09:13:01.000Z</time>
      </trkpt>
      <trkpt lat="47.58267" lon="6.73859">
        <ele>351</ele>
        <time>2016-07-17T09:13:02.000Z</time>
      </trkpt>
      <trkpt lat="47.58268" lon="6.73851">
        <ele>351</ele>
        <time>2016-07-17T09:13:03.000Z</time>
      </trkpt>
      <trkpt lat="47.58269" lon="6.73842">
        <ele>350</ele>
        <time>2016-07-17T09:13:04.000Z</time>
      </trkpt>
      <trkpt lat="47.58268" lon="6.73833">
        <ele>349</ele>
        <time>2016-07-17T09:13:05.000Z</time>
      </trkpt>
      <trkpt lat="47.58268" lon="6.73825">
        <ele>349</ele>
        <time>2016-07-17T09:13:06.000Z</time>
      </trkpt>
      <trkpt lat="47.5827" lon="6.73817">
        <ele>349</ele>
        <time>2016-07-17T09:13:07.000Z</time>
      </trkpt>
      <trkpt lat="47.58272" lon="6.7381">
        <ele>350</ele>
        <time>2016-07-17T09:13:08.000Z</time>
      </trkpt>
      <trkpt lat="47.58276" lon="6.73803">
        <ele>350</ele>
        <time>2016-07-17T09:13:09.000Z</time>
      </trkpt>
      <trkpt lat="47.58278" lon="6.73796">
        <ele>350</ele>
        <time>2016-07-17T09:13:10.000Z</time>
      </trkpt>
      <trkpt lat="47.58281" lon="6.73789">
        <ele>350</ele>
        <time>2016-07-17T09:13:11.000Z</time>
      </trkpt>
      <trkpt lat="47.58283" lon="6.73781">
        <ele>350</ele>
        <time>2016-07-17T09:13:12.000Z</time>
      </trkpt>
      <trkpt lat="47.58281" lon="6.73773">
        <ele>350</ele>
        <time>2016-07-17T09:13:13.000Z</time>
      </trkpt>
      <trkpt lat="47.58281" lon="6.73767">
        <ele>350</ele>
        <time>2016-07-17T09:13:14.000Z</time>
      </trkpt>
      <trkpt lat="47.5828" lon="6.73759">
        <ele>349</ele>
        <time>2016-07-17T09:13:15.000Z</time>
      </trkpt>
      <trkpt lat="47.58278" lon="6.73751">
        <ele>349</ele>
        <time>2016-07-17T09:13:16.000Z</time>
      </trkpt>
      <trkpt lat="47.58276" lon="6.73744">
        <ele>349</ele>
        <time>2016-07-17T09:13:17.000Z</time>
      </trkpt>
      <trkpt lat="47.58271" lon="6.73737">
        <ele>349</ele>
        <time>2016-07-17T09:13:18.000Z</time>
      </trkpt>
      <trkpt lat="47.58267" lon="6.7373">
        <ele>349</ele>
        <time>2016-07-17T09:13:19.000Z</time>
      </trkpt>
      <trkpt lat="47.58263" lon="6.73727">
        <ele>349</ele>
        <time>2016-07-17T09:13:20.000Z</time>
      </trkpt>
      <trkpt lat="47.58258" lon="6.73723">
        <ele>349</ele>
        <time>2016-07-17T09:13:21.000Z</time>
      </trkpt>
      <trkpt lat="47.58252" lon="6.73721">
        <ele>349</ele>
        <time>2016-07-17T09:13:22.000Z</time>
      </trkpt>
      <trkpt lat="47.58246" lon="6.7372">
        <ele>346</ele>
        <time>2016-07-17T09:13:23.000Z</time>
      </trkpt>
      <trkpt lat="47.5824" lon="6.73719">
        <ele>346</ele>
        <time>2016-07-17T09:13:24.000Z</time>
      </trkpt>
      <trkpt lat="47.58234" lon="6.7372">
        <ele>346</ele>
        <time>2016-07-17T09:13:25.000Z</time>
      </trkpt>
      <trkpt lat="47.58228" lon="6.73721">
        <ele>346</ele>
        <time>2016-07-17T09:13:26.000Z</time>
      </trkpt>
      <trkpt lat="47.58222" lon="6.73721">
        <ele>346</ele>
        <time>2016-07-17T09:13:27.000Z</time>
      </trkpt>
      <trkpt lat="47.58217" lon="6.73719">
        <ele>346</ele>
        <time>2016-07-17T09:13:28.000Z</time>
      </trkpt>
      <trkpt lat="47.58212" lon="6.73715">
        <ele>346</ele>
        <time>2016-07-17T09:13:29.000Z</time>
      </trkpt>
      <trkpt lat="47.58206" lon="6.7371">
        <ele>346</ele>
        <time>2016-07-17T09:13:30.000Z</time>
      </trkpt>
      <trkpt lat="47.58201" lon="6.73704">
        <ele>346</ele>
        <time>2016-07-17T09:13:31.000Z</time>
      </trkpt>
      <trkpt lat="47.58197" lon="6.73696">
        <ele>346</ele>
        <time>2016-07-17T09:13:32.000Z</time>
      </trkpt>
      <trkpt lat="47.58192" lon="6.73691">
        <ele>346</ele>
        <time>2016-07-17T09:13:33.000Z</time>
      </trkpt>
      <trkpt lat="47.58186" lon="6.73686">
        <ele>346</ele>
        <time>2016-07-17T09:13:34.000Z</time>
      </trkpt>
      <trkpt lat="47.5818" lon="6.73679">
        <ele>345</ele>
        <time>2016-07-17T09:13:35.000Z</time>
      </trkpt>
      <trkpt lat="47.58175" lon="6.73673">
        <ele>345</ele>
        <time>2016-07-17T09:13:36.000Z</time>
      </trkpt>
      <trkpt lat="47.58171" lon="6.73668">
        <ele>345</ele>
        <time>2016-07-17T09:13:37.000Z</time>
      </trkpt>
      <trkpt lat="47.58166" lon="6.73663">
        <ele>345</ele>
        <time>2016-07-17T09:13:38.000Z</time>
      </trkpt>
      <trkpt lat="47.58161" lon="6.73657">
        <ele>346</ele>
        <time>2016-07-17T09:13:39.000Z</time>
      </trkpt>
      <trkpt lat="47.58156" lon="6.73651">
        <ele>346</ele>
        <time>2016-07-17T09:13:40.000Z</time>
      </trkpt>
      <trkpt lat="47.58151" lon="6.73646">
        <ele>347</ele>
        <time>2016-07-17T09:13:41.000Z</time>
      </trkpt>
      <trkpt lat="47.58147" lon="6.73642">
        <ele>347</ele>
        <time>2016-07-17T09:13:42.000Z</time>
      </trkpt>
      <trkpt lat="47.58141" lon="6.73637">
        <ele>347</ele>
        <time>2016-07-17T09:13:43.000Z</time>
      </trkpt>
      <trkpt lat="47.58136" lon="6.73633">
        <ele>347</ele>
        <time>2016-07-17T09:13:44.000Z</time>
      </trkpt>
      <trkpt lat="47.58129" lon="6.73628">
        <ele>347</ele>
        <time>2016-07-17T09:13:45.000Z</time>
      </trkpt>
      <trkpt lat="47.58124" lon="6.73624">
        <ele>347</ele>
        <time>2016-07-17T09:13:46.000Z</time>
      </trkpt>
      <trkpt lat="47.5812" lon="6.73621">
        <ele>347</ele>
        <time>2016-07-17T09:13:47.000Z</time>
      </trkpt>
      <trkpt lat="47.58115" lon="6.73618">
        <ele>347</ele>
        <time>2016-07-17T09:13:48.000Z</time>
      </trkpt>
      <trkpt lat="47.5811" lon="6.73615">
        <ele>347</ele>
        <time>2016-07-17T09:13:49.000Z</time>
      </trkpt>
      <trkpt lat="47.58106" lon="6.73612">
        <ele>347</ele>
        <time>2016-07-17T09:13:49.999Z</time>
      </trkpt>
      <trkpt lat="47.58101" lon="6.73611">
        <ele>347</ele>
        <time>2016-07-17T09:13:51.000Z</time>
      </trkpt>
      <trkpt lat="47.58095" lon="6.73607">
        <ele>347</ele>
        <time>2016-07-17T09:13:52.000Z</time>
      </trkpt>
      <trkpt lat="47.5809" lon="6.73603">
        <ele>347</ele>
        <time>2016-07-17T09:13:52.999Z</time>
      </trkpt>
      <trkpt lat="47.58085" lon="6.73601">
        <ele>347</ele>
        <time>2016-07-17T09:13:54.000Z</time>
      </trkpt>
      <trkpt lat="47.58081" lon="6.73598">
        <ele>346</ele>
        <time>2016-07-17T09:13:55.000Z</time>
      </trkpt>
      <trkpt lat="47.58077" lon="6.73596">
        <ele>346</ele>
        <time>2016-07-17T09:13:56.000Z</time>
      </trkpt>
      <trkpt lat="47.58072" lon="6.73593">
        <ele>346</ele>
        <time>2016-07-17T09:13:57.000Z</time>
      </trkpt>
      <trkpt lat="47.58065" lon="6.73592">
        <ele>346</ele>
        <time>2016-07-17T09:13:58.000Z</time>
      </trkpt>
      <trkpt lat="47.58062" lon="6.7359">
        <ele>346</ele>
        <time>2016-07-17T09:13:59.000Z</time>
      </trkpt>
      <trkpt lat="47.5806" lon="6.73586">
        <ele>346</ele>
        <time>2016-07-17T09:14:00.000Z</time>
      </trkpt>
      <trkpt lat="47.58057" lon="6.73591">
        <ele>346</ele>
        <time>2016-07-17T09:14:19.000Z</time>
      </trkpt>
      <trkpt lat="47.58056" lon="6.73591">
        <ele>346</ele>
        <time>2016-07-17T09:14:20.000Z</time>
      </trkpt>
      <trkpt lat="47.58052" lon="6.7359">
        <ele>346</ele>
        <time>2016-07-17T09:14:22.000Z</time>
      </trkpt>
      <trkpt lat="47.58049" lon="6.7359">
        <ele>346</ele>
        <time>2016-07-17T09:14:23.000Z</time>
      </trkpt>
      <trkpt lat="47.58045" lon="6.73589">
        <ele>346</ele>
        <time>2016-07-17T09:14:24.000Z</time>
      </trkpt>
      <trkpt lat="47.58041" lon="6.73588">
        <ele>345</ele>
        <time>2016-07-17T09:14:25.000Z</time>
      </trkpt>
      <trkpt lat="47.58037" lon="6.73587">
        <ele>345</ele>
        <time>2016-07-17T09:14:26.000Z</time>
      </trkpt>
      <trkpt lat="47.58032" lon="6.73587">
        <ele>345</ele>
        <time>2016-07-17T09:14:27.000Z</time>
      </trkpt>
      <trkpt lat="47.58027" lon="6.73587">
        <ele>345</ele>
        <time>2016-07-17T09:14:28.000Z</time>
      </trkpt>
      <trkpt lat="47.58018" lon="6.73589">
        <ele>345</ele>
        <time>2016-07-17T09:14:29.000Z</time>
      </trkpt>
      <trkpt lat="47.58013" lon="6.7359">
        <ele>345</ele>
        <time>2016-07-17T09:14:30.000Z</time>
      </trkpt>
      <trkpt lat="47.58009" lon="6.73589">
        <ele>345</ele>
        <time>2016-07-17T09:14:31.000Z</time>
      </trkpt>
      <trkpt lat="47.58004" lon="6.73589">
        <ele>344</ele>
        <time>2016-07-17T09:14:32.000Z</time>
      </trkpt>
      <trkpt lat="47.57998" lon="6.73588">
        <ele>344</ele>
        <time>2016-07-17T09:14:33.000Z</time>
      </trkpt>
      <trkpt lat="47.57992" lon="6.73589">
        <ele>344</ele>
        <time>2016-07-17T09:14:34.000Z</time>
      </trkpt>
      <trkpt lat="47.57988" lon="6.7359">
        <ele>344</ele>
        <time>2016-07-17T09:14:35.000Z</time>
      </trkpt>
      <trkpt lat="47.57984" lon="6.73591">
        <ele>344</ele>
        <time>2016-07-17T09:14:36.000Z</time>
      </trkpt>
      <trkpt lat="47.57979" lon="6.73591">
        <ele>344</ele>
        <time>2016-07-17T09:14:37.000Z</time>
      </trkpt>
      <trkpt lat="47.57974" lon="6.73593">
        <ele>344</ele>
        <time>2016-07-17T09:14:38.000Z</time>
      </trkpt>
      <trkpt lat="47.57969" lon="6.73594">
        <ele>344</ele>
        <time>2016-07-17T09:14:39.000Z</time>
      </trkpt>
      <trkpt lat="47.57965" lon="6.73595">
        <ele>344</ele>
        <time>2016-07-17T09:14:40.000Z</time>
      </trkpt>
      <trkpt lat="47.57961" lon="6.73596">
        <ele>344</ele>
        <time>2016-07-17T09:14:41.000Z</time>
      </trkpt>
      <trkpt lat="47.57957" lon="6.73599">
        <ele>345</ele>
        <time>2016-07-17T09:14:42.000Z</time>
      </trkpt>
      <trkpt lat="47.57951" lon="6.736">
        <ele>345</ele>
        <time>2016-07-17T09:14:43.000Z</time>
      </trkpt>
      <trkpt lat="47.57948" lon="6.73598">
        <ele>345</ele>
        <time>2016-07-17T09:14:44.000Z</time>
      </trkpt>
      <trkpt lat="47.57943" lon="6.73601">
        <ele>345</ele>
        <time>2016-07-17T09:14:45.000Z</time>
      </trkpt>
      <trkpt lat="47.57939" lon="6.73603">
        <ele>345</ele>
        <time>2016-07-17T09:14:46.000Z</time>
      </trkpt>
      <trkpt lat="47.57934" lon="6.73606">
        <ele>345</ele>
        <time>2016-07-17T09:14:47.000Z</time>
      </trkpt>
      <trkpt lat="47.57928" lon="6.73608">
        <ele>345</ele>
        <time>2016-07-17T09:14:48.000Z</time>
      </trkpt>
      <trkpt lat="47.57923" lon="6.7361">
        <ele>345</ele>
        <time>2016-07-17T09:14:49.000Z</time>
      </trkpt>
      <trkpt lat="47.57919" lon="6.73612">
        <ele>344</ele>
        <time>2016-07-17T09:14:50.000Z</time>
      </trkpt>
      <trkpt lat="47.57916" lon="6.73617">
        <ele>345</ele>
        <time>2016-07-17T09:14:51.000Z</time>
      </trkpt>
      <trkpt lat="47.57911" lon="6.73618">
        <ele>345</ele>
        <time>2016-07-17T09:14:52.000Z</time>
      </trkpt>
      <trkpt lat="47.57907" lon="6.73619">
        <ele>345</ele>
        <time>2016-07-17T09:14:53.000Z</time>
      </trkpt>
      <trkpt lat="47.57902" lon="6.73621">
        <ele>345</ele>
        <time>2016-07-17T09:14:54.000Z</time>
      </trkpt>
      <trkpt lat="47.57896" lon="6.73622">
        <ele>345</ele>
        <time>2016-07-17T09:14:55.000Z</time>
      </trkpt>
      <trkpt lat="47.57891" lon="6.73625">
        <ele>345</ele>
        <time>2016-07-17T09:14:56.000Z</time>
      </trkpt>
      <trkpt lat="47.57887" lon="6.73627">
        <ele>345</ele>
        <time>2016-07-17T09:14:57.000Z</time>
      </trkpt>
      <trkpt lat="47.57882" lon="6.73629">
        <ele>345</ele>
        <time>2016-07-17T09:14:58.000Z</time>
      </trkpt>
      <trkpt lat="47.57878" lon="6.73631">
        <ele>345</ele>
        <time>2016-07-17T09:14:59.000Z</time>
      </trkpt>
      <trkpt lat="47.57873" lon="6.73633">
        <ele>345</ele>
        <time>2016-07-17T09:15:00.000Z</time>
      </trkpt>
      <trkpt lat="47.57868" lon="6.73636">
        <ele>345</ele>
        <time>2016-07-17T09:15:01.000Z</time>
      </trkpt>
      <trkpt lat="47.57864" lon="6.73638">
        <ele>345</ele>
        <time>2016-07-17T09:15:02.000Z</time>
      </trkpt>
      <trkpt lat="47.5786" lon="6.7364">
        <ele>345</ele>
        <time>2016-07-17T09:15:03.000Z</time>
      </trkpt>
      <trkpt lat="47.57855" lon="6.73642">
        <ele>345</ele>
        <time>2016-07-17T09:15:04.000Z</time>
      </trkpt>
      <trkpt lat="47.57849" lon="6.73644">
        <ele>345</ele>
        <time>2016-07-17T09:15:05.000Z</time>
      </trkpt>
      <trkpt lat="47.57845" lon="6.73646">
        <ele>345</ele>
        <time>2016-07-17T09:15:06.000Z</time>
      </trkpt>
      <trkpt lat="47.57841" lon="6.73647">
        <ele>345</ele>
        <time>2016-07-17T09:15:07.000Z</time>
      </trkpt>
      <trkpt lat="47.57836" lon="6.73649">
        <ele>344</ele>
        <time>2016-07-17T09:15:08.000Z</time>
      </trkpt>
      <trkpt lat="47.57832" lon="6.7365">
        <ele>345</ele>
        <time>2016-07-17T09:15:09.000Z</time>
      </trkpt>
      <trkpt lat="47.57827" lon="6.73652">
        <ele>345</ele>
        <time>2016-07-17T09:15:10.000Z</time>
      </trkpt>
      <trkpt lat="47.57823" lon="6.73654">
        <ele>345</ele>
        <time>2016-07-17T09:15:11.000Z</time>
      </trkpt>
      <trkpt lat="47.57819" lon="6.73655">
        <ele>345</ele>
        <time>2016-07-17T09:15:12.000Z</time>
      </trkpt>
      <trkpt lat="47.57815" lon="6.73657">
        <ele>345</ele>
        <time>2016-07-17T09:15:13.000Z</time>
      </trkpt>
      <trkpt lat="47.57811" lon="6.73659">
        <ele>346</ele>
        <time>2016-07-17T09:15:14.000Z</time>
      </trkpt>
      <trkpt lat="47.57808" lon="6.7366">
        <ele>346</ele>
        <time>2016-07-17T09:15:15.000Z</time>
      </trkpt>
      <trkpt lat="47.57806" lon="6.73661">
        <ele>346</ele>
        <time>2016-07-17T09:15:16.000Z</time>
      </trkpt>
      <trkpt lat="47.57802" lon="6.73661">
        <ele>346</ele>
        <time>2016-07-17T09:15:19.000Z</time>
      </trkpt>
      <trkpt lat="47.57801" lon="6.73661">
        <ele>346</ele>
        <time>2016-07-17T09:15:19.999Z</time>
      </trkpt>
      <trkpt lat="47.57797" lon="6.73659">
        <ele>346</ele>
        <time>2016-07-17T09:15:22.000Z</time>
      </trkpt>
      <trkpt lat="47.57796" lon="6.73658">
        <ele>346</ele>
        <time>2016-07-17T09:15:23.000Z</time>
      </trkpt>
      <trkpt lat="47.57793" lon="6.73655">
        <ele>346</ele>
        <time>2016-07-17T09:15:25.000Z</time>
      </trkpt>
      <trkpt lat="47.57792" lon="6.73654">
        <ele>346</ele>
        <time>2016-07-17T09:15:26.000Z</time>
      </trkpt>
      <trkpt lat="47.57788" lon="6.73653">
        <ele>347</ele>
        <time>2016-07-17T09:15:28.000Z</time>
      </trkpt>
      <trkpt lat="47.57786" lon="6.73653">
        <ele>347</ele>
        <time>2016-07-17T09:15:29.000Z</time>
      </trkpt>
      <trkpt lat="47.57783" lon="6.73654">
        <ele>347</ele>
        <time>2016-07-17T09:15:30.000Z</time>
      </trkpt>
      <trkpt lat="47.5778" lon="6.73656">
        <ele>347</ele>
        <time>2016-07-17T09:15:31.000Z</time>
      </trkpt>
      <trkpt lat="47.57778" lon="6.73658">
        <ele>347</ele>
        <time>2016-07-17T09:15:32.000Z</time>
      </trkpt>
      <trkpt lat="47.57775" lon="6.73661">
        <ele>347</ele>
        <time>2016-07-17T09:15:33.000Z</time>
      </trkpt>
      <trkpt lat="47.57771" lon="6.73663">
        <ele>347</ele>
        <time>2016-07-17T09:15:34.000Z</time>
      </trkpt>
      <trkpt lat="47.57767" lon="6.73664">
        <ele>347</ele>
        <time>2016-07-17T09:15:35.000Z</time>
      </trkpt>
      <trkpt lat="47.57763" lon="6.73665">
        <ele>347</ele>
        <time>2016-07-17T09:15:36.000Z</time>
      </trkpt>
      <trkpt lat="47.57758" lon="6.73666">
        <ele>347</ele>
        <time>2016-07-17T09:15:37.000Z</time>
      </trkpt>
      <trkpt lat="47.57755" lon="6.73666">
        <ele>347</ele>
        <time>2016-07-17T09:15:37.999Z</time>
      </trkpt>
      <trkpt lat="47.57747" lon="6.73672">
        <ele>347</ele>
        <time>2016-07-17T09:15:39.000Z</time>
      </trkpt>
      <trkpt lat="47.57743" lon="6.73674">
        <ele>348</ele>
        <time>2016-07-17T09:15:40.000Z</time>
      </trkpt>
      <trkpt lat="47.57739" lon="6.73676">
        <ele>348</ele>
        <time>2016-07-17T09:15:41.000Z</time>
      </trkpt>
      <trkpt lat="47.57734" lon="6.73678">
        <ele>348</ele>
        <time>2016-07-17T09:15:42.000Z</time>
      </trkpt>
      <trkpt lat="47.5773" lon="6.7368">
        <ele>348</ele>
        <time>2016-07-17T09:15:43.000Z</time>
      </trkpt>
      <trkpt lat="47.57724" lon="6.73682">
        <ele>348</ele>
        <time>2016-07-17T09:15:44.000Z</time>
      </trkpt>
      <trkpt lat="47.5772" lon="6.73683">
        <ele>348</ele>
        <time>2016-07-17T09:15:45.000Z</time>
      </trkpt>
      <trkpt lat="47.57715" lon="6.73685">
        <ele>348</ele>
        <time>2016-07-17T09:15:46.000Z</time>
      </trkpt>
      <trkpt lat="47.57711" lon="6.73687">
        <ele>348</ele>
        <time>2016-07-17T09:15:47.000Z</time>
      </trkpt>
      <trkpt lat="47.57708" lon="6.73688">
        <ele>348</ele>
        <time>2016-07-17T09:15:48.000Z</time>
      </trkpt>
      <trkpt lat="47.57703" lon="6.73689">
        <ele>348</ele>
        <time>2016-07-17T09:15:49.000Z</time>
      </trkpt>
      <trkpt lat="47.577" lon="6.73692">
        <ele>348</ele>
        <time>2016-07-17T09:15:50.000Z</time>
      </trkpt>
      <trkpt lat="47.57695" lon="6.73692">
        <ele>347</ele>
        <time>2016-07-17T09:15:51.000Z</time>
      </trkpt>
      <trkpt lat="47.57691" lon="6.73693">
        <ele>347</ele>
        <time>2016-07-17T09:15:52.000Z</time>
      </trkpt>
      <trkpt lat="47.57687" lon="6.73693">
        <ele>347</ele>
        <time>2016-07-17T09:15:53.000Z</time>
      </trkpt>
      <trkpt lat="47.57682" lon="6.73693">
        <ele>347</ele>
        <time>2016-07-17T09:15:54.000Z</time>
      </trkpt>
      <trkpt lat="47.57677" lon="6.73691">
        <ele>347</ele>
        <time>2016-07-17T09:15:55.000Z</time>
      </trkpt>
      <trkpt lat="47.57672" lon="6.7369">
        <ele>347</ele>
        <time>2016-07-17T09:15:56.000Z</time>
      </trkpt>
      <trkpt lat="47.57667" lon="6.73688">
        <ele>346</ele>
        <time>2016-07-17T09:15:57.000Z</time>
      </trkpt>
      <trkpt lat="47.57661" lon="6.73686">
        <ele>344</ele>
        <time>2016-07-17T09:15:58.000Z</time>
      </trkpt>
      <trkpt lat="47.57655" lon="6.73683">
        <ele>344</ele>
        <time>2016-07-17T09:15:59.000Z</time>
      </trkpt>
      <trkpt lat="47.57648" lon="6.7368">
        <ele>344</ele>
        <time>2016-07-17T09:16:00.000Z</time>
      </trkpt>
      <trkpt lat="47.57642" lon="6.73677">
        <ele>344</ele>
        <time>2016-07-17T09:16:00.999Z</time>
      </trkpt>
      <trkpt lat="47.57635" lon="6.73675">
        <ele>344</ele>
        <time>2016-07-17T09:16:02.000Z</time>
      </trkpt>
      <trkpt lat="47.57629" lon="6.73673">
        <ele>344</ele>
        <time>2016-07-17T09:16:03.000Z</time>
      </trkpt>
      <trkpt lat="47.57623" lon="6.73669">
        <ele>344</ele>
        <time>2016-07-17T09:16:04.000Z</time>
      </trkpt>
      <trkpt lat="47.57616" lon="6.73665">
        <ele>343</ele>
        <time>2016-07-17T09:16:05.000Z</time>
      </trkpt>
      <trkpt lat="47.57609" lon="6.73661">
        <ele>343</ele>
        <time>2016-07-17T09:16:06.000Z</time>
      </trkpt>
      <trkpt lat="47.57603" lon="6.73657">
        <ele>343</ele>
        <time>2016-07-17T09:16:07.000Z</time>
      </trkpt>
      <trkpt lat="47.57596" lon="6.73654">
        <ele>343</ele>
        <time>2016-07-17T09:16:08.000Z</time>
      </trkpt>
      <trkpt lat="47.5759" lon="6.7365">
        <ele>343</ele>
        <time>2016-07-17T09:16:09.000Z</time>
      </trkpt>
      <trkpt lat="47.57583" lon="6.73645">
        <ele>341</ele>
        <time>2016-07-17T09:16:10.000Z</time>
      </trkpt>
      <trkpt lat="47.57578" lon="6.73639">
        <ele>341</ele>
        <time>2016-07-17T09:16:11.000Z</time>
      </trkpt>
      <trkpt lat="47.57571" lon="6.73632">
        <ele>341</ele>
        <time>2016-07-17T09:16:12.000Z</time>
      </trkpt>
      <trkpt lat="47.57566" lon="6.73625">
        <ele>341</ele>
        <time>2016-07-17T09:16:13.000Z</time>
      </trkpt>
      <trkpt lat="47.57561" lon="6.73617">
        <ele>341</ele>
        <time>2016-07-17T09:16:14.000Z</time>
      </trkpt>
      <trkpt lat="47.57556" lon="6.73608">
        <ele>341</ele>
        <time>2016-07-17T09:16:15.000Z</time>
      </trkpt>
      <trkpt lat="47.57551" lon="6.736">
        <ele>341</ele>
        <time>2016-07-17T09:16:16.000Z</time>
      </trkpt>
      <trkpt lat="47.57546" lon="6.73592">
        <ele>340</ele>
        <time>2016-07-17T09:16:17.000Z</time>
      </trkpt>
      <trkpt lat="47.57541" lon="6.73584">
        <ele>340</ele>
        <time>2016-07-17T09:16:18.000Z</time>
      </trkpt>
      <trkpt lat="47.57537" lon="6.73576">
        <ele>342</ele>
        <time>2016-07-17T09:16:19.000Z</time>
      </trkpt>
      <trkpt lat="47.57533" lon="6.73568">
        <ele>342</ele>
        <time>2016-07-17T09:16:20.000Z</time>
      </trkpt>
      <trkpt lat="47.57528" lon="6.7356">
        <ele>342</ele>
        <time>2016-07-17T09:16:21.000Z</time>
      </trkpt>
      <trkpt lat="47.57524" lon="6.73552">
        <ele>343</ele>
        <time>2016-07-17T09:16:22.000Z</time>
      </trkpt>
      <trkpt lat="47.5752" lon="6.73544">
        <ele>343</ele>
        <time>2016-07-17T09:16:23.000Z</time>
      </trkpt>
      <trkpt lat="47.57516" lon="6.73536">
        <ele>343</ele>
        <time>2016-07-17T09:16:24.000Z</time>
      </trkpt>
      <trkpt lat="47.57512" lon="6.73529">
        <ele>343</ele>
        <time>2016-07-17T09:16:25.000Z</time>
      </trkpt>
      <trkpt lat="47.57508" lon="6.73523">
        <ele>343</ele>
        <time>2016-07-17T09:16:26.000Z</time>
      </trkpt>
      <trkpt lat="47.57504" lon="6.73517">
        <ele>344</ele>
        <time>2016-07-17T09:16:27.000Z</time>
      </trkpt>
      <trkpt lat="47.575" lon="6.73509">
        <ele>344</ele>
        <time>2016-07-17T09:16:28.000Z</time>
      </trkpt>
      <trkpt lat="47.57496" lon="6.73502">
        <ele>343</ele>
        <time>2016-07-17T09:16:29.000Z</time>
      </trkpt>
      <trkpt lat="47.57492" lon="6.73495">
        <ele>344</ele>
        <time>2016-07-17T09:16:30.000Z</time>
      </trkpt>
      <trkpt lat="47.57487" lon="6.73488">
        <ele>344</ele>
        <time>2016-07-17T09:16:31.000Z</time>
      </trkpt>
      <trkpt lat="47.57482" lon="6.73483">
        <ele>344</ele>
        <time>2016-07-17T09:16:32.000Z</time>
      </trkpt>
      <trkpt lat="47.57478" lon="6.73475">
        <ele>345</ele>
        <time>2016-07-17T09:16:33.000Z</time>
      </trkpt>
      <trkpt lat="47.57474" lon="6.73472">
        <ele>345</ele>
        <time>2016-07-17T09:16:34.000Z</time>
      </trkpt>
      <trkpt lat="47.57468" lon="6.73469">
        <ele>345</ele>
        <time>2016-07-17T09:16:35.000Z</time>
      </trkpt>
      <trkpt lat="47.57462" lon="6.73466">
        <ele>345</ele>
        <time>2016-07-17T09:16:36.000Z</time>
      </trkpt>
      <trkpt lat="47.57458" lon="6.73463">
        <ele>345</ele>
        <time>2016-07-17T09:16:37.000Z</time>
      </trkpt>
      <trkpt lat="47.57451" lon="6.7346">
        <ele>344</ele>
        <time>2016-07-17T09:16:38.000Z</time>
      </trkpt>
      <trkpt lat="47.57443" lon="6.73457">
        <ele>344</ele>
        <time>2016-07-17T09:16:39.000Z</time>
      </trkpt>
      <trkpt lat="47.57438" lon="6.73454">
        <ele>344</ele>
        <time>2016-07-17T09:16:40.000Z</time>
      </trkpt>
      <trkpt lat="47.57431" lon="6.73451">
        <ele>344</ele>
        <time>2016-07-17T09:16:41.000Z</time>
      </trkpt>
      <trkpt lat="47.57426" lon="6.7345">
        <ele>344</ele>
        <time>2016-07-17T09:16:42.000Z</time>
      </trkpt>
      <trkpt lat="47.57419" lon="6.73449">
        <ele>344</ele>
        <time>2016-07-17T09:16:43.000Z</time>
      </trkpt>
      <trkpt lat="47.57414" lon="6.7345">
        <ele>342</ele>
        <time>2016-07-17T09:16:44.000Z</time>
      </trkpt>
      <trkpt lat="47.57407" lon="6.73448">
        <ele>342</ele>
        <time>2016-07-17T09:16:45.000Z</time>
      </trkpt>
      <trkpt lat="47.574" lon="6.73446">
        <ele>341</ele>
        <time>2016-07-17T09:16:46.000Z</time>
      </trkpt>
      <trkpt lat="47.57394" lon="6.73445">
        <ele>341</ele>
        <time>2016-07-17T09:16:47.000Z</time>
      </trkpt>
      <trkpt lat="47.57388" lon="6.73443">
        <ele>341</ele>
        <time>2016-07-17T09:16:48.000Z</time>
      </trkpt>
      <trkpt lat="47.57383" lon="6.73439">
        <ele>341</ele>
        <time>2016-07-17T09:16:49.000Z</time>
      </trkpt>
      <trkpt lat="47.57378" lon="6.73436">
        <ele>341</ele>
        <time>2016-07-17T09:16:50.000Z</time>
      </trkpt>
      <trkpt lat="47.57373" lon="6.73435">
        <ele>341</ele>
        <time>2016-07-17T09:16:51.000Z</time>
      </trkpt>
      <trkpt lat="47.57368" lon="6.73432">
        <ele>341</ele>
        <time>2016-07-17T09:16:52.000Z</time>
      </trkpt>
      <trkpt lat="47.57365" lon="6.73429">
        <ele>341</ele>
        <time>2016-07-17T09:16:53.000Z</time>
      </trkpt>
      <trkpt lat="47.57361" lon="6.73426">
        <ele>341</ele>
        <time>2016-07-17T09:16:54.000Z</time>
      </trkpt>
      <trkpt lat="47.57357" lon="6.73423">
        <ele>341</ele>
        <time>2016-07-17T09:16:55.000Z</time>
      </trkpt>
      <trkpt lat="47.57353" lon="6.7342">
        <ele>341</ele>
        <time>2016-07-17T09:16:56.000Z</time>
      </trkpt>
      <trkpt lat="47.57351" lon="6.73415">
        <ele>343</ele>
        <time>2016-07-17T09:16:57.000Z</time>
      </trkpt>
      <trkpt lat="47.57348" lon="6.73413">
        <ele>343</ele>
        <time>2016-07-17T09:16:58.000Z</time>
      </trkpt>
      <trkpt lat="47.57345" lon="6.7341">
        <ele>343</ele>
        <time>2016-07-17T09:16:59.000Z</time>
      </trkpt>
      <trkpt lat="47.57341" lon="6.73404">
        <ele>343</ele>
        <time>2016-07-17T09:17:00.000Z</time>
      </trkpt>
      <trkpt lat="47.57338" lon="6.73401">
        <ele>343</ele>
        <time>2016-07-17T09:17:01.000Z</time>
      </trkpt>
      <trkpt lat="47.57333" lon="6.734">
        <ele>341</ele>
        <time>2016-07-17T09:17:02.000Z</time>
      </trkpt>
      <trkpt lat="47.57328" lon="6.73397">
        <ele>341</ele>
        <time>2016-07-17T09:17:03.000Z</time>
      </trkpt>
      <trkpt lat="47.57323" lon="6.73395">
        <ele>341</ele>
        <time>2016-07-17T09:17:03.998Z</time>
      </trkpt>
      <trkpt lat="47.57316" lon="6.73391">
        <ele>340</ele>
        <time>2016-07-17T09:17:05.000Z</time>
      </trkpt>
      <trkpt lat="47.57312" lon="6.7339">
        <ele>340</ele>
        <time>2016-07-17T09:17:06.000Z</time>
      </trkpt>
      <trkpt lat="47.57307" lon="6.73387">
        <ele>340</ele>
        <time>2016-07-17T09:17:07.001Z</time>
      </trkpt>
      <trkpt lat="47.57301" lon="6.73385">
        <ele>340</ele>
        <time>2016-07-17T09:17:08.000Z</time>
      </trkpt>
      <trkpt lat="47.57296" lon="6.73382">
        <ele>340</ele>
        <time>2016-07-17T09:17:09.000Z</time>
      </trkpt>
      <trkpt lat="47.57291" lon="6.73377">
        <ele>340</ele>
        <time>2016-07-17T09:17:10.000Z</time>
      </trkpt>
      <trkpt lat="47.57285" lon="6.73379">
        <ele>340</ele>
        <time>2016-07-17T09:17:11.000Z</time>
      </trkpt>
      <trkpt lat="47.5728" lon="6.73379">
        <ele>340</ele>
        <time>2016-07-17T09:17:12.000Z</time>
      </trkpt>
      <trkpt lat="47.57274" lon="6.73382">
        <ele>340</ele>
        <time>2016-07-17T09:17:13.000Z</time>
      </trkpt>
      <trkpt lat="47.57269" lon="6.73385">
        <ele>339</ele>
        <time>2016-07-17T09:17:14.000Z</time>
      </trkpt>
      <trkpt lat="47.57264" lon="6.73389">
        <ele>339</ele>
        <time>2016-07-17T09:17:15.000Z</time>
      </trkpt>
      <trkpt lat="47.57258" lon="6.73393">
        <ele>339</ele>
        <time>2016-07-17T09:17:16.000Z</time>
      </trkpt>
      <trkpt lat="47.57253" lon="6.73398">
        <ele>339</ele>
        <time>2016-07-17T09:17:17.000Z</time>
      </trkpt>
      <trkpt lat="47.57248" lon="6.734">
        <ele>338</ele>
        <time>2016-07-17T09:17:18.000Z</time>
      </trkpt>
      <trkpt lat="47.57243" lon="6.73402">
        <ele>338</ele>
        <time>2016-07-17T09:17:19.000Z</time>
      </trkpt>
      <trkpt lat="47.57237" lon="6.73405">
        <ele>339</ele>
        <time>2016-07-17T09:17:20.000Z</time>
      </trkpt>
      <trkpt lat="47.57231" lon="6.73409">
        <ele>339</ele>
        <time>2016-07-17T09:17:21.000Z</time>
      </trkpt>
      <trkpt lat="47.57226" lon="6.73413">
        <ele>339</ele>
        <time>2016-07-17T09:17:22.000Z</time>
      </trkpt>
      <trkpt lat="47.5722" lon="6.73416">
        <ele>339</ele>
        <time>2016-07-17T09:17:23.000Z</time>
      </trkpt>
      <trkpt lat="47.57215" lon="6.73419">
        <ele>338</ele>
        <time>2016-07-17T09:17:24.000Z</time>
      </trkpt>
      <trkpt lat="47.57212" lon="6.73425">
        <ele>338</ele>
        <time>2016-07-17T09:17:25.000Z</time>
      </trkpt>
      <trkpt lat="47.57208" lon="6.7343">
        <ele>338</ele>
        <time>2016-07-17T09:17:26.000Z</time>
      </trkpt>
      <trkpt lat="47.57205" lon="6.73438">
        <ele>338</ele>
        <time>2016-07-17T09:17:27.000Z</time>
      </trkpt>
      <trkpt lat="47.57203" lon="6.73445">
        <ele>338</ele>
        <time>2016-07-17T09:17:28.000Z</time>
      </trkpt>
      <trkpt lat="47.57199" lon="6.7345">
        <ele>338</ele>
        <time>2016-07-17T09:17:29.000Z</time>
      </trkpt>
      <trkpt lat="47.57196" lon="6.73458">
        <ele>338</ele>
        <time>2016-07-17T09:17:30.000Z</time>
      </trkpt>
      <trkpt lat="47.57194" lon="6.73463">
        <ele>338</ele>
        <time>2016-07-17T09:17:31.000Z</time>
      </trkpt>
      <trkpt lat="47.5719" lon="6.73468">
        <ele>338</ele>
        <time>2016-07-17T09:17:32.000Z</time>
      </trkpt>
      <trkpt lat="47.57186" lon="6.73472">
        <ele>338</ele>
        <time>2016-07-17T09:17:33.000Z</time>
      </trkpt>
      <trkpt lat="47.57179" lon="6.73474">
        <ele>338</ele>
        <time>2016-07-17T09:17:34.000Z</time>
      </trkpt>
      <trkpt lat="47.57174" lon="6.73478">
        <ele>338</ele>
        <time>2016-07-17T09:17:35.000Z</time>
      </trkpt>
      <trkpt lat="47.57171" lon="6.73484">
        <ele>338</ele>
        <time>2016-07-17T09:17:36.000Z</time>
      </trkpt>
      <trkpt lat="47.57166" lon="6.73488">
        <ele>340</ele>
        <time>2016-07-17T09:17:37.000Z</time>
      </trkpt>
      <trkpt lat="47.57161" lon="6.73492">
        <ele>340</ele>
        <time>2016-07-17T09:17:38.000Z</time>
      </trkpt>
      <trkpt lat="47.57155" lon="6.73495">
        <ele>341</ele>
        <time>2016-07-17T09:17:39.000Z</time>
      </trkpt>
      <trkpt lat="47.5715" lon="6.73499">
        <ele>341</ele>
        <time>2016-07-17T09:17:40.000Z</time>
      </trkpt>
      <trkpt lat="47.57146" lon="6.73502">
        <ele>339</ele>
        <time>2016-07-17T09:17:41.000Z</time>
      </trkpt>
      <trkpt lat="47.57141" lon="6.73504">
        <ele>340</ele>
        <time>2016-07-17T09:17:42.000Z</time>
      </trkpt>
      <trkpt lat="47.57136" lon="6.73506">
        <ele>340</ele>
        <time>2016-07-17T09:17:43.000Z</time>
      </trkpt>
      <trkpt lat="47.57132" lon="6.73508">
        <ele>340</ele>
        <time>2016-07-17T09:17:44.000Z</time>
      </trkpt>
      <trkpt lat="47.57127" lon="6.73509">
        <ele>340</ele>
        <time>2016-07-17T09:17:45.000Z</time>
      </trkpt>
      <trkpt lat="47.57124" lon="6.73513">
        <ele>340</ele>
        <time>2016-07-17T09:17:46.000Z</time>
      </trkpt>
      <trkpt lat="47.57119" lon="6.73515">
        <ele>341</ele>
        <time>2016-07-17T09:17:47.000Z</time>
      </trkpt>
      <trkpt lat="47.57115" lon="6.73516">
        <ele>341</ele>
        <time>2016-07-17T09:17:48.000Z</time>
      </trkpt>
      <trkpt lat="47.57111" lon="6.73519">
        <ele>341</ele>
        <time>2016-07-17T09:17:49.000Z</time>
      </trkpt>
      <trkpt lat="47.57106" lon="6.73522">
        <ele>341</ele>
        <time>2016-07-17T09:17:50.000Z</time>
      </trkpt>
      <trkpt lat="47.57101" lon="6.73523">
        <ele>341</ele>
        <time>2016-07-17T09:17:51.000Z</time>
      </trkpt>
      <trkpt lat="47.57097" lon="6.73524">
        <ele>341</ele>
        <time>2016-07-17T09:17:52.000Z</time>
      </trkpt>
      <trkpt lat="47.57094" lon="6.73525">
        <ele>342</ele>
        <time>2016-07-17T09:17:53.000Z</time>
      </trkpt>
      <trkpt lat="47.5709" lon="6.73525">
        <ele>342</ele>
        <time>2016-07-17T09:17:54.000Z</time>
      </trkpt>
      <trkpt lat="47.57084" lon="6.73525">
        <ele>342</ele>
        <time>2016-07-17T09:17:55.000Z</time>
      </trkpt>
      <trkpt lat="47.5708" lon="6.73528">
        <ele>346</ele>
        <time>2016-07-17T09:17:56.000Z</time>
      </trkpt>
      <trkpt lat="47.57076" lon="6.73528">
        <ele>347</ele>
        <time>2016-07-17T09:17:57.000Z</time>
      </trkpt>
      <trkpt lat="47.57071" lon="6.73528">
        <ele>347</ele>
        <time>2016-07-17T09:17:58.000Z</time>
      </trkpt>
      <trkpt lat="47.57065" lon="6.73529">
        <ele>347</ele>
        <time>2016-07-17T09:17:59.000Z</time>
      </trkpt>
      <trkpt lat="47.57062" lon="6.73533">
        <ele>347</ele>
        <time>2016-07-17T09:18:00.000Z</time>
      </trkpt>
      <trkpt lat="47.57058" lon="6.73532">
        <ele>347</ele>
        <time>2016-07-17T09:18:01.000Z</time>
      </trkpt>
      <trkpt lat="47.57055" lon="6.73533">
        <ele>348</ele>
        <time>2016-07-17T09:18:02.000Z</time>
      </trkpt>
      <trkpt lat="47.57051" lon="6.73533">
        <ele>348</ele>
        <time>2016-07-17T09:18:03.000Z</time>
      </trkpt>
      <trkpt lat="47.57047" lon="6.73534">
        <ele>348</ele>
        <time>2016-07-17T09:18:04.000Z</time>
      </trkpt>
      <trkpt lat="47.57043" lon="6.73535">
        <ele>348</ele>
        <time>2016-07-17T09:18:05.000Z</time>
      </trkpt>
      <trkpt lat="47.57039" lon="6.73534">
        <ele>349</ele>
        <time>2016-07-17T09:18:06.000Z</time>
      </trkpt>
      <trkpt lat="47.57036" lon="6.73534">
        <ele>349</ele>
        <time>2016-07-17T09:18:07.000Z</time>
      </trkpt>
      <trkpt lat="47.57033" lon="6.73535">
        <ele>349</ele>
        <time>2016-07-17T09:18:08.000Z</time>
      </trkpt>
      <trkpt lat="47.5703" lon="6.73535">
        <ele>349</ele>
        <time>2016-07-17T09:18:09.000Z</time>
      </trkpt>
      <trkpt lat="47.57027" lon="6.73535">
        <ele>350</ele>
        <time>2016-07-17T09:18:09.999Z</time>
      </trkpt>
      <trkpt lat="47.57024" lon="6.73536">
        <ele>350</ele>
        <time>2016-07-17T09:18:11.000Z</time>
      </trkpt>
      <trkpt lat="47.5702" lon="6.73536">
        <ele>350</ele>
        <time>2016-07-17T09:18:12.000Z</time>
      </trkpt>
      <trkpt lat="47.57017" lon="6.73537">
        <ele>350</ele>
        <time>2016-07-17T09:18:13.000Z</time>
      </trkpt>
      <trkpt lat="47.57014" lon="6.73537">
        <ele>350</ele>
        <time>2016-07-17T09:18:14.000Z</time>
      </trkpt>
      <trkpt lat="47.57011" lon="6.73538">
        <ele>350</ele>
        <time>2016-07-17T09:18:15.000Z</time>
      </trkpt>
      <trkpt lat="47.57008" lon="6.73539">
        <ele>350</ele>
        <time>2016-07-17T09:18:16.000Z</time>
      </trkpt>
      <trkpt lat="47.57005" lon="6.7354">
        <ele>350</ele>
        <time>2016-07-17T09:18:17.000Z</time>
      </trkpt>
      <trkpt lat="47.57002" lon="6.73541">
        <ele>350</ele>
        <time>2016-07-17T09:18:18.000Z</time>
      </trkpt>
      <trkpt lat="47.56999" lon="6.73542">
        <ele>356</ele>
        <time>2016-07-17T09:18:19.000Z</time>
      </trkpt>
      <trkpt lat="47.56996" lon="6.73543">
        <ele>356</ele>
        <time>2016-07-17T09:18:20.000Z</time>
      </trkpt>
      <trkpt lat="47.56993" lon="6.73545">
        <ele>355</ele>
        <time>2016-07-17T09:18:21.000Z</time>
      </trkpt>
      <trkpt lat="47.5699" lon="6.73546">
        <ele>355</ele>
        <time>2016-07-17T09:18:22.000Z</time>
      </trkpt>
      <trkpt lat="47.56987" lon="6.73548">
        <ele>355</ele>
        <time>2016-07-17T09:18:23.000Z</time>
      </trkpt>
      <trkpt lat="47.56984" lon="6.73549">
        <ele>355</ele>
        <time>2016-07-17T09:18:24.000Z</time>
      </trkpt>
      <trkpt lat="47.56981" lon="6.73551">
        <ele>355</ele>
        <time>2016-07-17T09:18:25.000Z</time>
      </trkpt>
      <trkpt lat="47.56978" lon="6.73553">
        <ele>355</ele>
        <time>2016-07-17T09:18:26.000Z</time>
      </trkpt>
      <trkpt lat="47.56975" lon="6.73555">
        <ele>355</ele>
        <time>2016-07-17T09:18:27.000Z</time>
      </trkpt>
      <trkpt lat="47.56972" lon="6.73557">
        <ele>355</ele>
        <time>2016-07-17T09:18:28.000Z</time>
      </trkpt>
      <trkpt lat="47.56969" lon="6.73559">
        <ele>355</ele>
        <time>2016-07-17T09:18:29.000Z</time>
      </trkpt>
      <trkpt lat="47.56966" lon="6.73561">
        <ele>355</ele>
        <time>2016-07-17T09:18:30.000Z</time>
      </trkpt>
      <trkpt lat="47.56962" lon="6.73564">
        <ele>355</ele>
        <time>2016-07-17T09:18:31.000Z</time>
      </trkpt>
      <trkpt lat="47.56959" lon="6.73567">
        <ele>355</ele>
        <time>2016-07-17T09:18:32.000Z</time>
      </trkpt>
      <trkpt lat="47.56956" lon="6.73569">
        <ele>355</ele>
        <time>2016-07-17T09:18:33.000Z</time>
      </trkpt>
      <trkpt lat="47.56953" lon="6.73573">
        <ele>354</ele>
        <time>2016-07-17T09:18:34.000Z</time>
      </trkpt>
      <trkpt lat="47.5695" lon="6.73576">
        <ele>354</ele>
        <time>2016-07-17T09:18:35.000Z</time>
      </trkpt>
      <trkpt lat="47.56947" lon="6.7358">
        <ele>354</ele>
        <time>2016-07-17T09:18:36.000Z</time>
      </trkpt>
      <trkpt lat="47.56945" lon="6.73584">
        <ele>348</ele>
        <time>2016-07-17T09:18:37.000Z</time>
      </trkpt>
      <trkpt lat="47.56942" lon="6.73588">
        <ele>348</ele>
        <time>2016-07-17T09:18:38.000Z</time>
      </trkpt>
      <trkpt lat="47.5694" lon="6.73593">
        <ele>348</ele>
        <time>2016-07-17T09:18:39.000Z</time>
      </trkpt>
      <trkpt lat="47.56938" lon="6.73598">
        <ele>348</ele>
        <time>2016-07-17T09:18:40.000Z</time>
      </trkpt>
      <trkpt lat="47.56936" lon="6.73603">
        <ele>348</ele>
        <time>2016-07-17T09:18:41.000Z</time>
      </trkpt>
      <trkpt lat="47.56934" lon="6.73609">
        <ele>348</ele>
        <time>2016-07-17T09:18:42.000Z</time>
      </trkpt>
      <trkpt lat="47.56932" lon="6.73615">
        <ele>348</ele>
        <time>2016-07-17T09:18:43.000Z</time>
      </trkpt>
      <trkpt lat="47.5693" lon="6.73624">
        <ele>348</ele>
        <time>2016-07-17T09:18:44.000Z</time>
      </trkpt>
      <trkpt lat="47.56928" lon="6.7363">
        <ele>348</ele>
        <time>2016-07-17T09:18:45.000Z</time>
      </trkpt>
      <trkpt lat="47.56926" lon="6.73637">
        <ele>348</ele>
        <time>2016-07-17T09:18:46.000Z</time>
      </trkpt>
      <trkpt lat="47.56924" lon="6.73642">
        <ele>348</ele>
        <time>2016-07-17T09:18:47.000Z</time>
      </trkpt>
      <trkpt lat="47.56921" lon="6.73647">
        <ele>348</ele>
        <time>2016-07-17T09:18:48.000Z</time>
      </trkpt>
      <trkpt lat="47.56923" lon="6.73656">
        <ele>349</ele>
        <time>2016-07-17T09:18:49.000Z</time>
      </trkpt>
      <trkpt lat="47.56923" lon="6.73663">
        <ele>349</ele>
        <time>2016-07-17T09:18:50.000Z</time>
      </trkpt>
      <trkpt lat="47.56921" lon="6.73671">
        <ele>349</ele>
        <time>2016-07-17T09:18:51.000Z</time>
      </trkpt>
      <trkpt lat="47.5692" lon="6.73676">
        <ele>348</ele>
        <time>2016-07-17T09:18:52.000Z</time>
      </trkpt>
      <trkpt lat="47.56918" lon="6.73682">
        <ele>347</ele>
        <time>2016-07-17T09:18:53.000Z</time>
      </trkpt>
      <trkpt lat="47.56915" lon="6.7369">
        <ele>354</ele>
        <time>2016-07-17T09:18:54.000Z</time>
      </trkpt>
      <trkpt lat="47.56912" lon="6.73697">
        <ele>355</ele>
        <time>2016-07-17T09:18:55.000Z</time>
      </trkpt>
      <trkpt lat="47.56908" lon="6.73705">
        <ele>355</ele>
        <time>2016-07-17T09:18:56.000Z</time>
      </trkpt>
      <trkpt lat="47.56906" lon="6.7371">
        <ele>355</ele>
        <time>2016-07-17T09:18:57.000Z</time>
      </trkpt>
      <trkpt lat="47.56903" lon="6.73716">
        <ele>355</ele>
        <time>2016-07-17T09:18:58.000Z</time>
      </trkpt>
      <trkpt lat="47.56901" lon="6.73722">
        <ele>355</ele>
        <time>2016-07-17T09:18:58.999Z</time>
      </trkpt>
      <trkpt lat="47.56896" lon="6.73724">
        <ele>355</ele>
        <time>2016-07-17T09:19:00.000Z</time>
      </trkpt>
      <trkpt lat="47.56892" lon="6.73732">
        <ele>355</ele>
        <time>2016-07-17T09:19:01.000Z</time>
      </trkpt>
      <trkpt lat="47.56889" lon="6.73737">
        <ele>355</ele>
        <time>2016-07-17T09:19:02.000Z</time>
      </trkpt>
      <trkpt lat="47.56885" lon="6.73742">
        <ele>356</ele>
        <time>2016-07-17T09:19:03.000Z</time>
      </trkpt>
      <trkpt lat="47.56882" lon="6.73746">
        <ele>356</ele>
        <time>2016-07-17T09:19:04.000Z</time>
      </trkpt>
      <trkpt lat="47.56878" lon="6.73753">
        <ele>353</ele>
        <time>2016-07-17T09:19:05.000Z</time>
      </trkpt>
      <trkpt lat="47.56874" lon="6.73756">
        <ele>354</ele>
        <time>2016-07-17T09:19:06.000Z</time>
      </trkpt>
      <trkpt lat="47.56871" lon="6.73759">
        <ele>354</ele>
        <time>2016-07-17T09:19:07.000Z</time>
      </trkpt>
      <trkpt lat="47.56874" lon="6.73762">
        <ele>354</ele>
        <time>2016-07-17T09:19:08.000Z</time>
      </trkpt>
      <trkpt lat="47.56872" lon="6.73766">
        <ele>354</ele>
        <time>2016-07-17T09:19:09.000Z</time>
      </trkpt>
      <trkpt lat="47.56871" lon="6.7377">
        <ele>354</ele>
        <time>2016-07-17T09:19:10.000Z</time>
      </trkpt>
      <trkpt lat="47.56869" lon="6.73777">
        <ele>354</ele>
        <time>2016-07-17T09:19:11.000Z</time>
      </trkpt>
      <trkpt lat="47.56867" lon="6.73783">
        <ele>354</ele>
        <time>2016-07-17T09:19:12.000Z</time>
      </trkpt>
      <trkpt lat="47.56866" lon="6.73788">
        <ele>353</ele>
        <time>2016-07-17T09:19:13.000Z</time>
      </trkpt>
      <trkpt lat="47.56865" lon="6.73793">
        <ele>353</ele>
        <time>2016-07-17T09:19:13.999Z</time>
      </trkpt>
      <trkpt lat="47.56861" lon="6.73796">
        <ele>353</ele>
        <time>2016-07-17T09:19:15.000Z</time>
      </trkpt>
      <trkpt lat="47.56859" lon="6.73799">
        <ele>354</ele>
        <time>2016-07-17T09:19:16.000Z</time>
      </trkpt>
      <trkpt lat="47.56857" lon="6.73803">
        <ele>354</ele>
        <time>2016-07-17T09:19:17.000Z</time>
      </trkpt>
      <trkpt lat="47.56853" lon="6.73807">
        <ele>354</ele>
        <time>2016-07-17T09:19:18.000Z</time>
      </trkpt>
      <trkpt lat="47.5685" lon="6.73812">
        <ele>354</ele>
        <time>2016-07-17T09:19:19.000Z</time>
      </trkpt>
      <trkpt lat="47.56846" lon="6.73817">
        <ele>354</ele>
        <time>2016-07-17T09:19:20.000Z</time>
      </trkpt>
      <trkpt lat="47.56838" lon="6.73825">
        <ele>355</ele>
        <time>2016-07-17T09:19:21.000Z</time>
      </trkpt>
      <trkpt lat="47.56835" lon="6.7383">
        <ele>355</ele>
        <time>2016-07-17T09:19:22.000Z</time>
      </trkpt>
      <trkpt lat="47.56832" lon="6.73835">
        <ele>356</ele>
        <time>2016-07-17T09:19:23.000Z</time>
      </trkpt>
      <trkpt lat="47.56829" lon="6.73839">
        <ele>356</ele>
        <time>2016-07-17T09:19:24.000Z</time>
      </trkpt>
      <trkpt lat="47.56826" lon="6.73844">
        <ele>356</ele>
        <time>2016-07-17T09:19:25.000Z</time>
      </trkpt>
      <trkpt lat="47.56824" lon="6.73849">
        <ele>356</ele>
        <time>2016-07-17T09:19:26.000Z</time>
      </trkpt>
      <trkpt lat="47.56822" lon="6.73854">
        <ele>356</ele>
        <time>2016-07-17T09:19:26.999Z</time>
      </trkpt>
      <trkpt lat="47.56814" lon="6.73858">
        <ele>356</ele>
        <time>2016-07-17T09:19:28.000Z</time>
      </trkpt>
      <trkpt lat="47.5681" lon="6.73861">
        <ele>356</ele>
        <time>2016-07-17T09:19:29.000Z</time>
      </trkpt>
      <trkpt lat="47.56807" lon="6.73866">
        <ele>356</ele>
        <time>2016-07-17T09:19:30.000Z</time>
      </trkpt>
      <trkpt lat="47.56804" lon="6.73869">
        <ele>356</ele>
        <time>2016-07-17T09:19:31.001Z</time>
      </trkpt>
      <trkpt lat="47.56801" lon="6.73871">
        <ele>356</ele>
        <time>2016-07-17T09:19:32.000Z</time>
      </trkpt>
      <trkpt lat="47.56799" lon="6.73879">
        <ele>356</ele>
        <time>2016-07-17T09:19:33.000Z</time>
      </trkpt>
      <trkpt lat="47.56795" lon="6.73879">
        <ele>356</ele>
        <time>2016-07-17T09:19:34.000Z</time>
      </trkpt>
      <trkpt lat="47.56792" lon="6.73882">
        <ele>356</ele>
        <time>2016-07-17T09:19:35.000Z</time>
      </trkpt>
      <trkpt lat="47.56789" lon="6.73884">
        <ele>356</ele>
        <time>2016-07-17T09:19:36.000Z</time>
      </trkpt>
      <trkpt lat="47.56784" lon="6.73885">
        <ele>356</ele>
        <time>2016-07-17T09:19:37.000Z</time>
      </trkpt>
      <trkpt lat="47.56781" lon="6.73888">
        <ele>356</ele>
        <time>2016-07-17T09:19:38.000Z</time>
      </trkpt>
      <trkpt lat="47.56778" lon="6.7389">
        <ele>356</ele>
        <time>2016-07-17T09:19:39.000Z</time>
      </trkpt>
      <trkpt lat="47.56775" lon="6.73891">
        <ele>357</ele>
        <time>2016-07-17T09:19:40.000Z</time>
      </trkpt>
      <trkpt lat="47.56772" lon="6.73893">
        <ele>357</ele>
        <time>2016-07-17T09:19:41.000Z</time>
      </trkpt>
      <trkpt lat="47.5677" lon="6.73894">
        <ele>357</ele>
        <time>2016-07-17T09:19:42.000Z</time>
      </trkpt>
      <trkpt lat="47.56767" lon="6.73896">
        <ele>357</ele>
        <time>2016-07-17T09:19:43.000Z</time>
      </trkpt>
      <trkpt lat="47.56764" lon="6.73897">
        <ele>356</ele>
        <time>2016-07-17T09:19:44.000Z</time>
      </trkpt>
      <trkpt lat="47.5676" lon="6.73898">
        <ele>356</ele>
        <time>2016-07-17T09:19:45.000Z</time>
      </trkpt>
      <trkpt lat="47.56757" lon="6.73899">
        <ele>356</ele>
        <time>2016-07-17T09:19:46.000Z</time>
      </trkpt>
      <trkpt lat="47.56754" lon="6.739">
        <ele>356</ele>
        <time>2016-07-17T09:19:47.000Z</time>
      </trkpt>
      <trkpt lat="47.56751" lon="6.73901">
        <ele>356</ele>
        <time>2016-07-17T09:19:48.000Z</time>
      </trkpt>
      <trkpt lat="47.56748" lon="6.73903">
        <ele>360</ele>
        <time>2016-07-17T09:19:49.000Z</time>
      </trkpt>
      <trkpt lat="47.56746" lon="6.73904">
        <ele>360</ele>
        <time>2016-07-17T09:19:50.000Z</time>
      </trkpt>
      <trkpt lat="47.56743" lon="6.73905">
        <ele>360</ele>
        <time>2016-07-17T09:19:51.000Z</time>
      </trkpt>
      <trkpt lat="47.5674" lon="6.73906">
        <ele>360</ele>
        <time>2016-07-17T09:19:52.000Z</time>
      </trkpt>
      <trkpt lat="47.56737" lon="6.73908">
        <ele>361</ele>
        <time>2016-07-17T09:19:53.000Z</time>
      </trkpt>
      <trkpt lat="47.56734" lon="6.7391">
        <ele>361</ele>
        <time>2016-07-17T09:19:54.000Z</time>
      </trkpt>
      <trkpt lat="47.5673" lon="6.73912">
        <ele>361</ele>
        <time>2016-07-17T09:19:55.000Z</time>
      </trkpt>
      <trkpt lat="47.56728" lon="6.73914">
        <ele>362</ele>
        <time>2016-07-17T09:19:56.000Z</time>
      </trkpt>
      <trkpt lat="47.56724" lon="6.73914">
        <ele>362</ele>
        <time>2016-07-17T09:19:57.000Z</time>
      </trkpt>
      <trkpt lat="47.56721" lon="6.73914">
        <ele>363</ele>
        <time>2016-07-17T09:19:58.000Z</time>
      </trkpt>
      <trkpt lat="47.56717" lon="6.73913">
        <ele>363</ele>
        <time>2016-07-17T09:19:59.000Z</time>
      </trkpt>
      <trkpt lat="47.56714" lon="6.73913">
        <ele>363</ele>
        <time>2016-07-17T09:20:00.000Z</time>
      </trkpt>
      <trkpt lat="47.5671" lon="6.73912">
        <ele>363</ele>
        <time>2016-07-17T09:20:01.000Z</time>
      </trkpt>
      <trkpt lat="47.56707" lon="6.73912">
        <ele>364</ele>
        <time>2016-07-17T09:20:02.000Z</time>
      </trkpt>
      <trkpt lat="47.56703" lon="6.73913">
        <ele>364</ele>
        <time>2016-07-17T09:20:03.000Z</time>
      </trkpt>
      <trkpt lat="47.567" lon="6.73915">
        <ele>364</ele>
        <time>2016-07-17T09:20:04.000Z</time>
      </trkpt>
      <trkpt lat="47.56698" lon="6.73917">
        <ele>355</ele>
        <time>2016-07-17T09:20:05.000Z</time>
      </trkpt>
      <trkpt lat="47.56695" lon="6.7392">
        <ele>355</ele>
        <time>2016-07-17T09:20:06.000Z</time>
      </trkpt>
      <trkpt lat="47.56691" lon="6.73921">
        <ele>355</ele>
        <time>2016-07-17T09:20:07.000Z</time>
      </trkpt>
      <trkpt lat="47.56688" lon="6.73923">
        <ele>355</ele>
        <time>2016-07-17T09:20:08.000Z</time>
      </trkpt>
      <trkpt lat="47.56684" lon="6.73925">
        <ele>356</ele>
        <time>2016-07-17T09:20:09.000Z</time>
      </trkpt>
      <trkpt lat="47.5668" lon="6.73926">
        <ele>356</ele>
        <time>2016-07-17T09:20:10.000Z</time>
      </trkpt>
      <trkpt lat="47.56676" lon="6.73928">
        <ele>356</ele>
        <time>2016-07-17T09:20:11.000Z</time>
      </trkpt>
      <trkpt lat="47.56669" lon="6.73931">
        <ele>356</ele>
        <time>2016-07-17T09:20:12.000Z</time>
      </trkpt>
      <trkpt lat="47.56665" lon="6.73932">
        <ele>357</ele>
        <time>2016-07-17T09:20:13.000Z</time>
      </trkpt>
      <trkpt lat="47.5666" lon="6.73935">
        <ele>357</ele>
        <time>2016-07-17T09:20:14.000Z</time>
      </trkpt>
      <trkpt lat="47.56656" lon="6.73935">
        <ele>357</ele>
        <time>2016-07-17T09:20:15.000Z</time>
      </trkpt>
      <trkpt lat="47.56652" lon="6.73935">
        <ele>357</ele>
        <time>2016-07-17T09:20:16.000Z</time>
      </trkpt>
      <trkpt lat="47.56648" lon="6.73936">
        <ele>357</ele>
        <time>2016-07-17T09:20:17.000Z</time>
      </trkpt>
      <trkpt lat="47.56643" lon="6.73938">
        <ele>356</ele>
        <time>2016-07-17T09:20:18.000Z</time>
      </trkpt>
      <trkpt lat="47.56639" lon="6.73939">
        <ele>356</ele>
        <time>2016-07-17T09:20:19.000Z</time>
      </trkpt>
      <trkpt lat="47.56635" lon="6.7394">
        <ele>356</ele>
        <time>2016-07-17T09:20:20.000Z</time>
      </trkpt>
      <trkpt lat="47.56631" lon="6.73941">
        <ele>356</ele>
        <time>2016-07-17T09:20:21.000Z</time>
      </trkpt>
      <trkpt lat="47.56627" lon="6.73942">
        <ele>356</ele>
        <time>2016-07-17T09:20:22.000Z</time>
      </trkpt>
      <trkpt lat="47.56623" lon="6.73941">
        <ele>356</ele>
        <time>2016-07-17T09:20:23.000Z</time>
      </trkpt>
      <trkpt lat="47.56619" lon="6.73941">
        <ele>356</ele>
        <time>2016-07-17T09:20:24.000Z</time>
      </trkpt>
      <trkpt lat="47.56616" lon="6.73941">
        <ele>356</ele>
        <time>2016-07-17T09:20:25.000Z</time>
      </trkpt>
      <trkpt lat="47.56613" lon="6.73941">
        <ele>356</ele>
        <time>2016-07-17T09:20:26.000Z</time>
      </trkpt>
      <trkpt lat="47.5661" lon="6.73941">
        <ele>356</ele>
        <time>2016-07-17T09:20:27.000Z</time>
      </trkpt>
      <trkpt lat="47.56607" lon="6.73941">
        <ele>356</ele>
        <time>2016-07-17T09:20:28.000Z</time>
      </trkpt>
      <trkpt lat="47.56605" lon="6.73941">
        <ele>357</ele>
        <time>2016-07-17T09:20:29.000Z</time>
      </trkpt>
      <trkpt lat="47.56602" lon="6.7394">
        <ele>357</ele>
        <time>2016-07-17T09:20:30.000Z</time>
      </trkpt>
      <trkpt lat="47.566" lon="6.7394">
        <ele>357</ele>
        <time>2016-07-17T09:20:31.000Z</time>
      </trkpt>
      <trkpt lat="47.56597" lon="6.73939">
        <ele>357</ele>
        <time>2016-07-17T09:20:32.000Z</time>
      </trkpt>
      <trkpt lat="47.56594" lon="6.73939">
        <ele>357</ele>
        <time>2016-07-17T09:20:32.999Z</time>
      </trkpt>
      <trkpt lat="47.56593" lon="6.73938">
        <ele>357</ele>
        <time>2016-07-17T09:20:34.000Z</time>
      </trkpt>
      <trkpt lat="47.5659" lon="6.73938">
        <ele>357</ele>
        <time>2016-07-17T09:20:35.000Z</time>
      </trkpt>
      <trkpt lat="47.56587" lon="6.73938">
        <ele>357</ele>
        <time>2016-07-17T09:20:36.000Z</time>
      </trkpt>
      <trkpt lat="47.56584" lon="6.73938">
        <ele>357</ele>
        <time>2016-07-17T09:20:37.000Z</time>
      </trkpt>
      <trkpt lat="47.56581" lon="6.73939">
        <ele>358</ele>
        <time>2016-07-17T09:20:38.000Z</time>
      </trkpt>
      <trkpt lat="47.56578" lon="6.73938">
        <ele>358</ele>
        <time>2016-07-17T09:20:39.000Z</time>
      </trkpt>
      <trkpt lat="47.56575" lon="6.73938">
        <ele>358</ele>
        <time>2016-07-17T09:20:40.000Z</time>
      </trkpt>
      <trkpt lat="47.56567" lon="6.73936">
        <ele>358</ele>
        <time>2016-07-17T09:20:41.000Z</time>
      </trkpt>
      <trkpt lat="47.56562" lon="6.73935">
        <ele>358</ele>
        <time>2016-07-17T09:20:42.000Z</time>
      </trkpt>
      <trkpt lat="47.56558" lon="6.73935">
        <ele>358</ele>
        <time>2016-07-17T09:20:43.000Z</time>
      </trkpt>
      <trkpt lat="47.56555" lon="6.73934">
        <ele>358</ele>
        <time>2016-07-17T09:20:44.000Z</time>
      </trkpt>
      <trkpt lat="47.56551" lon="6.73934">
        <ele>358</ele>
        <time>2016-07-17T09:20:45.000Z</time>
      </trkpt>
      <trkpt lat="47.56549" lon="6.73935">
        <ele>358</ele>
        <time>2016-07-17T09:20:46.000Z</time>
      </trkpt>
      <trkpt lat="47.56546" lon="6.73936">
        <ele>359</ele>
        <time>2016-07-17T09:20:47.001Z</time>
      </trkpt>
      <trkpt lat="47.56541" lon="6.73938">
        <ele>359</ele>
        <time>2016-07-17T09:20:48.000Z</time>
      </trkpt>
      <trkpt lat="47.56536" lon="6.73937">
        <ele>359</ele>
        <time>2016-07-17T09:20:49.000Z</time>
      </trkpt>
      <trkpt lat="47.56532" lon="6.73939">
        <ele>359</ele>
        <time>2016-07-17T09:20:50.000Z</time>
      </trkpt>
      <trkpt lat="47.56528" lon="6.73939">
        <ele>359</ele>
        <time>2016-07-17T09:20:51.000Z</time>
      </trkpt>
      <trkpt lat="47.56524" lon="6.7394">
        <ele>359</ele>
        <time>2016-07-17T09:20:52.000Z</time>
      </trkpt>
      <trkpt lat="47.5652" lon="6.73941">
        <ele>359</ele>
        <time>2016-07-17T09:20:53.000Z</time>
      </trkpt>
      <trkpt lat="47.56516" lon="6.73943">
        <ele>359</ele>
        <time>2016-07-17T09:20:54.000Z</time>
      </trkpt>
      <trkpt lat="47.56512" lon="6.73945">
        <ele>359</ele>
        <time>2016-07-17T09:20:55.000Z</time>
      </trkpt>
      <trkpt lat="47.56508" lon="6.73946">
        <ele>359</ele>
        <time>2016-07-17T09:20:56.000Z</time>
      </trkpt>
      <trkpt lat="47.56505" lon="6.73948">
        <ele>359</ele>
        <time>2016-07-17T09:20:57.000Z</time>
      </trkpt>
      <trkpt lat="47.56501" lon="6.73946">
        <ele>359</ele>
        <time>2016-07-17T09:20:58.000Z</time>
      </trkpt>
      <trkpt lat="47.56498" lon="6.73945">
        <ele>362</ele>
        <time>2016-07-17T09:20:59.000Z</time>
      </trkpt>
      <trkpt lat="47.56494" lon="6.73944">
        <ele>362</ele>
        <time>2016-07-17T09:21:00.000Z</time>
      </trkpt>
      <trkpt lat="47.56491" lon="6.73943">
        <ele>362</ele>
        <time>2016-07-17T09:21:01.000Z</time>
      </trkpt>
      <trkpt lat="47.56487" lon="6.73943">
        <ele>363</ele>
        <time>2016-07-17T09:21:02.000Z</time>
      </trkpt>
      <trkpt lat="47.56484" lon="6.73942">
        <ele>363</ele>
        <time>2016-07-17T09:21:03.000Z</time>
      </trkpt>
      <trkpt lat="47.5648" lon="6.7394">
        <ele>363</ele>
        <time>2016-07-17T09:21:04.000Z</time>
      </trkpt>
      <trkpt lat="47.56477" lon="6.73938">
        <ele>363</ele>
        <time>2016-07-17T09:21:05.000Z</time>
      </trkpt>
      <trkpt lat="47.56474" lon="6.73937">
        <ele>363</ele>
        <time>2016-07-17T09:21:05.999Z</time>
      </trkpt>
      <trkpt lat="47.56474" lon="6.7393">
        <ele>363</ele>
        <time>2016-07-17T09:21:08.000Z</time>
      </trkpt>
      <trkpt lat="47.56473" lon="6.73928">
        <ele>363</ele>
        <time>2016-07-17T09:21:09.000Z</time>
      </trkpt>
      <trkpt lat="47.5647" lon="6.73927">
        <ele>363</ele>
        <time>2016-07-17T09:21:10.000Z</time>
      </trkpt>
      <trkpt lat="47.56467" lon="6.73926">
        <ele>363</ele>
        <time>2016-07-17T09:21:11.000Z</time>
      </trkpt>
      <trkpt lat="47.56464" lon="6.73926">
        <ele>363</ele>
        <time>2016-07-17T09:21:12.000Z</time>
      </trkpt>
      <trkpt lat="47.56461" lon="6.73926">
        <ele>364</ele>
        <time>2016-07-17T09:21:13.000Z</time>
      </trkpt>
      <trkpt lat="47.56458" lon="6.73926">
        <ele>364</ele>
        <time>2016-07-17T09:21:14.000Z</time>
      </trkpt>
      <trkpt lat="47.56455" lon="6.73927">
        <ele>364</ele>
        <time>2016-07-17T09:21:15.000Z</time>
      </trkpt>
      <trkpt lat="47.56453" lon="6.73927">
        <ele>364</ele>
        <time>2016-07-17T09:21:16.000Z</time>
      </trkpt>
      <trkpt lat="47.5645" lon="6.73926">
        <ele>364</ele>
        <time>2016-07-17T09:21:17.000Z</time>
      </trkpt>
      <trkpt lat="47.56446" lon="6.73927">
        <ele>364</ele>
        <time>2016-07-17T09:21:19.000Z</time>
      </trkpt>
      <trkpt lat="47.56444" lon="6.73927">
        <ele>364</ele>
        <time>2016-07-17T09:21:20.002Z</time>
      </trkpt>
      <trkpt lat="47.56442" lon="6.73929">
        <ele>365</ele>
        <time>2016-07-17T09:21:21.000Z</time>
      </trkpt>
      <trkpt lat="47.5644" lon="6.7393">
        <ele>365</ele>
        <time>2016-07-17T09:21:22.000Z</time>
      </trkpt>
      <trkpt lat="47.56438" lon="6.73932">
        <ele>365</ele>
        <time>2016-07-17T09:21:23.000Z</time>
      </trkpt>
      <trkpt lat="47.56435" lon="6.73933">
        <ele>365</ele>
        <time>2016-07-17T09:21:24.000Z</time>
      </trkpt>
      <trkpt lat="47.56433" lon="6.73935">
        <ele>365</ele>
        <time>2016-07-17T09:21:25.000Z</time>
      </trkpt>
      <trkpt lat="47.56431" lon="6.73937">
        <ele>365</ele>
        <time>2016-07-17T09:21:26.000Z</time>
      </trkpt>
      <trkpt lat="47.56429" lon="6.73939">
        <ele>365</ele>
        <time>2016-07-17T09:21:27.000Z</time>
      </trkpt>
      <trkpt lat="47.56427" lon="6.73942">
        <ele>365</ele>
        <time>2016-07-17T09:21:28.000Z</time>
      </trkpt>
      <trkpt lat="47.56424" lon="6.73946">
        <ele>365</ele>
        <time>2016-07-17T09:21:30.000Z</time>
      </trkpt>
      <trkpt lat="47.56422" lon="6.73947">
        <ele>365</ele>
        <time>2016-07-17T09:21:31.000Z</time>
      </trkpt>
      <trkpt lat="47.56419" lon="6.73949">
        <ele>365</ele>
        <time>2016-07-17T09:21:33.000Z</time>
      </trkpt>
      <trkpt lat="47.56418" lon="6.73949">
        <ele>365</ele>
        <time>2016-07-17T09:21:34.000Z</time>
      </trkpt>
      <trkpt lat="47.56414" lon="6.73949">
        <ele>371</ele>
        <time>2016-07-17T09:21:36.000Z</time>
      </trkpt>
      <trkpt lat="47.56412" lon="6.7395">
        <ele>371</ele>
        <time>2016-07-17T09:21:37.000Z</time>
      </trkpt>
      <trkpt lat="47.56408" lon="6.7395">
        <ele>371</ele>
        <time>2016-07-17T09:21:39.000Z</time>
      </trkpt>
      <trkpt lat="47.56406" lon="6.73951">
        <ele>371</ele>
        <time>2016-07-17T09:21:40.000Z</time>
      </trkpt>
      <trkpt lat="47.56403" lon="6.73952">
        <ele>371</ele>
        <time>2016-07-17T09:21:42.000Z</time>
      </trkpt>
      <trkpt lat="47.56401" lon="6.73952">
        <ele>372</ele>
        <time>2016-07-17T09:21:43.000Z</time>
      </trkpt>
      <trkpt lat="47.56397" lon="6.73954">
        <ele>372</ele>
        <time>2016-07-17T09:21:45.000Z</time>
      </trkpt>
      <trkpt lat="47.56396" lon="6.73955">
        <ele>372</ele>
        <time>2016-07-17T09:21:46.000Z</time>
      </trkpt>
      <trkpt lat="47.56396" lon="6.73962">
        <ele>372</ele>
        <time>2016-07-17T09:21:49.000Z</time>
      </trkpt>
      <trkpt lat="47.56395" lon="6.73964">
        <ele>372</ele>
        <time>2016-07-17T09:21:50.000Z</time>
      </trkpt>
      <trkpt lat="47.56395" lon="6.73967">
        <ele>372</ele>
        <time>2016-07-17T09:21:51.000Z</time>
      </trkpt>
      <trkpt lat="47.56395" lon="6.73971">
        <ele>372</ele>
        <time>2016-07-17T09:21:52.000Z</time>
      </trkpt>
      <trkpt lat="47.56395" lon="6.73977">
        <ele>372</ele>
        <time>2016-07-17T09:21:54.000Z</time>
      </trkpt>
      <trkpt lat="47.56395" lon="6.73979">
        <ele>372</ele>
        <time>2016-07-17T09:21:55.000Z</time>
      </trkpt>
      <trkpt lat="47.56393" lon="6.73984">
        <ele>373</ele>
        <time>2016-07-17T09:21:58.000Z</time>
      </trkpt>
      <trkpt lat="47.56392" lon="6.73985">
        <ele>373</ele>
        <time>2016-07-17T09:21:59.000Z</time>
      </trkpt>
      <trkpt lat="47.56388" lon="6.73988">
        <ele>373</ele>
        <time>2016-07-17T09:22:02.000Z</time>
      </trkpt>
      <trkpt lat="47.56388" lon="6.7399">
        <ele>373</ele>
        <time>2016-07-17T09:22:03.000Z</time>
      </trkpt>
      <trkpt lat="47.56384" lon="6.73994">
        <ele>373</ele>
        <time>2016-07-17T09:22:07.000Z</time>
      </trkpt>
      <trkpt lat="47.56383" lon="6.73995">
        <ele>373</ele>
        <time>2016-07-17T09:22:08.000Z</time>
      </trkpt>
      <trkpt lat="47.5638" lon="6.73997">
        <ele>374</ele>
        <time>2016-07-17T09:22:10.000Z</time>
      </trkpt>
      <trkpt lat="47.56379" lon="6.73998">
        <ele>374</ele>
        <time>2016-07-17T09:22:11.000Z</time>
      </trkpt>
      <trkpt lat="47.56375" lon="6.74001">
        <ele>378</ele>
        <time>2016-07-17T09:22:13.000Z</time>
      </trkpt>
      <trkpt lat="47.56373" lon="6.74003">
        <ele>378</ele>
        <time>2016-07-17T09:22:14.000Z</time>
      </trkpt>
      <trkpt lat="47.5637" lon="6.74006">
        <ele>378</ele>
        <time>2016-07-17T09:22:16.000Z</time>
      </trkpt>
      <trkpt lat="47.56368" lon="6.74007">
        <ele>379</ele>
        <time>2016-07-17T09:22:17.000Z</time>
      </trkpt>
      <trkpt lat="47.56365" lon="6.74009">
        <ele>379</ele>
        <time>2016-07-17T09:22:19.000Z</time>
      </trkpt>
      <trkpt lat="47.56363" lon="6.7401">
        <ele>379</ele>
        <time>2016-07-17T09:22:20.000Z</time>
      </trkpt>
      <trkpt lat="47.5636" lon="6.74013">
        <ele>379</ele>
        <time>2016-07-17T09:22:23.000Z</time>
      </trkpt>
      <trkpt lat="47.56358" lon="6.74014">
        <ele>379</ele>
        <time>2016-07-17T09:22:24.000Z</time>
      </trkpt>
      <trkpt lat="47.56354" lon="6.74016">
        <ele>380</ele>
        <time>2016-07-17T09:22:26.000Z</time>
      </trkpt>
      <trkpt lat="47.56353" lon="6.74017">
        <ele>380</ele>
        <time>2016-07-17T09:22:26.999Z</time>
      </trkpt>
      <trkpt lat="47.56349" lon="6.74018">
        <ele>380</ele>
        <time>2016-07-17T09:22:29.000Z</time>
      </trkpt>
      <trkpt lat="47.56348" lon="6.74019">
        <ele>380</ele>
        <time>2016-07-17T09:22:30.000Z</time>
      </trkpt>
      <trkpt lat="47.56344" lon="6.74022">
        <ele>380</ele>
        <time>2016-07-17T09:22:32.000Z</time>
      </trkpt>
      <trkpt lat="47.56342" lon="6.74023">
        <ele>380</ele>
        <time>2016-07-17T09:22:33.000Z</time>
      </trkpt>
      <trkpt lat="47.56339" lon="6.74025">
        <ele>381</ele>
        <time>2016-07-17T09:22:35.000Z</time>
      </trkpt>
      <trkpt lat="47.56337" lon="6.74026">
        <ele>381</ele>
        <time>2016-07-17T09:22:36.000Z</time>
      </trkpt>
      <trkpt lat="47.56334" lon="6.74029">
        <ele>381</ele>
        <time>2016-07-17T09:22:38.000Z</time>
      </trkpt>
      <trkpt lat="47.56333" lon="6.7403">
        <ele>388</ele>
        <time>2016-07-17T09:22:39.000Z</time>
      </trkpt>
      <trkpt lat="47.5633" lon="6.74033">
        <ele>388</ele>
        <time>2016-07-17T09:22:41.000Z</time>
      </trkpt>
      <trkpt lat="47.56329" lon="6.74034">
        <ele>389</ele>
        <time>2016-07-17T09:22:42.000Z</time>
      </trkpt>
      <trkpt lat="47.56326" lon="6.74039">
        <ele>389</ele>
        <time>2016-07-17T09:22:44.000Z</time>
      </trkpt>
      <trkpt lat="47.56325" lon="6.74041">
        <ele>389</ele>
        <time>2016-07-17T09:22:45.000Z</time>
      </trkpt>
      <trkpt lat="47.56324" lon="6.74046">
        <ele>389</ele>
        <time>2016-07-17T09:22:46.000Z</time>
      </trkpt>
      <trkpt lat="47.56323" lon="6.74049">
        <ele>390</ele>
        <time>2016-07-17T09:22:47.000Z</time>
      </trkpt>
      <trkpt lat="47.56322" lon="6.74052">
        <ele>390</ele>
        <time>2016-07-17T09:22:48.000Z</time>
      </trkpt>
      <trkpt lat="47.56322" lon="6.74055">
        <ele>390</ele>
        <time>2016-07-17T09:22:49.000Z</time>
      </trkpt>
      <trkpt lat="47.56321" lon="6.7406">
        <ele>390</ele>
        <time>2016-07-17T09:22:51.000Z</time>
      </trkpt>
      <trkpt lat="47.5632" lon="6.74063">
        <ele>390</ele>
        <time>2016-07-17T09:22:52.000Z</time>
      </trkpt>
      <trkpt lat="47.56317" lon="6.74065">
        <ele>390</ele>
        <time>2016-07-17T09:22:54.000Z</time>
      </trkpt>
      <trkpt lat="47.56316" lon="6.74066">
        <ele>390</ele>
        <time>2016-07-17T09:22:55.000Z</time>
      </trkpt>
      <trkpt lat="47.56312" lon="6.74068">
        <ele>390</ele>
        <time>2016-07-17T09:22:57.000Z</time>
      </trkpt>
      <trkpt lat="47.5631" lon="6.74069">
        <ele>390</ele>
        <time>2016-07-17T09:22:58.000Z</time>
      </trkpt>
      <trkpt lat="47.56307" lon="6.74071">
        <ele>391</ele>
        <time>2016-07-17T09:23:00.000Z</time>
      </trkpt>
      <trkpt lat="47.56305" lon="6.74072">
        <ele>391</ele>
        <time>2016-07-17T09:23:01.000Z</time>
      </trkpt>
      <trkpt lat="47.56301" lon="6.74075">
        <ele>391</ele>
        <time>2016-07-17T09:23:04.000Z</time>
      </trkpt>
      <trkpt lat="47.563" lon="6.74075">
        <ele>391</ele>
        <time>2016-07-17T09:23:05.000Z</time>
      </trkpt>
      <trkpt lat="47.56296" lon="6.74075">
        <ele>392</ele>
        <time>2016-07-17T09:23:08.000Z</time>
      </trkpt>
      <trkpt lat="47.56295" lon="6.74075">
        <ele>392</ele>
        <time>2016-07-17T09:23:09.001Z</time>
      </trkpt>
      <trkpt lat="47.56292" lon="6.74071">
        <ele>392</ele>
        <time>2016-07-17T09:23:12.000Z</time>
      </trkpt>
      <trkpt lat="47.56291" lon="6.7407">
        <ele>392</ele>
        <time>2016-07-17T09:23:13.000Z</time>
      </trkpt>
      <trkpt lat="47.56288" lon="6.74066">
        <ele>392</ele>
        <time>2016-07-17T09:23:15.001Z</time>
      </trkpt>
      <trkpt lat="47.56287" lon="6.74065">
        <ele>392</ele>
        <time>2016-07-17T09:23:16.000Z</time>
      </trkpt>
      <trkpt lat="47.56283" lon="6.74062">
        <ele>393</ele>
        <time>2016-07-17T09:23:18.000Z</time>
      </trkpt>
      <trkpt lat="47.56282" lon="6.74062">
        <ele>393</ele>
        <time>2016-07-17T09:23:19.000Z</time>
      </trkpt>
      <trkpt lat="47.56278" lon="6.7406">
        <ele>393</ele>
        <time>2016-07-17T09:23:22.999Z</time>
      </trkpt>
      <trkpt lat="47.56277" lon="6.74058">
        <ele>393</ele>
        <time>2016-07-17T09:23:24.000Z</time>
      </trkpt>
      <trkpt lat="47.56275" lon="6.74054">
        <ele>393</ele>
        <time>2016-07-17T09:23:28.000Z</time>
      </trkpt>
      <trkpt lat="47.56274" lon="6.74053">
        <ele>393</ele>
        <time>2016-07-17T09:23:29.000Z</time>
      </trkpt>
      <trkpt lat="47.56271" lon="6.74051">
        <ele>393</ele>
        <time>2016-07-17T09:23:33.000Z</time>
      </trkpt>
      <trkpt lat="47.56269" lon="6.74049">
        <ele>393</ele>
        <time>2016-07-17T09:23:35.000Z</time>
      </trkpt>
      <trkpt lat="47.56267" lon="6.74048">
        <ele>393</ele>
        <time>2016-07-17T09:23:36.000Z</time>
      </trkpt>
      <trkpt lat="47.56264" lon="6.74048">
        <ele>393</ele>
        <time>2016-07-17T09:23:37.000Z</time>
      </trkpt>
      <trkpt lat="47.56262" lon="6.74047">
        <ele>393</ele>
        <time>2016-07-17T09:23:37.999Z</time>
      </trkpt>
      <trkpt lat="47.56259" lon="6.74048">
        <ele>394</ele>
        <time>2016-07-17T09:23:39.000Z</time>
      </trkpt>
      <trkpt lat="47.56255" lon="6.74048">
        <ele>394</ele>
        <time>2016-07-17T09:23:41.001Z</time>
      </trkpt>
      <trkpt lat="47.56254" lon="6.7405">
        <ele>394</ele>
        <time>2016-07-17T09:23:42.000Z</time>
      </trkpt>
      <trkpt lat="47.56251" lon="6.7405">
        <ele>394</ele>
        <time>2016-07-17T09:23:44.000Z</time>
      </trkpt>
      <trkpt lat="47.56249" lon="6.7405">
        <ele>400</ele>
        <time>2016-07-17T09:23:45.000Z</time>
      </trkpt>
      <trkpt lat="47.56245" lon="6.74049">
        <ele>400</ele>
        <time>2016-07-17T09:23:47.000Z</time>
      </trkpt>
      <trkpt lat="47.56243" lon="6.74049">
        <ele>400</ele>
        <time>2016-07-17T09:23:48.000Z</time>
      </trkpt>
      <trkpt lat="47.5624" lon="6.74046">
        <ele>400</ele>
        <time>2016-07-17T09:23:51.000Z</time>
      </trkpt>
      <trkpt lat="47.56239" lon="6.74046">
        <ele>400</ele>
        <time>2016-07-17T09:23:52.000Z</time>
      </trkpt>
      <trkpt lat="47.56237" lon="6.74043">
        <ele>399</ele>
        <time>2016-07-17T09:23:54.000Z</time>
      </trkpt>
      <trkpt lat="47.56235" lon="6.74041">
        <ele>399</ele>
        <time>2016-07-17T09:23:55.000Z</time>
      </trkpt>
      <trkpt lat="47.56233" lon="6.74038">
        <ele>399</ele>
        <time>2016-07-17T09:23:57.000Z</time>
      </trkpt>
      <trkpt lat="47.56231" lon="6.74037">
        <ele>399</ele>
        <time>2016-07-17T09:23:58.000Z</time>
      </trkpt>
      <trkpt lat="47.56227" lon="6.74039">
        <ele>400</ele>
        <time>2016-07-17T09:24:01.000Z</time>
      </trkpt>
      <trkpt lat="47.56227" lon="6.74039">
        <ele>400</ele>
        <time>2016-07-17T09:24:02.000Z</time>
      </trkpt>
      <trkpt lat="47.56223" lon="6.74042">
        <ele>400</ele>
        <time>2016-07-17T09:24:05.000Z</time>
      </trkpt>
      <trkpt lat="47.56221" lon="6.74044">
        <ele>400</ele>
        <time>2016-07-17T09:24:06.000Z</time>
      </trkpt>
      <trkpt lat="47.56217" lon="6.74046">
        <ele>400</ele>
        <time>2016-07-17T09:24:08.000Z</time>
      </trkpt>
      <trkpt lat="47.56214" lon="6.74046">
        <ele>400</ele>
        <time>2016-07-17T09:24:09.000Z</time>
      </trkpt>
      <trkpt lat="47.56211" lon="6.74045">
        <ele>400</ele>
        <time>2016-07-17T09:24:10.999Z</time>
      </trkpt>
      <trkpt lat="47.56208" lon="6.74045">
        <ele>400</ele>
        <time>2016-07-17T09:24:12.000Z</time>
      </trkpt>
      <trkpt lat="47.56205" lon="6.74047">
        <ele>401</ele>
        <time>2016-07-17T09:24:13.999Z</time>
      </trkpt>
      <trkpt lat="47.56204" lon="6.74051">
        <ele>401</ele>
        <time>2016-07-17T09:24:15.000Z</time>
      </trkpt>
      <trkpt lat="47.56202" lon="6.74057">
        <ele>401</ele>
        <time>2016-07-17T09:24:17.000Z</time>
      </trkpt>
      <trkpt lat="47.56201" lon="6.74059">
        <ele>401</ele>
        <time>2016-07-17T09:24:18.000Z</time>
      </trkpt>
      <trkpt lat="47.56199" lon="6.74064">
        <ele>401</ele>
        <time>2016-07-17T09:24:21.000Z</time>
      </trkpt>
      <trkpt lat="47.56199" lon="6.74065">
        <ele>401</ele>
        <time>2016-07-17T09:24:22.000Z</time>
      </trkpt>
      <trkpt lat="47.56196" lon="6.74071">
        <ele>402</ele>
        <time>2016-07-17T09:24:26.000Z</time>
      </trkpt>
      <trkpt lat="47.56195" lon="6.74071">
        <ele>402</ele>
        <time>2016-07-17T09:24:27.000Z</time>
      </trkpt>
      <trkpt lat="47.56194" lon="6.74075">
        <ele>402</ele>
        <time>2016-07-17T09:24:31.001Z</time>
      </trkpt>
      <trkpt lat="47.56192" lon="6.74079">
        <ele>402</ele>
        <time>2016-07-17T09:24:32.000Z</time>
      </trkpt>
      <trkpt lat="47.56189" lon="6.74084">
        <ele>406</ele>
        <time>2016-07-17T09:24:34.000Z</time>
      </trkpt>
      <trkpt lat="47.56189" lon="6.74086">
        <ele>406</ele>
        <time>2016-07-17T09:24:35.000Z</time>
      </trkpt>
      <trkpt lat="47.56185" lon="6.7409">
        <ele>406</ele>
        <time>2016-07-17T09:24:41.000Z</time>
      </trkpt>
      <trkpt lat="47.56185" lon="6.74091">
        <ele>406</ele>
        <time>2016-07-17T09:24:42.000Z</time>
      </trkpt>
      <trkpt lat="47.56183" lon="6.74096">
        <ele>407</ele>
        <time>2016-07-17T09:24:51.000Z</time>
      </trkpt>
      <trkpt lat="47.56182" lon="6.74097">
        <ele>407</ele>
        <time>2016-07-17T09:24:52.000Z</time>
      </trkpt>
      <trkpt lat="47.56181" lon="6.74102">
        <ele>407</ele>
        <time>2016-07-17T09:25:00.000Z</time>
      </trkpt>
      <trkpt lat="47.56181" lon="6.74103">
        <ele>407</ele>
        <time>2016-07-17T09:25:01.000Z</time>
      </trkpt>
      <trkpt lat="47.5618" lon="6.74109">
        <ele>408</ele>
        <time>2016-07-17T09:25:04.000Z</time>
      </trkpt>
      <trkpt lat="47.5618" lon="6.74111">
        <ele>408</ele>
        <time>2016-07-17T09:25:05.000Z</time>
      </trkpt>
      <trkpt lat="47.56177" lon="6.74116">
        <ele>408</ele>
        <time>2016-07-17T09:25:08.000Z</time>
      </trkpt>
      <trkpt lat="47.56176" lon="6.74118">
        <ele>408</ele>
        <time>2016-07-17T09:25:09.000Z</time>
      </trkpt>
      <trkpt lat="47.56174" lon="6.74123">
        <ele>409</ele>
        <time>2016-07-17T09:25:13.000Z</time>
      </trkpt>
      <trkpt lat="47.56173" lon="6.74124">
        <ele>409</ele>
        <time>2016-07-17T09:25:14.000Z</time>
      </trkpt>
      <trkpt lat="47.56169" lon="6.74128">
        <ele>409</ele>
        <time>2016-07-17T09:25:18.000Z</time>
      </trkpt>
      <trkpt lat="47.56169" lon="6.7413">
        <ele>410</ele>
        <time>2016-07-17T09:25:19.000Z</time>
      </trkpt>
      <trkpt lat="47.56167" lon="6.74134">
        <ele>410</ele>
        <time>2016-07-17T09:25:22.000Z</time>
      </trkpt>
      <trkpt lat="47.56166" lon="6.74137">
        <ele>412</ele>
        <time>2016-07-17T09:25:23.000Z</time>
      </trkpt>
      <trkpt lat="47.56165" lon="6.74141">
        <ele>412</ele>
        <time>2016-07-17T09:25:25.000Z</time>
      </trkpt>
      <trkpt lat="47.56164" lon="6.74143">
        <ele>413</ele>
        <time>2016-07-17T09:25:26.000Z</time>
      </trkpt>
      <trkpt lat="47.56162" lon="6.74149">
        <ele>413</ele>
        <time>2016-07-17T09:25:30.000Z</time>
      </trkpt>
      <trkpt lat="47.56162" lon="6.7415">
        <ele>414</ele>
        <time>2016-07-17T09:25:31.000Z</time>
      </trkpt>
      <trkpt lat="47.56159" lon="6.74153">
        <ele>414</ele>
        <time>2016-07-17T09:25:35.000Z</time>
      </trkpt>
      <trkpt lat="47.56158" lon="6.74154">
        <ele>414</ele>
        <time>2016-07-17T09:25:36.000Z</time>
      </trkpt>
      <trkpt lat="47.56153" lon="6.74155">
        <ele>414</ele>
        <time>2016-07-17T09:25:39.000Z</time>
      </trkpt>
      <trkpt lat="47.56152" lon="6.74155">
        <ele>413</ele>
        <time>2016-07-17T09:25:40.000Z</time>
      </trkpt>
      <trkpt lat="47.56148" lon="6.74158">
        <ele>413</ele>
        <time>2016-07-17T09:25:43.000Z</time>
      </trkpt>
      <trkpt lat="47.56146" lon="6.74159">
        <ele>413</ele>
        <time>2016-07-17T09:25:44.000Z</time>
      </trkpt>
      <trkpt lat="47.56142" lon="6.74161">
        <ele>413</ele>
        <time>2016-07-17T09:25:46.000Z</time>
      </trkpt>
      <trkpt lat="47.56141" lon="6.74162">
        <ele>413</ele>
        <time>2016-07-17T09:25:47.000Z</time>
      </trkpt>
      <trkpt lat="47.56137" lon="6.74165">
        <ele>413</ele>
        <time>2016-07-17T09:25:49.000Z</time>
      </trkpt>
      <trkpt lat="47.56135" lon="6.74167">
        <ele>418</ele>
        <time>2016-07-17T09:25:50.000Z</time>
      </trkpt>
      <trkpt lat="47.56134" lon="6.7417">
        <ele>418</ele>
        <time>2016-07-17T09:25:51.000Z</time>
      </trkpt>
      <trkpt lat="47.56133" lon="6.74173">
        <ele>418</ele>
        <time>2016-07-17T09:25:52.000Z</time>
      </trkpt>
      <trkpt lat="47.56131" lon="6.74176">
        <ele>418</ele>
        <time>2016-07-17T09:25:53.000Z</time>
      </trkpt>
      <trkpt lat="47.5613" lon="6.74179">
        <ele>418</ele>
        <time>2016-07-17T09:25:54.000Z</time>
      </trkpt>
      <trkpt lat="47.56127" lon="6.74183">
        <ele>418</ele>
        <time>2016-07-17T09:25:56.000Z</time>
      </trkpt>
      <trkpt lat="47.56126" lon="6.74185">
        <ele>418</ele>
        <time>2016-07-17T09:25:57.000Z</time>
      </trkpt>
      <trkpt lat="47.56122" lon="6.74186">
        <ele>418</ele>
        <time>2016-07-17T09:26:00.000Z</time>
      </trkpt>
      <trkpt lat="47.56121" lon="6.74186">
        <ele>418</ele>
        <time>2016-07-17T09:26:01.000Z</time>
      </trkpt>
      <trkpt lat="47.56118" lon="6.74189">
        <ele>418</ele>
        <time>2016-07-17T09:26:03.000Z</time>
      </trkpt>
      <trkpt lat="47.56116" lon="6.7419">
        <ele>418</ele>
        <time>2016-07-17T09:26:04.000Z</time>
      </trkpt>
      <trkpt lat="47.56114" lon="6.74193">
        <ele>418</ele>
        <time>2016-07-17T09:26:06.000Z</time>
      </trkpt>
      <trkpt lat="47.56112" lon="6.74194">
        <ele>418</ele>
        <time>2016-07-17T09:26:07.000Z</time>
      </trkpt>
      <trkpt lat="47.56109" lon="6.74196">
        <ele>418</ele>
        <time>2016-07-17T09:26:09.000Z</time>
      </trkpt>
      <trkpt lat="47.56107" lon="6.74196">
        <ele>418</ele>
        <time>2016-07-17T09:26:10.000Z</time>
      </trkpt>
      <trkpt lat="47.56104" lon="6.74196">
        <ele>417</ele>
        <time>2016-07-17T09:26:12.000Z</time>
      </trkpt>
      <trkpt lat="47.56103" lon="6.74195">
        <ele>417</ele>
        <time>2016-07-17T09:26:13.000Z</time>
      </trkpt>
      <trkpt lat="47.56099" lon="6.74196">
        <ele>417</ele>
        <time>2016-07-17T09:26:15.999Z</time>
      </trkpt>
      <trkpt lat="47.56096" lon="6.74197">
        <ele>417</ele>
        <time>2016-07-17T09:26:17.000Z</time>
      </trkpt>
      <trkpt lat="47.56092" lon="6.74197">
        <ele>417</ele>
        <time>2016-07-17T09:26:19.000Z</time>
      </trkpt>
      <trkpt lat="47.5609" lon="6.74198">
        <ele>417</ele>
        <time>2016-07-17T09:26:20.000Z</time>
      </trkpt>
      <trkpt lat="47.56087" lon="6.74199">
        <ele>417</ele>
        <time>2016-07-17T09:26:22.000Z</time>
      </trkpt>
      <trkpt lat="47.56085" lon="6.74201">
        <ele>417</ele>
        <time>2016-07-17T09:26:23.001Z</time>
      </trkpt>
      <trkpt lat="47.56081" lon="6.74203">
        <ele>416</ele>
        <time>2016-07-17T09:26:25.000Z</time>
      </trkpt>
      <trkpt lat="47.5608" lon="6.74204">
        <ele>416</ele>
        <time>2016-07-17T09:26:26.001Z</time>
      </trkpt>
      <trkpt lat="47.56078" lon="6.74206">
        <ele>416</ele>
        <time>2016-07-17T09:26:27.000Z</time>
      </trkpt>
      <trkpt lat="47.56076" lon="6.74208">
        <ele>416</ele>
        <time>2016-07-17T09:26:28.000Z</time>
      </trkpt>
      <trkpt lat="47.56074" lon="6.74208">
        <ele>416</ele>
        <time>2016-07-17T09:26:29.001Z</time>
      </trkpt>
      <trkpt lat="47.56071" lon="6.74209">
        <ele>417</ele>
        <time>2016-07-17T09:26:30.000Z</time>
      </trkpt>
      <trkpt lat="47.56068" lon="6.7421">
        <ele>417</ele>
        <time>2016-07-17T09:26:31.000Z</time>
      </trkpt>
      <trkpt lat="47.56066" lon="6.74211">
        <ele>417</ele>
        <time>2016-07-17T09:26:32.000Z</time>
      </trkpt>
      <trkpt lat="47.56064" lon="6.74212">
        <ele>417</ele>
        <time>2016-07-17T09:26:33.000Z</time>
      </trkpt>
      <trkpt lat="47.56061" lon="6.74213">
        <ele>417</ele>
        <time>2016-07-17T09:26:34.000Z</time>
      </trkpt>
      <trkpt lat="47.56057" lon="6.74216">
        <ele>417</ele>
        <time>2016-07-17T09:26:36.000Z</time>
      </trkpt>
      <trkpt lat="47.56055" lon="6.74217">
        <ele>417</ele>
        <time>2016-07-17T09:26:37.000Z</time>
      </trkpt>
      <trkpt lat="47.56053" lon="6.74218">
        <ele>417</ele>
        <time>2016-07-17T09:26:38.000Z</time>
      </trkpt>
      <trkpt lat="47.56051" lon="6.74219">
        <ele>417</ele>
        <time>2016-07-17T09:26:39.000Z</time>
      </trkpt>
      <trkpt lat="47.56048" lon="6.74219">
        <ele>417</ele>
        <time>2016-07-17T09:26:40.000Z</time>
      </trkpt>
      <trkpt lat="47.56046" lon="6.7422">
        <ele>417</ele>
        <time>2016-07-17T09:26:41.000Z</time>
      </trkpt>
      <trkpt lat="47.56041" lon="6.74222">
        <ele>417</ele>
        <time>2016-07-17T09:26:46.000Z</time>
      </trkpt>
      <trkpt lat="47.5604" lon="6.74223">
        <ele>417</ele>
        <time>2016-07-17T09:26:47.000Z</time>
      </trkpt>
      <trkpt lat="47.56039" lon="6.74223">
        <ele>417</ele>
        <time>2016-07-17T09:26:48.000Z</time>
      </trkpt>
      <trkpt lat="47.56035" lon="6.74225">
        <ele>417</ele>
        <time>2016-07-17T09:26:49.000Z</time>
      </trkpt>
      <trkpt lat="47.56032" lon="6.74226">
        <ele>417</ele>
        <time>2016-07-17T09:26:50.000Z</time>
      </trkpt>
      <trkpt lat="47.56029" lon="6.74227">
        <ele>417</ele>
        <time>2016-07-17T09:26:51.000Z</time>
      </trkpt>
      <trkpt lat="47.56026" lon="6.74228">
        <ele>417</ele>
        <time>2016-07-17T09:26:52.000Z</time>
      </trkpt>
      <trkpt lat="47.56024" lon="6.74228">
        <ele>417</ele>
        <time>2016-07-17T09:26:53.000Z</time>
      </trkpt>
      <trkpt lat="47.56019" lon="6.74228">
        <ele>417</ele>
        <time>2016-07-17T09:26:55.000Z</time>
      </trkpt>
      <trkpt lat="47.56017" lon="6.74227">
        <ele>417</ele>
        <time>2016-07-17T09:26:56.000Z</time>
      </trkpt>
      <trkpt lat="47.56014" lon="6.74226">
        <ele>417</ele>
        <time>2016-07-17T09:26:57.000Z</time>
      </trkpt>
      <trkpt lat="47.56011" lon="6.74226">
        <ele>417</ele>
        <time>2016-07-17T09:26:58.000Z</time>
      </trkpt>
      <trkpt lat="47.56007" lon="6.74225">
        <ele>417</ele>
        <time>2016-07-17T09:26:59.000Z</time>
      </trkpt>
      <trkpt lat="47.56005" lon="6.74224">
        <ele>417</ele>
        <time>2016-07-17T09:27:00.000Z</time>
      </trkpt>
      <trkpt lat="47.56001" lon="6.74224">
        <ele>417</ele>
        <time>2016-07-17T09:27:01.001Z</time>
      </trkpt>
      <trkpt lat="47.55999" lon="6.74225">
        <ele>417</ele>
        <time>2016-07-17T09:27:02.000Z</time>
      </trkpt>
      <trkpt lat="47.55996" lon="6.74229">
        <ele>417</ele>
        <time>2016-07-17T09:27:04.000Z</time>
      </trkpt>
      <trkpt lat="47.55994" lon="6.74231">
        <ele>418</ele>
        <time>2016-07-17T09:27:05.000Z</time>
      </trkpt>
      <trkpt lat="47.55992" lon="6.74233">
        <ele>418</ele>
        <time>2016-07-17T09:27:06.000Z</time>
      </trkpt>
      <trkpt lat="47.55989" lon="6.74236">
        <ele>418</ele>
        <time>2016-07-17T09:27:07.000Z</time>
      </trkpt>
      <trkpt lat="47.55987" lon="6.74237">
        <ele>418</ele>
        <time>2016-07-17T09:27:08.000Z</time>
      </trkpt>
      <trkpt lat="47.55984" lon="6.74237">
        <ele>418</ele>
        <time>2016-07-17T09:27:09.000Z</time>
      </trkpt>
      <trkpt lat="47.55981" lon="6.74237">
        <ele>418</ele>
        <time>2016-07-17T09:27:10.000Z</time>
      </trkpt>
      <trkpt lat="47.55978" lon="6.74237">
        <ele>417</ele>
        <time>2016-07-17T09:27:11.000Z</time>
      </trkpt>
      <trkpt lat="47.55975" lon="6.74237">
        <ele>417</ele>
        <time>2016-07-17T09:27:12.000Z</time>
      </trkpt>
      <trkpt lat="47.55972" lon="6.74237">
        <ele>417</ele>
        <time>2016-07-17T09:27:12.999Z</time>
      </trkpt>
      <trkpt lat="47.5597" lon="6.74239">
        <ele>417</ele>
        <time>2016-07-17T09:27:14.000Z</time>
      </trkpt>
      <trkpt lat="47.55968" lon="6.7424">
        <ele>417</ele>
        <time>2016-07-17T09:27:15.000Z</time>
      </trkpt>
      <trkpt lat="47.55964" lon="6.7424">
        <ele>417</ele>
        <time>2016-07-17T09:27:17.000Z</time>
      </trkpt>
      <trkpt lat="47.55962" lon="6.7424">
        <ele>417</ele>
        <time>2016-07-17T09:27:18.000Z</time>
      </trkpt>
      <trkpt lat="47.55958" lon="6.74242">
        <ele>417</ele>
        <time>2016-07-17T09:27:20.000Z</time>
      </trkpt>
      <trkpt lat="47.55956" lon="6.74243">
        <ele>417</ele>
        <time>2016-07-17T09:27:21.000Z</time>
      </trkpt>
      <trkpt lat="47.55954" lon="6.74244">
        <ele>417</ele>
        <time>2016-07-17T09:27:22.000Z</time>
      </trkpt>
      <trkpt lat="47.55951" lon="6.74245">
        <ele>417</ele>
        <time>2016-07-17T09:27:23.000Z</time>
      </trkpt>
      <trkpt lat="47.55947" lon="6.74247">
        <ele>418</ele>
        <time>2016-07-17T09:27:25.000Z</time>
      </trkpt>
      <trkpt lat="47.55945" lon="6.74249">
        <ele>418</ele>
        <time>2016-07-17T09:27:26.000Z</time>
      </trkpt>
      <trkpt lat="47.55943" lon="6.7425">
        <ele>418</ele>
        <time>2016-07-17T09:27:27.000Z</time>
      </trkpt>
      <trkpt lat="47.5594" lon="6.74251">
        <ele>419</ele>
        <time>2016-07-17T09:27:28.000Z</time>
      </trkpt>
      <trkpt lat="47.55937" lon="6.74253">
        <ele>419</ele>
        <time>2016-07-17T09:27:29.000Z</time>
      </trkpt>
      <trkpt lat="47.55934" lon="6.74253">
        <ele>419</ele>
        <time>2016-07-17T09:27:30.000Z</time>
      </trkpt>
      <trkpt lat="47.5593" lon="6.74254">
        <ele>419</ele>
        <time>2016-07-17T09:27:31.000Z</time>
      </trkpt>
      <trkpt lat="47.55927" lon="6.74255">
        <ele>419</ele>
        <time>2016-07-17T09:27:32.000Z</time>
      </trkpt>
      <trkpt lat="47.55925" lon="6.74257">
        <ele>419</ele>
        <time>2016-07-17T09:27:33.000Z</time>
      </trkpt>
      <trkpt lat="47.55922" lon="6.74258">
        <ele>419</ele>
        <time>2016-07-17T09:27:34.000Z</time>
      </trkpt>
      <trkpt lat="47.55919" lon="6.74259">
        <ele>419</ele>
        <time>2016-07-17T09:27:35.000Z</time>
      </trkpt>
      <trkpt lat="47.55917" lon="6.74259">
        <ele>419</ele>
        <time>2016-07-17T09:27:36.000Z</time>
      </trkpt>
      <trkpt lat="47.55914" lon="6.74259">
        <ele>419</ele>
        <time>2016-07-17T09:27:37.000Z</time>
      </trkpt>
      <trkpt lat="47.55912" lon="6.74259">
        <ele>419</ele>
        <time>2016-07-17T09:27:38.000Z</time>
      </trkpt>
      <trkpt lat="47.55909" lon="6.7426">
        <ele>419</ele>
        <time>2016-07-17T09:27:39.000Z</time>
      </trkpt>
      <trkpt lat="47.55907" lon="6.7426">
        <ele>419</ele>
        <time>2016-07-17T09:27:40.000Z</time>
      </trkpt>
      <trkpt lat="47.55905" lon="6.74261">
        <ele>419</ele>
        <time>2016-07-17T09:27:41.000Z</time>
      </trkpt>
      <trkpt lat="47.55902" lon="6.74263">
        <ele>419</ele>
        <time>2016-07-17T09:27:42.000Z</time>
      </trkpt>
      <trkpt lat="47.55898" lon="6.74263">
        <ele>419</ele>
        <time>2016-07-17T09:27:44.000Z</time>
      </trkpt>
      <trkpt lat="47.55896" lon="6.74262">
        <ele>419</ele>
        <time>2016-07-17T09:27:45.000Z</time>
      </trkpt>
      <trkpt lat="47.55896" lon="6.74258">
        <ele>419</ele>
        <time>2016-07-17T09:28:04.000Z</time>
      </trkpt>
      <trkpt lat="47.55895" lon="6.74255">
        <ele>419</ele>
        <time>2016-07-17T09:28:05.000Z</time>
      </trkpt>
      <trkpt lat="47.55894" lon="6.74251">
        <ele>419</ele>
        <time>2016-07-17T09:28:06.000Z</time>
      </trkpt>
      <trkpt lat="47.55893" lon="6.74246">
        <ele>417</ele>
        <time>2016-07-17T09:28:07.000Z</time>
      </trkpt>
      <trkpt lat="47.55892" lon="6.74241">
        <ele>417</ele>
        <time>2016-07-17T09:28:08.000Z</time>
      </trkpt>
      <trkpt lat="47.55892" lon="6.74235">
        <ele>417</ele>
        <time>2016-07-17T09:28:09.000Z</time>
      </trkpt>
      <trkpt lat="47.55891" lon="6.7423">
        <ele>417</ele>
        <time>2016-07-17T09:28:10.000Z</time>
      </trkpt>
      <trkpt lat="47.5589" lon="6.74224">
        <ele>417</ele>
        <time>2016-07-17T09:28:11.000Z</time>
      </trkpt>
      <trkpt lat="47.5589" lon="6.74219">
        <ele>417</ele>
        <time>2016-07-17T09:28:12.000Z</time>
      </trkpt>
      <trkpt lat="47.55889" lon="6.74214">
        <ele>416</ele>
        <time>2016-07-17T09:28:13.000Z</time>
      </trkpt>
      <trkpt lat="47.55888" lon="6.74209">
        <ele>416</ele>
        <time>2016-07-17T09:28:14.000Z</time>
      </trkpt>
      <trkpt lat="47.55888" lon="6.74205">
        <ele>416</ele>
        <time>2016-07-17T09:28:15.000Z</time>
      </trkpt>
      <trkpt lat="47.55887" lon="6.742">
        <ele>416</ele>
        <time>2016-07-17T09:28:16.000Z</time>
      </trkpt>
      <trkpt lat="47.55887" lon="6.74195">
        <ele>416</ele>
        <time>2016-07-17T09:28:17.000Z</time>
      </trkpt>
      <trkpt lat="47.55886" lon="6.7419">
        <ele>416</ele>
        <time>2016-07-17T09:28:18.000Z</time>
      </trkpt>
      <trkpt lat="47.55885" lon="6.74184">
        <ele>416</ele>
        <time>2016-07-17T09:28:19.000Z</time>
      </trkpt>
      <trkpt lat="47.55884" lon="6.74179">
        <ele>416</ele>
        <time>2016-07-17T09:28:20.000Z</time>
      </trkpt>
      <trkpt lat="47.55883" lon="6.74173">
        <ele>415</ele>
        <time>2016-07-17T09:28:21.000Z</time>
      </trkpt>
      <trkpt lat="47.55882" lon="6.74168">
        <ele>415</ele>
        <time>2016-07-17T09:28:22.000Z</time>
      </trkpt>
      <trkpt lat="47.55881" lon="6.74162">
        <ele>413</ele>
        <time>2016-07-17T09:28:23.000Z</time>
      </trkpt>
      <trkpt lat="47.5588" lon="6.74156">
        <ele>413</ele>
        <time>2016-07-17T09:28:24.000Z</time>
      </trkpt>
      <trkpt lat="47.55879" lon="6.7415">
        <ele>413</ele>
        <time>2016-07-17T09:28:25.000Z</time>
      </trkpt>
      <trkpt lat="47.55878" lon="6.74144">
        <ele>413</ele>
        <time>2016-07-17T09:28:26.000Z</time>
      </trkpt>
      <trkpt lat="47.55877" lon="6.74137">
        <ele>413</ele>
        <time>2016-07-17T09:28:27.000Z</time>
      </trkpt>
      <trkpt lat="47.55876" lon="6.74131">
        <ele>413</ele>
        <time>2016-07-17T09:28:28.000Z</time>
      </trkpt>
      <trkpt lat="47.55876" lon="6.74125">
        <ele>412</ele>
        <time>2016-07-17T09:28:29.000Z</time>
      </trkpt>
      <trkpt lat="47.55875" lon="6.74119">
        <ele>412</ele>
        <time>2016-07-17T09:28:30.000Z</time>
      </trkpt>
      <trkpt lat="47.55875" lon="6.74114">
        <ele>412</ele>
        <time>2016-07-17T09:28:31.000Z</time>
      </trkpt>
      <trkpt lat="47.55874" lon="6.74108">
        <ele>412</ele>
        <time>2016-07-17T09:28:32.000Z</time>
      </trkpt>
      <trkpt lat="47.55874" lon="6.74103">
        <ele>412</ele>
        <time>2016-07-17T09:28:33.000Z</time>
      </trkpt>
      <trkpt lat="47.55873" lon="6.74097">
        <ele>412</ele>
        <time>2016-07-17T09:28:34.000Z</time>
      </trkpt>
      <trkpt lat="47.55872" lon="6.74092">
        <ele>412</ele>
        <time>2016-07-17T09:28:35.000Z</time>
      </trkpt>
      <trkpt lat="47.55871" lon="6.74086">
        <ele>412</ele>
        <time>2016-07-17T09:28:36.000Z</time>
      </trkpt>
      <trkpt lat="47.55871" lon="6.74079">
        <ele>410</ele>
        <time>2016-07-17T09:28:37.000Z</time>
      </trkpt>
      <trkpt lat="47.5587" lon="6.74073">
        <ele>410</ele>
        <time>2016-07-17T09:28:38.000Z</time>
      </trkpt>
      <trkpt lat="47.55869" lon="6.74066">
        <ele>410</ele>
        <time>2016-07-17T09:28:39.000Z</time>
      </trkpt>
      <trkpt lat="47.55868" lon="6.74061">
        <ele>410</ele>
        <time>2016-07-17T09:28:40.000Z</time>
      </trkpt>
      <trkpt lat="47.55866" lon="6.74054">
        <ele>410</ele>
        <time>2016-07-17T09:28:41.000Z</time>
      </trkpt>
      <trkpt lat="47.55865" lon="6.74048">
        <ele>409</ele>
        <time>2016-07-17T09:28:42.000Z</time>
      </trkpt>
      <trkpt lat="47.55864" lon="6.74041">
        <ele>409</ele>
        <time>2016-07-17T09:28:43.000Z</time>
      </trkpt>
      <trkpt lat="47.55863" lon="6.74034">
        <ele>409</ele>
        <time>2016-07-17T09:28:44.000Z</time>
      </trkpt>
      <trkpt lat="47.55863" lon="6.74027">
        <ele>409</ele>
        <time>2016-07-17T09:28:45.000Z</time>
      </trkpt>
      <trkpt lat="47.55861" lon="6.74022">
        <ele>409</ele>
        <time>2016-07-17T09:28:46.000Z</time>
      </trkpt>
      <trkpt lat="47.55861" lon="6.74015">
        <ele>409</ele>
        <time>2016-07-17T09:28:47.000Z</time>
      </trkpt>
      <trkpt lat="47.5586" lon="6.74009">
        <ele>409</ele>
        <time>2016-07-17T09:28:48.000Z</time>
      </trkpt>
      <trkpt lat="47.55858" lon="6.74003">
        <ele>409</ele>
        <time>2016-07-17T09:28:49.000Z</time>
      </trkpt>
      <trkpt lat="47.55859" lon="6.73993">
        <ele>406</ele>
        <time>2016-07-17T09:28:50.000Z</time>
      </trkpt>
      <trkpt lat="47.55858" lon="6.73986">
        <ele>406</ele>
        <time>2016-07-17T09:28:51.000Z</time>
      </trkpt>
      <trkpt lat="47.55856" lon="6.73977">
        <ele>406</ele>
        <time>2016-07-17T09:28:52.000Z</time>
      </trkpt>
      <trkpt lat="47.55855" lon="6.73968">
        <ele>406</ele>
        <time>2016-07-17T09:28:53.000Z</time>
      </trkpt>
      <trkpt lat="47.55854" lon="6.73961">
        <ele>405</ele>
        <time>2016-07-17T09:28:54.000Z</time>
      </trkpt>
      <trkpt lat="47.55851" lon="6.73953">
        <ele>405</ele>
        <time>2016-07-17T09:28:55.000Z</time>
      </trkpt>
      <trkpt lat="47.55849" lon="6.73946">
        <ele>405</ele>
        <time>2016-07-17T09:28:56.000Z</time>
      </trkpt>
      <trkpt lat="47.55847" lon="6.73937">
        <ele>404</ele>
        <time>2016-07-17T09:28:57.000Z</time>
      </trkpt>
      <trkpt lat="47.55845" lon="6.7393">
        <ele>404</ele>
        <time>2016-07-17T09:28:58.000Z</time>
      </trkpt>
      <trkpt lat="47.55844" lon="6.73921">
        <ele>404</ele>
        <time>2016-07-17T09:28:59.000Z</time>
      </trkpt>
      <trkpt lat="47.55843" lon="6.73912">
        <ele>402</ele>
        <time>2016-07-17T09:29:00.000Z</time>
      </trkpt>
      <trkpt lat="47.55843" lon="6.73903">
        <ele>402</ele>
        <time>2016-07-17T09:29:01.000Z</time>
      </trkpt>
      <trkpt lat="47.55841" lon="6.73895">
        <ele>402</ele>
        <time>2016-07-17T09:29:02.000Z</time>
      </trkpt>
      <trkpt lat="47.5584" lon="6.73887">
        <ele>401</ele>
        <time>2016-07-17T09:29:03.000Z</time>
      </trkpt>
      <trkpt lat="47.55839" lon="6.7388">
        <ele>401</ele>
        <time>2016-07-17T09:29:04.000Z</time>
      </trkpt>
      <trkpt lat="47.55838" lon="6.73874">
        <ele>401</ele>
        <time>2016-07-17T09:29:05.000Z</time>
      </trkpt>
      <trkpt lat="47.55834" lon="6.73871">
        <ele>400</ele>
        <time>2016-07-17T09:29:06.000Z</time>
      </trkpt>
      <trkpt lat="47.55831" lon="6.73868">
        <ele>401</ele>
        <time>2016-07-17T09:29:07.000Z</time>
      </trkpt>
      <trkpt lat="47.55827" lon="6.73867">
        <ele>401</ele>
        <time>2016-07-17T09:29:08.000Z</time>
      </trkpt>
      <trkpt lat="47.55823" lon="6.73866">
        <ele>401</ele>
        <time>2016-07-17T09:29:09.000Z</time>
      </trkpt>
      <trkpt lat="47.55822" lon="6.73867">
        <ele>401</ele>
        <time>2016-07-17T09:29:10.000Z</time>
      </trkpt>
      <trkpt lat="47.55819" lon="6.73868">
        <ele>401</ele>
        <time>2016-07-17T09:29:11.000Z</time>
      </trkpt>
      <trkpt lat="47.55817" lon="6.73869">
        <ele>401</ele>
        <time>2016-07-17T09:29:12.000Z</time>
      </trkpt>
      <trkpt lat="47.55813" lon="6.73869">
        <ele>401</ele>
        <time>2016-07-17T09:29:13.000Z</time>
      </trkpt>
      <trkpt lat="47.5581" lon="6.7387">
        <ele>401</ele>
        <time>2016-07-17T09:29:14.000Z</time>
      </trkpt>
      <trkpt lat="47.55806" lon="6.7387">
        <ele>402</ele>
        <time>2016-07-17T09:29:15.000Z</time>
      </trkpt>
      <trkpt lat="47.55802" lon="6.7387">
        <ele>402</ele>
        <time>2016-07-17T09:29:16.000Z</time>
      </trkpt>
      <trkpt lat="47.55797" lon="6.73869">
        <ele>402</ele>
        <time>2016-07-17T09:29:17.000Z</time>
      </trkpt>
      <trkpt lat="47.55793" lon="6.73869">
        <ele>402</ele>
        <time>2016-07-17T09:29:18.000Z</time>
      </trkpt>
      <trkpt lat="47.55789" lon="6.73869">
        <ele>402</ele>
        <time>2016-07-17T09:29:19.000Z</time>
      </trkpt>
      <trkpt lat="47.55785" lon="6.73869">
        <ele>402</ele>
        <time>2016-07-17T09:29:20.000Z</time>
      </trkpt>
      <trkpt lat="47.55782" lon="6.7387">
        <ele>402</ele>
        <time>2016-07-17T09:29:21.000Z</time>
      </trkpt>
      <trkpt lat="47.55778" lon="6.7387">
        <ele>402</ele>
        <time>2016-07-17T09:29:22.000Z</time>
      </trkpt>
      <trkpt lat="47.55775" lon="6.7387">
        <ele>402</ele>
        <time>2016-07-17T09:29:23.000Z</time>
      </trkpt>
      <trkpt lat="47.55771" lon="6.73871">
        <ele>402</ele>
        <time>2016-07-17T09:29:24.000Z</time>
      </trkpt>
      <trkpt lat="47.55768" lon="6.73872">
        <ele>402</ele>
        <time>2016-07-17T09:29:25.000Z</time>
      </trkpt>
      <trkpt lat="47.55766" lon="6.73873">
        <ele>402</ele>
        <time>2016-07-17T09:29:26.000Z</time>
      </trkpt>
      <trkpt lat="47.55763" lon="6.73874">
        <ele>402</ele>
        <time>2016-07-17T09:29:27.000Z</time>
      </trkpt>
      <trkpt lat="47.55761" lon="6.73876">
        <ele>403</ele>
        <time>2016-07-17T09:29:28.000Z</time>
      </trkpt>
      <trkpt lat="47.5576" lon="6.73878">
        <ele>403</ele>
        <time>2016-07-17T09:29:29.000Z</time>
      </trkpt>
      <trkpt lat="47.55758" lon="6.7388">
        <ele>403</ele>
        <time>2016-07-17T09:29:30.000Z</time>
      </trkpt>
      <trkpt lat="47.55754" lon="6.73883">
        <ele>403</ele>
        <time>2016-07-17T09:29:32.000Z</time>
      </trkpt>
      <trkpt lat="47.55753" lon="6.73884">
        <ele>403</ele>
        <time>2016-07-17T09:29:33.000Z</time>
      </trkpt>
      <trkpt lat="47.5575" lon="6.73887">
        <ele>405</ele>
        <time>2016-07-17T09:29:35.000Z</time>
      </trkpt>
      <trkpt lat="47.55748" lon="6.73889">
        <ele>405</ele>
        <time>2016-07-17T09:29:36.000Z</time>
      </trkpt>
      <trkpt lat="47.55745" lon="6.73892">
        <ele>406</ele>
        <time>2016-07-17T09:29:38.000Z</time>
      </trkpt>
      <trkpt lat="47.55743" lon="6.73895">
        <ele>406</ele>
        <time>2016-07-17T09:29:39.000Z</time>
      </trkpt>
      <trkpt lat="47.55741" lon="6.73897">
        <ele>406</ele>
        <time>2016-07-17T09:29:40.000Z</time>
      </trkpt>
      <trkpt lat="47.55739" lon="6.73899">
        <ele>406</ele>
        <time>2016-07-17T09:29:41.000Z</time>
      </trkpt>
      <trkpt lat="47.55735" lon="6.73901">
        <ele>406</ele>
        <time>2016-07-17T09:29:43.000Z</time>
      </trkpt>
      <trkpt lat="47.55734" lon="6.73903">
        <ele>406</ele>
        <time>2016-07-17T09:29:44.000Z</time>
      </trkpt>
      <trkpt lat="47.55731" lon="6.73909">
        <ele>406</ele>
        <time>2016-07-17T09:29:46.000Z</time>
      </trkpt>
      <trkpt lat="47.55731" lon="6.73912">
        <ele>406</ele>
        <time>2016-07-17T09:29:47.000Z</time>
      </trkpt>
      <trkpt lat="47.5573" lon="6.73917">
        <ele>406</ele>
        <time>2016-07-17T09:29:49.000Z</time>
      </trkpt>
      <trkpt lat="47.55729" lon="6.73919">
        <ele>409</ele>
        <time>2016-07-17T09:29:50.000Z</time>
      </trkpt>
      <trkpt lat="47.55726" lon="6.73923">
        <ele>409</ele>
        <time>2016-07-17T09:29:52.000Z</time>
      </trkpt>
      <trkpt lat="47.55725" lon="6.73926">
        <ele>409</ele>
        <time>2016-07-17T09:29:53.000Z</time>
      </trkpt>
      <trkpt lat="47.55723" lon="6.7393">
        <ele>409</ele>
        <time>2016-07-17T09:29:55.000Z</time>
      </trkpt>
      <trkpt lat="47.55722" lon="6.73932">
        <ele>409</ele>
        <time>2016-07-17T09:29:56.000Z</time>
      </trkpt>
      <trkpt lat="47.5572" lon="6.73936">
        <ele>409</ele>
        <time>2016-07-17T09:29:58.000Z</time>
      </trkpt>
      <trkpt lat="47.55719" lon="6.73938">
        <ele>410</ele>
        <time>2016-07-17T09:29:59.000Z</time>
      </trkpt>
      <trkpt lat="47.55717" lon="6.73944">
        <ele>410</ele>
        <time>2016-07-17T09:30:01.000Z</time>
      </trkpt>
      <trkpt lat="47.55716" lon="6.73946">
        <ele>410</ele>
        <time>2016-07-17T09:30:02.000Z</time>
      </trkpt>
      <trkpt lat="47.55715" lon="6.7395">
        <ele>410</ele>
        <time>2016-07-17T09:30:04.000Z</time>
      </trkpt>
      <trkpt lat="47.55714" lon="6.73953">
        <ele>410</ele>
        <time>2016-07-17T09:30:05.000Z</time>
      </trkpt>
      <trkpt lat="47.55712" lon="6.73955">
        <ele>410</ele>
        <time>2016-07-17T09:30:06.000Z</time>
      </trkpt>
      <trkpt lat="47.55711" lon="6.73958">
        <ele>410</ele>
        <time>2016-07-17T09:30:07.000Z</time>
      </trkpt>
      <trkpt lat="47.55709" lon="6.73963">
        <ele>411</ele>
        <time>2016-07-17T09:30:09.000Z</time>
      </trkpt>
      <trkpt lat="47.55708" lon="6.73966">
        <ele>411</ele>
        <time>2016-07-17T09:30:10.000Z</time>
      </trkpt>
      <trkpt lat="47.55705" lon="6.73971">
        <ele>411</ele>
        <time>2016-07-17T09:30:12.000Z</time>
      </trkpt>
      <trkpt lat="47.55704" lon="6.73975">
        <ele>411</ele>
        <time>2016-07-17T09:30:13.000Z</time>
      </trkpt>
      <trkpt lat="47.55702" lon="6.7398">
        <ele>411</ele>
        <time>2016-07-17T09:30:15.000Z</time>
      </trkpt>
      <trkpt lat="47.55701" lon="6.73984">
        <ele>411</ele>
        <time>2016-07-17T09:30:16.000Z</time>
      </trkpt>
      <trkpt lat="47.557" lon="6.73987">
        <ele>411</ele>
        <time>2016-07-17T09:30:17.000Z</time>
      </trkpt>
      <trkpt lat="47.55699" lon="6.7399">
        <ele>412</ele>
        <time>2016-07-17T09:30:18.000Z</time>
      </trkpt>
      <trkpt lat="47.55697" lon="6.73996">
        <ele>412</ele>
        <time>2016-07-17T09:30:20.000Z</time>
      </trkpt>
      <trkpt lat="47.55696" lon="6.73998">
        <ele>412</ele>
        <time>2016-07-17T09:30:21.000Z</time>
      </trkpt>
      <trkpt lat="47.55695" lon="6.74001">
        <ele>415</ele>
        <time>2016-07-17T09:30:22.000Z</time>
      </trkpt>
      <trkpt lat="47.55694" lon="6.74004">
        <ele>415</ele>
        <time>2016-07-17T09:30:23.000Z</time>
      </trkpt>
      <trkpt lat="47.55692" lon="6.74008">
        <ele>415</ele>
        <time>2016-07-17T09:30:23.999Z</time>
      </trkpt>
      <trkpt lat="47.55691" lon="6.74012">
        <ele>415</ele>
        <time>2016-07-17T09:30:25.000Z</time>
      </trkpt>
      <trkpt lat="47.55689" lon="6.74015">
        <ele>415</ele>
        <time>2016-07-17T09:30:26.000Z</time>
      </trkpt>
      <trkpt lat="47.55687" lon="6.74018">
        <ele>415</ele>
        <time>2016-07-17T09:30:27.000Z</time>
      </trkpt>
      <trkpt lat="47.55685" lon="6.74021">
        <ele>415</ele>
        <time>2016-07-17T09:30:28.000Z</time>
      </trkpt>
      <trkpt lat="47.55684" lon="6.74025">
        <ele>415</ele>
        <time>2016-07-17T09:30:29.000Z</time>
      </trkpt>
      <trkpt lat="47.55682" lon="6.74028">
        <ele>415</ele>
        <time>2016-07-17T09:30:30.000Z</time>
      </trkpt>
      <trkpt lat="47.5568" lon="6.74031">
        <ele>415</ele>
        <time>2016-07-17T09:30:31.000Z</time>
      </trkpt>
      <trkpt lat="47.55678" lon="6.74033">
        <ele>415</ele>
        <time>2016-07-17T09:30:32.000Z</time>
      </trkpt>
      <trkpt lat="47.55677" lon="6.74036">
        <ele>415</ele>
        <time>2016-07-17T09:30:33.000Z</time>
      </trkpt>
      <trkpt lat="47.55675" lon="6.74039">
        <ele>415</ele>
        <time>2016-07-17T09:30:34.000Z</time>
      </trkpt>
      <trkpt lat="47.55674" lon="6.74042">
        <ele>415</ele>
        <time>2016-07-17T09:30:35.000Z</time>
      </trkpt>
      <trkpt lat="47.55673" lon="6.74046">
        <ele>415</ele>
        <time>2016-07-17T09:30:36.000Z</time>
      </trkpt>
      <trkpt lat="47.55672" lon="6.7405">
        <ele>416</ele>
        <time>2016-07-17T09:30:37.000Z</time>
      </trkpt>
      <trkpt lat="47.55671" lon="6.74055">
        <ele>416</ele>
        <time>2016-07-17T09:30:38.000Z</time>
      </trkpt>
      <trkpt lat="47.5567" lon="6.74059">
        <ele>416</ele>
        <time>2016-07-17T09:30:39.000Z</time>
      </trkpt>
      <trkpt lat="47.55669" lon="6.74062">
        <ele>416</ele>
        <time>2016-07-17T09:30:40.000Z</time>
      </trkpt>
      <trkpt lat="47.55667" lon="6.74065">
        <ele>416</ele>
        <time>2016-07-17T09:30:41.000Z</time>
      </trkpt>
      <trkpt lat="47.55665" lon="6.74069">
        <ele>417</ele>
        <time>2016-07-17T09:30:43.000Z</time>
      </trkpt>
      <trkpt lat="47.55664" lon="6.74071">
        <ele>417</ele>
        <time>2016-07-17T09:30:44.000Z</time>
      </trkpt>
      <trkpt lat="47.55663" lon="6.74074">
        <ele>417</ele>
        <time>2016-07-17T09:30:45.000Z</time>
      </trkpt>
      <trkpt lat="47.55661" lon="6.74077">
        <ele>417</ele>
        <time>2016-07-17T09:30:46.000Z</time>
      </trkpt>
      <trkpt lat="47.55659" lon="6.74082">
        <ele>417</ele>
        <time>2016-07-17T09:30:48.000Z</time>
      </trkpt>
      <trkpt lat="47.55658" lon="6.74084">
        <ele>418</ele>
        <time>2016-07-17T09:30:49.000Z</time>
      </trkpt>
      <trkpt lat="47.55656" lon="6.74088">
        <ele>418</ele>
        <time>2016-07-17T09:30:51.000Z</time>
      </trkpt>
      <trkpt lat="47.55655" lon="6.74092">
        <ele>418</ele>
        <time>2016-07-17T09:30:52.000Z</time>
      </trkpt>
      <trkpt lat="47.55653" lon="6.74095">
        <ele>418</ele>
        <time>2016-07-17T09:30:53.000Z</time>
      </trkpt>
      <trkpt lat="47.55651" lon="6.74099">
        <ele>418</ele>
        <time>2016-07-17T09:30:54.000Z</time>
      </trkpt>
      <trkpt lat="47.5565" lon="6.74101">
        <ele>418</ele>
        <time>2016-07-17T09:30:55.000Z</time>
      </trkpt>
      <trkpt lat="47.55648" lon="6.74104">
        <ele>418</ele>
        <time>2016-07-17T09:30:56.000Z</time>
      </trkpt>
      <trkpt lat="47.55645" lon="6.74106">
        <ele>419</ele>
        <time>2016-07-17T09:30:57.000Z</time>
      </trkpt>
      <trkpt lat="47.55643" lon="6.74107">
        <ele>419</ele>
        <time>2016-07-17T09:30:58.000Z</time>
      </trkpt>
      <trkpt lat="47.5564" lon="6.74106">
        <ele>419</ele>
        <time>2016-07-17T09:30:59.000Z</time>
      </trkpt>
      <trkpt lat="47.55638" lon="6.74105">
        <ele>419</ele>
        <time>2016-07-17T09:31:00.000Z</time>
      </trkpt>
      <trkpt lat="47.55635" lon="6.74102">
        <ele>419</ele>
        <time>2016-07-17T09:31:02.000Z</time>
      </trkpt>
      <trkpt lat="47.55635" lon="6.741">
        <ele>419</ele>
        <time>2016-07-17T09:31:03.000Z</time>
      </trkpt>
      <trkpt lat="47.55635" lon="6.74095">
        <ele>419</ele>
        <time>2016-07-17T09:31:05.000Z</time>
      </trkpt>
      <trkpt lat="47.55635" lon="6.74092">
        <ele>418</ele>
        <time>2016-07-17T09:31:06.000Z</time>
      </trkpt>
      <trkpt lat="47.55636" lon="6.74088">
        <ele>418</ele>
        <time>2016-07-17T09:31:07.000Z</time>
      </trkpt>
      <trkpt lat="47.55634" lon="6.74084">
        <ele>418</ele>
        <time>2016-07-17T09:31:08.000Z</time>
      </trkpt>
      <trkpt lat="47.55631" lon="6.74076">
        <ele>417</ele>
        <time>2016-07-17T09:31:09.000Z</time>
      </trkpt>
      <trkpt lat="47.55629" lon="6.74071">
        <ele>417</ele>
        <time>2016-07-17T09:31:10.000Z</time>
      </trkpt>
      <trkpt lat="47.55628" lon="6.74066">
        <ele>417</ele>
        <time>2016-07-17T09:31:10.999Z</time>
      </trkpt>
      <trkpt lat="47.55626" lon="6.74061">
        <ele>417</ele>
        <time>2016-07-17T09:31:12.000Z</time>
      </trkpt>
      <trkpt lat="47.55625" lon="6.74057">
        <ele>417</ele>
        <time>2016-07-17T09:31:13.000Z</time>
      </trkpt>
      <trkpt lat="47.55623" lon="6.74053">
        <ele>417</ele>
        <time>2016-07-17T09:31:14.000Z</time>
      </trkpt>
      <trkpt lat="47.55622" lon="6.74049">
        <ele>417</ele>
        <time>2016-07-17T09:31:15.000Z</time>
      </trkpt>
      <trkpt lat="47.55621" lon="6.74046">
        <ele>417</ele>
        <time>2016-07-17T09:31:16.000Z</time>
      </trkpt>
      <trkpt lat="47.55617" lon="6.74043">
        <ele>417</ele>
        <time>2016-07-17T09:31:16.999Z</time>
      </trkpt>
      <trkpt lat="47.55613" lon="6.74041">
        <ele>417</ele>
        <time>2016-07-17T09:31:18.000Z</time>
      </trkpt>
      <trkpt lat="47.5561" lon="6.74038">
        <ele>417</ele>
        <time>2016-07-17T09:31:19.000Z</time>
      </trkpt>
      <trkpt lat="47.55607" lon="6.74035">
        <ele>417</ele>
        <time>2016-07-17T09:31:20.000Z</time>
      </trkpt>
      <trkpt lat="47.55604" lon="6.7403">
        <ele>417</ele>
        <time>2016-07-17T09:31:21.000Z</time>
      </trkpt>
      <trkpt lat="47.55601" lon="6.74026">
        <ele>417</ele>
        <time>2016-07-17T09:31:22.000Z</time>
      </trkpt>
      <trkpt lat="47.55598" lon="6.7402">
        <ele>417</ele>
        <time>2016-07-17T09:31:23.000Z</time>
      </trkpt>
      <trkpt lat="47.55595" lon="6.74014">
        <ele>417</ele>
        <time>2016-07-17T09:31:24.000Z</time>
      </trkpt>
      <trkpt lat="47.55592" lon="6.74007">
        <ele>417</ele>
        <time>2016-07-17T09:31:25.000Z</time>
      </trkpt>
      <trkpt lat="47.55588" lon="6.73999">
        <ele>416</ele>
        <time>2016-07-17T09:31:26.000Z</time>
      </trkpt>
      <trkpt lat="47.55585" lon="6.73991">
        <ele>416</ele>
        <time>2016-07-17T09:31:27.000Z</time>
      </trkpt>
      <trkpt lat="47.55582" lon="6.73984">
        <ele>417</ele>
        <time>2016-07-17T09:31:28.000Z</time>
      </trkpt>
      <trkpt lat="47.55579" lon="6.73976">
        <ele>416</ele>
        <time>2016-07-17T09:31:29.000Z</time>
      </trkpt>
      <trkpt lat="47.55576" lon="6.73968">
        <ele>416</ele>
        <time>2016-07-17T09:31:30.000Z</time>
      </trkpt>
      <trkpt lat="47.55566" lon="6.73946">
        <ele>416</ele>
        <time>2016-07-17T09:31:31.000Z</time>
      </trkpt>
      <trkpt lat="47.5556" lon="6.7394">
        <ele>416</ele>
        <time>2016-07-17T09:31:32.000Z</time>
      </trkpt>
      <trkpt lat="47.55555" lon="6.73934">
        <ele>416</ele>
        <time>2016-07-17T09:31:33.000Z</time>
      </trkpt>
      <trkpt lat="47.55551" lon="6.73927">
        <ele>416</ele>
        <time>2016-07-17T09:31:34.000Z</time>
      </trkpt>
      <trkpt lat="47.55547" lon="6.7392">
        <ele>416</ele>
        <time>2016-07-17T09:31:35.000Z</time>
      </trkpt>
      <trkpt lat="47.55546" lon="6.73913">
        <ele>414</ele>
        <time>2016-07-17T09:31:36.000Z</time>
      </trkpt>
      <trkpt lat="47.55544" lon="6.73906">
        <ele>414</ele>
        <time>2016-07-17T09:31:37.000Z</time>
      </trkpt>
      <trkpt lat="47.55541" lon="6.73898">
        <ele>414</ele>
        <time>2016-07-17T09:31:38.000Z</time>
      </trkpt>
      <trkpt lat="47.55539" lon="6.73892">
        <ele>414</ele>
        <time>2016-07-17T09:31:39.000Z</time>
      </trkpt>
      <trkpt lat="47.55536" lon="6.73886">
        <ele>413</ele>
        <time>2016-07-17T09:31:40.000Z</time>
      </trkpt>
      <trkpt lat="47.55533" lon="6.73879">
        <ele>413</ele>
        <time>2016-07-17T09:31:41.000Z</time>
      </trkpt>
      <trkpt lat="47.55529" lon="6.73873">
        <ele>413</ele>
        <time>2016-07-17T09:31:42.000Z</time>
      </trkpt>
      <trkpt lat="47.55526" lon="6.73866">
        <ele>413</ele>
        <time>2016-07-17T09:31:43.000Z</time>
      </trkpt>
      <trkpt lat="47.55523" lon="6.73858">
        <ele>413</ele>
        <time>2016-07-17T09:31:44.000Z</time>
      </trkpt>
      <trkpt lat="47.55521" lon="6.73852">
        <ele>413</ele>
        <time>2016-07-17T09:31:45.000Z</time>
      </trkpt>
      <trkpt lat="47.55517" lon="6.73845">
        <ele>413</ele>
        <time>2016-07-17T09:31:46.000Z</time>
      </trkpt>
      <trkpt lat="47.55512" lon="6.73837">
        <ele>413</ele>
        <time>2016-07-17T09:31:47.000Z</time>
      </trkpt>
      <trkpt lat="47.55507" lon="6.7383">
        <ele>412</ele>
        <time>2016-07-17T09:31:48.000Z</time>
      </trkpt>
      <trkpt lat="47.55504" lon="6.73824">
        <ele>412</ele>
        <time>2016-07-17T09:31:49.000Z</time>
      </trkpt>
      <trkpt lat="47.555" lon="6.73817">
        <ele>412</ele>
        <time>2016-07-17T09:31:50.000Z</time>
      </trkpt>
      <trkpt lat="47.55494" lon="6.73811">
        <ele>412</ele>
        <time>2016-07-17T09:31:51.000Z</time>
      </trkpt>
      <trkpt lat="47.55487" lon="6.73805">
        <ele>411</ele>
        <time>2016-07-17T09:31:52.000Z</time>
      </trkpt>
      <trkpt lat="47.55481" lon="6.73799">
        <ele>411</ele>
        <time>2016-07-17T09:31:53.000Z</time>
      </trkpt>
      <trkpt lat="47.55477" lon="6.73793">
        <ele>411</ele>
        <time>2016-07-17T09:31:54.000Z</time>
      </trkpt>
      <trkpt lat="47.55471" lon="6.73787">
        <ele>411</ele>
        <time>2016-07-17T09:31:55.000Z</time>
      </trkpt>
      <trkpt lat="47.55468" lon="6.73782">
        <ele>411</ele>
        <time>2016-07-17T09:31:56.000Z</time>
      </trkpt>
      <trkpt lat="47.55465" lon="6.73777">
        <ele>411</ele>
        <time>2016-07-17T09:31:57.000Z</time>
      </trkpt>
      <trkpt lat="47.55461" lon="6.73772">
        <ele>411</ele>
        <time>2016-07-17T09:31:58.000Z</time>
      </trkpt>
      <trkpt lat="47.55457" lon="6.73768">
        <ele>411</ele>
        <time>2016-07-17T09:31:59.000Z</time>
      </trkpt>
      <trkpt lat="47.55453" lon="6.73762">
        <ele>411</ele>
        <time>2016-07-17T09:32:00.000Z</time>
      </trkpt>
      <trkpt lat="47.5545" lon="6.73753">
        <ele>410</ele>
        <time>2016-07-17T09:32:01.000Z</time>
      </trkpt>
      <trkpt lat="47.55445" lon="6.73747">
        <ele>408</ele>
        <time>2016-07-17T09:32:02.000Z</time>
      </trkpt>
      <trkpt lat="47.55442" lon="6.73742">
        <ele>408</ele>
        <time>2016-07-17T09:32:03.000Z</time>
      </trkpt>
      <trkpt lat="47.55437" lon="6.73738">
        <ele>408</ele>
        <time>2016-07-17T09:32:04.000Z</time>
      </trkpt>
      <trkpt lat="47.55433" lon="6.73731">
        <ele>408</ele>
        <time>2016-07-17T09:32:05.000Z</time>
      </trkpt>
      <trkpt lat="47.55429" lon="6.73724">
        <ele>408</ele>
        <time>2016-07-17T09:32:06.000Z</time>
      </trkpt>
      <trkpt lat="47.55426" lon="6.73718">
        <ele>408</ele>
        <time>2016-07-17T09:32:07.000Z</time>
      </trkpt>
      <trkpt lat="47.55422" lon="6.73713">
        <ele>408</ele>
        <time>2016-07-17T09:32:08.000Z</time>
      </trkpt>
      <trkpt lat="47.55419" lon="6.73708">
        <ele>407</ele>
        <time>2016-07-17T09:32:09.000Z</time>
      </trkpt>
      <trkpt lat="47.55411" lon="6.73701">
        <ele>409</ele>
        <time>2016-07-17T09:32:10.000Z</time>
      </trkpt>
      <trkpt lat="47.55404" lon="6.73695">
        <ele>409</ele>
        <time>2016-07-17T09:32:11.000Z</time>
      </trkpt>
      <trkpt lat="47.55399" lon="6.73689">
        <ele>409</ele>
        <time>2016-07-17T09:32:12.000Z</time>
      </trkpt>
      <trkpt lat="47.55394" lon="6.73682">
        <ele>409</ele>
        <time>2016-07-17T09:32:13.000Z</time>
      </trkpt>
      <trkpt lat="47.5539" lon="6.73676">
        <ele>409</ele>
        <time>2016-07-17T09:32:14.000Z</time>
      </trkpt>
      <trkpt lat="47.55385" lon="6.7367">
        <ele>409</ele>
        <time>2016-07-17T09:32:15.000Z</time>
      </trkpt>
      <trkpt lat="47.5538" lon="6.73662">
        <ele>406</ele>
        <time>2016-07-17T09:32:16.000Z</time>
      </trkpt>
      <trkpt lat="47.55374" lon="6.73658">
        <ele>406</ele>
        <time>2016-07-17T09:32:17.000Z</time>
      </trkpt>
      <trkpt lat="47.55367" lon="6.73651">
        <ele>406</ele>
        <time>2016-07-17T09:32:18.000Z</time>
      </trkpt>
      <trkpt lat="47.5536" lon="6.73644">
        <ele>406</ele>
        <time>2016-07-17T09:32:19.000Z</time>
      </trkpt>
      <trkpt lat="47.55355" lon="6.73638">
        <ele>406</ele>
        <time>2016-07-17T09:32:20.000Z</time>
      </trkpt>
      <trkpt lat="47.55351" lon="6.73631">
        <ele>405</ele>
        <time>2016-07-17T09:32:21.000Z</time>
      </trkpt>
      <trkpt lat="47.55347" lon="6.73624">
        <ele>405</ele>
        <time>2016-07-17T09:32:22.000Z</time>
      </trkpt>
      <trkpt lat="47.55339" lon="6.73616">
        <ele>404</ele>
        <time>2016-07-17T09:32:23.000Z</time>
      </trkpt>
      <trkpt lat="47.55334" lon="6.73608">
        <ele>404</ele>
        <time>2016-07-17T09:32:24.000Z</time>
      </trkpt>
      <trkpt lat="47.55328" lon="6.73599">
        <ele>405</ele>
        <time>2016-07-17T09:32:25.000Z</time>
      </trkpt>
      <trkpt lat="47.55323" lon="6.73593">
        <ele>405</ele>
        <time>2016-07-17T09:32:26.000Z</time>
      </trkpt>
      <trkpt lat="47.55318" lon="6.73586">
        <ele>405</ele>
        <time>2016-07-17T09:32:27.000Z</time>
      </trkpt>
      <trkpt lat="47.55314" lon="6.73581">
        <ele>401</ele>
        <time>2016-07-17T09:32:28.000Z</time>
      </trkpt>
      <trkpt lat="47.55308" lon="6.73576">
        <ele>401</ele>
        <time>2016-07-17T09:32:29.000Z</time>
      </trkpt>
      <trkpt lat="47.55303" lon="6.73568">
        <ele>401</ele>
        <time>2016-07-17T09:32:30.000Z</time>
      </trkpt>
      <trkpt lat="47.55294" lon="6.73559">
        <ele>401</ele>
        <time>2016-07-17T09:32:31.000Z</time>
      </trkpt>
      <trkpt lat="47.55288" lon="6.73553">
        <ele>401</ele>
        <time>2016-07-17T09:32:32.000Z</time>
      </trkpt>
      <trkpt lat="47.55283" lon="6.73548">
        <ele>400</ele>
        <time>2016-07-17T09:32:33.000Z</time>
      </trkpt>
      <trkpt lat="47.55277" lon="6.73543">
        <ele>400</ele>
        <time>2016-07-17T09:32:34.000Z</time>
      </trkpt>
      <trkpt lat="47.55272" lon="6.73537">
        <ele>400</ele>
        <time>2016-07-17T09:32:35.000Z</time>
      </trkpt>
      <trkpt lat="47.55266" lon="6.73532">
        <ele>400</ele>
        <time>2016-07-17T09:32:36.000Z</time>
      </trkpt>
      <trkpt lat="47.55258" lon="6.73525">
        <ele>400</ele>
        <time>2016-07-17T09:32:37.000Z</time>
      </trkpt>
      <trkpt lat="47.55249" lon="6.7352">
        <ele>401</ele>
        <time>2016-07-17T09:32:38.000Z</time>
      </trkpt>
      <trkpt lat="47.55243" lon="6.73516">
        <ele>401</ele>
        <time>2016-07-17T09:32:39.000Z</time>
      </trkpt>
      <trkpt lat="47.55237" lon="6.73513">
        <ele>401</ele>
        <time>2016-07-17T09:32:40.000Z</time>
      </trkpt>
      <trkpt lat="47.55232" lon="6.73509">
        <ele>401</ele>
        <time>2016-07-17T09:32:41.000Z</time>
      </trkpt>
      <trkpt lat="47.55227" lon="6.73506">
        <ele>401</ele>
        <time>2016-07-17T09:32:42.000Z</time>
      </trkpt>
      <trkpt lat="47.55221" lon="6.73498">
        <ele>396</ele>
        <time>2016-07-17T09:32:43.000Z</time>
      </trkpt>
      <trkpt lat="47.55212" lon="6.73496">
        <ele>396</ele>
        <time>2016-07-17T09:32:44.000Z</time>
      </trkpt>
      <trkpt lat="47.55205" lon="6.73495">
        <ele>396</ele>
        <time>2016-07-17T09:32:45.000Z</time>
      </trkpt>
      <trkpt lat="47.55198" lon="6.73494">
        <ele>396</ele>
        <time>2016-07-17T09:32:46.000Z</time>
      </trkpt>
      <trkpt lat="47.55191" lon="6.73494">
        <ele>396</ele>
        <time>2016-07-17T09:32:47.000Z</time>
      </trkpt>
      <trkpt lat="47.55184" lon="6.73492">
        <ele>397</ele>
        <time>2016-07-17T09:32:48.000Z</time>
      </trkpt>
      <trkpt lat="47.55177" lon="6.73492">
        <ele>397</ele>
        <time>2016-07-17T09:32:49.000Z</time>
      </trkpt>
      <trkpt lat="47.55173" lon="6.73489">
        <ele>397</ele>
        <time>2016-07-17T09:32:50.000Z</time>
      </trkpt>
      <trkpt lat="47.55167" lon="6.73488">
        <ele>397</ele>
        <time>2016-07-17T09:32:51.000Z</time>
      </trkpt>
      <trkpt lat="47.55161" lon="6.73486">
        <ele>396</ele>
        <time>2016-07-17T09:32:52.000Z</time>
      </trkpt>
      <trkpt lat="47.55156" lon="6.73484">
        <ele>396</ele>
        <time>2016-07-17T09:32:53.000Z</time>
      </trkpt>
      <trkpt lat="47.55151" lon="6.73483">
        <ele>396</ele>
        <time>2016-07-17T09:32:54.000Z</time>
      </trkpt>
      <trkpt lat="47.55146" lon="6.73483">
        <ele>395</ele>
        <time>2016-07-17T09:32:55.000Z</time>
      </trkpt>
      <trkpt lat="47.55142" lon="6.73484">
        <ele>395</ele>
        <time>2016-07-17T09:32:56.000Z</time>
      </trkpt>
      <trkpt lat="47.55139" lon="6.73486">
        <ele>395</ele>
        <time>2016-07-17T09:32:57.000Z</time>
      </trkpt>
      <trkpt lat="47.55137" lon="6.73489">
        <ele>395</ele>
        <time>2016-07-17T09:32:58.000Z</time>
      </trkpt>
      <trkpt lat="47.55137" lon="6.73494">
        <ele>395</ele>
        <time>2016-07-17T09:32:59.000Z</time>
      </trkpt>
      <trkpt lat="47.55137" lon="6.73497">
        <ele>395</ele>
        <time>2016-07-17T09:33:00.000Z</time>
      </trkpt>
      <trkpt lat="47.55139" lon="6.735">
        <ele>401</ele>
        <time>2016-07-17T09:33:01.000Z</time>
      </trkpt>
      <trkpt lat="47.5514" lon="6.73504">
        <ele>401</ele>
        <time>2016-07-17T09:33:02.000Z</time>
      </trkpt>
      <trkpt lat="47.5514" lon="6.7351">
        <ele>401</ele>
        <time>2016-07-17T09:33:04.000Z</time>
      </trkpt>
      <trkpt lat="47.55141" lon="6.73514">
        <ele>401</ele>
        <time>2016-07-17T09:33:05.001Z</time>
      </trkpt>
      <trkpt lat="47.55141" lon="6.73517">
        <ele>402</ele>
        <time>2016-07-17T09:33:05.999Z</time>
      </trkpt>
      <trkpt lat="47.55141" lon="6.73521">
        <ele>402</ele>
        <time>2016-07-17T09:33:07.001Z</time>
      </trkpt>
      <trkpt lat="47.55141" lon="6.73526">
        <ele>402</ele>
        <time>2016-07-17T09:33:09.000Z</time>
      </trkpt>
      <trkpt lat="47.55142" lon="6.73527">
        <ele>402</ele>
        <time>2016-07-17T09:33:10.000Z</time>
      </trkpt>
      <trkpt lat="47.55143" lon="6.73533">
        <ele>403</ele>
        <time>2016-07-17T09:33:13.000Z</time>
      </trkpt>
      <trkpt lat="47.55141" lon="6.73538">
        <ele>403</ele>
        <time>2016-07-17T09:33:14.000Z</time>
      </trkpt>
      <trkpt lat="47.5514" lon="6.73544">
        <ele>403</ele>
        <time>2016-07-17T09:33:16.000Z</time>
      </trkpt>
      <trkpt lat="47.5514" lon="6.73545">
        <ele>404</ele>
        <time>2016-07-17T09:33:17.000Z</time>
      </trkpt>
      <trkpt lat="47.5514" lon="6.73551">
        <ele>404</ele>
        <time>2016-07-17T09:33:19.000Z</time>
      </trkpt>
      <trkpt lat="47.5514" lon="6.73555">
        <ele>404</ele>
        <time>2016-07-17T09:33:20.000Z</time>
      </trkpt>
      <trkpt lat="47.5514" lon="6.73559">
        <ele>405</ele>
        <time>2016-07-17T09:33:21.000Z</time>
      </trkpt>
      <trkpt lat="47.55141" lon="6.73563">
        <ele>405</ele>
        <time>2016-07-17T09:33:22.001Z</time>
      </trkpt>
      <trkpt lat="47.5514" lon="6.73568">
        <ele>405</ele>
        <time>2016-07-17T09:33:23.001Z</time>
      </trkpt>
      <trkpt lat="47.55139" lon="6.73573">
        <ele>405</ele>
        <time>2016-07-17T09:33:24.000Z</time>
      </trkpt>
      <trkpt lat="47.55139" lon="6.73577">
        <ele>406</ele>
        <time>2016-07-17T09:33:25.000Z</time>
      </trkpt>
      <trkpt lat="47.55139" lon="6.7358">
        <ele>406</ele>
        <time>2016-07-17T09:33:26.000Z</time>
      </trkpt>
      <trkpt lat="47.55138" lon="6.73587">
        <ele>412</ele>
        <time>2016-07-17T09:33:28.000Z</time>
      </trkpt>
      <trkpt lat="47.55138" lon="6.73589">
        <ele>412</ele>
        <time>2016-07-17T09:33:29.000Z</time>
      </trkpt>
      <trkpt lat="47.55138" lon="6.73593">
        <ele>412</ele>
        <time>2016-07-17T09:33:29.998Z</time>
      </trkpt>
      <trkpt lat="47.55138" lon="6.73596">
        <ele>412</ele>
        <time>2016-07-17T09:33:31.000Z</time>
      </trkpt>
      <trkpt lat="47.55138" lon="6.73599">
        <ele>412</ele>
        <time>2016-07-17T09:33:32.000Z</time>
      </trkpt>
      <trkpt lat="47.55138" lon="6.73603">
        <ele>412</ele>
        <time>2016-07-17T09:33:33.002Z</time>
      </trkpt>
      <trkpt lat="47.55138" lon="6.73607">
        <ele>412</ele>
        <time>2016-07-17T09:33:34.000Z</time>
      </trkpt>
      <trkpt lat="47.55138" lon="6.7361">
        <ele>412</ele>
        <time>2016-07-17T09:33:35.000Z</time>
      </trkpt>
      <trkpt lat="47.55137" lon="6.73613">
        <ele>413</ele>
        <time>2016-07-17T09:33:36.000Z</time>
      </trkpt>
      <trkpt lat="47.55135" lon="6.73616">
        <ele>413</ele>
        <time>2016-07-17T09:33:37.000Z</time>
      </trkpt>
      <trkpt lat="47.55133" lon="6.73619">
        <ele>413</ele>
        <time>2016-07-17T09:33:39.000Z</time>
      </trkpt>
      <trkpt lat="47.55132" lon="6.73621">
        <ele>413</ele>
        <time>2016-07-17T09:33:40.000Z</time>
      </trkpt>
      <trkpt lat="47.55128" lon="6.73622">
        <ele>413</ele>
        <time>2016-07-17T09:33:43.000Z</time>
      </trkpt>
      <trkpt lat="47.55127" lon="6.73623">
        <ele>413</ele>
        <time>2016-07-17T09:33:44.000Z</time>
      </trkpt>
      <trkpt lat="47.55124" lon="6.73626">
        <ele>413</ele>
        <time>2016-07-17T09:33:46.000Z</time>
      </trkpt>
      <trkpt lat="47.55123" lon="6.73628">
        <ele>413</ele>
        <time>2016-07-17T09:33:47.000Z</time>
      </trkpt>
      <trkpt lat="47.5512" lon="6.73631">
        <ele>413</ele>
        <time>2016-07-17T09:33:49.000Z</time>
      </trkpt>
      <trkpt lat="47.55118" lon="6.73632">
        <ele>413</ele>
        <time>2016-07-17T09:33:50.000Z</time>
      </trkpt>
      <trkpt lat="47.55116" lon="6.73637">
        <ele>413</ele>
        <time>2016-07-17T09:33:52.000Z</time>
      </trkpt>
      <trkpt lat="47.55115" lon="6.73638">
        <ele>413</ele>
        <time>2016-07-17T09:33:52.999Z</time>
      </trkpt>
      <trkpt lat="47.55114" lon="6.73642">
        <ele>413</ele>
        <time>2016-07-17T09:33:54.000Z</time>
      </trkpt>
      <trkpt lat="47.55113" lon="6.73644">
        <ele>414</ele>
        <time>2016-07-17T09:33:55.000Z</time>
      </trkpt>
      <trkpt lat="47.55112" lon="6.7365">
        <ele>414</ele>
        <time>2016-07-17T09:33:57.000Z</time>
      </trkpt>
      <trkpt lat="47.55112" lon="6.73652">
        <ele>414</ele>
        <time>2016-07-17T09:33:58.000Z</time>
      </trkpt>
      <trkpt lat="47.55111" lon="6.73658">
        <ele>414</ele>
        <time>2016-07-17T09:34:00.999Z</time>
      </trkpt>
      <trkpt lat="47.5511" lon="6.7366">
        <ele>414</ele>
        <time>2016-07-17T09:34:02.000Z</time>
      </trkpt>
      <trkpt lat="47.55108" lon="6.73665">
        <ele>414</ele>
        <time>2016-07-17T09:34:04.000Z</time>
      </trkpt>
      <trkpt lat="47.55107" lon="6.7367">
        <ele>418</ele>
        <time>2016-07-17T09:34:05.000Z</time>
      </trkpt>
      <trkpt lat="47.55107" lon="6.73675">
        <ele>418</ele>
        <time>2016-07-17T09:34:07.000Z</time>
      </trkpt>
      <trkpt lat="47.55106" lon="6.73676">
        <ele>419</ele>
        <time>2016-07-17T09:34:08.000Z</time>
      </trkpt>
      <trkpt lat="47.55104" lon="6.73681">
        <ele>419</ele>
        <time>2016-07-17T09:34:10.000Z</time>
      </trkpt>
      <trkpt lat="47.55103" lon="6.73683">
        <ele>419</ele>
        <time>2016-07-17T09:34:11.000Z</time>
      </trkpt>
      <trkpt lat="47.55101" lon="6.73688">
        <ele>419</ele>
        <time>2016-07-17T09:34:13.000Z</time>
      </trkpt>
      <trkpt lat="47.551" lon="6.7369">
        <ele>419</ele>
        <time>2016-07-17T09:34:14.000Z</time>
      </trkpt>
      <trkpt lat="47.55098" lon="6.73696">
        <ele>419</ele>
        <time>2016-07-17T09:34:17.000Z</time>
      </trkpt>
      <trkpt lat="47.55097" lon="6.73698">
        <ele>419</ele>
        <time>2016-07-17T09:34:18.000Z</time>
      </trkpt>
      <trkpt lat="47.55094" lon="6.73703">
        <ele>420</ele>
        <time>2016-07-17T09:34:21.000Z</time>
      </trkpt>
      <trkpt lat="47.55093" lon="6.73704">
        <ele>420</ele>
        <time>2016-07-17T09:34:22.000Z</time>
      </trkpt>
      <trkpt lat="47.5509" lon="6.73707">
        <ele>420</ele>
        <time>2016-07-17T09:34:24.000Z</time>
      </trkpt>
      <trkpt lat="47.55088" lon="6.73708">
        <ele>420</ele>
        <time>2016-07-17T09:34:25.000Z</time>
      </trkpt>
      <trkpt lat="47.55085" lon="6.73711">
        <ele>420</ele>
        <time>2016-07-17T09:34:27.000Z</time>
      </trkpt>
      <trkpt lat="47.55084" lon="6.73712">
        <ele>420</ele>
        <time>2016-07-17T09:34:27.999Z</time>
      </trkpt>
      <trkpt lat="47.55083" lon="6.73718">
        <ele>416</ele>
        <time>2016-07-17T09:34:32.000Z</time>
      </trkpt>
      <trkpt lat="47.55082" lon="6.73719">
        <ele>416</ele>
        <time>2016-07-17T09:34:33.000Z</time>
      </trkpt>
      <trkpt lat="47.55081" lon="6.73725">
        <ele>416</ele>
        <time>2016-07-17T09:34:35.000Z</time>
      </trkpt>
      <trkpt lat="47.55079" lon="6.73726">
        <ele>416</ele>
        <time>2016-07-17T09:34:36.000Z</time>
      </trkpt>
      <trkpt lat="47.55076" lon="6.73729">
        <ele>416</ele>
        <time>2016-07-17T09:34:38.000Z</time>
      </trkpt>
      <trkpt lat="47.55075" lon="6.73731">
        <ele>417</ele>
        <time>2016-07-17T09:34:39.000Z</time>
      </trkpt>
      <trkpt lat="47.55072" lon="6.73735">
        <ele>417</ele>
        <time>2016-07-17T09:34:41.000Z</time>
      </trkpt>
      <trkpt lat="47.55072" lon="6.73743">
        <ele>418</ele>
        <time>2016-07-17T09:34:42.000Z</time>
      </trkpt>
      <trkpt lat="47.55072" lon="6.73748">
        <ele>418</ele>
        <time>2016-07-17T09:34:43.000Z</time>
      </trkpt>
      <trkpt lat="47.55071" lon="6.73752">
        <ele>420</ele>
        <time>2016-07-17T09:34:44.000Z</time>
      </trkpt>
      <trkpt lat="47.5507" lon="6.73758">
        <ele>420</ele>
        <time>2016-07-17T09:34:45.000Z</time>
      </trkpt>
      <trkpt lat="47.55069" lon="6.73761">
        <ele>420</ele>
        <time>2016-07-17T09:34:46.001Z</time>
      </trkpt>
      <trkpt lat="47.55068" lon="6.73765">
        <ele>420</ele>
        <time>2016-07-17T09:34:47.000Z</time>
      </trkpt>
      <trkpt lat="47.55067" lon="6.73768">
        <ele>420</ele>
        <time>2016-07-17T09:34:48.000Z</time>
      </trkpt>
      <trkpt lat="47.55066" lon="6.73772">
        <ele>420</ele>
        <time>2016-07-17T09:34:49.000Z</time>
      </trkpt>
      <trkpt lat="47.55065" lon="6.73775">
        <ele>420</ele>
        <time>2016-07-17T09:34:50.000Z</time>
      </trkpt>
      <trkpt lat="47.55063" lon="6.73779">
        <ele>420</ele>
        <time>2016-07-17T09:34:51.000Z</time>
      </trkpt>
      <trkpt lat="47.55062" lon="6.73783">
        <ele>420</ele>
        <time>2016-07-17T09:34:52.000Z</time>
      </trkpt>
      <trkpt lat="47.5506" lon="6.73786">
        <ele>420</ele>
        <time>2016-07-17T09:34:53.000Z</time>
      </trkpt>
      <trkpt lat="47.55059" lon="6.7379">
        <ele>420</ele>
        <time>2016-07-17T09:34:54.000Z</time>
      </trkpt>
      <trkpt lat="47.55058" lon="6.73794">
        <ele>420</ele>
        <time>2016-07-17T09:34:55.000Z</time>
      </trkpt>
      <trkpt lat="47.55057" lon="6.73799">
        <ele>420</ele>
        <time>2016-07-17T09:34:56.000Z</time>
      </trkpt>
      <trkpt lat="47.55056" lon="6.73804">
        <ele>420</ele>
        <time>2016-07-17T09:34:57.000Z</time>
      </trkpt>
      <trkpt lat="47.55055" lon="6.73808">
        <ele>421</ele>
        <time>2016-07-17T09:34:58.000Z</time>
      </trkpt>
      <trkpt lat="47.55054" lon="6.73813">
        <ele>421</ele>
        <time>2016-07-17T09:34:59.000Z</time>
      </trkpt>
      <trkpt lat="47.55054" lon="6.73816">
        <ele>421</ele>
        <time>2016-07-17T09:35:00.000Z</time>
      </trkpt>
      <trkpt lat="47.55053" lon="6.7382">
        <ele>421</ele>
        <time>2016-07-17T09:35:01.000Z</time>
      </trkpt>
      <trkpt lat="47.55052" lon="6.73823">
        <ele>421</ele>
        <time>2016-07-17T09:35:02.000Z</time>
      </trkpt>
      <trkpt lat="47.55052" lon="6.73827">
        <ele>421</ele>
        <time>2016-07-17T09:35:03.000Z</time>
      </trkpt>
      <trkpt lat="47.55051" lon="6.73831">
        <ele>421</ele>
        <time>2016-07-17T09:35:04.000Z</time>
      </trkpt>
      <trkpt lat="47.55051" lon="6.73836">
        <ele>424</ele>
        <time>2016-07-17T09:35:05.000Z</time>
      </trkpt>
      <trkpt lat="47.5505" lon="6.7384">
        <ele>424</ele>
        <time>2016-07-17T09:35:06.000Z</time>
      </trkpt>
      <trkpt lat="47.5505" lon="6.73844">
        <ele>424</ele>
        <time>2016-07-17T09:35:07.000Z</time>
      </trkpt>
      <trkpt lat="47.55049" lon="6.73849">
        <ele>424</ele>
        <time>2016-07-17T09:35:08.000Z</time>
      </trkpt>
      <trkpt lat="47.55048" lon="6.73853">
        <ele>424</ele>
        <time>2016-07-17T09:35:09.000Z</time>
      </trkpt>
      <trkpt lat="47.55046" lon="6.73857">
        <ele>424</ele>
        <time>2016-07-17T09:35:10.000Z</time>
      </trkpt>
      <trkpt lat="47.55045" lon="6.73861">
        <ele>424</ele>
        <time>2016-07-17T09:35:11.000Z</time>
      </trkpt>
      <trkpt lat="47.55044" lon="6.73865">
        <ele>424</ele>
        <time>2016-07-17T09:35:12.000Z</time>
      </trkpt>
      <trkpt lat="47.55043" lon="6.7387">
        <ele>424</ele>
        <time>2016-07-17T09:35:13.000Z</time>
      </trkpt>
      <trkpt lat="47.55043" lon="6.73875">
        <ele>425</ele>
        <time>2016-07-17T09:35:14.000Z</time>
      </trkpt>
      <trkpt lat="47.55041" lon="6.73881">
        <ele>425</ele>
        <time>2016-07-17T09:35:15.000Z</time>
      </trkpt>
      <trkpt lat="47.5504" lon="6.73885">
        <ele>425</ele>
        <time>2016-07-17T09:35:16.000Z</time>
      </trkpt>
      <trkpt lat="47.55038" lon="6.73889">
        <ele>425</ele>
        <time>2016-07-17T09:35:17.000Z</time>
      </trkpt>
      <trkpt lat="47.55036" lon="6.73892">
        <ele>425</ele>
        <time>2016-07-17T09:35:18.000Z</time>
      </trkpt>
      <trkpt lat="47.55034" lon="6.73895">
        <ele>425</ele>
        <time>2016-07-17T09:35:19.000Z</time>
      </trkpt>
      <trkpt lat="47.55032" lon="6.73898">
        <ele>424</ele>
        <time>2016-07-17T09:35:20.000Z</time>
      </trkpt>
      <trkpt lat="47.5503" lon="6.73901">
        <ele>424</ele>
        <time>2016-07-17T09:35:21.000Z</time>
      </trkpt>
      <trkpt lat="47.55028" lon="6.73905">
        <ele>424</ele>
        <time>2016-07-17T09:35:22.000Z</time>
      </trkpt>
      <trkpt lat="47.55026" lon="6.73908">
        <ele>424</ele>
        <time>2016-07-17T09:35:23.000Z</time>
      </trkpt>
      <trkpt lat="47.55022" lon="6.73915">
        <ele>424</ele>
        <time>2016-07-17T09:35:24.000Z</time>
      </trkpt>
      <trkpt lat="47.55019" lon="6.7392">
        <ele>425</ele>
        <time>2016-07-17T09:35:25.000Z</time>
      </trkpt>
      <trkpt lat="47.55015" lon="6.73926">
        <ele>425</ele>
        <time>2016-07-17T09:35:26.000Z</time>
      </trkpt>
      <trkpt lat="47.55012" lon="6.73931">
        <ele>425</ele>
        <time>2016-07-17T09:35:27.000Z</time>
      </trkpt>
      <trkpt lat="47.5501" lon="6.73937">
        <ele>426</ele>
        <time>2016-07-17T09:35:28.000Z</time>
      </trkpt>
      <trkpt lat="47.55008" lon="6.73943">
        <ele>426</ele>
        <time>2016-07-17T09:35:29.000Z</time>
      </trkpt>
      <trkpt lat="47.55007" lon="6.7395">
        <ele>427</ele>
        <time>2016-07-17T09:35:30.000Z</time>
      </trkpt>
      <trkpt lat="47.55005" lon="6.73955">
        <ele>427</ele>
        <time>2016-07-17T09:35:31.001Z</time>
      </trkpt>
      <trkpt lat="47.55005" lon="6.73964">
        <ele>427</ele>
        <time>2016-07-17T09:35:32.000Z</time>
      </trkpt>
      <trkpt lat="47.55003" lon="6.73971">
        <ele>427</ele>
        <time>2016-07-17T09:35:33.000Z</time>
      </trkpt>
      <trkpt lat="47.55002" lon="6.7398">
        <ele>427</ele>
        <time>2016-07-17T09:35:34.000Z</time>
      </trkpt>
      <trkpt lat="47.55" lon="6.73986">
        <ele>426</ele>
        <time>2016-07-17T09:35:35.000Z</time>
      </trkpt>
      <trkpt lat="47.54999" lon="6.7399">
        <ele>420</ele>
        <time>2016-07-17T09:35:35.999Z</time>
      </trkpt>
      <trkpt lat="47.54997" lon="6.73996">
        <ele>422</ele>
        <time>2016-07-17T09:35:37.000Z</time>
      </trkpt>
      <trkpt lat="47.54996" lon="6.74002">
        <ele>423</ele>
        <time>2016-07-17T09:35:38.000Z</time>
      </trkpt>
      <trkpt lat="47.54995" lon="6.74007">
        <ele>422</ele>
        <time>2016-07-17T09:35:39.000Z</time>
      </trkpt>
      <trkpt lat="47.54994" lon="6.74014">
        <ele>420</ele>
        <time>2016-07-17T09:35:40.000Z</time>
      </trkpt>
      <trkpt lat="47.54993" lon="6.74018">
        <ele>420</ele>
        <time>2016-07-17T09:35:41.000Z</time>
      </trkpt>
      <trkpt lat="47.54991" lon="6.74025">
        <ele>419</ele>
        <time>2016-07-17T09:35:42.000Z</time>
      </trkpt>
      <trkpt lat="47.5499" lon="6.74033">
        <ele>419</ele>
        <time>2016-07-17T09:35:43.000Z</time>
      </trkpt>
      <trkpt lat="47.54988" lon="6.74054">
        <ele>419</ele>
        <time>2016-07-17T09:35:44.000Z</time>
      </trkpt>
      <trkpt lat="47.54986" lon="6.74059">
        <ele>419</ele>
        <time>2016-07-17T09:35:44.999Z</time>
      </trkpt>
      <trkpt lat="47.54985" lon="6.74069">
        <ele>420</ele>
        <time>2016-07-17T09:35:46.000Z</time>
      </trkpt>
      <trkpt lat="47.54984" lon="6.74076">
        <ele>420</ele>
        <time>2016-07-17T09:35:47.000Z</time>
      </trkpt>
      <trkpt lat="47.54985" lon="6.74081">
        <ele>421</ele>
        <time>2016-07-17T09:35:48.000Z</time>
      </trkpt>
      <trkpt lat="47.54985" lon="6.74085">
        <ele>423</ele>
        <time>2016-07-17T09:35:48.999Z</time>
      </trkpt>
      <trkpt lat="47.54986" lon="6.74089">
        <ele>423</ele>
        <time>2016-07-17T09:35:50.000Z</time>
      </trkpt>
      <trkpt lat="47.54987" lon="6.74093">
        <ele>423</ele>
        <time>2016-07-17T09:35:51.000Z</time>
      </trkpt>
      <trkpt lat="47.54988" lon="6.74096">
        <ele>422</ele>
        <time>2016-07-17T09:35:51.999Z</time>
      </trkpt>
      <trkpt lat="47.54988" lon="6.741">
        <ele>422</ele>
        <time>2016-07-17T09:35:53.000Z</time>
      </trkpt>
      <trkpt lat="47.54989" lon="6.74105">
        <ele>422</ele>
        <time>2016-07-17T09:35:54.001Z</time>
      </trkpt>
      <trkpt lat="47.54989" lon="6.7411">
        <ele>422</ele>
        <time>2016-07-17T09:35:55.000Z</time>
      </trkpt>
      <trkpt lat="47.54989" lon="6.74115">
        <ele>422</ele>
        <time>2016-07-17T09:35:56.000Z</time>
      </trkpt>
      <trkpt lat="47.5499" lon="6.74119">
        <ele>422</ele>
        <time>2016-07-17T09:35:57.000Z</time>
      </trkpt>
      <trkpt lat="47.54991" lon="6.74123">
        <ele>422</ele>
        <time>2016-07-17T09:35:58.001Z</time>
      </trkpt>
      <trkpt lat="47.54992" lon="6.74127">
        <ele>422</ele>
        <time>2016-07-17T09:35:59.000Z</time>
      </trkpt>
      <trkpt lat="47.54994" lon="6.74133">
        <ele>423</ele>
        <time>2016-07-17T09:36:01.000Z</time>
      </trkpt>
      <trkpt lat="47.54995" lon="6.74136">
        <ele>423</ele>
        <time>2016-07-17T09:36:01.999Z</time>
      </trkpt>
      <trkpt lat="47.54995" lon="6.7414">
        <ele>423</ele>
        <time>2016-07-17T09:36:03.000Z</time>
      </trkpt>
      <trkpt lat="47.54996" lon="6.74144">
        <ele>423</ele>
        <time>2016-07-17T09:36:04.000Z</time>
      </trkpt>
      <trkpt lat="47.54996" lon="6.74147">
        <ele>424</ele>
        <time>2016-07-17T09:36:04.999Z</time>
      </trkpt>
      <trkpt lat="47.54997" lon="6.74152">
        <ele>424</ele>
        <time>2016-07-17T09:36:06.000Z</time>
      </trkpt>
      <trkpt lat="47.54998" lon="6.74156">
        <ele>425</ele>
        <time>2016-07-17T09:36:07.000Z</time>
      </trkpt>
      <trkpt lat="47.54999" lon="6.7416">
        <ele>426</ele>
        <time>2016-07-17T09:36:08.000Z</time>
      </trkpt>
      <trkpt lat="47.55001" lon="6.74166">
        <ele>427</ele>
        <time>2016-07-17T09:36:09.999Z</time>
      </trkpt>
      <trkpt lat="47.55001" lon="6.74169">
        <ele>428</ele>
        <time>2016-07-17T09:36:11.000Z</time>
      </trkpt>
      <trkpt lat="47.55002" lon="6.74173">
        <ele>429</ele>
        <time>2016-07-17T09:36:12.000Z</time>
      </trkpt>
      <trkpt lat="47.55003" lon="6.74177">
        <ele>430</ele>
        <time>2016-07-17T09:36:13.000Z</time>
      </trkpt>
      <trkpt lat="47.55004" lon="6.7418">
        <ele>430</ele>
        <time>2016-07-17T09:36:13.999Z</time>
      </trkpt>
      <trkpt lat="47.55005" lon="6.74185">
        <ele>431</ele>
        <time>2016-07-17T09:36:15.001Z</time>
      </trkpt>
      <trkpt lat="47.55007" lon="6.7419">
        <ele>432</ele>
        <time>2016-07-17T09:36:16.000Z</time>
      </trkpt>
      <trkpt lat="47.55009" lon="6.74194">
        <ele>432</ele>
        <time>2016-07-17T09:36:17.000Z</time>
      </trkpt>
      <trkpt lat="47.5501" lon="6.74199">
        <ele>433</ele>
        <time>2016-07-17T09:36:18.000Z</time>
      </trkpt>
      <trkpt lat="47.55011" lon="6.74206">
        <ele>433</ele>
        <time>2016-07-17T09:36:19.000Z</time>
      </trkpt>
      <trkpt lat="47.55012" lon="6.7421">
        <ele>433</ele>
        <time>2016-07-17T09:36:20.000Z</time>
      </trkpt>
      <trkpt lat="47.55013" lon="6.74215">
        <ele>433</ele>
        <time>2016-07-17T09:36:21.000Z</time>
      </trkpt>
      <trkpt lat="47.55014" lon="6.74219">
        <ele>433</ele>
        <time>2016-07-17T09:36:22.000Z</time>
      </trkpt>
      <trkpt lat="47.55015" lon="6.74224">
        <ele>433</ele>
        <time>2016-07-17T09:36:23.000Z</time>
      </trkpt>
      <trkpt lat="47.55016" lon="6.74229">
        <ele>433</ele>
        <time>2016-07-17T09:36:24.000Z</time>
      </trkpt>
      <trkpt lat="47.55016" lon="6.74233">
        <ele>433</ele>
        <time>2016-07-17T09:36:25.000Z</time>
      </trkpt>
      <trkpt lat="47.55016" lon="6.74236">
        <ele>433</ele>
        <time>2016-07-17T09:36:26.000Z</time>
      </trkpt>
      <trkpt lat="47.55015" lon="6.7424">
        <ele>433</ele>
        <time>2016-07-17T09:36:27.000Z</time>
      </trkpt>
      <trkpt lat="47.55012" lon="6.74243">
        <ele>432</ele>
        <time>2016-07-17T09:36:29.000Z</time>
      </trkpt>
      <trkpt lat="47.5501" lon="6.74246">
        <ele>432</ele>
        <time>2016-07-17T09:36:30.000Z</time>
      </trkpt>
      <trkpt lat="47.5501" lon="6.74248">
        <ele>432</ele>
        <time>2016-07-17T09:36:30.999Z</time>
      </trkpt>
      <trkpt lat="47.55008" lon="6.74253">
        <ele>432</ele>
        <time>2016-07-17T09:36:32.000Z</time>
      </trkpt>
      <trkpt lat="47.55008" lon="6.74257">
        <ele>433</ele>
        <time>2016-07-17T09:36:33.000Z</time>
      </trkpt>
      <trkpt lat="47.55009" lon="6.74262">
        <ele>433</ele>
        <time>2016-07-17T09:36:34.000Z</time>
      </trkpt>
      <trkpt lat="47.55009" lon="6.74269">
        <ele>434</ele>
        <time>2016-07-17T09:36:35.000Z</time>
      </trkpt>
      <trkpt lat="47.5501" lon="6.74275">
        <ele>435</ele>
        <time>2016-07-17T09:36:36.000Z</time>
      </trkpt>
      <trkpt lat="47.55011" lon="6.7428">
        <ele>435</ele>
        <time>2016-07-17T09:36:37.000Z</time>
      </trkpt>
      <trkpt lat="47.55012" lon="6.74285">
        <ele>436</ele>
        <time>2016-07-17T09:36:38.000Z</time>
      </trkpt>
      <trkpt lat="47.55013" lon="6.74289">
        <ele>436</ele>
        <time>2016-07-17T09:36:38.999Z</time>
      </trkpt>
      <trkpt lat="47.55015" lon="6.74295">
        <ele>436</ele>
        <time>2016-07-17T09:36:40.000Z</time>
      </trkpt>
      <trkpt lat="47.55016" lon="6.74299">
        <ele>436</ele>
        <time>2016-07-17T09:36:41.000Z</time>
      </trkpt>
      <trkpt lat="47.55017" lon="6.74304">
        <ele>436</ele>
        <time>2016-07-17T09:36:42.000Z</time>
      </trkpt>
      <trkpt lat="47.55017" lon="6.74307">
        <ele>437</ele>
        <time>2016-07-17T09:36:42.999Z</time>
      </trkpt>
      <trkpt lat="47.55017" lon="6.74311">
        <ele>437</ele>
        <time>2016-07-17T09:36:44.000Z</time>
      </trkpt>
      <trkpt lat="47.55016" lon="6.74315">
        <ele>437</ele>
        <time>2016-07-17T09:36:45.000Z</time>
      </trkpt>
      <trkpt lat="47.55014" lon="6.74319">
        <ele>437</ele>
        <time>2016-07-17T09:36:46.000Z</time>
      </trkpt>
      <trkpt lat="47.55012" lon="6.74324">
        <ele>436</ele>
        <time>2016-07-17T09:36:48.000Z</time>
      </trkpt>
      <trkpt lat="47.55012" lon="6.74326">
        <ele>436</ele>
        <time>2016-07-17T09:36:49.000Z</time>
      </trkpt>
      <trkpt lat="47.55013" lon="6.7433">
        <ele>436</ele>
        <time>2016-07-17T09:36:51.000Z</time>
      </trkpt>
      <trkpt lat="47.55015" lon="6.74332">
        <ele>437</ele>
        <time>2016-07-17T09:36:52.000Z</time>
      </trkpt>
      <trkpt lat="47.55017" lon="6.74335">
        <ele>438</ele>
        <time>2016-07-17T09:36:53.000Z</time>
      </trkpt>
      <trkpt lat="47.55019" lon="6.74338">
        <ele>439</ele>
        <time>2016-07-17T09:36:54.000Z</time>
      </trkpt>
      <trkpt lat="47.55021" lon="6.74341">
        <ele>439</ele>
        <time>2016-07-17T09:36:55.000Z</time>
      </trkpt>
      <trkpt lat="47.55022" lon="6.74344">
        <ele>439</ele>
        <time>2016-07-17T09:36:56.000Z</time>
      </trkpt>
      <trkpt lat="47.55023" lon="6.74347">
        <ele>439</ele>
        <time>2016-07-17T09:36:57.000Z</time>
      </trkpt>
      <trkpt lat="47.55024" lon="6.7435">
        <ele>439</ele>
        <time>2016-07-17T09:36:58.000Z</time>
      </trkpt>
      <trkpt lat="47.55027" lon="6.74354">
        <ele>440</ele>
        <time>2016-07-17T09:37:00.000Z</time>
      </trkpt>
      <trkpt lat="47.55028" lon="6.74356">
        <ele>440</ele>
        <time>2016-07-17T09:37:01.000Z</time>
      </trkpt>
      <trkpt lat="47.55031" lon="6.74361">
        <ele>440</ele>
        <time>2016-07-17T09:37:03.000Z</time>
      </trkpt>
      <trkpt lat="47.55032" lon="6.74363">
        <ele>440</ele>
        <time>2016-07-17T09:37:04.000Z</time>
      </trkpt>
      <trkpt lat="47.55032" lon="6.74369">
        <ele>440</ele>
        <time>2016-07-17T09:37:06.000Z</time>
      </trkpt>
      <trkpt lat="47.55033" lon="6.74372">
        <ele>440</ele>
        <time>2016-07-17T09:37:07.000Z</time>
      </trkpt>
      <trkpt lat="47.55034" lon="6.74377">
        <ele>441</ele>
        <time>2016-07-17T09:37:09.000Z</time>
      </trkpt>
      <trkpt lat="47.55035" lon="6.7438">
        <ele>441</ele>
        <time>2016-07-17T09:37:10.000Z</time>
      </trkpt>
      <trkpt lat="47.55036" lon="6.74386">
        <ele>441</ele>
        <time>2016-07-17T09:37:12.000Z</time>
      </trkpt>
      <trkpt lat="47.55036" lon="6.74389">
        <ele>441</ele>
        <time>2016-07-17T09:37:13.000Z</time>
      </trkpt>
      <trkpt lat="47.55038" lon="6.74395">
        <ele>441</ele>
        <time>2016-07-17T09:37:15.000Z</time>
      </trkpt>
      <trkpt lat="47.5504" lon="6.74396">
        <ele>441</ele>
        <time>2016-07-17T09:37:16.000Z</time>
      </trkpt>
      <trkpt lat="47.55043" lon="6.74399">
        <ele>441</ele>
        <time>2016-07-17T09:37:18.000Z</time>
      </trkpt>
      <trkpt lat="47.55045" lon="6.74401">
        <ele>441</ele>
        <time>2016-07-17T09:37:18.999Z</time>
      </trkpt>
      <trkpt lat="47.55045" lon="6.74407">
        <ele>441</ele>
        <time>2016-07-17T09:37:21.000Z</time>
      </trkpt>
      <trkpt lat="47.55045" lon="6.7441">
        <ele>441</ele>
        <time>2016-07-17T09:37:22.000Z</time>
      </trkpt>
      <trkpt lat="47.55045" lon="6.74415">
        <ele>441</ele>
        <time>2016-07-17T09:37:24.000Z</time>
      </trkpt>
      <trkpt lat="47.55047" lon="6.74416">
        <ele>441</ele>
        <time>2016-07-17T09:37:25.000Z</time>
      </trkpt>
      <trkpt lat="47.55051" lon="6.74419">
        <ele>443</ele>
        <time>2016-07-17T09:37:27.000Z</time>
      </trkpt>
      <trkpt lat="47.55052" lon="6.74422">
        <ele>443</ele>
        <time>2016-07-17T09:37:28.000Z</time>
      </trkpt>
      <trkpt lat="47.55053" lon="6.74428">
        <ele>443</ele>
        <time>2016-07-17T09:37:30.000Z</time>
      </trkpt>
      <trkpt lat="47.55054" lon="6.7443">
        <ele>443</ele>
        <time>2016-07-17T09:37:31.000Z</time>
      </trkpt>
      <trkpt lat="47.55055" lon="6.74434">
        <ele>443</ele>
        <time>2016-07-17T09:37:33.000Z</time>
      </trkpt>
      <trkpt lat="47.55056" lon="6.74436">
        <ele>443</ele>
        <time>2016-07-17T09:37:34.000Z</time>
      </trkpt>
      <trkpt lat="47.55058" lon="6.74438">
        <ele>443</ele>
        <time>2016-07-17T09:37:35.000Z</time>
      </trkpt>
      <trkpt lat="47.5506" lon="6.7444">
        <ele>443</ele>
        <time>2016-07-17T09:37:36.000Z</time>
      </trkpt>
      <trkpt lat="47.55062" lon="6.74442">
        <ele>443</ele>
        <time>2016-07-17T09:37:36.998Z</time>
      </trkpt>
      <trkpt lat="47.55065" lon="6.74444">
        <ele>443</ele>
        <time>2016-07-17T09:37:38.000Z</time>
      </trkpt>
      <trkpt lat="47.55068" lon="6.74445">
        <ele>443</ele>
        <time>2016-07-17T09:37:39.000Z</time>
      </trkpt>
      <trkpt lat="47.5507" lon="6.74447">
        <ele>443</ele>
        <time>2016-07-17T09:37:40.000Z</time>
      </trkpt>
      <trkpt lat="47.55073" lon="6.7445">
        <ele>443</ele>
        <time>2016-07-17T09:37:42.000Z</time>
      </trkpt>
      <trkpt lat="47.55074" lon="6.74453">
        <ele>444</ele>
        <time>2016-07-17T09:37:43.000Z</time>
      </trkpt>
      <trkpt lat="47.55075" lon="6.74458">
        <ele>444</ele>
        <time>2016-07-17T09:37:45.000Z</time>
      </trkpt>
      <trkpt lat="47.55074" lon="6.7446">
        <ele>444</ele>
        <time>2016-07-17T09:37:46.000Z</time>
      </trkpt>
      <trkpt lat="47.55076" lon="6.74464">
        <ele>444</ele>
        <time>2016-07-17T09:37:48.000Z</time>
      </trkpt>
      <trkpt lat="47.55076" lon="6.74467">
        <ele>444</ele>
        <time>2016-07-17T09:37:49.000Z</time>
      </trkpt>
      <trkpt lat="47.55077" lon="6.74472">
        <ele>444</ele>
        <time>2016-07-17T09:37:51.000Z</time>
      </trkpt>
      <trkpt lat="47.55077" lon="6.74474">
        <ele>444</ele>
        <time>2016-07-17T09:37:52.000Z</time>
      </trkpt>
      <trkpt lat="47.55077" lon="6.74479">
        <ele>444</ele>
        <time>2016-07-17T09:37:54.000Z</time>
      </trkpt>
      <trkpt lat="47.55077" lon="6.74481">
        <ele>444</ele>
        <time>2016-07-17T09:37:55.000Z</time>
      </trkpt>
      <trkpt lat="47.55078" lon="6.74486">
        <ele>444</ele>
        <time>2016-07-17T09:37:57.000Z</time>
      </trkpt>
      <trkpt lat="47.55079" lon="6.74487">
        <ele>444</ele>
        <time>2016-07-17T09:37:58.000Z</time>
      </trkpt>
      <trkpt lat="47.55082" lon="6.74489">
        <ele>444</ele>
        <time>2016-07-17T09:37:59.000Z</time>
      </trkpt>
      <trkpt lat="47.55084" lon="6.7449">
        <ele>444</ele>
        <time>2016-07-17T09:38:00.000Z</time>
      </trkpt>
      <trkpt lat="47.55087" lon="6.74491">
        <ele>444</ele>
        <time>2016-07-17T09:38:01.000Z</time>
      </trkpt>
      <trkpt lat="47.55088" lon="6.74492">
        <ele>445</ele>
        <time>2016-07-17T09:38:02.000Z</time>
      </trkpt>
      <trkpt lat="47.55091" lon="6.74496">
        <ele>444</ele>
        <time>2016-07-17T09:38:05.000Z</time>
      </trkpt>
      <trkpt lat="47.55092" lon="6.74497">
        <ele>445</ele>
        <time>2016-07-17T09:38:06.000Z</time>
      </trkpt>
      <trkpt lat="47.55094" lon="6.74503">
        <ele>445</ele>
        <time>2016-07-17T09:38:09.000Z</time>
      </trkpt>
      <trkpt lat="47.55095" lon="6.74504">
        <ele>446</ele>
        <time>2016-07-17T09:38:09.999Z</time>
      </trkpt>
      <trkpt lat="47.55095" lon="6.7451">
        <ele>446</ele>
        <time>2016-07-17T09:38:12.000Z</time>
      </trkpt>
      <trkpt lat="47.55095" lon="6.74513">
        <ele>446</ele>
        <time>2016-07-17T09:38:13.000Z</time>
      </trkpt>
      <trkpt lat="47.55096" lon="6.74519">
        <ele>446</ele>
        <time>2016-07-17T09:38:15.001Z</time>
      </trkpt>
      <trkpt lat="47.55096" lon="6.74522">
        <ele>446</ele>
        <time>2016-07-17T09:38:16.000Z</time>
      </trkpt>
      <trkpt lat="47.55097" lon="6.74527">
        <ele>447</ele>
        <time>2016-07-17T09:38:17.999Z</time>
      </trkpt>
      <trkpt lat="47.55097" lon="6.7453">
        <ele>447</ele>
        <time>2016-07-17T09:38:19.000Z</time>
      </trkpt>
      <trkpt lat="47.55096" lon="6.74535">
        <ele>447</ele>
        <time>2016-07-17T09:38:21.000Z</time>
      </trkpt>
      <trkpt lat="47.55096" lon="6.74537">
        <ele>447</ele>
        <time>2016-07-17T09:38:22.000Z</time>
      </trkpt>
      <trkpt lat="47.55095" lon="6.74543">
        <ele>447</ele>
        <time>2016-07-17T09:38:25.000Z</time>
      </trkpt>
      <trkpt lat="47.55095" lon="6.74545">
        <ele>447</ele>
        <time>2016-07-17T09:38:26.000Z</time>
      </trkpt>
      <trkpt lat="47.55095" lon="6.74551">
        <ele>447</ele>
        <time>2016-07-17T09:38:29.000Z</time>
      </trkpt>
      <trkpt lat="47.55095" lon="6.74553">
        <ele>447</ele>
        <time>2016-07-17T09:38:30.000Z</time>
      </trkpt>
      <trkpt lat="47.55096" lon="6.74559">
        <ele>448</ele>
        <time>2016-07-17T09:38:33.000Z</time>
      </trkpt>
      <trkpt lat="47.55096" lon="6.74561">
        <ele>448</ele>
        <time>2016-07-17T09:38:33.999Z</time>
      </trkpt>
      <trkpt lat="47.55098" lon="6.74565">
        <ele>448</ele>
        <time>2016-07-17T09:38:36.000Z</time>
      </trkpt>
      <trkpt lat="47.55099" lon="6.74568">
        <ele>448</ele>
        <time>2016-07-17T09:38:37.000Z</time>
      </trkpt>
      <trkpt lat="47.55102" lon="6.74571">
        <ele>448</ele>
        <time>2016-07-17T09:38:39.000Z</time>
      </trkpt>
      <trkpt lat="47.55103" lon="6.74573">
        <ele>448</ele>
        <time>2016-07-17T09:38:39.999Z</time>
      </trkpt>
      <trkpt lat="47.55105" lon="6.74577">
        <ele>448</ele>
        <time>2016-07-17T09:38:42.000Z</time>
      </trkpt>
      <trkpt lat="47.55105" lon="6.7458">
        <ele>448</ele>
        <time>2016-07-17T09:38:43.000Z</time>
      </trkpt>
      <trkpt lat="47.55104" lon="6.74585">
        <ele>449</ele>
        <time>2016-07-17T09:38:45.000Z</time>
      </trkpt>
      <trkpt lat="47.55104" lon="6.74587">
        <ele>449</ele>
        <time>2016-07-17T09:38:46.000Z</time>
      </trkpt>
      <trkpt lat="47.55106" lon="6.74593">
        <ele>449</ele>
        <time>2016-07-17T09:38:49.000Z</time>
      </trkpt>
      <trkpt lat="47.55107" lon="6.74595">
        <ele>449</ele>
        <time>2016-07-17T09:38:50.000Z</time>
      </trkpt>
      <trkpt lat="47.55108" lon="6.74598">
        <ele>449</ele>
        <time>2016-07-17T09:38:52.001Z</time>
      </trkpt>
      <trkpt lat="47.55109" lon="6.74601">
        <ele>450</ele>
        <time>2016-07-17T09:38:53.000Z</time>
      </trkpt>
      <trkpt lat="47.55111" lon="6.74605">
        <ele>450</ele>
        <time>2016-07-17T09:38:55.000Z</time>
      </trkpt>
      <trkpt lat="47.55113" lon="6.74607">
        <ele>450</ele>
        <time>2016-07-17T09:38:56.000Z</time>
      </trkpt>
      <trkpt lat="47.55114" lon="6.74611">
        <ele>450</ele>
        <time>2016-07-17T09:38:58.000Z</time>
      </trkpt>
      <trkpt lat="47.55115" lon="6.74613">
        <ele>450</ele>
        <time>2016-07-17T09:38:59.000Z</time>
      </trkpt>
      <trkpt lat="47.55117" lon="6.74618">
        <ele>450</ele>
        <time>2016-07-17T09:39:02.000Z</time>
      </trkpt>
      <trkpt lat="47.55118" lon="6.7462">
        <ele>450</ele>
        <time>2016-07-17T09:39:03.000Z</time>
      </trkpt>
      <trkpt lat="47.55119" lon="6.74626">
        <ele>450</ele>
        <time>2016-07-17T09:39:06.000Z</time>
      </trkpt>
      <trkpt lat="47.5512" lon="6.74628">
        <ele>450</ele>
        <time>2016-07-17T09:39:07.000Z</time>
      </trkpt>
      <trkpt lat="47.55121" lon="6.74634">
        <ele>450</ele>
        <time>2016-07-17T09:39:10.000Z</time>
      </trkpt>
      <trkpt lat="47.55122" lon="6.74636">
        <ele>450</ele>
        <time>2016-07-17T09:39:11.000Z</time>
      </trkpt>
      <trkpt lat="47.55124" lon="6.74641">
        <ele>450</ele>
        <time>2016-07-17T09:39:13.000Z</time>
      </trkpt>
      <trkpt lat="47.55125" lon="6.74644">
        <ele>450</ele>
        <time>2016-07-17T09:39:14.000Z</time>
      </trkpt>
      <trkpt lat="47.55127" lon="6.74646">
        <ele>450</ele>
        <time>2016-07-17T09:39:15.000Z</time>
      </trkpt>
      <trkpt lat="47.55129" lon="6.74649">
        <ele>450</ele>
        <time>2016-07-17T09:39:16.000Z</time>
      </trkpt>
      <trkpt lat="47.55131" lon="6.74654">
        <ele>450</ele>
        <time>2016-07-17T09:39:18.001Z</time>
      </trkpt>
      <trkpt lat="47.55132" lon="6.74656">
        <ele>450</ele>
        <time>2016-07-17T09:39:18.999Z</time>
      </trkpt>
      <trkpt lat="47.55132" lon="6.74662">
        <ele>450</ele>
        <time>2016-07-17T09:39:21.000Z</time>
      </trkpt>
      <trkpt lat="47.55134" lon="6.74664">
        <ele>450</ele>
        <time>2016-07-17T09:39:22.000Z</time>
      </trkpt>
      <trkpt lat="47.55137" lon="6.74666">
        <ele>450</ele>
        <time>2016-07-17T09:39:24.000Z</time>
      </trkpt>
      <trkpt lat="47.55139" lon="6.74668">
        <ele>451</ele>
        <time>2016-07-17T09:39:25.001Z</time>
      </trkpt>
      <trkpt lat="47.55139" lon="6.74674">
        <ele>451</ele>
        <time>2016-07-17T09:39:29.000Z</time>
      </trkpt>
      <trkpt lat="47.5514" lon="6.74675">
        <ele>451</ele>
        <time>2016-07-17T09:39:30.000Z</time>
      </trkpt>
      <trkpt lat="47.55138" lon="6.7468">
        <ele>451</ele>
        <time>2016-07-17T09:39:33.000Z</time>
      </trkpt>
      <trkpt lat="47.55136" lon="6.74681">
        <ele>451</ele>
        <time>2016-07-17T09:39:34.000Z</time>
      </trkpt>
      <trkpt lat="47.55133" lon="6.74684">
        <ele>451</ele>
        <time>2016-07-17T09:39:37.001Z</time>
      </trkpt>
      <trkpt lat="47.55131" lon="6.74685">
        <ele>451</ele>
        <time>2016-07-17T09:39:38.000Z</time>
      </trkpt>
      <trkpt lat="47.55129" lon="6.74689">
        <ele>451</ele>
        <time>2016-07-17T09:39:41.000Z</time>
      </trkpt>
      <trkpt lat="47.55127" lon="6.7469">
        <ele>451</ele>
        <time>2016-07-17T09:39:42.000Z</time>
      </trkpt>
      <trkpt lat="47.55126" lon="6.74691">
        <ele>451</ele>
        <time>2016-07-17T09:39:42.999Z</time>
      </trkpt>
      <trkpt lat="47.55123" lon="6.74694">
        <ele>451</ele>
        <time>2016-07-17T09:39:44.000Z</time>
      </trkpt>
      <trkpt lat="47.55122" lon="6.74695">
        <ele>451</ele>
        <time>2016-07-17T09:39:45.000Z</time>
      </trkpt>
      <trkpt lat="47.55119" lon="6.74698">
        <ele>452</ele>
        <time>2016-07-17T09:39:46.000Z</time>
      </trkpt>
      <trkpt lat="47.55116" lon="6.74701">
        <ele>452</ele>
        <time>2016-07-17T09:39:47.000Z</time>
      </trkpt>
      <trkpt lat="47.55114" lon="6.74704">
        <ele>452</ele>
        <time>2016-07-17T09:39:48.000Z</time>
      </trkpt>
      <trkpt lat="47.55113" lon="6.74707">
        <ele>452</ele>
        <time>2016-07-17T09:39:49.000Z</time>
      </trkpt>
      <trkpt lat="47.55111" lon="6.74709">
        <ele>452</ele>
        <time>2016-07-17T09:39:50.001Z</time>
      </trkpt>
      <trkpt lat="47.55108" lon="6.74714">
        <ele>452</ele>
        <time>2016-07-17T09:39:52.000Z</time>
      </trkpt>
      <trkpt lat="47.55106" lon="6.74715">
        <ele>452</ele>
        <time>2016-07-17T09:39:53.000Z</time>
      </trkpt>
      <trkpt lat="47.55103" lon="6.74717">
        <ele>452</ele>
        <time>2016-07-17T09:39:55.000Z</time>
      </trkpt>
      <trkpt lat="47.55101" lon="6.74718">
        <ele>452</ele>
        <time>2016-07-17T09:39:56.000Z</time>
      </trkpt>
      <trkpt lat="47.55098" lon="6.74721">
        <ele>452</ele>
        <time>2016-07-17T09:39:59.000Z</time>
      </trkpt>
      <trkpt lat="47.55097" lon="6.74723">
        <ele>452</ele>
        <time>2016-07-17T09:40:00.000Z</time>
      </trkpt>
      <trkpt lat="47.55094" lon="6.74727">
        <ele>452</ele>
        <time>2016-07-17T09:40:03.000Z</time>
      </trkpt>
      <trkpt lat="47.55094" lon="6.74729">
        <ele>452</ele>
        <time>2016-07-17T09:40:04.000Z</time>
      </trkpt>
      <trkpt lat="47.55091" lon="6.74734">
        <ele>453</ele>
        <time>2016-07-17T09:40:08.000Z</time>
      </trkpt>
      <trkpt lat="47.5509" lon="6.74734">
        <ele>453</ele>
        <time>2016-07-17T09:40:09.000Z</time>
      </trkpt>
      <trkpt lat="47.55087" lon="6.74738">
        <ele>453</ele>
        <time>2016-07-17T09:40:12.000Z</time>
      </trkpt>
      <trkpt lat="47.55085" lon="6.7474">
        <ele>453</ele>
        <time>2016-07-17T09:40:13.000Z</time>
      </trkpt>
      <trkpt lat="47.55082" lon="6.74743">
        <ele>454</ele>
        <time>2016-07-17T09:40:15.000Z</time>
      </trkpt>
      <trkpt lat="47.5508" lon="6.74745">
        <ele>454</ele>
        <time>2016-07-17T09:40:16.000Z</time>
      </trkpt>
      <trkpt lat="47.55077" lon="6.74747">
        <ele>454</ele>
        <time>2016-07-17T09:40:18.000Z</time>
      </trkpt>
      <trkpt lat="47.55075" lon="6.74748">
        <ele>454</ele>
        <time>2016-07-17T09:40:19.000Z</time>
      </trkpt>
      <trkpt lat="47.55071" lon="6.74751">
        <ele>454</ele>
        <time>2016-07-17T09:40:23.000Z</time>
      </trkpt>
      <trkpt lat="47.5507" lon="6.74752">
        <ele>454</ele>
        <time>2016-07-17T09:40:24.000Z</time>
      </trkpt>
      <trkpt lat="47.55066" lon="6.74752">
        <ele>454</ele>
        <time>2016-07-17T09:40:29.000Z</time>
      </trkpt>
      <trkpt lat="47.55066" lon="6.74755">
        <ele>454</ele>
        <time>2016-07-17T09:40:30.000Z</time>
      </trkpt>
      <trkpt lat="47.55063" lon="6.74759">
        <ele>454</ele>
        <time>2016-07-17T09:40:36.000Z</time>
      </trkpt>
      <trkpt lat="47.55063" lon="6.7476">
        <ele>454</ele>
        <time>2016-07-17T09:40:37.000Z</time>
      </trkpt>
      <trkpt lat="47.55059" lon="6.74762">
        <ele>454</ele>
        <time>2016-07-17T09:40:49.000Z</time>
      </trkpt>
      <trkpt lat="47.55059" lon="6.74762">
        <ele>454</ele>
        <time>2016-07-17T09:40:50.000Z</time>
      </trkpt>
      <trkpt lat="47.55056" lon="6.74759">
        <ele>454</ele>
        <time>2016-07-17T09:41:01.000Z</time>
      </trkpt>
      <trkpt lat="47.55055" lon="6.74758">
        <ele>454</ele>
        <time>2016-07-17T09:41:02.000Z</time>
      </trkpt>
      <trkpt lat="47.55051" lon="6.74755">
        <ele>454</ele>
        <time>2016-07-17T09:41:04.000Z</time>
      </trkpt>
      <trkpt lat="47.55049" lon="6.74754">
        <ele>454</ele>
        <time>2016-07-17T09:41:05.000Z</time>
      </trkpt>
      <trkpt lat="47.55046" lon="6.74753">
        <ele>454</ele>
        <time>2016-07-17T09:41:07.000Z</time>
      </trkpt>
      <trkpt lat="47.55045" lon="6.74752">
        <ele>454</ele>
        <time>2016-07-17T09:41:08.000Z</time>
      </trkpt>
      <trkpt lat="47.5504" lon="6.74751">
        <ele>454</ele>
        <time>2016-07-17T09:41:10.000Z</time>
      </trkpt>
      <trkpt lat="47.55038" lon="6.7475">
        <ele>453</ele>
        <time>2016-07-17T09:41:11.000Z</time>
      </trkpt>
      <trkpt lat="47.55035" lon="6.74748">
        <ele>453</ele>
        <time>2016-07-17T09:41:13.000Z</time>
      </trkpt>
      <trkpt lat="47.55033" lon="6.74747">
        <ele>453</ele>
        <time>2016-07-17T09:41:14.000Z</time>
      </trkpt>
      <trkpt lat="47.55029" lon="6.74747">
        <ele>453</ele>
        <time>2016-07-17T09:41:16.000Z</time>
      </trkpt>
      <trkpt lat="47.55028" lon="6.74747">
        <ele>453</ele>
        <time>2016-07-17T09:41:17.000Z</time>
      </trkpt>
      <trkpt lat="47.55024" lon="6.74747">
        <ele>453</ele>
        <time>2016-07-17T09:41:19.000Z</time>
      </trkpt>
      <trkpt lat="47.55022" lon="6.74747">
        <ele>453</ele>
        <time>2016-07-17T09:41:20.000Z</time>
      </trkpt>
      <trkpt lat="47.55018" lon="6.7475">
        <ele>454</ele>
        <time>2016-07-17T09:41:23.000Z</time>
      </trkpt>
      <trkpt lat="47.55016" lon="6.74752">
        <ele>454</ele>
        <time>2016-07-17T09:41:24.000Z</time>
      </trkpt>
      <trkpt lat="47.55014" lon="6.74754">
        <ele>454</ele>
        <time>2016-07-17T09:41:25.000Z</time>
      </trkpt>
      <trkpt lat="47.55011" lon="6.74756">
        <ele>454</ele>
        <time>2016-07-17T09:41:26.000Z</time>
      </trkpt>
      <trkpt lat="47.55009" lon="6.74758">
        <ele>454</ele>
        <time>2016-07-17T09:41:27.000Z</time>
      </trkpt>
      <trkpt lat="47.55006" lon="6.74759">
        <ele>454</ele>
        <time>2016-07-17T09:41:28.000Z</time>
      </trkpt>
      <trkpt lat="47.55003" lon="6.74762">
        <ele>454</ele>
        <time>2016-07-17T09:41:31.000Z</time>
      </trkpt>
      <trkpt lat="47.55002" lon="6.74763">
        <ele>454</ele>
        <time>2016-07-17T09:41:32.000Z</time>
      </trkpt>
      <trkpt lat="47.54999" lon="6.74767">
        <ele>453</ele>
        <time>2016-07-17T09:41:34.000Z</time>
      </trkpt>
      <trkpt lat="47.54997" lon="6.74769">
        <ele>453</ele>
        <time>2016-07-17T09:41:35.000Z</time>
      </trkpt>
      <trkpt lat="47.54994" lon="6.74774">
        <ele>453</ele>
        <time>2016-07-17T09:41:37.000Z</time>
      </trkpt>
      <trkpt lat="47.54993" lon="6.74776">
        <ele>453</ele>
        <time>2016-07-17T09:41:38.000Z</time>
      </trkpt>
      <trkpt lat="47.54991" lon="6.74779">
        <ele>453</ele>
        <time>2016-07-17T09:41:40.000Z</time>
      </trkpt>
      <trkpt lat="47.54989" lon="6.7478">
        <ele>453</ele>
        <time>2016-07-17T09:41:41.000Z</time>
      </trkpt>
      <trkpt lat="47.54986" lon="6.74782">
        <ele>453</ele>
        <time>2016-07-17T09:41:43.000Z</time>
      </trkpt>
      <trkpt lat="47.54984" lon="6.74783">
        <ele>452</ele>
        <time>2016-07-17T09:41:44.000Z</time>
      </trkpt>
      <trkpt lat="47.5498" lon="6.74785">
        <ele>452</ele>
        <time>2016-07-17T09:41:46.000Z</time>
      </trkpt>
      <trkpt lat="47.54978" lon="6.74785">
        <ele>452</ele>
        <time>2016-07-17T09:41:47.000Z</time>
      </trkpt>
      <trkpt lat="47.54975" lon="6.74786">
        <ele>452</ele>
        <time>2016-07-17T09:41:48.000Z</time>
      </trkpt>
      <trkpt lat="47.54973" lon="6.74787">
        <ele>452</ele>
        <time>2016-07-17T09:41:49.000Z</time>
      </trkpt>
      <trkpt lat="47.54969" lon="6.74788">
        <ele>452</ele>
        <time>2016-07-17T09:41:51.000Z</time>
      </trkpt>
      <trkpt lat="47.54968" lon="6.74789">
        <ele>452</ele>
        <time>2016-07-17T09:41:52.000Z</time>
      </trkpt>
      <trkpt lat="47.54964" lon="6.74791">
        <ele>452</ele>
        <time>2016-07-17T09:41:55.000Z</time>
      </trkpt>
      <trkpt lat="47.54963" lon="6.74792">
        <ele>452</ele>
        <time>2016-07-17T09:41:56.000Z</time>
      </trkpt>
      <trkpt lat="47.54959" lon="6.74791">
        <ele>452</ele>
        <time>2016-07-17T09:42:05.000Z</time>
      </trkpt>
      <trkpt lat="47.54958" lon="6.7479">
        <ele>452</ele>
        <time>2016-07-17T09:42:06.000Z</time>
      </trkpt>
      <trkpt lat="47.54954" lon="6.7479">
        <ele>452</ele>
        <time>2016-07-17T09:42:11.000Z</time>
      </trkpt>
      <trkpt lat="47.54953" lon="6.74791">
        <ele>452</ele>
        <time>2016-07-17T09:42:12.000Z</time>
      </trkpt>
      <trkpt lat="47.54949" lon="6.74792">
        <ele>451</ele>
        <time>2016-07-17T09:42:22.000Z</time>
      </trkpt>
      <trkpt lat="47.54949" lon="6.74793">
        <ele>451</ele>
        <time>2016-07-17T09:42:23.000Z</time>
      </trkpt>
      <trkpt lat="47.54947" lon="6.74798">
        <ele>451</ele>
        <time>2016-07-17T09:42:27.000Z</time>
      </trkpt>
      <trkpt lat="47.54947" lon="6.748">
        <ele>451</ele>
        <time>2016-07-17T09:42:28.000Z</time>
      </trkpt>
      <trkpt lat="47.54948" lon="6.74806">
        <ele>452</ele>
        <time>2016-07-17T09:42:32.000Z</time>
      </trkpt>
      <trkpt lat="47.54948" lon="6.74808">
        <ele>452</ele>
        <time>2016-07-17T09:42:33.000Z</time>
      </trkpt>
      <trkpt lat="47.54948" lon="6.74814">
        <ele>452</ele>
        <time>2016-07-17T09:42:37.000Z</time>
      </trkpt>
      <trkpt lat="47.54946" lon="6.74816">
        <ele>451</ele>
        <time>2016-07-17T09:42:38.000Z</time>
      </trkpt>
      <trkpt lat="47.54945" lon="6.74819">
        <ele>451</ele>
        <time>2016-07-17T09:42:39.000Z</time>
      </trkpt>
      <trkpt lat="47.54943" lon="6.74821">
        <ele>451</ele>
        <time>2016-07-17T09:42:40.000Z</time>
      </trkpt>
      <trkpt lat="47.54941" lon="6.74824">
        <ele>451</ele>
        <time>2016-07-17T09:42:41.000Z</time>
      </trkpt>
      <trkpt lat="47.5494" lon="6.74827">
        <ele>451</ele>
        <time>2016-07-17T09:42:42.000Z</time>
      </trkpt>
      <trkpt lat="47.54938" lon="6.74829">
        <ele>451</ele>
        <time>2016-07-17T09:42:43.000Z</time>
      </trkpt>
      <trkpt lat="47.54936" lon="6.74832">
        <ele>451</ele>
        <time>2016-07-17T09:42:44.000Z</time>
      </trkpt>
      <trkpt lat="47.54936" lon="6.74837">
        <ele>450</ele>
        <time>2016-07-17T09:42:46.000Z</time>
      </trkpt>
      <trkpt lat="47.54936" lon="6.74839">
        <ele>450</ele>
        <time>2016-07-17T09:42:47.000Z</time>
      </trkpt>
      <trkpt lat="47.54939" lon="6.74843">
        <ele>450</ele>
        <time>2016-07-17T09:43:17.000Z</time>
      </trkpt>
      <trkpt lat="47.54939" lon="6.74845">
        <ele>450</ele>
        <time>2016-07-17T09:43:18.000Z</time>
      </trkpt>
      <trkpt lat="47.54942" lon="6.74842">
        <ele>450</ele>
        <time>2016-07-17T09:43:29.000Z</time>
      </trkpt>
      <trkpt lat="47.54943" lon="6.74841">
        <ele>450</ele>
        <time>2016-07-17T09:43:30.000Z</time>
      </trkpt>
      <trkpt lat="47.54946" lon="6.74837">
        <ele>450</ele>
        <time>2016-07-17T09:43:33.000Z</time>
      </trkpt>
      <trkpt lat="47.54948" lon="6.74836">
        <ele>450</ele>
        <time>2016-07-17T09:43:34.000Z</time>
      </trkpt>
      <trkpt lat="47.54951" lon="6.74832">
        <ele>452</ele>
        <time>2016-07-17T09:43:37.000Z</time>
      </trkpt>
      <trkpt lat="47.54952" lon="6.74831">
        <ele>452</ele>
        <time>2016-07-17T09:43:38.000Z</time>
      </trkpt>
      <trkpt lat="47.54952" lon="6.74825">
        <ele>452</ele>
        <time>2016-07-17T09:43:42.000Z</time>
      </trkpt>
      <trkpt lat="47.54952" lon="6.74824">
        <ele>452</ele>
        <time>2016-07-17T09:43:43.000Z</time>
      </trkpt>
      <trkpt lat="47.54956" lon="6.74823">
        <ele>452</ele>
        <time>2016-07-17T09:43:47.000Z</time>
      </trkpt>
      <trkpt lat="47.54957" lon="6.74823">
        <ele>452</ele>
        <time>2016-07-17T09:43:48.000Z</time>
      </trkpt>
      <trkpt lat="47.54961" lon="6.74823">
        <ele>452</ele>
        <time>2016-07-17T09:43:50.000Z</time>
      </trkpt>
      <trkpt lat="47.54962" lon="6.74823">
        <ele>452</ele>
        <time>2016-07-17T09:43:51.000Z</time>
      </trkpt>
      <trkpt lat="47.54966" lon="6.74822">
        <ele>452</ele>
        <time>2016-07-17T09:43:54.000Z</time>
      </trkpt>
      <trkpt lat="47.54968" lon="6.74822">
        <ele>452</ele>
        <time>2016-07-17T09:43:55.000Z</time>
      </trkpt>
      <trkpt lat="47.54971" lon="6.74822">
        <ele>453</ele>
        <time>2016-07-17T09:43:57.000Z</time>
      </trkpt>
      <trkpt lat="47.54973" lon="6.74822">
        <ele>453</ele>
        <time>2016-07-17T09:43:58.000Z</time>
      </trkpt>
      <trkpt lat="47.54976" lon="6.74819">
        <ele>453</ele>
        <time>2016-07-17T09:44:01.000Z</time>
      </trkpt>
      <trkpt lat="47.54978" lon="6.74817">
        <ele>453</ele>
        <time>2016-07-17T09:44:02.000Z</time>
      </trkpt>
      <trkpt lat="47.54979" lon="6.74815">
        <ele>453</ele>
        <time>2016-07-17T09:44:03.000Z</time>
      </trkpt>
      <trkpt lat="47.5498" lon="6.74812">
        <ele>453</ele>
        <time>2016-07-17T09:44:04.000Z</time>
      </trkpt>
      <trkpt lat="47.54982" lon="6.74805">
        <ele>453</ele>
        <time>2016-07-17T09:44:06.000Z</time>
      </trkpt>
      <trkpt lat="47.54983" lon="6.74803">
        <ele>453</ele>
        <time>2016-07-17T09:44:07.000Z</time>
      </trkpt>
      <trkpt lat="47.54986" lon="6.74798">
        <ele>453</ele>
        <time>2016-07-17T09:44:10.000Z</time>
      </trkpt>
      <trkpt lat="47.54987" lon="6.74798">
        <ele>453</ele>
        <time>2016-07-17T09:44:11.000Z</time>
      </trkpt>
      <trkpt lat="47.54991" lon="6.74795">
        <ele>453</ele>
        <time>2016-07-17T09:44:13.000Z</time>
      </trkpt>
      <trkpt lat="47.54993" lon="6.74793">
        <ele>453</ele>
        <time>2016-07-17T09:44:14.000Z</time>
      </trkpt>
      <trkpt lat="47.54996" lon="6.74791">
        <ele>453</ele>
        <time>2016-07-17T09:44:16.000Z</time>
      </trkpt>
      <trkpt lat="47.54998" lon="6.7479">
        <ele>453</ele>
        <time>2016-07-17T09:44:17.000Z</time>
      </trkpt>
      <trkpt lat="47.55002" lon="6.74788">
        <ele>454</ele>
        <time>2016-07-17T09:44:19.000Z</time>
      </trkpt>
      <trkpt lat="47.55004" lon="6.74787">
        <ele>454</ele>
        <time>2016-07-17T09:44:20.000Z</time>
      </trkpt>
      <trkpt lat="47.55006" lon="6.74787">
        <ele>454</ele>
        <time>2016-07-17T09:44:22.000Z</time>
      </trkpt>
      <trkpt lat="47.55008" lon="6.74787">
        <ele>454</ele>
        <time>2016-07-17T09:44:23.000Z</time>
      </trkpt>
      <trkpt lat="47.55011" lon="6.74787">
        <ele>454</ele>
        <time>2016-07-17T09:44:25.000Z</time>
      </trkpt>
      <trkpt lat="47.55013" lon="6.74787">
        <ele>454</ele>
        <time>2016-07-17T09:44:26.000Z</time>
      </trkpt>
      <trkpt lat="47.55016" lon="6.74786">
        <ele>454</ele>
        <time>2016-07-17T09:44:28.000Z</time>
      </trkpt>
      <trkpt lat="47.55018" lon="6.74785">
        <ele>454</ele>
        <time>2016-07-17T09:44:29.000Z</time>
      </trkpt>
      <trkpt lat="47.55022" lon="6.74784">
        <ele>454</ele>
        <time>2016-07-17T09:44:31.000Z</time>
      </trkpt>
      <trkpt lat="47.55024" lon="6.74784">
        <ele>454</ele>
        <time>2016-07-17T09:44:32.000Z</time>
      </trkpt>
      <trkpt lat="47.55027" lon="6.74784">
        <ele>454</ele>
        <time>2016-07-17T09:44:34.000Z</time>
      </trkpt>
      <trkpt lat="47.55028" lon="6.74785">
        <ele>454</ele>
        <time>2016-07-17T09:44:35.000Z</time>
      </trkpt>
      <trkpt lat="47.55032" lon="6.74786">
        <ele>454</ele>
        <time>2016-07-17T09:44:37.000Z</time>
      </trkpt>
      <trkpt lat="47.55033" lon="6.74787">
        <ele>454</ele>
        <time>2016-07-17T09:44:38.000Z</time>
      </trkpt>
      <trkpt lat="47.55036" lon="6.74788">
        <ele>454</ele>
        <time>2016-07-17T09:44:40.000Z</time>
      </trkpt>
      <trkpt lat="47.55038" lon="6.74789">
        <ele>454</ele>
        <time>2016-07-17T09:44:41.000Z</time>
      </trkpt>
      <trkpt lat="47.55043" lon="6.74789">
        <ele>454</ele>
        <time>2016-07-17T09:44:44.000Z</time>
      </trkpt>
      <trkpt lat="47.55044" lon="6.74788">
        <ele>454</ele>
        <time>2016-07-17T09:44:45.000Z</time>
      </trkpt>
      <trkpt lat="47.55048" lon="6.74789">
        <ele>454</ele>
        <time>2016-07-17T09:44:48.000Z</time>
      </trkpt>
      <trkpt lat="47.55049" lon="6.7479">
        <ele>454</ele>
        <time>2016-07-17T09:44:49.000Z</time>
      </trkpt>
      <trkpt lat="47.55053" lon="6.74791">
        <ele>454</ele>
        <time>2016-07-17T09:44:51.000Z</time>
      </trkpt>
      <trkpt lat="47.55054" lon="6.74791">
        <ele>454</ele>
        <time>2016-07-17T09:44:52.000Z</time>
      </trkpt>
      <trkpt lat="47.55058" lon="6.7479">
        <ele>454</ele>
        <time>2016-07-17T09:44:54.000Z</time>
      </trkpt>
      <trkpt lat="47.55059" lon="6.7479">
        <ele>454</ele>
        <time>2016-07-17T09:44:55.000Z</time>
      </trkpt>
      <trkpt lat="47.55063" lon="6.74789">
        <ele>454</ele>
        <time>2016-07-17T09:44:57.000Z</time>
      </trkpt>
      <trkpt lat="47.55065" lon="6.74788">
        <ele>454</ele>
        <time>2016-07-17T09:44:58.000Z</time>
      </trkpt>
      <trkpt lat="47.55068" lon="6.74785">
        <ele>454</ele>
        <time>2016-07-17T09:45:00.000Z</time>
      </trkpt>
      <trkpt lat="47.55069" lon="6.74783">
        <ele>454</ele>
        <time>2016-07-17T09:45:01.000Z</time>
      </trkpt>
      <trkpt lat="47.55072" lon="6.7478">
        <ele>454</ele>
        <time>2016-07-17T09:45:03.000Z</time>
      </trkpt>
      <trkpt lat="47.55074" lon="6.74778">
        <ele>454</ele>
        <time>2016-07-17T09:45:04.000Z</time>
      </trkpt>
      <trkpt lat="47.55076" lon="6.74775">
        <ele>454</ele>
        <time>2016-07-17T09:45:05.000Z</time>
      </trkpt>
      <trkpt lat="47.55079" lon="6.74773">
        <ele>454</ele>
        <time>2016-07-17T09:45:06.000Z</time>
      </trkpt>
      <trkpt lat="47.55082" lon="6.74771">
        <ele>454</ele>
        <time>2016-07-17T09:45:07.000Z</time>
      </trkpt>
      <trkpt lat="47.55085" lon="6.74769">
        <ele>452</ele>
        <time>2016-07-17T09:45:08.000Z</time>
      </trkpt>
      <trkpt lat="47.55087" lon="6.74766">
        <ele>452</ele>
        <time>2016-07-17T09:45:09.000Z</time>
      </trkpt>
      <trkpt lat="47.5509" lon="6.74764">
        <ele>452</ele>
        <time>2016-07-17T09:45:10.000Z</time>
      </trkpt>
      <trkpt lat="47.55092" lon="6.74761">
        <ele>453</ele>
        <time>2016-07-17T09:45:11.000Z</time>
      </trkpt>
      <trkpt lat="47.55094" lon="6.74759">
        <ele>453</ele>
        <time>2016-07-17T09:45:12.000Z</time>
      </trkpt>
      <trkpt lat="47.55096" lon="6.74757">
        <ele>452</ele>
        <time>2016-07-17T09:45:13.000Z</time>
      </trkpt>
      <trkpt lat="47.55099" lon="6.74755">
        <ele>452</ele>
        <time>2016-07-17T09:45:14.000Z</time>
      </trkpt>
      <trkpt lat="47.55102" lon="6.74753">
        <ele>452</ele>
        <time>2016-07-17T09:45:16.000Z</time>
      </trkpt>
      <trkpt lat="47.55103" lon="6.74752">
        <ele>452</ele>
        <time>2016-07-17T09:45:17.000Z</time>
      </trkpt>
      <trkpt lat="47.55105" lon="6.7475">
        <ele>452</ele>
        <time>2016-07-17T09:45:18.000Z</time>
      </trkpt>
      <trkpt lat="47.55108" lon="6.74749">
        <ele>452</ele>
        <time>2016-07-17T09:45:19.000Z</time>
      </trkpt>
      <trkpt lat="47.5511" lon="6.74747">
        <ele>452</ele>
        <time>2016-07-17T09:45:20.000Z</time>
      </trkpt>
      <trkpt lat="47.55111" lon="6.74745">
        <ele>452</ele>
        <time>2016-07-17T09:45:21.000Z</time>
      </trkpt>
      <trkpt lat="47.55114" lon="6.7474">
        <ele>452</ele>
        <time>2016-07-17T09:45:23.000Z</time>
      </trkpt>
      <trkpt lat="47.55115" lon="6.74737">
        <ele>452</ele>
        <time>2016-07-17T09:45:24.000Z</time>
      </trkpt>
      <trkpt lat="47.55118" lon="6.74732">
        <ele>452</ele>
        <time>2016-07-17T09:45:26.000Z</time>
      </trkpt>
      <trkpt lat="47.55119" lon="6.7473">
        <ele>452</ele>
        <time>2016-07-17T09:45:27.000Z</time>
      </trkpt>
      <trkpt lat="47.55122" lon="6.74726">
        <ele>452</ele>
        <time>2016-07-17T09:45:29.000Z</time>
      </trkpt>
      <trkpt lat="47.55124" lon="6.74724">
        <ele>452</ele>
        <time>2016-07-17T09:45:30.000Z</time>
      </trkpt>
      <trkpt lat="47.55127" lon="6.74722">
        <ele>452</ele>
        <time>2016-07-17T09:45:31.000Z</time>
      </trkpt>
      <trkpt lat="47.55129" lon="6.74719">
        <ele>451</ele>
        <time>2016-07-17T09:45:32.000Z</time>
      </trkpt>
      <trkpt lat="47.55131" lon="6.74717">
        <ele>451</ele>
        <time>2016-07-17T09:45:33.000Z</time>
      </trkpt>
      <trkpt lat="47.55132" lon="6.74714">
        <ele>451</ele>
        <time>2016-07-17T09:45:34.000Z</time>
      </trkpt>
      <trkpt lat="47.55134" lon="6.74711">
        <ele>451</ele>
        <time>2016-07-17T09:45:35.000Z</time>
      </trkpt>
      <trkpt lat="47.55136" lon="6.74708">
        <ele>451</ele>
        <time>2016-07-17T09:45:36.000Z</time>
      </trkpt>
      <trkpt lat="47.55138" lon="6.74706">
        <ele>451</ele>
        <time>2016-07-17T09:45:37.000Z</time>
      </trkpt>
      <trkpt lat="47.5514" lon="6.74703">
        <ele>451</ele>
        <time>2016-07-17T09:45:38.000Z</time>
      </trkpt>
      <trkpt lat="47.55141" lon="6.74701">
        <ele>451</ele>
        <time>2016-07-17T09:45:39.000Z</time>
      </trkpt>
      <trkpt lat="47.55143" lon="6.74698">
        <ele>451</ele>
        <time>2016-07-17T09:45:40.000Z</time>
      </trkpt>
      <trkpt lat="47.55144" lon="6.74695">
        <ele>451</ele>
        <time>2016-07-17T09:45:41.000Z</time>
      </trkpt>
      <trkpt lat="47.55146" lon="6.74692">
        <ele>451</ele>
        <time>2016-07-17T09:45:42.000Z</time>
      </trkpt>
      <trkpt lat="47.55147" lon="6.7469">
        <ele>451</ele>
        <time>2016-07-17T09:45:43.000Z</time>
      </trkpt>
      <trkpt lat="47.55149" lon="6.74688">
        <ele>451</ele>
        <time>2016-07-17T09:45:44.000Z</time>
      </trkpt>
      <trkpt lat="47.55153" lon="6.74691">
        <ele>451</ele>
        <time>2016-07-17T09:45:47.000Z</time>
      </trkpt>
      <trkpt lat="47.55153" lon="6.74693">
        <ele>451</ele>
        <time>2016-07-17T09:45:48.000Z</time>
      </trkpt>
      <trkpt lat="47.55154" lon="6.74699">
        <ele>451</ele>
        <time>2016-07-17T09:45:50.000Z</time>
      </trkpt>
      <trkpt lat="47.55155" lon="6.74701">
        <ele>451</ele>
        <time>2016-07-17T09:45:51.000Z</time>
      </trkpt>
      <trkpt lat="47.55156" lon="6.74707">
        <ele>451</ele>
        <time>2016-07-17T09:45:53.000Z</time>
      </trkpt>
      <trkpt lat="47.55157" lon="6.7471">
        <ele>451</ele>
        <time>2016-07-17T09:45:54.000Z</time>
      </trkpt>
      <trkpt lat="47.55158" lon="6.74713">
        <ele>451</ele>
        <time>2016-07-17T09:45:55.000Z</time>
      </trkpt>
      <trkpt lat="47.55159" lon="6.74717">
        <ele>451</ele>
        <time>2016-07-17T09:45:56.000Z</time>
      </trkpt>
      <trkpt lat="47.5516" lon="6.7472">
        <ele>451</ele>
        <time>2016-07-17T09:45:57.000Z</time>
      </trkpt>
      <trkpt lat="47.55161" lon="6.74724">
        <ele>451</ele>
        <time>2016-07-17T09:45:58.000Z</time>
      </trkpt>
      <trkpt lat="47.55162" lon="6.74728">
        <ele>451</ele>
        <time>2016-07-17T09:45:59.000Z</time>
      </trkpt>
      <trkpt lat="47.55163" lon="6.74731">
        <ele>451</ele>
        <time>2016-07-17T09:46:00.000Z</time>
      </trkpt>
      <trkpt lat="47.55164" lon="6.74735">
        <ele>451</ele>
        <time>2016-07-17T09:46:01.000Z</time>
      </trkpt>
      <trkpt lat="47.55165" lon="6.74738">
        <ele>451</ele>
        <time>2016-07-17T09:46:02.000Z</time>
      </trkpt>
      <trkpt lat="47.55166" lon="6.74742">
        <ele>450</ele>
        <time>2016-07-17T09:46:03.000Z</time>
      </trkpt>
      <trkpt lat="47.55168" lon="6.74745">
        <ele>450</ele>
        <time>2016-07-17T09:46:04.000Z</time>
      </trkpt>
      <trkpt lat="47.55169" lon="6.74749">
        <ele>450</ele>
        <time>2016-07-17T09:46:05.000Z</time>
      </trkpt>
      <trkpt lat="47.5517" lon="6.74753">
        <ele>450</ele>
        <time>2016-07-17T09:46:06.000Z</time>
      </trkpt>
      <trkpt lat="47.55172" lon="6.74757">
        <ele>449</ele>
        <time>2016-07-17T09:46:07.000Z</time>
      </trkpt>
      <trkpt lat="47.55173" lon="6.74761">
        <ele>449</ele>
        <time>2016-07-17T09:46:08.000Z</time>
      </trkpt>
      <trkpt lat="47.55175" lon="6.74766">
        <ele>449</ele>
        <time>2016-07-17T09:46:09.000Z</time>
      </trkpt>
      <trkpt lat="47.55177" lon="6.7477">
        <ele>449</ele>
        <time>2016-07-17T09:46:10.000Z</time>
      </trkpt>
      <trkpt lat="47.55179" lon="6.74774">
        <ele>448</ele>
        <time>2016-07-17T09:46:11.000Z</time>
      </trkpt>
      <trkpt lat="47.5518" lon="6.74778">
        <ele>448</ele>
        <time>2016-07-17T09:46:12.000Z</time>
      </trkpt>
      <trkpt lat="47.55182" lon="6.74781">
        <ele>448</ele>
        <time>2016-07-17T09:46:13.000Z</time>
      </trkpt>
      <trkpt lat="47.55183" lon="6.74784">
        <ele>448</ele>
        <time>2016-07-17T09:46:14.000Z</time>
      </trkpt>
      <trkpt lat="47.55185" lon="6.74787">
        <ele>448</ele>
        <time>2016-07-17T09:46:15.000Z</time>
      </trkpt>
      <trkpt lat="47.55186" lon="6.74791">
        <ele>448</ele>
        <time>2016-07-17T09:46:16.000Z</time>
      </trkpt>
      <trkpt lat="47.55187" lon="6.74794">
        <ele>448</ele>
        <time>2016-07-17T09:46:17.000Z</time>
      </trkpt>
      <trkpt lat="47.55189" lon="6.74797">
        <ele>447</ele>
        <time>2016-07-17T09:46:18.000Z</time>
      </trkpt>
      <trkpt lat="47.55191" lon="6.748">
        <ele>447</ele>
        <time>2016-07-17T09:46:19.000Z</time>
      </trkpt>
      <trkpt lat="47.55192" lon="6.74803">
        <ele>447</ele>
        <time>2016-07-17T09:46:20.000Z</time>
      </trkpt>
      <trkpt lat="47.55194" lon="6.74806">
        <ele>447</ele>
        <time>2016-07-17T09:46:21.000Z</time>
      </trkpt>
      <trkpt lat="47.55195" lon="6.74809">
        <ele>447</ele>
        <time>2016-07-17T09:46:22.000Z</time>
      </trkpt>
      <trkpt lat="47.55196" lon="6.74814">
        <ele>447</ele>
        <time>2016-07-17T09:46:24.000Z</time>
      </trkpt>
      <trkpt lat="47.55197" lon="6.74816">
        <ele>447</ele>
        <time>2016-07-17T09:46:25.000Z</time>
      </trkpt>
      <trkpt lat="47.55198" lon="6.74821">
        <ele>447</ele>
        <time>2016-07-17T09:46:27.000Z</time>
      </trkpt>
      <trkpt lat="47.55199" lon="6.74823">
        <ele>447</ele>
        <time>2016-07-17T09:46:28.000Z</time>
      </trkpt>
      <trkpt lat="47.55199" lon="6.74828">
        <ele>447</ele>
        <time>2016-07-17T09:46:30.000Z</time>
      </trkpt>
      <trkpt lat="47.552" lon="6.7483">
        <ele>447</ele>
        <time>2016-07-17T09:46:31.000Z</time>
      </trkpt>
      <trkpt lat="47.55204" lon="6.74832">
        <ele>446</ele>
        <time>2016-07-17T09:46:36.000Z</time>
      </trkpt>
      <trkpt lat="47.55205" lon="6.74832">
        <ele>446</ele>
        <time>2016-07-17T09:46:37.000Z</time>
      </trkpt>
      <trkpt lat="47.55206" lon="6.74836">
        <ele>441</ele>
        <time>2016-07-17T09:47:01.000Z</time>
      </trkpt>
      <trkpt lat="47.55206" lon="6.7484">
        <ele>441</ele>
        <time>2016-07-17T09:47:02.000Z</time>
      </trkpt>
      <trkpt lat="47.55206" lon="6.74844">
        <ele>441</ele>
        <time>2016-07-17T09:47:03.000Z</time>
      </trkpt>
      <trkpt lat="47.55207" lon="6.7485">
        <ele>441</ele>
        <time>2016-07-17T09:47:04.000Z</time>
      </trkpt>
      <trkpt lat="47.55207" lon="6.74856">
        <ele>440</ele>
        <time>2016-07-17T09:47:05.000Z</time>
      </trkpt>
      <trkpt lat="47.55208" lon="6.74862">
        <ele>440</ele>
        <time>2016-07-17T09:47:06.000Z</time>
      </trkpt>
      <trkpt lat="47.55209" lon="6.74868">
        <ele>440</ele>
        <time>2016-07-17T09:47:07.000Z</time>
      </trkpt>
      <trkpt lat="47.5521" lon="6.74879">
        <ele>439</ele>
        <time>2016-07-17T09:47:08.000Z</time>
      </trkpt>
      <trkpt lat="47.55211" lon="6.74886">
        <ele>438</ele>
        <time>2016-07-17T09:47:09.000Z</time>
      </trkpt>
      <trkpt lat="47.5521" lon="6.74893">
        <ele>438</ele>
        <time>2016-07-17T09:47:10.000Z</time>
      </trkpt>
      <trkpt lat="47.5521" lon="6.74901">
        <ele>438</ele>
        <time>2016-07-17T09:47:11.000Z</time>
      </trkpt>
      <trkpt lat="47.5521" lon="6.7491">
        <ele>437</ele>
        <time>2016-07-17T09:47:12.000Z</time>
      </trkpt>
      <trkpt lat="47.5521" lon="6.7492">
        <ele>429</ele>
        <time>2016-07-17T09:47:13.000Z</time>
      </trkpt>
      <trkpt lat="47.5521" lon="6.74931">
        <ele>429</ele>
        <time>2016-07-17T09:47:14.000Z</time>
      </trkpt>
      <trkpt lat="47.55211" lon="6.74942">
        <ele>428</ele>
        <time>2016-07-17T09:47:15.000Z</time>
      </trkpt>
      <trkpt lat="47.5521" lon="6.74955">
        <ele>427</ele>
        <time>2016-07-17T09:47:16.000Z</time>
      </trkpt>
      <trkpt lat="47.5521" lon="6.74968">
        <ele>425</ele>
        <time>2016-07-17T09:47:17.000Z</time>
      </trkpt>
      <trkpt lat="47.55209" lon="6.74983">
        <ele>424</ele>
        <time>2016-07-17T09:47:17.999Z</time>
      </trkpt>
      <trkpt lat="47.55209" lon="6.74999">
        <ele>424</ele>
        <time>2016-07-17T09:47:19.000Z</time>
      </trkpt>
      <trkpt lat="47.55208" lon="6.75015">
        <ele>417</ele>
        <time>2016-07-17T09:47:20.000Z</time>
      </trkpt>
      <trkpt lat="47.55206" lon="6.75033">
        <ele>417</ele>
        <time>2016-07-17T09:47:21.000Z</time>
      </trkpt>
      <trkpt lat="47.55205" lon="6.75049">
        <ele>416</ele>
        <time>2016-07-17T09:47:22.000Z</time>
      </trkpt>
      <trkpt lat="47.55203" lon="6.75064">
        <ele>416</ele>
        <time>2016-07-17T09:47:23.000Z</time>
      </trkpt>
      <trkpt lat="47.55202" lon="6.75079">
        <ele>416</ele>
        <time>2016-07-17T09:47:24.000Z</time>
      </trkpt>
      <trkpt lat="47.552" lon="6.75093">
        <ele>413</ele>
        <time>2016-07-17T09:47:25.000Z</time>
      </trkpt>
      <trkpt lat="47.55203" lon="6.75106">
        <ele>412</ele>
        <time>2016-07-17T09:47:26.001Z</time>
      </trkpt>
      <trkpt lat="47.55202" lon="6.75119">
        <ele>412</ele>
        <time>2016-07-17T09:47:26.999Z</time>
      </trkpt>
      <trkpt lat="47.55201" lon="6.75131">
        <ele>411</ele>
        <time>2016-07-17T09:47:28.000Z</time>
      </trkpt>
      <trkpt lat="47.552" lon="6.75139">
        <ele>411</ele>
        <time>2016-07-17T09:47:29.000Z</time>
      </trkpt>
      <trkpt lat="47.55199" lon="6.75146">
        <ele>411</ele>
        <time>2016-07-17T09:47:30.000Z</time>
      </trkpt>
      <trkpt lat="47.552" lon="6.75152">
        <ele>411</ele>
        <time>2016-07-17T09:47:31.000Z</time>
      </trkpt>
      <trkpt lat="47.55199" lon="6.75156">
        <ele>411</ele>
        <time>2016-07-17T09:47:32.000Z</time>
      </trkpt>
      <trkpt lat="47.55197" lon="6.75162">
        <ele>411</ele>
        <time>2016-07-17T09:47:39.000Z</time>
      </trkpt>
      <trkpt lat="47.55198" lon="6.75162">
        <ele>411</ele>
        <time>2016-07-17T09:47:40.000Z</time>
      </trkpt>
      <trkpt lat="47.55195" lon="6.75162">
        <ele>411</ele>
        <time>2016-07-17T09:47:50.000Z</time>
      </trkpt>
      <trkpt lat="47.55193" lon="6.75161">
        <ele>411</ele>
        <time>2016-07-17T09:47:51.000Z</time>
      </trkpt>
      <trkpt lat="47.55189" lon="6.75159">
        <ele>411</ele>
        <time>2016-07-17T09:47:53.000Z</time>
      </trkpt>
      <trkpt lat="47.55186" lon="6.75159">
        <ele>411</ele>
        <time>2016-07-17T09:47:54.000Z</time>
      </trkpt>
      <trkpt lat="47.55184" lon="6.75158">
        <ele>411</ele>
        <time>2016-07-17T09:47:55.000Z</time>
      </trkpt>
      <trkpt lat="47.55181" lon="6.75158">
        <ele>411</ele>
        <time>2016-07-17T09:47:56.000Z</time>
      </trkpt>
      <trkpt lat="47.55178" lon="6.75158">
        <ele>411</ele>
        <time>2016-07-17T09:47:57.000Z</time>
      </trkpt>
      <trkpt lat="47.55176" lon="6.75158">
        <ele>411</ele>
        <time>2016-07-17T09:47:58.000Z</time>
      </trkpt>
      <trkpt lat="47.55173" lon="6.75158">
        <ele>411</ele>
        <time>2016-07-17T09:47:59.000Z</time>
      </trkpt>
      <trkpt lat="47.5517" lon="6.75158">
        <ele>411</ele>
        <time>2016-07-17T09:48:00.000Z</time>
      </trkpt>
      <trkpt lat="47.55167" lon="6.75158">
        <ele>411</ele>
        <time>2016-07-17T09:48:01.000Z</time>
      </trkpt>
      <trkpt lat="47.55165" lon="6.75158">
        <ele>411</ele>
        <time>2016-07-17T09:48:02.000Z</time>
      </trkpt>
      <trkpt lat="47.55161" lon="6.75158">
        <ele>411</ele>
        <time>2016-07-17T09:48:04.000Z</time>
      </trkpt>
      <trkpt lat="47.55158" lon="6.75159">
        <ele>412</ele>
        <time>2016-07-17T09:48:05.000Z</time>
      </trkpt>
      <trkpt lat="47.55154" lon="6.75161">
        <ele>412</ele>
        <time>2016-07-17T09:48:07.000Z</time>
      </trkpt>
      <trkpt lat="47.55153" lon="6.75163">
        <ele>412</ele>
        <time>2016-07-17T09:48:08.000Z</time>
      </trkpt>
      <trkpt lat="47.55149" lon="6.75164">
        <ele>412</ele>
        <time>2016-07-17T09:48:10.000Z</time>
      </trkpt>
      <trkpt lat="47.55147" lon="6.75164">
        <ele>412</ele>
        <time>2016-07-17T09:48:11.000Z</time>
      </trkpt>
      <trkpt lat="47.55144" lon="6.75164">
        <ele>412</ele>
        <time>2016-07-17T09:48:12.000Z</time>
      </trkpt>
      <trkpt lat="47.55141" lon="6.75163">
        <ele>412</ele>
        <time>2016-07-17T09:48:13.000Z</time>
      </trkpt>
      <trkpt lat="47.55131" lon="6.75163">
        <ele>413</ele>
        <time>2016-07-17T09:48:14.000Z</time>
      </trkpt>
      <trkpt lat="47.55125" lon="6.75162">
        <ele>413</ele>
        <time>2016-07-17T09:48:15.000Z</time>
      </trkpt>
      <trkpt lat="47.5512" lon="6.75161">
        <ele>413</ele>
        <time>2016-07-17T09:48:16.000Z</time>
      </trkpt>
      <trkpt lat="47.55116" lon="6.75159">
        <ele>413</ele>
        <time>2016-07-17T09:48:17.000Z</time>
      </trkpt>
      <trkpt lat="47.55112" lon="6.75157">
        <ele>413</ele>
        <time>2016-07-17T09:48:18.000Z</time>
      </trkpt>
      <trkpt lat="47.55108" lon="6.75156">
        <ele>413</ele>
        <time>2016-07-17T09:48:19.000Z</time>
      </trkpt>
      <trkpt lat="47.55105" lon="6.75154">
        <ele>413</ele>
        <time>2016-07-17T09:48:20.000Z</time>
      </trkpt>
      <trkpt lat="47.55103" lon="6.75152">
        <ele>413</ele>
        <time>2016-07-17T09:48:21.000Z</time>
      </trkpt>
      <trkpt lat="47.55101" lon="6.75149">
        <ele>413</ele>
        <time>2016-07-17T09:48:22.000Z</time>
      </trkpt>
      <trkpt lat="47.55099" lon="6.75149">
        <ele>413</ele>
        <time>2016-07-17T09:48:23.000Z</time>
      </trkpt>
      <trkpt lat="47.55096" lon="6.75148">
        <ele>413</ele>
        <time>2016-07-17T09:48:24.000Z</time>
      </trkpt>
      <trkpt lat="47.55092" lon="6.75146">
        <ele>413</ele>
        <time>2016-07-17T09:48:26.000Z</time>
      </trkpt>
      <trkpt lat="47.5509" lon="6.75145">
        <ele>413</ele>
        <time>2016-07-17T09:48:27.000Z</time>
      </trkpt>
      <trkpt lat="47.55087" lon="6.75145">
        <ele>413</ele>
        <time>2016-07-17T09:48:29.000Z</time>
      </trkpt>
      <trkpt lat="47.55085" lon="6.75145">
        <ele>413</ele>
        <time>2016-07-17T09:48:30.000Z</time>
      </trkpt>
      <trkpt lat="47.55082" lon="6.75146">
        <ele>414</ele>
        <time>2016-07-17T09:48:32.000Z</time>
      </trkpt>
      <trkpt lat="47.5508" lon="6.75146">
        <ele>414</ele>
        <time>2016-07-17T09:48:33.000Z</time>
      </trkpt>
      <trkpt lat="47.55076" lon="6.75149">
        <ele>414</ele>
        <time>2016-07-17T09:48:37.000Z</time>
      </trkpt>
      <trkpt lat="47.55075" lon="6.75149">
        <ele>414</ele>
        <time>2016-07-17T09:48:38.000Z</time>
      </trkpt>
      <trkpt lat="47.55072" lon="6.75151">
        <ele>414</ele>
        <time>2016-07-17T09:48:41.000Z</time>
      </trkpt>
      <trkpt lat="47.5507" lon="6.75151">
        <ele>414</ele>
        <time>2016-07-17T09:48:42.000Z</time>
      </trkpt>
      <trkpt lat="47.55067" lon="6.75153">
        <ele>414</ele>
        <time>2016-07-17T09:48:45.000Z</time>
      </trkpt>
      <trkpt lat="47.55066" lon="6.75152">
        <ele>414</ele>
        <time>2016-07-17T09:48:46.000Z</time>
      </trkpt>
      <trkpt lat="47.55062" lon="6.75153">
        <ele>414</ele>
        <time>2016-07-17T09:48:48.000Z</time>
      </trkpt>
      <trkpt lat="47.55059" lon="6.75154">
        <ele>414</ele>
        <time>2016-07-17T09:48:49.000Z</time>
      </trkpt>
      <trkpt lat="47.55057" lon="6.75156">
        <ele>414</ele>
        <time>2016-07-17T09:48:50.000Z</time>
      </trkpt>
      <trkpt lat="47.55055" lon="6.75158">
        <ele>414</ele>
        <time>2016-07-17T09:48:51.000Z</time>
      </trkpt>
      <trkpt lat="47.55053" lon="6.7516">
        <ele>414</ele>
        <time>2016-07-17T09:48:52.000Z</time>
      </trkpt>
      <trkpt lat="47.5505" lon="6.75162">
        <ele>414</ele>
        <time>2016-07-17T09:48:53.000Z</time>
      </trkpt>
      <trkpt lat="47.55048" lon="6.75164">
        <ele>414</ele>
        <time>2016-07-17T09:48:54.000Z</time>
      </trkpt>
      <trkpt lat="47.55045" lon="6.75165">
        <ele>415</ele>
        <time>2016-07-17T09:48:55.000Z</time>
      </trkpt>
      <trkpt lat="47.55042" lon="6.75167">
        <ele>410</ele>
        <time>2016-07-17T09:48:56.000Z</time>
      </trkpt>
      <trkpt lat="47.5504" lon="6.75168">
        <ele>410</ele>
        <time>2016-07-17T09:48:57.000Z</time>
      </trkpt>
      <trkpt lat="47.55037" lon="6.7517">
        <ele>410</ele>
        <time>2016-07-17T09:48:58.000Z</time>
      </trkpt>
      <trkpt lat="47.55034" lon="6.75171">
        <ele>410</ele>
        <time>2016-07-17T09:48:59.000Z</time>
      </trkpt>
      <trkpt lat="47.55032" lon="6.75173">
        <ele>410</ele>
        <time>2016-07-17T09:49:00.000Z</time>
      </trkpt>
      <trkpt lat="47.55029" lon="6.75175">
        <ele>410</ele>
        <time>2016-07-17T09:49:01.000Z</time>
      </trkpt>
      <trkpt lat="47.55027" lon="6.75177">
        <ele>411</ele>
        <time>2016-07-17T09:49:02.000Z</time>
      </trkpt>
      <trkpt lat="47.55025" lon="6.7518">
        <ele>411</ele>
        <time>2016-07-17T09:49:03.000Z</time>
      </trkpt>
      <trkpt lat="47.55024" lon="6.75184">
        <ele>411</ele>
        <time>2016-07-17T09:49:04.000Z</time>
      </trkpt>
      <trkpt lat="47.55023" lon="6.75188">
        <ele>410</ele>
        <time>2016-07-17T09:49:05.000Z</time>
      </trkpt>
      <trkpt lat="47.55022" lon="6.75192">
        <ele>410</ele>
        <time>2016-07-17T09:49:06.000Z</time>
      </trkpt>
      <trkpt lat="47.55022" lon="6.75196">
        <ele>410</ele>
        <time>2016-07-17T09:49:07.000Z</time>
      </trkpt>
      <trkpt lat="47.55021" lon="6.75202">
        <ele>410</ele>
        <time>2016-07-17T09:49:09.000Z</time>
      </trkpt>
      <trkpt lat="47.55021" lon="6.75205">
        <ele>410</ele>
        <time>2016-07-17T09:49:10.000Z</time>
      </trkpt>
      <trkpt lat="47.5502" lon="6.75211">
        <ele>410</ele>
        <time>2016-07-17T09:49:12.000Z</time>
      </trkpt>
      <trkpt lat="47.5502" lon="6.75214">
        <ele>410</ele>
        <time>2016-07-17T09:49:13.000Z</time>
      </trkpt>
      <trkpt lat="47.55021" lon="6.7522">
        <ele>410</ele>
        <time>2016-07-17T09:49:16.000Z</time>
      </trkpt>
      <trkpt lat="47.55021" lon="6.75221">
        <ele>410</ele>
        <time>2016-07-17T09:49:17.000Z</time>
      </trkpt>
      <trkpt lat="47.5502" lon="6.75227">
        <ele>410</ele>
        <time>2016-07-17T09:49:20.000Z</time>
      </trkpt>
      <trkpt lat="47.55019" lon="6.75229">
        <ele>410</ele>
        <time>2016-07-17T09:49:21.000Z</time>
      </trkpt>
      <trkpt lat="47.55019" lon="6.75233">
        <ele>410</ele>
        <time>2016-07-17T09:49:23.000Z</time>
      </trkpt>
      <trkpt lat="47.55019" lon="6.75236">
        <ele>410</ele>
        <time>2016-07-17T09:49:24.000Z</time>
      </trkpt>
      <trkpt lat="47.55018" lon="6.75242">
        <ele>410</ele>
        <time>2016-07-17T09:49:26.000Z</time>
      </trkpt>
      <trkpt lat="47.55018" lon="6.75245">
        <ele>410</ele>
        <time>2016-07-17T09:49:27.000Z</time>
      </trkpt>
      <trkpt lat="47.55017" lon="6.75251">
        <ele>410</ele>
        <time>2016-07-17T09:49:29.000Z</time>
      </trkpt>
      <trkpt lat="47.55017" lon="6.75254">
        <ele>410</ele>
        <time>2016-07-17T09:49:30.000Z</time>
      </trkpt>
      <trkpt lat="47.55017" lon="6.7526">
        <ele>410</ele>
        <time>2016-07-17T09:49:33.000Z</time>
      </trkpt>
      <trkpt lat="47.55017" lon="6.75262">
        <ele>410</ele>
        <time>2016-07-17T09:49:34.000Z</time>
      </trkpt>
      <trkpt lat="47.55016" lon="6.75267">
        <ele>411</ele>
        <time>2016-07-17T09:49:36.000Z</time>
      </trkpt>
      <trkpt lat="47.55015" lon="6.7527">
        <ele>411</ele>
        <time>2016-07-17T09:49:37.000Z</time>
      </trkpt>
      <trkpt lat="47.55014" lon="6.75273">
        <ele>411</ele>
        <time>2016-07-17T09:49:38.000Z</time>
      </trkpt>
      <trkpt lat="47.55013" lon="6.75276">
        <ele>411</ele>
        <time>2016-07-17T09:49:39.000Z</time>
      </trkpt>
      <trkpt lat="47.55012" lon="6.75279">
        <ele>411</ele>
        <time>2016-07-17T09:49:40.000Z</time>
      </trkpt>
      <trkpt lat="47.55011" lon="6.75283">
        <ele>411</ele>
        <time>2016-07-17T09:49:41.000Z</time>
      </trkpt>
      <trkpt lat="47.5501" lon="6.75286">
        <ele>411</ele>
        <time>2016-07-17T09:49:42.000Z</time>
      </trkpt>
      <trkpt lat="47.55008" lon="6.75289">
        <ele>411</ele>
        <time>2016-07-17T09:49:43.000Z</time>
      </trkpt>
      <trkpt lat="47.55007" lon="6.75293">
        <ele>411</ele>
        <time>2016-07-17T09:49:44.000Z</time>
      </trkpt>
      <trkpt lat="47.55006" lon="6.75296">
        <ele>411</ele>
        <time>2016-07-17T09:49:45.000Z</time>
      </trkpt>
      <trkpt lat="47.55005" lon="6.75299">
        <ele>412</ele>
        <time>2016-07-17T09:49:46.000Z</time>
      </trkpt>
      <trkpt lat="47.55004" lon="6.75302">
        <ele>412</ele>
        <time>2016-07-17T09:49:47.000Z</time>
      </trkpt>
      <trkpt lat="47.55003" lon="6.75308">
        <ele>412</ele>
        <time>2016-07-17T09:49:49.000Z</time>
      </trkpt>
      <trkpt lat="47.55002" lon="6.75311">
        <ele>413</ele>
        <time>2016-07-17T09:49:50.000Z</time>
      </trkpt>
      <trkpt lat="47.55" lon="6.75315">
        <ele>413</ele>
        <time>2016-07-17T09:49:52.000Z</time>
      </trkpt>
      <trkpt lat="47.54999" lon="6.75317">
        <ele>417</ele>
        <time>2016-07-17T09:49:53.000Z</time>
      </trkpt>
      <trkpt lat="47.54996" lon="6.7532">
        <ele>417</ele>
        <time>2016-07-17T09:49:55.000Z</time>
      </trkpt>
      <trkpt lat="47.54995" lon="6.75322">
        <ele>417</ele>
        <time>2016-07-17T09:49:56.000Z</time>
      </trkpt>
      <trkpt lat="47.54992" lon="6.75327">
        <ele>417</ele>
        <time>2016-07-17T09:49:59.000Z</time>
      </trkpt>
      <trkpt lat="47.54991" lon="6.75328">
        <ele>417</ele>
        <time>2016-07-17T09:50:00.000Z</time>
      </trkpt>
      <trkpt lat="47.54989" lon="6.75332">
        <ele>417</ele>
        <time>2016-07-17T09:50:03.000Z</time>
      </trkpt>
      <trkpt lat="47.54988" lon="6.75333">
        <ele>417</ele>
        <time>2016-07-17T09:50:04.000Z</time>
      </trkpt>
      <trkpt lat="47.54984" lon="6.75334">
        <ele>419</ele>
        <time>2016-07-17T09:50:07.000Z</time>
      </trkpt>
      <trkpt lat="47.54983" lon="6.75334">
        <ele>419</ele>
        <time>2016-07-17T09:50:08.000Z</time>
      </trkpt>
      <trkpt lat="47.54978" lon="6.75334">
        <ele>420</ele>
        <time>2016-07-17T09:50:12.000Z</time>
      </trkpt>
      <trkpt lat="47.54977" lon="6.75334">
        <ele>420</ele>
        <time>2016-07-17T09:50:13.000Z</time>
      </trkpt>
      <trkpt lat="47.54973" lon="6.75334">
        <ele>421</ele>
        <time>2016-07-17T09:50:16.000Z</time>
      </trkpt>
      <trkpt lat="47.54973" lon="6.75334">
        <ele>421</ele>
        <time>2016-07-17T09:50:17.000Z</time>
      </trkpt>
      <trkpt lat="47.54969" lon="6.75335">
        <ele>421</ele>
        <time>2016-07-17T09:50:22.000Z</time>
      </trkpt>
      <trkpt lat="47.54968" lon="6.75335">
        <ele>421</ele>
        <time>2016-07-17T09:50:23.000Z</time>
      </trkpt>
      <trkpt lat="47.54964" lon="6.75336">
        <ele>421</ele>
        <time>2016-07-17T09:50:26.000Z</time>
      </trkpt>
      <trkpt lat="47.54963" lon="6.75336">
        <ele>422</ele>
        <time>2016-07-17T09:50:27.000Z</time>
      </trkpt>
      <trkpt lat="47.54958" lon="6.75337">
        <ele>422</ele>
        <time>2016-07-17T09:50:30.000Z</time>
      </trkpt>
      <trkpt lat="47.54957" lon="6.75337">
        <ele>422</ele>
        <time>2016-07-17T09:50:31.000Z</time>
      </trkpt>
      <trkpt lat="47.54954" lon="6.75337">
        <ele>422</ele>
        <time>2016-07-17T09:50:34.000Z</time>
      </trkpt>
      <trkpt lat="47.54952" lon="6.75337">
        <ele>422</ele>
        <time>2016-07-17T09:50:35.000Z</time>
      </trkpt>
      <trkpt lat="47.54948" lon="6.75337">
        <ele>423</ele>
        <time>2016-07-17T09:50:37.000Z</time>
      </trkpt>
      <trkpt lat="47.54947" lon="6.75338">
        <ele>423</ele>
        <time>2016-07-17T09:50:38.000Z</time>
      </trkpt>
      <trkpt lat="47.54943" lon="6.75339">
        <ele>423</ele>
        <time>2016-07-17T09:50:42.000Z</time>
      </trkpt>
      <trkpt lat="47.54942" lon="6.75339">
        <ele>423</ele>
        <time>2016-07-17T09:50:43.000Z</time>
      </trkpt>
      <trkpt lat="47.54939" lon="6.7534">
        <ele>423</ele>
        <time>2016-07-17T09:50:47.000Z</time>
      </trkpt>
      <trkpt lat="47.54938" lon="6.75341">
        <ele>423</ele>
        <time>2016-07-17T09:50:48.000Z</time>
      </trkpt>
      <trkpt lat="47.54934" lon="6.75343">
        <ele>424</ele>
        <time>2016-07-17T09:50:50.000Z</time>
      </trkpt>
      <trkpt lat="47.54931" lon="6.75344">
        <ele>424</ele>
        <time>2016-07-17T09:50:51.000Z</time>
      </trkpt>
      <trkpt lat="47.54927" lon="6.75346">
        <ele>424</ele>
        <time>2016-07-17T09:50:53.000Z</time>
      </trkpt>
      <trkpt lat="47.54926" lon="6.75347">
        <ele>424</ele>
        <time>2016-07-17T09:50:54.000Z</time>
      </trkpt>
      <trkpt lat="47.54923" lon="6.7535">
        <ele>424</ele>
        <time>2016-07-17T09:50:57.000Z</time>
      </trkpt>
      <trkpt lat="47.54922" lon="6.75351">
        <ele>424</ele>
        <time>2016-07-17T09:50:58.000Z</time>
      </trkpt>
      <trkpt lat="47.54919" lon="6.75355">
        <ele>424</ele>
        <time>2016-07-17T09:51:01.000Z</time>
      </trkpt>
      <trkpt lat="47.54918" lon="6.75356">
        <ele>424</ele>
        <time>2016-07-17T09:51:02.000Z</time>
      </trkpt>
      <trkpt lat="47.54915" lon="6.7536">
        <ele>430</ele>
        <time>2016-07-17T09:51:04.000Z</time>
      </trkpt>
      <trkpt lat="47.54914" lon="6.75363">
        <ele>431</ele>
        <time>2016-07-17T09:51:05.000Z</time>
      </trkpt>
      <trkpt lat="47.54912" lon="6.75367">
        <ele>431</ele>
        <time>2016-07-17T09:51:07.000Z</time>
      </trkpt>
      <trkpt lat="47.54912" lon="6.75368">
        <ele>431</ele>
        <time>2016-07-17T09:51:08.000Z</time>
      </trkpt>
      <trkpt lat="47.54909" lon="6.75372">
        <ele>431</ele>
        <time>2016-07-17T09:51:11.000Z</time>
      </trkpt>
      <trkpt lat="47.54908" lon="6.75373">
        <ele>431</ele>
        <time>2016-07-17T09:51:12.000Z</time>
      </trkpt>
      <trkpt lat="47.54905" lon="6.75375">
        <ele>432</ele>
        <time>2016-07-17T09:51:14.000Z</time>
      </trkpt>
      <trkpt lat="47.54904" lon="6.75377">
        <ele>432</ele>
        <time>2016-07-17T09:51:15.000Z</time>
      </trkpt>
      <trkpt lat="47.549" lon="6.7538">
        <ele>432</ele>
        <time>2016-07-17T09:51:17.000Z</time>
      </trkpt>
      <trkpt lat="47.54898" lon="6.75381">
        <ele>432</ele>
        <time>2016-07-17T09:51:18.000Z</time>
      </trkpt>
      <trkpt lat="47.54895" lon="6.75384">
        <ele>432</ele>
        <time>2016-07-17T09:51:20.000Z</time>
      </trkpt>
      <trkpt lat="47.54893" lon="6.75386">
        <ele>432</ele>
        <time>2016-07-17T09:51:21.000Z</time>
      </trkpt>
      <trkpt lat="47.54891" lon="6.7539">
        <ele>433</ele>
        <time>2016-07-17T09:51:23.000Z</time>
      </trkpt>
      <trkpt lat="47.5489" lon="6.75392">
        <ele>433</ele>
        <time>2016-07-17T09:51:24.000Z</time>
      </trkpt>
      <trkpt lat="47.54887" lon="6.75397">
        <ele>433</ele>
        <time>2016-07-17T09:51:26.000Z</time>
      </trkpt>
      <trkpt lat="47.54886" lon="6.75399">
        <ele>433</ele>
        <time>2016-07-17T09:51:27.000Z</time>
      </trkpt>
      <trkpt lat="47.54883" lon="6.75403">
        <ele>433</ele>
        <time>2016-07-17T09:51:30.000Z</time>
      </trkpt>
      <trkpt lat="47.54882" lon="6.75404">
        <ele>433</ele>
        <time>2016-07-17T09:51:31.000Z</time>
      </trkpt>
      <trkpt lat="47.54879" lon="6.75408">
        <ele>434</ele>
        <time>2016-07-17T09:51:33.000Z</time>
      </trkpt>
      <trkpt lat="47.54878" lon="6.7541">
        <ele>434</ele>
        <time>2016-07-17T09:51:34.000Z</time>
      </trkpt>
      <trkpt lat="47.54875" lon="6.75414">
        <ele>434</ele>
        <time>2016-07-17T09:51:36.000Z</time>
      </trkpt>
      <trkpt lat="47.54874" lon="6.75417">
        <ele>434</ele>
        <time>2016-07-17T09:51:37.000Z</time>
      </trkpt>
      <trkpt lat="47.54871" lon="6.75422">
        <ele>436</ele>
        <time>2016-07-17T09:51:39.000Z</time>
      </trkpt>
      <trkpt lat="47.5487" lon="6.75425">
        <ele>436</ele>
        <time>2016-07-17T09:51:40.000Z</time>
      </trkpt>
      <trkpt lat="47.54868" lon="6.7543">
        <ele>436</ele>
        <time>2016-07-17T09:51:42.000Z</time>
      </trkpt>
      <trkpt lat="47.54867" lon="6.75433">
        <ele>436</ele>
        <time>2016-07-17T09:51:43.000Z</time>
      </trkpt>
      <trkpt lat="47.54866" lon="6.75439">
        <ele>437</ele>
        <time>2016-07-17T09:51:45.000Z</time>
      </trkpt>
      <trkpt lat="47.54866" lon="6.75441">
        <ele>437</ele>
        <time>2016-07-17T09:51:46.000Z</time>
      </trkpt>
      <trkpt lat="47.54866" lon="6.75447">
        <ele>437</ele>
        <time>2016-07-17T09:51:48.000Z</time>
      </trkpt>
      <trkpt lat="47.54866" lon="6.7545">
        <ele>437</ele>
        <time>2016-07-17T09:51:49.000Z</time>
      </trkpt>
      <trkpt lat="47.54865" lon="6.75456">
        <ele>437</ele>
        <time>2016-07-17T09:51:51.000Z</time>
      </trkpt>
      <trkpt lat="47.54865" lon="6.7546">
        <ele>437</ele>
        <time>2016-07-17T09:51:52.000Z</time>
      </trkpt>
      <trkpt lat="47.54863" lon="6.75463">
        <ele>437</ele>
        <time>2016-07-17T09:51:53.000Z</time>
      </trkpt>
      <trkpt lat="47.54862" lon="6.75467">
        <ele>437</ele>
        <time>2016-07-17T09:51:54.000Z</time>
      </trkpt>
      <trkpt lat="47.54861" lon="6.75471">
        <ele>437</ele>
        <time>2016-07-17T09:51:55.000Z</time>
      </trkpt>
      <trkpt lat="47.5486" lon="6.75475">
        <ele>437</ele>
        <time>2016-07-17T09:51:56.000Z</time>
      </trkpt>
      <trkpt lat="47.5486" lon="6.75479">
        <ele>438</ele>
        <time>2016-07-17T09:51:57.000Z</time>
      </trkpt>
      <trkpt lat="47.54859" lon="6.75483">
        <ele>438</ele>
        <time>2016-07-17T09:51:58.000Z</time>
      </trkpt>
      <trkpt lat="47.54858" lon="6.75489">
        <ele>438</ele>
        <time>2016-07-17T09:52:00.000Z</time>
      </trkpt>
      <trkpt lat="47.54856" lon="6.75492">
        <ele>438</ele>
        <time>2016-07-17T09:52:01.000Z</time>
      </trkpt>
      <trkpt lat="47.54854" lon="6.75497">
        <ele>439</ele>
        <time>2016-07-17T09:52:03.000Z</time>
      </trkpt>
      <trkpt lat="47.54853" lon="6.755">
        <ele>439</ele>
        <time>2016-07-17T09:52:04.000Z</time>
      </trkpt>
      <trkpt lat="47.54852" lon="6.75503">
        <ele>439</ele>
        <time>2016-07-17T09:52:05.000Z</time>
      </trkpt>
      <trkpt lat="47.54851" lon="6.75506">
        <ele>439</ele>
        <time>2016-07-17T09:52:06.000Z</time>
      </trkpt>
      <trkpt lat="47.5485" lon="6.7551">
        <ele>439</ele>
        <time>2016-07-17T09:52:07.000Z</time>
      </trkpt>
      <trkpt lat="47.5485" lon="6.75513">
        <ele>438</ele>
        <time>2016-07-17T09:52:08.000Z</time>
      </trkpt>
      <trkpt lat="47.5485" lon="6.75519">
        <ele>438</ele>
        <time>2016-07-17T09:52:10.000Z</time>
      </trkpt>
      <trkpt lat="47.54849" lon="6.75522">
        <ele>438</ele>
        <time>2016-07-17T09:52:11.000Z</time>
      </trkpt>
      <trkpt lat="47.54849" lon="6.75528">
        <ele>437</ele>
        <time>2016-07-17T09:52:13.000Z</time>
      </trkpt>
      <trkpt lat="47.54849" lon="6.75532">
        <ele>437</ele>
        <time>2016-07-17T09:52:14.000Z</time>
      </trkpt>
      <trkpt lat="47.54849" lon="6.75535">
        <ele>437</ele>
        <time>2016-07-17T09:52:15.000Z</time>
      </trkpt>
      <trkpt lat="47.54849" lon="6.75539">
        <ele>437</ele>
        <time>2016-07-17T09:52:16.000Z</time>
      </trkpt>
      <trkpt lat="47.54848" lon="6.75543">
        <ele>437</ele>
        <time>2016-07-17T09:52:17.000Z</time>
      </trkpt>
      <trkpt lat="47.54847" lon="6.75548">
        <ele>437</ele>
        <time>2016-07-17T09:52:18.000Z</time>
      </trkpt>
      <trkpt lat="47.54846" lon="6.75553">
        <ele>437</ele>
        <time>2016-07-17T09:52:19.000Z</time>
      </trkpt>
      <trkpt lat="47.54846" lon="6.75558">
        <ele>437</ele>
        <time>2016-07-17T09:52:20.000Z</time>
      </trkpt>
      <trkpt lat="47.54846" lon="6.75563">
        <ele>437</ele>
        <time>2016-07-17T09:52:21.000Z</time>
      </trkpt>
      <trkpt lat="47.54846" lon="6.75569">
        <ele>437</ele>
        <time>2016-07-17T09:52:22.000Z</time>
      </trkpt>
      <trkpt lat="47.54847" lon="6.75574">
        <ele>438</ele>
        <time>2016-07-17T09:52:23.000Z</time>
      </trkpt>
      <trkpt lat="47.54847" lon="6.7558">
        <ele>438</ele>
        <time>2016-07-17T09:52:24.000Z</time>
      </trkpt>
      <trkpt lat="47.54848" lon="6.75584">
        <ele>436</ele>
        <time>2016-07-17T09:52:25.000Z</time>
      </trkpt>
      <trkpt lat="47.54849" lon="6.75588">
        <ele>436</ele>
        <time>2016-07-17T09:52:26.000Z</time>
      </trkpt>
      <trkpt lat="47.54849" lon="6.75595">
        <ele>435</ele>
        <time>2016-07-17T09:52:30.000Z</time>
      </trkpt>
      <trkpt lat="47.54849" lon="6.75595">
        <ele>435</ele>
        <time>2016-07-17T09:52:31.000Z</time>
      </trkpt>
      <trkpt lat="47.54846" lon="6.756">
        <ele>435</ele>
        <time>2016-07-17T09:52:40.000Z</time>
      </trkpt>
      <trkpt lat="47.54844" lon="6.75601">
        <ele>435</ele>
        <time>2016-07-17T09:52:41.000Z</time>
      </trkpt>
      <trkpt lat="47.54841" lon="6.75601">
        <ele>436</ele>
        <time>2016-07-17T09:52:42.000Z</time>
      </trkpt>
      <trkpt lat="47.54838" lon="6.75601">
        <ele>436</ele>
        <time>2016-07-17T09:52:43.000Z</time>
      </trkpt>
      <trkpt lat="47.54835" lon="6.756">
        <ele>436</ele>
        <time>2016-07-17T09:52:44.000Z</time>
      </trkpt>
      <trkpt lat="47.54833" lon="6.75598">
        <ele>441</ele>
        <time>2016-07-17T09:52:45.000Z</time>
      </trkpt>
      <trkpt lat="47.54829" lon="6.756">
        <ele>441</ele>
        <time>2016-07-17T09:52:49.000Z</time>
      </trkpt>
      <trkpt lat="47.54828" lon="6.75601">
        <ele>441</ele>
        <time>2016-07-17T09:52:50.000Z</time>
      </trkpt>
      <trkpt lat="47.54825" lon="6.75602">
        <ele>441</ele>
        <time>2016-07-17T09:52:52.000Z</time>
      </trkpt>
      <trkpt lat="47.54824" lon="6.75602">
        <ele>441</ele>
        <time>2016-07-17T09:52:53.000Z</time>
      </trkpt>
      <trkpt lat="47.54819" lon="6.75603">
        <ele>442</ele>
        <time>2016-07-17T09:52:55.000Z</time>
      </trkpt>
      <trkpt lat="47.54817" lon="6.75603">
        <ele>442</ele>
        <time>2016-07-17T09:52:56.000Z</time>
      </trkpt>
      <trkpt lat="47.54813" lon="6.75604">
        <ele>442</ele>
        <time>2016-07-17T09:53:01.000Z</time>
      </trkpt>
      <trkpt lat="47.54812" lon="6.75605">
        <ele>442</ele>
        <time>2016-07-17T09:53:02.000Z</time>
      </trkpt>
      <trkpt lat="47.54808" lon="6.75606">
        <ele>442</ele>
        <time>2016-07-17T09:53:05.000Z</time>
      </trkpt>
      <trkpt lat="47.54806" lon="6.75607">
        <ele>442</ele>
        <time>2016-07-17T09:53:06.000Z</time>
      </trkpt>
      <trkpt lat="47.54802" lon="6.75608">
        <ele>442</ele>
        <time>2016-07-17T09:53:08.000Z</time>
      </trkpt>
      <trkpt lat="47.54799" lon="6.75609">
        <ele>442</ele>
        <time>2016-07-17T09:53:09.000Z</time>
      </trkpt>
      <trkpt lat="47.54797" lon="6.7561">
        <ele>443</ele>
        <time>2016-07-17T09:53:10.000Z</time>
      </trkpt>
      <trkpt lat="47.54794" lon="6.7561">
        <ele>443</ele>
        <time>2016-07-17T09:53:11.000Z</time>
      </trkpt>
      <trkpt lat="47.54792" lon="6.75611">
        <ele>443</ele>
        <time>2016-07-17T09:53:12.000Z</time>
      </trkpt>
      <trkpt lat="47.5479" lon="6.75612">
        <ele>443</ele>
        <time>2016-07-17T09:53:13.000Z</time>
      </trkpt>
      <trkpt lat="47.54786" lon="6.75615">
        <ele>443</ele>
        <time>2016-07-17T09:53:15.000Z</time>
      </trkpt>
      <trkpt lat="47.54785" lon="6.75616">
        <ele>443</ele>
        <time>2016-07-17T09:53:16.000Z</time>
      </trkpt>
      <trkpt lat="47.54781" lon="6.75617">
        <ele>443</ele>
        <time>2016-07-17T09:53:18.000Z</time>
      </trkpt>
      <trkpt lat="47.54779" lon="6.75617">
        <ele>443</ele>
        <time>2016-07-17T09:53:19.000Z</time>
      </trkpt>
      <trkpt lat="47.54775" lon="6.7562">
        <ele>443</ele>
        <time>2016-07-17T09:53:21.000Z</time>
      </trkpt>
      <trkpt lat="47.54774" lon="6.75621">
        <ele>443</ele>
        <time>2016-07-17T09:53:22.000Z</time>
      </trkpt>
      <trkpt lat="47.5477" lon="6.75624">
        <ele>443</ele>
        <time>2016-07-17T09:53:25.000Z</time>
      </trkpt>
      <trkpt lat="47.54768" lon="6.75624">
        <ele>443</ele>
        <time>2016-07-17T09:53:26.000Z</time>
      </trkpt>
      <trkpt lat="47.54765" lon="6.75623">
        <ele>444</ele>
        <time>2016-07-17T09:53:28.000Z</time>
      </trkpt>
      <trkpt lat="47.54764" lon="6.75622">
        <ele>444</ele>
        <time>2016-07-17T09:53:29.000Z</time>
      </trkpt>
      <trkpt lat="47.54761" lon="6.75623">
        <ele>444</ele>
        <time>2016-07-17T09:53:31.000Z</time>
      </trkpt>
      <trkpt lat="47.54759" lon="6.75623">
        <ele>444</ele>
        <time>2016-07-17T09:53:32.000Z</time>
      </trkpt>
      <trkpt lat="47.54756" lon="6.75623">
        <ele>444</ele>
        <time>2016-07-17T09:53:34.000Z</time>
      </trkpt>
      <trkpt lat="47.54754" lon="6.75623">
        <ele>444</ele>
        <time>2016-07-17T09:53:36.000Z</time>
      </trkpt>
      <trkpt lat="47.54751" lon="6.75623">
        <ele>444</ele>
        <time>2016-07-17T09:53:38.000Z</time>
      </trkpt>
      <trkpt lat="47.54749" lon="6.75623">
        <ele>449</ele>
        <time>2016-07-17T09:53:39.000Z</time>
      </trkpt>
      <trkpt lat="47.54745" lon="6.75622">
        <ele>449</ele>
        <time>2016-07-17T09:53:43.000Z</time>
      </trkpt>
      <trkpt lat="47.54745" lon="6.75621">
        <ele>449</ele>
        <time>2016-07-17T09:53:44.000Z</time>
      </trkpt>
      <trkpt lat="47.54741" lon="6.75621">
        <ele>449</ele>
        <time>2016-07-17T09:53:50.000Z</time>
      </trkpt>
      <trkpt lat="47.5474" lon="6.75621">
        <ele>449</ele>
        <time>2016-07-17T09:53:51.000Z</time>
      </trkpt>
      <trkpt lat="47.54736" lon="6.75621">
        <ele>450</ele>
        <time>2016-07-17T09:53:54.000Z</time>
      </trkpt>
      <trkpt lat="47.54734" lon="6.75621">
        <ele>450</ele>
        <time>2016-07-17T09:53:55.000Z</time>
      </trkpt>
      <trkpt lat="47.5473" lon="6.7562">
        <ele>450</ele>
        <time>2016-07-17T09:53:58.000Z</time>
      </trkpt>
      <trkpt lat="47.54729" lon="6.75619">
        <ele>450</ele>
        <time>2016-07-17T09:53:59.000Z</time>
      </trkpt>
      <trkpt lat="47.54726" lon="6.75617">
        <ele>450</ele>
        <time>2016-07-17T09:54:01.000Z</time>
      </trkpt>
      <trkpt lat="47.54725" lon="6.75617">
        <ele>450</ele>
        <time>2016-07-17T09:54:02.000Z</time>
      </trkpt>
      <trkpt lat="47.54721" lon="6.75615">
        <ele>451</ele>
        <time>2016-07-17T09:54:06.000Z</time>
      </trkpt>
      <trkpt lat="47.5472" lon="6.75613">
        <ele>451</ele>
        <time>2016-07-17T09:54:07.000Z</time>
      </trkpt>
      <trkpt lat="47.54717" lon="6.75613">
        <ele>451</ele>
        <time>2016-07-17T09:54:11.000Z</time>
      </trkpt>
      <trkpt lat="47.54715" lon="6.75613">
        <ele>451</ele>
        <time>2016-07-17T09:54:12.000Z</time>
      </trkpt>
      <trkpt lat="47.54711" lon="6.75613">
        <ele>451</ele>
        <time>2016-07-17T09:54:15.000Z</time>
      </trkpt>
      <trkpt lat="47.5471" lon="6.75612">
        <ele>451</ele>
        <time>2016-07-17T09:54:16.000Z</time>
      </trkpt>
      <trkpt lat="47.54706" lon="6.75609">
        <ele>452</ele>
        <time>2016-07-17T09:54:22.000Z</time>
      </trkpt>
      <trkpt lat="47.54706" lon="6.75608">
        <ele>452</ele>
        <time>2016-07-17T09:54:23.000Z</time>
      </trkpt>
      <trkpt lat="47.54705" lon="6.75602">
        <ele>452</ele>
        <time>2016-07-17T09:54:28.000Z</time>
      </trkpt>
      <trkpt lat="47.54704" lon="6.75601">
        <ele>452</ele>
        <time>2016-07-17T09:54:29.000Z</time>
      </trkpt>
      <trkpt lat="47.54703" lon="6.75595">
        <ele>452</ele>
        <time>2016-07-17T09:54:33.000Z</time>
      </trkpt>
      <trkpt lat="47.54702" lon="6.75594">
        <ele>452</ele>
        <time>2016-07-17T09:54:34.000Z</time>
      </trkpt>
      <trkpt lat="47.54699" lon="6.75589">
        <ele>453</ele>
        <time>2016-07-17T09:54:38.000Z</time>
      </trkpt>
      <trkpt lat="47.54699" lon="6.75588">
        <ele>453</ele>
        <time>2016-07-17T09:54:39.000Z</time>
      </trkpt>
      <trkpt lat="47.54699" lon="6.75583">
        <ele>456</ele>
        <time>2016-07-17T09:54:42.000Z</time>
      </trkpt>
      <trkpt lat="47.54699" lon="6.75581">
        <ele>456</ele>
        <time>2016-07-17T09:54:43.000Z</time>
      </trkpt>
      <trkpt lat="47.54698" lon="6.75576">
        <ele>456</ele>
        <time>2016-07-17T09:54:46.000Z</time>
      </trkpt>
      <trkpt lat="47.54698" lon="6.75574">
        <ele>456</ele>
        <time>2016-07-17T09:54:47.000Z</time>
      </trkpt>
      <trkpt lat="47.54696" lon="6.7557">
        <ele>456</ele>
        <time>2016-07-17T09:54:50.000Z</time>
      </trkpt>
      <trkpt lat="47.54695" lon="6.75568">
        <ele>456</ele>
        <time>2016-07-17T09:54:51.000Z</time>
      </trkpt>
      <trkpt lat="47.54694" lon="6.75563">
        <ele>456</ele>
        <time>2016-07-17T09:54:54.000Z</time>
      </trkpt>
      <trkpt lat="47.54693" lon="6.75562">
        <ele>456</ele>
        <time>2016-07-17T09:54:55.000Z</time>
      </trkpt>
      <trkpt lat="47.54693" lon="6.75555">
        <ele>456</ele>
        <time>2016-07-17T09:54:58.000Z</time>
      </trkpt>
      <trkpt lat="47.54693" lon="6.75553">
        <ele>456</ele>
        <time>2016-07-17T09:54:59.000Z</time>
      </trkpt>
      <trkpt lat="47.54693" lon="6.75547">
        <ele>456</ele>
        <time>2016-07-17T09:55:02.000Z</time>
      </trkpt>
      <trkpt lat="47.54693" lon="6.75545">
        <ele>456</ele>
        <time>2016-07-17T09:55:03.000Z</time>
      </trkpt>
      <trkpt lat="47.54692" lon="6.7554">
        <ele>457</ele>
        <time>2016-07-17T09:55:07.000Z</time>
      </trkpt>
      <trkpt lat="47.54691" lon="6.75538">
        <ele>457</ele>
        <time>2016-07-17T09:55:08.000Z</time>
      </trkpt>
      <trkpt lat="47.54688" lon="6.75533">
        <ele>457</ele>
        <time>2016-07-17T09:55:11.000Z</time>
      </trkpt>
      <trkpt lat="47.54687" lon="6.75532">
        <ele>457</ele>
        <time>2016-07-17T09:55:12.000Z</time>
      </trkpt>
      <trkpt lat="47.54684" lon="6.75528">
        <ele>458</ele>
        <time>2016-07-17T09:55:15.000Z</time>
      </trkpt>
      <trkpt lat="47.54683" lon="6.75527">
        <ele>458</ele>
        <time>2016-07-17T09:55:16.000Z</time>
      </trkpt>
      <trkpt lat="47.54681" lon="6.75523">
        <ele>458</ele>
        <time>2016-07-17T09:55:18.000Z</time>
      </trkpt>
      <trkpt lat="47.54679" lon="6.75521">
        <ele>459</ele>
        <time>2016-07-17T09:55:19.000Z</time>
      </trkpt>
      <trkpt lat="47.54676" lon="6.75517">
        <ele>459</ele>
        <time>2016-07-17T09:55:21.000Z</time>
      </trkpt>
      <trkpt lat="47.54674" lon="6.75514">
        <ele>460</ele>
        <time>2016-07-17T09:55:22.000Z</time>
      </trkpt>
      <trkpt lat="47.54672" lon="6.75511">
        <ele>461</ele>
        <time>2016-07-17T09:55:23.000Z</time>
      </trkpt>
      <trkpt lat="47.54671" lon="6.75508">
        <ele>461</ele>
        <time>2016-07-17T09:55:24.000Z</time>
      </trkpt>
      <trkpt lat="47.54669" lon="6.75503">
        <ele>463</ele>
        <time>2016-07-17T09:55:26.000Z</time>
      </trkpt>
      <trkpt lat="47.54669" lon="6.755">
        <ele>463</ele>
        <time>2016-07-17T09:55:27.000Z</time>
      </trkpt>
      <trkpt lat="47.54665" lon="6.75497">
        <ele>465</ele>
        <time>2016-07-17T09:55:29.000Z</time>
      </trkpt>
      <trkpt lat="47.54663" lon="6.75495">
        <ele>465</ele>
        <time>2016-07-17T09:55:30.000Z</time>
      </trkpt>
      <trkpt lat="47.54661" lon="6.75493">
        <ele>465</ele>
        <time>2016-07-17T09:55:31.000Z</time>
      </trkpt>
      <trkpt lat="47.54659" lon="6.75491">
        <ele>465</ele>
        <time>2016-07-17T09:55:32.000Z</time>
      </trkpt>
      <trkpt lat="47.54656" lon="6.75487">
        <ele>466</ele>
        <time>2016-07-17T09:55:34.000Z</time>
      </trkpt>
      <trkpt lat="47.54654" lon="6.75485">
        <ele>466</ele>
        <time>2016-07-17T09:55:35.000Z</time>
      </trkpt>
      <trkpt lat="47.54651" lon="6.75482">
        <ele>466</ele>
        <time>2016-07-17T09:55:37.000Z</time>
      </trkpt>
      <trkpt lat="47.5465" lon="6.75481">
        <ele>466</ele>
        <time>2016-07-17T09:55:38.000Z</time>
      </trkpt>
      <trkpt lat="47.54647" lon="6.75478">
        <ele>466</ele>
        <time>2016-07-17T09:55:40.000Z</time>
      </trkpt>
      <trkpt lat="47.54645" lon="6.75477">
        <ele>467</ele>
        <time>2016-07-17T09:55:41.000Z</time>
      </trkpt>
      <trkpt lat="47.54642" lon="6.75474">
        <ele>467</ele>
        <time>2016-07-17T09:55:43.000Z</time>
      </trkpt>
      <trkpt lat="47.5464" lon="6.75472">
        <ele>467</ele>
        <time>2016-07-17T09:55:44.000Z</time>
      </trkpt>
      <trkpt lat="47.54637" lon="6.75468">
        <ele>467</ele>
        <time>2016-07-17T09:55:46.000Z</time>
      </trkpt>
      <trkpt lat="47.54636" lon="6.75466">
        <ele>467</ele>
        <time>2016-07-17T09:55:47.000Z</time>
      </trkpt>
      <trkpt lat="47.54635" lon="6.75462">
        <ele>467</ele>
        <time>2016-07-17T09:55:49.000Z</time>
      </trkpt>
      <trkpt lat="47.54634" lon="6.7546">
        <ele>467</ele>
        <time>2016-07-17T09:55:50.000Z</time>
      </trkpt>
      <trkpt lat="47.54632" lon="6.75454">
        <ele>467</ele>
        <time>2016-07-17T09:55:52.000Z</time>
      </trkpt>
      <trkpt lat="47.54631" lon="6.75452">
        <ele>467</ele>
        <time>2016-07-17T09:55:53.000Z</time>
      </trkpt>
      <trkpt lat="47.54629" lon="6.75447">
        <ele>467</ele>
        <time>2016-07-17T09:55:55.000Z</time>
      </trkpt>
      <trkpt lat="47.54629" lon="6.75444">
        <ele>467</ele>
        <time>2016-07-17T09:55:56.000Z</time>
      </trkpt>
      <trkpt lat="47.54628" lon="6.75438">
        <ele>468</ele>
        <time>2016-07-17T09:55:58.000Z</time>
      </trkpt>
      <trkpt lat="47.54628" lon="6.75435">
        <ele>468</ele>
        <time>2016-07-17T09:55:59.000Z</time>
      </trkpt>
      <trkpt lat="47.54627" lon="6.7543">
        <ele>468</ele>
        <time>2016-07-17T09:56:01.000Z</time>
      </trkpt>
      <trkpt lat="47.54627" lon="6.75427">
        <ele>468</ele>
        <time>2016-07-17T09:56:02.000Z</time>
      </trkpt>
      <trkpt lat="47.54627" lon="6.75421">
        <ele>468</ele>
        <time>2016-07-17T09:56:04.000Z</time>
      </trkpt>
      <trkpt lat="47.54627" lon="6.75418">
        <ele>468</ele>
        <time>2016-07-17T09:56:05.000Z</time>
      </trkpt>
      <trkpt lat="47.54628" lon="6.75413">
        <ele>468</ele>
        <time>2016-07-17T09:56:07.000Z</time>
      </trkpt>
      <trkpt lat="47.54628" lon="6.7541">
        <ele>468</ele>
        <time>2016-07-17T09:56:08.000Z</time>
      </trkpt>
      <trkpt lat="47.54629" lon="6.75404">
        <ele>468</ele>
        <time>2016-07-17T09:56:10.000Z</time>
      </trkpt>
      <trkpt lat="47.54629" lon="6.75401">
        <ele>468</ele>
        <time>2016-07-17T09:56:11.000Z</time>
      </trkpt>
      <trkpt lat="47.54628" lon="6.75396">
        <ele>468</ele>
        <time>2016-07-17T09:56:12.000Z</time>
      </trkpt>
      <trkpt lat="47.54628" lon="6.75392">
        <ele>468</ele>
        <time>2016-07-17T09:56:13.000Z</time>
      </trkpt>
      <trkpt lat="47.54627" lon="6.75388">
        <ele>468</ele>
        <time>2016-07-17T09:56:14.000Z</time>
      </trkpt>
      <trkpt lat="47.54626" lon="6.75385">
        <ele>468</ele>
        <time>2016-07-17T09:56:15.000Z</time>
      </trkpt>
      <trkpt lat="47.54626" lon="6.75379">
        <ele>468</ele>
        <time>2016-07-17T09:56:17.000Z</time>
      </trkpt>
      <trkpt lat="47.54626" lon="6.75377">
        <ele>468</ele>
        <time>2016-07-17T09:56:18.000Z</time>
      </trkpt>
      <trkpt lat="47.54625" lon="6.75372">
        <ele>468</ele>
        <time>2016-07-17T09:56:20.000Z</time>
      </trkpt>
      <trkpt lat="47.54624" lon="6.7537">
        <ele>468</ele>
        <time>2016-07-17T09:56:21.000Z</time>
      </trkpt>
      <trkpt lat="47.54624" lon="6.75364">
        <ele>468</ele>
        <time>2016-07-17T09:56:23.000Z</time>
      </trkpt>
      <trkpt lat="47.54623" lon="6.75361">
        <ele>468</ele>
        <time>2016-07-17T09:56:24.000Z</time>
      </trkpt>
      <trkpt lat="47.54623" lon="6.75356">
        <ele>468</ele>
        <time>2016-07-17T09:56:26.000Z</time>
      </trkpt>
      <trkpt lat="47.54622" lon="6.75353">
        <ele>468</ele>
        <time>2016-07-17T09:56:27.000Z</time>
      </trkpt>
      <trkpt lat="47.54621" lon="6.75348">
        <ele>468</ele>
        <time>2016-07-17T09:56:29.000Z</time>
      </trkpt>
      <trkpt lat="47.54621" lon="6.75345">
        <ele>468</ele>
        <time>2016-07-17T09:56:30.000Z</time>
      </trkpt>
      <trkpt lat="47.54621" lon="6.75339">
        <ele>468</ele>
        <time>2016-07-17T09:56:32.000Z</time>
      </trkpt>
      <trkpt lat="47.5462" lon="6.75335">
        <ele>468</ele>
        <time>2016-07-17T09:56:33.000Z</time>
      </trkpt>
      <trkpt lat="47.54619" lon="6.75332">
        <ele>468</ele>
        <time>2016-07-17T09:56:34.000Z</time>
      </trkpt>
      <trkpt lat="47.54618" lon="6.75329">
        <ele>468</ele>
        <time>2016-07-17T09:56:35.000Z</time>
      </trkpt>
      <trkpt lat="47.54617" lon="6.75324">
        <ele>468</ele>
        <time>2016-07-17T09:56:37.000Z</time>
      </trkpt>
      <trkpt lat="47.54617" lon="6.75321">
        <ele>468</ele>
        <time>2016-07-17T09:56:38.000Z</time>
      </trkpt>
      <trkpt lat="47.54617" lon="6.75316">
        <ele>468</ele>
        <time>2016-07-17T09:56:40.000Z</time>
      </trkpt>
      <trkpt lat="47.54617" lon="6.75314">
        <ele>468</ele>
        <time>2016-07-17T09:56:41.000Z</time>
      </trkpt>
      <trkpt lat="47.54617" lon="6.75308">
        <ele>468</ele>
        <time>2016-07-17T09:56:44.000Z</time>
      </trkpt>
      <trkpt lat="47.54617" lon="6.75306">
        <ele>468</ele>
        <time>2016-07-17T09:56:45.000Z</time>
      </trkpt>
      <trkpt lat="47.54617" lon="6.75301">
        <ele>468</ele>
        <time>2016-07-17T09:56:47.000Z</time>
      </trkpt>
      <trkpt lat="47.54617" lon="6.75297">
        <ele>468</ele>
        <time>2016-07-17T09:56:48.000Z</time>
      </trkpt>
      <trkpt lat="47.54616" lon="6.75293">
        <ele>468</ele>
        <time>2016-07-17T09:56:49.000Z</time>
      </trkpt>
      <trkpt lat="47.54616" lon="6.75289">
        <ele>468</ele>
        <time>2016-07-17T09:56:50.000Z</time>
      </trkpt>
      <trkpt lat="47.54615" lon="6.75285">
        <ele>468</ele>
        <time>2016-07-17T09:56:51.000Z</time>
      </trkpt>
      <trkpt lat="47.54615" lon="6.75281">
        <ele>468</ele>
        <time>2016-07-17T09:56:52.000Z</time>
      </trkpt>
      <trkpt lat="47.54614" lon="6.75277">
        <ele>468</ele>
        <time>2016-07-17T09:56:53.000Z</time>
      </trkpt>
      <trkpt lat="47.54613" lon="6.75274">
        <ele>468</ele>
        <time>2016-07-17T09:56:54.000Z</time>
      </trkpt>
      <trkpt lat="47.54613" lon="6.7527">
        <ele>468</ele>
        <time>2016-07-17T09:56:55.000Z</time>
      </trkpt>
      <trkpt lat="47.54612" lon="6.75266">
        <ele>468</ele>
        <time>2016-07-17T09:56:56.000Z</time>
      </trkpt>
      <trkpt lat="47.54612" lon="6.75262">
        <ele>468</ele>
        <time>2016-07-17T09:56:57.000Z</time>
      </trkpt>
      <trkpt lat="47.54611" lon="6.75257">
        <ele>468</ele>
        <time>2016-07-17T09:56:58.000Z</time>
      </trkpt>
      <trkpt lat="47.5461" lon="6.75253">
        <ele>468</ele>
        <time>2016-07-17T09:56:59.000Z</time>
      </trkpt>
      <trkpt lat="47.5461" lon="6.75249">
        <ele>467</ele>
        <time>2016-07-17T09:57:00.000Z</time>
      </trkpt>
      <trkpt lat="47.5461" lon="6.75244">
        <ele>467</ele>
        <time>2016-07-17T09:57:01.000Z</time>
      </trkpt>
      <trkpt lat="47.54609" lon="6.75241">
        <ele>467</ele>
        <time>2016-07-17T09:57:02.000Z</time>
      </trkpt>
      <trkpt lat="47.5461" lon="6.75237">
        <ele>467</ele>
        <time>2016-07-17T09:57:03.000Z</time>
      </trkpt>
      <trkpt lat="47.54611" lon="6.75233">
        <ele>467</ele>
        <time>2016-07-17T09:57:04.000Z</time>
      </trkpt>
      <trkpt lat="47.54611" lon="6.75229">
        <ele>467</ele>
        <time>2016-07-17T09:57:05.000Z</time>
      </trkpt>
      <trkpt lat="47.54611" lon="6.75225">
        <ele>467</ele>
        <time>2016-07-17T09:57:06.000Z</time>
      </trkpt>
      <trkpt lat="47.54611" lon="6.75219">
        <ele>467</ele>
        <time>2016-07-17T09:57:08.000Z</time>
      </trkpt>
      <trkpt lat="47.5461" lon="6.75216">
        <ele>467</ele>
        <time>2016-07-17T09:57:09.000Z</time>
      </trkpt>
      <trkpt lat="47.5461" lon="6.75209">
        <ele>467</ele>
        <time>2016-07-17T09:57:11.000Z</time>
      </trkpt>
      <trkpt lat="47.5461" lon="6.75206">
        <ele>467</ele>
        <time>2016-07-17T09:57:12.000Z</time>
      </trkpt>
      <trkpt lat="47.5461" lon="6.75202">
        <ele>467</ele>
        <time>2016-07-17T09:57:13.000Z</time>
      </trkpt>
      <trkpt lat="47.5461" lon="6.75199">
        <ele>467</ele>
        <time>2016-07-17T09:57:14.000Z</time>
      </trkpt>
      <trkpt lat="47.54611" lon="6.75193">
        <ele>467</ele>
        <time>2016-07-17T09:57:16.000Z</time>
      </trkpt>
      <trkpt lat="47.54612" lon="6.75189">
        <ele>467</ele>
        <time>2016-07-17T09:57:17.000Z</time>
      </trkpt>
      <trkpt lat="47.54612" lon="6.75185">
        <ele>467</ele>
        <time>2016-07-17T09:57:18.000Z</time>
      </trkpt>
      <trkpt lat="47.54612" lon="6.75181">
        <ele>466</ele>
        <time>2016-07-17T09:57:19.000Z</time>
      </trkpt>
      <trkpt lat="47.54612" lon="6.75176">
        <ele>466</ele>
        <time>2016-07-17T09:57:20.000Z</time>
      </trkpt>
      <trkpt lat="47.54612" lon="6.75171">
        <ele>466</ele>
        <time>2016-07-17T09:57:21.000Z</time>
      </trkpt>
      <trkpt lat="47.54611" lon="6.75167">
        <ele>464</ele>
        <time>2016-07-17T09:57:22.000Z</time>
      </trkpt>
      <trkpt lat="47.54611" lon="6.75162">
        <ele>464</ele>
        <time>2016-07-17T09:57:23.000Z</time>
      </trkpt>
      <trkpt lat="47.54609" lon="6.75158">
        <ele>464</ele>
        <time>2016-07-17T09:57:24.000Z</time>
      </trkpt>
      <trkpt lat="47.54609" lon="6.75154">
        <ele>464</ele>
        <time>2016-07-17T09:57:25.000Z</time>
      </trkpt>
      <trkpt lat="47.54608" lon="6.7515">
        <ele>464</ele>
        <time>2016-07-17T09:57:26.000Z</time>
      </trkpt>
      <trkpt lat="47.54608" lon="6.75147">
        <ele>464</ele>
        <time>2016-07-17T09:57:27.000Z</time>
      </trkpt>
      <trkpt lat="47.54608" lon="6.75143">
        <ele>464</ele>
        <time>2016-07-17T09:57:28.000Z</time>
      </trkpt>
      <trkpt lat="47.54608" lon="6.75139">
        <ele>464</ele>
        <time>2016-07-17T09:57:29.000Z</time>
      </trkpt>
      <trkpt lat="47.54607" lon="6.75136">
        <ele>464</ele>
        <time>2016-07-17T09:57:30.000Z</time>
      </trkpt>
      <trkpt lat="47.54607" lon="6.75132">
        <ele>464</ele>
        <time>2016-07-17T09:57:31.000Z</time>
      </trkpt>
      <trkpt lat="47.54606" lon="6.75128">
        <ele>464</ele>
        <time>2016-07-17T09:57:32.000Z</time>
      </trkpt>
      <trkpt lat="47.54605" lon="6.75124">
        <ele>463</ele>
        <time>2016-07-17T09:57:33.000Z</time>
      </trkpt>
      <trkpt lat="47.54605" lon="6.7512">
        <ele>463</ele>
        <time>2016-07-17T09:57:34.000Z</time>
      </trkpt>
      <trkpt lat="47.54604" lon="6.75116">
        <ele>463</ele>
        <time>2016-07-17T09:57:35.000Z</time>
      </trkpt>
      <trkpt lat="47.54604" lon="6.75113">
        <ele>463</ele>
        <time>2016-07-17T09:57:36.000Z</time>
      </trkpt>
      <trkpt lat="47.54604" lon="6.75109">
        <ele>463</ele>
        <time>2016-07-17T09:57:37.000Z</time>
      </trkpt>
      <trkpt lat="47.54603" lon="6.75103">
        <ele>463</ele>
        <time>2016-07-17T09:57:39.000Z</time>
      </trkpt>
      <trkpt lat="47.54602" lon="6.75101">
        <ele>463</ele>
        <time>2016-07-17T09:57:40.000Z</time>
      </trkpt>
      <trkpt lat="47.546" lon="6.75095">
        <ele>463</ele>
        <time>2016-07-17T09:57:42.000Z</time>
      </trkpt>
      <trkpt lat="47.54599" lon="6.75091">
        <ele>463</ele>
        <time>2016-07-17T09:57:43.000Z</time>
      </trkpt>
      <trkpt lat="47.54598" lon="6.75087">
        <ele>463</ele>
        <time>2016-07-17T09:57:44.000Z</time>
      </trkpt>
      <trkpt lat="47.54597" lon="6.75083">
        <ele>461</ele>
        <time>2016-07-17T09:57:45.000Z</time>
      </trkpt>
      <trkpt lat="47.54597" lon="6.75078">
        <ele>461</ele>
        <time>2016-07-17T09:57:46.000Z</time>
      </trkpt>
      <trkpt lat="47.54596" lon="6.75073">
        <ele>461</ele>
        <time>2016-07-17T09:57:47.000Z</time>
      </trkpt>
      <trkpt lat="47.54596" lon="6.75068">
        <ele>461</ele>
        <time>2016-07-17T09:57:48.000Z</time>
      </trkpt>
      <trkpt lat="47.54594" lon="6.75066">
        <ele>461</ele>
        <time>2016-07-17T09:57:49.000Z</time>
      </trkpt>
      <trkpt lat="47.54592" lon="6.75065">
        <ele>461</ele>
        <time>2016-07-17T09:57:50.000Z</time>
      </trkpt>
      <trkpt lat="47.54589" lon="6.75064">
        <ele>461</ele>
        <time>2016-07-17T09:57:51.000Z</time>
      </trkpt>
      <trkpt lat="47.54586" lon="6.75065">
        <ele>461</ele>
        <time>2016-07-17T09:57:52.000Z</time>
      </trkpt>
      <trkpt lat="47.54584" lon="6.75066">
        <ele>461</ele>
        <time>2016-07-17T09:57:53.000Z</time>
      </trkpt>
      <trkpt lat="47.54581" lon="6.75067">
        <ele>465</ele>
        <time>2016-07-17T09:57:54.000Z</time>
      </trkpt>
      <trkpt lat="47.54579" lon="6.75069">
        <ele>464</ele>
        <time>2016-07-17T09:57:55.000Z</time>
      </trkpt>
      <trkpt lat="47.54577" lon="6.75071">
        <ele>464</ele>
        <time>2016-07-17T09:57:56.000Z</time>
      </trkpt>
      <trkpt lat="47.54576" lon="6.75073">
        <ele>464</ele>
        <time>2016-07-17T09:57:57.000Z</time>
      </trkpt>
      <trkpt lat="47.54572" lon="6.75077">
        <ele>464</ele>
        <time>2016-07-17T09:57:59.000Z</time>
      </trkpt>
      <trkpt lat="47.5457" lon="6.75078">
        <ele>465</ele>
        <time>2016-07-17T09:58:00.000Z</time>
      </trkpt>
      <trkpt lat="47.54566" lon="6.75079">
        <ele>465</ele>
        <time>2016-07-17T09:58:02.000Z</time>
      </trkpt>
      <trkpt lat="47.54565" lon="6.7508">
        <ele>465</ele>
        <time>2016-07-17T09:58:03.000Z</time>
      </trkpt>
      <trkpt lat="47.54562" lon="6.7508">
        <ele>465</ele>
        <time>2016-07-17T09:58:05.000Z</time>
      </trkpt>
      <trkpt lat="47.5456" lon="6.7508">
        <ele>465</ele>
        <time>2016-07-17T09:58:06.000Z</time>
      </trkpt>
      <trkpt lat="47.54557" lon="6.75083">
        <ele>465</ele>
        <time>2016-07-17T09:58:08.000Z</time>
      </trkpt>
      <trkpt lat="47.54556" lon="6.75084">
        <ele>466</ele>
        <time>2016-07-17T09:58:09.000Z</time>
      </trkpt>
      <trkpt lat="47.54553" lon="6.75086">
        <ele>466</ele>
        <time>2016-07-17T09:58:11.000Z</time>
      </trkpt>
      <trkpt lat="47.54551" lon="6.75087">
        <ele>467</ele>
        <time>2016-07-17T09:58:12.000Z</time>
      </trkpt>
      <trkpt lat="47.54548" lon="6.75091">
        <ele>467</ele>
        <time>2016-07-17T09:58:14.000Z</time>
      </trkpt>
      <trkpt lat="47.54547" lon="6.75092">
        <ele>467</ele>
        <time>2016-07-17T09:58:15.000Z</time>
      </trkpt>
      <trkpt lat="47.54543" lon="6.75096">
        <ele>467</ele>
        <time>2016-07-17T09:58:17.000Z</time>
      </trkpt>
      <trkpt lat="47.54542" lon="6.75097">
        <ele>467</ele>
        <time>2016-07-17T09:58:18.000Z</time>
      </trkpt>
      <trkpt lat="47.54539" lon="6.75101">
        <ele>467</ele>
        <time>2016-07-17T09:58:20.000Z</time>
      </trkpt>
      <trkpt lat="47.54538" lon="6.75103">
        <ele>467</ele>
        <time>2016-07-17T09:58:21.000Z</time>
      </trkpt>
      <trkpt lat="47.54535" lon="6.75107">
        <ele>468</ele>
        <time>2016-07-17T09:58:23.000Z</time>
      </trkpt>
      <trkpt lat="47.54533" lon="6.75108">
        <ele>468</ele>
        <time>2016-07-17T09:58:24.000Z</time>
      </trkpt>
      <trkpt lat="47.5453" lon="6.75109">
        <ele>468</ele>
        <time>2016-07-17T09:58:26.000Z</time>
      </trkpt>
      <trkpt lat="47.54528" lon="6.7511">
        <ele>468</ele>
        <time>2016-07-17T09:58:27.000Z</time>
      </trkpt>
      <trkpt lat="47.54525" lon="6.75112">
        <ele>468</ele>
        <time>2016-07-17T09:58:29.000Z</time>
      </trkpt>
      <trkpt lat="47.54524" lon="6.75113">
        <ele>468</ele>
        <time>2016-07-17T09:58:30.000Z</time>
      </trkpt>
      <trkpt lat="47.5452" lon="6.75117">
        <ele>468</ele>
        <time>2016-07-17T09:58:33.000Z</time>
      </trkpt>
      <trkpt lat="47.54519" lon="6.75118">
        <ele>468</ele>
        <time>2016-07-17T09:58:34.000Z</time>
      </trkpt>
      <trkpt lat="47.54515" lon="6.75119">
        <ele>468</ele>
        <time>2016-07-17T09:58:37.000Z</time>
      </trkpt>
      <trkpt lat="47.54514" lon="6.75119">
        <ele>468</ele>
        <time>2016-07-17T09:58:38.000Z</time>
      </trkpt>
      <trkpt lat="47.54511" lon="6.7512">
        <ele>468</ele>
        <time>2016-07-17T09:58:40.000Z</time>
      </trkpt>
      <trkpt lat="47.54509" lon="6.7512">
        <ele>468</ele>
        <time>2016-07-17T09:58:41.000Z</time>
      </trkpt>
      <trkpt lat="47.54505" lon="6.75122">
        <ele>468</ele>
        <time>2016-07-17T09:58:43.000Z</time>
      </trkpt>
      <trkpt lat="47.54503" lon="6.75123">
        <ele>468</ele>
        <time>2016-07-17T09:58:44.000Z</time>
      </trkpt>
      <trkpt lat="47.54499" lon="6.75125">
        <ele>470</ele>
        <time>2016-07-17T09:58:46.000Z</time>
      </trkpt>
      <trkpt lat="47.54497" lon="6.75127">
        <ele>470</ele>
        <time>2016-07-17T09:58:47.000Z</time>
      </trkpt>
      <trkpt lat="47.54495" lon="6.75132">
        <ele>470</ele>
        <time>2016-07-17T09:58:49.000Z</time>
      </trkpt>
      <trkpt lat="47.54494" lon="6.75134">
        <ele>470</ele>
        <time>2016-07-17T09:58:50.000Z</time>
      </trkpt>
      <trkpt lat="47.54491" lon="6.75139">
        <ele>470</ele>
        <time>2016-07-17T09:58:52.000Z</time>
      </trkpt>
      <trkpt lat="47.54489" lon="6.75141">
        <ele>470</ele>
        <time>2016-07-17T09:58:53.000Z</time>
      </trkpt>
      <trkpt lat="47.54486" lon="6.75144">
        <ele>470</ele>
        <time>2016-07-17T09:58:55.000Z</time>
      </trkpt>
      <trkpt lat="47.54484" lon="6.75145">
        <ele>470</ele>
        <time>2016-07-17T09:58:56.000Z</time>
      </trkpt>
      <trkpt lat="47.54481" lon="6.75147">
        <ele>470</ele>
        <time>2016-07-17T09:58:58.000Z</time>
      </trkpt>
      <trkpt lat="47.5448" lon="6.75148">
        <ele>470</ele>
        <time>2016-07-17T09:58:59.000Z</time>
      </trkpt>
      <trkpt lat="47.54476" lon="6.75149">
        <ele>471</ele>
        <time>2016-07-17T09:59:01.000Z</time>
      </trkpt>
      <trkpt lat="47.54473" lon="6.75149">
        <ele>471</ele>
        <time>2016-07-17T09:59:02.000Z</time>
      </trkpt>
      <trkpt lat="47.5447" lon="6.7515">
        <ele>471</ele>
        <time>2016-07-17T09:59:03.000Z</time>
      </trkpt>
      <trkpt lat="47.54467" lon="6.7515">
        <ele>471</ele>
        <time>2016-07-17T09:59:04.000Z</time>
      </trkpt>
      <trkpt lat="47.54464" lon="6.75151">
        <ele>471</ele>
        <time>2016-07-17T09:59:05.000Z</time>
      </trkpt>
      <trkpt lat="47.54462" lon="6.75153">
        <ele>471</ele>
        <time>2016-07-17T09:59:06.000Z</time>
      </trkpt>
      <trkpt lat="47.54459" lon="6.75154">
        <ele>471</ele>
        <time>2016-07-17T09:59:07.000Z</time>
      </trkpt>
      <trkpt lat="47.54458" lon="6.75157">
        <ele>471</ele>
        <time>2016-07-17T09:59:08.000Z</time>
      </trkpt>
      <trkpt lat="47.54456" lon="6.7516">
        <ele>471</ele>
        <time>2016-07-17T09:59:09.000Z</time>
      </trkpt>
      <trkpt lat="47.54454" lon="6.75163">
        <ele>471</ele>
        <time>2016-07-17T09:59:10.000Z</time>
      </trkpt>
      <trkpt lat="47.54452" lon="6.75165">
        <ele>471</ele>
        <time>2016-07-17T09:59:11.000Z</time>
      </trkpt>
      <trkpt lat="47.5445" lon="6.75168">
        <ele>471</ele>
        <time>2016-07-17T09:59:12.000Z</time>
      </trkpt>
      <trkpt lat="47.54447" lon="6.7517">
        <ele>471</ele>
        <time>2016-07-17T09:59:13.000Z</time>
      </trkpt>
      <trkpt lat="47.54444" lon="6.75171">
        <ele>471</ele>
        <time>2016-07-17T09:59:14.000Z</time>
      </trkpt>
      <trkpt lat="47.54441" lon="6.75173">
        <ele>471</ele>
        <time>2016-07-17T09:59:15.000Z</time>
      </trkpt>
      <trkpt lat="47.54439" lon="6.75175">
        <ele>471</ele>
        <time>2016-07-17T09:59:16.000Z</time>
      </trkpt>
      <trkpt lat="47.54436" lon="6.75176">
        <ele>471</ele>
        <time>2016-07-17T09:59:17.000Z</time>
      </trkpt>
      <trkpt lat="47.54433" lon="6.75178">
        <ele>471</ele>
        <time>2016-07-17T09:59:18.000Z</time>
      </trkpt>
      <trkpt lat="47.5443" lon="6.75179">
        <ele>471</ele>
        <time>2016-07-17T09:59:19.000Z</time>
      </trkpt>
      <trkpt lat="47.54426" lon="6.7518">
        <ele>471</ele>
        <time>2016-07-17T09:59:20.000Z</time>
      </trkpt>
      <trkpt lat="47.54423" lon="6.75182">
        <ele>471</ele>
        <time>2016-07-17T09:59:21.000Z</time>
      </trkpt>
      <trkpt lat="47.54419" lon="6.75184">
        <ele>471</ele>
        <time>2016-07-17T09:59:22.000Z</time>
      </trkpt>
      <trkpt lat="47.54415" lon="6.75187">
        <ele>470</ele>
        <time>2016-07-17T09:59:23.000Z</time>
      </trkpt>
      <trkpt lat="47.54411" lon="6.75191">
        <ele>469</ele>
        <time>2016-07-17T09:59:24.000Z</time>
      </trkpt>
      <trkpt lat="47.54407" lon="6.75194">
        <ele>469</ele>
        <time>2016-07-17T09:59:25.000Z</time>
      </trkpt>
      <trkpt lat="47.54403" lon="6.75198">
        <ele>469</ele>
        <time>2016-07-17T09:59:26.000Z</time>
      </trkpt>
      <trkpt lat="47.544" lon="6.75202">
        <ele>469</ele>
        <time>2016-07-17T09:59:27.000Z</time>
      </trkpt>
      <trkpt lat="47.54397" lon="6.75207">
        <ele>469</ele>
        <time>2016-07-17T09:59:28.000Z</time>
      </trkpt>
      <trkpt lat="47.54394" lon="6.75211">
        <ele>469</ele>
        <time>2016-07-17T09:59:29.000Z</time>
      </trkpt>
      <trkpt lat="47.54392" lon="6.75215">
        <ele>469</ele>
        <time>2016-07-17T09:59:30.000Z</time>
      </trkpt>
      <trkpt lat="47.54389" lon="6.75218">
        <ele>469</ele>
        <time>2016-07-17T09:59:31.000Z</time>
      </trkpt>
      <trkpt lat="47.54386" lon="6.75222">
        <ele>469</ele>
        <time>2016-07-17T09:59:32.000Z</time>
      </trkpt>
      <trkpt lat="47.54382" lon="6.75226">
        <ele>469</ele>
        <time>2016-07-17T09:59:33.000Z</time>
      </trkpt>
      <trkpt lat="47.54379" lon="6.75231">
        <ele>469</ele>
        <time>2016-07-17T09:59:34.000Z</time>
      </trkpt>
      <trkpt lat="47.54376" lon="6.75234">
        <ele>469</ele>
        <time>2016-07-17T09:59:35.000Z</time>
      </trkpt>
      <trkpt lat="47.54372" lon="6.75237">
        <ele>468</ele>
        <time>2016-07-17T09:59:36.000Z</time>
      </trkpt>
      <trkpt lat="47.54369" lon="6.75241">
        <ele>468</ele>
        <time>2016-07-17T09:59:37.000Z</time>
      </trkpt>
      <trkpt lat="47.54366" lon="6.75244">
        <ele>468</ele>
        <time>2016-07-17T09:59:38.000Z</time>
      </trkpt>
      <trkpt lat="47.54363" lon="6.75248">
        <ele>468</ele>
        <time>2016-07-17T09:59:39.000Z</time>
      </trkpt>
      <trkpt lat="47.54361" lon="6.75252">
        <ele>468</ele>
        <time>2016-07-17T09:59:40.000Z</time>
      </trkpt>
      <trkpt lat="47.54359" lon="6.75255">
        <ele>468</ele>
        <time>2016-07-17T09:59:41.000Z</time>
      </trkpt>
      <trkpt lat="47.54357" lon="6.75258">
        <ele>468</ele>
        <time>2016-07-17T09:59:42.000Z</time>
      </trkpt>
      <trkpt lat="47.54354" lon="6.75261">
        <ele>468</ele>
        <time>2016-07-17T09:59:43.000Z</time>
      </trkpt>
      <trkpt lat="47.54351" lon="6.75264">
        <ele>468</ele>
        <time>2016-07-17T09:59:44.000Z</time>
      </trkpt>
      <trkpt lat="47.54349" lon="6.75269">
        <ele>468</ele>
        <time>2016-07-17T09:59:45.000Z</time>
      </trkpt>
      <trkpt lat="47.54347" lon="6.75274">
        <ele>468</ele>
        <time>2016-07-17T09:59:46.000Z</time>
      </trkpt>
      <trkpt lat="47.54345" lon="6.7528">
        <ele>468</ele>
        <time>2016-07-17T09:59:47.000Z</time>
      </trkpt>
      <trkpt lat="47.54344" lon="6.75286">
        <ele>468</ele>
        <time>2016-07-17T09:59:48.000Z</time>
      </trkpt>
      <trkpt lat="47.54342" lon="6.75291">
        <ele>467</ele>
        <time>2016-07-17T09:59:49.000Z</time>
      </trkpt>
      <trkpt lat="47.5434" lon="6.75296">
        <ele>467</ele>
        <time>2016-07-17T09:59:50.000Z</time>
      </trkpt>
      <trkpt lat="47.54338" lon="6.75301">
        <ele>467</ele>
        <time>2016-07-17T09:59:51.000Z</time>
      </trkpt>
      <trkpt lat="47.54336" lon="6.75306">
        <ele>467</ele>
        <time>2016-07-17T09:59:52.000Z</time>
      </trkpt>
      <trkpt lat="47.54333" lon="6.7531">
        <ele>467</ele>
        <time>2016-07-17T09:59:53.000Z</time>
      </trkpt>
      <trkpt lat="47.54331" lon="6.75313">
        <ele>465</ele>
        <time>2016-07-17T09:59:54.000Z</time>
      </trkpt>
      <trkpt lat="47.54327" lon="6.75315">
        <ele>465</ele>
        <time>2016-07-17T09:59:55.000Z</time>
      </trkpt>
      <trkpt lat="47.54324" lon="6.75317">
        <ele>465</ele>
        <time>2016-07-17T09:59:56.000Z</time>
      </trkpt>
      <trkpt lat="47.5432" lon="6.75319">
        <ele>465</ele>
        <time>2016-07-17T09:59:57.000Z</time>
      </trkpt>
      <trkpt lat="47.54316" lon="6.75322">
        <ele>465</ele>
        <time>2016-07-17T09:59:58.000Z</time>
      </trkpt>
      <trkpt lat="47.54312" lon="6.75327">
        <ele>465</ele>
        <time>2016-07-17T09:59:59.000Z</time>
      </trkpt>
      <trkpt lat="47.54308" lon="6.75332">
        <ele>464</ele>
        <time>2016-07-17T10:00:00.000Z</time>
      </trkpt>
      <trkpt lat="47.54303" lon="6.7535">
        <ele>463</ele>
        <time>2016-07-17T10:00:01.000Z</time>
      </trkpt>
      <trkpt lat="47.54299" lon="6.75357">
        <ele>463</ele>
        <time>2016-07-17T10:00:02.000Z</time>
      </trkpt>
      <trkpt lat="47.54296" lon="6.75363">
        <ele>463</ele>
        <time>2016-07-17T10:00:03.000Z</time>
      </trkpt>
      <trkpt lat="47.54295" lon="6.75368">
        <ele>463</ele>
        <time>2016-07-17T10:00:05.000Z</time>
      </trkpt>
      <trkpt lat="47.54293" lon="6.7537">
        <ele>463</ele>
        <time>2016-07-17T10:00:06.000Z</time>
      </trkpt>
      <trkpt lat="47.54292" lon="6.75374">
        <ele>463</ele>
        <time>2016-07-17T10:00:07.000Z</time>
      </trkpt>
      <trkpt lat="47.5429" lon="6.7538">
        <ele>462</ele>
        <time>2016-07-17T10:00:08.000Z</time>
      </trkpt>
      <trkpt lat="47.54288" lon="6.75386">
        <ele>462</ele>
        <time>2016-07-17T10:00:09.000Z</time>
      </trkpt>
      <trkpt lat="47.54287" lon="6.75392">
        <ele>462</ele>
        <time>2016-07-17T10:00:10.000Z</time>
      </trkpt>
      <trkpt lat="47.54283" lon="6.75398">
        <ele>462</ele>
        <time>2016-07-17T10:00:11.000Z</time>
      </trkpt>
      <trkpt lat="47.54281" lon="6.75402">
        <ele>462</ele>
        <time>2016-07-17T10:00:12.000Z</time>
      </trkpt>
      <trkpt lat="47.54279" lon="6.75406">
        <ele>462</ele>
        <time>2016-07-17T10:00:13.000Z</time>
      </trkpt>
      <trkpt lat="47.54276" lon="6.75409">
        <ele>462</ele>
        <time>2016-07-17T10:00:14.000Z</time>
      </trkpt>
      <trkpt lat="47.54272" lon="6.75413">
        <ele>461</ele>
        <time>2016-07-17T10:00:15.000Z</time>
      </trkpt>
      <trkpt lat="47.54269" lon="6.75416">
        <ele>461</ele>
        <time>2016-07-17T10:00:16.000Z</time>
      </trkpt>
      <trkpt lat="47.54267" lon="6.7542">
        <ele>460</ele>
        <time>2016-07-17T10:00:17.000Z</time>
      </trkpt>
      <trkpt lat="47.54265" lon="6.75424">
        <ele>460</ele>
        <time>2016-07-17T10:00:18.000Z</time>
      </trkpt>
      <trkpt lat="47.54264" lon="6.75428">
        <ele>460</ele>
        <time>2016-07-17T10:00:19.000Z</time>
      </trkpt>
      <trkpt lat="47.54262" lon="6.75432">
        <ele>460</ele>
        <time>2016-07-17T10:00:20.000Z</time>
      </trkpt>
      <trkpt lat="47.54259" lon="6.75436">
        <ele>460</ele>
        <time>2016-07-17T10:00:21.000Z</time>
      </trkpt>
      <trkpt lat="47.54255" lon="6.7544">
        <ele>460</ele>
        <time>2016-07-17T10:00:22.000Z</time>
      </trkpt>
      <trkpt lat="47.54251" lon="6.75444">
        <ele>460</ele>
        <time>2016-07-17T10:00:23.000Z</time>
      </trkpt>
      <trkpt lat="47.54247" lon="6.75447">
        <ele>458</ele>
        <time>2016-07-17T10:00:24.000Z</time>
      </trkpt>
      <trkpt lat="47.5424" lon="6.75455">
        <ele>458</ele>
        <time>2016-07-17T10:00:25.000Z</time>
      </trkpt>
      <trkpt lat="47.54239" lon="6.75463">
        <ele>457</ele>
        <time>2016-07-17T10:00:26.000Z</time>
      </trkpt>
      <trkpt lat="47.54237" lon="6.7547">
        <ele>457</ele>
        <time>2016-07-17T10:00:27.000Z</time>
      </trkpt>
      <trkpt lat="47.54235" lon="6.75478">
        <ele>457</ele>
        <time>2016-07-17T10:00:28.000Z</time>
      </trkpt>
      <trkpt lat="47.54234" lon="6.75483">
        <ele>457</ele>
        <time>2016-07-17T10:00:29.000Z</time>
      </trkpt>
      <trkpt lat="47.54232" lon="6.75489">
        <ele>457</ele>
        <time>2016-07-17T10:00:30.000Z</time>
      </trkpt>
      <trkpt lat="47.54231" lon="6.75498">
        <ele>457</ele>
        <time>2016-07-17T10:00:31.000Z</time>
      </trkpt>
      <trkpt lat="47.54231" lon="6.7551">
        <ele>456</ele>
        <time>2016-07-17T10:00:32.000Z</time>
      </trkpt>
      <trkpt lat="47.5423" lon="6.75524">
        <ele>456</ele>
        <time>2016-07-17T10:00:33.000Z</time>
      </trkpt>
      <trkpt lat="47.54229" lon="6.75531">
        <ele>456</ele>
        <time>2016-07-17T10:00:34.000Z</time>
      </trkpt>
      <trkpt lat="47.54226" lon="6.75535">
        <ele>456</ele>
        <time>2016-07-17T10:00:35.000Z</time>
      </trkpt>
      <trkpt lat="47.54223" lon="6.75542">
        <ele>456</ele>
        <time>2016-07-17T10:00:36.000Z</time>
      </trkpt>
      <trkpt lat="47.54221" lon="6.75548">
        <ele>455</ele>
        <time>2016-07-17T10:00:37.000Z</time>
      </trkpt>
      <trkpt lat="47.54217" lon="6.75554">
        <ele>455</ele>
        <time>2016-07-17T10:00:38.000Z</time>
      </trkpt>
      <trkpt lat="47.54214" lon="6.75559">
        <ele>455</ele>
        <time>2016-07-17T10:00:39.000Z</time>
      </trkpt>
      <trkpt lat="47.54213" lon="6.75568">
        <ele>455</ele>
        <time>2016-07-17T10:00:40.000Z</time>
      </trkpt>
      <trkpt lat="47.54211" lon="6.75578">
        <ele>455</ele>
        <time>2016-07-17T10:00:41.000Z</time>
      </trkpt>
      <trkpt lat="47.54209" lon="6.75585">
        <ele>454</ele>
        <time>2016-07-17T10:00:42.000Z</time>
      </trkpt>
      <trkpt lat="47.54208" lon="6.75592">
        <ele>453</ele>
        <time>2016-07-17T10:00:43.000Z</time>
      </trkpt>
      <trkpt lat="47.54206" lon="6.75599">
        <ele>453</ele>
        <time>2016-07-17T10:00:44.000Z</time>
      </trkpt>
      <trkpt lat="47.54205" lon="6.75604">
        <ele>453</ele>
        <time>2016-07-17T10:00:45.000Z</time>
      </trkpt>
      <trkpt lat="47.54203" lon="6.75609">
        <ele>453</ele>
        <time>2016-07-17T10:00:46.000Z</time>
      </trkpt>
      <trkpt lat="47.54201" lon="6.75617">
        <ele>453</ele>
        <time>2016-07-17T10:00:47.000Z</time>
      </trkpt>
      <trkpt lat="47.54198" lon="6.75622">
        <ele>453</ele>
        <time>2016-07-17T10:00:48.000Z</time>
      </trkpt>
      <trkpt lat="47.54195" lon="6.75626">
        <ele>453</ele>
        <time>2016-07-17T10:00:49.000Z</time>
      </trkpt>
      <trkpt lat="47.54192" lon="6.75631">
        <ele>453</ele>
        <time>2016-07-17T10:00:50.000Z</time>
      </trkpt>
      <trkpt lat="47.5419" lon="6.75637">
        <ele>453</ele>
        <time>2016-07-17T10:00:51.000Z</time>
      </trkpt>
      <trkpt lat="47.54188" lon="6.75643">
        <ele>452</ele>
        <time>2016-07-17T10:00:52.000Z</time>
      </trkpt>
      <trkpt lat="47.54186" lon="6.75649">
        <ele>452</ele>
        <time>2016-07-17T10:00:53.000Z</time>
      </trkpt>
      <trkpt lat="47.54184" lon="6.75655">
        <ele>452</ele>
        <time>2016-07-17T10:00:54.000Z</time>
      </trkpt>
      <trkpt lat="47.54183" lon="6.75661">
        <ele>452</ele>
        <time>2016-07-17T10:00:55.000Z</time>
      </trkpt>
      <trkpt lat="47.54181" lon="6.75669">
        <ele>451</ele>
        <time>2016-07-17T10:00:56.000Z</time>
      </trkpt>
      <trkpt lat="47.54179" lon="6.75676">
        <ele>451</ele>
        <time>2016-07-17T10:00:57.000Z</time>
      </trkpt>
      <trkpt lat="47.54177" lon="6.75684">
        <ele>451</ele>
        <time>2016-07-17T10:00:58.000Z</time>
      </trkpt>
      <trkpt lat="47.54176" lon="6.75692">
        <ele>450</ele>
        <time>2016-07-17T10:00:59.000Z</time>
      </trkpt>
      <trkpt lat="47.54174" lon="6.75699">
        <ele>450</ele>
        <time>2016-07-17T10:01:00.000Z</time>
      </trkpt>
      <trkpt lat="47.54172" lon="6.75706">
        <ele>450</ele>
        <time>2016-07-17T10:01:01.000Z</time>
      </trkpt>
      <trkpt lat="47.54171" lon="6.75714">
        <ele>450</ele>
        <time>2016-07-17T10:01:02.000Z</time>
      </trkpt>
      <trkpt lat="47.54169" lon="6.75722">
        <ele>450</ele>
        <time>2016-07-17T10:01:03.000Z</time>
      </trkpt>
      <trkpt lat="47.54164" lon="6.75743">
        <ele>448</ele>
        <time>2016-07-17T10:01:04.000Z</time>
      </trkpt>
      <trkpt lat="47.54162" lon="6.7575">
        <ele>448</ele>
        <time>2016-07-17T10:01:05.000Z</time>
      </trkpt>
      <trkpt lat="47.54159" lon="6.75757">
        <ele>447</ele>
        <time>2016-07-17T10:01:06.000Z</time>
      </trkpt>
      <trkpt lat="47.54156" lon="6.75764">
        <ele>446</ele>
        <time>2016-07-17T10:01:07.000Z</time>
      </trkpt>
      <trkpt lat="47.54153" lon="6.75771">
        <ele>445</ele>
        <time>2016-07-17T10:01:08.000Z</time>
      </trkpt>
      <trkpt lat="47.5415" lon="6.75779">
        <ele>444</ele>
        <time>2016-07-17T10:01:09.000Z</time>
      </trkpt>
      <trkpt lat="47.54147" lon="6.75786">
        <ele>444</ele>
        <time>2016-07-17T10:01:10.000Z</time>
      </trkpt>
      <trkpt lat="47.54145" lon="6.75791">
        <ele>443</ele>
        <time>2016-07-17T10:01:11.000Z</time>
      </trkpt>
      <trkpt lat="47.54149" lon="6.75802">
        <ele>443</ele>
        <time>2016-07-17T10:01:12.000Z</time>
      </trkpt>
      <trkpt lat="47.54148" lon="6.75808">
        <ele>443</ele>
        <time>2016-07-17T10:01:13.000Z</time>
      </trkpt>
      <trkpt lat="47.54146" lon="6.75811">
        <ele>443</ele>
        <time>2016-07-17T10:01:14.000Z</time>
      </trkpt>
      <trkpt lat="47.54145" lon="6.75817">
        <ele>443</ele>
        <time>2016-07-17T10:01:15.000Z</time>
      </trkpt>
      <trkpt lat="47.54143" lon="6.75822">
        <ele>443</ele>
        <time>2016-07-17T10:01:16.000Z</time>
      </trkpt>
      <trkpt lat="47.54142" lon="6.75826">
        <ele>442</ele>
        <time>2016-07-17T10:01:17.000Z</time>
      </trkpt>
      <trkpt lat="47.54141" lon="6.75831">
        <ele>442</ele>
        <time>2016-07-17T10:01:18.000Z</time>
      </trkpt>
      <trkpt lat="47.54138" lon="6.75836">
        <ele>440</ele>
        <time>2016-07-17T10:01:19.000Z</time>
      </trkpt>
      <trkpt lat="47.54136" lon="6.7584">
        <ele>440</ele>
        <time>2016-07-17T10:01:20.000Z</time>
      </trkpt>
      <trkpt lat="47.54133" lon="6.75845">
        <ele>440</ele>
        <time>2016-07-17T10:01:21.000Z</time>
      </trkpt>
      <trkpt lat="47.54131" lon="6.7585">
        <ele>440</ele>
        <time>2016-07-17T10:01:22.000Z</time>
      </trkpt>
      <trkpt lat="47.54129" lon="6.75855">
        <ele>439</ele>
        <time>2016-07-17T10:01:23.000Z</time>
      </trkpt>
      <trkpt lat="47.54131" lon="6.75868">
        <ele>439</ele>
        <time>2016-07-17T10:01:24.000Z</time>
      </trkpt>
      <trkpt lat="47.54132" lon="6.75881">
        <ele>439</ele>
        <time>2016-07-17T10:01:25.000Z</time>
      </trkpt>
      <trkpt lat="47.54133" lon="6.7589">
        <ele>439</ele>
        <time>2016-07-17T10:01:26.000Z</time>
      </trkpt>
      <trkpt lat="47.54133" lon="6.75899">
        <ele>439</ele>
        <time>2016-07-17T10:01:27.000Z</time>
      </trkpt>
      <trkpt lat="47.54133" lon="6.75904">
        <ele>439</ele>
        <time>2016-07-17T10:01:28.000Z</time>
      </trkpt>
      <trkpt lat="47.54132" lon="6.75911">
        <ele>438</ele>
        <time>2016-07-17T10:01:29.000Z</time>
      </trkpt>
      <trkpt lat="47.5413" lon="6.75916">
        <ele>438</ele>
        <time>2016-07-17T10:01:30.000Z</time>
      </trkpt>
      <trkpt lat="47.54129" lon="6.75923">
        <ele>437</ele>
        <time>2016-07-17T10:01:31.000Z</time>
      </trkpt>
      <trkpt lat="47.54127" lon="6.75931">
        <ele>437</ele>
        <time>2016-07-17T10:01:32.000Z</time>
      </trkpt>
      <trkpt lat="47.54126" lon="6.75936">
        <ele>437</ele>
        <time>2016-07-17T10:01:33.000Z</time>
      </trkpt>
      <trkpt lat="47.54124" lon="6.75942">
        <ele>437</ele>
        <time>2016-07-17T10:01:34.000Z</time>
      </trkpt>
      <trkpt lat="47.54123" lon="6.75948">
        <ele>437</ele>
        <time>2016-07-17T10:01:35.000Z</time>
      </trkpt>
      <trkpt lat="47.54122" lon="6.75954">
        <ele>437</ele>
        <time>2016-07-17T10:01:36.000Z</time>
      </trkpt>
      <trkpt lat="47.5412" lon="6.7596">
        <ele>437</ele>
        <time>2016-07-17T10:01:37.000Z</time>
      </trkpt>
      <trkpt lat="47.54118" lon="6.75965">
        <ele>437</ele>
        <time>2016-07-17T10:01:38.000Z</time>
      </trkpt>
      <trkpt lat="47.54116" lon="6.7597">
        <ele>437</ele>
        <time>2016-07-17T10:01:39.000Z</time>
      </trkpt>
      <trkpt lat="47.54114" lon="6.75976">
        <ele>437</ele>
        <time>2016-07-17T10:01:40.000Z</time>
      </trkpt>
      <trkpt lat="47.54111" lon="6.75982">
        <ele>437</ele>
        <time>2016-07-17T10:01:41.000Z</time>
      </trkpt>
      <trkpt lat="47.54109" lon="6.75988">
        <ele>437</ele>
        <time>2016-07-17T10:01:42.000Z</time>
      </trkpt>
      <trkpt lat="47.54106" lon="6.75994">
        <ele>437</ele>
        <time>2016-07-17T10:01:43.000Z</time>
      </trkpt>
      <trkpt lat="47.54097" lon="6.76016">
        <ele>437</ele>
        <time>2016-07-17T10:01:44.000Z</time>
      </trkpt>
      <trkpt lat="47.54096" lon="6.76026">
        <ele>436</ele>
        <time>2016-07-17T10:01:45.000Z</time>
      </trkpt>
      <trkpt lat="47.54097" lon="6.76031">
        <ele>436</ele>
        <time>2016-07-17T10:01:46.000Z</time>
      </trkpt>
      <trkpt lat="47.54098" lon="6.76036">
        <ele>436</ele>
        <time>2016-07-17T10:01:47.000Z</time>
      </trkpt>
      <trkpt lat="47.54096" lon="6.76039">
        <ele>436</ele>
        <time>2016-07-17T10:01:48.000Z</time>
      </trkpt>
      <trkpt lat="47.54095" lon="6.76043">
        <ele>436</ele>
        <time>2016-07-17T10:01:49.000Z</time>
      </trkpt>
      <trkpt lat="47.54092" lon="6.76048">
        <ele>436</ele>
        <time>2016-07-17T10:01:50.000Z</time>
      </trkpt>
      <trkpt lat="47.5409" lon="6.76051">
        <ele>436</ele>
        <time>2016-07-17T10:01:51.000Z</time>
      </trkpt>
      <trkpt lat="47.54088" lon="6.76057">
        <ele>437</ele>
        <time>2016-07-17T10:01:53.000Z</time>
      </trkpt>
      <trkpt lat="47.54087" lon="6.76059">
        <ele>437</ele>
        <time>2016-07-17T10:01:54.000Z</time>
      </trkpt>
      <trkpt lat="47.54084" lon="6.76062">
        <ele>437</ele>
        <time>2016-07-17T10:01:55.000Z</time>
      </trkpt>
      <trkpt lat="47.54081" lon="6.76064">
        <ele>437</ele>
        <time>2016-07-17T10:01:56.000Z</time>
      </trkpt>
      <trkpt lat="47.54078" lon="6.76066">
        <ele>437</ele>
        <time>2016-07-17T10:01:57.000Z</time>
      </trkpt>
      <trkpt lat="47.54075" lon="6.76069">
        <ele>437</ele>
        <time>2016-07-17T10:01:58.000Z</time>
      </trkpt>
      <trkpt lat="47.54072" lon="6.76071">
        <ele>437</ele>
        <time>2016-07-17T10:01:59.000Z</time>
      </trkpt>
      <trkpt lat="47.54068" lon="6.76073">
        <ele>437</ele>
        <time>2016-07-17T10:02:00.000Z</time>
      </trkpt>
      <trkpt lat="47.54065" lon="6.76076">
        <ele>437</ele>
        <time>2016-07-17T10:02:01.000Z</time>
      </trkpt>
      <trkpt lat="47.54062" lon="6.76079">
        <ele>436</ele>
        <time>2016-07-17T10:02:02.000Z</time>
      </trkpt>
      <trkpt lat="47.54059" lon="6.76082">
        <ele>436</ele>
        <time>2016-07-17T10:02:03.000Z</time>
      </trkpt>
      <trkpt lat="47.54056" lon="6.76086">
        <ele>436</ele>
        <time>2016-07-17T10:02:04.000Z</time>
      </trkpt>
      <trkpt lat="47.54053" lon="6.7609">
        <ele>436</ele>
        <time>2016-07-17T10:02:05.000Z</time>
      </trkpt>
      <trkpt lat="47.5405" lon="6.76095">
        <ele>436</ele>
        <time>2016-07-17T10:02:06.000Z</time>
      </trkpt>
      <trkpt lat="47.54047" lon="6.761">
        <ele>436</ele>
        <time>2016-07-17T10:02:07.000Z</time>
      </trkpt>
      <trkpt lat="47.54045" lon="6.76104">
        <ele>436</ele>
        <time>2016-07-17T10:02:08.000Z</time>
      </trkpt>
      <trkpt lat="47.54041" lon="6.76109">
        <ele>436</ele>
        <time>2016-07-17T10:02:09.000Z</time>
      </trkpt>
      <trkpt lat="47.54039" lon="6.76112">
        <ele>436</ele>
        <time>2016-07-17T10:02:10.000Z</time>
      </trkpt>
      <trkpt lat="47.54035" lon="6.76115">
        <ele>436</ele>
        <time>2016-07-17T10:02:11.000Z</time>
      </trkpt>
      <trkpt lat="47.54032" lon="6.76117">
        <ele>435</ele>
        <time>2016-07-17T10:02:12.000Z</time>
      </trkpt>
      <trkpt lat="47.54028" lon="6.76119">
        <ele>435</ele>
        <time>2016-07-17T10:02:13.000Z</time>
      </trkpt>
      <trkpt lat="47.54024" lon="6.76122">
        <ele>435</ele>
        <time>2016-07-17T10:02:14.000Z</time>
      </trkpt>
      <trkpt lat="47.5402" lon="6.76126">
        <ele>435</ele>
        <time>2016-07-17T10:02:15.000Z</time>
      </trkpt>
      <trkpt lat="47.54016" lon="6.76131">
        <ele>435</ele>
        <time>2016-07-17T10:02:16.000Z</time>
      </trkpt>
      <trkpt lat="47.54012" lon="6.76138">
        <ele>435</ele>
        <time>2016-07-17T10:02:17.000Z</time>
      </trkpt>
      <trkpt lat="47.54004" lon="6.76157">
        <ele>435</ele>
        <time>2016-07-17T10:02:18.000Z</time>
      </trkpt>
      <trkpt lat="47.54" lon="6.76164">
        <ele>434</ele>
        <time>2016-07-17T10:02:19.000Z</time>
      </trkpt>
      <trkpt lat="47.53996" lon="6.7617">
        <ele>433</ele>
        <time>2016-07-17T10:02:20.000Z</time>
      </trkpt>
      <trkpt lat="47.53992" lon="6.76177">
        <ele>432</ele>
        <time>2016-07-17T10:02:21.000Z</time>
      </trkpt>
      <trkpt lat="47.53988" lon="6.76181">
        <ele>432</ele>
        <time>2016-07-17T10:02:22.000Z</time>
      </trkpt>
      <trkpt lat="47.53984" lon="6.76186">
        <ele>432</ele>
        <time>2016-07-17T10:02:23.000Z</time>
      </trkpt>
      <trkpt lat="47.53981" lon="6.76189">
        <ele>431</ele>
        <time>2016-07-17T10:02:24.000Z</time>
      </trkpt>
      <trkpt lat="47.53978" lon="6.76193">
        <ele>431</ele>
        <time>2016-07-17T10:02:25.000Z</time>
      </trkpt>
      <trkpt lat="47.53976" lon="6.76199">
        <ele>431</ele>
        <time>2016-07-17T10:02:26.000Z</time>
      </trkpt>
      <trkpt lat="47.53973" lon="6.76204">
        <ele>431</ele>
        <time>2016-07-17T10:02:27.000Z</time>
      </trkpt>
      <trkpt lat="47.53971" lon="6.76211">
        <ele>431</ele>
        <time>2016-07-17T10:02:28.000Z</time>
      </trkpt>
      <trkpt lat="47.53969" lon="6.76217">
        <ele>431</ele>
        <time>2016-07-17T10:02:29.000Z</time>
      </trkpt>
      <trkpt lat="47.53965" lon="6.76231">
        <ele>431</ele>
        <time>2016-07-17T10:02:30.000Z</time>
      </trkpt>
      <trkpt lat="47.53962" lon="6.7624">
        <ele>431</ele>
        <time>2016-07-17T10:02:31.000Z</time>
      </trkpt>
      <trkpt lat="47.53958" lon="6.76251">
        <ele>432</ele>
        <time>2016-07-17T10:02:32.000Z</time>
      </trkpt>
      <trkpt lat="47.53958" lon="6.76254">
        <ele>432</ele>
        <time>2016-07-17T10:02:33.000Z</time>
      </trkpt>
      <trkpt lat="47.53957" lon="6.7626">
        <ele>432</ele>
        <time>2016-07-17T10:02:34.000Z</time>
      </trkpt>
      <trkpt lat="47.53955" lon="6.76264">
        <ele>432</ele>
        <time>2016-07-17T10:02:35.000Z</time>
      </trkpt>
      <trkpt lat="47.53954" lon="6.76266">
        <ele>432</ele>
        <time>2016-07-17T10:02:36.000Z</time>
      </trkpt>
      <trkpt lat="47.5395" lon="6.76267">
        <ele>432</ele>
        <time>2016-07-17T10:02:38.000Z</time>
      </trkpt>
      <trkpt lat="47.53946" lon="6.76266">
        <ele>432</ele>
        <time>2016-07-17T10:02:39.000Z</time>
      </trkpt>
      <trkpt lat="47.53942" lon="6.76264">
        <ele>432</ele>
        <time>2016-07-17T10:02:40.000Z</time>
      </trkpt>
      <trkpt lat="47.53938" lon="6.76263">
        <ele>431</ele>
        <time>2016-07-17T10:02:41.000Z</time>
      </trkpt>
      <trkpt lat="47.53935" lon="6.76262">
        <ele>431</ele>
        <time>2016-07-17T10:02:42.000Z</time>
      </trkpt>
      <trkpt lat="47.53932" lon="6.76261">
        <ele>431</ele>
        <time>2016-07-17T10:02:43.000Z</time>
      </trkpt>
      <trkpt lat="47.53928" lon="6.76259">
        <ele>430</ele>
        <time>2016-07-17T10:02:44.000Z</time>
      </trkpt>
      <trkpt lat="47.53923" lon="6.76258">
        <ele>430</ele>
        <time>2016-07-17T10:02:45.000Z</time>
      </trkpt>
      <trkpt lat="47.53918" lon="6.76256">
        <ele>429</ele>
        <time>2016-07-17T10:02:46.000Z</time>
      </trkpt>
      <trkpt lat="47.53913" lon="6.76255">
        <ele>428</ele>
        <time>2016-07-17T10:02:47.000Z</time>
      </trkpt>
      <trkpt lat="47.53908" lon="6.76253">
        <ele>428</ele>
        <time>2016-07-17T10:02:48.000Z</time>
      </trkpt>
      <trkpt lat="47.53897" lon="6.76249">
        <ele>425</ele>
        <time>2016-07-17T10:02:49.000Z</time>
      </trkpt>
      <trkpt lat="47.53891" lon="6.76245">
        <ele>425</ele>
        <time>2016-07-17T10:02:50.000Z</time>
      </trkpt>
      <trkpt lat="47.53883" lon="6.76239">
        <ele>424</ele>
        <time>2016-07-17T10:02:51.000Z</time>
      </trkpt>
      <trkpt lat="47.53875" lon="6.76235">
        <ele>423</ele>
        <time>2016-07-17T10:02:52.000Z</time>
      </trkpt>
      <trkpt lat="47.53868" lon="6.7623">
        <ele>423</ele>
        <time>2016-07-17T10:02:53.000Z</time>
      </trkpt>
      <trkpt lat="47.5386" lon="6.76226">
        <ele>422</ele>
        <time>2016-07-17T10:02:54.000Z</time>
      </trkpt>
      <trkpt lat="47.53852" lon="6.76223">
        <ele>422</ele>
        <time>2016-07-17T10:02:55.000Z</time>
      </trkpt>
      <trkpt lat="47.53843" lon="6.76221">
        <ele>422</ele>
        <time>2016-07-17T10:02:56.000Z</time>
      </trkpt>
      <trkpt lat="47.53836" lon="6.76217">
        <ele>422</ele>
        <time>2016-07-17T10:02:57.000Z</time>
      </trkpt>
      <trkpt lat="47.53829" lon="6.76215">
        <ele>419</ele>
        <time>2016-07-17T10:02:58.000Z</time>
      </trkpt>
      <trkpt lat="47.53823" lon="6.76213">
        <ele>419</ele>
        <time>2016-07-17T10:02:59.000Z</time>
      </trkpt>
      <trkpt lat="47.53818" lon="6.76211">
        <ele>419</ele>
        <time>2016-07-17T10:03:00.000Z</time>
      </trkpt>
      <trkpt lat="47.53814" lon="6.76211">
        <ele>419</ele>
        <time>2016-07-17T10:03:01.000Z</time>
      </trkpt>
      <trkpt lat="47.53808" lon="6.76209">
        <ele>419</ele>
        <time>2016-07-17T10:03:02.000Z</time>
      </trkpt>
      <trkpt lat="47.53801" lon="6.76208">
        <ele>419</ele>
        <time>2016-07-17T10:03:03.000Z</time>
      </trkpt>
      <trkpt lat="47.53795" lon="6.76205">
        <ele>419</ele>
        <time>2016-07-17T10:03:04.000Z</time>
      </trkpt>
      <trkpt lat="47.53788" lon="6.76204">
        <ele>419</ele>
        <time>2016-07-17T10:03:05.000Z</time>
      </trkpt>
      <trkpt lat="47.53782" lon="6.76202">
        <ele>419</ele>
        <time>2016-07-17T10:03:06.000Z</time>
      </trkpt>
      <trkpt lat="47.53775" lon="6.76199">
        <ele>419</ele>
        <time>2016-07-17T10:03:07.000Z</time>
      </trkpt>
      <trkpt lat="47.5377" lon="6.76197">
        <ele>419</ele>
        <time>2016-07-17T10:03:08.000Z</time>
      </trkpt>
      <trkpt lat="47.53766" lon="6.76196">
        <ele>418</ele>
        <time>2016-07-17T10:03:09.000Z</time>
      </trkpt>
      <trkpt lat="47.53762" lon="6.76195">
        <ele>418</ele>
        <time>2016-07-17T10:03:10.000Z</time>
      </trkpt>
      <trkpt lat="47.53759" lon="6.76193">
        <ele>418</ele>
        <time>2016-07-17T10:03:11.000Z</time>
      </trkpt>
      <trkpt lat="47.53755" lon="6.76192">
        <ele>418</ele>
        <time>2016-07-17T10:03:12.000Z</time>
      </trkpt>
      <trkpt lat="47.5375" lon="6.76191">
        <ele>418</ele>
        <time>2016-07-17T10:03:13.000Z</time>
      </trkpt>
      <trkpt lat="47.53745" lon="6.7619">
        <ele>418</ele>
        <time>2016-07-17T10:03:14.000Z</time>
      </trkpt>
      <trkpt lat="47.5374" lon="6.76189">
        <ele>418</ele>
        <time>2016-07-17T10:03:15.000Z</time>
      </trkpt>
      <trkpt lat="47.53735" lon="6.76187">
        <ele>418</ele>
        <time>2016-07-17T10:03:16.000Z</time>
      </trkpt>
      <trkpt lat="47.53729" lon="6.76185">
        <ele>418</ele>
        <time>2016-07-17T10:03:17.000Z</time>
      </trkpt>
      <trkpt lat="47.53724" lon="6.76183">
        <ele>418</ele>
        <time>2016-07-17T10:03:18.000Z</time>
      </trkpt>
      <trkpt lat="47.53719" lon="6.76181">
        <ele>418</ele>
        <time>2016-07-17T10:03:19.000Z</time>
      </trkpt>
      <trkpt lat="47.53715" lon="6.76178">
        <ele>418</ele>
        <time>2016-07-17T10:03:20.000Z</time>
      </trkpt>
      <trkpt lat="47.53711" lon="6.76175">
        <ele>418</ele>
        <time>2016-07-17T10:03:21.000Z</time>
      </trkpt>
      <trkpt lat="47.53707" lon="6.76172">
        <ele>418</ele>
        <time>2016-07-17T10:03:22.000Z</time>
      </trkpt>
      <trkpt lat="47.53702" lon="6.76169">
        <ele>418</ele>
        <time>2016-07-17T10:03:23.000Z</time>
      </trkpt>
      <trkpt lat="47.53697" lon="6.76166">
        <ele>414</ele>
        <time>2016-07-17T10:03:24.000Z</time>
      </trkpt>
      <trkpt lat="47.53693" lon="6.76163">
        <ele>414</ele>
        <time>2016-07-17T10:03:25.000Z</time>
      </trkpt>
      <trkpt lat="47.53687" lon="6.7616">
        <ele>414</ele>
        <time>2016-07-17T10:03:26.000Z</time>
      </trkpt>
      <trkpt lat="47.53682" lon="6.76157">
        <ele>414</ele>
        <time>2016-07-17T10:03:27.000Z</time>
      </trkpt>
      <trkpt lat="47.53676" lon="6.76154">
        <ele>414</ele>
        <time>2016-07-17T10:03:28.000Z</time>
      </trkpt>
      <trkpt lat="47.53671" lon="6.76151">
        <ele>414</ele>
        <time>2016-07-17T10:03:29.000Z</time>
      </trkpt>
      <trkpt lat="47.53665" lon="6.76148">
        <ele>413</ele>
        <time>2016-07-17T10:03:30.000Z</time>
      </trkpt>
      <trkpt lat="47.53649" lon="6.76144">
        <ele>412</ele>
        <time>2016-07-17T10:03:31.000Z</time>
      </trkpt>
      <trkpt lat="47.53643" lon="6.76141">
        <ele>412</ele>
        <time>2016-07-17T10:03:32.000Z</time>
      </trkpt>
      <trkpt lat="47.53637" lon="6.76138">
        <ele>411</ele>
        <time>2016-07-17T10:03:33.000Z</time>
      </trkpt>
      <trkpt lat="47.5363" lon="6.76134">
        <ele>411</ele>
        <time>2016-07-17T10:03:34.000Z</time>
      </trkpt>
      <trkpt lat="47.5362" lon="6.76129">
        <ele>411</ele>
        <time>2016-07-17T10:03:35.000Z</time>
      </trkpt>
      <trkpt lat="47.5361" lon="6.76125">
        <ele>410</ele>
        <time>2016-07-17T10:03:36.000Z</time>
      </trkpt>
      <trkpt lat="47.53602" lon="6.76121">
        <ele>410</ele>
        <time>2016-07-17T10:03:37.000Z</time>
      </trkpt>
      <trkpt lat="47.53595" lon="6.76118">
        <ele>410</ele>
        <time>2016-07-17T10:03:38.000Z</time>
      </trkpt>
      <trkpt lat="47.53589" lon="6.76116">
        <ele>410</ele>
        <time>2016-07-17T10:03:39.000Z</time>
      </trkpt>
      <trkpt lat="47.53585" lon="6.76115">
        <ele>410</ele>
        <time>2016-07-17T10:03:40.000Z</time>
      </trkpt>
      <trkpt lat="47.53579" lon="6.76114">
        <ele>408</ele>
        <time>2016-07-17T10:03:41.000Z</time>
      </trkpt>
      <trkpt lat="47.53573" lon="6.76114">
        <ele>408</ele>
        <time>2016-07-17T10:03:42.000Z</time>
      </trkpt>
      <trkpt lat="47.53566" lon="6.76115">
        <ele>407</ele>
        <time>2016-07-17T10:03:43.000Z</time>
      </trkpt>
      <trkpt lat="47.53562" lon="6.76114">
        <ele>407</ele>
        <time>2016-07-17T10:03:44.000Z</time>
      </trkpt>
      <trkpt lat="47.53559" lon="6.76115">
        <ele>407</ele>
        <time>2016-07-17T10:03:45.000Z</time>
      </trkpt>
      <trkpt lat="47.53556" lon="6.76117">
        <ele>407</ele>
        <time>2016-07-17T10:03:46.000Z</time>
      </trkpt>
      <trkpt lat="47.53554" lon="6.76121">
        <ele>407</ele>
        <time>2016-07-17T10:03:47.000Z</time>
      </trkpt>
      <trkpt lat="47.53551" lon="6.76124">
        <ele>407</ele>
        <time>2016-07-17T10:03:48.000Z</time>
      </trkpt>
      <trkpt lat="47.53552" lon="6.76131">
        <ele>407</ele>
        <time>2016-07-17T10:03:49.000Z</time>
      </trkpt>
      <trkpt lat="47.53548" lon="6.76134">
        <ele>407</ele>
        <time>2016-07-17T10:03:50.000Z</time>
      </trkpt>
      <trkpt lat="47.53546" lon="6.76137">
        <ele>407</ele>
        <time>2016-07-17T10:03:51.000Z</time>
      </trkpt>
      <trkpt lat="47.53544" lon="6.7614">
        <ele>407</ele>
        <time>2016-07-17T10:03:52.000Z</time>
      </trkpt>
      <trkpt lat="47.53542" lon="6.76144">
        <ele>407</ele>
        <time>2016-07-17T10:03:53.000Z</time>
      </trkpt>
      <trkpt lat="47.5354" lon="6.76148">
        <ele>407</ele>
        <time>2016-07-17T10:03:54.000Z</time>
      </trkpt>
      <trkpt lat="47.53538" lon="6.76153">
        <ele>407</ele>
        <time>2016-07-17T10:03:55.000Z</time>
      </trkpt>
      <trkpt lat="47.53536" lon="6.76158">
        <ele>407</ele>
        <time>2016-07-17T10:03:56.000Z</time>
      </trkpt>
      <trkpt lat="47.53534" lon="6.76164">
        <ele>407</ele>
        <time>2016-07-17T10:03:57.000Z</time>
      </trkpt>
      <trkpt lat="47.53533" lon="6.7617">
        <ele>409</ele>
        <time>2016-07-17T10:03:58.000Z</time>
      </trkpt>
      <trkpt lat="47.53531" lon="6.76175">
        <ele>409</ele>
        <time>2016-07-17T10:03:59.000Z</time>
      </trkpt>
      <trkpt lat="47.5353" lon="6.7618">
        <ele>409</ele>
        <time>2016-07-17T10:04:00.000Z</time>
      </trkpt>
      <trkpt lat="47.53528" lon="6.76185">
        <ele>409</ele>
        <time>2016-07-17T10:04:01.000Z</time>
      </trkpt>
      <trkpt lat="47.53527" lon="6.7619">
        <ele>409</ele>
        <time>2016-07-17T10:04:02.000Z</time>
      </trkpt>
      <trkpt lat="47.53526" lon="6.76196">
        <ele>409</ele>
        <time>2016-07-17T10:04:03.000Z</time>
      </trkpt>
      <trkpt lat="47.53525" lon="6.76201">
        <ele>409</ele>
        <time>2016-07-17T10:04:04.000Z</time>
      </trkpt>
      <trkpt lat="47.53524" lon="6.76206">
        <ele>409</ele>
        <time>2016-07-17T10:04:05.000Z</time>
      </trkpt>
      <trkpt lat="47.53523" lon="6.76212">
        <ele>409</ele>
        <time>2016-07-17T10:04:06.000Z</time>
      </trkpt>
      <trkpt lat="47.53522" lon="6.76218">
        <ele>409</ele>
        <time>2016-07-17T10:04:07.000Z</time>
      </trkpt>
      <trkpt lat="47.53521" lon="6.76223">
        <ele>409</ele>
        <time>2016-07-17T10:04:08.000Z</time>
      </trkpt>
      <trkpt lat="47.5352" lon="6.76229">
        <ele>409</ele>
        <time>2016-07-17T10:04:09.000Z</time>
      </trkpt>
      <trkpt lat="47.5352" lon="6.76234">
        <ele>409</ele>
        <time>2016-07-17T10:04:10.000Z</time>
      </trkpt>
      <trkpt lat="47.53519" lon="6.76239">
        <ele>409</ele>
        <time>2016-07-17T10:04:11.000Z</time>
      </trkpt>
      <trkpt lat="47.53518" lon="6.76245">
        <ele>409</ele>
        <time>2016-07-17T10:04:12.000Z</time>
      </trkpt>
      <trkpt lat="47.53518" lon="6.76251">
        <ele>411</ele>
        <time>2016-07-17T10:04:13.000Z</time>
      </trkpt>
      <trkpt lat="47.53517" lon="6.76257">
        <ele>411</ele>
        <time>2016-07-17T10:04:14.000Z</time>
      </trkpt>
      <trkpt lat="47.53517" lon="6.76264">
        <ele>411</ele>
        <time>2016-07-17T10:04:15.000Z</time>
      </trkpt>
      <trkpt lat="47.53517" lon="6.7627">
        <ele>412</ele>
        <time>2016-07-17T10:04:16.000Z</time>
      </trkpt>
      <trkpt lat="47.53516" lon="6.76277">
        <ele>412</ele>
        <time>2016-07-17T10:04:17.000Z</time>
      </trkpt>
      <trkpt lat="47.53515" lon="6.76282">
        <ele>412</ele>
        <time>2016-07-17T10:04:18.000Z</time>
      </trkpt>
      <trkpt lat="47.53514" lon="6.76287">
        <ele>412</ele>
        <time>2016-07-17T10:04:19.000Z</time>
      </trkpt>
      <trkpt lat="47.53512" lon="6.76293">
        <ele>412</ele>
        <time>2016-07-17T10:04:20.000Z</time>
      </trkpt>
      <trkpt lat="47.53511" lon="6.76298">
        <ele>412</ele>
        <time>2016-07-17T10:04:21.000Z</time>
      </trkpt>
      <trkpt lat="47.5351" lon="6.76303">
        <ele>412</ele>
        <time>2016-07-17T10:04:22.000Z</time>
      </trkpt>
      <trkpt lat="47.53509" lon="6.76308">
        <ele>412</ele>
        <time>2016-07-17T10:04:23.000Z</time>
      </trkpt>
      <trkpt lat="47.53508" lon="6.76313">
        <ele>412</ele>
        <time>2016-07-17T10:04:24.000Z</time>
      </trkpt>
      <trkpt lat="47.53507" lon="6.76318">
        <ele>412</ele>
        <time>2016-07-17T10:04:25.000Z</time>
      </trkpt>
      <trkpt lat="47.53506" lon="6.76323">
        <ele>412</ele>
        <time>2016-07-17T10:04:26.000Z</time>
      </trkpt>
      <trkpt lat="47.53505" lon="6.76328">
        <ele>412</ele>
        <time>2016-07-17T10:04:27.000Z</time>
      </trkpt>
      <trkpt lat="47.53505" lon="6.76333">
        <ele>412</ele>
        <time>2016-07-17T10:04:28.000Z</time>
      </trkpt>
      <trkpt lat="47.53504" lon="6.76339">
        <ele>413</ele>
        <time>2016-07-17T10:04:29.000Z</time>
      </trkpt>
      <trkpt lat="47.53503" lon="6.76345">
        <ele>413</ele>
        <time>2016-07-17T10:04:30.000Z</time>
      </trkpt>
      <trkpt lat="47.53502" lon="6.76351">
        <ele>414</ele>
        <time>2016-07-17T10:04:31.000Z</time>
      </trkpt>
      <trkpt lat="47.535" lon="6.76358">
        <ele>414</ele>
        <time>2016-07-17T10:04:32.000Z</time>
      </trkpt>
      <trkpt lat="47.53499" lon="6.76365">
        <ele>409</ele>
        <time>2016-07-17T10:04:33.000Z</time>
      </trkpt>
      <trkpt lat="47.53497" lon="6.76372">
        <ele>409</ele>
        <time>2016-07-17T10:04:34.000Z</time>
      </trkpt>
      <trkpt lat="47.53495" lon="6.76379">
        <ele>409</ele>
        <time>2016-07-17T10:04:35.000Z</time>
      </trkpt>
      <trkpt lat="47.53493" lon="6.76385">
        <ele>409</ele>
        <time>2016-07-17T10:04:36.000Z</time>
      </trkpt>
      <trkpt lat="47.53491" lon="6.76391">
        <ele>410</ele>
        <time>2016-07-17T10:04:37.000Z</time>
      </trkpt>
      <trkpt lat="47.5349" lon="6.76397">
        <ele>410</ele>
        <time>2016-07-17T10:04:38.000Z</time>
      </trkpt>
      <trkpt lat="47.53489" lon="6.76403">
        <ele>410</ele>
        <time>2016-07-17T10:04:39.000Z</time>
      </trkpt>
      <trkpt lat="47.53488" lon="6.7641">
        <ele>411</ele>
        <time>2016-07-17T10:04:40.000Z</time>
      </trkpt>
      <trkpt lat="47.53487" lon="6.76417">
        <ele>411</ele>
        <time>2016-07-17T10:04:41.000Z</time>
      </trkpt>
      <trkpt lat="47.53485" lon="6.76424">
        <ele>410</ele>
        <time>2016-07-17T10:04:42.000Z</time>
      </trkpt>
      <trkpt lat="47.53484" lon="6.76431">
        <ele>409</ele>
        <time>2016-07-17T10:04:43.000Z</time>
      </trkpt>
      <trkpt lat="47.53481" lon="6.7645">
        <ele>408</ele>
        <time>2016-07-17T10:04:44.000Z</time>
      </trkpt>
      <trkpt lat="47.53478" lon="6.7646">
        <ele>407</ele>
        <time>2016-07-17T10:04:45.000Z</time>
      </trkpt>
      <trkpt lat="47.53477" lon="6.76464">
        <ele>407</ele>
        <time>2016-07-17T10:04:46.000Z</time>
      </trkpt>
      <trkpt lat="47.53475" lon="6.7647">
        <ele>407</ele>
        <time>2016-07-17T10:04:47.000Z</time>
      </trkpt>
      <trkpt lat="47.53473" lon="6.76479">
        <ele>406</ele>
        <time>2016-07-17T10:04:48.000Z</time>
      </trkpt>
      <trkpt lat="47.53472" lon="6.76487">
        <ele>406</ele>
        <time>2016-07-17T10:04:49.000Z</time>
      </trkpt>
      <trkpt lat="47.53472" lon="6.76493">
        <ele>406</ele>
        <time>2016-07-17T10:04:50.000Z</time>
      </trkpt>
      <trkpt lat="47.5347" lon="6.76497">
        <ele>406</ele>
        <time>2016-07-17T10:04:51.000Z</time>
      </trkpt>
      <trkpt lat="47.53469" lon="6.76502">
        <ele>404</ele>
        <time>2016-07-17T10:04:52.000Z</time>
      </trkpt>
      <trkpt lat="47.53467" lon="6.76508">
        <ele>403</ele>
        <time>2016-07-17T10:04:53.000Z</time>
      </trkpt>
      <trkpt lat="47.53466" lon="6.76513">
        <ele>403</ele>
        <time>2016-07-17T10:04:54.000Z</time>
      </trkpt>
      <trkpt lat="47.53465" lon="6.7652">
        <ele>403</ele>
        <time>2016-07-17T10:04:55.000Z</time>
      </trkpt>
      <trkpt lat="47.53464" lon="6.76527">
        <ele>403</ele>
        <time>2016-07-17T10:04:56.000Z</time>
      </trkpt>
      <trkpt lat="47.53463" lon="6.76535">
        <ele>402</ele>
        <time>2016-07-17T10:04:57.000Z</time>
      </trkpt>
      <trkpt lat="47.53462" lon="6.76542">
        <ele>402</ele>
        <time>2016-07-17T10:04:58.000Z</time>
      </trkpt>
      <trkpt lat="47.53461" lon="6.76549">
        <ele>402</ele>
        <time>2016-07-17T10:04:59.000Z</time>
      </trkpt>
      <trkpt lat="47.53458" lon="6.76564">
        <ele>402</ele>
        <time>2016-07-17T10:05:00.000Z</time>
      </trkpt>
      <trkpt lat="47.53456" lon="6.76574">
        <ele>401</ele>
        <time>2016-07-17T10:05:01.000Z</time>
      </trkpt>
      <trkpt lat="47.53453" lon="6.76581">
        <ele>401</ele>
        <time>2016-07-17T10:05:02.000Z</time>
      </trkpt>
      <trkpt lat="47.53448" lon="6.76587">
        <ele>399</ele>
        <time>2016-07-17T10:05:03.000Z</time>
      </trkpt>
      <trkpt lat="47.53443" lon="6.76594">
        <ele>398</ele>
        <time>2016-07-17T10:05:04.000Z</time>
      </trkpt>
      <trkpt lat="47.53439" lon="6.76602">
        <ele>398</ele>
        <time>2016-07-17T10:05:05.000Z</time>
      </trkpt>
      <trkpt lat="47.53429" lon="6.76614">
        <ele>398</ele>
        <time>2016-07-17T10:05:06.000Z</time>
      </trkpt>
      <trkpt lat="47.53423" lon="6.76624">
        <ele>397</ele>
        <time>2016-07-17T10:05:07.000Z</time>
      </trkpt>
      <trkpt lat="47.53417" lon="6.76634">
        <ele>397</ele>
        <time>2016-07-17T10:05:08.000Z</time>
      </trkpt>
      <trkpt lat="47.53412" lon="6.76643">
        <ele>392</ele>
        <time>2016-07-17T10:05:09.000Z</time>
      </trkpt>
      <trkpt lat="47.53408" lon="6.76652">
        <ele>392</ele>
        <time>2016-07-17T10:05:10.000Z</time>
      </trkpt>
      <trkpt lat="47.53408" lon="6.76666">
        <ele>392</ele>
        <time>2016-07-17T10:05:11.000Z</time>
      </trkpt>
      <trkpt lat="47.53406" lon="6.76677">
        <ele>390</ele>
        <time>2016-07-17T10:05:12.000Z</time>
      </trkpt>
      <trkpt lat="47.53404" lon="6.76688">
        <ele>389</ele>
        <time>2016-07-17T10:05:13.000Z</time>
      </trkpt>
      <trkpt lat="47.53404" lon="6.76699">
        <ele>388</ele>
        <time>2016-07-17T10:05:14.000Z</time>
      </trkpt>
      <trkpt lat="47.53405" lon="6.76708">
        <ele>387</ele>
        <time>2016-07-17T10:05:15.000Z</time>
      </trkpt>
      <trkpt lat="47.53405" lon="6.76718">
        <ele>387</ele>
        <time>2016-07-17T10:05:16.000Z</time>
      </trkpt>
      <trkpt lat="47.53405" lon="6.76727">
        <ele>387</ele>
        <time>2016-07-17T10:05:17.000Z</time>
      </trkpt>
      <trkpt lat="47.53404" lon="6.76732">
        <ele>386</ele>
        <time>2016-07-17T10:05:18.000Z</time>
      </trkpt>
      <trkpt lat="47.53405" lon="6.76739">
        <ele>386</ele>
        <time>2016-07-17T10:05:19.000Z</time>
      </trkpt>
      <trkpt lat="47.53403" lon="6.76744">
        <ele>386</ele>
        <time>2016-07-17T10:05:20.000Z</time>
      </trkpt>
      <trkpt lat="47.53398" lon="6.76747">
        <ele>386</ele>
        <time>2016-07-17T10:05:21.000Z</time>
      </trkpt>
      <trkpt lat="47.53394" lon="6.7675">
        <ele>386</ele>
        <time>2016-07-17T10:05:22.000Z</time>
      </trkpt>
      <trkpt lat="47.53384" lon="6.76751">
        <ele>384</ele>
        <time>2016-07-17T10:05:23.000Z</time>
      </trkpt>
      <trkpt lat="47.53379" lon="6.76756">
        <ele>384</ele>
        <time>2016-07-17T10:05:24.000Z</time>
      </trkpt>
      <trkpt lat="47.53374" lon="6.7676">
        <ele>383</ele>
        <time>2016-07-17T10:05:25.000Z</time>
      </trkpt>
      <trkpt lat="47.53374" lon="6.7677">
        <ele>383</ele>
        <time>2016-07-17T10:05:26.000Z</time>
      </trkpt>
      <trkpt lat="47.53372" lon="6.76779">
        <ele>383</ele>
        <time>2016-07-17T10:05:27.000Z</time>
      </trkpt>
      <trkpt lat="47.53371" lon="6.76791">
        <ele>383</ele>
        <time>2016-07-17T10:05:28.000Z</time>
      </trkpt>
      <trkpt lat="47.53368" lon="6.76797">
        <ele>383</ele>
        <time>2016-07-17T10:05:29.000Z</time>
      </trkpt>
      <trkpt lat="47.53366" lon="6.76802">
        <ele>383</ele>
        <time>2016-07-17T10:05:30.000Z</time>
      </trkpt>
      <trkpt lat="47.53364" lon="6.76807">
        <ele>383</ele>
        <time>2016-07-17T10:05:31.000Z</time>
      </trkpt>
      <trkpt lat="47.53362" lon="6.7681">
        <ele>383</ele>
        <time>2016-07-17T10:05:32.000Z</time>
      </trkpt>
      <trkpt lat="47.53361" lon="6.76817">
        <ele>383</ele>
        <time>2016-07-17T10:05:33.000Z</time>
      </trkpt>
      <trkpt lat="47.53358" lon="6.76822">
        <ele>383</ele>
        <time>2016-07-17T10:05:34.000Z</time>
      </trkpt>
      <trkpt lat="47.53353" lon="6.76829">
        <ele>382</ele>
        <time>2016-07-17T10:05:35.000Z</time>
      </trkpt>
      <trkpt lat="47.53349" lon="6.76833">
        <ele>382</ele>
        <time>2016-07-17T10:05:36.000Z</time>
      </trkpt>
      <trkpt lat="47.53346" lon="6.76837">
        <ele>381</ele>
        <time>2016-07-17T10:05:37.000Z</time>
      </trkpt>
      <trkpt lat="47.53343" lon="6.76841">
        <ele>381</ele>
        <time>2016-07-17T10:05:38.000Z</time>
      </trkpt>
      <trkpt lat="47.5334" lon="6.76845">
        <ele>381</ele>
        <time>2016-07-17T10:05:39.000Z</time>
      </trkpt>
      <trkpt lat="47.53337" lon="6.76849">
        <ele>381</ele>
        <time>2016-07-17T10:05:40.000Z</time>
      </trkpt>
      <trkpt lat="47.53335" lon="6.76854">
        <ele>381</ele>
        <time>2016-07-17T10:05:41.000Z</time>
      </trkpt>
      <trkpt lat="47.53332" lon="6.76858">
        <ele>381</ele>
        <time>2016-07-17T10:05:42.000Z</time>
      </trkpt>
      <trkpt lat="47.5333" lon="6.76862">
        <ele>381</ele>
        <time>2016-07-17T10:05:43.000Z</time>
      </trkpt>
      <trkpt lat="47.53328" lon="6.76865">
        <ele>381</ele>
        <time>2016-07-17T10:05:44.000Z</time>
      </trkpt>
      <trkpt lat="47.53325" lon="6.7687">
        <ele>381</ele>
        <time>2016-07-17T10:05:46.000Z</time>
      </trkpt>
      <trkpt lat="47.53323" lon="6.76872">
        <ele>382</ele>
        <time>2016-07-17T10:05:47.000Z</time>
      </trkpt>
      <trkpt lat="47.53321" lon="6.76875">
        <ele>382</ele>
        <time>2016-07-17T10:05:48.000Z</time>
      </trkpt>
      <trkpt lat="47.53319" lon="6.76877">
        <ele>382</ele>
        <time>2016-07-17T10:05:49.000Z</time>
      </trkpt>
      <trkpt lat="47.53317" lon="6.7688">
        <ele>382</ele>
        <time>2016-07-17T10:05:50.000Z</time>
      </trkpt>
      <trkpt lat="47.53314" lon="6.76882">
        <ele>382</ele>
        <time>2016-07-17T10:05:51.000Z</time>
      </trkpt>
      <trkpt lat="47.53312" lon="6.76885">
        <ele>382</ele>
        <time>2016-07-17T10:05:52.000Z</time>
      </trkpt>
      <trkpt lat="47.5331" lon="6.76887">
        <ele>382</ele>
        <time>2016-07-17T10:05:53.000Z</time>
      </trkpt>
      <trkpt lat="47.53308" lon="6.76889">
        <ele>382</ele>
        <time>2016-07-17T10:05:54.000Z</time>
      </trkpt>
      <trkpt lat="47.53306" lon="6.76891">
        <ele>382</ele>
        <time>2016-07-17T10:05:55.000Z</time>
      </trkpt>
      <trkpt lat="47.53304" lon="6.76893">
        <ele>382</ele>
        <time>2016-07-17T10:05:56.000Z</time>
      </trkpt>
      <trkpt lat="47.53301" lon="6.76896">
        <ele>382</ele>
        <time>2016-07-17T10:05:57.000Z</time>
      </trkpt>
      <trkpt lat="47.53298" lon="6.76899">
        <ele>382</ele>
        <time>2016-07-17T10:05:58.000Z</time>
      </trkpt>
      <trkpt lat="47.53294" lon="6.76902">
        <ele>382</ele>
        <time>2016-07-17T10:05:59.000Z</time>
      </trkpt>
      <trkpt lat="47.53291" lon="6.76905">
        <ele>382</ele>
        <time>2016-07-17T10:06:00.000Z</time>
      </trkpt>
      <trkpt lat="47.53287" lon="6.76908">
        <ele>382</ele>
        <time>2016-07-17T10:06:01.000Z</time>
      </trkpt>
      <trkpt lat="47.53284" lon="6.7691">
        <ele>382</ele>
        <time>2016-07-17T10:06:02.000Z</time>
      </trkpt>
      <trkpt lat="47.53282" lon="6.76911">
        <ele>382</ele>
        <time>2016-07-17T10:06:03.000Z</time>
      </trkpt>
      <trkpt lat="47.53279" lon="6.76912">
        <ele>382</ele>
        <time>2016-07-17T10:06:04.000Z</time>
      </trkpt>
      <trkpt lat="47.53276" lon="6.76913">
        <ele>382</ele>
        <time>2016-07-17T10:06:05.000Z</time>
      </trkpt>
      <trkpt lat="47.53273" lon="6.76914">
        <ele>382</ele>
        <time>2016-07-17T10:06:06.000Z</time>
      </trkpt>
      <trkpt lat="47.5327" lon="6.76915">
        <ele>382</ele>
        <time>2016-07-17T10:06:07.000Z</time>
      </trkpt>
      <trkpt lat="47.53267" lon="6.76916">
        <ele>382</ele>
        <time>2016-07-17T10:06:08.000Z</time>
      </trkpt>
      <trkpt lat="47.53265" lon="6.76918">
        <ele>382</ele>
        <time>2016-07-17T10:06:09.000Z</time>
      </trkpt>
      <trkpt lat="47.53262" lon="6.76919">
        <ele>382</ele>
        <time>2016-07-17T10:06:10.000Z</time>
      </trkpt>
      <trkpt lat="47.53259" lon="6.7692">
        <ele>382</ele>
        <time>2016-07-17T10:06:11.000Z</time>
      </trkpt>
      <trkpt lat="47.53256" lon="6.76921">
        <ele>382</ele>
        <time>2016-07-17T10:06:12.000Z</time>
      </trkpt>
      <trkpt lat="47.53253" lon="6.76921">
        <ele>383</ele>
        <time>2016-07-17T10:06:13.000Z</time>
      </trkpt>
      <trkpt lat="47.53251" lon="6.76921">
        <ele>383</ele>
        <time>2016-07-17T10:06:14.000Z</time>
      </trkpt>
      <trkpt lat="47.53248" lon="6.76921">
        <ele>383</ele>
        <time>2016-07-17T10:06:15.000Z</time>
      </trkpt>
      <trkpt lat="47.53246" lon="6.76923">
        <ele>383</ele>
        <time>2016-07-17T10:06:16.000Z</time>
      </trkpt>
      <trkpt lat="47.53243" lon="6.76924">
        <ele>383</ele>
        <time>2016-07-17T10:06:17.000Z</time>
      </trkpt>
      <trkpt lat="47.5324" lon="6.76926">
        <ele>383</ele>
        <time>2016-07-17T10:06:18.000Z</time>
      </trkpt>
      <trkpt lat="47.53237" lon="6.76928">
        <ele>383</ele>
        <time>2016-07-17T10:06:19.000Z</time>
      </trkpt>
      <trkpt lat="47.53234" lon="6.76929">
        <ele>383</ele>
        <time>2016-07-17T10:06:20.000Z</time>
      </trkpt>
      <trkpt lat="47.53231" lon="6.76931">
        <ele>384</ele>
        <time>2016-07-17T10:06:21.000Z</time>
      </trkpt>
      <trkpt lat="47.53229" lon="6.76933">
        <ele>384</ele>
        <time>2016-07-17T10:06:22.000Z</time>
      </trkpt>
      <trkpt lat="47.53227" lon="6.76935">
        <ele>384</ele>
        <time>2016-07-17T10:06:23.000Z</time>
      </trkpt>
      <trkpt lat="47.53225" lon="6.76936">
        <ele>384</ele>
        <time>2016-07-17T10:06:24.000Z</time>
      </trkpt>
      <trkpt lat="47.53223" lon="6.76938">
        <ele>384</ele>
        <time>2016-07-17T10:06:25.000Z</time>
      </trkpt>
      <trkpt lat="47.53221" lon="6.7694">
        <ele>384</ele>
        <time>2016-07-17T10:06:26.000Z</time>
      </trkpt>
      <trkpt lat="47.53218" lon="6.76942">
        <ele>384</ele>
        <time>2016-07-17T10:06:27.000Z</time>
      </trkpt>
      <trkpt lat="47.53215" lon="6.76943">
        <ele>384</ele>
        <time>2016-07-17T10:06:28.000Z</time>
      </trkpt>
      <trkpt lat="47.53212" lon="6.76944">
        <ele>384</ele>
        <time>2016-07-17T10:06:29.000Z</time>
      </trkpt>
      <trkpt lat="47.53209" lon="6.76946">
        <ele>384</ele>
        <time>2016-07-17T10:06:30.000Z</time>
      </trkpt>
      <trkpt lat="47.53207" lon="6.76947">
        <ele>384</ele>
        <time>2016-07-17T10:06:31.000Z</time>
      </trkpt>
      <trkpt lat="47.53204" lon="6.76949">
        <ele>384</ele>
        <time>2016-07-17T10:06:32.000Z</time>
      </trkpt>
      <trkpt lat="47.53201" lon="6.7695">
        <ele>384</ele>
        <time>2016-07-17T10:06:33.000Z</time>
      </trkpt>
      <trkpt lat="47.53197" lon="6.76952">
        <ele>384</ele>
        <time>2016-07-17T10:06:34.000Z</time>
      </trkpt>
      <trkpt lat="47.53193" lon="6.76953">
        <ele>384</ele>
        <time>2016-07-17T10:06:35.000Z</time>
      </trkpt>
      <trkpt lat="47.53189" lon="6.76955">
        <ele>384</ele>
        <time>2016-07-17T10:06:36.000Z</time>
      </trkpt>
      <trkpt lat="47.53186" lon="6.76956">
        <ele>384</ele>
        <time>2016-07-17T10:06:37.000Z</time>
      </trkpt>
      <trkpt lat="47.53182" lon="6.76957">
        <ele>384</ele>
        <time>2016-07-17T10:06:38.000Z</time>
      </trkpt>
      <trkpt lat="47.53178" lon="6.76959">
        <ele>384</ele>
        <time>2016-07-17T10:06:39.000Z</time>
      </trkpt>
      <trkpt lat="47.53174" lon="6.76961">
        <ele>384</ele>
        <time>2016-07-17T10:06:40.000Z</time>
      </trkpt>
      <trkpt lat="47.5317" lon="6.76963">
        <ele>384</ele>
        <time>2016-07-17T10:06:41.000Z</time>
      </trkpt>
      <trkpt lat="47.53166" lon="6.76965">
        <ele>384</ele>
        <time>2016-07-17T10:06:42.000Z</time>
      </trkpt>
      <trkpt lat="47.53163" lon="6.76967">
        <ele>384</ele>
        <time>2016-07-17T10:06:43.000Z</time>
      </trkpt>
      <trkpt lat="47.5316" lon="6.76968">
        <ele>384</ele>
        <time>2016-07-17T10:06:44.000Z</time>
      </trkpt>
      <trkpt lat="47.53157" lon="6.76968">
        <ele>384</ele>
        <time>2016-07-17T10:06:45.000Z</time>
      </trkpt>
      <trkpt lat="47.53155" lon="6.76968">
        <ele>384</ele>
        <time>2016-07-17T10:06:46.000Z</time>
      </trkpt>
      <trkpt lat="47.53151" lon="6.76969">
        <ele>384</ele>
        <time>2016-07-17T10:06:47.000Z</time>
      </trkpt>
      <trkpt lat="47.53147" lon="6.76969">
        <ele>384</ele>
        <time>2016-07-17T10:06:48.000Z</time>
      </trkpt>
      <trkpt lat="47.53145" lon="6.76969">
        <ele>384</ele>
        <time>2016-07-17T10:06:49.044Z</time>
      </trkpt>
      <trkpt lat="47.53139" lon="6.76971">
        <ele>384</ele>
        <time>2016-07-17T10:06:50.000Z</time>
      </trkpt>
      <trkpt lat="47.53135" lon="6.76972">
        <ele>384</ele>
        <time>2016-07-17T10:06:51.000Z</time>
      </trkpt>
      <trkpt lat="47.53131" lon="6.76972">
        <ele>384</ele>
        <time>2016-07-17T10:06:52.000Z</time>
      </trkpt>
      <trkpt lat="47.53127" lon="6.76973">
        <ele>384</ele>
        <time>2016-07-17T10:06:53.000Z</time>
      </trkpt>
      <trkpt lat="47.53122" lon="6.76974">
        <ele>384</ele>
        <time>2016-07-17T10:06:54.000Z</time>
      </trkpt>
      <trkpt lat="47.53119" lon="6.76975">
        <ele>384</ele>
        <time>2016-07-17T10:06:55.000Z</time>
      </trkpt>
      <trkpt lat="47.53115" lon="6.76976">
        <ele>384</ele>
        <time>2016-07-17T10:06:56.000Z</time>
      </trkpt>
      <trkpt lat="47.53112" lon="6.76977">
        <ele>384</ele>
        <time>2016-07-17T10:06:57.000Z</time>
      </trkpt>
      <trkpt lat="47.53109" lon="6.76978">
        <ele>384</ele>
        <time>2016-07-17T10:06:58.000Z</time>
      </trkpt>
      <trkpt lat="47.53106" lon="6.76979">
        <ele>384</ele>
        <time>2016-07-17T10:06:59.000Z</time>
      </trkpt>
      <trkpt lat="47.53103" lon="6.7698">
        <ele>384</ele>
        <time>2016-07-17T10:07:00.000Z</time>
      </trkpt>
      <trkpt lat="47.531" lon="6.76981">
        <ele>384</ele>
        <time>2016-07-17T10:07:01.000Z</time>
      </trkpt>
      <trkpt lat="47.53097" lon="6.76981">
        <ele>384</ele>
        <time>2016-07-17T10:07:02.000Z</time>
      </trkpt>
      <trkpt lat="47.53094" lon="6.76981">
        <ele>384</ele>
        <time>2016-07-17T10:07:03.000Z</time>
      </trkpt>
      <trkpt lat="47.5309" lon="6.76981">
        <ele>384</ele>
        <time>2016-07-17T10:07:04.000Z</time>
      </trkpt>
      <trkpt lat="47.53086" lon="6.76981">
        <ele>384</ele>
        <time>2016-07-17T10:07:05.000Z</time>
      </trkpt>
      <trkpt lat="47.53081" lon="6.76982">
        <ele>384</ele>
        <time>2016-07-17T10:07:06.000Z</time>
      </trkpt>
      <trkpt lat="47.53077" lon="6.76982">
        <ele>384</ele>
        <time>2016-07-17T10:07:07.000Z</time>
      </trkpt>
      <trkpt lat="47.53072" lon="6.76983">
        <ele>384</ele>
        <time>2016-07-17T10:07:08.000Z</time>
      </trkpt>
      <trkpt lat="47.5306" lon="6.76986">
        <ele>384</ele>
        <time>2016-07-17T10:07:09.000Z</time>
      </trkpt>
      <trkpt lat="47.53055" lon="6.76988">
        <ele>384</ele>
        <time>2016-07-17T10:07:10.000Z</time>
      </trkpt>
      <trkpt lat="47.53049" lon="6.76988">
        <ele>384</ele>
        <time>2016-07-17T10:07:11.000Z</time>
      </trkpt>
      <trkpt lat="47.53043" lon="6.76989">
        <ele>384</ele>
        <time>2016-07-17T10:07:12.000Z</time>
      </trkpt>
      <trkpt lat="47.53037" lon="6.76991">
        <ele>384</ele>
        <time>2016-07-17T10:07:13.000Z</time>
      </trkpt>
      <trkpt lat="47.53032" lon="6.76993">
        <ele>384</ele>
        <time>2016-07-17T10:07:14.000Z</time>
      </trkpt>
      <trkpt lat="47.53027" lon="6.76997">
        <ele>384</ele>
        <time>2016-07-17T10:07:15.000Z</time>
      </trkpt>
      <trkpt lat="47.53022" lon="6.77002">
        <ele>382</ele>
        <time>2016-07-17T10:07:16.000Z</time>
      </trkpt>
      <trkpt lat="47.53017" lon="6.77006">
        <ele>382</ele>
        <time>2016-07-17T10:07:17.000Z</time>
      </trkpt>
      <trkpt lat="47.53008" lon="6.77006">
        <ele>383</ele>
        <time>2016-07-17T10:07:18.000Z</time>
      </trkpt>
      <trkpt lat="47.53003" lon="6.77011">
        <ele>383</ele>
        <time>2016-07-17T10:07:19.000Z</time>
      </trkpt>
      <trkpt lat="47.52998" lon="6.77013">
        <ele>382</ele>
        <time>2016-07-17T10:07:20.000Z</time>
      </trkpt>
      <trkpt lat="47.52993" lon="6.77015">
        <ele>382</ele>
        <time>2016-07-17T10:07:21.000Z</time>
      </trkpt>
      <trkpt lat="47.52989" lon="6.77018">
        <ele>382</ele>
        <time>2016-07-17T10:07:22.000Z</time>
      </trkpt>
      <trkpt lat="47.52985" lon="6.77021">
        <ele>381</ele>
        <time>2016-07-17T10:07:23.000Z</time>
      </trkpt>
      <trkpt lat="47.52981" lon="6.77022">
        <ele>381</ele>
        <time>2016-07-17T10:07:24.000Z</time>
      </trkpt>
      <trkpt lat="47.52978" lon="6.77023">
        <ele>381</ele>
        <time>2016-07-17T10:07:25.000Z</time>
      </trkpt>
      <trkpt lat="47.52974" lon="6.77025">
        <ele>381</ele>
        <time>2016-07-17T10:07:26.000Z</time>
      </trkpt>
      <trkpt lat="47.52971" lon="6.77026">
        <ele>381</ele>
        <time>2016-07-17T10:07:27.000Z</time>
      </trkpt>
      <trkpt lat="47.52967" lon="6.77027">
        <ele>381</ele>
        <time>2016-07-17T10:07:28.000Z</time>
      </trkpt>
      <trkpt lat="47.52963" lon="6.77027">
        <ele>381</ele>
        <time>2016-07-17T10:07:29.000Z</time>
      </trkpt>
      <trkpt lat="47.52959" lon="6.77028">
        <ele>380</ele>
        <time>2016-07-17T10:07:30.000Z</time>
      </trkpt>
      <trkpt lat="47.52954" lon="6.77029">
        <ele>380</ele>
        <time>2016-07-17T10:07:31.000Z</time>
      </trkpt>
      <trkpt lat="47.5295" lon="6.77029">
        <ele>380</ele>
        <time>2016-07-17T10:07:32.000Z</time>
      </trkpt>
      <trkpt lat="47.52946" lon="6.7703">
        <ele>380</ele>
        <time>2016-07-17T10:07:33.000Z</time>
      </trkpt>
      <trkpt lat="47.52941" lon="6.77031">
        <ele>380</ele>
        <time>2016-07-17T10:07:34.000Z</time>
      </trkpt>
      <trkpt lat="47.52937" lon="6.77033">
        <ele>380</ele>
        <time>2016-07-17T10:07:35.000Z</time>
      </trkpt>
      <trkpt lat="47.5293" lon="6.77042">
        <ele>380</ele>
        <time>2016-07-17T10:07:36.000Z</time>
      </trkpt>
      <trkpt lat="47.52927" lon="6.77048">
        <ele>380</ele>
        <time>2016-07-17T10:07:37.000Z</time>
      </trkpt>
      <trkpt lat="47.52924" lon="6.77052">
        <ele>380</ele>
        <time>2016-07-17T10:07:38.000Z</time>
      </trkpt>
      <trkpt lat="47.52921" lon="6.77057">
        <ele>380</ele>
        <time>2016-07-17T10:07:39.000Z</time>
      </trkpt>
      <trkpt lat="47.52919" lon="6.77063">
        <ele>380</ele>
        <time>2016-07-17T10:07:40.000Z</time>
      </trkpt>
      <trkpt lat="47.52916" lon="6.77069">
        <ele>379</ele>
        <time>2016-07-17T10:07:41.000Z</time>
      </trkpt>
      <trkpt lat="47.52914" lon="6.77074">
        <ele>379</ele>
        <time>2016-07-17T10:07:42.000Z</time>
      </trkpt>
      <trkpt lat="47.52912" lon="6.77079">
        <ele>379</ele>
        <time>2016-07-17T10:07:43.000Z</time>
      </trkpt>
      <trkpt lat="47.52909" lon="6.77084">
        <ele>379</ele>
        <time>2016-07-17T10:07:44.000Z</time>
      </trkpt>
      <trkpt lat="47.52905" lon="6.77086">
        <ele>378</ele>
        <time>2016-07-17T10:07:45.000Z</time>
      </trkpt>
      <trkpt lat="47.52902" lon="6.7709">
        <ele>378</ele>
        <time>2016-07-17T10:07:46.000Z</time>
      </trkpt>
      <trkpt lat="47.52899" lon="6.77095">
        <ele>378</ele>
        <time>2016-07-17T10:07:47.000Z</time>
      </trkpt>
      <trkpt lat="47.52895" lon="6.77099">
        <ele>378</ele>
        <time>2016-07-17T10:07:48.000Z</time>
      </trkpt>
      <trkpt lat="47.52893" lon="6.77104">
        <ele>378</ele>
        <time>2016-07-17T10:07:49.000Z</time>
      </trkpt>
      <trkpt lat="47.5289" lon="6.7711">
        <ele>378</ele>
        <time>2016-07-17T10:07:50.000Z</time>
      </trkpt>
      <trkpt lat="47.52887" lon="6.77116">
        <ele>378</ele>
        <time>2016-07-17T10:07:51.000Z</time>
      </trkpt>
      <trkpt lat="47.52885" lon="6.77122">
        <ele>378</ele>
        <time>2016-07-17T10:07:52.000Z</time>
      </trkpt>
      <trkpt lat="47.52877" lon="6.77133">
        <ele>377</ele>
        <time>2016-07-17T10:07:53.000Z</time>
      </trkpt>
      <trkpt lat="47.52873" lon="6.77139">
        <ele>377</ele>
        <time>2016-07-17T10:07:54.000Z</time>
      </trkpt>
      <trkpt lat="47.52869" lon="6.77144">
        <ele>377</ele>
        <time>2016-07-17T10:07:55.000Z</time>
      </trkpt>
      <trkpt lat="47.52865" lon="6.77147">
        <ele>377</ele>
        <time>2016-07-17T10:07:58.000Z</time>
      </trkpt>
      <trkpt lat="47.52862" lon="6.77148">
        <ele>377</ele>
        <time>2016-07-17T10:07:59.000Z</time>
      </trkpt>
      <trkpt lat="47.52859" lon="6.77149">
        <ele>377</ele>
        <time>2016-07-17T10:08:00.000Z</time>
      </trkpt>
      <trkpt lat="47.52855" lon="6.77151">
        <ele>377</ele>
        <time>2016-07-17T10:08:01.000Z</time>
      </trkpt>
      <trkpt lat="47.52846" lon="6.77153">
        <ele>377</ele>
        <time>2016-07-17T10:08:02.000Z</time>
      </trkpt>
      <trkpt lat="47.52841" lon="6.77155">
        <ele>377</ele>
        <time>2016-07-17T10:08:03.000Z</time>
      </trkpt>
      <trkpt lat="47.52837" lon="6.77156">
        <ele>377</ele>
        <time>2016-07-17T10:08:04.000Z</time>
      </trkpt>
      <trkpt lat="47.52832" lon="6.77156">
        <ele>378</ele>
        <time>2016-07-17T10:08:05.000Z</time>
      </trkpt>
      <trkpt lat="47.52828" lon="6.77157">
        <ele>378</ele>
        <time>2016-07-17T10:08:06.000Z</time>
      </trkpt>
      <trkpt lat="47.52824" lon="6.77159">
        <ele>378</ele>
        <time>2016-07-17T10:08:07.000Z</time>
      </trkpt>
      <trkpt lat="47.52818" lon="6.77159">
        <ele>379</ele>
        <time>2016-07-17T10:08:08.000Z</time>
      </trkpt>
      <trkpt lat="47.52814" lon="6.77159">
        <ele>379</ele>
        <time>2016-07-17T10:08:09.000Z</time>
      </trkpt>
      <trkpt lat="47.5281" lon="6.7716">
        <ele>379</ele>
        <time>2016-07-17T10:08:10.000Z</time>
      </trkpt>
      <trkpt lat="47.52805" lon="6.77162">
        <ele>379</ele>
        <time>2016-07-17T10:08:11.000Z</time>
      </trkpt>
      <trkpt lat="47.52797" lon="6.77157">
        <ele>380</ele>
        <time>2016-07-17T10:08:12.000Z</time>
      </trkpt>
      <trkpt lat="47.52793" lon="6.77157">
        <ele>380</ele>
        <time>2016-07-17T10:08:13.000Z</time>
      </trkpt>
      <trkpt lat="47.5279" lon="6.77158">
        <ele>380</ele>
        <time>2016-07-17T10:08:14.000Z</time>
      </trkpt>
      <trkpt lat="47.52786" lon="6.7716">
        <ele>380</ele>
        <time>2016-07-17T10:08:15.000Z</time>
      </trkpt>
      <trkpt lat="47.52783" lon="6.77162">
        <ele>380</ele>
        <time>2016-07-17T10:08:16.000Z</time>
      </trkpt>
      <trkpt lat="47.5278" lon="6.77163">
        <ele>380</ele>
        <time>2016-07-17T10:08:17.000Z</time>
      </trkpt>
      <trkpt lat="47.52776" lon="6.77166">
        <ele>380</ele>
        <time>2016-07-17T10:08:18.000Z</time>
      </trkpt>
      <trkpt lat="47.52772" lon="6.7717">
        <ele>380</ele>
        <time>2016-07-17T10:08:19.000Z</time>
      </trkpt>
      <trkpt lat="47.52769" lon="6.77171">
        <ele>380</ele>
        <time>2016-07-17T10:08:20.000Z</time>
      </trkpt>
      <trkpt lat="47.52765" lon="6.77173">
        <ele>380</ele>
        <time>2016-07-17T10:08:21.000Z</time>
      </trkpt>
      <trkpt lat="47.52762" lon="6.77174">
        <ele>380</ele>
        <time>2016-07-17T10:08:22.000Z</time>
      </trkpt>
      <trkpt lat="47.52759" lon="6.77175">
        <ele>380</ele>
        <time>2016-07-17T10:08:23.000Z</time>
      </trkpt>
      <trkpt lat="47.52756" lon="6.77175">
        <ele>380</ele>
        <time>2016-07-17T10:08:24.000Z</time>
      </trkpt>
      <trkpt lat="47.52752" lon="6.77176">
        <ele>380</ele>
        <time>2016-07-17T10:08:25.000Z</time>
      </trkpt>
      <trkpt lat="47.52749" lon="6.77176">
        <ele>381</ele>
        <time>2016-07-17T10:08:26.000Z</time>
      </trkpt>
      <trkpt lat="47.52745" lon="6.77178">
        <ele>382</ele>
        <time>2016-07-17T10:08:27.000Z</time>
      </trkpt>
      <trkpt lat="47.52742" lon="6.77179">
        <ele>382</ele>
        <time>2016-07-17T10:08:28.000Z</time>
      </trkpt>
      <trkpt lat="47.52739" lon="6.7718">
        <ele>382</ele>
        <time>2016-07-17T10:08:29.000Z</time>
      </trkpt>
      <trkpt lat="47.52736" lon="6.77181">
        <ele>382</ele>
        <time>2016-07-17T10:08:30.000Z</time>
      </trkpt>
      <trkpt lat="47.52734" lon="6.77182">
        <ele>383</ele>
        <time>2016-07-17T10:08:31.000Z</time>
      </trkpt>
      <trkpt lat="47.52731" lon="6.77183">
        <ele>383</ele>
        <time>2016-07-17T10:08:32.000Z</time>
      </trkpt>
      <trkpt lat="47.52728" lon="6.77184">
        <ele>383</ele>
        <time>2016-07-17T10:08:33.000Z</time>
      </trkpt>
      <trkpt lat="47.52725" lon="6.77185">
        <ele>383</ele>
        <time>2016-07-17T10:08:34.000Z</time>
      </trkpt>
      <trkpt lat="47.52722" lon="6.77187">
        <ele>383</ele>
        <time>2016-07-17T10:08:35.000Z</time>
      </trkpt>
      <trkpt lat="47.5272" lon="6.77188">
        <ele>384</ele>
        <time>2016-07-17T10:08:36.000Z</time>
      </trkpt>
      <trkpt lat="47.52717" lon="6.7719">
        <ele>384</ele>
        <time>2016-07-17T10:08:37.000Z</time>
      </trkpt>
      <trkpt lat="47.52714" lon="6.77191">
        <ele>384</ele>
        <time>2016-07-17T10:08:38.000Z</time>
      </trkpt>
      <trkpt lat="47.52712" lon="6.77193">
        <ele>384</ele>
        <time>2016-07-17T10:08:39.000Z</time>
      </trkpt>
      <trkpt lat="47.52709" lon="6.77193">
        <ele>384</ele>
        <time>2016-07-17T10:08:40.000Z</time>
      </trkpt>
      <trkpt lat="47.52707" lon="6.77194">
        <ele>384</ele>
        <time>2016-07-17T10:08:41.000Z</time>
      </trkpt>
      <trkpt lat="47.52704" lon="6.77196">
        <ele>384</ele>
        <time>2016-07-17T10:08:42.000Z</time>
      </trkpt>
      <trkpt lat="47.527" lon="6.77197">
        <ele>384</ele>
        <time>2016-07-17T10:08:44.000Z</time>
      </trkpt>
      <trkpt lat="47.52698" lon="6.77198">
        <ele>384</ele>
        <time>2016-07-17T10:08:45.000Z</time>
      </trkpt>
      <trkpt lat="47.52696" lon="6.772">
        <ele>385</ele>
        <time>2016-07-17T10:08:47.000Z</time>
      </trkpt>
      <trkpt lat="47.52694" lon="6.77202">
        <ele>385</ele>
        <time>2016-07-17T10:08:48.000Z</time>
      </trkpt>
      <trkpt lat="47.52692" lon="6.77204">
        <ele>385</ele>
        <time>2016-07-17T10:08:49.000Z</time>
      </trkpt>
      <trkpt lat="47.5269" lon="6.77207">
        <ele>385</ele>
        <time>2016-07-17T10:08:50.000Z</time>
      </trkpt>
      <trkpt lat="47.52687" lon="6.77209">
        <ele>385</ele>
        <time>2016-07-17T10:08:51.000Z</time>
      </trkpt>
      <trkpt lat="47.52685" lon="6.77211">
        <ele>385</ele>
        <time>2016-07-17T10:08:52.000Z</time>
      </trkpt>
      <trkpt lat="47.52682" lon="6.77213">
        <ele>385</ele>
        <time>2016-07-17T10:08:53.000Z</time>
      </trkpt>
      <trkpt lat="47.52681" lon="6.77215">
        <ele>385</ele>
        <time>2016-07-17T10:08:54.000Z</time>
      </trkpt>
      <trkpt lat="47.52678" lon="6.77219">
        <ele>385</ele>
        <time>2016-07-17T10:08:56.000Z</time>
      </trkpt>
      <trkpt lat="47.52676" lon="6.77222">
        <ele>385</ele>
        <time>2016-07-17T10:08:57.000Z</time>
      </trkpt>
      <trkpt lat="47.52674" lon="6.77225">
        <ele>385</ele>
        <time>2016-07-17T10:08:58.000Z</time>
      </trkpt>
      <trkpt lat="47.52673" lon="6.77228">
        <ele>385</ele>
        <time>2016-07-17T10:08:59.000Z</time>
      </trkpt>
      <trkpt lat="47.52671" lon="6.77231">
        <ele>385</ele>
        <time>2016-07-17T10:09:00.000Z</time>
      </trkpt>
      <trkpt lat="47.52669" lon="6.77233">
        <ele>385</ele>
        <time>2016-07-17T10:09:01.000Z</time>
      </trkpt>
      <trkpt lat="47.52667" lon="6.77235">
        <ele>385</ele>
        <time>2016-07-17T10:09:02.000Z</time>
      </trkpt>
      <trkpt lat="47.52665" lon="6.77237">
        <ele>386</ele>
        <time>2016-07-17T10:09:03.000Z</time>
      </trkpt>
      <trkpt lat="47.52663" lon="6.7724">
        <ele>386</ele>
        <time>2016-07-17T10:09:04.000Z</time>
      </trkpt>
      <trkpt lat="47.5266" lon="6.77243">
        <ele>386</ele>
        <time>2016-07-17T10:09:05.000Z</time>
      </trkpt>
      <trkpt lat="47.52656" lon="6.77246">
        <ele>386</ele>
        <time>2016-07-17T10:09:06.000Z</time>
      </trkpt>
      <trkpt lat="47.52652" lon="6.77249">
        <ele>386</ele>
        <time>2016-07-17T10:09:07.000Z</time>
      </trkpt>
      <trkpt lat="47.52649" lon="6.77252">
        <ele>387</ele>
        <time>2016-07-17T10:09:08.000Z</time>
      </trkpt>
      <trkpt lat="47.52645" lon="6.77254">
        <ele>387</ele>
        <time>2016-07-17T10:09:09.000Z</time>
      </trkpt>
      <trkpt lat="47.52642" lon="6.77256">
        <ele>387</ele>
        <time>2016-07-17T10:09:10.000Z</time>
      </trkpt>
      <trkpt lat="47.52639" lon="6.77257">
        <ele>387</ele>
        <time>2016-07-17T10:09:11.000Z</time>
      </trkpt>
      <trkpt lat="47.52635" lon="6.77259">
        <ele>387</ele>
        <time>2016-07-17T10:09:12.000Z</time>
      </trkpt>
      <trkpt lat="47.52632" lon="6.7726">
        <ele>387</ele>
        <time>2016-07-17T10:09:13.000Z</time>
      </trkpt>
      <trkpt lat="47.52629" lon="6.77262">
        <ele>387</ele>
        <time>2016-07-17T10:09:14.000Z</time>
      </trkpt>
      <trkpt lat="47.52625" lon="6.77264">
        <ele>387</ele>
        <time>2016-07-17T10:09:15.000Z</time>
      </trkpt>
      <trkpt lat="47.5262" lon="6.77265">
        <ele>387</ele>
        <time>2016-07-17T10:09:16.000Z</time>
      </trkpt>
      <trkpt lat="47.52616" lon="6.77267">
        <ele>387</ele>
        <time>2016-07-17T10:09:17.000Z</time>
      </trkpt>
      <trkpt lat="47.52613" lon="6.77268">
        <ele>387</ele>
        <time>2016-07-17T10:09:18.000Z</time>
      </trkpt>
      <trkpt lat="47.5261" lon="6.7727">
        <ele>387</ele>
        <time>2016-07-17T10:09:19.000Z</time>
      </trkpt>
      <trkpt lat="47.52607" lon="6.77274">
        <ele>387</ele>
        <time>2016-07-17T10:09:20.000Z</time>
      </trkpt>
      <trkpt lat="47.52605" lon="6.77278">
        <ele>387</ele>
        <time>2016-07-17T10:09:21.000Z</time>
      </trkpt>
      <trkpt lat="47.52603" lon="6.77282">
        <ele>387</ele>
        <time>2016-07-17T10:09:22.000Z</time>
      </trkpt>
      <trkpt lat="47.526" lon="6.77287">
        <ele>387</ele>
        <time>2016-07-17T10:09:23.000Z</time>
      </trkpt>
      <trkpt lat="47.52597" lon="6.7729">
        <ele>387</ele>
        <time>2016-07-17T10:09:24.000Z</time>
      </trkpt>
      <trkpt lat="47.52593" lon="6.77294">
        <ele>387</ele>
        <time>2016-07-17T10:09:25.000Z</time>
      </trkpt>
      <trkpt lat="47.52589" lon="6.77297">
        <ele>387</ele>
        <time>2016-07-17T10:09:26.000Z</time>
      </trkpt>
      <trkpt lat="47.52585" lon="6.77301">
        <ele>387</ele>
        <time>2016-07-17T10:09:27.000Z</time>
      </trkpt>
      <trkpt lat="47.52581" lon="6.77304">
        <ele>385</ele>
        <time>2016-07-17T10:09:28.000Z</time>
      </trkpt>
      <trkpt lat="47.52577" lon="6.77307">
        <ele>385</ele>
        <time>2016-07-17T10:09:29.000Z</time>
      </trkpt>
      <trkpt lat="47.52573" lon="6.77309">
        <ele>385</ele>
        <time>2016-07-17T10:09:30.000Z</time>
      </trkpt>
      <trkpt lat="47.52569" lon="6.77313">
        <ele>385</ele>
        <time>2016-07-17T10:09:31.000Z</time>
      </trkpt>
      <trkpt lat="47.52566" lon="6.77317">
        <ele>385</ele>
        <time>2016-07-17T10:09:32.000Z</time>
      </trkpt>
      <trkpt lat="47.52562" lon="6.7732">
        <ele>385</ele>
        <time>2016-07-17T10:09:33.000Z</time>
      </trkpt>
      <trkpt lat="47.52559" lon="6.77324">
        <ele>385</ele>
        <time>2016-07-17T10:09:34.000Z</time>
      </trkpt>
      <trkpt lat="47.52556" lon="6.77327">
        <ele>385</ele>
        <time>2016-07-17T10:09:35.000Z</time>
      </trkpt>
      <trkpt lat="47.52552" lon="6.77329">
        <ele>385</ele>
        <time>2016-07-17T10:09:36.000Z</time>
      </trkpt>
      <trkpt lat="47.52548" lon="6.77332">
        <ele>385</ele>
        <time>2016-07-17T10:09:37.000Z</time>
      </trkpt>
      <trkpt lat="47.52545" lon="6.77335">
        <ele>387</ele>
        <time>2016-07-17T10:09:38.000Z</time>
      </trkpt>
      <trkpt lat="47.52541" lon="6.77338">
        <ele>387</ele>
        <time>2016-07-17T10:09:39.000Z</time>
      </trkpt>
      <trkpt lat="47.52537" lon="6.77342">
        <ele>387</ele>
        <time>2016-07-17T10:09:40.000Z</time>
      </trkpt>
      <trkpt lat="47.52533" lon="6.77345">
        <ele>387</ele>
        <time>2016-07-17T10:09:41.000Z</time>
      </trkpt>
      <trkpt lat="47.52529" lon="6.77348">
        <ele>387</ele>
        <time>2016-07-17T10:09:42.000Z</time>
      </trkpt>
      <trkpt lat="47.52525" lon="6.77351">
        <ele>387</ele>
        <time>2016-07-17T10:09:43.000Z</time>
      </trkpt>
      <trkpt lat="47.52521" lon="6.77354">
        <ele>387</ele>
        <time>2016-07-17T10:09:44.000Z</time>
      </trkpt>
      <trkpt lat="47.52517" lon="6.77356">
        <ele>388</ele>
        <time>2016-07-17T10:09:45.000Z</time>
      </trkpt>
      <trkpt lat="47.52514" lon="6.77358">
        <ele>388</ele>
        <time>2016-07-17T10:09:46.000Z</time>
      </trkpt>
      <trkpt lat="47.5251" lon="6.7736">
        <ele>388</ele>
        <time>2016-07-17T10:09:47.000Z</time>
      </trkpt>
      <trkpt lat="47.52506" lon="6.77362">
        <ele>388</ele>
        <time>2016-07-17T10:09:48.000Z</time>
      </trkpt>
      <trkpt lat="47.52503" lon="6.77364">
        <ele>388</ele>
        <time>2016-07-17T10:09:49.000Z</time>
      </trkpt>
      <trkpt lat="47.52499" lon="6.77366">
        <ele>389</ele>
        <time>2016-07-17T10:09:50.000Z</time>
      </trkpt>
      <trkpt lat="47.52496" lon="6.77368">
        <ele>389</ele>
        <time>2016-07-17T10:09:51.000Z</time>
      </trkpt>
      <trkpt lat="47.52493" lon="6.77369">
        <ele>389</ele>
        <time>2016-07-17T10:09:52.000Z</time>
      </trkpt>
      <trkpt lat="47.52486" lon="6.77372">
        <ele>390</ele>
        <time>2016-07-17T10:09:54.000Z</time>
      </trkpt>
      <trkpt lat="47.52483" lon="6.77373">
        <ele>390</ele>
        <time>2016-07-17T10:09:55.000Z</time>
      </trkpt>
      <trkpt lat="47.52481" lon="6.77375">
        <ele>390</ele>
        <time>2016-07-17T10:09:56.000Z</time>
      </trkpt>
      <trkpt lat="47.52478" lon="6.77376">
        <ele>390</ele>
        <time>2016-07-17T10:09:57.000Z</time>
      </trkpt>
      <trkpt lat="47.52475" lon="6.77377">
        <ele>390</ele>
        <time>2016-07-17T10:09:58.000Z</time>
      </trkpt>
      <trkpt lat="47.52473" lon="6.77379">
        <ele>390</ele>
        <time>2016-07-17T10:09:59.000Z</time>
      </trkpt>
      <trkpt lat="47.5247" lon="6.77381">
        <ele>390</ele>
        <time>2016-07-17T10:10:00.000Z</time>
      </trkpt>
      <trkpt lat="47.52468" lon="6.77382">
        <ele>390</ele>
        <time>2016-07-17T10:10:01.000Z</time>
      </trkpt>
      <trkpt lat="47.52465" lon="6.77384">
        <ele>390</ele>
        <time>2016-07-17T10:10:02.000Z</time>
      </trkpt>
      <trkpt lat="47.52463" lon="6.77384">
        <ele>390</ele>
        <time>2016-07-17T10:10:03.000Z</time>
      </trkpt>
      <trkpt lat="47.52461" lon="6.77385">
        <ele>390</ele>
        <time>2016-07-17T10:10:04.000Z</time>
      </trkpt>
      <trkpt lat="47.52458" lon="6.77386">
        <ele>391</ele>
        <time>2016-07-17T10:10:05.000Z</time>
      </trkpt>
      <trkpt lat="47.52456" lon="6.77387">
        <ele>391</ele>
        <time>2016-07-17T10:10:06.000Z</time>
      </trkpt>
      <trkpt lat="47.52454" lon="6.77388">
        <ele>391</ele>
        <time>2016-07-17T10:10:07.000Z</time>
      </trkpt>
      <trkpt lat="47.52451" lon="6.77388">
        <ele>391</ele>
        <time>2016-07-17T10:10:08.000Z</time>
      </trkpt>
      <trkpt lat="47.52447" lon="6.7739">
        <ele>391</ele>
        <time>2016-07-17T10:10:10.000Z</time>
      </trkpt>
      <trkpt lat="47.52445" lon="6.77391">
        <ele>391</ele>
        <time>2016-07-17T10:10:11.000Z</time>
      </trkpt>
      <trkpt lat="47.52442" lon="6.77392">
        <ele>391</ele>
        <time>2016-07-17T10:10:12.000Z</time>
      </trkpt>
      <trkpt lat="47.5244" lon="6.77394">
        <ele>391</ele>
        <time>2016-07-17T10:10:13.000Z</time>
      </trkpt>
      <trkpt lat="47.52438" lon="6.77396">
        <ele>391</ele>
        <time>2016-07-17T10:10:14.000Z</time>
      </trkpt>
      <trkpt lat="47.52437" lon="6.77398">
        <ele>391</ele>
        <time>2016-07-17T10:10:15.000Z</time>
      </trkpt>
      <trkpt lat="47.52433" lon="6.77401">
        <ele>391</ele>
        <time>2016-07-17T10:10:17.000Z</time>
      </trkpt>
      <trkpt lat="47.52431" lon="6.77402">
        <ele>392</ele>
        <time>2016-07-17T10:10:18.000Z</time>
      </trkpt>
      <trkpt lat="47.52429" lon="6.77405">
        <ele>392</ele>
        <time>2016-07-17T10:10:19.000Z</time>
      </trkpt>
      <trkpt lat="47.52427" lon="6.77408">
        <ele>392</ele>
        <time>2016-07-17T10:10:20.000Z</time>
      </trkpt>
      <trkpt lat="47.52426" lon="6.77411">
        <ele>392</ele>
        <time>2016-07-17T10:10:21.000Z</time>
      </trkpt>
      <trkpt lat="47.52424" lon="6.77414">
        <ele>392</ele>
        <time>2016-07-17T10:10:22.000Z</time>
      </trkpt>
      <trkpt lat="47.52422" lon="6.77417">
        <ele>392</ele>
        <time>2016-07-17T10:10:23.000Z</time>
      </trkpt>
      <trkpt lat="47.52421" lon="6.77419">
        <ele>393</ele>
        <time>2016-07-17T10:10:24.000Z</time>
      </trkpt>
      <trkpt lat="47.52418" lon="6.77423">
        <ele>393</ele>
        <time>2016-07-17T10:10:26.000Z</time>
      </trkpt>
      <trkpt lat="47.52417" lon="6.77424">
        <ele>393</ele>
        <time>2016-07-17T10:10:27.000Z</time>
      </trkpt>
      <trkpt lat="47.52415" lon="6.77427">
        <ele>392</ele>
        <time>2016-07-17T10:10:28.000Z</time>
      </trkpt>
      <trkpt lat="47.52413" lon="6.77428">
        <ele>392</ele>
        <time>2016-07-17T10:10:29.000Z</time>
      </trkpt>
      <trkpt lat="47.52411" lon="6.77431">
        <ele>392</ele>
        <time>2016-07-17T10:10:30.000Z</time>
      </trkpt>
      <trkpt lat="47.52409" lon="6.77433">
        <ele>392</ele>
        <time>2016-07-17T10:10:31.000Z</time>
      </trkpt>
      <trkpt lat="47.52407" lon="6.77436">
        <ele>392</ele>
        <time>2016-07-17T10:10:32.000Z</time>
      </trkpt>
      <trkpt lat="47.52405" lon="6.77437">
        <ele>392</ele>
        <time>2016-07-17T10:10:33.000Z</time>
      </trkpt>
      <trkpt lat="47.52403" lon="6.7744">
        <ele>392</ele>
        <time>2016-07-17T10:10:34.000Z</time>
      </trkpt>
      <trkpt lat="47.52401" lon="6.77442">
        <ele>392</ele>
        <time>2016-07-17T10:10:35.000Z</time>
      </trkpt>
      <trkpt lat="47.52399" lon="6.77444">
        <ele>392</ele>
        <time>2016-07-17T10:10:36.000Z</time>
      </trkpt>
      <trkpt lat="47.52397" lon="6.77447">
        <ele>392</ele>
        <time>2016-07-17T10:10:37.000Z</time>
      </trkpt>
      <trkpt lat="47.52394" lon="6.77449">
        <ele>392</ele>
        <time>2016-07-17T10:10:38.000Z</time>
      </trkpt>
      <trkpt lat="47.52392" lon="6.77452">
        <ele>391</ele>
        <time>2016-07-17T10:10:39.000Z</time>
      </trkpt>
      <trkpt lat="47.52389" lon="6.77455">
        <ele>391</ele>
        <time>2016-07-17T10:10:40.000Z</time>
      </trkpt>
      <trkpt lat="47.52387" lon="6.77458">
        <ele>391</ele>
        <time>2016-07-17T10:10:41.000Z</time>
      </trkpt>
      <trkpt lat="47.52384" lon="6.77462">
        <ele>391</ele>
        <time>2016-07-17T10:10:42.000Z</time>
      </trkpt>
      <trkpt lat="47.52381" lon="6.77466">
        <ele>391</ele>
        <time>2016-07-17T10:10:43.000Z</time>
      </trkpt>
      <trkpt lat="47.52379" lon="6.77469">
        <ele>391</ele>
        <time>2016-07-17T10:10:44.000Z</time>
      </trkpt>
      <trkpt lat="47.52376" lon="6.77472">
        <ele>391</ele>
        <time>2016-07-17T10:10:45.000Z</time>
      </trkpt>
      <trkpt lat="47.52374" lon="6.77476">
        <ele>391</ele>
        <time>2016-07-17T10:10:46.000Z</time>
      </trkpt>
      <trkpt lat="47.52372" lon="6.77478">
        <ele>391</ele>
        <time>2016-07-17T10:10:47.000Z</time>
      </trkpt>
      <trkpt lat="47.52369" lon="6.77481">
        <ele>391</ele>
        <time>2016-07-17T10:10:48.000Z</time>
      </trkpt>
      <trkpt lat="47.52367" lon="6.77483">
        <ele>391</ele>
        <time>2016-07-17T10:10:49.000Z</time>
      </trkpt>
      <trkpt lat="47.52364" lon="6.77485">
        <ele>391</ele>
        <time>2016-07-17T10:10:50.000Z</time>
      </trkpt>
      <trkpt lat="47.52361" lon="6.77488">
        <ele>391</ele>
        <time>2016-07-17T10:10:51.000Z</time>
      </trkpt>
      <trkpt lat="47.52358" lon="6.7749">
        <ele>390</ele>
        <time>2016-07-17T10:10:52.000Z</time>
      </trkpt>
      <trkpt lat="47.52355" lon="6.77493">
        <ele>390</ele>
        <time>2016-07-17T10:10:53.000Z</time>
      </trkpt>
      <trkpt lat="47.52352" lon="6.77496">
        <ele>390</ele>
        <time>2016-07-17T10:10:54.000Z</time>
      </trkpt>
      <trkpt lat="47.52349" lon="6.77499">
        <ele>390</ele>
        <time>2016-07-17T10:10:55.000Z</time>
      </trkpt>
      <trkpt lat="47.52346" lon="6.77502">
        <ele>389</ele>
        <time>2016-07-17T10:10:56.000Z</time>
      </trkpt>
      <trkpt lat="47.52342" lon="6.77504">
        <ele>389</ele>
        <time>2016-07-17T10:10:57.000Z</time>
      </trkpt>
      <trkpt lat="47.52339" lon="6.77507">
        <ele>389</ele>
        <time>2016-07-17T10:10:58.000Z</time>
      </trkpt>
      <trkpt lat="47.52336" lon="6.7751">
        <ele>389</ele>
        <time>2016-07-17T10:10:59.000Z</time>
      </trkpt>
      <trkpt lat="47.52332" lon="6.77513">
        <ele>388</ele>
        <time>2016-07-17T10:11:00.000Z</time>
      </trkpt>
      <trkpt lat="47.52328" lon="6.77516">
        <ele>388</ele>
        <time>2016-07-17T10:11:01.000Z</time>
      </trkpt>
      <trkpt lat="47.52325" lon="6.77519">
        <ele>388</ele>
        <time>2016-07-17T10:11:02.000Z</time>
      </trkpt>
      <trkpt lat="47.5232" lon="6.77522">
        <ele>388</ele>
        <time>2016-07-17T10:11:03.000Z</time>
      </trkpt>
      <trkpt lat="47.52316" lon="6.77525">
        <ele>388</ele>
        <time>2016-07-17T10:11:04.000Z</time>
      </trkpt>
      <trkpt lat="47.52311" lon="6.7753">
        <ele>388</ele>
        <time>2016-07-17T10:11:05.000Z</time>
      </trkpt>
      <trkpt lat="47.52307" lon="6.77534">
        <ele>387</ele>
        <time>2016-07-17T10:11:06.000Z</time>
      </trkpt>
      <trkpt lat="47.52302" lon="6.77537">
        <ele>387</ele>
        <time>2016-07-17T10:11:07.000Z</time>
      </trkpt>
      <trkpt lat="47.52298" lon="6.7754">
        <ele>387</ele>
        <time>2016-07-17T10:11:08.000Z</time>
      </trkpt>
      <trkpt lat="47.52293" lon="6.77543">
        <ele>387</ele>
        <time>2016-07-17T10:11:09.000Z</time>
      </trkpt>
      <trkpt lat="47.52289" lon="6.77546">
        <ele>387</ele>
        <time>2016-07-17T10:11:10.000Z</time>
      </trkpt>
      <trkpt lat="47.52284" lon="6.77549">
        <ele>387</ele>
        <time>2016-07-17T10:11:11.000Z</time>
      </trkpt>
      <trkpt lat="47.52279" lon="6.77552">
        <ele>387</ele>
        <time>2016-07-17T10:11:12.000Z</time>
      </trkpt>
      <trkpt lat="47.52274" lon="6.77554">
        <ele>387</ele>
        <time>2016-07-17T10:11:13.000Z</time>
      </trkpt>
      <trkpt lat="47.5227" lon="6.77557">
        <ele>387</ele>
        <time>2016-07-17T10:11:14.000Z</time>
      </trkpt>
      <trkpt lat="47.52266" lon="6.7756">
        <ele>387</ele>
        <time>2016-07-17T10:11:15.000Z</time>
      </trkpt>
      <trkpt lat="47.52261" lon="6.77563">
        <ele>387</ele>
        <time>2016-07-17T10:11:16.000Z</time>
      </trkpt>
      <trkpt lat="47.52257" lon="6.77566">
        <ele>387</ele>
        <time>2016-07-17T10:11:17.000Z</time>
      </trkpt>
      <trkpt lat="47.52253" lon="6.77568">
        <ele>387</ele>
        <time>2016-07-17T10:11:18.000Z</time>
      </trkpt>
      <trkpt lat="47.52248" lon="6.77571">
        <ele>387</ele>
        <time>2016-07-17T10:11:19.000Z</time>
      </trkpt>
      <trkpt lat="47.52244" lon="6.77573">
        <ele>387</ele>
        <time>2016-07-17T10:11:20.000Z</time>
      </trkpt>
      <trkpt lat="47.5224" lon="6.77577">
        <ele>387</ele>
        <time>2016-07-17T10:11:21.000Z</time>
      </trkpt>
      <trkpt lat="47.52235" lon="6.77579">
        <ele>387</ele>
        <time>2016-07-17T10:11:22.000Z</time>
      </trkpt>
      <trkpt lat="47.52231" lon="6.77583">
        <ele>387</ele>
        <time>2016-07-17T10:11:23.000Z</time>
      </trkpt>
      <trkpt lat="47.52227" lon="6.77585">
        <ele>386</ele>
        <time>2016-07-17T10:11:24.000Z</time>
      </trkpt>
      <trkpt lat="47.52223" lon="6.77587">
        <ele>386</ele>
        <time>2016-07-17T10:11:25.000Z</time>
      </trkpt>
      <trkpt lat="47.52218" lon="6.7759">
        <ele>386</ele>
        <time>2016-07-17T10:11:26.000Z</time>
      </trkpt>
      <trkpt lat="47.52214" lon="6.77593">
        <ele>387</ele>
        <time>2016-07-17T10:11:27.000Z</time>
      </trkpt>
      <trkpt lat="47.52209" lon="6.77596">
        <ele>387</ele>
        <time>2016-07-17T10:11:28.000Z</time>
      </trkpt>
      <trkpt lat="47.52205" lon="6.77599">
        <ele>387</ele>
        <time>2016-07-17T10:11:29.000Z</time>
      </trkpt>
      <trkpt lat="47.52201" lon="6.77602">
        <ele>387</ele>
        <time>2016-07-17T10:11:30.000Z</time>
      </trkpt>
      <trkpt lat="47.52197" lon="6.77604">
        <ele>387</ele>
        <time>2016-07-17T10:11:31.000Z</time>
      </trkpt>
      <trkpt lat="47.52194" lon="6.77607">
        <ele>387</ele>
        <time>2016-07-17T10:11:32.000Z</time>
      </trkpt>
      <trkpt lat="47.5219" lon="6.77609">
        <ele>387</ele>
        <time>2016-07-17T10:11:33.000Z</time>
      </trkpt>
      <trkpt lat="47.52186" lon="6.77612">
        <ele>387</ele>
        <time>2016-07-17T10:11:34.000Z</time>
      </trkpt>
      <trkpt lat="47.52182" lon="6.77614">
        <ele>387</ele>
        <time>2016-07-17T10:11:35.000Z</time>
      </trkpt>
      <trkpt lat="47.52178" lon="6.77617">
        <ele>387</ele>
        <time>2016-07-17T10:11:36.000Z</time>
      </trkpt>
      <trkpt lat="47.52175" lon="6.7762">
        <ele>387</ele>
        <time>2016-07-17T10:11:37.000Z</time>
      </trkpt>
      <trkpt lat="47.52171" lon="6.77622">
        <ele>387</ele>
        <time>2016-07-17T10:11:38.000Z</time>
      </trkpt>
      <trkpt lat="47.52168" lon="6.77624">
        <ele>387</ele>
        <time>2016-07-17T10:11:39.000Z</time>
      </trkpt>
      <trkpt lat="47.52164" lon="6.77627">
        <ele>390</ele>
        <time>2016-07-17T10:11:40.000Z</time>
      </trkpt>
      <trkpt lat="47.5216" lon="6.77629">
        <ele>390</ele>
        <time>2016-07-17T10:11:41.000Z</time>
      </trkpt>
      <trkpt lat="47.52157" lon="6.77632">
        <ele>390</ele>
        <time>2016-07-17T10:11:42.000Z</time>
      </trkpt>
      <trkpt lat="47.52153" lon="6.77635">
        <ele>390</ele>
        <time>2016-07-17T10:11:43.000Z</time>
      </trkpt>
      <trkpt lat="47.52151" lon="6.77637">
        <ele>390</ele>
        <time>2016-07-17T10:11:44.000Z</time>
      </trkpt>
      <trkpt lat="47.52149" lon="6.77639">
        <ele>390</ele>
        <time>2016-07-17T10:11:45.000Z</time>
      </trkpt>
      <trkpt lat="47.52147" lon="6.7764">
        <ele>390</ele>
        <time>2016-07-17T10:11:46.000Z</time>
      </trkpt>
      <trkpt lat="47.52144" lon="6.77642">
        <ele>390</ele>
        <time>2016-07-17T10:11:47.000Z</time>
      </trkpt>
      <trkpt lat="47.52141" lon="6.77644">
        <ele>390</ele>
        <time>2016-07-17T10:11:48.000Z</time>
      </trkpt>
      <trkpt lat="47.52138" lon="6.77646">
        <ele>390</ele>
        <time>2016-07-17T10:11:49.000Z</time>
      </trkpt>
      <trkpt lat="47.52135" lon="6.77648">
        <ele>390</ele>
        <time>2016-07-17T10:11:50.000Z</time>
      </trkpt>
      <trkpt lat="47.52132" lon="6.7765">
        <ele>390</ele>
        <time>2016-07-17T10:11:51.000Z</time>
      </trkpt>
      <trkpt lat="47.52128" lon="6.77652">
        <ele>391</ele>
        <time>2016-07-17T10:11:52.000Z</time>
      </trkpt>
      <trkpt lat="47.52125" lon="6.77654">
        <ele>391</ele>
        <time>2016-07-17T10:11:53.000Z</time>
      </trkpt>
      <trkpt lat="47.52122" lon="6.77656">
        <ele>391</ele>
        <time>2016-07-17T10:11:54.000Z</time>
      </trkpt>
      <trkpt lat="47.52118" lon="6.77659">
        <ele>391</ele>
        <time>2016-07-17T10:11:55.000Z</time>
      </trkpt>
      <trkpt lat="47.52115" lon="6.77661">
        <ele>391</ele>
        <time>2016-07-17T10:11:56.000Z</time>
      </trkpt>
      <trkpt lat="47.52111" lon="6.77664">
        <ele>391</ele>
        <time>2016-07-17T10:11:57.000Z</time>
      </trkpt>
      <trkpt lat="47.52107" lon="6.77666">
        <ele>391</ele>
        <time>2016-07-17T10:11:58.000Z</time>
      </trkpt>
      <trkpt lat="47.52104" lon="6.77669">
        <ele>392</ele>
        <time>2016-07-17T10:11:59.000Z</time>
      </trkpt>
      <trkpt lat="47.52101" lon="6.7767">
        <ele>392</ele>
        <time>2016-07-17T10:12:00.000Z</time>
      </trkpt>
      <trkpt lat="47.52097" lon="6.77666">
        <ele>392</ele>
        <time>2016-07-17T10:12:02.000Z</time>
      </trkpt>
      <trkpt lat="47.52097" lon="6.77662">
        <ele>392</ele>
        <time>2016-07-17T10:12:03.000Z</time>
      </trkpt>
      <trkpt lat="47.52097" lon="6.77658">
        <ele>392</ele>
        <time>2016-07-17T10:12:04.000Z</time>
      </trkpt>
      <trkpt lat="47.52098" lon="6.77653">
        <ele>392</ele>
        <time>2016-07-17T10:12:05.000Z</time>
      </trkpt>
      <trkpt lat="47.52098" lon="6.77647">
        <ele>391</ele>
        <time>2016-07-17T10:12:06.000Z</time>
      </trkpt>
      <trkpt lat="47.52098" lon="6.77642">
        <ele>391</ele>
        <time>2016-07-17T10:12:07.000Z</time>
      </trkpt>
      <trkpt lat="47.52098" lon="6.77636">
        <ele>391</ele>
        <time>2016-07-17T10:12:08.000Z</time>
      </trkpt>
      <trkpt lat="47.52098" lon="6.7763">
        <ele>391</ele>
        <time>2016-07-17T10:12:09.000Z</time>
      </trkpt>
      <trkpt lat="47.52098" lon="6.77624">
        <ele>391</ele>
        <time>2016-07-17T10:12:10.000Z</time>
      </trkpt>
      <trkpt lat="47.52098" lon="6.77618">
        <ele>391</ele>
        <time>2016-07-17T10:12:11.000Z</time>
      </trkpt>
      <trkpt lat="47.52098" lon="6.77612">
        <ele>391</ele>
        <time>2016-07-17T10:12:12.000Z</time>
      </trkpt>
      <trkpt lat="47.52099" lon="6.77607">
        <ele>391</ele>
        <time>2016-07-17T10:12:13.000Z</time>
      </trkpt>
      <trkpt lat="47.52099" lon="6.77601">
        <ele>391</ele>
        <time>2016-07-17T10:12:14.000Z</time>
      </trkpt>
      <trkpt lat="47.521" lon="6.77596">
        <ele>391</ele>
        <time>2016-07-17T10:12:15.000Z</time>
      </trkpt>
      <trkpt lat="47.521" lon="6.77591">
        <ele>391</ele>
        <time>2016-07-17T10:12:16.000Z</time>
      </trkpt>
      <trkpt lat="47.52101" lon="6.77585">
        <ele>391</ele>
        <time>2016-07-17T10:12:17.000Z</time>
      </trkpt>
      <trkpt lat="47.52101" lon="6.77579">
        <ele>390</ele>
        <time>2016-07-17T10:12:18.000Z</time>
      </trkpt>
      <trkpt lat="47.521" lon="6.77573">
        <ele>390</ele>
        <time>2016-07-17T10:12:19.000Z</time>
      </trkpt>
      <trkpt lat="47.521" lon="6.77567">
        <ele>390</ele>
        <time>2016-07-17T10:12:20.000Z</time>
      </trkpt>
      <trkpt lat="47.52099" lon="6.77561">
        <ele>390</ele>
        <time>2016-07-17T10:12:21.000Z</time>
      </trkpt>
      <trkpt lat="47.52097" lon="6.77556">
        <ele>390</ele>
        <time>2016-07-17T10:12:22.000Z</time>
      </trkpt>
      <trkpt lat="47.52094" lon="6.77551">
        <ele>390</ele>
        <time>2016-07-17T10:12:23.000Z</time>
      </trkpt>
      <trkpt lat="47.52091" lon="6.77548">
        <ele>390</ele>
        <time>2016-07-17T10:12:24.000Z</time>
      </trkpt>
      <trkpt lat="47.52087" lon="6.77545">
        <ele>390</ele>
        <time>2016-07-17T10:12:25.000Z</time>
      </trkpt>
      <trkpt lat="47.52082" lon="6.77544">
        <ele>391</ele>
        <time>2016-07-17T10:12:26.000Z</time>
      </trkpt>
      <trkpt lat="47.52077" lon="6.77543">
        <ele>391</ele>
        <time>2016-07-17T10:12:27.000Z</time>
      </trkpt>
      <trkpt lat="47.52072" lon="6.77542">
        <ele>390</ele>
        <time>2016-07-17T10:12:28.000Z</time>
      </trkpt>
      <trkpt lat="47.52067" lon="6.77541">
        <ele>390</ele>
        <time>2016-07-17T10:12:29.000Z</time>
      </trkpt>
      <trkpt lat="47.52063" lon="6.7754">
        <ele>390</ele>
        <time>2016-07-17T10:12:30.000Z</time>
      </trkpt>
      <trkpt lat="47.52058" lon="6.7754">
        <ele>390</ele>
        <time>2016-07-17T10:12:31.000Z</time>
      </trkpt>
      <trkpt lat="47.52054" lon="6.77539">
        <ele>390</ele>
        <time>2016-07-17T10:12:32.000Z</time>
      </trkpt>
      <trkpt lat="47.5205" lon="6.77539">
        <ele>390</ele>
        <time>2016-07-17T10:12:33.000Z</time>
      </trkpt>
      <trkpt lat="47.52046" lon="6.77538">
        <ele>390</ele>
        <time>2016-07-17T10:12:34.000Z</time>
      </trkpt>
      <trkpt lat="47.52042" lon="6.77538">
        <ele>390</ele>
        <time>2016-07-17T10:12:35.000Z</time>
      </trkpt>
      <trkpt lat="47.52039" lon="6.77537">
        <ele>390</ele>
        <time>2016-07-17T10:12:36.000Z</time>
      </trkpt>
      <trkpt lat="47.52035" lon="6.77536">
        <ele>390</ele>
        <time>2016-07-17T10:12:37.000Z</time>
      </trkpt>
      <trkpt lat="47.52031" lon="6.77536">
        <ele>390</ele>
        <time>2016-07-17T10:12:38.000Z</time>
      </trkpt>
      <trkpt lat="47.52026" lon="6.77535">
        <ele>390</ele>
        <time>2016-07-17T10:12:39.000Z</time>
      </trkpt>
      <trkpt lat="47.52022" lon="6.77535">
        <ele>390</ele>
        <time>2016-07-17T10:12:40.000Z</time>
      </trkpt>
      <trkpt lat="47.52016" lon="6.77534">
        <ele>390</ele>
        <time>2016-07-17T10:12:41.000Z</time>
      </trkpt>
      <trkpt lat="47.52012" lon="6.77535">
        <ele>390</ele>
        <time>2016-07-17T10:12:42.000Z</time>
      </trkpt>
      <trkpt lat="47.52007" lon="6.77533">
        <ele>390</ele>
        <time>2016-07-17T10:12:43.000Z</time>
      </trkpt>
      <trkpt lat="47.52002" lon="6.77532">
        <ele>390</ele>
        <time>2016-07-17T10:12:44.000Z</time>
      </trkpt>
      <trkpt lat="47.51997" lon="6.7753">
        <ele>390</ele>
        <time>2016-07-17T10:12:45.000Z</time>
      </trkpt>
      <trkpt lat="47.51992" lon="6.77529">
        <ele>390</ele>
        <time>2016-07-17T10:12:46.000Z</time>
      </trkpt>
      <trkpt lat="47.51988" lon="6.77527">
        <ele>390</ele>
        <time>2016-07-17T10:12:47.000Z</time>
      </trkpt>
      <trkpt lat="47.51983" lon="6.77525">
        <ele>390</ele>
        <time>2016-07-17T10:12:48.000Z</time>
      </trkpt>
      <trkpt lat="47.51979" lon="6.77524">
        <ele>390</ele>
        <time>2016-07-17T10:12:49.000Z</time>
      </trkpt>
      <trkpt lat="47.51975" lon="6.77523">
        <ele>390</ele>
        <time>2016-07-17T10:12:50.000Z</time>
      </trkpt>
      <trkpt lat="47.5197" lon="6.77524">
        <ele>390</ele>
        <time>2016-07-17T10:12:51.000Z</time>
      </trkpt>
      <trkpt lat="47.51967" lon="6.77522">
        <ele>390</ele>
        <time>2016-07-17T10:12:52.000Z</time>
      </trkpt>
      <trkpt lat="47.51963" lon="6.77521">
        <ele>390</ele>
        <time>2016-07-17T10:12:53.000Z</time>
      </trkpt>
      <trkpt lat="47.51961" lon="6.7752">
        <ele>390</ele>
        <time>2016-07-17T10:12:54.000Z</time>
      </trkpt>
      <trkpt lat="47.51957" lon="6.77519">
        <ele>390</ele>
        <time>2016-07-17T10:12:55.000Z</time>
      </trkpt>
      <trkpt lat="47.51954" lon="6.77518">
        <ele>390</ele>
        <time>2016-07-17T10:12:56.000Z</time>
      </trkpt>
      <trkpt lat="47.51949" lon="6.77517">
        <ele>389</ele>
        <time>2016-07-17T10:12:57.000Z</time>
      </trkpt>
      <trkpt lat="47.51944" lon="6.77517">
        <ele>389</ele>
        <time>2016-07-17T10:12:58.000Z</time>
      </trkpt>
      <trkpt lat="47.5194" lon="6.77515">
        <ele>389</ele>
        <time>2016-07-17T10:12:59.000Z</time>
      </trkpt>
      <trkpt lat="47.51936" lon="6.77515">
        <ele>389</ele>
        <time>2016-07-17T10:13:00.000Z</time>
      </trkpt>
      <trkpt lat="47.51932" lon="6.77514">
        <ele>389</ele>
        <time>2016-07-17T10:13:01.000Z</time>
      </trkpt>
      <trkpt lat="47.51928" lon="6.77512">
        <ele>389</ele>
        <time>2016-07-17T10:13:02.000Z</time>
      </trkpt>
      <trkpt lat="47.51924" lon="6.77511">
        <ele>389</ele>
        <time>2016-07-17T10:13:03.000Z</time>
      </trkpt>
      <trkpt lat="47.5192" lon="6.7751">
        <ele>389</ele>
        <time>2016-07-17T10:13:04.000Z</time>
      </trkpt>
      <trkpt lat="47.51916" lon="6.77508">
        <ele>388</ele>
        <time>2016-07-17T10:13:05.000Z</time>
      </trkpt>
      <trkpt lat="47.51911" lon="6.77507">
        <ele>388</ele>
        <time>2016-07-17T10:13:06.000Z</time>
      </trkpt>
      <trkpt lat="47.51907" lon="6.77505">
        <ele>388</ele>
        <time>2016-07-17T10:13:07.000Z</time>
      </trkpt>
      <trkpt lat="47.51901" lon="6.77504">
        <ele>388</ele>
        <time>2016-07-17T10:13:08.000Z</time>
      </trkpt>
      <trkpt lat="47.51896" lon="6.77503">
        <ele>388</ele>
        <time>2016-07-17T10:13:09.000Z</time>
      </trkpt>
      <trkpt lat="47.51892" lon="6.77502">
        <ele>388</ele>
        <time>2016-07-17T10:13:10.000Z</time>
      </trkpt>
      <trkpt lat="47.51887" lon="6.77501">
        <ele>388</ele>
        <time>2016-07-17T10:13:11.000Z</time>
      </trkpt>
      <trkpt lat="47.51881" lon="6.775">
        <ele>388</ele>
        <time>2016-07-17T10:13:12.000Z</time>
      </trkpt>
      <trkpt lat="47.51876" lon="6.77499">
        <ele>387</ele>
        <time>2016-07-17T10:13:13.000Z</time>
      </trkpt>
      <trkpt lat="47.51871" lon="6.77499">
        <ele>387</ele>
        <time>2016-07-17T10:13:14.000Z</time>
      </trkpt>
      <trkpt lat="47.51866" lon="6.77499">
        <ele>387</ele>
        <time>2016-07-17T10:13:15.000Z</time>
      </trkpt>
      <trkpt lat="47.51861" lon="6.775">
        <ele>387</ele>
        <time>2016-07-17T10:13:16.000Z</time>
      </trkpt>
      <trkpt lat="47.51857" lon="6.77499">
        <ele>387</ele>
        <time>2016-07-17T10:13:17.000Z</time>
      </trkpt>
      <trkpt lat="47.51852" lon="6.775">
        <ele>387</ele>
        <time>2016-07-17T10:13:18.000Z</time>
      </trkpt>
      <trkpt lat="47.51848" lon="6.775">
        <ele>387</ele>
        <time>2016-07-17T10:13:19.000Z</time>
      </trkpt>
      <trkpt lat="47.51843" lon="6.77499">
        <ele>387</ele>
        <time>2016-07-17T10:13:20.000Z</time>
      </trkpt>
      <trkpt lat="47.51839" lon="6.77498">
        <ele>387</ele>
        <time>2016-07-17T10:13:21.000Z</time>
      </trkpt>
      <trkpt lat="47.51835" lon="6.77497">
        <ele>387</ele>
        <time>2016-07-17T10:13:22.000Z</time>
      </trkpt>
      <trkpt lat="47.51831" lon="6.77497">
        <ele>387</ele>
        <time>2016-07-17T10:13:23.000Z</time>
      </trkpt>
      <trkpt lat="47.51828" lon="6.77496">
        <ele>387</ele>
        <time>2016-07-17T10:13:24.000Z</time>
      </trkpt>
      <trkpt lat="47.51824" lon="6.77495">
        <ele>387</ele>
        <time>2016-07-17T10:13:25.000Z</time>
      </trkpt>
      <trkpt lat="47.51821" lon="6.77495">
        <ele>387</ele>
        <time>2016-07-17T10:13:26.000Z</time>
      </trkpt>
      <trkpt lat="47.51818" lon="6.77494">
        <ele>387</ele>
        <time>2016-07-17T10:13:27.000Z</time>
      </trkpt>
      <trkpt lat="47.51816" lon="6.77494">
        <ele>387</ele>
        <time>2016-07-17T10:13:28.000Z</time>
      </trkpt>
      <trkpt lat="47.51813" lon="6.7749">
        <ele>388</ele>
        <time>2016-07-17T10:13:31.000Z</time>
      </trkpt>
      <trkpt lat="47.51813" lon="6.77489">
        <ele>388</ele>
        <time>2016-07-17T10:13:32.000Z</time>
      </trkpt>
      <trkpt lat="47.51809" lon="6.77486">
        <ele>388</ele>
        <time>2016-07-17T10:13:54.000Z</time>
      </trkpt>
      <trkpt lat="47.51809" lon="6.77485">
        <ele>388</ele>
        <time>2016-07-17T10:13:55.000Z</time>
      </trkpt>
      <trkpt lat="47.51806" lon="6.77482">
        <ele>388</ele>
        <time>2016-07-17T10:13:58.000Z</time>
      </trkpt>
      <trkpt lat="47.51804" lon="6.77482">
        <ele>388</ele>
        <time>2016-07-17T10:13:59.000Z</time>
      </trkpt>
      <trkpt lat="47.51802" lon="6.77476">
        <ele>388</ele>
        <time>2016-07-17T10:14:08.000Z</time>
      </trkpt>
      <trkpt lat="47.51801" lon="6.77475">
        <ele>388</ele>
        <time>2016-07-17T10:14:09.000Z</time>
      </trkpt>
      <trkpt lat="47.518" lon="6.7747">
        <ele>388</ele>
        <time>2016-07-17T10:14:12.000Z</time>
      </trkpt>
      <trkpt lat="47.518" lon="6.77468">
        <ele>388</ele>
        <time>2016-07-17T10:14:13.000Z</time>
      </trkpt>
      <trkpt lat="47.51796" lon="6.77465">
        <ele>388</ele>
        <time>2016-07-17T10:15:00.000Z</time>
      </trkpt>
      <trkpt lat="47.51796" lon="6.77465">
        <ele>388</ele>
        <time>2016-07-17T10:15:01.000Z</time>
      </trkpt>
      <trkpt lat="47.51795" lon="6.77471">
        <ele>388</ele>
        <time>2016-07-17T10:15:12.000Z</time>
      </trkpt>
      <trkpt lat="47.51795" lon="6.77472">
        <ele>388</ele>
        <time>2016-07-17T10:15:13.000Z</time>
      </trkpt>
      <trkpt lat="47.51795" lon="6.7747">
        <ele>388</ele>
        <time>2016-07-17T10:15:43.000Z</time>
      </trkpt>
    </trkseg>
  </trk>
</gpx>